<?xml version="1.0" encoding="UTF-8"?>
<gpx version="1.1" creator=" " xmlns="http://www.topografix.com/GPX/1/1" xmlns:xsi="http://www.w3.org/2001/XMLSchema-instance" xsi:schemaLocation="http://www.topografix.com/GPX/1/1 http://www.topografix.com/GPX/1/1/gpx.xsd">
<metadata>
<name>Trainingslager Staffelsee</name>
<desc></desc>
<link href="">
<text>  </text>
</link>
<time>2022-05-27T09:00:57Z</time>
</metadata>
<trk>
<trkseg>
<trkpt lat="47.983532" lon="11.092461">
<ele>520.131</ele>
</trkpt>
<trkpt lat="47.983532" lon="11.092461">
<ele>520.131</ele>
<time>2022-05-27T09:00:57Z</time>
</trkpt>
<trkpt lat="47.983498" lon="11.092513">
<ele>525.07</ele>
<time>2022-05-27T09:04:28Z</time>
</trkpt>
<trkpt lat="47.98349" lon="11.092534">
<ele>525.534</ele>
<time>2022-05-27T09:04:29Z</time>
</trkpt>
<trkpt lat="47.983486" lon="11.092551">
<ele>525.959</ele>
<time>2022-05-27T09:04:30Z</time>
</trkpt>
<trkpt lat="47.983482" lon="11.092568">
<ele>525.959</ele>
<time>2022-05-27T09:04:31Z</time>
</trkpt>
<trkpt lat="47.983475" lon="11.092585">
<ele>525.959</ele>
<time>2022-05-27T09:04:32Z</time>
</trkpt>
<trkpt lat="47.983467" lon="11.0926">
<ele>525.959</ele>
<time>2022-05-27T09:04:33Z</time>
</trkpt>
<trkpt lat="47.983467" lon="11.092613">
<ele>525.959</ele>
<time>2022-05-27T09:04:34Z</time>
</trkpt>
<trkpt lat="47.983463" lon="11.092628">
<ele>525.959</ele>
<time>2022-05-27T09:04:35Z</time>
</trkpt>
<trkpt lat="47.983463" lon="11.092643">
<ele>525.959</ele>
<time>2022-05-27T09:04:36Z</time>
</trkpt>
<trkpt lat="47.983463" lon="11.09266">
<ele>525.959</ele>
<time>2022-05-27T09:04:37Z</time>
</trkpt>
<trkpt lat="47.983467" lon="11.092676">
<ele>525.959</ele>
<time>2022-05-27T09:04:38Z</time>
</trkpt>
<trkpt lat="47.983467" lon="11.092695">
<ele>525.959</ele>
<time>2022-05-27T09:04:39Z</time>
</trkpt>
<trkpt lat="47.983471" lon="11.092713">
<ele>525.959</ele>
<time>2022-05-27T09:04:40Z</time>
</trkpt>
<trkpt lat="47.983486" lon="11.09274">
<ele>525.959</ele>
<time>2022-05-27T09:04:41Z</time>
</trkpt>
<trkpt lat="47.983501" lon="11.092769">
<ele>525.959</ele>
<time>2022-05-27T09:04:42Z</time>
</trkpt>
<trkpt lat="47.983513" lon="11.092798">
<ele>525.959</ele>
<time>2022-05-27T09:04:43Z</time>
</trkpt>
<trkpt lat="47.983521" lon="11.092827">
<ele>525.959</ele>
<time>2022-05-27T09:04:44Z</time>
</trkpt>
<trkpt lat="47.983524" lon="11.092856">
<ele>525.959</ele>
<time>2022-05-27T09:04:45Z</time>
</trkpt>
<trkpt lat="47.983524" lon="11.09289">
<ele>525.959</ele>
<time>2022-05-27T09:04:46Z</time>
</trkpt>
<trkpt lat="47.983517" lon="11.092923">
<ele>525.959</ele>
<time>2022-05-27T09:04:47Z</time>
</trkpt>
<trkpt lat="47.983505" lon="11.092958">
<ele>525.959</ele>
<time>2022-05-27T09:04:48Z</time>
</trkpt>
<trkpt lat="47.983486" lon="11.092991">
<ele>525.959</ele>
<time>2022-05-27T09:04:49Z</time>
</trkpt>
<trkpt lat="47.983463" lon="11.093023">
<ele>525.959</ele>
<time>2022-05-27T09:04:50Z</time>
</trkpt>
<trkpt lat="47.98344" lon="11.093054">
<ele>525.959</ele>
<time>2022-05-27T09:04:51Z</time>
</trkpt>
<trkpt lat="47.983418" lon="11.093083">
<ele>525.959</ele>
<time>2022-05-27T09:04:52Z</time>
</trkpt>
<trkpt lat="47.983398" lon="11.093112">
<ele>525.959</ele>
<time>2022-05-27T09:04:53Z</time>
</trkpt>
<trkpt lat="47.983379" lon="11.09314">
<ele>525.707</ele>
<time>2022-05-27T09:04:54Z</time>
</trkpt>
<trkpt lat="47.983364" lon="11.093164">
<ele>525.522</ele>
<time>2022-05-27T09:04:55Z</time>
</trkpt>
<trkpt lat="47.983337" lon="11.093192">
<ele>525.375</ele>
<time>2022-05-27T09:04:56Z</time>
</trkpt>
<trkpt lat="47.983315" lon="11.09322">
<ele>525.276</ele>
<time>2022-05-27T09:04:57Z</time>
</trkpt>
<trkpt lat="47.983295" lon="11.093269">
<ele>525.165</ele>
<time>2022-05-27T09:04:58Z</time>
</trkpt>
<trkpt lat="47.983273" lon="11.093311">
<ele>525.081</ele>
<time>2022-05-27T09:04:59Z</time>
</trkpt>
<trkpt lat="47.98325" lon="11.093353">
<ele>525.027</ele>
<time>2022-05-27T09:05:00Z</time>
</trkpt>
<trkpt lat="47.983223" lon="11.093406">
<ele>525.002</ele>
<time>2022-05-27T09:05:01Z</time>
</trkpt>
<trkpt lat="47.983196" lon="11.093458">
<ele>525.002</ele>
<time>2022-05-27T09:05:02Z</time>
</trkpt>
<trkpt lat="47.98317" lon="11.093518">
<ele>525.002</ele>
<time>2022-05-27T09:05:03Z</time>
</trkpt>
<trkpt lat="47.983143" lon="11.093579">
<ele>525.002</ele>
<time>2022-05-27T09:05:04Z</time>
</trkpt>
<trkpt lat="47.983112" lon="11.09364">
<ele>525.002</ele>
<time>2022-05-27T09:05:05Z</time>
</trkpt>
<trkpt lat="47.983089" lon="11.093705">
<ele>525.002</ele>
<time>2022-05-27T09:05:06Z</time>
</trkpt>
<trkpt lat="47.983067" lon="11.093772">
<ele>525.002</ele>
<time>2022-05-27T09:05:07Z</time>
</trkpt>
<trkpt lat="47.983044" lon="11.093843">
<ele>525.002</ele>
<time>2022-05-27T09:05:08Z</time>
</trkpt>
<trkpt lat="47.983032" lon="11.093921">
<ele>525.002</ele>
<time>2022-05-27T09:05:09Z</time>
</trkpt>
<trkpt lat="47.983021" lon="11.093998">
<ele>524.665</ele>
<time>2022-05-27T09:05:10Z</time>
</trkpt>
<trkpt lat="47.983009" lon="11.094082">
<ele>524.414</ele>
<time>2022-05-27T09:05:11Z</time>
</trkpt>
<trkpt lat="47.982994" lon="11.094162">
<ele>524.217</ele>
<time>2022-05-27T09:05:12Z</time>
</trkpt>
<trkpt lat="47.982979" lon="11.094245">
<ele>524.076</ele>
<time>2022-05-27T09:05:13Z</time>
</trkpt>
<trkpt lat="47.98296" lon="11.094332">
<ele>524</ele>
<time>2022-05-27T09:05:14Z</time>
</trkpt>
<trkpt lat="47.982944" lon="11.094418">
<ele>523.683</ele>
<time>2022-05-27T09:05:15Z</time>
</trkpt>
<trkpt lat="47.982922" lon="11.094505">
<ele>523.459</ele>
<time>2022-05-27T09:05:16Z</time>
</trkpt>
<trkpt lat="47.982903" lon="11.094588">
<ele>523.304</ele>
<time>2022-05-27T09:05:17Z</time>
</trkpt>
<trkpt lat="47.98288" lon="11.09467">
<ele>523.165</ele>
<time>2022-05-27T09:05:18Z</time>
</trkpt>
<trkpt lat="47.982849" lon="11.094745">
<ele>523.062</ele>
<time>2022-05-27T09:05:19Z</time>
</trkpt>
<trkpt lat="47.982819" lon="11.094824">
<ele>522.985</ele>
<time>2022-05-27T09:05:20Z</time>
</trkpt>
<trkpt lat="47.982784" lon="11.094908">
<ele>522.938</ele>
<time>2022-05-27T09:05:21Z</time>
</trkpt>
<trkpt lat="47.98275" lon="11.094994">
<ele>522.915</ele>
<time>2022-05-27T09:05:22Z</time>
</trkpt>
<trkpt lat="47.982719" lon="11.095079">
<ele>522.658</ele>
<time>2022-05-27T09:05:23Z</time>
</trkpt>
<trkpt lat="47.982689" lon="11.095167">
<ele>522.455</ele>
<time>2022-05-27T09:05:24Z</time>
</trkpt>
<trkpt lat="47.982655" lon="11.095255">
<ele>522.334</ele>
<time>2022-05-27T09:05:25Z</time>
</trkpt>
<trkpt lat="47.98262" lon="11.095342">
<ele>521.989</ele>
<time>2022-05-27T09:05:26Z</time>
</trkpt>
<trkpt lat="47.982586" lon="11.095428">
<ele>521.74</ele>
<time>2022-05-27T09:05:27Z</time>
</trkpt>
<trkpt lat="47.982555" lon="11.095515">
<ele>521.51</ele>
<time>2022-05-27T09:05:28Z</time>
</trkpt>
<trkpt lat="47.982521" lon="11.095601">
<ele>521.34</ele>
<time>2022-05-27T09:05:29Z</time>
</trkpt>
<trkpt lat="47.982491" lon="11.095698">
<ele>521.231</ele>
<time>2022-05-27T09:05:30Z</time>
</trkpt>
<trkpt lat="47.982456" lon="11.095792">
<ele>520.923</ele>
<time>2022-05-27T09:05:31Z</time>
</trkpt>
<trkpt lat="47.982426" lon="11.095884">
<ele>520.679</ele>
<time>2022-05-27T09:05:32Z</time>
</trkpt>
<trkpt lat="47.982399" lon="11.095972">
<ele>520.498</ele>
<time>2022-05-27T09:05:33Z</time>
</trkpt>
<trkpt lat="47.98238" lon="11.09605">
<ele>520.332</ele>
<time>2022-05-27T09:05:34Z</time>
</trkpt>
<trkpt lat="47.982361" lon="11.096125">
<ele>520.251</ele>
<time>2022-05-27T09:05:35Z</time>
</trkpt>
<trkpt lat="47.982346" lon="11.096209">
<ele>520.211</ele>
<time>2022-05-27T09:05:36Z</time>
</trkpt>
<trkpt lat="47.98233" lon="11.096289">
<ele>519.955</ele>
<time>2022-05-27T09:05:37Z</time>
</trkpt>
<trkpt lat="47.982315" lon="11.096368">
<ele>519.737</ele>
<time>2022-05-27T09:05:38Z</time>
</trkpt>
<trkpt lat="47.982296" lon="11.09645">
<ele>519.591</ele>
<time>2022-05-27T09:05:39Z</time>
</trkpt>
<trkpt lat="47.982265" lon="11.096525">
<ele>519.222</ele>
<time>2022-05-27T09:05:40Z</time>
</trkpt>
<trkpt lat="47.98225" lon="11.096595">
<ele>518.909</ele>
<time>2022-05-27T09:05:41Z</time>
</trkpt>
<trkpt lat="47.982224" lon="11.096663">
<ele>518.661</ele>
<time>2022-05-27T09:05:42Z</time>
</trkpt>
<trkpt lat="47.982197" lon="11.09673">
<ele>518.481</ele>
<time>2022-05-27T09:05:43Z</time>
</trkpt>
<trkpt lat="47.98217" lon="11.096785">
<ele>518.362</ele>
<time>2022-05-27T09:05:44Z</time>
</trkpt>
<trkpt lat="47.982143" lon="11.096837">
<ele>518.267</ele>
<time>2022-05-27T09:05:45Z</time>
</trkpt>
<trkpt lat="47.982124" lon="11.096888">
<ele>518.242</ele>
<time>2022-05-27T09:05:46Z</time>
</trkpt>
<trkpt lat="47.982101" lon="11.096942">
<ele>518.219</ele>
<time>2022-05-27T09:05:47Z</time>
</trkpt>
<trkpt lat="47.98209" lon="11.096992">
<ele>518.219</ele>
<time>2022-05-27T09:05:48Z</time>
</trkpt>
<trkpt lat="47.982082" lon="11.09704">
<ele>518.219</ele>
<time>2022-05-27T09:05:49Z</time>
</trkpt>
<trkpt lat="47.982075" lon="11.097087">
<ele>518.219</ele>
<time>2022-05-27T09:05:50Z</time>
</trkpt>
<trkpt lat="47.982067" lon="11.097125">
<ele>518.219</ele>
<time>2022-05-27T09:05:51Z</time>
</trkpt>
<trkpt lat="47.982056" lon="11.09716">
<ele>518.219</ele>
<time>2022-05-27T09:05:52Z</time>
</trkpt>
<trkpt lat="47.982044" lon="11.097194">
<ele>518.219</ele>
<time>2022-05-27T09:05:53Z</time>
</trkpt>
<trkpt lat="47.982029" lon="11.09723">
<ele>518.014</ele>
<time>2022-05-27T09:05:54Z</time>
</trkpt>
<trkpt lat="47.982002" lon="11.097259">
<ele>517.842</ele>
<time>2022-05-27T09:05:55Z</time>
</trkpt>
<trkpt lat="47.981976" lon="11.097281">
<ele>517.701</ele>
<time>2022-05-27T09:05:56Z</time>
</trkpt>
<trkpt lat="47.981941" lon="11.097313">
<ele>517.602</ele>
<time>2022-05-27T09:05:57Z</time>
</trkpt>
<trkpt lat="47.981915" lon="11.097352">
<ele>517.492</ele>
<time>2022-05-27T09:05:58Z</time>
</trkpt>
<trkpt lat="47.981884" lon="11.097392">
<ele>517.412</ele>
<time>2022-05-27T09:05:59Z</time>
</trkpt>
<trkpt lat="47.98185" lon="11.09743">
<ele>517.368</ele>
<time>2022-05-27T09:06:00Z</time>
</trkpt>
<trkpt lat="47.981815" lon="11.097462">
<ele>517.349</ele>
<time>2022-05-27T09:06:01Z</time>
</trkpt>
<trkpt lat="47.981781" lon="11.097493">
<ele>517.349</ele>
<time>2022-05-27T09:06:02Z</time>
</trkpt>
<trkpt lat="47.981754" lon="11.097513">
<ele>517.349</ele>
<time>2022-05-27T09:06:03Z</time>
</trkpt>
<trkpt lat="47.981724" lon="11.097531">
<ele>517.349</ele>
<time>2022-05-27T09:06:04Z</time>
</trkpt>
<trkpt lat="47.981705" lon="11.097548">
<ele>517.349</ele>
<time>2022-05-27T09:06:05Z</time>
</trkpt>
<trkpt lat="47.981686" lon="11.097569">
<ele>517.349</ele>
<time>2022-05-27T09:06:06Z</time>
</trkpt>
<trkpt lat="47.981667" lon="11.097587">
<ele>517.349</ele>
<time>2022-05-27T09:06:07Z</time>
</trkpt>
<trkpt lat="47.981644" lon="11.097604">
<ele>517.349</ele>
<time>2022-05-27T09:06:08Z</time>
</trkpt>
<trkpt lat="47.981628" lon="11.097621">
<ele>517.349</ele>
<time>2022-05-27T09:06:09Z</time>
</trkpt>
<trkpt lat="47.981602" lon="11.09764">
<ele>517.349</ele>
<time>2022-05-27T09:06:10Z</time>
</trkpt>
<trkpt lat="47.981571" lon="11.09766">
<ele>517.349</ele>
<time>2022-05-27T09:06:11Z</time>
</trkpt>
<trkpt lat="47.981537" lon="11.097677">
<ele>517.349</ele>
<time>2022-05-27T09:06:12Z</time>
</trkpt>
<trkpt lat="47.981499" lon="11.097692">
<ele>517.349</ele>
<time>2022-05-27T09:06:13Z</time>
</trkpt>
<trkpt lat="47.981453" lon="11.097709">
<ele>517.349</ele>
<time>2022-05-27T09:06:14Z</time>
</trkpt>
<trkpt lat="47.981415" lon="11.097727">
<ele>517.349</ele>
<time>2022-05-27T09:06:15Z</time>
</trkpt>
<trkpt lat="47.98138" lon="11.097749">
<ele>517.349</ele>
<time>2022-05-27T09:06:16Z</time>
</trkpt>
<trkpt lat="47.981346" lon="11.097774">
<ele>517.349</ele>
<time>2022-05-27T09:06:17Z</time>
</trkpt>
<trkpt lat="47.981316" lon="11.097791">
<ele>517.567</ele>
<time>2022-05-27T09:06:18Z</time>
</trkpt>
<trkpt lat="47.981281" lon="11.097801">
<ele>517.737</ele>
<time>2022-05-27T09:06:19Z</time>
</trkpt>
<trkpt lat="47.981239" lon="11.097818">
<ele>517.879</ele>
<time>2022-05-27T09:06:20Z</time>
</trkpt>
<trkpt lat="47.98119" lon="11.09784">
<ele>517.994</ele>
<time>2022-05-27T09:06:21Z</time>
</trkpt>
<trkpt lat="47.98114" lon="11.097861">
<ele>518.086</ele>
<time>2022-05-27T09:06:22Z</time>
</trkpt>
<trkpt lat="47.981087" lon="11.097883">
<ele>518.156</ele>
<time>2022-05-27T09:06:23Z</time>
</trkpt>
<trkpt lat="47.981045" lon="11.097903">
<ele>518.199</ele>
<time>2022-05-27T09:06:24Z</time>
</trkpt>
<trkpt lat="47.980999" lon="11.097923">
<ele>518.219</ele>
<time>2022-05-27T09:06:25Z</time>
</trkpt>
<trkpt lat="47.980957" lon="11.097943">
<ele>518.219</ele>
<time>2022-05-27T09:06:26Z</time>
</trkpt>
<trkpt lat="47.980904" lon="11.097968">
<ele>518.021</ele>
<time>2022-05-27T09:06:27Z</time>
</trkpt>
<trkpt lat="47.980854" lon="11.097997">
<ele>517.841</ele>
<time>2022-05-27T09:06:28Z</time>
</trkpt>
<trkpt lat="47.980801" lon="11.098032">
<ele>517.694</ele>
<time>2022-05-27T09:06:29Z</time>
</trkpt>
<trkpt lat="47.980747" lon="11.098063">
<ele>517.572</ele>
<time>2022-05-27T09:06:30Z</time>
</trkpt>
<trkpt lat="47.980698" lon="11.098099">
<ele>517.476</ele>
<time>2022-05-27T09:06:31Z</time>
</trkpt>
<trkpt lat="47.98064" lon="11.098142">
<ele>517.408</ele>
<time>2022-05-27T09:06:32Z</time>
</trkpt>
<trkpt lat="47.980591" lon="11.09819">
<ele>517.367</ele>
<time>2022-05-27T09:06:33Z</time>
</trkpt>
<trkpt lat="47.980537" lon="11.09824">
<ele>517.349</ele>
<time>2022-05-27T09:06:34Z</time>
</trkpt>
<trkpt lat="47.980495" lon="11.098287">
<ele>517.349</ele>
<time>2022-05-27T09:06:35Z</time>
</trkpt>
<trkpt lat="47.980446" lon="11.09833">
<ele>517.349</ele>
<time>2022-05-27T09:06:36Z</time>
</trkpt>
<trkpt lat="47.9804" lon="11.098375">
<ele>517.349</ele>
<time>2022-05-27T09:06:37Z</time>
</trkpt>
<trkpt lat="47.980354" lon="11.098417">
<ele>517.121</ele>
<time>2022-05-27T09:06:38Z</time>
</trkpt>
<trkpt lat="47.980305" lon="11.098454">
<ele>516.93</ele>
<time>2022-05-27T09:06:39Z</time>
</trkpt>
<trkpt lat="47.980259" lon="11.098482">
<ele>516.772</ele>
<time>2022-05-27T09:06:40Z</time>
</trkpt>
<trkpt lat="47.980209" lon="11.098501">
<ele>516.641</ele>
<time>2022-05-27T09:06:41Z</time>
</trkpt>
<trkpt lat="47.980164" lon="11.098512">
<ele>516.538</ele>
<time>2022-05-27T09:06:42Z</time>
</trkpt>
<trkpt lat="47.980118" lon="11.098512">
<ele>516.463</ele>
<time>2022-05-27T09:06:43Z</time>
</trkpt>
<trkpt lat="47.980072" lon="11.09851">
<ele>516.417</ele>
<time>2022-05-27T09:06:44Z</time>
</trkpt>
<trkpt lat="47.980026" lon="11.098505">
<ele>516.393</ele>
<time>2022-05-27T09:06:45Z</time>
</trkpt>
<trkpt lat="47.979984" lon="11.098505">
<ele>516.393</ele>
<time>2022-05-27T09:06:46Z</time>
</trkpt>
<trkpt lat="47.979946" lon="11.098498">
<ele>516.393</ele>
<time>2022-05-27T09:06:47Z</time>
</trkpt>
<trkpt lat="47.979904" lon="11.09849">
<ele>516.393</ele>
<time>2022-05-27T09:06:48Z</time>
</trkpt>
<trkpt lat="47.979866" lon="11.098484">
<ele>516.393</ele>
<time>2022-05-27T09:06:49Z</time>
</trkpt>
<trkpt lat="47.97982" lon="11.098485">
<ele>516.393</ele>
<time>2022-05-27T09:06:50Z</time>
</trkpt>
<trkpt lat="47.979778" lon="11.098484">
<ele>516.393</ele>
<time>2022-05-27T09:06:51Z</time>
</trkpt>
<trkpt lat="47.979736" lon="11.098487">
<ele>516.393</ele>
<time>2022-05-27T09:06:52Z</time>
</trkpt>
<trkpt lat="47.979694" lon="11.098487">
<ele>516.393</ele>
<time>2022-05-27T09:06:53Z</time>
</trkpt>
<trkpt lat="47.979652" lon="11.09851">
<ele>516.393</ele>
<time>2022-05-27T09:06:54Z</time>
</trkpt>
<trkpt lat="47.979603" lon="11.098528">
<ele>516.393</ele>
<time>2022-05-27T09:06:55Z</time>
</trkpt>
<trkpt lat="47.979549" lon="11.098563">
<ele>516.393</ele>
<time>2022-05-27T09:06:56Z</time>
</trkpt>
<trkpt lat="47.9795" lon="11.098599">
<ele>516.148</ele>
<time>2022-05-27T09:06:57Z</time>
</trkpt>
<trkpt lat="47.979454" lon="11.098647">
<ele>515.917</ele>
<time>2022-05-27T09:06:58Z</time>
</trkpt>
<trkpt lat="47.979401" lon="11.098688">
<ele>515.732</ele>
<time>2022-05-27T09:06:59Z</time>
</trkpt>
<trkpt lat="47.979347" lon="11.098731">
<ele>515.588</ele>
<time>2022-05-27T09:07:00Z</time>
</trkpt>
<trkpt lat="47.979294" lon="11.098759">
<ele>515.484</ele>
<time>2022-05-27T09:07:01Z</time>
</trkpt>
<trkpt lat="47.979248" lon="11.098783">
<ele>515.418</ele>
<time>2022-05-27T09:07:02Z</time>
</trkpt>
<trkpt lat="47.979195" lon="11.09882">
<ele>515.374</ele>
<time>2022-05-27T09:07:03Z</time>
</trkpt>
<trkpt lat="47.979134" lon="11.098867">
<ele>515.35</ele>
<time>2022-05-27T09:07:04Z</time>
</trkpt>
<trkpt lat="47.979084" lon="11.098888">
<ele>515.35</ele>
<time>2022-05-27T09:07:05Z</time>
</trkpt>
<trkpt lat="47.979034" lon="11.098902">
<ele>515.35</ele>
<time>2022-05-27T09:07:06Z</time>
</trkpt>
<trkpt lat="47.978981" lon="11.098911">
<ele>515.35</ele>
<time>2022-05-27T09:07:07Z</time>
</trkpt>
<trkpt lat="47.978924" lon="11.098925">
<ele>515.35</ele>
<time>2022-05-27T09:07:08Z</time>
</trkpt>
<trkpt lat="47.978867" lon="11.098928">
<ele>515.35</ele>
<time>2022-05-27T09:07:09Z</time>
</trkpt>
<trkpt lat="47.978806" lon="11.098925">
<ele>515.35</ele>
<time>2022-05-27T09:07:10Z</time>
</trkpt>
<trkpt lat="47.978752" lon="11.09892">
<ele>515.35</ele>
<time>2022-05-27T09:07:11Z</time>
</trkpt>
<trkpt lat="47.978703" lon="11.098911">
<ele>515.35</ele>
<time>2022-05-27T09:07:12Z</time>
</trkpt>
<trkpt lat="47.978649" lon="11.0989">
<ele>515.35</ele>
<time>2022-05-27T09:07:13Z</time>
</trkpt>
<trkpt lat="47.978603" lon="11.098885">
<ele>515.35</ele>
<time>2022-05-27T09:07:14Z</time>
</trkpt>
<trkpt lat="47.97855" lon="11.098871">
<ele>515.35</ele>
<time>2022-05-27T09:07:15Z</time>
</trkpt>
<trkpt lat="47.978512" lon="11.098864">
<ele>515.35</ele>
<time>2022-05-27T09:07:16Z</time>
</trkpt>
<trkpt lat="47.978481" lon="11.098857">
<ele>515.35</ele>
<time>2022-05-27T09:07:17Z</time>
</trkpt>
<trkpt lat="47.978447" lon="11.09885">
<ele>515.35</ele>
<time>2022-05-27T09:07:18Z</time>
</trkpt>
<trkpt lat="47.978413" lon="11.098846">
<ele>515.605</ele>
<time>2022-05-27T09:07:19Z</time>
</trkpt>
<trkpt lat="47.978386" lon="11.098845">
<ele>515.813</ele>
<time>2022-05-27T09:07:20Z</time>
</trkpt>
<trkpt lat="47.978355" lon="11.098842">
<ele>515.978</ele>
<time>2022-05-27T09:07:21Z</time>
</trkpt>
<trkpt lat="47.978321" lon="11.098838">
<ele>516.092</ele>
<time>2022-05-27T09:07:22Z</time>
</trkpt>
<trkpt lat="47.978291" lon="11.098838">
<ele>516.434</ele>
<time>2022-05-27T09:07:23Z</time>
</trkpt>
<trkpt lat="47.978252" lon="11.098845">
<ele>516.719</ele>
<time>2022-05-27T09:07:24Z</time>
</trkpt>
<trkpt lat="47.978207" lon="11.09886">
<ele>516.906</ele>
<time>2022-05-27T09:07:25Z</time>
</trkpt>
<trkpt lat="47.978153" lon="11.098868">
<ele>517.035</ele>
<time>2022-05-27T09:07:26Z</time>
</trkpt>
<trkpt lat="47.978104" lon="11.098884">
<ele>517.115</ele>
<time>2022-05-27T09:07:27Z</time>
</trkpt>
<trkpt lat="47.978054" lon="11.098892">
<ele>517.2</ele>
<time>2022-05-27T09:07:28Z</time>
</trkpt>
<trkpt lat="47.978008" lon="11.098902">
<ele>517.243</ele>
<time>2022-05-27T09:07:29Z</time>
</trkpt>
<trkpt lat="47.977951" lon="11.098918">
<ele>517.262</ele>
<time>2022-05-27T09:07:30Z</time>
</trkpt>
<trkpt lat="47.977898" lon="11.098932">
<ele>517.262</ele>
<time>2022-05-27T09:07:31Z</time>
</trkpt>
<trkpt lat="47.977852" lon="11.098943">
<ele>517.262</ele>
<time>2022-05-27T09:07:32Z</time>
</trkpt>
<trkpt lat="47.977795" lon="11.098962">
<ele>517.262</ele>
<time>2022-05-27T09:07:33Z</time>
</trkpt>
<trkpt lat="47.977745" lon="11.098982">
<ele>517.262</ele>
<time>2022-05-27T09:07:34Z</time>
</trkpt>
<trkpt lat="47.977695" lon="11.099004">
<ele>517.262</ele>
<time>2022-05-27T09:07:35Z</time>
</trkpt>
<trkpt lat="47.97765" lon="11.09902">
<ele>517.262</ele>
<time>2022-05-27T09:07:36Z</time>
</trkpt>
<trkpt lat="47.9776" lon="11.099039">
<ele>517.262</ele>
<time>2022-05-27T09:07:37Z</time>
</trkpt>
<trkpt lat="47.977551" lon="11.099058">
<ele>517.47</ele>
<time>2022-05-27T09:07:38Z</time>
</trkpt>
<trkpt lat="47.977505" lon="11.099075">
<ele>517.649</ele>
<time>2022-05-27T09:07:39Z</time>
</trkpt>
<trkpt lat="47.977463" lon="11.099095">
<ele>517.794</ele>
<time>2022-05-27T09:07:40Z</time>
</trkpt>
<trkpt lat="47.977421" lon="11.099116">
<ele>517.907</ele>
<time>2022-05-27T09:07:41Z</time>
</trkpt>
<trkpt lat="47.977375" lon="11.09914">
<ele>518</ele>
<time>2022-05-27T09:07:42Z</time>
</trkpt>
<trkpt lat="47.977333" lon="11.099161">
<ele>518.067</ele>
<time>2022-05-27T09:07:43Z</time>
</trkpt>
<trkpt lat="47.977287" lon="11.099184">
<ele>518.103</ele>
<time>2022-05-27T09:07:44Z</time>
</trkpt>
<trkpt lat="47.977242" lon="11.099205">
<ele>517.892</ele>
<time>2022-05-27T09:07:45Z</time>
</trkpt>
<trkpt lat="47.977196" lon="11.099228">
<ele>517.704</ele>
<time>2022-05-27T09:07:46Z</time>
</trkpt>
<trkpt lat="47.977146" lon="11.099257">
<ele>517.569</ele>
<time>2022-05-27T09:07:47Z</time>
</trkpt>
<trkpt lat="47.9771" lon="11.099283">
<ele>517.426</ele>
<time>2022-05-27T09:07:48Z</time>
</trkpt>
<trkpt lat="47.977047" lon="11.09931">
<ele>517.321</ele>
<time>2022-05-27T09:07:49Z</time>
</trkpt>
<trkpt lat="47.976997" lon="11.099337">
<ele>517.245</ele>
<time>2022-05-27T09:07:50Z</time>
</trkpt>
<trkpt lat="47.976948" lon="11.099361">
<ele>517.197</ele>
<time>2022-05-27T09:07:51Z</time>
</trkpt>
<trkpt lat="47.976898" lon="11.099387">
<ele>517.175</ele>
<time>2022-05-27T09:07:52Z</time>
</trkpt>
<trkpt lat="47.976849" lon="11.099412">
<ele>517.175</ele>
<time>2022-05-27T09:07:53Z</time>
</trkpt>
<trkpt lat="47.976799" lon="11.099433">
<ele>517.175</ele>
<time>2022-05-27T09:07:54Z</time>
</trkpt>
<trkpt lat="47.976749" lon="11.099457">
<ele>517.175</ele>
<time>2022-05-27T09:07:55Z</time>
</trkpt>
<trkpt lat="47.9767" lon="11.099482">
<ele>517.175</ele>
<time>2022-05-27T09:07:56Z</time>
</trkpt>
<trkpt lat="47.976654" lon="11.099504">
<ele>517.175</ele>
<time>2022-05-27T09:07:57Z</time>
</trkpt>
<trkpt lat="47.976612" lon="11.099525">
<ele>517.175</ele>
<time>2022-05-27T09:07:58Z</time>
</trkpt>
<trkpt lat="47.976562" lon="11.099546">
<ele>517.175</ele>
<time>2022-05-27T09:07:59Z</time>
</trkpt>
<trkpt lat="47.976521" lon="11.099568">
<ele>517.175</ele>
<time>2022-05-27T09:08:00Z</time>
</trkpt>
<trkpt lat="47.976475" lon="11.09959">
<ele>517.175</ele>
<time>2022-05-27T09:08:01Z</time>
</trkpt>
<trkpt lat="47.976425" lon="11.099611">
<ele>517.175</ele>
<time>2022-05-27T09:08:02Z</time>
</trkpt>
<trkpt lat="47.976383" lon="11.099634">
<ele>517.175</ele>
<time>2022-05-27T09:08:03Z</time>
</trkpt>
<trkpt lat="47.976337" lon="11.099657">
<ele>517.175</ele>
<time>2022-05-27T09:08:04Z</time>
</trkpt>
<trkpt lat="47.976292" lon="11.099678">
<ele>517.175</ele>
<time>2022-05-27T09:08:05Z</time>
</trkpt>
<trkpt lat="47.97625" lon="11.099704">
<ele>517.175</ele>
<time>2022-05-27T09:08:06Z</time>
</trkpt>
<trkpt lat="47.976208" lon="11.099725">
<ele>517.175</ele>
<time>2022-05-27T09:08:07Z</time>
</trkpt>
<trkpt lat="47.976162" lon="11.099751">
<ele>517.175</ele>
<time>2022-05-27T09:08:08Z</time>
</trkpt>
<trkpt lat="47.976112" lon="11.09978">
<ele>517.175</ele>
<time>2022-05-27T09:08:09Z</time>
</trkpt>
<trkpt lat="47.976067" lon="11.099805">
<ele>517.175</ele>
<time>2022-05-27T09:08:10Z</time>
</trkpt>
<trkpt lat="47.976013" lon="11.099829">
<ele>517.175</ele>
<time>2022-05-27T09:08:11Z</time>
</trkpt>
<trkpt lat="47.975967" lon="11.09985">
<ele>517.175</ele>
<time>2022-05-27T09:08:12Z</time>
</trkpt>
<trkpt lat="47.975918" lon="11.099872">
<ele>517.175</ele>
<time>2022-05-27T09:08:13Z</time>
</trkpt>
<trkpt lat="47.975872" lon="11.099896">
<ele>517.175</ele>
<time>2022-05-27T09:08:14Z</time>
</trkpt>
<trkpt lat="47.975826" lon="11.099923">
<ele>517.175</ele>
<time>2022-05-27T09:08:15Z</time>
</trkpt>
<trkpt lat="47.975777" lon="11.099947">
<ele>517.175</ele>
<time>2022-05-27T09:08:16Z</time>
</trkpt>
<trkpt lat="47.975731" lon="11.099968">
<ele>517.175</ele>
<time>2022-05-27T09:08:17Z</time>
</trkpt>
<trkpt lat="47.975681" lon="11.099992">
<ele>517.175</ele>
<time>2022-05-27T09:08:18Z</time>
</trkpt>
<trkpt lat="47.975636" lon="11.100017">
<ele>517.175</ele>
<time>2022-05-27T09:08:19Z</time>
</trkpt>
<trkpt lat="47.975586" lon="11.100037">
<ele>517.175</ele>
<time>2022-05-27T09:08:20Z</time>
</trkpt>
<trkpt lat="47.975544" lon="11.100055">
<ele>517.175</ele>
<time>2022-05-27T09:08:21Z</time>
</trkpt>
<trkpt lat="47.975506" lon="11.100072">
<ele>517.175</ele>
<time>2022-05-27T09:08:22Z</time>
</trkpt>
<trkpt lat="47.975468" lon="11.100087">
<ele>517.175</ele>
<time>2022-05-27T09:08:23Z</time>
</trkpt>
<trkpt lat="47.975437" lon="11.100097">
<ele>517.175</ele>
<time>2022-05-27T09:08:24Z</time>
</trkpt>
<trkpt lat="47.975399" lon="11.100115">
<ele>517.175</ele>
<time>2022-05-27T09:08:25Z</time>
</trkpt>
<trkpt lat="47.975357" lon="11.100135">
<ele>517.175</ele>
<time>2022-05-27T09:08:26Z</time>
</trkpt>
<trkpt lat="47.975319" lon="11.100158">
<ele>517.175</ele>
<time>2022-05-27T09:08:27Z</time>
</trkpt>
<trkpt lat="47.975281" lon="11.100182">
<ele>517.175</ele>
<time>2022-05-27T09:08:28Z</time>
</trkpt>
<trkpt lat="47.975239" lon="11.100204">
<ele>517.436</ele>
<time>2022-05-27T09:08:29Z</time>
</trkpt>
<trkpt lat="47.975201" lon="11.100225">
<ele>517.643</ele>
<time>2022-05-27T09:08:30Z</time>
</trkpt>
<trkpt lat="47.975163" lon="11.10024">
<ele>517.802</ele>
<time>2022-05-27T09:08:31Z</time>
</trkpt>
<trkpt lat="47.975124" lon="11.100261">
<ele>517.911</ele>
<time>2022-05-27T09:08:32Z</time>
</trkpt>
<trkpt lat="47.975082" lon="11.100282">
<ele>517.979</ele>
<time>2022-05-27T09:08:33Z</time>
</trkpt>
<trkpt lat="47.975037" lon="11.100302">
<ele>518.023</ele>
<time>2022-05-27T09:08:34Z</time>
</trkpt>
<trkpt lat="47.974995" lon="11.10033">
<ele>518.045</ele>
<time>2022-05-27T09:08:35Z</time>
</trkpt>
<trkpt lat="47.974957" lon="11.100362">
<ele>518.045</ele>
<time>2022-05-27T09:08:36Z</time>
</trkpt>
<trkpt lat="47.974911" lon="11.100391">
<ele>518.045</ele>
<time>2022-05-27T09:08:37Z</time>
</trkpt>
<trkpt lat="47.974861" lon="11.100418">
<ele>517.823</ele>
<time>2022-05-27T09:08:38Z</time>
</trkpt>
<trkpt lat="47.974815" lon="11.10044">
<ele>517.641</ele>
<time>2022-05-27T09:08:39Z</time>
</trkpt>
<trkpt lat="47.974766" lon="11.100464">
<ele>517.501</ele>
<time>2022-05-27T09:08:40Z</time>
</trkpt>
<trkpt lat="47.97472" lon="11.10049">
<ele>517.388</ele>
<time>2022-05-27T09:08:41Z</time>
</trkpt>
<trkpt lat="47.974667" lon="11.100518">
<ele>517.297</ele>
<time>2022-05-27T09:08:42Z</time>
</trkpt>
<trkpt lat="47.974621" lon="11.100545">
<ele>517.234</ele>
<time>2022-05-27T09:08:43Z</time>
</trkpt>
<trkpt lat="47.974575" lon="11.100575">
<ele>517.194</ele>
<time>2022-05-27T09:08:44Z</time>
</trkpt>
<trkpt lat="47.974529" lon="11.100607">
<ele>517.175</ele>
<time>2022-05-27T09:08:45Z</time>
</trkpt>
<trkpt lat="47.97448" lon="11.100636">
<ele>517.175</ele>
<time>2022-05-27T09:08:46Z</time>
</trkpt>
<trkpt lat="47.974434" lon="11.100655">
<ele>517.175</ele>
<time>2022-05-27T09:08:47Z</time>
</trkpt>
<trkpt lat="47.974384" lon="11.100672">
<ele>517.175</ele>
<time>2022-05-27T09:08:48Z</time>
</trkpt>
<trkpt lat="47.974339" lon="11.100686">
<ele>517.175</ele>
<time>2022-05-27T09:08:49Z</time>
</trkpt>
<trkpt lat="47.974293" lon="11.100705">
<ele>517.175</ele>
<time>2022-05-27T09:08:50Z</time>
</trkpt>
<trkpt lat="47.974251" lon="11.100728">
<ele>517.175</ele>
<time>2022-05-27T09:08:51Z</time>
</trkpt>
<trkpt lat="47.974213" lon="11.100755">
<ele>517.175</ele>
<time>2022-05-27T09:08:52Z</time>
</trkpt>
<trkpt lat="47.974174" lon="11.100779">
<ele>517.175</ele>
<time>2022-05-27T09:08:53Z</time>
</trkpt>
<trkpt lat="47.974136" lon="11.100799">
<ele>517.175</ele>
<time>2022-05-27T09:08:54Z</time>
</trkpt>
<trkpt lat="47.974094" lon="11.100816">
<ele>517.175</ele>
<time>2022-05-27T09:08:55Z</time>
</trkpt>
<trkpt lat="47.974049" lon="11.100824">
<ele>517.175</ele>
<time>2022-05-27T09:08:56Z</time>
</trkpt>
<trkpt lat="47.97401" lon="11.100837">
<ele>517.175</ele>
<time>2022-05-27T09:08:57Z</time>
</trkpt>
<trkpt lat="47.973965" lon="11.10085">
<ele>517.175</ele>
<time>2022-05-27T09:08:58Z</time>
</trkpt>
<trkpt lat="47.973919" lon="11.100864">
<ele>517.175</ele>
<time>2022-05-27T09:08:59Z</time>
</trkpt>
<trkpt lat="47.973877" lon="11.100887">
<ele>517.175</ele>
<time>2022-05-27T09:09:00Z</time>
</trkpt>
<trkpt lat="47.973835" lon="11.100908">
<ele>517.175</ele>
<time>2022-05-27T09:09:01Z</time>
</trkpt>
<trkpt lat="47.973793" lon="11.100929">
<ele>517.175</ele>
<time>2022-05-27T09:09:02Z</time>
</trkpt>
<trkpt lat="47.973751" lon="11.10095">
<ele>517.175</ele>
<time>2022-05-27T09:09:03Z</time>
</trkpt>
<trkpt lat="47.973705" lon="11.100971">
<ele>517.398</ele>
<time>2022-05-27T09:09:04Z</time>
</trkpt>
<trkpt lat="47.97366" lon="11.100994">
<ele>517.577</ele>
<time>2022-05-27T09:09:05Z</time>
</trkpt>
<trkpt lat="47.973621" lon="11.101015">
<ele>517.711</ele>
<time>2022-05-27T09:09:06Z</time>
</trkpt>
<trkpt lat="47.973572" lon="11.101036">
<ele>517.805</ele>
<time>2022-05-27T09:09:07Z</time>
</trkpt>
<trkpt lat="47.97353" lon="11.101057">
<ele>517.905</ele>
<time>2022-05-27T09:09:08Z</time>
</trkpt>
<trkpt lat="47.973488" lon="11.101075">
<ele>517.978</ele>
<time>2022-05-27T09:09:09Z</time>
</trkpt>
<trkpt lat="47.973442" lon="11.101093">
<ele>518.023</ele>
<time>2022-05-27T09:09:10Z</time>
</trkpt>
<trkpt lat="47.9734" lon="11.101111">
<ele>518.045</ele>
<time>2022-05-27T09:09:11Z</time>
</trkpt>
<trkpt lat="47.973358" lon="11.101129">
<ele>518.045</ele>
<time>2022-05-27T09:09:12Z</time>
</trkpt>
<trkpt lat="47.973312" lon="11.101143">
<ele>518.045</ele>
<time>2022-05-27T09:09:13Z</time>
</trkpt>
<trkpt lat="47.973274" lon="11.101157">
<ele>518.045</ele>
<time>2022-05-27T09:09:14Z</time>
</trkpt>
<trkpt lat="47.973236" lon="11.10117">
<ele>518.045</ele>
<time>2022-05-27T09:09:15Z</time>
</trkpt>
<trkpt lat="47.973198" lon="11.101189">
<ele>518.045</ele>
<time>2022-05-27T09:09:16Z</time>
</trkpt>
<trkpt lat="47.973156" lon="11.101205">
<ele>518.045</ele>
<time>2022-05-27T09:09:17Z</time>
</trkpt>
<trkpt lat="47.973118" lon="11.101218">
<ele>518.045</ele>
<time>2022-05-27T09:09:18Z</time>
</trkpt>
<trkpt lat="47.97308" lon="11.101233">
<ele>518.045</ele>
<time>2022-05-27T09:09:19Z</time>
</trkpt>
<trkpt lat="47.973042" lon="11.101255">
<ele>518.045</ele>
<time>2022-05-27T09:09:20Z</time>
</trkpt>
<trkpt lat="47.973003" lon="11.101276">
<ele>518.045</ele>
<time>2022-05-27T09:09:21Z</time>
</trkpt>
<trkpt lat="47.972958" lon="11.1013">
<ele>518.045</ele>
<time>2022-05-27T09:09:22Z</time>
</trkpt>
<trkpt lat="47.972916" lon="11.101323">
<ele>518.045</ele>
<time>2022-05-27T09:09:23Z</time>
</trkpt>
<trkpt lat="47.972874" lon="11.101348">
<ele>517.817</ele>
<time>2022-05-27T09:09:24Z</time>
</trkpt>
<trkpt lat="47.972828" lon="11.101374">
<ele>517.638</ele>
<time>2022-05-27T09:09:25Z</time>
</trkpt>
<trkpt lat="47.972782" lon="11.101394">
<ele>517.495</ele>
<time>2022-05-27T09:09:26Z</time>
</trkpt>
<trkpt lat="47.972736" lon="11.101411">
<ele>517.405</ele>
<time>2022-05-27T09:09:27Z</time>
</trkpt>
<trkpt lat="47.972691" lon="11.10143">
<ele>517.312</ele>
<time>2022-05-27T09:09:28Z</time>
</trkpt>
<trkpt lat="47.972645" lon="11.101443">
<ele>517.242</ele>
<time>2022-05-27T09:09:29Z</time>
</trkpt>
<trkpt lat="47.972603" lon="11.101459">
<ele>517.197</ele>
<time>2022-05-27T09:09:30Z</time>
</trkpt>
<trkpt lat="47.972565" lon="11.101467">
<ele>517.175</ele>
<time>2022-05-27T09:09:31Z</time>
</trkpt>
<trkpt lat="47.972519" lon="11.101472">
<ele>517.175</ele>
<time>2022-05-27T09:09:32Z</time>
</trkpt>
<trkpt lat="47.972481" lon="11.101472">
<ele>517.175</ele>
<time>2022-05-27T09:09:33Z</time>
</trkpt>
<trkpt lat="47.972431" lon="11.101472">
<ele>517.175</ele>
<time>2022-05-27T09:09:34Z</time>
</trkpt>
<trkpt lat="47.972385" lon="11.10147">
<ele>517.175</ele>
<time>2022-05-27T09:09:35Z</time>
</trkpt>
<trkpt lat="47.972343" lon="11.10147">
<ele>517.175</ele>
<time>2022-05-27T09:09:36Z</time>
</trkpt>
<trkpt lat="47.972298" lon="11.101476">
<ele>517.369</ele>
<time>2022-05-27T09:09:37Z</time>
</trkpt>
<trkpt lat="47.972252" lon="11.10149">
<ele>517.559</ele>
<time>2022-05-27T09:09:38Z</time>
</trkpt>
<trkpt lat="47.972202" lon="11.101508">
<ele>517.711</ele>
<time>2022-05-27T09:09:39Z</time>
</trkpt>
<trkpt lat="47.972153" lon="11.101526">
<ele>517.829</ele>
<time>2022-05-27T09:09:40Z</time>
</trkpt>
<trkpt lat="47.972099" lon="11.101547">
<ele>517.919</ele>
<time>2022-05-27T09:09:41Z</time>
</trkpt>
<trkpt lat="47.97205" lon="11.101563">
<ele>517.983</ele>
<time>2022-05-27T09:09:42Z</time>
</trkpt>
<trkpt lat="47.971992" lon="11.101585">
<ele>518.026</ele>
<time>2022-05-27T09:09:43Z</time>
</trkpt>
<trkpt lat="47.971947" lon="11.101608">
<ele>518.045</ele>
<time>2022-05-27T09:09:44Z</time>
</trkpt>
<trkpt lat="47.971897" lon="11.101624">
<ele>518.045</ele>
<time>2022-05-27T09:09:45Z</time>
</trkpt>
<trkpt lat="47.971851" lon="11.101637">
<ele>518.045</ele>
<time>2022-05-27T09:09:46Z</time>
</trkpt>
<trkpt lat="47.971802" lon="11.10165">
<ele>518.045</ele>
<time>2022-05-27T09:09:47Z</time>
</trkpt>
<trkpt lat="47.971756" lon="11.101662">
<ele>518.045</ele>
<time>2022-05-27T09:09:48Z</time>
</trkpt>
<trkpt lat="47.971706" lon="11.10167">
<ele>518.045</ele>
<time>2022-05-27T09:09:49Z</time>
</trkpt>
<trkpt lat="47.971661" lon="11.101687">
<ele>518.045</ele>
<time>2022-05-27T09:09:50Z</time>
</trkpt>
<trkpt lat="47.971607" lon="11.1017">
<ele>518.045</ele>
<time>2022-05-27T09:09:51Z</time>
</trkpt>
<trkpt lat="47.971558" lon="11.101715">
<ele>518.045</ele>
<time>2022-05-27T09:09:52Z</time>
</trkpt>
<trkpt lat="47.971504" lon="11.101731">
<ele>518.045</ele>
<time>2022-05-27T09:09:53Z</time>
</trkpt>
<trkpt lat="47.971451" lon="11.10175">
<ele>518.045</ele>
<time>2022-05-27T09:09:54Z</time>
</trkpt>
<trkpt lat="47.971394" lon="11.101769">
<ele>518.045</ele>
<time>2022-05-27T09:09:55Z</time>
</trkpt>
<trkpt lat="47.97134" lon="11.101784">
<ele>518.045</ele>
<time>2022-05-27T09:09:56Z</time>
</trkpt>
<trkpt lat="47.971275" lon="11.101807">
<ele>518.045</ele>
<time>2022-05-27T09:09:57Z</time>
</trkpt>
<trkpt lat="47.971214" lon="11.101836">
<ele>517.823</ele>
<time>2022-05-27T09:09:58Z</time>
</trkpt>
<trkpt lat="47.971157" lon="11.101864">
<ele>517.642</ele>
<time>2022-05-27T09:09:59Z</time>
</trkpt>
<trkpt lat="47.9711" lon="11.101889">
<ele>517.496</ele>
<time>2022-05-27T09:10:00Z</time>
</trkpt>
<trkpt lat="47.971043" lon="11.101912">
<ele>517.384</ele>
<time>2022-05-27T09:10:01Z</time>
</trkpt>
<trkpt lat="47.970985" lon="11.101934">
<ele>517.298</ele>
<time>2022-05-27T09:10:02Z</time>
</trkpt>
<trkpt lat="47.970921" lon="11.101954">
<ele>517.235</ele>
<time>2022-05-27T09:10:03Z</time>
</trkpt>
<trkpt lat="47.970863" lon="11.101974">
<ele>517.193</ele>
<time>2022-05-27T09:10:04Z</time>
</trkpt>
<trkpt lat="47.970802" lon="11.101995">
<ele>517.175</ele>
<time>2022-05-27T09:10:05Z</time>
</trkpt>
<trkpt lat="47.970745" lon="11.102014">
<ele>517.175</ele>
<time>2022-05-27T09:10:06Z</time>
</trkpt>
<trkpt lat="47.970688" lon="11.102032">
<ele>517.175</ele>
<time>2022-05-27T09:10:07Z</time>
</trkpt>
<trkpt lat="47.970631" lon="11.102048">
<ele>517.175</ele>
<time>2022-05-27T09:10:08Z</time>
</trkpt>
<trkpt lat="47.970577" lon="11.102063">
<ele>517.175</ele>
<time>2022-05-27T09:10:09Z</time>
</trkpt>
<trkpt lat="47.970524" lon="11.102078">
<ele>517.175</ele>
<time>2022-05-27T09:10:10Z</time>
</trkpt>
<trkpt lat="47.97047" lon="11.102094">
<ele>516.915</ele>
<time>2022-05-27T09:10:11Z</time>
</trkpt>
<trkpt lat="47.970425" lon="11.10211">
<ele>516.71</ele>
<time>2022-05-27T09:10:12Z</time>
</trkpt>
<trkpt lat="47.970375" lon="11.102127">
<ele>516.552</ele>
<time>2022-05-27T09:10:13Z</time>
</trkpt>
<trkpt lat="47.970325" lon="11.102144">
<ele>516.429</ele>
<time>2022-05-27T09:10:14Z</time>
</trkpt>
<trkpt lat="47.970272" lon="11.102163">
<ele>516.348</ele>
<time>2022-05-27T09:10:15Z</time>
</trkpt>
<trkpt lat="47.970222" lon="11.102181">
<ele>516.292</ele>
<time>2022-05-27T09:10:16Z</time>
</trkpt>
<trkpt lat="47.970165" lon="11.102203">
<ele>516.247</ele>
<time>2022-05-27T09:10:17Z</time>
</trkpt>
<trkpt lat="47.970116" lon="11.10222">
<ele>516.219</ele>
<time>2022-05-27T09:10:18Z</time>
</trkpt>
<trkpt lat="47.970062" lon="11.102237">
<ele>516.219</ele>
<time>2022-05-27T09:10:19Z</time>
</trkpt>
<trkpt lat="47.970009" lon="11.102251">
<ele>516.219</ele>
<time>2022-05-27T09:10:20Z</time>
</trkpt>
<trkpt lat="47.969959" lon="11.102268">
<ele>516.219</ele>
<time>2022-05-27T09:10:21Z</time>
</trkpt>
<trkpt lat="47.969906" lon="11.102286">
<ele>516.219</ele>
<time>2022-05-27T09:10:22Z</time>
</trkpt>
<trkpt lat="47.96986" lon="11.102304">
<ele>516.219</ele>
<time>2022-05-27T09:10:23Z</time>
</trkpt>
<trkpt lat="47.969803" lon="11.10232">
<ele>516.219</ele>
<time>2022-05-27T09:10:24Z</time>
</trkpt>
<trkpt lat="47.969746" lon="11.102337">
<ele>516.219</ele>
<time>2022-05-27T09:10:25Z</time>
</trkpt>
<trkpt lat="47.9697" lon="11.102348">
<ele>516.219</ele>
<time>2022-05-27T09:10:26Z</time>
</trkpt>
<trkpt lat="47.969646" lon="11.102362">
<ele>516.219</ele>
<time>2022-05-27T09:10:27Z</time>
</trkpt>
<trkpt lat="47.969593" lon="11.102375">
<ele>516.219</ele>
<time>2022-05-27T09:10:28Z</time>
</trkpt>
<trkpt lat="47.969543" lon="11.102391">
<ele>516.219</ele>
<time>2022-05-27T09:10:29Z</time>
</trkpt>
<trkpt lat="47.969494" lon="11.102408">
<ele>516.219</ele>
<time>2022-05-27T09:10:30Z</time>
</trkpt>
<trkpt lat="47.969448" lon="11.102423">
<ele>516.219</ele>
<time>2022-05-27T09:10:31Z</time>
</trkpt>
<trkpt lat="47.969406" lon="11.102435">
<ele>516.219</ele>
<time>2022-05-27T09:10:32Z</time>
</trkpt>
<trkpt lat="47.969364" lon="11.102447">
<ele>516.219</ele>
<time>2022-05-27T09:10:33Z</time>
</trkpt>
<trkpt lat="47.969322" lon="11.102458">
<ele>516.453</ele>
<time>2022-05-27T09:10:34Z</time>
</trkpt>
<trkpt lat="47.969296" lon="11.102463">
<ele>516.635</ele>
<time>2022-05-27T09:10:35Z</time>
</trkpt>
<trkpt lat="47.969261" lon="11.10247">
<ele>516.777</ele>
<time>2022-05-27T09:10:36Z</time>
</trkpt>
<trkpt lat="47.969223" lon="11.102477">
<ele>516.885</ele>
<time>2022-05-27T09:10:37Z</time>
</trkpt>
<trkpt lat="47.969185" lon="11.102491">
<ele>517.003</ele>
<time>2022-05-27T09:10:38Z</time>
</trkpt>
<trkpt lat="47.969135" lon="11.102509">
<ele>517.091</ele>
<time>2022-05-27T09:10:39Z</time>
</trkpt>
<trkpt lat="47.96909" lon="11.10253">
<ele>517.148</ele>
<time>2022-05-27T09:10:40Z</time>
</trkpt>
<trkpt lat="47.969032" lon="11.102553">
<ele>517.175</ele>
<time>2022-05-27T09:10:41Z</time>
</trkpt>
<trkpt lat="47.968983" lon="11.102576">
<ele>517.175</ele>
<time>2022-05-27T09:10:42Z</time>
</trkpt>
<trkpt lat="47.968925" lon="11.102605">
<ele>517.175</ele>
<time>2022-05-27T09:10:43Z</time>
</trkpt>
<trkpt lat="47.968872" lon="11.102634">
<ele>517.175</ele>
<time>2022-05-27T09:10:44Z</time>
</trkpt>
<trkpt lat="47.968822" lon="11.102664">
<ele>517.175</ele>
<time>2022-05-27T09:10:45Z</time>
</trkpt>
<trkpt lat="47.968769" lon="11.10269">
<ele>517.175</ele>
<time>2022-05-27T09:10:46Z</time>
</trkpt>
<trkpt lat="47.968712" lon="11.102714">
<ele>517.175</ele>
<time>2022-05-27T09:10:47Z</time>
</trkpt>
<trkpt lat="47.968651" lon="11.102735">
<ele>517.175</ele>
<time>2022-05-27T09:10:48Z</time>
</trkpt>
<trkpt lat="47.968597" lon="11.102758">
<ele>517.175</ele>
<time>2022-05-27T09:10:49Z</time>
</trkpt>
<trkpt lat="47.968544" lon="11.102785">
<ele>517.175</ele>
<time>2022-05-27T09:10:50Z</time>
</trkpt>
<trkpt lat="47.968494" lon="11.102804">
<ele>517.175</ele>
<time>2022-05-27T09:10:51Z</time>
</trkpt>
<trkpt lat="47.968441" lon="11.102825">
<ele>517.175</ele>
<time>2022-05-27T09:10:52Z</time>
</trkpt>
<trkpt lat="47.968388" lon="11.10285">
<ele>517.175</ele>
<time>2022-05-27T09:10:53Z</time>
</trkpt>
<trkpt lat="47.968338" lon="11.102873">
<ele>517.175</ele>
<time>2022-05-27T09:10:54Z</time>
</trkpt>
<trkpt lat="47.968281" lon="11.102894">
<ele>517.175</ele>
<time>2022-05-27T09:10:55Z</time>
</trkpt>
<trkpt lat="47.968235" lon="11.102919">
<ele>517.175</ele>
<time>2022-05-27T09:10:56Z</time>
</trkpt>
<trkpt lat="47.968182" lon="11.102942">
<ele>517.175</ele>
<time>2022-05-27T09:10:57Z</time>
</trkpt>
<trkpt lat="47.968132" lon="11.102967">
<ele>516.943</ele>
<time>2022-05-27T09:10:58Z</time>
</trkpt>
<trkpt lat="47.968086" lon="11.102983">
<ele>516.749</ele>
<time>2022-05-27T09:10:59Z</time>
</trkpt>
<trkpt lat="47.96804" lon="11.103005">
<ele>516.592</ele>
<time>2022-05-27T09:11:00Z</time>
</trkpt>
<trkpt lat="47.968002" lon="11.103033">
<ele>516.467</ele>
<time>2022-05-27T09:11:01Z</time>
</trkpt>
<trkpt lat="47.967964" lon="11.103066">
<ele>516.365</ele>
<time>2022-05-27T09:11:02Z</time>
</trkpt>
<trkpt lat="47.967922" lon="11.103086">
<ele>516.291</ele>
<time>2022-05-27T09:11:03Z</time>
</trkpt>
<trkpt lat="47.967884" lon="11.103104">
<ele>516.242</ele>
<time>2022-05-27T09:11:04Z</time>
</trkpt>
<trkpt lat="47.967842" lon="11.103131">
<ele>516.219</ele>
<time>2022-05-27T09:11:05Z</time>
</trkpt>
<trkpt lat="47.967789" lon="11.103165">
<ele>516.219</ele>
<time>2022-05-27T09:11:06Z</time>
</trkpt>
<trkpt lat="47.967743" lon="11.103195">
<ele>516.219</ele>
<time>2022-05-27T09:11:07Z</time>
</trkpt>
<trkpt lat="47.96769" lon="11.103235">
<ele>516.219</ele>
<time>2022-05-27T09:11:08Z</time>
</trkpt>
<trkpt lat="47.967644" lon="11.103263">
<ele>516.219</ele>
<time>2022-05-27T09:11:09Z</time>
</trkpt>
<trkpt lat="47.96759" lon="11.1033">
<ele>516.219</ele>
<time>2022-05-27T09:11:10Z</time>
</trkpt>
<trkpt lat="47.967537" lon="11.103334">
<ele>516.219</ele>
<time>2022-05-27T09:11:11Z</time>
</trkpt>
<trkpt lat="47.967487" lon="11.103367">
<ele>516.219</ele>
<time>2022-05-27T09:11:12Z</time>
</trkpt>
<trkpt lat="47.967438" lon="11.103403">
<ele>516.219</ele>
<time>2022-05-27T09:11:13Z</time>
</trkpt>
<trkpt lat="47.967396" lon="11.103429">
<ele>516.219</ele>
<time>2022-05-27T09:11:14Z</time>
</trkpt>
<trkpt lat="47.967361" lon="11.103456">
<ele>516.219</ele>
<time>2022-05-27T09:11:15Z</time>
</trkpt>
<trkpt lat="47.967323" lon="11.103478">
<ele>516.219</ele>
<time>2022-05-27T09:11:16Z</time>
</trkpt>
<trkpt lat="47.96727" lon="11.103506">
<ele>516.219</ele>
<time>2022-05-27T09:11:17Z</time>
</trkpt>
<trkpt lat="47.967213" lon="11.103543">
<ele>516.219</ele>
<time>2022-05-27T09:11:18Z</time>
</trkpt>
<trkpt lat="47.967152" lon="11.103573">
<ele>516.219</ele>
<time>2022-05-27T09:11:19Z</time>
</trkpt>
<trkpt lat="47.967102" lon="11.103599">
<ele>516.219</ele>
<time>2022-05-27T09:11:20Z</time>
</trkpt>
<trkpt lat="47.967056" lon="11.10362">
<ele>516.219</ele>
<time>2022-05-27T09:11:21Z</time>
</trkpt>
<trkpt lat="47.966999" lon="11.103659">
<ele>516.219</ele>
<time>2022-05-27T09:11:22Z</time>
</trkpt>
<trkpt lat="47.966942" lon="11.103699">
<ele>516.219</ele>
<time>2022-05-27T09:11:23Z</time>
</trkpt>
<trkpt lat="47.966892" lon="11.103733">
<ele>516.219</ele>
<time>2022-05-27T09:11:24Z</time>
</trkpt>
<trkpt lat="47.966843" lon="11.103764">
<ele>516.219</ele>
<time>2022-05-27T09:11:25Z</time>
</trkpt>
<trkpt lat="47.966801" lon="11.103786">
<ele>516.219</ele>
<time>2022-05-27T09:11:26Z</time>
</trkpt>
<trkpt lat="47.966751" lon="11.103818">
<ele>516.219</ele>
<time>2022-05-27T09:11:27Z</time>
</trkpt>
<trkpt lat="47.966709" lon="11.103848">
<ele>516.219</ele>
<time>2022-05-27T09:11:28Z</time>
</trkpt>
<trkpt lat="47.966652" lon="11.103887">
<ele>516.219</ele>
<time>2022-05-27T09:11:29Z</time>
</trkpt>
<trkpt lat="47.96661" lon="11.103917">
<ele>516.219</ele>
<time>2022-05-27T09:11:30Z</time>
</trkpt>
<trkpt lat="47.96656" lon="11.103949">
<ele>516.219</ele>
<time>2022-05-27T09:11:31Z</time>
</trkpt>
<trkpt lat="47.966499" lon="11.103973">
<ele>516.219</ele>
<time>2022-05-27T09:11:32Z</time>
</trkpt>
<trkpt lat="47.966442" lon="11.104003">
<ele>516.219</ele>
<time>2022-05-27T09:11:33Z</time>
</trkpt>
<trkpt lat="47.966385" lon="11.104032">
<ele>516.219</ele>
<time>2022-05-27T09:11:34Z</time>
</trkpt>
<trkpt lat="47.966328" lon="11.104063">
<ele>516.219</ele>
<time>2022-05-27T09:11:35Z</time>
</trkpt>
<trkpt lat="47.966282" lon="11.104096">
<ele>516.219</ele>
<time>2022-05-27T09:11:36Z</time>
</trkpt>
<trkpt lat="47.966232" lon="11.10413">
<ele>516.219</ele>
<time>2022-05-27T09:11:37Z</time>
</trkpt>
<trkpt lat="47.96619" lon="11.104161">
<ele>516.219</ele>
<time>2022-05-27T09:11:38Z</time>
</trkpt>
<trkpt lat="47.966145" lon="11.104192">
<ele>516.219</ele>
<time>2022-05-27T09:11:39Z</time>
</trkpt>
<trkpt lat="47.966103" lon="11.10422">
<ele>516.219</ele>
<time>2022-05-27T09:11:40Z</time>
</trkpt>
<trkpt lat="47.966061" lon="11.104252">
<ele>516.219</ele>
<time>2022-05-27T09:11:41Z</time>
</trkpt>
<trkpt lat="47.966026" lon="11.104277">
<ele>516.219</ele>
<time>2022-05-27T09:11:42Z</time>
</trkpt>
<trkpt lat="47.965984" lon="11.104303">
<ele>516.219</ele>
<time>2022-05-27T09:11:43Z</time>
</trkpt>
<trkpt lat="47.965942" lon="11.10433">
<ele>516.219</ele>
<time>2022-05-27T09:11:44Z</time>
</trkpt>
<trkpt lat="47.965897" lon="11.104359">
<ele>516.219</ele>
<time>2022-05-27T09:11:45Z</time>
</trkpt>
<trkpt lat="47.965851" lon="11.104388">
<ele>516.219</ele>
<time>2022-05-27T09:11:46Z</time>
</trkpt>
<trkpt lat="47.965797" lon="11.104418">
<ele>516.219</ele>
<time>2022-05-27T09:11:47Z</time>
</trkpt>
<trkpt lat="47.965748" lon="11.104446">
<ele>516.219</ele>
<time>2022-05-27T09:11:48Z</time>
</trkpt>
<trkpt lat="47.965698" lon="11.104476">
<ele>516.219</ele>
<time>2022-05-27T09:11:49Z</time>
</trkpt>
<trkpt lat="47.965649" lon="11.104508">
<ele>516.219</ele>
<time>2022-05-27T09:11:50Z</time>
</trkpt>
<trkpt lat="47.965603" lon="11.10454">
<ele>516.219</ele>
<time>2022-05-27T09:11:51Z</time>
</trkpt>
<trkpt lat="47.965557" lon="11.10457">
<ele>516.219</ele>
<time>2022-05-27T09:11:52Z</time>
</trkpt>
<trkpt lat="47.965511" lon="11.104602">
<ele>516.219</ele>
<time>2022-05-27T09:11:53Z</time>
</trkpt>
<trkpt lat="47.965473" lon="11.104627">
<ele>516.438</ele>
<time>2022-05-27T09:11:54Z</time>
</trkpt>
<trkpt lat="47.965439" lon="11.104653">
<ele>516.605</ele>
<time>2022-05-27T09:11:55Z</time>
</trkpt>
<trkpt lat="47.965405" lon="11.104677">
<ele>516.74</ele>
<time>2022-05-27T09:11:56Z</time>
</trkpt>
<trkpt lat="47.965366" lon="11.104707">
<ele>516.836</ele>
<time>2022-05-27T09:11:57Z</time>
</trkpt>
<trkpt lat="47.965328" lon="11.10474">
<ele>516.937</ele>
<time>2022-05-27T09:11:58Z</time>
</trkpt>
<trkpt lat="47.965286" lon="11.10477">
<ele>517.014</ele>
<time>2022-05-27T09:11:59Z</time>
</trkpt>
<trkpt lat="47.965252" lon="11.104792">
<ele>517.064</ele>
<time>2022-05-27T09:12:00Z</time>
</trkpt>
<trkpt lat="47.96521" lon="11.104817">
<ele>517.089</ele>
<time>2022-05-27T09:12:01Z</time>
</trkpt>
<trkpt lat="47.965164" lon="11.104847">
<ele>517.089</ele>
<time>2022-05-27T09:12:02Z</time>
</trkpt>
<trkpt lat="47.96513" lon="11.104875">
<ele>517.089</ele>
<time>2022-05-27T09:12:03Z</time>
</trkpt>
<trkpt lat="47.965084" lon="11.104901">
<ele>517.089</ele>
<time>2022-05-27T09:12:04Z</time>
</trkpt>
<trkpt lat="47.965042" lon="11.104925">
<ele>517.089</ele>
<time>2022-05-27T09:12:05Z</time>
</trkpt>
<trkpt lat="47.964993" lon="11.104945">
<ele>517.089</ele>
<time>2022-05-27T09:12:06Z</time>
</trkpt>
<trkpt lat="47.964947" lon="11.104968">
<ele>517.089</ele>
<time>2022-05-27T09:12:07Z</time>
</trkpt>
<trkpt lat="47.964901" lon="11.104998">
<ele>517.089</ele>
<time>2022-05-27T09:12:08Z</time>
</trkpt>
<trkpt lat="47.964851" lon="11.105027">
<ele>517.089</ele>
<time>2022-05-27T09:12:09Z</time>
</trkpt>
<trkpt lat="47.964809" lon="11.105054">
<ele>517.089</ele>
<time>2022-05-27T09:12:10Z</time>
</trkpt>
<trkpt lat="47.96476" lon="11.105083">
<ele>517.089</ele>
<time>2022-05-27T09:12:11Z</time>
</trkpt>
<trkpt lat="47.964722" lon="11.105111">
<ele>517.089</ele>
<time>2022-05-27T09:12:12Z</time>
</trkpt>
<trkpt lat="47.964676" lon="11.105145">
<ele>517.089</ele>
<time>2022-05-27T09:12:13Z</time>
</trkpt>
<trkpt lat="47.96463" lon="11.105173">
<ele>517.089</ele>
<time>2022-05-27T09:12:14Z</time>
</trkpt>
<trkpt lat="47.964592" lon="11.105202">
<ele>517.089</ele>
<time>2022-05-27T09:12:15Z</time>
</trkpt>
<trkpt lat="47.964546" lon="11.10523">
<ele>517.089</ele>
<time>2022-05-27T09:12:16Z</time>
</trkpt>
<trkpt lat="47.9645" lon="11.105257">
<ele>517.089</ele>
<time>2022-05-27T09:12:17Z</time>
</trkpt>
<trkpt lat="47.964462" lon="11.105289">
<ele>517.089</ele>
<time>2022-05-27T09:12:18Z</time>
</trkpt>
<trkpt lat="47.96442" lon="11.105322">
<ele>517.089</ele>
<time>2022-05-27T09:12:19Z</time>
</trkpt>
<trkpt lat="47.964371" lon="11.105355">
<ele>517.089</ele>
<time>2022-05-27T09:12:20Z</time>
</trkpt>
<trkpt lat="47.964329" lon="11.105388">
<ele>517.089</ele>
<time>2022-05-27T09:12:21Z</time>
</trkpt>
<trkpt lat="47.964291" lon="11.105427">
<ele>517.089</ele>
<time>2022-05-27T09:12:22Z</time>
</trkpt>
<trkpt lat="47.964245" lon="11.105469">
<ele>517.089</ele>
<time>2022-05-27T09:12:23Z</time>
</trkpt>
<trkpt lat="47.964211" lon="11.105518">
<ele>517.089</ele>
<time>2022-05-27T09:12:24Z</time>
</trkpt>
<trkpt lat="47.964172" lon="11.10557">
<ele>517.089</ele>
<time>2022-05-27T09:12:25Z</time>
</trkpt>
<trkpt lat="47.964134" lon="11.105624">
<ele>517.089</ele>
<time>2022-05-27T09:12:26Z</time>
</trkpt>
<trkpt lat="47.9641" lon="11.105683">
<ele>517.089</ele>
<time>2022-05-27T09:12:27Z</time>
</trkpt>
<trkpt lat="47.964069" lon="11.105742">
<ele>517.089</ele>
<time>2022-05-27T09:12:28Z</time>
</trkpt>
<trkpt lat="47.964031" lon="11.105794">
<ele>517.089</ele>
<time>2022-05-27T09:12:29Z</time>
</trkpt>
<trkpt lat="47.964001" lon="11.105844">
<ele>517.089</ele>
<time>2022-05-27T09:12:30Z</time>
</trkpt>
<trkpt lat="47.963963" lon="11.105899">
<ele>517.089</ele>
<time>2022-05-27T09:12:31Z</time>
</trkpt>
<trkpt lat="47.963928" lon="11.105953">
<ele>517.089</ele>
<time>2022-05-27T09:12:32Z</time>
</trkpt>
<trkpt lat="47.963894" lon="11.106008">
<ele>517.089</ele>
<time>2022-05-27T09:12:33Z</time>
</trkpt>
<trkpt lat="47.963863" lon="11.106067">
<ele>517.089</ele>
<time>2022-05-27T09:12:34Z</time>
</trkpt>
<trkpt lat="47.963829" lon="11.106132">
<ele>517.089</ele>
<time>2022-05-27T09:12:35Z</time>
</trkpt>
<trkpt lat="47.963791" lon="11.106188">
<ele>517.089</ele>
<time>2022-05-27T09:12:36Z</time>
</trkpt>
<trkpt lat="47.963753" lon="11.106238">
<ele>517.089</ele>
<time>2022-05-27T09:12:37Z</time>
</trkpt>
<trkpt lat="47.963715" lon="11.10629">
<ele>517.089</ele>
<time>2022-05-27T09:12:38Z</time>
</trkpt>
<trkpt lat="47.963676" lon="11.10633">
<ele>517.089</ele>
<time>2022-05-27T09:12:39Z</time>
</trkpt>
<trkpt lat="47.963638" lon="11.106372">
<ele>517.089</ele>
<time>2022-05-27T09:12:40Z</time>
</trkpt>
<trkpt lat="47.963596" lon="11.10641">
<ele>517.089</ele>
<time>2022-05-27T09:12:41Z</time>
</trkpt>
<trkpt lat="47.963551" lon="11.106441">
<ele>517.089</ele>
<time>2022-05-27T09:12:42Z</time>
</trkpt>
<trkpt lat="47.963509" lon="11.10647">
<ele>517.089</ele>
<time>2022-05-27T09:12:43Z</time>
</trkpt>
<trkpt lat="47.963463" lon="11.10649">
<ele>517.089</ele>
<time>2022-05-27T09:12:44Z</time>
</trkpt>
<trkpt lat="47.963413" lon="11.106496">
<ele>517.089</ele>
<time>2022-05-27T09:12:45Z</time>
</trkpt>
<trkpt lat="47.96336" lon="11.106508">
<ele>517.089</ele>
<time>2022-05-27T09:12:46Z</time>
</trkpt>
<trkpt lat="47.963306" lon="11.106515">
<ele>517.089</ele>
<time>2022-05-27T09:12:47Z</time>
</trkpt>
<trkpt lat="47.963253" lon="11.106519">
<ele>517.089</ele>
<time>2022-05-27T09:12:48Z</time>
</trkpt>
<trkpt lat="47.9632" lon="11.106515">
<ele>517.089</ele>
<time>2022-05-27T09:12:49Z</time>
</trkpt>
<trkpt lat="47.96315" lon="11.106508">
<ele>517.089</ele>
<time>2022-05-27T09:12:50Z</time>
</trkpt>
<trkpt lat="47.963097" lon="11.106502">
<ele>517.089</ele>
<time>2022-05-27T09:12:51Z</time>
</trkpt>
<trkpt lat="47.963047" lon="11.106493">
<ele>517.089</ele>
<time>2022-05-27T09:12:52Z</time>
</trkpt>
<trkpt lat="47.962997" lon="11.106493">
<ele>517.089</ele>
<time>2022-05-27T09:12:53Z</time>
</trkpt>
<trkpt lat="47.962955" lon="11.106492">
<ele>517.089</ele>
<time>2022-05-27T09:12:54Z</time>
</trkpt>
<trkpt lat="47.96291" lon="11.106492">
<ele>517.089</ele>
<time>2022-05-27T09:12:55Z</time>
</trkpt>
<trkpt lat="47.962864" lon="11.1065">
<ele>517.089</ele>
<time>2022-05-27T09:12:56Z</time>
</trkpt>
<trkpt lat="47.962826" lon="11.106503">
<ele>517.089</ele>
<time>2022-05-27T09:12:57Z</time>
</trkpt>
<trkpt lat="47.962784" lon="11.106521">
<ele>517.089</ele>
<time>2022-05-27T09:12:58Z</time>
</trkpt>
<trkpt lat="47.962734" lon="11.106537">
<ele>517.089</ele>
<time>2022-05-27T09:12:59Z</time>
</trkpt>
<trkpt lat="47.962696" lon="11.106552">
<ele>517.089</ele>
<time>2022-05-27T09:13:00Z</time>
</trkpt>
<trkpt lat="47.96265" lon="11.106563">
<ele>517.089</ele>
<time>2022-05-27T09:13:01Z</time>
</trkpt>
<trkpt lat="47.962612" lon="11.106569">
<ele>517.089</ele>
<time>2022-05-27T09:13:02Z</time>
</trkpt>
<trkpt lat="47.96257" lon="11.106586">
<ele>517.089</ele>
<time>2022-05-27T09:13:03Z</time>
</trkpt>
<trkpt lat="47.962532" lon="11.106594">
<ele>517.089</ele>
<time>2022-05-27T09:13:04Z</time>
</trkpt>
<trkpt lat="47.962486" lon="11.106622">
<ele>517.089</ele>
<time>2022-05-27T09:13:05Z</time>
</trkpt>
<trkpt lat="47.962444" lon="11.106643">
<ele>517.089</ele>
<time>2022-05-27T09:13:06Z</time>
</trkpt>
<trkpt lat="47.962406" lon="11.106668">
<ele>517.089</ele>
<time>2022-05-27T09:13:07Z</time>
</trkpt>
<trkpt lat="47.962364" lon="11.106693">
<ele>517.089</ele>
<time>2022-05-27T09:13:08Z</time>
</trkpt>
<trkpt lat="47.962318" lon="11.106711">
<ele>517.089</ele>
<time>2022-05-27T09:13:09Z</time>
</trkpt>
<trkpt lat="47.962269" lon="11.106736">
<ele>517.089</ele>
<time>2022-05-27T09:13:10Z</time>
</trkpt>
<trkpt lat="47.962215" lon="11.106771">
<ele>517.089</ele>
<time>2022-05-27T09:13:11Z</time>
</trkpt>
<trkpt lat="47.962166" lon="11.106802">
<ele>517.089</ele>
<time>2022-05-27T09:13:12Z</time>
</trkpt>
<trkpt lat="47.962112" lon="11.106831">
<ele>517.089</ele>
<time>2022-05-27T09:13:13Z</time>
</trkpt>
<trkpt lat="47.962055" lon="11.106858">
<ele>517.089</ele>
<time>2022-05-27T09:13:14Z</time>
</trkpt>
<trkpt lat="47.962002" lon="11.106881">
<ele>517.089</ele>
<time>2022-05-27T09:13:15Z</time>
</trkpt>
<trkpt lat="47.961948" lon="11.106911">
<ele>517.089</ele>
<time>2022-05-27T09:13:16Z</time>
</trkpt>
<trkpt lat="47.961891" lon="11.106936">
<ele>517.307</ele>
<time>2022-05-27T09:13:17Z</time>
</trkpt>
<trkpt lat="47.961838" lon="11.106961">
<ele>517.506</ele>
<time>2022-05-27T09:13:18Z</time>
</trkpt>
<trkpt lat="47.961788" lon="11.106986">
<ele>517.667</ele>
<time>2022-05-27T09:13:19Z</time>
</trkpt>
<trkpt lat="47.961739" lon="11.10701">
<ele>517.798</ele>
<time>2022-05-27T09:13:20Z</time>
</trkpt>
<trkpt lat="47.961689" lon="11.10703">
<ele>517.898</ele>
<time>2022-05-27T09:13:21Z</time>
</trkpt>
<trkpt lat="47.961636" lon="11.107051">
<ele>517.973</ele>
<time>2022-05-27T09:13:22Z</time>
</trkpt>
<trkpt lat="47.961586" lon="11.107075">
<ele>518.021</ele>
<time>2022-05-27T09:13:23Z</time>
</trkpt>
<trkpt lat="47.961533" lon="11.107093">
<ele>518.045</ele>
<time>2022-05-27T09:13:24Z</time>
</trkpt>
<trkpt lat="47.961487" lon="11.10711">
<ele>518.045</ele>
<time>2022-05-27T09:13:25Z</time>
</trkpt>
<trkpt lat="47.961437" lon="11.107126">
<ele>518.045</ele>
<time>2022-05-27T09:13:26Z</time>
</trkpt>
<trkpt lat="47.961391" lon="11.107141">
<ele>518.045</ele>
<time>2022-05-27T09:13:27Z</time>
</trkpt>
<trkpt lat="47.961346" lon="11.107158">
<ele>518.045</ele>
<time>2022-05-27T09:13:28Z</time>
</trkpt>
<trkpt lat="47.961304" lon="11.107181">
<ele>518.045</ele>
<time>2022-05-27T09:13:29Z</time>
</trkpt>
<trkpt lat="47.961273" lon="11.107215">
<ele>518.045</ele>
<time>2022-05-27T09:13:30Z</time>
</trkpt>
<trkpt lat="47.961266" lon="11.107259">
<ele>517.818</ele>
<time>2022-05-27T09:13:31Z</time>
</trkpt>
<trkpt lat="47.961262" lon="11.10731">
<ele>517.637</ele>
<time>2022-05-27T09:13:32Z</time>
</trkpt>
<trkpt lat="47.961262" lon="11.107367">
<ele>517.489</ele>
<time>2022-05-27T09:13:33Z</time>
</trkpt>
<trkpt lat="47.961266" lon="11.107426">
<ele>517.378</ele>
<time>2022-05-27T09:13:34Z</time>
</trkpt>
<trkpt lat="47.961269" lon="11.107485">
<ele>517.297</ele>
<time>2022-05-27T09:13:35Z</time>
</trkpt>
<trkpt lat="47.961273" lon="11.107556">
<ele>517.246</ele>
<time>2022-05-27T09:13:36Z</time>
</trkpt>
<trkpt lat="47.961277" lon="11.107629">
<ele>517.203</ele>
<time>2022-05-27T09:13:37Z</time>
</trkpt>
<trkpt lat="47.961285" lon="11.107703">
<ele>517.175</ele>
<time>2022-05-27T09:13:38Z</time>
</trkpt>
<trkpt lat="47.961288" lon="11.10778">
<ele>517.175</ele>
<time>2022-05-27T09:13:39Z</time>
</trkpt>
<trkpt lat="47.961292" lon="11.107857">
<ele>517.175</ele>
<time>2022-05-27T09:13:40Z</time>
</trkpt>
<trkpt lat="47.961296" lon="11.107935">
<ele>517.175</ele>
<time>2022-05-27T09:13:41Z</time>
</trkpt>
<trkpt lat="47.9613" lon="11.108017">
<ele>517.175</ele>
<time>2022-05-27T09:13:42Z</time>
</trkpt>
<trkpt lat="47.961304" lon="11.108096">
<ele>517.175</ele>
<time>2022-05-27T09:13:43Z</time>
</trkpt>
<trkpt lat="47.961308" lon="11.108176">
<ele>517.175</ele>
<time>2022-05-27T09:13:44Z</time>
</trkpt>
<trkpt lat="47.961311" lon="11.108253">
<ele>517.175</ele>
<time>2022-05-27T09:13:45Z</time>
</trkpt>
<trkpt lat="47.961327" lon="11.108327">
<ele>517.175</ele>
<time>2022-05-27T09:13:46Z</time>
</trkpt>
<trkpt lat="47.96133" lon="11.1084">
<ele>516.944</ele>
<time>2022-05-27T09:13:47Z</time>
</trkpt>
<trkpt lat="47.961342" lon="11.108469">
<ele>516.729</ele>
<time>2022-05-27T09:13:48Z</time>
</trkpt>
<trkpt lat="47.961346" lon="11.108535">
<ele>516.553</ele>
<time>2022-05-27T09:13:49Z</time>
</trkpt>
<trkpt lat="47.961349" lon="11.108605">
<ele>516.411</ele>
<time>2022-05-27T09:13:50Z</time>
</trkpt>
<trkpt lat="47.961353" lon="11.108672">
<ele>516.297</ele>
<time>2022-05-27T09:13:51Z</time>
</trkpt>
<trkpt lat="47.961353" lon="11.108735">
<ele>516.214</ele>
<time>2022-05-27T09:13:52Z</time>
</trkpt>
<trkpt lat="47.961349" lon="11.108784">
<ele>516.159</ele>
<time>2022-05-27T09:13:53Z</time>
</trkpt>
<trkpt lat="47.961338" lon="11.10882">
<ele>516.132</ele>
<time>2022-05-27T09:13:54Z</time>
</trkpt>
<trkpt lat="47.961323" lon="11.10885">
<ele>515.917</ele>
<time>2022-05-27T09:13:55Z</time>
</trkpt>
<trkpt lat="47.9613" lon="11.108875">
<ele>515.742</ele>
<time>2022-05-27T09:13:56Z</time>
</trkpt>
<trkpt lat="47.961266" lon="11.108896">
<ele>515.611</ele>
<time>2022-05-27T09:13:57Z</time>
</trkpt>
<trkpt lat="47.961231" lon="11.108907">
<ele>515.472</ele>
<time>2022-05-27T09:13:58Z</time>
</trkpt>
<trkpt lat="47.961193" lon="11.108912">
<ele>515.354</ele>
<time>2022-05-27T09:13:59Z</time>
</trkpt>
<trkpt lat="47.961159" lon="11.108915">
<ele>515.263</ele>
<time>2022-05-27T09:14:00Z</time>
</trkpt>
<trkpt lat="47.961124" lon="11.108917">
<ele>515.201</ele>
<time>2022-05-27T09:14:01Z</time>
</trkpt>
<trkpt lat="47.96109" lon="11.108915">
<ele>515.176</ele>
<time>2022-05-27T09:14:02Z</time>
</trkpt>
<trkpt lat="47.961056" lon="11.108913">
<ele>515.176</ele>
<time>2022-05-27T09:14:03Z</time>
</trkpt>
<trkpt lat="47.961025" lon="11.108917">
<ele>515.176</ele>
<time>2022-05-27T09:14:04Z</time>
</trkpt>
<trkpt lat="47.960999" lon="11.108915">
<ele>515.176</ele>
<time>2022-05-27T09:14:05Z</time>
</trkpt>
<trkpt lat="47.960968" lon="11.108917">
<ele>515.176</ele>
<time>2022-05-27T09:14:06Z</time>
</trkpt>
<trkpt lat="47.960941" lon="11.108918">
<ele>515.176</ele>
<time>2022-05-27T09:14:07Z</time>
</trkpt>
<trkpt lat="47.960911" lon="11.108917">
<ele>515.176</ele>
<time>2022-05-27T09:14:08Z</time>
</trkpt>
<trkpt lat="47.960884" lon="11.108917">
<ele>515.176</ele>
<time>2022-05-27T09:14:09Z</time>
</trkpt>
<trkpt lat="47.960854" lon="11.108917">
<ele>515.176</ele>
<time>2022-05-27T09:14:10Z</time>
</trkpt>
<trkpt lat="47.960823" lon="11.108915">
<ele>515.176</ele>
<time>2022-05-27T09:14:11Z</time>
</trkpt>
<trkpt lat="47.960793" lon="11.108913">
<ele>515.176</ele>
<time>2022-05-27T09:14:12Z</time>
</trkpt>
<trkpt lat="47.960762" lon="11.108912">
<ele>515.176</ele>
<time>2022-05-27T09:14:13Z</time>
</trkpt>
<trkpt lat="47.960732" lon="11.108903">
<ele>515.176</ele>
<time>2022-05-27T09:14:14Z</time>
</trkpt>
<trkpt lat="47.960705" lon="11.108892">
<ele>515.176</ele>
<time>2022-05-27T09:14:15Z</time>
</trkpt>
<trkpt lat="47.960678" lon="11.108882">
<ele>515.176</ele>
<time>2022-05-27T09:14:16Z</time>
</trkpt>
<trkpt lat="47.960651" lon="11.108873">
<ele>515.176</ele>
<time>2022-05-27T09:14:17Z</time>
</trkpt>
<trkpt lat="47.960621" lon="11.108865">
<ele>515.176</ele>
<time>2022-05-27T09:14:18Z</time>
</trkpt>
<trkpt lat="47.960594" lon="11.108859">
<ele>515.176</ele>
<time>2022-05-27T09:14:19Z</time>
</trkpt>
<trkpt lat="47.96056" lon="11.108853">
<ele>515.176</ele>
<time>2022-05-27T09:14:20Z</time>
</trkpt>
<trkpt lat="47.960526" lon="11.108851">
<ele>515.176</ele>
<time>2022-05-27T09:14:21Z</time>
</trkpt>
<trkpt lat="47.960487" lon="11.10885">
<ele>515.176</ele>
<time>2022-05-27T09:14:22Z</time>
</trkpt>
<trkpt lat="47.960449" lon="11.108845">
<ele>515.176</ele>
<time>2022-05-27T09:14:23Z</time>
</trkpt>
<trkpt lat="47.960407" lon="11.108836">
<ele>515.176</ele>
<time>2022-05-27T09:14:24Z</time>
</trkpt>
<trkpt lat="47.960373" lon="11.108826">
<ele>515.176</ele>
<time>2022-05-27T09:14:25Z</time>
</trkpt>
<trkpt lat="47.960335" lon="11.108813">
<ele>514.908</ele>
<time>2022-05-27T09:14:26Z</time>
</trkpt>
<trkpt lat="47.960304" lon="11.108803">
<ele>514.726</ele>
<time>2022-05-27T09:14:27Z</time>
</trkpt>
<trkpt lat="47.960274" lon="11.108791">
<ele>514.548</ele>
<time>2022-05-27T09:14:28Z</time>
</trkpt>
<trkpt lat="47.960243" lon="11.108787">
<ele>514.411</ele>
<time>2022-05-27T09:14:29Z</time>
</trkpt>
<trkpt lat="47.960213" lon="11.108773">
<ele>514.302</ele>
<time>2022-05-27T09:14:30Z</time>
</trkpt>
<trkpt lat="47.960182" lon="11.108763">
<ele>514.221</ele>
<time>2022-05-27T09:14:31Z</time>
</trkpt>
<trkpt lat="47.96014" lon="11.108747">
<ele>514.162</ele>
<time>2022-05-27T09:14:32Z</time>
</trkpt>
<trkpt lat="47.960106" lon="11.108733">
<ele>514.133</ele>
<time>2022-05-27T09:14:33Z</time>
</trkpt>
<trkpt lat="47.960072" lon="11.108719">
<ele>514.133</ele>
<time>2022-05-27T09:14:34Z</time>
</trkpt>
<trkpt lat="47.960033" lon="11.108704">
<ele>514.133</ele>
<time>2022-05-27T09:14:35Z</time>
</trkpt>
<trkpt lat="47.959995" lon="11.108688">
<ele>514.133</ele>
<time>2022-05-27T09:14:36Z</time>
</trkpt>
<trkpt lat="47.959961" lon="11.10867">
<ele>514.133</ele>
<time>2022-05-27T09:14:37Z</time>
</trkpt>
<trkpt lat="47.95993" lon="11.108647">
<ele>514.133</ele>
<time>2022-05-27T09:14:38Z</time>
</trkpt>
<trkpt lat="47.959892" lon="11.108616">
<ele>514.133</ele>
<time>2022-05-27T09:14:39Z</time>
</trkpt>
<trkpt lat="47.959858" lon="11.108586">
<ele>514.133</ele>
<time>2022-05-27T09:14:40Z</time>
</trkpt>
<trkpt lat="47.959824" lon="11.108553">
<ele>514.133</ele>
<time>2022-05-27T09:14:41Z</time>
</trkpt>
<trkpt lat="47.959782" lon="11.108518">
<ele>514.133</ele>
<time>2022-05-27T09:14:42Z</time>
</trkpt>
<trkpt lat="47.959736" lon="11.108486">
<ele>514.133</ele>
<time>2022-05-27T09:14:43Z</time>
</trkpt>
<trkpt lat="47.959698" lon="11.108457">
<ele>514.133</ele>
<time>2022-05-27T09:14:44Z</time>
</trkpt>
<trkpt lat="47.959656" lon="11.108425">
<ele>514.133</ele>
<time>2022-05-27T09:14:45Z</time>
</trkpt>
<trkpt lat="47.959614" lon="11.108397">
<ele>514.133</ele>
<time>2022-05-27T09:14:46Z</time>
</trkpt>
<trkpt lat="47.959572" lon="11.108372">
<ele>514.133</ele>
<time>2022-05-27T09:14:47Z</time>
</trkpt>
<trkpt lat="47.959534" lon="11.10835">
<ele>514.133</ele>
<time>2022-05-27T09:14:48Z</time>
</trkpt>
<trkpt lat="47.959492" lon="11.108327">
<ele>514.133</ele>
<time>2022-05-27T09:14:49Z</time>
</trkpt>
<trkpt lat="47.95945" lon="11.108303">
<ele>514.133</ele>
<time>2022-05-27T09:14:50Z</time>
</trkpt>
<trkpt lat="47.959408" lon="11.10828">
<ele>514.133</ele>
<time>2022-05-27T09:14:51Z</time>
</trkpt>
<trkpt lat="47.959373" lon="11.108258">
<ele>514.133</ele>
<time>2022-05-27T09:14:52Z</time>
</trkpt>
<trkpt lat="47.959339" lon="11.108238">
<ele>514.133</ele>
<time>2022-05-27T09:14:53Z</time>
</trkpt>
<trkpt lat="47.959297" lon="11.10822">
<ele>514.133</ele>
<time>2022-05-27T09:14:54Z</time>
</trkpt>
<trkpt lat="47.959263" lon="11.108199">
<ele>514.133</ele>
<time>2022-05-27T09:14:55Z</time>
</trkpt>
<trkpt lat="47.959225" lon="11.108175">
<ele>514.133</ele>
<time>2022-05-27T09:14:56Z</time>
</trkpt>
<trkpt lat="47.959183" lon="11.108151">
<ele>514.133</ele>
<time>2022-05-27T09:14:57Z</time>
</trkpt>
<trkpt lat="47.959148" lon="11.108126">
<ele>514.133</ele>
<time>2022-05-27T09:14:58Z</time>
</trkpt>
<trkpt lat="47.959106" lon="11.108098">
<ele>514.133</ele>
<time>2022-05-27T09:14:59Z</time>
</trkpt>
<trkpt lat="47.959061" lon="11.108078">
<ele>514.133</ele>
<time>2022-05-27T09:15:00Z</time>
</trkpt>
<trkpt lat="47.959023" lon="11.108059">
<ele>514.133</ele>
<time>2022-05-27T09:15:01Z</time>
</trkpt>
<trkpt lat="47.958984" lon="11.10804">
<ele>514.133</ele>
<time>2022-05-27T09:15:02Z</time>
</trkpt>
<trkpt lat="47.95895" lon="11.108015">
<ele>514.133</ele>
<time>2022-05-27T09:15:03Z</time>
</trkpt>
<trkpt lat="47.958916" lon="11.107991">
<ele>514.133</ele>
<time>2022-05-27T09:15:04Z</time>
</trkpt>
<trkpt lat="47.958878" lon="11.107968">
<ele>514.133</ele>
<time>2022-05-27T09:15:05Z</time>
</trkpt>
<trkpt lat="47.958847" lon="11.107945">
<ele>514.133</ele>
<time>2022-05-27T09:15:06Z</time>
</trkpt>
<trkpt lat="47.958817" lon="11.107926">
<ele>514.133</ele>
<time>2022-05-27T09:15:07Z</time>
</trkpt>
<trkpt lat="47.95879" lon="11.107912">
<ele>514.133</ele>
<time>2022-05-27T09:15:08Z</time>
</trkpt>
<trkpt lat="47.958767" lon="11.107891">
<ele>514.133</ele>
<time>2022-05-27T09:15:09Z</time>
</trkpt>
<trkpt lat="47.95874" lon="11.107863">
<ele>514.133</ele>
<time>2022-05-27T09:15:10Z</time>
</trkpt>
<trkpt lat="47.958714" lon="11.107823">
<ele>514.133</ele>
<time>2022-05-27T09:15:11Z</time>
</trkpt>
<trkpt lat="47.958683" lon="11.10778">
<ele>514.133</ele>
<time>2022-05-27T09:15:12Z</time>
</trkpt>
<trkpt lat="47.958656" lon="11.107737">
<ele>514.133</ele>
<time>2022-05-27T09:15:13Z</time>
</trkpt>
<trkpt lat="47.958633" lon="11.107685">
<ele>514.133</ele>
<time>2022-05-27T09:15:14Z</time>
</trkpt>
<trkpt lat="47.958603" lon="11.107625">
<ele>514.133</ele>
<time>2022-05-27T09:15:15Z</time>
</trkpt>
<trkpt lat="47.958576" lon="11.107565">
<ele>514.133</ele>
<time>2022-05-27T09:15:16Z</time>
</trkpt>
<trkpt lat="47.958546" lon="11.107508">
<ele>514.133</ele>
<time>2022-05-27T09:15:17Z</time>
</trkpt>
<trkpt lat="47.958519" lon="11.107451">
<ele>514.133</ele>
<time>2022-05-27T09:15:18Z</time>
</trkpt>
<trkpt lat="47.958492" lon="11.107397">
<ele>514.133</ele>
<time>2022-05-27T09:15:19Z</time>
</trkpt>
<trkpt lat="47.958462" lon="11.107345">
<ele>514.133</ele>
<time>2022-05-27T09:15:20Z</time>
</trkpt>
<trkpt lat="47.958431" lon="11.107298">
<ele>514.133</ele>
<time>2022-05-27T09:15:21Z</time>
</trkpt>
<trkpt lat="47.958397" lon="11.107259">
<ele>514.133</ele>
<time>2022-05-27T09:15:22Z</time>
</trkpt>
<trkpt lat="47.958363" lon="11.107224">
<ele>514.378</ele>
<time>2022-05-27T09:15:23Z</time>
</trkpt>
<trkpt lat="47.958321" lon="11.107191">
<ele>514.574</ele>
<time>2022-05-27T09:15:24Z</time>
</trkpt>
<trkpt lat="47.958279" lon="11.107157">
<ele>514.73</ele>
<time>2022-05-27T09:15:25Z</time>
</trkpt>
<trkpt lat="47.958248" lon="11.107117">
<ele>514.845</ele>
<time>2022-05-27T09:15:26Z</time>
</trkpt>
<trkpt lat="47.958218" lon="11.107079">
<ele>514.927</ele>
<time>2022-05-27T09:15:27Z</time>
</trkpt>
<trkpt lat="47.958183" lon="11.107045">
<ele>515.01</ele>
<time>2022-05-27T09:15:28Z</time>
</trkpt>
<trkpt lat="47.958145" lon="11.10701">
<ele>515.064</ele>
<time>2022-05-27T09:15:29Z</time>
</trkpt>
<trkpt lat="47.958103" lon="11.10698">
<ele>515.089</ele>
<time>2022-05-27T09:15:30Z</time>
</trkpt>
<trkpt lat="47.958065" lon="11.106944">
<ele>515.089</ele>
<time>2022-05-27T09:15:31Z</time>
</trkpt>
<trkpt lat="47.958027" lon="11.106904">
<ele>515.089</ele>
<time>2022-05-27T09:15:32Z</time>
</trkpt>
<trkpt lat="47.957989" lon="11.106867">
<ele>515.089</ele>
<time>2022-05-27T09:15:33Z</time>
</trkpt>
<trkpt lat="47.957951" lon="11.106827">
<ele>515.089</ele>
<time>2022-05-27T09:15:34Z</time>
</trkpt>
<trkpt lat="47.957909" lon="11.106783">
<ele>515.089</ele>
<time>2022-05-27T09:15:35Z</time>
</trkpt>
<trkpt lat="47.95787" lon="11.106741">
<ele>515.089</ele>
<time>2022-05-27T09:15:36Z</time>
</trkpt>
<trkpt lat="47.957832" lon="11.106699">
<ele>515.089</ele>
<time>2022-05-27T09:15:37Z</time>
</trkpt>
<trkpt lat="47.95779" lon="11.106659">
<ele>515.089</ele>
<time>2022-05-27T09:15:38Z</time>
</trkpt>
<trkpt lat="47.957752" lon="11.106617">
<ele>515.089</ele>
<time>2022-05-27T09:15:39Z</time>
</trkpt>
<trkpt lat="47.957714" lon="11.106573">
<ele>515.089</ele>
<time>2022-05-27T09:15:40Z</time>
</trkpt>
<trkpt lat="47.95768" lon="11.106531">
<ele>515.089</ele>
<time>2022-05-27T09:15:41Z</time>
</trkpt>
<trkpt lat="47.957645" lon="11.10649">
<ele>515.089</ele>
<time>2022-05-27T09:15:42Z</time>
</trkpt>
<trkpt lat="47.957615" lon="11.106452">
<ele>515.089</ele>
<time>2022-05-27T09:15:43Z</time>
</trkpt>
<trkpt lat="47.957581" lon="11.106417">
<ele>515.089</ele>
<time>2022-05-27T09:15:44Z</time>
</trkpt>
<trkpt lat="47.957546" lon="11.106374">
<ele>515.089</ele>
<time>2022-05-27T09:15:45Z</time>
</trkpt>
<trkpt lat="47.957504" lon="11.106332">
<ele>515.089</ele>
<time>2022-05-27T09:15:46Z</time>
</trkpt>
<trkpt lat="47.95747" lon="11.106295">
<ele>515.089</ele>
<time>2022-05-27T09:15:47Z</time>
</trkpt>
<trkpt lat="47.957436" lon="11.106258">
<ele>515.089</ele>
<time>2022-05-27T09:15:48Z</time>
</trkpt>
<trkpt lat="47.957401" lon="11.106221">
<ele>515.089</ele>
<time>2022-05-27T09:15:49Z</time>
</trkpt>
<trkpt lat="47.957355" lon="11.106188">
<ele>515.089</ele>
<time>2022-05-27T09:15:50Z</time>
</trkpt>
<trkpt lat="47.957321" lon="11.10616">
<ele>515.089</ele>
<time>2022-05-27T09:15:51Z</time>
</trkpt>
<trkpt lat="47.957279" lon="11.106123">
<ele>515.089</ele>
<time>2022-05-27T09:15:52Z</time>
</trkpt>
<trkpt lat="47.957241" lon="11.106083">
<ele>515.089</ele>
<time>2022-05-27T09:15:53Z</time>
</trkpt>
<trkpt lat="47.957207" lon="11.106043">
<ele>515.089</ele>
<time>2022-05-27T09:15:54Z</time>
</trkpt>
<trkpt lat="47.957169" lon="11.106004">
<ele>515.089</ele>
<time>2022-05-27T09:15:55Z</time>
</trkpt>
<trkpt lat="47.95713" lon="11.105964">
<ele>515.089</ele>
<time>2022-05-27T09:15:56Z</time>
</trkpt>
<trkpt lat="47.957096" lon="11.105928">
<ele>515.089</ele>
<time>2022-05-27T09:15:57Z</time>
</trkpt>
<trkpt lat="47.957062" lon="11.105892">
<ele>515.089</ele>
<time>2022-05-27T09:15:58Z</time>
</trkpt>
<trkpt lat="47.957031" lon="11.10585">
<ele>515.089</ele>
<time>2022-05-27T09:15:59Z</time>
</trkpt>
<trkpt lat="47.957001" lon="11.10581">
<ele>515.089</ele>
<time>2022-05-27T09:16:00Z</time>
</trkpt>
<trkpt lat="47.956966" lon="11.105768">
<ele>515.089</ele>
<time>2022-05-27T09:16:01Z</time>
</trkpt>
<trkpt lat="47.956932" lon="11.105727">
<ele>515.089</ele>
<time>2022-05-27T09:16:02Z</time>
</trkpt>
<trkpt lat="47.956894" lon="11.105687">
<ele>515.089</ele>
<time>2022-05-27T09:16:03Z</time>
</trkpt>
<trkpt lat="47.956856" lon="11.105641">
<ele>515.089</ele>
<time>2022-05-27T09:16:04Z</time>
</trkpt>
<trkpt lat="47.956818" lon="11.105597">
<ele>515.089</ele>
<time>2022-05-27T09:16:05Z</time>
</trkpt>
<trkpt lat="47.956783" lon="11.105552">
<ele>515.089</ele>
<time>2022-05-27T09:16:06Z</time>
</trkpt>
<trkpt lat="47.956749" lon="11.105512">
<ele>515.089</ele>
<time>2022-05-27T09:16:07Z</time>
</trkpt>
<trkpt lat="47.956715" lon="11.105474">
<ele>515.089</ele>
<time>2022-05-27T09:16:08Z</time>
</trkpt>
<trkpt lat="47.956673" lon="11.105436">
<ele>515.089</ele>
<time>2022-05-27T09:16:09Z</time>
</trkpt>
<trkpt lat="47.956638" lon="11.1054">
<ele>515.089</ele>
<time>2022-05-27T09:16:10Z</time>
</trkpt>
<trkpt lat="47.956604" lon="11.105362">
<ele>515.089</ele>
<time>2022-05-27T09:16:11Z</time>
</trkpt>
<trkpt lat="47.956566" lon="11.10532">
<ele>515.089</ele>
<time>2022-05-27T09:16:12Z</time>
</trkpt>
<trkpt lat="47.956532" lon="11.105283">
<ele>515.089</ele>
<time>2022-05-27T09:16:13Z</time>
</trkpt>
<trkpt lat="47.956501" lon="11.105245">
<ele>515.089</ele>
<time>2022-05-27T09:16:14Z</time>
</trkpt>
<trkpt lat="47.956467" lon="11.105208">
<ele>515.089</ele>
<time>2022-05-27T09:16:15Z</time>
</trkpt>
<trkpt lat="47.956436" lon="11.105173">
<ele>515.089</ele>
<time>2022-05-27T09:16:16Z</time>
</trkpt>
<trkpt lat="47.956402" lon="11.105136">
<ele>515.089</ele>
<time>2022-05-27T09:16:17Z</time>
</trkpt>
<trkpt lat="47.956367" lon="11.105099">
<ele>515.089</ele>
<time>2022-05-27T09:16:18Z</time>
</trkpt>
<trkpt lat="47.956337" lon="11.105068">
<ele>515.089</ele>
<time>2022-05-27T09:16:19Z</time>
</trkpt>
<trkpt lat="47.956303" lon="11.105035">
<ele>515.089</ele>
<time>2022-05-27T09:16:20Z</time>
</trkpt>
<trkpt lat="47.956268" lon="11.105003">
<ele>515.089</ele>
<time>2022-05-27T09:16:21Z</time>
</trkpt>
<trkpt lat="47.956238" lon="11.104968">
<ele>515.089</ele>
<time>2022-05-27T09:16:22Z</time>
</trkpt>
<trkpt lat="47.956211" lon="11.104943">
<ele>515.089</ele>
<time>2022-05-27T09:16:23Z</time>
</trkpt>
<trkpt lat="47.956181" lon="11.104923">
<ele>515.089</ele>
<time>2022-05-27T09:16:24Z</time>
</trkpt>
<trkpt lat="47.956146" lon="11.104901">
<ele>515.089</ele>
<time>2022-05-27T09:16:25Z</time>
</trkpt>
<trkpt lat="47.956108" lon="11.104887">
<ele>515.294</ele>
<time>2022-05-27T09:16:26Z</time>
</trkpt>
<trkpt lat="47.956078" lon="11.104875">
<ele>515.445</ele>
<time>2022-05-27T09:16:27Z</time>
</trkpt>
<trkpt lat="47.956039" lon="11.104856">
<ele>515.598</ele>
<time>2022-05-27T09:16:28Z</time>
</trkpt>
<trkpt lat="47.956005" lon="11.104825">
<ele>515.725</ele>
<time>2022-05-27T09:16:29Z</time>
</trkpt>
<trkpt lat="47.955967" lon="11.104803">
<ele>515.827</ele>
<time>2022-05-27T09:16:30Z</time>
</trkpt>
<trkpt lat="47.955925" lon="11.104782">
<ele>515.899</ele>
<time>2022-05-27T09:16:31Z</time>
</trkpt>
<trkpt lat="47.955887" lon="11.104754">
<ele>515.94</ele>
<time>2022-05-27T09:16:32Z</time>
</trkpt>
<trkpt lat="47.955853" lon="11.10473">
<ele>515.959</ele>
<time>2022-05-27T09:16:33Z</time>
</trkpt>
<trkpt lat="47.955818" lon="11.104711">
<ele>515.959</ele>
<time>2022-05-27T09:16:34Z</time>
</trkpt>
<trkpt lat="47.955784" lon="11.104688">
<ele>515.959</ele>
<time>2022-05-27T09:16:35Z</time>
</trkpt>
<trkpt lat="47.955757" lon="11.104663">
<ele>515.959</ele>
<time>2022-05-27T09:16:36Z</time>
</trkpt>
<trkpt lat="47.955727" lon="11.104637">
<ele>516.202</ele>
<time>2022-05-27T09:16:37Z</time>
</trkpt>
<trkpt lat="47.955692" lon="11.104613">
<ele>516.428</ele>
<time>2022-05-27T09:16:38Z</time>
</trkpt>
<trkpt lat="47.955662" lon="11.104591">
<ele>516.618</ele>
<time>2022-05-27T09:16:39Z</time>
</trkpt>
<trkpt lat="47.955624" lon="11.10457">
<ele>516.782</ele>
<time>2022-05-27T09:16:40Z</time>
</trkpt>
<trkpt lat="47.955585" lon="11.104555">
<ele>516.89</ele>
<time>2022-05-27T09:16:41Z</time>
</trkpt>
<trkpt lat="47.95554" lon="11.104545">
<ele>517.259</ele>
<time>2022-05-27T09:16:42Z</time>
</trkpt>
<trkpt lat="47.955498" lon="11.10454">
<ele>517.542</ele>
<time>2022-05-27T09:16:43Z</time>
</trkpt>
<trkpt lat="47.95546" lon="11.104535">
<ele>517.756</ele>
<time>2022-05-27T09:16:44Z</time>
</trkpt>
<trkpt lat="47.955418" lon="11.104532">
<ele>517.873</ele>
<time>2022-05-27T09:16:45Z</time>
</trkpt>
<trkpt lat="47.955368" lon="11.10453">
<ele>518.215</ele>
<time>2022-05-27T09:16:46Z</time>
</trkpt>
<trkpt lat="47.955322" lon="11.104532">
<ele>518.454</ele>
<time>2022-05-27T09:16:47Z</time>
</trkpt>
<trkpt lat="47.955269" lon="11.10453">
<ele>518.678</ele>
<time>2022-05-27T09:16:48Z</time>
</trkpt>
<trkpt lat="47.955223" lon="11.104528">
<ele>518.846</ele>
<time>2022-05-27T09:16:49Z</time>
</trkpt>
<trkpt lat="47.95517" lon="11.104532">
<ele>518.947</ele>
<time>2022-05-27T09:16:50Z</time>
</trkpt>
<trkpt lat="47.95512" lon="11.104537">
<ele>519.021</ele>
<time>2022-05-27T09:16:51Z</time>
</trkpt>
<trkpt lat="47.95507" lon="11.104539">
<ele>519.056</ele>
<time>2022-05-27T09:16:52Z</time>
</trkpt>
<trkpt lat="47.955017" lon="11.104542">
<ele>518.8</ele>
<time>2022-05-27T09:16:53Z</time>
</trkpt>
<trkpt lat="47.954967" lon="11.104545">
<ele>518.593</ele>
<time>2022-05-27T09:16:54Z</time>
</trkpt>
<trkpt lat="47.954914" lon="11.104553">
<ele>518.428</ele>
<time>2022-05-27T09:16:55Z</time>
</trkpt>
<trkpt lat="47.954865" lon="11.104562">
<ele>518.301</ele>
<time>2022-05-27T09:16:56Z</time>
</trkpt>
<trkpt lat="47.954811" lon="11.104568">
<ele>518.216</ele>
<time>2022-05-27T09:16:57Z</time>
</trkpt>
<trkpt lat="47.954758" lon="11.104577">
<ele>517.829</ele>
<time>2022-05-27T09:16:58Z</time>
</trkpt>
<trkpt lat="47.954704" lon="11.104591">
<ele>517.523</ele>
<time>2022-05-27T09:16:59Z</time>
</trkpt>
<trkpt lat="47.954655" lon="11.104616">
<ele>517.294</ele>
<time>2022-05-27T09:17:00Z</time>
</trkpt>
<trkpt lat="47.954605" lon="11.104647">
<ele>517.13</ele>
<time>2022-05-27T09:17:01Z</time>
</trkpt>
<trkpt lat="47.954559" lon="11.104673">
<ele>517.005</ele>
<time>2022-05-27T09:17:02Z</time>
</trkpt>
<trkpt lat="47.954517" lon="11.104696">
<ele>516.913</ele>
<time>2022-05-27T09:17:03Z</time>
</trkpt>
<trkpt lat="47.954472" lon="11.104717">
<ele>516.856</ele>
<time>2022-05-27T09:17:04Z</time>
</trkpt>
<trkpt lat="47.954418" lon="11.104736">
<ele>516.828</ele>
<time>2022-05-27T09:17:05Z</time>
</trkpt>
<trkpt lat="47.954372" lon="11.104758">
<ele>516.579</ele>
<time>2022-05-27T09:17:06Z</time>
</trkpt>
<trkpt lat="47.954327" lon="11.10478">
<ele>516.398</ele>
<time>2022-05-27T09:17:07Z</time>
</trkpt>
<trkpt lat="47.954288" lon="11.104807">
<ele>516.213</ele>
<time>2022-05-27T09:17:08Z</time>
</trkpt>
<trkpt lat="47.954243" lon="11.104835">
<ele>516.063</ele>
<time>2022-05-27T09:17:09Z</time>
</trkpt>
<trkpt lat="47.954201" lon="11.104872">
<ele>515.941</ele>
<time>2022-05-27T09:17:10Z</time>
</trkpt>
<trkpt lat="47.954155" lon="11.104905">
<ele>515.86</ele>
<time>2022-05-27T09:17:11Z</time>
</trkpt>
<trkpt lat="47.954117" lon="11.104932">
<ele>515.811</ele>
<time>2022-05-27T09:17:12Z</time>
</trkpt>
<trkpt lat="47.954075" lon="11.104956">
<ele>515.785</ele>
<time>2022-05-27T09:17:13Z</time>
</trkpt>
<trkpt lat="47.954029" lon="11.10498">
<ele>515.785</ele>
<time>2022-05-27T09:17:14Z</time>
</trkpt>
<trkpt lat="47.953987" lon="11.10501">
<ele>515.785</ele>
<time>2022-05-27T09:17:15Z</time>
</trkpt>
<trkpt lat="47.953945" lon="11.105033">
<ele>515.785</ele>
<time>2022-05-27T09:17:16Z</time>
</trkpt>
<trkpt lat="47.953911" lon="11.105061">
<ele>515.785</ele>
<time>2022-05-27T09:17:17Z</time>
</trkpt>
<trkpt lat="47.953869" lon="11.105088">
<ele>515.785</ele>
<time>2022-05-27T09:17:18Z</time>
</trkpt>
<trkpt lat="47.953831" lon="11.105119">
<ele>515.785</ele>
<time>2022-05-27T09:17:19Z</time>
</trkpt>
<trkpt lat="47.953793" lon="11.105146">
<ele>515.785</ele>
<time>2022-05-27T09:17:20Z</time>
</trkpt>
<trkpt lat="47.953758" lon="11.105175">
<ele>515.785</ele>
<time>2022-05-27T09:17:21Z</time>
</trkpt>
<trkpt lat="47.95372" lon="11.105195">
<ele>515.785</ele>
<time>2022-05-27T09:17:22Z</time>
</trkpt>
<trkpt lat="47.953686" lon="11.105218">
<ele>515.785</ele>
<time>2022-05-27T09:17:23Z</time>
</trkpt>
<trkpt lat="47.953651" lon="11.105243">
<ele>515.785</ele>
<time>2022-05-27T09:17:24Z</time>
</trkpt>
<trkpt lat="47.953621" lon="11.105272">
<ele>515.785</ele>
<time>2022-05-27T09:17:25Z</time>
</trkpt>
<trkpt lat="47.953579" lon="11.105302">
<ele>515.785</ele>
<time>2022-05-27T09:17:26Z</time>
</trkpt>
<trkpt lat="47.953541" lon="11.105337">
<ele>515.785</ele>
<time>2022-05-27T09:17:27Z</time>
</trkpt>
<trkpt lat="47.953503" lon="11.105371">
<ele>515.785</ele>
<time>2022-05-27T09:17:28Z</time>
</trkpt>
<trkpt lat="47.953453" lon="11.105409">
<ele>515.785</ele>
<time>2022-05-27T09:17:29Z</time>
</trkpt>
<trkpt lat="47.953411" lon="11.105449">
<ele>515.785</ele>
<time>2022-05-27T09:17:30Z</time>
</trkpt>
<trkpt lat="47.953369" lon="11.105486">
<ele>515.785</ele>
<time>2022-05-27T09:17:31Z</time>
</trkpt>
<trkpt lat="47.953327" lon="11.105528">
<ele>515.785</ele>
<time>2022-05-27T09:17:32Z</time>
</trkpt>
<trkpt lat="47.953285" lon="11.105568">
<ele>515.785</ele>
<time>2022-05-27T09:17:33Z</time>
</trkpt>
<trkpt lat="47.953247" lon="11.105608">
<ele>515.785</ele>
<time>2022-05-27T09:17:34Z</time>
</trkpt>
<trkpt lat="47.953213" lon="11.10565">
<ele>515.785</ele>
<time>2022-05-27T09:17:35Z</time>
</trkpt>
<trkpt lat="47.953167" lon="11.105695">
<ele>515.785</ele>
<time>2022-05-27T09:17:36Z</time>
</trkpt>
<trkpt lat="47.953125" lon="11.105742">
<ele>515.785</ele>
<time>2022-05-27T09:17:37Z</time>
</trkpt>
<trkpt lat="47.953083" lon="11.105788">
<ele>515.785</ele>
<time>2022-05-27T09:17:38Z</time>
</trkpt>
<trkpt lat="47.953045" lon="11.105835">
<ele>515.785</ele>
<time>2022-05-27T09:17:39Z</time>
</trkpt>
<trkpt lat="47.953007" lon="11.105875">
<ele>515.785</ele>
<time>2022-05-27T09:17:40Z</time>
</trkpt>
<trkpt lat="47.952972" lon="11.105913">
<ele>515.785</ele>
<time>2022-05-27T09:17:41Z</time>
</trkpt>
<trkpt lat="47.952938" lon="11.10595">
<ele>515.785</ele>
<time>2022-05-27T09:17:42Z</time>
</trkpt>
<trkpt lat="47.952911" lon="11.10598">
<ele>515.785</ele>
<time>2022-05-27T09:17:43Z</time>
</trkpt>
<trkpt lat="47.952888" lon="11.106015">
<ele>515.785</ele>
<time>2022-05-27T09:17:44Z</time>
</trkpt>
<trkpt lat="47.952858" lon="11.106048">
<ele>515.567</ele>
<time>2022-05-27T09:17:45Z</time>
</trkpt>
<trkpt lat="47.952827" lon="11.10608">
<ele>515.387</ele>
<time>2022-05-27T09:17:46Z</time>
</trkpt>
<trkpt lat="47.952797" lon="11.106114">
<ele>515.254</ele>
<time>2022-05-27T09:17:47Z</time>
</trkpt>
<trkpt lat="47.952759" lon="11.106153">
<ele>515.104</ele>
<time>2022-05-27T09:17:48Z</time>
</trkpt>
<trkpt lat="47.952724" lon="11.106194">
<ele>514.989</ele>
<time>2022-05-27T09:17:49Z</time>
</trkpt>
<trkpt lat="47.95269" lon="11.10623">
<ele>514.904</ele>
<time>2022-05-27T09:17:50Z</time>
</trkpt>
<trkpt lat="47.952667" lon="11.106265">
<ele>514.85</ele>
<time>2022-05-27T09:17:51Z</time>
</trkpt>
<trkpt lat="47.952633" lon="11.106298">
<ele>514.829</ele>
<time>2022-05-27T09:17:52Z</time>
</trkpt>
<trkpt lat="47.952599" lon="11.106334">
<ele>514.829</ele>
<time>2022-05-27T09:17:53Z</time>
</trkpt>
<trkpt lat="47.952557" lon="11.106359">
<ele>514.829</ele>
<time>2022-05-27T09:17:54Z</time>
</trkpt>
<trkpt lat="47.952522" lon="11.106395">
<ele>514.829</ele>
<time>2022-05-27T09:17:55Z</time>
</trkpt>
<trkpt lat="47.952488" lon="11.10643">
<ele>514.829</ele>
<time>2022-05-27T09:17:56Z</time>
</trkpt>
<trkpt lat="47.952457" lon="11.106468">
<ele>514.829</ele>
<time>2022-05-27T09:17:57Z</time>
</trkpt>
<trkpt lat="47.952431" lon="11.106498">
<ele>514.829</ele>
<time>2022-05-27T09:17:58Z</time>
</trkpt>
<trkpt lat="47.952393" lon="11.106525">
<ele>514.829</ele>
<time>2022-05-27T09:17:59Z</time>
</trkpt>
<trkpt lat="47.952354" lon="11.106557">
<ele>514.829</ele>
<time>2022-05-27T09:18:00Z</time>
</trkpt>
<trkpt lat="47.952312" lon="11.106586">
<ele>514.829</ele>
<time>2022-05-27T09:18:01Z</time>
</trkpt>
<trkpt lat="47.952274" lon="11.10662">
<ele>514.829</ele>
<time>2022-05-27T09:18:02Z</time>
</trkpt>
<trkpt lat="47.952236" lon="11.106655">
<ele>514.829</ele>
<time>2022-05-27T09:18:03Z</time>
</trkpt>
<trkpt lat="47.952198" lon="11.106695">
<ele>514.829</ele>
<time>2022-05-27T09:18:04Z</time>
</trkpt>
<trkpt lat="47.952156" lon="11.106733">
<ele>514.829</ele>
<time>2022-05-27T09:18:05Z</time>
</trkpt>
<trkpt lat="47.952114" lon="11.106771">
<ele>514.829</ele>
<time>2022-05-27T09:18:06Z</time>
</trkpt>
<trkpt lat="47.952072" lon="11.106808">
<ele>514.829</ele>
<time>2022-05-27T09:18:07Z</time>
</trkpt>
<trkpt lat="47.952038" lon="11.106843">
<ele>514.829</ele>
<time>2022-05-27T09:18:08Z</time>
</trkpt>
<trkpt lat="47.952" lon="11.106875">
<ele>514.829</ele>
<time>2022-05-27T09:18:09Z</time>
</trkpt>
<trkpt lat="47.951962" lon="11.106909">
<ele>514.829</ele>
<time>2022-05-27T09:18:10Z</time>
</trkpt>
<trkpt lat="47.95192" lon="11.106944">
<ele>514.829</ele>
<time>2022-05-27T09:18:11Z</time>
</trkpt>
<trkpt lat="47.951878" lon="11.10697">
<ele>514.829</ele>
<time>2022-05-27T09:18:12Z</time>
</trkpt>
<trkpt lat="47.951843" lon="11.107003">
<ele>514.829</ele>
<time>2022-05-27T09:18:13Z</time>
</trkpt>
<trkpt lat="47.951801" lon="11.107037">
<ele>514.829</ele>
<time>2022-05-27T09:18:14Z</time>
</trkpt>
<trkpt lat="47.951759" lon="11.107074">
<ele>514.829</ele>
<time>2022-05-27T09:18:15Z</time>
</trkpt>
<trkpt lat="47.951721" lon="11.10711">
<ele>514.829</ele>
<time>2022-05-27T09:18:16Z</time>
</trkpt>
<trkpt lat="47.951683" lon="11.107141">
<ele>514.829</ele>
<time>2022-05-27T09:18:17Z</time>
</trkpt>
<trkpt lat="47.951649" lon="11.107177">
<ele>514.829</ele>
<time>2022-05-27T09:18:18Z</time>
</trkpt>
<trkpt lat="47.951614" lon="11.107212">
<ele>514.829</ele>
<time>2022-05-27T09:18:19Z</time>
</trkpt>
<trkpt lat="47.951576" lon="11.10725">
<ele>514.829</ele>
<time>2022-05-27T09:18:20Z</time>
</trkpt>
<trkpt lat="47.951546" lon="11.10728">
<ele>514.829</ele>
<time>2022-05-27T09:18:21Z</time>
</trkpt>
<trkpt lat="47.951515" lon="11.10731">
<ele>514.829</ele>
<time>2022-05-27T09:18:22Z</time>
</trkpt>
<trkpt lat="47.951485" lon="11.107345">
<ele>514.829</ele>
<time>2022-05-27T09:18:23Z</time>
</trkpt>
<trkpt lat="47.951454" lon="11.107376">
<ele>514.829</ele>
<time>2022-05-27T09:18:24Z</time>
</trkpt>
<trkpt lat="47.95142" lon="11.107407">
<ele>514.829</ele>
<time>2022-05-27T09:18:25Z</time>
</trkpt>
<trkpt lat="47.951389" lon="11.107432">
<ele>514.829</ele>
<time>2022-05-27T09:18:26Z</time>
</trkpt>
<trkpt lat="47.951351" lon="11.107457">
<ele>514.829</ele>
<time>2022-05-27T09:18:27Z</time>
</trkpt>
<trkpt lat="47.951313" lon="11.107483">
<ele>514.829</ele>
<time>2022-05-27T09:18:28Z</time>
</trkpt>
<trkpt lat="47.951275" lon="11.107512">
<ele>514.829</ele>
<time>2022-05-27T09:18:29Z</time>
</trkpt>
<trkpt lat="47.951241" lon="11.107543">
<ele>514.829</ele>
<time>2022-05-27T09:18:30Z</time>
</trkpt>
<trkpt lat="47.951214" lon="11.107574">
<ele>514.829</ele>
<time>2022-05-27T09:18:31Z</time>
</trkpt>
<trkpt lat="47.951187" lon="11.107604">
<ele>514.829</ele>
<time>2022-05-27T09:18:32Z</time>
</trkpt>
<trkpt lat="47.95116" lon="11.10764">
<ele>514.829</ele>
<time>2022-05-27T09:18:33Z</time>
</trkpt>
<trkpt lat="47.951138" lon="11.10767">
<ele>514.829</ele>
<time>2022-05-27T09:18:34Z</time>
</trkpt>
<trkpt lat="47.951115" lon="11.107692">
<ele>514.829</ele>
<time>2022-05-27T09:18:35Z</time>
</trkpt>
<trkpt lat="47.951096" lon="11.107718">
<ele>514.829</ele>
<time>2022-05-27T09:18:36Z</time>
</trkpt>
<trkpt lat="47.951077" lon="11.107746">
<ele>514.829</ele>
<time>2022-05-27T09:18:37Z</time>
</trkpt>
<trkpt lat="47.951054" lon="11.107777">
<ele>514.829</ele>
<time>2022-05-27T09:18:38Z</time>
</trkpt>
<trkpt lat="47.951031" lon="11.107805">
<ele>514.829</ele>
<time>2022-05-27T09:18:39Z</time>
</trkpt>
<trkpt lat="47.951004" lon="11.107837">
<ele>514.829</ele>
<time>2022-05-27T09:18:40Z</time>
</trkpt>
<trkpt lat="47.950981" lon="11.107863">
<ele>514.829</ele>
<time>2022-05-27T09:18:41Z</time>
</trkpt>
<trkpt lat="47.950958" lon="11.107888">
<ele>514.829</ele>
<time>2022-05-27T09:18:42Z</time>
</trkpt>
<trkpt lat="47.950935" lon="11.107917">
<ele>514.829</ele>
<time>2022-05-27T09:18:43Z</time>
</trkpt>
<trkpt lat="47.95092" lon="11.107945">
<ele>514.829</ele>
<time>2022-05-27T09:18:44Z</time>
</trkpt>
<trkpt lat="47.950897" lon="11.107965">
<ele>514.829</ele>
<time>2022-05-27T09:18:45Z</time>
</trkpt>
<trkpt lat="47.950886" lon="11.10798">
<ele>514.829</ele>
<time>2022-05-27T09:18:46Z</time>
</trkpt>
<trkpt lat="47.950867" lon="11.108005">
<ele>514.829</ele>
<time>2022-05-27T09:18:47Z</time>
</trkpt>
<trkpt lat="47.950832" lon="11.108029">
<ele>514.829</ele>
<time>2022-05-27T09:18:48Z</time>
</trkpt>
<trkpt lat="47.950802" lon="11.108059">
<ele>514.829</ele>
<time>2022-05-27T09:18:49Z</time>
</trkpt>
<trkpt lat="47.950779" lon="11.108086">
<ele>514.829</ele>
<time>2022-05-27T09:18:50Z</time>
</trkpt>
<trkpt lat="47.95076" lon="11.108109">
<ele>514.829</ele>
<time>2022-05-27T09:18:51Z</time>
</trkpt>
<trkpt lat="47.950733" lon="11.10813">
<ele>514.829</ele>
<time>2022-05-27T09:18:52Z</time>
</trkpt>
<trkpt lat="47.950703" lon="11.108143">
<ele>514.829</ele>
<time>2022-05-27T09:18:53Z</time>
</trkpt>
<trkpt lat="47.950676" lon="11.108159">
<ele>514.829</ele>
<time>2022-05-27T09:18:54Z</time>
</trkpt>
<trkpt lat="47.950657" lon="11.10818">
<ele>514.829</ele>
<time>2022-05-27T09:18:55Z</time>
</trkpt>
<trkpt lat="47.950638" lon="11.108207">
<ele>514.829</ele>
<time>2022-05-27T09:18:56Z</time>
</trkpt>
<trkpt lat="47.950615" lon="11.108229">
<ele>514.829</ele>
<time>2022-05-27T09:18:57Z</time>
</trkpt>
<trkpt lat="47.950596" lon="11.108256">
<ele>514.829</ele>
<time>2022-05-27T09:18:58Z</time>
</trkpt>
<trkpt lat="47.950573" lon="11.108274">
<ele>514.829</ele>
<time>2022-05-27T09:18:59Z</time>
</trkpt>
<trkpt lat="47.950535" lon="11.10829">
<ele>514.829</ele>
<time>2022-05-27T09:19:00Z</time>
</trkpt>
<trkpt lat="47.950508" lon="11.108306">
<ele>514.829</ele>
<time>2022-05-27T09:19:01Z</time>
</trkpt>
<trkpt lat="47.950478" lon="11.108323">
<ele>514.829</ele>
<time>2022-05-27T09:19:02Z</time>
</trkpt>
<trkpt lat="47.950451" lon="11.108341">
<ele>514.829</ele>
<time>2022-05-27T09:19:03Z</time>
</trkpt>
<trkpt lat="47.950436" lon="11.108365">
<ele>514.829</ele>
<time>2022-05-27T09:19:04Z</time>
</trkpt>
<trkpt lat="47.950397" lon="11.108379">
<ele>514.829</ele>
<time>2022-05-27T09:19:05Z</time>
</trkpt>
<trkpt lat="47.950367" lon="11.108392">
<ele>514.829</ele>
<time>2022-05-27T09:19:06Z</time>
</trkpt>
<trkpt lat="47.950344" lon="11.108415">
<ele>514.829</ele>
<time>2022-05-27T09:19:07Z</time>
</trkpt>
<trkpt lat="47.950314" lon="11.10843">
<ele>514.829</ele>
<time>2022-05-27T09:19:08Z</time>
</trkpt>
<trkpt lat="47.950302" lon="11.108442">
<ele>514.829</ele>
<time>2022-05-27T09:19:09Z</time>
</trkpt>
<trkpt lat="47.950268" lon="11.10845">
<ele>514.829</ele>
<time>2022-05-27T09:19:10Z</time>
</trkpt>
<trkpt lat="47.950245" lon="11.108467">
<ele>514.829</ele>
<time>2022-05-27T09:19:11Z</time>
</trkpt>
<trkpt lat="47.950222" lon="11.108492">
<ele>514.829</ele>
<time>2022-05-27T09:19:12Z</time>
</trkpt>
<trkpt lat="47.950203" lon="11.108518">
<ele>514.829</ele>
<time>2022-05-27T09:19:13Z</time>
</trkpt>
<trkpt lat="47.950176" lon="11.108546">
<ele>514.829</ele>
<time>2022-05-27T09:19:14Z</time>
</trkpt>
<trkpt lat="47.950153" lon="11.108568">
<ele>514.829</ele>
<time>2022-05-27T09:19:15Z</time>
</trkpt>
<trkpt lat="47.950134" lon="11.108584">
<ele>514.829</ele>
<time>2022-05-27T09:19:16Z</time>
</trkpt>
<trkpt lat="47.950115" lon="11.10861">
<ele>514.829</ele>
<time>2022-05-27T09:19:17Z</time>
</trkpt>
<trkpt lat="47.950096" lon="11.108639">
<ele>514.829</ele>
<time>2022-05-27T09:19:18Z</time>
</trkpt>
<trkpt lat="47.950077" lon="11.108666">
<ele>514.829</ele>
<time>2022-05-27T09:19:19Z</time>
</trkpt>
<trkpt lat="47.950054" lon="11.108695">
<ele>514.829</ele>
<time>2022-05-27T09:19:20Z</time>
</trkpt>
<trkpt lat="47.950031" lon="11.108715">
<ele>514.829</ele>
<time>2022-05-27T09:19:21Z</time>
</trkpt>
<trkpt lat="47.950005" lon="11.108728">
<ele>514.829</ele>
<time>2022-05-27T09:19:22Z</time>
</trkpt>
<trkpt lat="47.94997" lon="11.108755">
<ele>514.829</ele>
<time>2022-05-27T09:19:23Z</time>
</trkpt>
<trkpt lat="47.94994" lon="11.108782">
<ele>514.829</ele>
<time>2022-05-27T09:19:24Z</time>
</trkpt>
<trkpt lat="47.949913" lon="11.108815">
<ele>514.829</ele>
<time>2022-05-27T09:19:25Z</time>
</trkpt>
<trkpt lat="47.94989" lon="11.108847">
<ele>514.829</ele>
<time>2022-05-27T09:19:26Z</time>
</trkpt>
<trkpt lat="47.949863" lon="11.108868">
<ele>514.829</ele>
<time>2022-05-27T09:19:27Z</time>
</trkpt>
<trkpt lat="47.949837" lon="11.108882">
<ele>514.829</ele>
<time>2022-05-27T09:19:28Z</time>
</trkpt>
<trkpt lat="47.949818" lon="11.108894">
<ele>514.829</ele>
<time>2022-05-27T09:19:29Z</time>
</trkpt>
<trkpt lat="47.949791" lon="11.108912">
<ele>514.829</ele>
<time>2022-05-27T09:19:30Z</time>
</trkpt>
<trkpt lat="47.94976" lon="11.10893">
<ele>514.829</ele>
<time>2022-05-27T09:19:31Z</time>
</trkpt>
<trkpt lat="47.949738" lon="11.108945">
<ele>514.829</ele>
<time>2022-05-27T09:19:32Z</time>
</trkpt>
<trkpt lat="47.949718" lon="11.108964">
<ele>514.829</ele>
<time>2022-05-27T09:19:33Z</time>
</trkpt>
<trkpt lat="47.949692" lon="11.108982">
<ele>514.829</ele>
<time>2022-05-27T09:19:34Z</time>
</trkpt>
<trkpt lat="47.949669" lon="11.108994">
<ele>514.829</ele>
<time>2022-05-27T09:19:35Z</time>
</trkpt>
<trkpt lat="47.949642" lon="11.108998">
<ele>514.829</ele>
<time>2022-05-27T09:19:36Z</time>
</trkpt>
<trkpt lat="47.949619" lon="11.108997">
<ele>514.829</ele>
<time>2022-05-27T09:19:37Z</time>
</trkpt>
<trkpt lat="47.949593" lon="11.108991">
<ele>514.829</ele>
<time>2022-05-27T09:19:38Z</time>
</trkpt>
<trkpt lat="47.949562" lon="11.108983">
<ele>514.829</ele>
<time>2022-05-27T09:19:39Z</time>
</trkpt>
<trkpt lat="47.949535" lon="11.108974">
<ele>514.829</ele>
<time>2022-05-27T09:19:40Z</time>
</trkpt>
<trkpt lat="47.949524" lon="11.108955">
<ele>514.829</ele>
<time>2022-05-27T09:19:41Z</time>
</trkpt>
<trkpt lat="47.949505" lon="11.108929">
<ele>514.575</ele>
<time>2022-05-27T09:19:42Z</time>
</trkpt>
<trkpt lat="47.949493" lon="11.108901">
<ele>514.377</ele>
<time>2022-05-27T09:19:43Z</time>
</trkpt>
<trkpt lat="47.949474" lon="11.108873">
<ele>514.22</ele>
<time>2022-05-27T09:19:44Z</time>
</trkpt>
<trkpt lat="47.949455" lon="11.108844">
<ele>514.106</ele>
<time>2022-05-27T09:19:45Z</time>
</trkpt>
<trkpt lat="47.949432" lon="11.108828">
<ele>514.026</ele>
<time>2022-05-27T09:19:46Z</time>
</trkpt>
<trkpt lat="47.949413" lon="11.108809">
<ele>513.961</ele>
<time>2022-05-27T09:19:47Z</time>
</trkpt>
<trkpt lat="47.949402" lon="11.108775">
<ele>513.901</ele>
<time>2022-05-27T09:19:48Z</time>
</trkpt>
<trkpt lat="47.949394" lon="11.108735">
<ele>513.873</ele>
<time>2022-05-27T09:19:49Z</time>
</trkpt>
<trkpt lat="47.949375" lon="11.108695">
<ele>513.873</ele>
<time>2022-05-27T09:19:50Z</time>
</trkpt>
<trkpt lat="47.949356" lon="11.108656">
<ele>513.873</ele>
<time>2022-05-27T09:19:51Z</time>
</trkpt>
<trkpt lat="47.949341" lon="11.10861">
<ele>514.149</ele>
<time>2022-05-27T09:19:52Z</time>
</trkpt>
<trkpt lat="47.949329" lon="11.108562">
<ele>514.363</ele>
<time>2022-05-27T09:19:53Z</time>
</trkpt>
<trkpt lat="47.949306" lon="11.108507">
<ele>514.523</ele>
<time>2022-05-27T09:19:54Z</time>
</trkpt>
<trkpt lat="47.949287" lon="11.108455">
<ele>514.634</ele>
<time>2022-05-27T09:19:55Z</time>
</trkpt>
<trkpt lat="47.949268" lon="11.108412">
<ele>514.709</ele>
<time>2022-05-27T09:19:56Z</time>
</trkpt>
<trkpt lat="47.949257" lon="11.108369">
<ele>514.757</ele>
<time>2022-05-27T09:19:57Z</time>
</trkpt>
<trkpt lat="47.949242" lon="11.108329">
<ele>514.805</ele>
<time>2022-05-27T09:19:58Z</time>
</trkpt>
<trkpt lat="47.949234" lon="11.108283">
<ele>514.829</ele>
<time>2022-05-27T09:19:59Z</time>
</trkpt>
<trkpt lat="47.949223" lon="11.108247">
<ele>514.829</ele>
<time>2022-05-27T09:20:00Z</time>
</trkpt>
<trkpt lat="47.949211" lon="11.108208">
<ele>514.829</ele>
<time>2022-05-27T09:20:01Z</time>
</trkpt>
<trkpt lat="47.949203" lon="11.108168">
<ele>514.829</ele>
<time>2022-05-27T09:20:02Z</time>
</trkpt>
<trkpt lat="47.9492" lon="11.108124">
<ele>514.829</ele>
<time>2022-05-27T09:20:03Z</time>
</trkpt>
<trkpt lat="47.949192" lon="11.108077">
<ele>514.829</ele>
<time>2022-05-27T09:20:04Z</time>
</trkpt>
<trkpt lat="47.949188" lon="11.108025">
<ele>514.829</ele>
<time>2022-05-27T09:20:05Z</time>
</trkpt>
<trkpt lat="47.949181" lon="11.107979">
<ele>514.829</ele>
<time>2022-05-27T09:20:06Z</time>
</trkpt>
<trkpt lat="47.949177" lon="11.107937">
<ele>514.829</ele>
<time>2022-05-27T09:20:07Z</time>
</trkpt>
<trkpt lat="47.949173" lon="11.107898">
<ele>514.829</ele>
<time>2022-05-27T09:20:08Z</time>
</trkpt>
<trkpt lat="47.949173" lon="11.107857">
<ele>514.829</ele>
<time>2022-05-27T09:20:09Z</time>
</trkpt>
<trkpt lat="47.949173" lon="11.107826">
<ele>514.829</ele>
<time>2022-05-27T09:20:10Z</time>
</trkpt>
<trkpt lat="47.949162" lon="11.107786">
<ele>514.829</ele>
<time>2022-05-27T09:20:11Z</time>
</trkpt>
<trkpt lat="47.949146" lon="11.107753">
<ele>514.829</ele>
<time>2022-05-27T09:20:12Z</time>
</trkpt>
<trkpt lat="47.949139" lon="11.107719">
<ele>514.829</ele>
<time>2022-05-27T09:20:13Z</time>
</trkpt>
<trkpt lat="47.949131" lon="11.10769">
<ele>514.829</ele>
<time>2022-05-27T09:20:14Z</time>
</trkpt>
<trkpt lat="47.949123" lon="11.10766">
<ele>514.829</ele>
<time>2022-05-27T09:20:15Z</time>
</trkpt>
<trkpt lat="47.949108" lon="11.107627">
<ele>514.829</ele>
<time>2022-05-27T09:20:16Z</time>
</trkpt>
<trkpt lat="47.949104" lon="11.107592">
<ele>514.829</ele>
<time>2022-05-27T09:20:17Z</time>
</trkpt>
<trkpt lat="47.949089" lon="11.10756">
<ele>514.829</ele>
<time>2022-05-27T09:20:18Z</time>
</trkpt>
<trkpt lat="47.949074" lon="11.107518">
<ele>514.829</ele>
<time>2022-05-27T09:20:19Z</time>
</trkpt>
<trkpt lat="47.949051" lon="11.107497">
<ele>514.829</ele>
<time>2022-05-27T09:20:20Z</time>
</trkpt>
<trkpt lat="47.949036" lon="11.107482">
<ele>514.829</ele>
<time>2022-05-27T09:20:21Z</time>
</trkpt>
<trkpt lat="47.949013" lon="11.10748">
<ele>514.829</ele>
<time>2022-05-27T09:20:22Z</time>
</trkpt>
<trkpt lat="47.948997" lon="11.107491">
<ele>514.829</ele>
<time>2022-05-27T09:20:23Z</time>
</trkpt>
<trkpt lat="47.948986" lon="11.10751">
<ele>514.829</ele>
<time>2022-05-27T09:20:24Z</time>
</trkpt>
<trkpt lat="47.948982" lon="11.107532">
<ele>514.829</ele>
<time>2022-05-27T09:20:25Z</time>
</trkpt>
<trkpt lat="47.948978" lon="11.107556">
<ele>514.829</ele>
<time>2022-05-27T09:20:26Z</time>
</trkpt>
<trkpt lat="47.948975" lon="11.107587">
<ele>514.829</ele>
<time>2022-05-27T09:20:27Z</time>
</trkpt>
<trkpt lat="47.948971" lon="11.107616">
<ele>514.829</ele>
<time>2022-05-27T09:20:28Z</time>
</trkpt>
<trkpt lat="47.948959" lon="11.107646">
<ele>514.829</ele>
<time>2022-05-27T09:20:29Z</time>
</trkpt>
<trkpt lat="47.948952" lon="11.107676">
<ele>514.829</ele>
<time>2022-05-27T09:20:30Z</time>
</trkpt>
<trkpt lat="47.948952" lon="11.1077">
<ele>514.829</ele>
<time>2022-05-27T09:20:31Z</time>
</trkpt>
<trkpt lat="47.948944" lon="11.107728">
<ele>514.829</ele>
<time>2022-05-27T09:20:32Z</time>
</trkpt>
<trkpt lat="47.948925" lon="11.10775">
<ele>514.829</ele>
<time>2022-05-27T09:20:33Z</time>
</trkpt>
<trkpt lat="47.948902" lon="11.107772">
<ele>514.829</ele>
<time>2022-05-27T09:20:34Z</time>
</trkpt>
<trkpt lat="47.948879" lon="11.107779">
<ele>514.829</ele>
<time>2022-05-27T09:20:35Z</time>
</trkpt>
<trkpt lat="47.948849" lon="11.107784">
<ele>514.829</ele>
<time>2022-05-27T09:20:36Z</time>
</trkpt>
<trkpt lat="47.948826" lon="11.107808">
<ele>514.829</ele>
<time>2022-05-27T09:20:37Z</time>
</trkpt>
<trkpt lat="47.948811" lon="11.107849">
<ele>514.829</ele>
<time>2022-05-27T09:20:38Z</time>
</trkpt>
<trkpt lat="47.948792" lon="11.10789">
<ele>514.829</ele>
<time>2022-05-27T09:20:39Z</time>
</trkpt>
<trkpt lat="47.948761" lon="11.10793">
<ele>514.829</ele>
<time>2022-05-27T09:20:40Z</time>
</trkpt>
<trkpt lat="47.94873" lon="11.107973">
<ele>514.829</ele>
<time>2022-05-27T09:20:41Z</time>
</trkpt>
<trkpt lat="47.948708" lon="11.108021">
<ele>514.829</ele>
<time>2022-05-27T09:20:42Z</time>
</trkpt>
<trkpt lat="47.948681" lon="11.108055">
<ele>514.829</ele>
<time>2022-05-27T09:20:43Z</time>
</trkpt>
<trkpt lat="47.94865" lon="11.10809">
<ele>514.829</ele>
<time>2022-05-27T09:20:44Z</time>
</trkpt>
<trkpt lat="47.948624" lon="11.108122">
<ele>514.829</ele>
<time>2022-05-27T09:20:45Z</time>
</trkpt>
<trkpt lat="47.948597" lon="11.108165">
<ele>514.829</ele>
<time>2022-05-27T09:20:46Z</time>
</trkpt>
<trkpt lat="47.94857" lon="11.108191">
<ele>514.829</ele>
<time>2022-05-27T09:20:47Z</time>
</trkpt>
<trkpt lat="47.94854" lon="11.108207">
<ele>514.829</ele>
<time>2022-05-27T09:20:48Z</time>
</trkpt>
<trkpt lat="47.948505" lon="11.108216">
<ele>514.829</ele>
<time>2022-05-27T09:20:49Z</time>
</trkpt>
<trkpt lat="47.948475" lon="11.108222">
<ele>514.829</ele>
<time>2022-05-27T09:20:50Z</time>
</trkpt>
<trkpt lat="47.948448" lon="11.10822">
<ele>514.829</ele>
<time>2022-05-27T09:20:51Z</time>
</trkpt>
<trkpt lat="47.948421" lon="11.108208">
<ele>514.829</ele>
<time>2022-05-27T09:20:52Z</time>
</trkpt>
<trkpt lat="47.948395" lon="11.108199">
<ele>514.829</ele>
<time>2022-05-27T09:20:53Z</time>
</trkpt>
<trkpt lat="47.948368" lon="11.108178">
<ele>514.829</ele>
<time>2022-05-27T09:20:54Z</time>
</trkpt>
<trkpt lat="47.948345" lon="11.10815">
<ele>514.829</ele>
<time>2022-05-27T09:20:55Z</time>
</trkpt>
<trkpt lat="47.948322" lon="11.108115">
<ele>514.829</ele>
<time>2022-05-27T09:20:56Z</time>
</trkpt>
<trkpt lat="47.948296" lon="11.108078">
<ele>514.829</ele>
<time>2022-05-27T09:20:57Z</time>
</trkpt>
<trkpt lat="47.948265" lon="11.108048">
<ele>514.829</ele>
<time>2022-05-27T09:20:58Z</time>
</trkpt>
<trkpt lat="47.948235" lon="11.108017">
<ele>514.829</ele>
<time>2022-05-27T09:20:59Z</time>
</trkpt>
<trkpt lat="47.948204" lon="11.107989">
<ele>515.126</ele>
<time>2022-05-27T09:21:00Z</time>
</trkpt>
<trkpt lat="47.94817" lon="11.107966">
<ele>515.338</ele>
<time>2022-05-27T09:21:01Z</time>
</trkpt>
<trkpt lat="47.948139" lon="11.10794">
<ele>515.493</ele>
<time>2022-05-27T09:21:02Z</time>
</trkpt>
<trkpt lat="47.948112" lon="11.10791">
<ele>515.608</ele>
<time>2022-05-27T09:21:03Z</time>
</trkpt>
<trkpt lat="47.948086" lon="11.107877">
<ele>515.685</ele>
<time>2022-05-27T09:21:04Z</time>
</trkpt>
<trkpt lat="47.948059" lon="11.107837">
<ele>515.733</ele>
<time>2022-05-27T09:21:05Z</time>
</trkpt>
<trkpt lat="47.948029" lon="11.1078">
<ele>515.763</ele>
<time>2022-05-27T09:21:06Z</time>
</trkpt>
<trkpt lat="47.947998" lon="11.107765">
<ele>515.785</ele>
<time>2022-05-27T09:21:07Z</time>
</trkpt>
<trkpt lat="47.947964" lon="11.107735">
<ele>515.785</ele>
<time>2022-05-27T09:21:08Z</time>
</trkpt>
<trkpt lat="47.947933" lon="11.107702">
<ele>515.785</ele>
<time>2022-05-27T09:21:09Z</time>
</trkpt>
<trkpt lat="47.947903" lon="11.107679">
<ele>515.785</ele>
<time>2022-05-27T09:21:10Z</time>
</trkpt>
<trkpt lat="47.94788" lon="11.107652">
<ele>515.785</ele>
<time>2022-05-27T09:21:11Z</time>
</trkpt>
<trkpt lat="47.947861" lon="11.107632">
<ele>515.785</ele>
<time>2022-05-27T09:21:12Z</time>
</trkpt>
<trkpt lat="47.947834" lon="11.10761">
<ele>515.785</ele>
<time>2022-05-27T09:21:13Z</time>
</trkpt>
<trkpt lat="47.947811" lon="11.107585">
<ele>515.785</ele>
<time>2022-05-27T09:21:14Z</time>
</trkpt>
<trkpt lat="47.947792" lon="11.10755">
<ele>515.785</ele>
<time>2022-05-27T09:21:15Z</time>
</trkpt>
<trkpt lat="47.947773" lon="11.10752">
<ele>515.785</ele>
<time>2022-05-27T09:21:16Z</time>
</trkpt>
<trkpt lat="47.947746" lon="11.107491">
<ele>515.785</ele>
<time>2022-05-27T09:21:17Z</time>
</trkpt>
<trkpt lat="47.94772" lon="11.107467">
<ele>515.785</ele>
<time>2022-05-27T09:21:18Z</time>
</trkpt>
<trkpt lat="47.947689" lon="11.107449">
<ele>515.785</ele>
<time>2022-05-27T09:21:19Z</time>
</trkpt>
<trkpt lat="47.947666" lon="11.107442">
<ele>515.785</ele>
<time>2022-05-27T09:21:20Z</time>
</trkpt>
<trkpt lat="47.947632" lon="11.107443">
<ele>515.785</ele>
<time>2022-05-27T09:21:21Z</time>
</trkpt>
<trkpt lat="47.947605" lon="11.107455">
<ele>515.785</ele>
<time>2022-05-27T09:21:22Z</time>
</trkpt>
<trkpt lat="47.947571" lon="11.10747">
<ele>515.785</ele>
<time>2022-05-27T09:21:23Z</time>
</trkpt>
<trkpt lat="47.947536" lon="11.107485">
<ele>515.785</ele>
<time>2022-05-27T09:21:24Z</time>
</trkpt>
<trkpt lat="47.947506" lon="11.107497">
<ele>515.785</ele>
<time>2022-05-27T09:21:25Z</time>
</trkpt>
<trkpt lat="47.947468" lon="11.1075">
<ele>515.785</ele>
<time>2022-05-27T09:21:26Z</time>
</trkpt>
<trkpt lat="47.947433" lon="11.107495">
<ele>515.785</ele>
<time>2022-05-27T09:21:27Z</time>
</trkpt>
<trkpt lat="47.947392" lon="11.107491">
<ele>515.785</ele>
<time>2022-05-27T09:21:28Z</time>
</trkpt>
<trkpt lat="47.94735" lon="11.107489">
<ele>515.785</ele>
<time>2022-05-27T09:21:29Z</time>
</trkpt>
<trkpt lat="47.947311" lon="11.10748">
<ele>515.785</ele>
<time>2022-05-27T09:21:30Z</time>
</trkpt>
<trkpt lat="47.947277" lon="11.107474">
<ele>515.785</ele>
<time>2022-05-27T09:21:31Z</time>
</trkpt>
<trkpt lat="47.947239" lon="11.10747">
<ele>515.785</ele>
<time>2022-05-27T09:21:32Z</time>
</trkpt>
<trkpt lat="47.947189" lon="11.107474">
<ele>515.785</ele>
<time>2022-05-27T09:21:33Z</time>
</trkpt>
<trkpt lat="47.947144" lon="11.107471">
<ele>515.785</ele>
<time>2022-05-27T09:21:34Z</time>
</trkpt>
<trkpt lat="47.947094" lon="11.107471">
<ele>515.785</ele>
<time>2022-05-27T09:21:35Z</time>
</trkpt>
<trkpt lat="47.947041" lon="11.107464">
<ele>515.785</ele>
<time>2022-05-27T09:21:36Z</time>
</trkpt>
<trkpt lat="47.946987" lon="11.107451">
<ele>515.785</ele>
<time>2022-05-27T09:21:37Z</time>
</trkpt>
<trkpt lat="47.946945" lon="11.107442">
<ele>515.785</ele>
<time>2022-05-27T09:21:38Z</time>
</trkpt>
<trkpt lat="47.946892" lon="11.10744">
<ele>515.785</ele>
<time>2022-05-27T09:21:39Z</time>
</trkpt>
<trkpt lat="47.946846" lon="11.107432">
<ele>515.785</ele>
<time>2022-05-27T09:21:40Z</time>
</trkpt>
<trkpt lat="47.9468" lon="11.107413">
<ele>515.785</ele>
<time>2022-05-27T09:21:41Z</time>
</trkpt>
<trkpt lat="47.946758" lon="11.107387">
<ele>515.785</ele>
<time>2022-05-27T09:21:42Z</time>
</trkpt>
<trkpt lat="47.946724" lon="11.107355">
<ele>515.785</ele>
<time>2022-05-27T09:21:43Z</time>
</trkpt>
<trkpt lat="47.94669" lon="11.107324">
<ele>516.043</ele>
<time>2022-05-27T09:21:44Z</time>
</trkpt>
<trkpt lat="47.946651" lon="11.107294">
<ele>516.25</ele>
<time>2022-05-27T09:21:45Z</time>
</trkpt>
<trkpt lat="47.946621" lon="11.10727">
<ele>516.412</ele>
<time>2022-05-27T09:21:46Z</time>
</trkpt>
<trkpt lat="47.946583" lon="11.107257">
<ele>516.525</ele>
<time>2022-05-27T09:21:47Z</time>
</trkpt>
<trkpt lat="47.946552" lon="11.107252">
<ele>516.648</ele>
<time>2022-05-27T09:21:48Z</time>
</trkpt>
<trkpt lat="47.946522" lon="11.107245">
<ele>516.737</ele>
<time>2022-05-27T09:21:49Z</time>
</trkpt>
<trkpt lat="47.946495" lon="11.107237">
<ele>516.797</ele>
<time>2022-05-27T09:21:50Z</time>
</trkpt>
<trkpt lat="47.946468" lon="11.107214">
<ele>516.828</ele>
<time>2022-05-27T09:21:51Z</time>
</trkpt>
<trkpt lat="47.946442" lon="11.107189">
<ele>516.828</ele>
<time>2022-05-27T09:21:52Z</time>
</trkpt>
<trkpt lat="47.946415" lon="11.107152">
<ele>516.828</ele>
<time>2022-05-27T09:21:53Z</time>
</trkpt>
<trkpt lat="47.9464" lon="11.10711">
<ele>516.828</ele>
<time>2022-05-27T09:21:54Z</time>
</trkpt>
<trkpt lat="47.946388" lon="11.107063">
<ele>516.828</ele>
<time>2022-05-27T09:21:55Z</time>
</trkpt>
<trkpt lat="47.946377" lon="11.107016">
<ele>516.828</ele>
<time>2022-05-27T09:21:56Z</time>
</trkpt>
<trkpt lat="47.946373" lon="11.106961">
<ele>517.047</ele>
<time>2022-05-27T09:21:57Z</time>
</trkpt>
<trkpt lat="47.946369" lon="11.106909">
<ele>517.253</ele>
<time>2022-05-27T09:21:58Z</time>
</trkpt>
<trkpt lat="47.946369" lon="11.106855">
<ele>517.417</ele>
<time>2022-05-27T09:21:59Z</time>
</trkpt>
<trkpt lat="47.946365" lon="11.106804">
<ele>517.544</ele>
<time>2022-05-27T09:22:00Z</time>
</trkpt>
<trkpt lat="47.946362" lon="11.106751">
<ele>517.642</ele>
<time>2022-05-27T09:22:01Z</time>
</trkpt>
<trkpt lat="47.946354" lon="11.106702">
<ele>517.716</ele>
<time>2022-05-27T09:22:02Z</time>
</trkpt>
<trkpt lat="47.94635" lon="11.106651">
<ele>517.762</ele>
<time>2022-05-27T09:22:03Z</time>
</trkpt>
<trkpt lat="47.946342" lon="11.106597">
<ele>517.784</ele>
<time>2022-05-27T09:22:04Z</time>
</trkpt>
<trkpt lat="47.946331" lon="11.106546">
<ele>517.784</ele>
<time>2022-05-27T09:22:05Z</time>
</trkpt>
<trkpt lat="47.946304" lon="11.106495">
<ele>517.784</ele>
<time>2022-05-27T09:22:06Z</time>
</trkpt>
<trkpt lat="47.946285" lon="11.106445">
<ele>517.982</ele>
<time>2022-05-27T09:22:07Z</time>
</trkpt>
<trkpt lat="47.946266" lon="11.106391">
<ele>518.171</ele>
<time>2022-05-27T09:22:08Z</time>
</trkpt>
<trkpt lat="47.946236" lon="11.106341">
<ele>518.325</ele>
<time>2022-05-27T09:22:09Z</time>
</trkpt>
<trkpt lat="47.946205" lon="11.106292">
<ele>518.445</ele>
<time>2022-05-27T09:22:10Z</time>
</trkpt>
<trkpt lat="47.946171" lon="11.106244">
<ele>518.534</ele>
<time>2022-05-27T09:22:11Z</time>
</trkpt>
<trkpt lat="47.946136" lon="11.106209">
<ele>518.595</ele>
<time>2022-05-27T09:22:12Z</time>
</trkpt>
<trkpt lat="47.946102" lon="11.106179">
<ele>518.635</ele>
<time>2022-05-27T09:22:13Z</time>
</trkpt>
<trkpt lat="47.946072" lon="11.106152">
<ele>518.654</ele>
<time>2022-05-27T09:22:14Z</time>
</trkpt>
<trkpt lat="47.946041" lon="11.106129">
<ele>518.654</ele>
<time>2022-05-27T09:22:15Z</time>
</trkpt>
<trkpt lat="47.945999" lon="11.106116">
<ele>518.654</ele>
<time>2022-05-27T09:22:16Z</time>
</trkpt>
<trkpt lat="47.945965" lon="11.106102">
<ele>518.654</ele>
<time>2022-05-27T09:22:17Z</time>
</trkpt>
<trkpt lat="47.945923" lon="11.106091">
<ele>518.654</ele>
<time>2022-05-27T09:22:18Z</time>
</trkpt>
<trkpt lat="47.945877" lon="11.106089">
<ele>518.654</ele>
<time>2022-05-27T09:22:19Z</time>
</trkpt>
<trkpt lat="47.945835" lon="11.106085">
<ele>518.654</ele>
<time>2022-05-27T09:22:20Z</time>
</trkpt>
<trkpt lat="47.945793" lon="11.106083">
<ele>518.654</ele>
<time>2022-05-27T09:22:21Z</time>
</trkpt>
<trkpt lat="47.945751" lon="11.106081">
<ele>518.654</ele>
<time>2022-05-27T09:22:22Z</time>
</trkpt>
<trkpt lat="47.945713" lon="11.106076">
<ele>518.654</ele>
<time>2022-05-27T09:22:23Z</time>
</trkpt>
<trkpt lat="47.945667" lon="11.106064">
<ele>518.654</ele>
<time>2022-05-27T09:22:24Z</time>
</trkpt>
<trkpt lat="47.945625" lon="11.106047">
<ele>518.654</ele>
<time>2022-05-27T09:22:25Z</time>
</trkpt>
<trkpt lat="47.945583" lon="11.106024">
<ele>518.654</ele>
<time>2022-05-27T09:22:26Z</time>
</trkpt>
<trkpt lat="47.945545" lon="11.105989">
<ele>518.654</ele>
<time>2022-05-27T09:22:27Z</time>
</trkpt>
<trkpt lat="47.945515" lon="11.105942">
<ele>518.654</ele>
<time>2022-05-27T09:22:28Z</time>
</trkpt>
<trkpt lat="47.945492" lon="11.10589">
<ele>518.654</ele>
<time>2022-05-27T09:22:29Z</time>
</trkpt>
<trkpt lat="47.945469" lon="11.105835">
<ele>518.654</ele>
<time>2022-05-27T09:22:30Z</time>
</trkpt>
<trkpt lat="47.945442" lon="11.105782">
<ele>518.654</ele>
<time>2022-05-27T09:22:31Z</time>
</trkpt>
<trkpt lat="47.945419" lon="11.10573">
<ele>518.654</ele>
<time>2022-05-27T09:22:32Z</time>
</trkpt>
<trkpt lat="47.945393" lon="11.105675">
<ele>518.654</ele>
<time>2022-05-27T09:22:33Z</time>
</trkpt>
<trkpt lat="47.94537" lon="11.105623">
<ele>518.654</ele>
<time>2022-05-27T09:22:34Z</time>
</trkpt>
<trkpt lat="47.945343" lon="11.105578">
<ele>518.654</ele>
<time>2022-05-27T09:22:35Z</time>
</trkpt>
<trkpt lat="47.945312" lon="11.105535">
<ele>518.654</ele>
<time>2022-05-27T09:22:36Z</time>
</trkpt>
<trkpt lat="47.94529" lon="11.105488">
<ele>518.865</ele>
<time>2022-05-27T09:22:37Z</time>
</trkpt>
<trkpt lat="47.945259" lon="11.105442">
<ele>519.063</ele>
<time>2022-05-27T09:22:38Z</time>
</trkpt>
<trkpt lat="47.945229" lon="11.105393">
<ele>519.228</ele>
<time>2022-05-27T09:22:39Z</time>
</trkpt>
<trkpt lat="47.945202" lon="11.105348">
<ele>519.362</ele>
<time>2022-05-27T09:22:40Z</time>
</trkpt>
<trkpt lat="47.945179" lon="11.105309">
<ele>519.463</ele>
<time>2022-05-27T09:22:41Z</time>
</trkpt>
<trkpt lat="47.945156" lon="11.105274">
<ele>519.539</ele>
<time>2022-05-27T09:22:42Z</time>
</trkpt>
<trkpt lat="47.945129" lon="11.105237">
<ele>519.586</ele>
<time>2022-05-27T09:22:43Z</time>
</trkpt>
<trkpt lat="47.945103" lon="11.105202">
<ele>519.61</ele>
<time>2022-05-27T09:22:44Z</time>
</trkpt>
<trkpt lat="47.94508" lon="11.105171">
<ele>519.61</ele>
<time>2022-05-27T09:22:45Z</time>
</trkpt>
<trkpt lat="47.945057" lon="11.105145">
<ele>519.61</ele>
<time>2022-05-27T09:22:46Z</time>
</trkpt>
<trkpt lat="47.945034" lon="11.105124">
<ele>519.61</ele>
<time>2022-05-27T09:22:47Z</time>
</trkpt>
<trkpt lat="47.945019" lon="11.105106">
<ele>519.822</ele>
<time>2022-05-27T09:22:48Z</time>
</trkpt>
<trkpt lat="47.945007" lon="11.105095">
<ele>520.004</ele>
<time>2022-05-27T09:22:49Z</time>
</trkpt>
<trkpt lat="47.945" lon="11.105085">
<ele>520.154</ele>
<time>2022-05-27T09:22:50Z</time>
</trkpt>
<trkpt lat="47.945" lon="11.105077">
<ele>520.276</ele>
<time>2022-05-27T09:22:51Z</time>
</trkpt>
<trkpt lat="47.944988" lon="11.105071">
<ele>520.382</ele>
<time>2022-05-27T09:22:52Z</time>
</trkpt>
<trkpt lat="47.944981" lon="11.10507">
<ele>520.466</ele>
<time>2022-05-27T09:22:53Z</time>
</trkpt>
<trkpt lat="47.944977" lon="11.105068">
<ele>520.529</ele>
<time>2022-05-27T09:22:54Z</time>
</trkpt>
<trkpt lat="47.944973" lon="11.105065">
<ele>520.566</ele>
<time>2022-05-27T09:22:56Z</time>
</trkpt>
<trkpt lat="47.944969" lon="11.105061">
<ele>520.566</ele>
<time>2022-05-27T09:22:57Z</time>
</trkpt>
<trkpt lat="47.944965" lon="11.105055">
<ele>520.566</ele>
<time>2022-05-27T09:22:58Z</time>
</trkpt>
<trkpt lat="47.944946" lon="11.105042">
<ele>520.566</ele>
<time>2022-05-27T09:22:59Z</time>
</trkpt>
<trkpt lat="47.944923" lon="11.105031">
<ele>520.566</ele>
<time>2022-05-27T09:23:00Z</time>
</trkpt>
<trkpt lat="47.944893" lon="11.105023">
<ele>520.566</ele>
<time>2022-05-27T09:23:01Z</time>
</trkpt>
<trkpt lat="47.944859" lon="11.105021">
<ele>520.566</ele>
<time>2022-05-27T09:23:02Z</time>
</trkpt>
<trkpt lat="47.944817" lon="11.105027">
<ele>520.566</ele>
<time>2022-05-27T09:23:03Z</time>
</trkpt>
<trkpt lat="47.944771" lon="11.105038">
<ele>520.566</ele>
<time>2022-05-27T09:23:04Z</time>
</trkpt>
<trkpt lat="47.944736" lon="11.10505">
<ele>520.566</ele>
<time>2022-05-27T09:23:05Z</time>
</trkpt>
<trkpt lat="47.944695" lon="11.105055">
<ele>520.566</ele>
<time>2022-05-27T09:23:06Z</time>
</trkpt>
<trkpt lat="47.944656" lon="11.105057">
<ele>520.566</ele>
<time>2022-05-27T09:23:07Z</time>
</trkpt>
<trkpt lat="47.944614" lon="11.105059">
<ele>520.566</ele>
<time>2022-05-27T09:23:08Z</time>
</trkpt>
<trkpt lat="47.944572" lon="11.105055">
<ele>520.566</ele>
<time>2022-05-27T09:23:09Z</time>
</trkpt>
<trkpt lat="47.944534" lon="11.105052">
<ele>520.566</ele>
<time>2022-05-27T09:23:10Z</time>
</trkpt>
<trkpt lat="47.944489" lon="11.105046">
<ele>520.566</ele>
<time>2022-05-27T09:23:11Z</time>
</trkpt>
<trkpt lat="47.944447" lon="11.10504">
<ele>520.566</ele>
<time>2022-05-27T09:23:12Z</time>
</trkpt>
<trkpt lat="47.944412" lon="11.105027">
<ele>520.566</ele>
<time>2022-05-27T09:23:13Z</time>
</trkpt>
<trkpt lat="47.944374" lon="11.105013">
<ele>520.566</ele>
<time>2022-05-27T09:23:14Z</time>
</trkpt>
<trkpt lat="47.944332" lon="11.105003">
<ele>520.566</ele>
<time>2022-05-27T09:23:15Z</time>
</trkpt>
<trkpt lat="47.94429" lon="11.105001">
<ele>520.566</ele>
<time>2022-05-27T09:23:16Z</time>
</trkpt>
<trkpt lat="47.944248" lon="11.10499">
<ele>520.798</ele>
<time>2022-05-27T09:23:17Z</time>
</trkpt>
<trkpt lat="47.94421" lon="11.104979">
<ele>520.963</ele>
<time>2022-05-27T09:23:18Z</time>
</trkpt>
<trkpt lat="47.94416" lon="11.10497">
<ele>521.134</ele>
<time>2022-05-27T09:23:19Z</time>
</trkpt>
<trkpt lat="47.944118" lon="11.104964">
<ele>521.275</ele>
<time>2022-05-27T09:23:20Z</time>
</trkpt>
<trkpt lat="47.944077" lon="11.104957">
<ele>521.381</ele>
<time>2022-05-27T09:23:21Z</time>
</trkpt>
<trkpt lat="47.944031" lon="11.104954">
<ele>521.455</ele>
<time>2022-05-27T09:23:22Z</time>
</trkpt>
<trkpt lat="47.943989" lon="11.10495">
<ele>521.501</ele>
<time>2022-05-27T09:23:23Z</time>
</trkpt>
<trkpt lat="47.943947" lon="11.10495">
<ele>521.523</ele>
<time>2022-05-27T09:23:24Z</time>
</trkpt>
<trkpt lat="47.943905" lon="11.104954">
<ele>521.523</ele>
<time>2022-05-27T09:23:25Z</time>
</trkpt>
<trkpt lat="47.943863" lon="11.104954">
<ele>521.523</ele>
<time>2022-05-27T09:23:26Z</time>
</trkpt>
<trkpt lat="47.943825" lon="11.10495">
<ele>521.523</ele>
<time>2022-05-27T09:23:27Z</time>
</trkpt>
<trkpt lat="47.943783" lon="11.104943">
<ele>521.523</ele>
<time>2022-05-27T09:23:28Z</time>
</trkpt>
<trkpt lat="47.943745" lon="11.104937">
<ele>521.523</ele>
<time>2022-05-27T09:23:29Z</time>
</trkpt>
<trkpt lat="47.943699" lon="11.104935">
<ele>521.523</ele>
<time>2022-05-27T09:23:30Z</time>
</trkpt>
<trkpt lat="47.943657" lon="11.104939">
<ele>521.523</ele>
<time>2022-05-27T09:23:31Z</time>
</trkpt>
<trkpt lat="47.943615" lon="11.104939">
<ele>521.523</ele>
<time>2022-05-27T09:23:32Z</time>
</trkpt>
<trkpt lat="47.943569" lon="11.104933">
<ele>521.523</ele>
<time>2022-05-27T09:23:33Z</time>
</trkpt>
<trkpt lat="47.943531" lon="11.104928">
<ele>521.523</ele>
<time>2022-05-27T09:23:34Z</time>
</trkpt>
<trkpt lat="47.943485" lon="11.10492">
<ele>521.523</ele>
<time>2022-05-27T09:23:35Z</time>
</trkpt>
<trkpt lat="47.943439" lon="11.104907">
<ele>521.523</ele>
<time>2022-05-27T09:23:36Z</time>
</trkpt>
<trkpt lat="47.943401" lon="11.104891">
<ele>521.523</ele>
<time>2022-05-27T09:23:37Z</time>
</trkpt>
<trkpt lat="47.943352" lon="11.104872">
<ele>521.523</ele>
<time>2022-05-27T09:23:38Z</time>
</trkpt>
<trkpt lat="47.943306" lon="11.10485">
<ele>521.523</ele>
<time>2022-05-27T09:23:39Z</time>
</trkpt>
<trkpt lat="47.943264" lon="11.104825">
<ele>521.523</ele>
<time>2022-05-27T09:23:40Z</time>
</trkpt>
<trkpt lat="47.943211" lon="11.1048">
<ele>521.523</ele>
<time>2022-05-27T09:23:41Z</time>
</trkpt>
<trkpt lat="47.943165" lon="11.104774">
<ele>521.523</ele>
<time>2022-05-27T09:23:42Z</time>
</trkpt>
<trkpt lat="47.943115" lon="11.104751">
<ele>521.523</ele>
<time>2022-05-27T09:23:43Z</time>
</trkpt>
<trkpt lat="47.943066" lon="11.104727">
<ele>521.523</ele>
<time>2022-05-27T09:23:44Z</time>
</trkpt>
<trkpt lat="47.943012" lon="11.104705">
<ele>521.523</ele>
<time>2022-05-27T09:23:45Z</time>
</trkpt>
<trkpt lat="47.942963" lon="11.104685">
<ele>521.523</ele>
<time>2022-05-27T09:23:46Z</time>
</trkpt>
<trkpt lat="47.942909" lon="11.104667">
<ele>521.523</ele>
<time>2022-05-27T09:23:47Z</time>
</trkpt>
<trkpt lat="47.942856" lon="11.10465">
<ele>521.523</ele>
<time>2022-05-27T09:23:48Z</time>
</trkpt>
<trkpt lat="47.942802" lon="11.104637">
<ele>521.523</ele>
<time>2022-05-27T09:23:49Z</time>
</trkpt>
<trkpt lat="47.942749" lon="11.10463">
<ele>521.523</ele>
<time>2022-05-27T09:23:50Z</time>
</trkpt>
<trkpt lat="47.942688" lon="11.104627">
<ele>521.523</ele>
<time>2022-05-27T09:23:51Z</time>
</trkpt>
<trkpt lat="47.942638" lon="11.104625">
<ele>521.523</ele>
<time>2022-05-27T09:23:52Z</time>
</trkpt>
<trkpt lat="47.942585" lon="11.10462">
<ele>521.523</ele>
<time>2022-05-27T09:23:53Z</time>
</trkpt>
<trkpt lat="47.942532" lon="11.104612">
<ele>521.523</ele>
<time>2022-05-27T09:23:54Z</time>
</trkpt>
<trkpt lat="47.942482" lon="11.104609">
<ele>521.523</ele>
<time>2022-05-27T09:23:55Z</time>
</trkpt>
<trkpt lat="47.942432" lon="11.10461">
<ele>521.523</ele>
<time>2022-05-27T09:23:56Z</time>
</trkpt>
<trkpt lat="47.942387" lon="11.104612">
<ele>521.523</ele>
<time>2022-05-27T09:23:57Z</time>
</trkpt>
<trkpt lat="47.942337" lon="11.104614">
<ele>521.523</ele>
<time>2022-05-27T09:23:58Z</time>
</trkpt>
<trkpt lat="47.942287" lon="11.104618">
<ele>521.523</ele>
<time>2022-05-27T09:23:59Z</time>
</trkpt>
<trkpt lat="47.942234" lon="11.104627">
<ele>521.523</ele>
<time>2022-05-27T09:24:00Z</time>
</trkpt>
<trkpt lat="47.942184" lon="11.10463">
<ele>521.523</ele>
<time>2022-05-27T09:24:01Z</time>
</trkpt>
<trkpt lat="47.942135" lon="11.104637">
<ele>521.523</ele>
<time>2022-05-27T09:24:02Z</time>
</trkpt>
<trkpt lat="47.942089" lon="11.104647">
<ele>521.523</ele>
<time>2022-05-27T09:24:03Z</time>
</trkpt>
<trkpt lat="47.942036" lon="11.104654">
<ele>521.523</ele>
<time>2022-05-27T09:24:04Z</time>
</trkpt>
<trkpt lat="47.941986" lon="11.104665">
<ele>521.523</ele>
<time>2022-05-27T09:24:05Z</time>
</trkpt>
<trkpt lat="47.941933" lon="11.104671">
<ele>521.523</ele>
<time>2022-05-27T09:24:06Z</time>
</trkpt>
<trkpt lat="47.941875" lon="11.10468">
<ele>521.523</ele>
<time>2022-05-27T09:24:07Z</time>
</trkpt>
<trkpt lat="47.941818" lon="11.104692">
<ele>521.523</ele>
<time>2022-05-27T09:24:08Z</time>
</trkpt>
<trkpt lat="47.941765" lon="11.104705">
<ele>521.523</ele>
<time>2022-05-27T09:24:09Z</time>
</trkpt>
<trkpt lat="47.941708" lon="11.104717">
<ele>521.523</ele>
<time>2022-05-27T09:24:10Z</time>
</trkpt>
<trkpt lat="47.941658" lon="11.104735">
<ele>521.523</ele>
<time>2022-05-27T09:24:11Z</time>
</trkpt>
<trkpt lat="47.941608" lon="11.104754">
<ele>521.523</ele>
<time>2022-05-27T09:24:12Z</time>
</trkpt>
<trkpt lat="47.941555" lon="11.104778">
<ele>521.523</ele>
<time>2022-05-27T09:24:13Z</time>
</trkpt>
<trkpt lat="47.941509" lon="11.104807">
<ele>521.523</ele>
<time>2022-05-27T09:24:14Z</time>
</trkpt>
<trkpt lat="47.941463" lon="11.104836">
<ele>521.523</ele>
<time>2022-05-27T09:24:15Z</time>
</trkpt>
<trkpt lat="47.941418" lon="11.104866">
<ele>521.523</ele>
<time>2022-05-27T09:24:16Z</time>
</trkpt>
<trkpt lat="47.94138" lon="11.104893">
<ele>521.523</ele>
<time>2022-05-27T09:24:17Z</time>
</trkpt>
<trkpt lat="47.941341" lon="11.104918">
<ele>521.523</ele>
<time>2022-05-27T09:24:18Z</time>
</trkpt>
<trkpt lat="47.941296" lon="11.104939">
<ele>521.523</ele>
<time>2022-05-27T09:24:19Z</time>
</trkpt>
<trkpt lat="47.94125" lon="11.104954">
<ele>521.523</ele>
<time>2022-05-27T09:24:20Z</time>
</trkpt>
<trkpt lat="47.941204" lon="11.104956">
<ele>521.523</ele>
<time>2022-05-27T09:24:21Z</time>
</trkpt>
<trkpt lat="47.941158" lon="11.104952">
<ele>521.523</ele>
<time>2022-05-27T09:24:22Z</time>
</trkpt>
<trkpt lat="47.941116" lon="11.104945">
<ele>521.523</ele>
<time>2022-05-27T09:24:23Z</time>
</trkpt>
<trkpt lat="47.941063" lon="11.104939">
<ele>521.523</ele>
<time>2022-05-27T09:24:24Z</time>
</trkpt>
<trkpt lat="47.941021" lon="11.104926">
<ele>521.523</ele>
<time>2022-05-27T09:24:25Z</time>
</trkpt>
<trkpt lat="47.940983" lon="11.10491">
<ele>521.284</ele>
<time>2022-05-27T09:24:26Z</time>
</trkpt>
<trkpt lat="47.940941" lon="11.104895">
<ele>521.098</ele>
<time>2022-05-27T09:24:27Z</time>
</trkpt>
<trkpt lat="47.940895" lon="11.104889">
<ele>520.969</ele>
<time>2022-05-27T09:24:28Z</time>
</trkpt>
<trkpt lat="47.940857" lon="11.10488">
<ele>520.828</ele>
<time>2022-05-27T09:24:29Z</time>
</trkpt>
<trkpt lat="47.940807" lon="11.104868">
<ele>520.721</ele>
<time>2022-05-27T09:24:30Z</time>
</trkpt>
<trkpt lat="47.940762" lon="11.104854">
<ele>520.644</ele>
<time>2022-05-27T09:24:31Z</time>
</trkpt>
<trkpt lat="47.940712" lon="11.104843">
<ele>520.592</ele>
<time>2022-05-27T09:24:32Z</time>
</trkpt>
<trkpt lat="47.940662" lon="11.104828">
<ele>520.566</ele>
<time>2022-05-27T09:24:33Z</time>
</trkpt>
<trkpt lat="47.94062" lon="11.104809">
<ele>520.566</ele>
<time>2022-05-27T09:24:34Z</time>
</trkpt>
<trkpt lat="47.940578" lon="11.104776">
<ele>520.566</ele>
<time>2022-05-27T09:24:35Z</time>
</trkpt>
<trkpt lat="47.940536" lon="11.104736">
<ele>520.566</ele>
<time>2022-05-27T09:24:36Z</time>
</trkpt>
<trkpt lat="47.940498" lon="11.104695">
<ele>520.566</ele>
<time>2022-05-27T09:24:37Z</time>
</trkpt>
<trkpt lat="47.94046" lon="11.104656">
<ele>520.759</ele>
<time>2022-05-27T09:24:38Z</time>
</trkpt>
<trkpt lat="47.940418" lon="11.10462">
<ele>520.941</ele>
<time>2022-05-27T09:24:39Z</time>
</trkpt>
<trkpt lat="47.940372" lon="11.104591">
<ele>521.092</ele>
<time>2022-05-27T09:24:40Z</time>
</trkpt>
<trkpt lat="47.940331" lon="11.104575">
<ele>521.214</ele>
<time>2022-05-27T09:24:41Z</time>
</trkpt>
<trkpt lat="47.940285" lon="11.10456">
<ele>521.293</ele>
<time>2022-05-27T09:24:42Z</time>
</trkpt>
<trkpt lat="47.940239" lon="11.104547">
<ele>521.598</ele>
<time>2022-05-27T09:24:43Z</time>
</trkpt>
<trkpt lat="47.940189" lon="11.104535">
<ele>521.839</ele>
<time>2022-05-27T09:24:44Z</time>
</trkpt>
<trkpt lat="47.940144" lon="11.104524">
<ele>522.023</ele>
<time>2022-05-27T09:24:45Z</time>
</trkpt>
<trkpt lat="47.940098" lon="11.104513">
<ele>522.166</ele>
<time>2022-05-27T09:24:46Z</time>
</trkpt>
<trkpt lat="47.940048" lon="11.104508">
<ele>522.252</ele>
<time>2022-05-27T09:24:47Z</time>
</trkpt>
<trkpt lat="47.939999" lon="11.104508">
<ele>522.314</ele>
<time>2022-05-27T09:24:48Z</time>
</trkpt>
<trkpt lat="47.939945" lon="11.104507">
<ele>522.367</ele>
<time>2022-05-27T09:24:49Z</time>
</trkpt>
<trkpt lat="47.939896" lon="11.104507">
<ele>522.393</ele>
<time>2022-05-27T09:24:50Z</time>
</trkpt>
<trkpt lat="47.939846" lon="11.104508">
<ele>522.393</ele>
<time>2022-05-27T09:24:51Z</time>
</trkpt>
<trkpt lat="47.9398" lon="11.104506">
<ele>522.393</ele>
<time>2022-05-27T09:24:52Z</time>
</trkpt>
<trkpt lat="47.939754" lon="11.104502">
<ele>522.393</ele>
<time>2022-05-27T09:24:53Z</time>
</trkpt>
<trkpt lat="47.939709" lon="11.104502">
<ele>522.393</ele>
<time>2022-05-27T09:24:54Z</time>
</trkpt>
<trkpt lat="47.939659" lon="11.104504">
<ele>522.634</ele>
<time>2022-05-27T09:24:55Z</time>
</trkpt>
<trkpt lat="47.939617" lon="11.104507">
<ele>522.822</ele>
<time>2022-05-27T09:24:56Z</time>
</trkpt>
<trkpt lat="47.939568" lon="11.104509">
<ele>522.974</ele>
<time>2022-05-27T09:24:57Z</time>
</trkpt>
<trkpt lat="47.939522" lon="11.104511">
<ele>523.079</ele>
<time>2022-05-27T09:24:58Z</time>
</trkpt>
<trkpt lat="47.939468" lon="11.104513">
<ele>523.193</ele>
<time>2022-05-27T09:24:59Z</time>
</trkpt>
<trkpt lat="47.939419" lon="11.104516">
<ele>523.277</ele>
<time>2022-05-27T09:25:00Z</time>
</trkpt>
<trkpt lat="47.939362" lon="11.104524">
<ele>523.326</ele>
<time>2022-05-27T09:25:01Z</time>
</trkpt>
<trkpt lat="47.939312" lon="11.10453">
<ele>523.35</ele>
<time>2022-05-27T09:25:02Z</time>
</trkpt>
<trkpt lat="47.939259" lon="11.104533">
<ele>523.35</ele>
<time>2022-05-27T09:25:03Z</time>
</trkpt>
<trkpt lat="47.939209" lon="11.104539">
<ele>523.35</ele>
<time>2022-05-27T09:25:04Z</time>
</trkpt>
<trkpt lat="47.939159" lon="11.104542">
<ele>523.35</ele>
<time>2022-05-27T09:25:05Z</time>
</trkpt>
<trkpt lat="47.93911" lon="11.10454">
<ele>523.35</ele>
<time>2022-05-27T09:25:06Z</time>
</trkpt>
<trkpt lat="47.939064" lon="11.104539">
<ele>523.35</ele>
<time>2022-05-27T09:25:07Z</time>
</trkpt>
<trkpt lat="47.939014" lon="11.10454">
<ele>523.35</ele>
<time>2022-05-27T09:25:08Z</time>
</trkpt>
<trkpt lat="47.938969" lon="11.104544">
<ele>523.35</ele>
<time>2022-05-27T09:25:09Z</time>
</trkpt>
<trkpt lat="47.938919" lon="11.104539">
<ele>523.35</ele>
<time>2022-05-27T09:25:10Z</time>
</trkpt>
<trkpt lat="47.938869" lon="11.10454">
<ele>523.35</ele>
<time>2022-05-27T09:25:11Z</time>
</trkpt>
<trkpt lat="47.938816" lon="11.104544">
<ele>523.35</ele>
<time>2022-05-27T09:25:12Z</time>
</trkpt>
<trkpt lat="47.938763" lon="11.104545">
<ele>523.35</ele>
<time>2022-05-27T09:25:13Z</time>
</trkpt>
<trkpt lat="47.938709" lon="11.104545">
<ele>523.35</ele>
<time>2022-05-27T09:25:14Z</time>
</trkpt>
<trkpt lat="47.93866" lon="11.104542">
<ele>523.35</ele>
<time>2022-05-27T09:25:15Z</time>
</trkpt>
<trkpt lat="47.938606" lon="11.104539">
<ele>523.35</ele>
<time>2022-05-27T09:25:16Z</time>
</trkpt>
<trkpt lat="47.938553" lon="11.104537">
<ele>523.35</ele>
<time>2022-05-27T09:25:17Z</time>
</trkpt>
<trkpt lat="47.938507" lon="11.104535">
<ele>523.35</ele>
<time>2022-05-27T09:25:18Z</time>
</trkpt>
<trkpt lat="47.938454" lon="11.104533">
<ele>523.35</ele>
<time>2022-05-27T09:25:19Z</time>
</trkpt>
<trkpt lat="47.938408" lon="11.10453">
<ele>523.35</ele>
<time>2022-05-27T09:25:20Z</time>
</trkpt>
<trkpt lat="47.938366" lon="11.104524">
<ele>523.35</ele>
<time>2022-05-27T09:25:21Z</time>
</trkpt>
<trkpt lat="47.938324" lon="11.104516">
<ele>523.35</ele>
<time>2022-05-27T09:25:22Z</time>
</trkpt>
<trkpt lat="47.938286" lon="11.104516">
<ele>523.35</ele>
<time>2022-05-27T09:25:23Z</time>
</trkpt>
<trkpt lat="47.938251" lon="11.104513">
<ele>523.35</ele>
<time>2022-05-27T09:25:24Z</time>
</trkpt>
<trkpt lat="47.938213" lon="11.104506">
<ele>523.35</ele>
<time>2022-05-27T09:25:25Z</time>
</trkpt>
<trkpt lat="47.938171" lon="11.104504">
<ele>523.35</ele>
<time>2022-05-27T09:25:26Z</time>
</trkpt>
<trkpt lat="47.938133" lon="11.104497">
<ele>523.35</ele>
<time>2022-05-27T09:25:27Z</time>
</trkpt>
<trkpt lat="47.938099" lon="11.10449">
<ele>523.35</ele>
<time>2022-05-27T09:25:28Z</time>
</trkpt>
<trkpt lat="47.938065" lon="11.104485">
<ele>523.35</ele>
<time>2022-05-27T09:25:29Z</time>
</trkpt>
<trkpt lat="47.938034" lon="11.104484">
<ele>523.35</ele>
<time>2022-05-27T09:25:30Z</time>
</trkpt>
<trkpt lat="47.937996" lon="11.104474">
<ele>523.35</ele>
<time>2022-05-27T09:25:31Z</time>
</trkpt>
<trkpt lat="47.937965" lon="11.104466">
<ele>522.994</ele>
<time>2022-05-27T09:25:32Z</time>
</trkpt>
<trkpt lat="47.937935" lon="11.104455">
<ele>522.713</ele>
<time>2022-05-27T09:25:33Z</time>
</trkpt>
<trkpt lat="47.937897" lon="11.104445">
<ele>522.499</ele>
<time>2022-05-27T09:25:34Z</time>
</trkpt>
<trkpt lat="47.937855" lon="11.10443">
<ele>522.321</ele>
<time>2022-05-27T09:25:35Z</time>
</trkpt>
<trkpt lat="47.937809" lon="11.10442">
<ele>522.204</ele>
<time>2022-05-27T09:25:36Z</time>
</trkpt>
<trkpt lat="47.937767" lon="11.104406">
<ele>522.131</ele>
<time>2022-05-27T09:25:37Z</time>
</trkpt>
<trkpt lat="47.937721" lon="11.104402">
<ele>522.079</ele>
<time>2022-05-27T09:25:38Z</time>
</trkpt>
<trkpt lat="47.937668" lon="11.104415">
<ele>522.045</ele>
<time>2022-05-27T09:25:39Z</time>
</trkpt>
<trkpt lat="47.937622" lon="11.104434">
<ele>522.045</ele>
<time>2022-05-27T09:25:40Z</time>
</trkpt>
<trkpt lat="47.937565" lon="11.104466">
<ele>522.045</ele>
<time>2022-05-27T09:25:41Z</time>
</trkpt>
<trkpt lat="47.937508" lon="11.104511">
<ele>522.045</ele>
<time>2022-05-27T09:25:42Z</time>
</trkpt>
<trkpt lat="47.937462" lon="11.104544">
<ele>522.045</ele>
<time>2022-05-27T09:25:43Z</time>
</trkpt>
<trkpt lat="47.937408" lon="11.104562">
<ele>522.045</ele>
<time>2022-05-27T09:25:44Z</time>
</trkpt>
<trkpt lat="47.937359" lon="11.10457">
<ele>522.045</ele>
<time>2022-05-27T09:25:45Z</time>
</trkpt>
<trkpt lat="47.937305" lon="11.10458">
<ele>522.045</ele>
<time>2022-05-27T09:25:46Z</time>
</trkpt>
<trkpt lat="47.937241" lon="11.104595">
<ele>522.045</ele>
<time>2022-05-27T09:25:47Z</time>
</trkpt>
<trkpt lat="47.937176" lon="11.104604">
<ele>522.045</ele>
<time>2022-05-27T09:25:48Z</time>
</trkpt>
<trkpt lat="47.937115" lon="11.104609">
<ele>522.045</ele>
<time>2022-05-27T09:25:49Z</time>
</trkpt>
<trkpt lat="47.937054" lon="11.10461">
<ele>522.045</ele>
<time>2022-05-27T09:25:50Z</time>
</trkpt>
<trkpt lat="47.937" lon="11.10461">
<ele>522.045</ele>
<time>2022-05-27T09:25:51Z</time>
</trkpt>
<trkpt lat="47.936943" lon="11.104612">
<ele>522.045</ele>
<time>2022-05-27T09:25:52Z</time>
</trkpt>
<trkpt lat="47.936882" lon="11.104612">
<ele>522.045</ele>
<time>2022-05-27T09:25:53Z</time>
</trkpt>
<trkpt lat="47.936829" lon="11.104612">
<ele>522.045</ele>
<time>2022-05-27T09:25:54Z</time>
</trkpt>
<trkpt lat="47.936775" lon="11.104609">
<ele>522.045</ele>
<time>2022-05-27T09:25:55Z</time>
</trkpt>
<trkpt lat="47.936718" lon="11.104607">
<ele>522.045</ele>
<time>2022-05-27T09:25:56Z</time>
</trkpt>
<trkpt lat="47.936665" lon="11.104606">
<ele>522.045</ele>
<time>2022-05-27T09:25:57Z</time>
</trkpt>
<trkpt lat="47.936615" lon="11.104606">
<ele>522.045</ele>
<time>2022-05-27T09:25:58Z</time>
</trkpt>
<trkpt lat="47.936562" lon="11.104607">
<ele>522.045</ele>
<time>2022-05-27T09:25:59Z</time>
</trkpt>
<trkpt lat="47.936508" lon="11.10461">
<ele>522.045</ele>
<time>2022-05-27T09:26:00Z</time>
</trkpt>
<trkpt lat="47.936455" lon="11.104613">
<ele>522.045</ele>
<time>2022-05-27T09:26:01Z</time>
</trkpt>
<trkpt lat="47.936405" lon="11.104614">
<ele>522.045</ele>
<time>2022-05-27T09:26:02Z</time>
</trkpt>
<trkpt lat="47.936352" lon="11.104613">
<ele>522.045</ele>
<time>2022-05-27T09:26:03Z</time>
</trkpt>
<trkpt lat="47.936298" lon="11.104612">
<ele>522.045</ele>
<time>2022-05-27T09:26:04Z</time>
</trkpt>
<trkpt lat="47.936249" lon="11.104613">
<ele>522.045</ele>
<time>2022-05-27T09:26:05Z</time>
</trkpt>
<trkpt lat="47.936195" lon="11.104618">
<ele>522.045</ele>
<time>2022-05-27T09:26:06Z</time>
</trkpt>
<trkpt lat="47.936138" lon="11.104625">
<ele>522.045</ele>
<time>2022-05-27T09:26:07Z</time>
</trkpt>
<trkpt lat="47.936089" lon="11.10463">
<ele>522.045</ele>
<time>2022-05-27T09:26:08Z</time>
</trkpt>
<trkpt lat="47.936031" lon="11.104637">
<ele>522.045</ele>
<time>2022-05-27T09:26:09Z</time>
</trkpt>
<trkpt lat="47.93597" lon="11.104646">
<ele>522.045</ele>
<time>2022-05-27T09:26:10Z</time>
</trkpt>
<trkpt lat="47.935917" lon="11.104653">
<ele>522.045</ele>
<time>2022-05-27T09:26:11Z</time>
</trkpt>
<trkpt lat="47.935863" lon="11.104662">
<ele>522.045</ele>
<time>2022-05-27T09:26:12Z</time>
</trkpt>
<trkpt lat="47.935806" lon="11.104671">
<ele>522.045</ele>
<time>2022-05-27T09:26:13Z</time>
</trkpt>
<trkpt lat="47.935753" lon="11.104679">
<ele>522.045</ele>
<time>2022-05-27T09:26:14Z</time>
</trkpt>
<trkpt lat="47.935696" lon="11.104688">
<ele>522.045</ele>
<time>2022-05-27T09:26:15Z</time>
</trkpt>
<trkpt lat="47.935642" lon="11.104696">
<ele>522.045</ele>
<time>2022-05-27T09:26:16Z</time>
</trkpt>
<trkpt lat="47.935589" lon="11.104705">
<ele>522.045</ele>
<time>2022-05-27T09:26:17Z</time>
</trkpt>
<trkpt lat="47.935535" lon="11.104713">
<ele>522.045</ele>
<time>2022-05-27T09:26:18Z</time>
</trkpt>
<trkpt lat="47.935478" lon="11.104721">
<ele>522.045</ele>
<time>2022-05-27T09:26:19Z</time>
</trkpt>
<trkpt lat="47.935421" lon="11.104732">
<ele>522.045</ele>
<time>2022-05-27T09:26:20Z</time>
</trkpt>
<trkpt lat="47.935371" lon="11.104744">
<ele>522.045</ele>
<time>2022-05-27T09:26:21Z</time>
</trkpt>
<trkpt lat="47.935314" lon="11.104754">
<ele>522.045</ele>
<time>2022-05-27T09:26:22Z</time>
</trkpt>
<trkpt lat="47.935261" lon="11.104765">
<ele>522.045</ele>
<time>2022-05-27T09:26:23Z</time>
</trkpt>
<trkpt lat="47.935207" lon="11.104774">
<ele>522.045</ele>
<time>2022-05-27T09:26:24Z</time>
</trkpt>
<trkpt lat="47.935154" lon="11.104778">
<ele>522.045</ele>
<time>2022-05-27T09:26:25Z</time>
</trkpt>
<trkpt lat="47.935104" lon="11.104787">
<ele>522.045</ele>
<time>2022-05-27T09:26:26Z</time>
</trkpt>
<trkpt lat="47.935055" lon="11.104795">
<ele>522.045</ele>
<time>2022-05-27T09:26:27Z</time>
</trkpt>
<trkpt lat="47.935001" lon="11.104807">
<ele>522.045</ele>
<time>2022-05-27T09:26:28Z</time>
</trkpt>
<trkpt lat="47.934956" lon="11.104815">
<ele>522.045</ele>
<time>2022-05-27T09:26:29Z</time>
</trkpt>
<trkpt lat="47.934902" lon="11.104825">
<ele>522.045</ele>
<time>2022-05-27T09:26:30Z</time>
</trkpt>
<trkpt lat="47.934856" lon="11.104835">
<ele>522.319</ele>
<time>2022-05-27T09:26:31Z</time>
</trkpt>
<trkpt lat="47.934803" lon="11.104843">
<ele>522.534</ele>
<time>2022-05-27T09:26:32Z</time>
</trkpt>
<trkpt lat="47.934753" lon="11.10485">
<ele>522.699</ele>
<time>2022-05-27T09:26:33Z</time>
</trkpt>
<trkpt lat="47.9347" lon="11.104857">
<ele>522.819</ele>
<time>2022-05-27T09:26:34Z</time>
</trkpt>
<trkpt lat="47.93465" lon="11.104859">
<ele>522.899</ele>
<time>2022-05-27T09:26:35Z</time>
</trkpt>
<trkpt lat="47.934597" lon="11.104861">
<ele>522.951</ele>
<time>2022-05-27T09:26:36Z</time>
</trkpt>
<trkpt lat="47.934544" lon="11.104865">
<ele>522.98</ele>
<time>2022-05-27T09:26:37Z</time>
</trkpt>
<trkpt lat="47.934494" lon="11.10487">
<ele>523.002</ele>
<time>2022-05-27T09:26:38Z</time>
</trkpt>
<trkpt lat="47.934441" lon="11.104874">
<ele>523.002</ele>
<time>2022-05-27T09:26:39Z</time>
</trkpt>
<trkpt lat="47.934391" lon="11.10488">
<ele>523.002</ele>
<time>2022-05-27T09:26:40Z</time>
</trkpt>
<trkpt lat="47.934338" lon="11.104883">
<ele>523.002</ele>
<time>2022-05-27T09:26:41Z</time>
</trkpt>
<trkpt lat="47.934288" lon="11.104887">
<ele>523.002</ele>
<time>2022-05-27T09:26:42Z</time>
</trkpt>
<trkpt lat="47.934238" lon="11.104887">
<ele>523.002</ele>
<time>2022-05-27T09:26:43Z</time>
</trkpt>
<trkpt lat="47.934189" lon="11.104885">
<ele>523.002</ele>
<time>2022-05-27T09:26:44Z</time>
</trkpt>
<trkpt lat="47.934139" lon="11.104882">
<ele>523.002</ele>
<time>2022-05-27T09:26:45Z</time>
</trkpt>
<trkpt lat="47.93409" lon="11.104877">
<ele>523.002</ele>
<time>2022-05-27T09:26:46Z</time>
</trkpt>
<trkpt lat="47.93404" lon="11.10487">
<ele>523.002</ele>
<time>2022-05-27T09:26:47Z</time>
</trkpt>
<trkpt lat="47.933987" lon="11.104858">
<ele>523.002</ele>
<time>2022-05-27T09:26:48Z</time>
</trkpt>
<trkpt lat="47.933937" lon="11.104845">
<ele>523.002</ele>
<time>2022-05-27T09:26:49Z</time>
</trkpt>
<trkpt lat="47.93388" lon="11.10483">
<ele>523.002</ele>
<time>2022-05-27T09:26:50Z</time>
</trkpt>
<trkpt lat="47.933826" lon="11.104814">
<ele>523.002</ele>
<time>2022-05-27T09:26:51Z</time>
</trkpt>
<trkpt lat="47.933781" lon="11.104793">
<ele>523.002</ele>
<time>2022-05-27T09:26:52Z</time>
</trkpt>
<trkpt lat="47.933727" lon="11.104772">
<ele>522.761</ele>
<time>2022-05-27T09:26:53Z</time>
</trkpt>
<trkpt lat="47.933674" lon="11.104751">
<ele>522.575</ele>
<time>2022-05-27T09:26:54Z</time>
</trkpt>
<trkpt lat="47.93362" lon="11.104728">
<ele>522.437</ele>
<time>2022-05-27T09:26:55Z</time>
</trkpt>
<trkpt lat="47.933575" lon="11.104707">
<ele>522.534</ele>
<time>2022-05-27T09:26:56Z</time>
</trkpt>
<trkpt lat="47.933525" lon="11.104683">
<ele>522.618</ele>
<time>2022-05-27T09:26:57Z</time>
</trkpt>
<trkpt lat="47.933479" lon="11.104663">
<ele>522.605</ele>
<time>2022-05-27T09:26:58Z</time>
</trkpt>
<trkpt lat="47.933434" lon="11.104648">
<ele>522.7</ele>
<time>2022-05-27T09:26:59Z</time>
</trkpt>
<trkpt lat="47.933392" lon="11.104627">
<ele>522.785</ele>
<time>2022-05-27T09:27:00Z</time>
</trkpt>
<trkpt lat="47.933357" lon="11.104602">
<ele>522.862</ele>
<time>2022-05-27T09:27:01Z</time>
</trkpt>
<trkpt lat="47.933323" lon="11.104579">
<ele>522.932</ele>
<time>2022-05-27T09:27:02Z</time>
</trkpt>
<trkpt lat="47.933289" lon="11.104553">
<ele>522.978</ele>
<time>2022-05-27T09:27:03Z</time>
</trkpt>
<trkpt lat="47.933254" lon="11.10453">
<ele>523.002</ele>
<time>2022-05-27T09:27:04Z</time>
</trkpt>
<trkpt lat="47.933212" lon="11.104508">
<ele>523.002</ele>
<time>2022-05-27T09:27:05Z</time>
</trkpt>
<trkpt lat="47.933174" lon="11.104484">
<ele>523.002</ele>
<time>2022-05-27T09:27:06Z</time>
</trkpt>
<trkpt lat="47.93314" lon="11.10446">
<ele>523.002</ele>
<time>2022-05-27T09:27:07Z</time>
</trkpt>
<trkpt lat="47.933113" lon="11.104448">
<ele>523.002</ele>
<time>2022-05-27T09:27:08Z</time>
</trkpt>
<trkpt lat="47.933071" lon="11.10444">
<ele>523.231</ele>
<time>2022-05-27T09:27:09Z</time>
</trkpt>
<trkpt lat="47.933029" lon="11.104428">
<ele>523.429</ele>
<time>2022-05-27T09:27:10Z</time>
</trkpt>
<trkpt lat="47.93298" lon="11.104418">
<ele>523.592</ele>
<time>2022-05-27T09:27:11Z</time>
</trkpt>
<trkpt lat="47.932934" lon="11.10441">
<ele>523.718</ele>
<time>2022-05-27T09:27:12Z</time>
</trkpt>
<trkpt lat="47.932892" lon="11.104401">
<ele>523.791</ele>
<time>2022-05-27T09:27:13Z</time>
</trkpt>
<trkpt lat="47.932838" lon="11.104394">
<ele>524.099</ele>
<time>2022-05-27T09:27:14Z</time>
</trkpt>
<trkpt lat="47.932793" lon="11.104388">
<ele>524.603</ele>
<time>2022-05-27T09:27:15Z</time>
</trkpt>
<trkpt lat="47.932751" lon="11.104375">
<ele>524.97</ele>
<time>2022-05-27T09:27:16Z</time>
</trkpt>
<trkpt lat="47.932709" lon="11.104361">
<ele>525.177</ele>
<time>2022-05-27T09:27:17Z</time>
</trkpt>
<trkpt lat="47.932674" lon="11.104343">
<ele>525.602</ele>
<time>2022-05-27T09:27:18Z</time>
</trkpt>
<trkpt lat="47.932636" lon="11.104323">
<ele>525.97</ele>
<time>2022-05-27T09:27:19Z</time>
</trkpt>
<trkpt lat="47.932598" lon="11.104304">
<ele>526.257</ele>
<time>2022-05-27T09:27:20Z</time>
</trkpt>
<trkpt lat="47.932556" lon="11.104288">
<ele>526.437</ele>
<time>2022-05-27T09:27:21Z</time>
</trkpt>
<trkpt lat="47.93251" lon="11.10427">
<ele>526.8</ele>
<time>2022-05-27T09:27:22Z</time>
</trkpt>
<trkpt lat="47.932472" lon="11.104257">
<ele>527.092</ele>
<time>2022-05-27T09:27:23Z</time>
</trkpt>
<trkpt lat="47.93243" lon="11.104243">
<ele>527.274</ele>
<time>2022-05-27T09:27:24Z</time>
</trkpt>
<trkpt lat="47.932388" lon="11.104233">
<ele>527.658</ele>
<time>2022-05-27T09:27:25Z</time>
</trkpt>
<trkpt lat="47.932346" lon="11.104222">
<ele>527.982</ele>
<time>2022-05-27T09:27:26Z</time>
</trkpt>
<trkpt lat="47.932301" lon="11.104206">
<ele>528.172</ele>
<time>2022-05-27T09:27:27Z</time>
</trkpt>
<trkpt lat="47.932259" lon="11.104192">
<ele>528.306</ele>
<time>2022-05-27T09:27:28Z</time>
</trkpt>
<trkpt lat="47.932217" lon="11.104177">
<ele>528.429</ele>
<time>2022-05-27T09:27:29Z</time>
</trkpt>
<trkpt lat="47.932171" lon="11.104163">
<ele>528.502</ele>
<time>2022-05-27T09:27:30Z</time>
</trkpt>
<trkpt lat="47.932125" lon="11.104149">
<ele>528.548</ele>
<time>2022-05-27T09:27:31Z</time>
</trkpt>
<trkpt lat="47.932083" lon="11.104135">
<ele>528.57</ele>
<time>2022-05-27T09:27:32Z</time>
</trkpt>
<trkpt lat="47.932041" lon="11.104125">
<ele>528.57</ele>
<time>2022-05-27T09:27:33Z</time>
</trkpt>
<trkpt lat="47.931995" lon="11.104116">
<ele>528.57</ele>
<time>2022-05-27T09:27:34Z</time>
</trkpt>
<trkpt lat="47.93195" lon="11.104124">
<ele>528.57</ele>
<time>2022-05-27T09:27:35Z</time>
</trkpt>
<trkpt lat="47.9319" lon="11.104128">
<ele>528.57</ele>
<time>2022-05-27T09:27:36Z</time>
</trkpt>
<trkpt lat="47.931854" lon="11.104136">
<ele>528.57</ele>
<time>2022-05-27T09:27:37Z</time>
</trkpt>
<trkpt lat="47.931797" lon="11.104149">
<ele>528.57</ele>
<time>2022-05-27T09:27:38Z</time>
</trkpt>
<trkpt lat="47.931751" lon="11.10416">
<ele>528.57</ele>
<time>2022-05-27T09:27:39Z</time>
</trkpt>
<trkpt lat="47.931702" lon="11.104172">
<ele>528.57</ele>
<time>2022-05-27T09:27:40Z</time>
</trkpt>
<trkpt lat="47.931652" lon="11.104183">
<ele>528.57</ele>
<time>2022-05-27T09:27:41Z</time>
</trkpt>
<trkpt lat="47.931602" lon="11.104197">
<ele>528.57</ele>
<time>2022-05-27T09:27:42Z</time>
</trkpt>
<trkpt lat="47.931557" lon="11.104206">
<ele>528.57</ele>
<time>2022-05-27T09:27:43Z</time>
</trkpt>
<trkpt lat="47.931507" lon="11.104218">
<ele>528.57</ele>
<time>2022-05-27T09:27:44Z</time>
</trkpt>
<trkpt lat="47.931458" lon="11.104229">
<ele>528.57</ele>
<time>2022-05-27T09:27:45Z</time>
</trkpt>
<trkpt lat="47.931404" lon="11.104239">
<ele>528.57</ele>
<time>2022-05-27T09:27:46Z</time>
</trkpt>
<trkpt lat="47.931358" lon="11.104252">
<ele>528.57</ele>
<time>2022-05-27T09:27:47Z</time>
</trkpt>
<trkpt lat="47.931305" lon="11.104266">
<ele>528.57</ele>
<time>2022-05-27T09:27:48Z</time>
</trkpt>
<trkpt lat="47.931252" lon="11.104281">
<ele>528.57</ele>
<time>2022-05-27T09:27:49Z</time>
</trkpt>
<trkpt lat="47.931202" lon="11.104299">
<ele>528.57</ele>
<time>2022-05-27T09:27:50Z</time>
</trkpt>
<trkpt lat="47.931149" lon="11.104319">
<ele>528.57</ele>
<time>2022-05-27T09:27:51Z</time>
</trkpt>
<trkpt lat="47.931099" lon="11.10434">
<ele>528.57</ele>
<time>2022-05-27T09:27:52Z</time>
</trkpt>
<trkpt lat="47.931046" lon="11.104362">
<ele>528.57</ele>
<time>2022-05-27T09:27:53Z</time>
</trkpt>
<trkpt lat="47.931" lon="11.10439">
<ele>528.57</ele>
<time>2022-05-27T09:27:54Z</time>
</trkpt>
<trkpt lat="47.93095" lon="11.104422">
<ele>528.57</ele>
<time>2022-05-27T09:27:55Z</time>
</trkpt>
<trkpt lat="47.930901" lon="11.104455">
<ele>528.57</ele>
<time>2022-05-27T09:27:56Z</time>
</trkpt>
<trkpt lat="47.930851" lon="11.104491">
<ele>528.57</ele>
<time>2022-05-27T09:27:57Z</time>
</trkpt>
<trkpt lat="47.930801" lon="11.10453">
<ele>528.57</ele>
<time>2022-05-27T09:27:58Z</time>
</trkpt>
<trkpt lat="47.930748" lon="11.10457">
<ele>528.57</ele>
<time>2022-05-27T09:27:59Z</time>
</trkpt>
<trkpt lat="47.930695" lon="11.104612">
<ele>528.57</ele>
<time>2022-05-27T09:28:00Z</time>
</trkpt>
<trkpt lat="47.930645" lon="11.104653">
<ele>528.311</ele>
<time>2022-05-27T09:28:01Z</time>
</trkpt>
<trkpt lat="47.930588" lon="11.104698">
<ele>528.114</ele>
<time>2022-05-27T09:28:02Z</time>
</trkpt>
<trkpt lat="47.930538" lon="11.104745">
<ele>527.964</ele>
<time>2022-05-27T09:28:03Z</time>
</trkpt>
<trkpt lat="47.930485" lon="11.104792">
<ele>527.878</ele>
<time>2022-05-27T09:28:04Z</time>
</trkpt>
<trkpt lat="47.930428" lon="11.104836">
<ele>527.55</ele>
<time>2022-05-27T09:28:05Z</time>
</trkpt>
<trkpt lat="47.93037" lon="11.104875">
<ele>527.339</ele>
<time>2022-05-27T09:28:06Z</time>
</trkpt>
<trkpt lat="47.930313" lon="11.104901">
<ele>526.742</ele>
<time>2022-05-27T09:28:07Z</time>
</trkpt>
<trkpt lat="47.930264" lon="11.104916">
<ele>526.311</ele>
<time>2022-05-27T09:28:08Z</time>
</trkpt>
<trkpt lat="47.930214" lon="11.104918">
<ele>525.919</ele>
<time>2022-05-27T09:28:09Z</time>
</trkpt>
<trkpt lat="47.930176" lon="11.104918">
<ele>525.614</ele>
<time>2022-05-27T09:28:10Z</time>
</trkpt>
<trkpt lat="47.930134" lon="11.104922">
<ele>525.385</ele>
<time>2022-05-27T09:28:11Z</time>
</trkpt>
<trkpt lat="47.930107" lon="11.104932">
<ele>525.236</ele>
<time>2022-05-27T09:28:12Z</time>
</trkpt>
<trkpt lat="47.930084" lon="11.104943">
<ele>524.922</ele>
<time>2022-05-27T09:28:13Z</time>
</trkpt>
<trkpt lat="47.930065" lon="11.104959">
<ele>524.684</ele>
<time>2022-05-27T09:28:14Z</time>
</trkpt>
<trkpt lat="47.930061" lon="11.10498">
<ele>524.48</ele>
<time>2022-05-27T09:28:15Z</time>
</trkpt>
<trkpt lat="47.930065" lon="11.105">
<ele>524.344</ele>
<time>2022-05-27T09:28:16Z</time>
</trkpt>
<trkpt lat="47.930069" lon="11.105033">
<ele>524.245</ele>
<time>2022-05-27T09:28:17Z</time>
</trkpt>
<trkpt lat="47.930084" lon="11.105065">
<ele>524.16</ele>
<time>2022-05-27T09:28:18Z</time>
</trkpt>
<trkpt lat="47.930099" lon="11.105103">
<ele>523.89</ele>
<time>2022-05-27T09:28:19Z</time>
</trkpt>
<trkpt lat="47.930111" lon="11.105148">
<ele>523.654</ele>
<time>2022-05-27T09:28:20Z</time>
</trkpt>
<trkpt lat="47.930126" lon="11.105201">
<ele>523.481</ele>
<time>2022-05-27T09:28:21Z</time>
</trkpt>
<trkpt lat="47.930134" lon="11.105255">
<ele>523.349</ele>
<time>2022-05-27T09:28:22Z</time>
</trkpt>
<trkpt lat="47.930141" lon="11.10532">
<ele>523.26</ele>
<time>2022-05-27T09:28:23Z</time>
</trkpt>
<trkpt lat="47.930161" lon="11.105396">
<ele>523.223</ele>
<time>2022-05-27T09:28:24Z</time>
</trkpt>
<trkpt lat="47.93018" lon="11.105482">
<ele>522.911</ele>
<time>2022-05-27T09:28:25Z</time>
</trkpt>
<trkpt lat="47.930199" lon="11.10557">
<ele>522.682</ele>
<time>2022-05-27T09:28:26Z</time>
</trkpt>
<trkpt lat="47.930222" lon="11.105659">
<ele>522.568</ele>
<time>2022-05-27T09:28:27Z</time>
</trkpt>
<trkpt lat="47.930241" lon="11.105755">
<ele>522.203</ele>
<time>2022-05-27T09:28:28Z</time>
</trkpt>
<trkpt lat="47.930264" lon="11.105855">
<ele>521.911</ele>
<time>2022-05-27T09:28:29Z</time>
</trkpt>
<trkpt lat="47.930271" lon="11.105957">
<ele>521.363</ele>
<time>2022-05-27T09:28:30Z</time>
</trkpt>
<trkpt lat="47.930283" lon="11.106056">
<ele>520.971</ele>
<time>2022-05-27T09:28:31Z</time>
</trkpt>
<trkpt lat="47.93029" lon="11.106156">
<ele>520.682</ele>
<time>2022-05-27T09:28:32Z</time>
</trkpt>
<trkpt lat="47.930294" lon="11.106256">
<ele>520.51</ele>
<time>2022-05-27T09:28:33Z</time>
</trkpt>
<trkpt lat="47.930302" lon="11.106352">
<ele>520.077</ele>
<time>2022-05-27T09:28:34Z</time>
</trkpt>
<trkpt lat="47.930317" lon="11.10645">
<ele>519.751</ele>
<time>2022-05-27T09:28:35Z</time>
</trkpt>
<trkpt lat="47.930328" lon="11.106555">
<ele>519.482</ele>
<time>2022-05-27T09:28:36Z</time>
</trkpt>
<trkpt lat="47.930347" lon="11.106657">
<ele>519.352</ele>
<time>2022-05-27T09:28:37Z</time>
</trkpt>
<trkpt lat="47.930359" lon="11.106762">
<ele>519.264</ele>
<time>2022-05-27T09:28:38Z</time>
</trkpt>
<trkpt lat="47.930374" lon="11.106858">
<ele>518.917</ele>
<time>2022-05-27T09:28:39Z</time>
</trkpt>
<trkpt lat="47.930386" lon="11.106956">
<ele>518.646</ele>
<time>2022-05-27T09:28:40Z</time>
</trkpt>
<trkpt lat="47.930393" lon="11.107053">
<ele>518.443</ele>
<time>2022-05-27T09:28:41Z</time>
</trkpt>
<trkpt lat="47.930397" lon="11.107148">
<ele>518.331</ele>
<time>2022-05-27T09:28:42Z</time>
</trkpt>
<trkpt lat="47.930401" lon="11.107238">
<ele>518.009</ele>
<time>2022-05-27T09:28:43Z</time>
</trkpt>
<trkpt lat="47.930401" lon="11.107326">
<ele>517.752</ele>
<time>2022-05-27T09:28:44Z</time>
</trkpt>
<trkpt lat="47.930401" lon="11.107409">
<ele>517.549</ele>
<time>2022-05-27T09:28:45Z</time>
</trkpt>
<trkpt lat="47.930401" lon="11.107487">
<ele>517.404</ele>
<time>2022-05-27T09:28:46Z</time>
</trkpt>
<trkpt lat="47.930401" lon="11.107564">
<ele>517.31</ele>
<time>2022-05-27T09:28:47Z</time>
</trkpt>
<trkpt lat="47.930405" lon="11.107635">
<ele>517.253</ele>
<time>2022-05-27T09:28:48Z</time>
</trkpt>
<trkpt lat="47.930408" lon="11.107695">
<ele>517.201</ele>
<time>2022-05-27T09:28:49Z</time>
</trkpt>
<trkpt lat="47.930412" lon="11.107752">
<ele>517.175</ele>
<time>2022-05-27T09:28:50Z</time>
</trkpt>
<trkpt lat="47.930416" lon="11.107812">
<ele>517.175</ele>
<time>2022-05-27T09:28:51Z</time>
</trkpt>
<trkpt lat="47.930416" lon="11.107863">
<ele>517.4</ele>
<time>2022-05-27T09:28:52Z</time>
</trkpt>
<trkpt lat="47.930424" lon="11.107914">
<ele>517.58</ele>
<time>2022-05-27T09:28:53Z</time>
</trkpt>
<trkpt lat="47.930428" lon="11.107964">
<ele>517.727</ele>
<time>2022-05-27T09:28:54Z</time>
</trkpt>
<trkpt lat="47.930435" lon="11.108015">
<ele>517.823</ele>
<time>2022-05-27T09:28:55Z</time>
</trkpt>
<trkpt lat="47.930439" lon="11.108065">
<ele>518.135</ele>
<time>2022-05-27T09:28:56Z</time>
</trkpt>
<trkpt lat="47.930447" lon="11.108124">
<ele>518.39</ele>
<time>2022-05-27T09:28:57Z</time>
</trkpt>
<trkpt lat="47.930458" lon="11.108178">
<ele>518.57</ele>
<time>2022-05-27T09:28:58Z</time>
</trkpt>
<trkpt lat="47.930466" lon="11.108227">
<ele>518.731</ele>
<time>2022-05-27T09:28:59Z</time>
</trkpt>
<trkpt lat="47.93047" lon="11.108276">
<ele>519.062</ele>
<time>2022-05-27T09:29:00Z</time>
</trkpt>
<trkpt lat="47.930473" lon="11.108323">
<ele>519.317</ele>
<time>2022-05-27T09:29:01Z</time>
</trkpt>
<trkpt lat="47.930477" lon="11.108358">
<ele>519.508</ele>
<time>2022-05-27T09:29:02Z</time>
</trkpt>
<trkpt lat="47.930473" lon="11.1084">
<ele>519.624</ele>
<time>2022-05-27T09:29:03Z</time>
</trkpt>
<trkpt lat="47.930477" lon="11.10844">
<ele>520.029</ele>
<time>2022-05-27T09:29:04Z</time>
</trkpt>
<trkpt lat="47.930481" lon="11.10847">
<ele>520.255</ele>
<time>2022-05-27T09:29:05Z</time>
</trkpt>
<trkpt lat="47.930481" lon="11.108505">
<ele>520.434</ele>
<time>2022-05-27T09:29:06Z</time>
</trkpt>
<trkpt lat="47.930485" lon="11.108528">
<ele>520.562</ele>
<time>2022-05-27T09:29:07Z</time>
</trkpt>
<trkpt lat="47.930489" lon="11.108543">
<ele>520.649</ele>
<time>2022-05-27T09:29:08Z</time>
</trkpt>
<trkpt lat="47.930489" lon="11.108555">
<ele>520.738</ele>
<time>2022-05-27T09:29:09Z</time>
</trkpt>
<trkpt lat="47.930477" lon="11.10861">
<ele>520.802</ele>
<time>2022-05-27T09:29:18Z</time>
</trkpt>
<trkpt lat="47.930458" lon="11.108614">
<ele>520.828</ele>
<time>2022-05-27T09:29:19Z</time>
</trkpt>
<trkpt lat="47.930439" lon="11.108608">
<ele>520.828</ele>
<time>2022-05-27T09:29:20Z</time>
</trkpt>
<trkpt lat="47.93042" lon="11.10861">
<ele>520.828</ele>
<time>2022-05-27T09:29:21Z</time>
</trkpt>
<trkpt lat="47.930393" lon="11.108616">
<ele>520.827</ele>
<time>2022-05-27T09:29:22Z</time>
</trkpt>
<trkpt lat="47.930359" lon="11.108624">
<ele>520.574</ele>
<time>2022-05-27T09:29:23Z</time>
</trkpt>
<trkpt lat="47.930328" lon="11.108635">
<ele>520.384</ele>
<time>2022-05-27T09:29:24Z</time>
</trkpt>
<trkpt lat="47.930294" lon="11.108644">
<ele>520.254</ele>
<time>2022-05-27T09:29:25Z</time>
</trkpt>
<trkpt lat="47.93026" lon="11.108648">
<ele>520.199</ele>
<time>2022-05-27T09:29:26Z</time>
</trkpt>
<trkpt lat="47.930218" lon="11.108655">
<ele>520.065</ele>
<time>2022-05-27T09:29:27Z</time>
</trkpt>
<trkpt lat="47.93018" lon="11.108665">
<ele>520.008</ele>
<time>2022-05-27T09:29:28Z</time>
</trkpt>
<trkpt lat="47.930134" lon="11.108679">
<ele>519.973</ele>
<time>2022-05-27T09:29:29Z</time>
</trkpt>
<trkpt lat="47.930092" lon="11.108695">
<ele>519.958</ele>
<time>2022-05-27T09:29:30Z</time>
</trkpt>
<trkpt lat="47.930042" lon="11.10871">
<ele>519.958</ele>
<time>2022-05-27T09:29:31Z</time>
</trkpt>
<trkpt lat="47.929989" lon="11.108725">
<ele>519.657</ele>
<time>2022-05-27T09:29:32Z</time>
</trkpt>
<trkpt lat="47.929935" lon="11.108742">
<ele>519.433</ele>
<time>2022-05-27T09:29:33Z</time>
</trkpt>
<trkpt lat="47.929874" lon="11.108763">
<ele>519.266</ele>
<time>2022-05-27T09:29:34Z</time>
</trkpt>
<trkpt lat="47.929817" lon="11.108784">
<ele>519.181</ele>
<time>2022-05-27T09:29:35Z</time>
</trkpt>
<trkpt lat="47.929752" lon="11.108803">
<ele>518.842</ele>
<time>2022-05-27T09:29:36Z</time>
</trkpt>
<trkpt lat="47.929688" lon="11.10882">
<ele>518.55</ele>
<time>2022-05-27T09:29:37Z</time>
</trkpt>
<trkpt lat="47.929626" lon="11.108829">
<ele>518.334</ele>
<time>2022-05-27T09:29:38Z</time>
</trkpt>
<trkpt lat="47.929569" lon="11.108827">
<ele>518.185</ele>
<time>2022-05-27T09:29:39Z</time>
</trkpt>
<trkpt lat="47.929512" lon="11.108815">
<ele>518.092</ele>
<time>2022-05-27T09:29:40Z</time>
</trkpt>
<trkpt lat="47.929459" lon="11.108798">
<ele>518.024</ele>
<time>2022-05-27T09:29:41Z</time>
</trkpt>
<trkpt lat="47.929405" lon="11.108778">
<ele>517.98</ele>
<time>2022-05-27T09:29:42Z</time>
</trkpt>
<trkpt lat="47.929348" lon="11.10876">
<ele>517.958</ele>
<time>2022-05-27T09:29:43Z</time>
</trkpt>
<trkpt lat="47.929295" lon="11.10874">
<ele>517.958</ele>
<time>2022-05-27T09:29:44Z</time>
</trkpt>
<trkpt lat="47.929245" lon="11.108721">
<ele>517.958</ele>
<time>2022-05-27T09:29:45Z</time>
</trkpt>
<trkpt lat="47.929192" lon="11.108702">
<ele>517.958</ele>
<time>2022-05-27T09:29:46Z</time>
</trkpt>
<trkpt lat="47.929142" lon="11.108681">
<ele>517.958</ele>
<time>2022-05-27T09:29:47Z</time>
</trkpt>
<trkpt lat="47.929089" lon="11.108656">
<ele>517.958</ele>
<time>2022-05-27T09:29:48Z</time>
</trkpt>
<trkpt lat="47.929031" lon="11.108637">
<ele>517.958</ele>
<time>2022-05-27T09:29:49Z</time>
</trkpt>
<trkpt lat="47.928982" lon="11.108616">
<ele>517.958</ele>
<time>2022-05-27T09:29:50Z</time>
</trkpt>
<trkpt lat="47.928925" lon="11.108597">
<ele>517.958</ele>
<time>2022-05-27T09:29:51Z</time>
</trkpt>
<trkpt lat="47.928875" lon="11.108575">
<ele>517.958</ele>
<time>2022-05-27T09:29:52Z</time>
</trkpt>
<trkpt lat="47.928825" lon="11.108553">
<ele>517.958</ele>
<time>2022-05-27T09:29:53Z</time>
</trkpt>
<trkpt lat="47.928772" lon="11.10853">
<ele>517.958</ele>
<time>2022-05-27T09:29:54Z</time>
</trkpt>
<trkpt lat="47.928722" lon="11.108509">
<ele>517.958</ele>
<time>2022-05-27T09:29:55Z</time>
</trkpt>
<trkpt lat="47.928665" lon="11.108488">
<ele>517.958</ele>
<time>2022-05-27T09:29:56Z</time>
</trkpt>
<trkpt lat="47.928616" lon="11.108467">
<ele>517.958</ele>
<time>2022-05-27T09:29:57Z</time>
</trkpt>
<trkpt lat="47.928566" lon="11.108443">
<ele>517.958</ele>
<time>2022-05-27T09:29:58Z</time>
</trkpt>
<trkpt lat="47.928513" lon="11.108421">
<ele>517.958</ele>
<time>2022-05-27T09:29:59Z</time>
</trkpt>
<trkpt lat="47.928459" lon="11.1084">
<ele>517.958</ele>
<time>2022-05-27T09:30:00Z</time>
</trkpt>
<trkpt lat="47.928406" lon="11.108375">
<ele>517.958</ele>
<time>2022-05-27T09:30:01Z</time>
</trkpt>
<trkpt lat="47.928356" lon="11.108352">
<ele>518.21</ele>
<time>2022-05-27T09:30:02Z</time>
</trkpt>
<trkpt lat="47.928307" lon="11.108329">
<ele>518.408</ele>
<time>2022-05-27T09:30:03Z</time>
</trkpt>
<trkpt lat="47.928249" lon="11.108306">
<ele>518.56</ele>
<time>2022-05-27T09:30:04Z</time>
</trkpt>
<trkpt lat="47.928196" lon="11.108283">
<ele>518.677</ele>
<time>2022-05-27T09:30:05Z</time>
</trkpt>
<trkpt lat="47.928143" lon="11.108256">
<ele>518.756</ele>
<time>2022-05-27T09:30:06Z</time>
</trkpt>
<trkpt lat="47.928097" lon="11.108231">
<ele>518.838</ele>
<time>2022-05-27T09:30:07Z</time>
</trkpt>
<trkpt lat="47.928047" lon="11.108207">
<ele>518.889</ele>
<time>2022-05-27T09:30:08Z</time>
</trkpt>
<trkpt lat="47.92799" lon="11.108182">
<ele>518.914</ele>
<time>2022-05-27T09:30:09Z</time>
</trkpt>
<trkpt lat="47.927937" lon="11.108157">
<ele>518.914</ele>
<time>2022-05-27T09:30:10Z</time>
</trkpt>
<trkpt lat="47.927883" lon="11.108131">
<ele>518.914</ele>
<time>2022-05-27T09:30:11Z</time>
</trkpt>
<trkpt lat="47.927826" lon="11.108107">
<ele>518.914</ele>
<time>2022-05-27T09:30:12Z</time>
</trkpt>
<trkpt lat="47.927773" lon="11.108082">
<ele>519.141</ele>
<time>2022-05-27T09:30:13Z</time>
</trkpt>
<trkpt lat="47.927715" lon="11.108057">
<ele>519.32</ele>
<time>2022-05-27T09:30:14Z</time>
</trkpt>
<trkpt lat="47.927658" lon="11.108037">
<ele>519.458</ele>
<time>2022-05-27T09:30:15Z</time>
</trkpt>
<trkpt lat="47.927605" lon="11.108013">
<ele>519.547</ele>
<time>2022-05-27T09:30:16Z</time>
</trkpt>
<trkpt lat="47.927551" lon="11.107991">
<ele>519.644</ele>
<time>2022-05-27T09:30:17Z</time>
</trkpt>
<trkpt lat="47.927498" lon="11.107971">
<ele>519.715</ele>
<time>2022-05-27T09:30:18Z</time>
</trkpt>
<trkpt lat="47.927448" lon="11.107948">
<ele>519.762</ele>
<time>2022-05-27T09:30:19Z</time>
</trkpt>
<trkpt lat="47.927395" lon="11.107926">
<ele>519.784</ele>
<time>2022-05-27T09:30:20Z</time>
</trkpt>
<trkpt lat="47.927345" lon="11.107905">
<ele>519.784</ele>
<time>2022-05-27T09:30:21Z</time>
</trkpt>
<trkpt lat="47.927296" lon="11.107879">
<ele>519.784</ele>
<time>2022-05-27T09:30:22Z</time>
</trkpt>
<trkpt lat="47.927242" lon="11.107855">
<ele>519.784</ele>
<time>2022-05-27T09:30:23Z</time>
</trkpt>
<trkpt lat="47.927193" lon="11.107835">
<ele>519.784</ele>
<time>2022-05-27T09:30:24Z</time>
</trkpt>
<trkpt lat="47.927139" lon="11.107816">
<ele>519.784</ele>
<time>2022-05-27T09:30:25Z</time>
</trkpt>
<trkpt lat="47.927086" lon="11.107795">
<ele>519.996</ele>
<time>2022-05-27T09:30:26Z</time>
</trkpt>
<trkpt lat="47.927036" lon="11.107776">
<ele>520.198</ele>
<time>2022-05-27T09:30:27Z</time>
</trkpt>
<trkpt lat="47.926983" lon="11.107755">
<ele>520.364</ele>
<time>2022-05-27T09:30:28Z</time>
</trkpt>
<trkpt lat="47.926937" lon="11.107737">
<ele>520.496</ele>
<time>2022-05-27T09:30:29Z</time>
</trkpt>
<trkpt lat="47.926891" lon="11.107723">
<ele>520.596</ele>
<time>2022-05-27T09:30:30Z</time>
</trkpt>
<trkpt lat="47.926846" lon="11.107711">
<ele>520.67</ele>
<time>2022-05-27T09:30:31Z</time>
</trkpt>
<trkpt lat="47.926804" lon="11.107697">
<ele>520.717</ele>
<time>2022-05-27T09:30:32Z</time>
</trkpt>
<trkpt lat="47.926762" lon="11.107681">
<ele>520.741</ele>
<time>2022-05-27T09:30:33Z</time>
</trkpt>
<trkpt lat="47.92672" lon="11.107665">
<ele>520.74</ele>
<time>2022-05-27T09:30:34Z</time>
</trkpt>
<trkpt lat="47.926678" lon="11.107646">
<ele>520.74</ele>
<time>2022-05-27T09:30:35Z</time>
</trkpt>
<trkpt lat="47.926643" lon="11.107621">
<ele>520.74</ele>
<time>2022-05-27T09:30:36Z</time>
</trkpt>
<trkpt lat="47.926605" lon="11.107583">
<ele>520.741</ele>
<time>2022-05-27T09:30:37Z</time>
</trkpt>
<trkpt lat="47.926579" lon="11.107531">
<ele>520.74</ele>
<time>2022-05-27T09:30:38Z</time>
</trkpt>
<trkpt lat="47.926563" lon="11.107467">
<ele>520.74</ele>
<time>2022-05-27T09:30:39Z</time>
</trkpt>
<trkpt lat="47.926552" lon="11.1074">
<ele>520.74</ele>
<time>2022-05-27T09:30:40Z</time>
</trkpt>
<trkpt lat="47.926548" lon="11.107331">
<ele>520.741</ele>
<time>2022-05-27T09:30:41Z</time>
</trkpt>
<trkpt lat="47.926544" lon="11.107262">
<ele>520.74</ele>
<time>2022-05-27T09:30:42Z</time>
</trkpt>
<trkpt lat="47.926544" lon="11.107189">
<ele>520.74</ele>
<time>2022-05-27T09:30:43Z</time>
</trkpt>
<trkpt lat="47.926544" lon="11.107119">
<ele>520.74</ele>
<time>2022-05-27T09:30:44Z</time>
</trkpt>
<trkpt lat="47.926537" lon="11.107047">
<ele>520.978</ele>
<time>2022-05-27T09:30:45Z</time>
</trkpt>
<trkpt lat="47.926533" lon="11.106976">
<ele>521.144</ele>
<time>2022-05-27T09:30:46Z</time>
</trkpt>
<trkpt lat="47.926529" lon="11.106907">
<ele>521.313</ele>
<time>2022-05-27T09:30:47Z</time>
</trkpt>
<trkpt lat="47.926525" lon="11.106837">
<ele>521.448</ele>
<time>2022-05-27T09:30:48Z</time>
</trkpt>
<trkpt lat="47.926517" lon="11.106767">
<ele>521.552</ele>
<time>2022-05-27T09:30:49Z</time>
</trkpt>
<trkpt lat="47.926514" lon="11.106697">
<ele>521.626</ele>
<time>2022-05-27T09:30:50Z</time>
</trkpt>
<trkpt lat="47.926514" lon="11.10663">
<ele>521.673</ele>
<time>2022-05-27T09:30:51Z</time>
</trkpt>
<trkpt lat="47.92651" lon="11.106562">
<ele>521.697</ele>
<time>2022-05-27T09:30:52Z</time>
</trkpt>
<trkpt lat="47.926506" lon="11.106496">
<ele>521.697</ele>
<time>2022-05-27T09:30:53Z</time>
</trkpt>
<trkpt lat="47.926502" lon="11.106433">
<ele>521.91</ele>
<time>2022-05-27T09:30:54Z</time>
</trkpt>
<trkpt lat="47.926498" lon="11.106374">
<ele>522.08</ele>
<time>2022-05-27T09:30:55Z</time>
</trkpt>
<trkpt lat="47.926495" lon="11.106316">
<ele>522.199</ele>
<time>2022-05-27T09:30:56Z</time>
</trkpt>
<trkpt lat="47.926491" lon="11.106258">
<ele>522.324</ele>
<time>2022-05-27T09:30:57Z</time>
</trkpt>
<trkpt lat="47.926491" lon="11.106196">
<ele>522.423</ele>
<time>2022-05-27T09:30:58Z</time>
</trkpt>
<trkpt lat="47.926487" lon="11.106137">
<ele>522.496</ele>
<time>2022-05-27T09:30:59Z</time>
</trkpt>
<trkpt lat="47.926479" lon="11.106075">
<ele>522.543</ele>
<time>2022-05-27T09:31:00Z</time>
</trkpt>
<trkpt lat="47.926479" lon="11.106016">
<ele>522.567</ele>
<time>2022-05-27T09:31:01Z</time>
</trkpt>
<trkpt lat="47.926472" lon="11.105955">
<ele>522.567</ele>
<time>2022-05-27T09:31:02Z</time>
</trkpt>
<trkpt lat="47.926468" lon="11.105895">
<ele>522.567</ele>
<time>2022-05-27T09:31:03Z</time>
</trkpt>
<trkpt lat="47.926468" lon="11.105836">
<ele>522.567</ele>
<time>2022-05-27T09:31:04Z</time>
</trkpt>
<trkpt lat="47.926464" lon="11.105782">
<ele>522.567</ele>
<time>2022-05-27T09:31:05Z</time>
</trkpt>
<trkpt lat="47.92646" lon="11.105728">
<ele>522.567</ele>
<time>2022-05-27T09:31:06Z</time>
</trkpt>
<trkpt lat="47.926456" lon="11.105675">
<ele>522.567</ele>
<time>2022-05-27T09:31:07Z</time>
</trkpt>
<trkpt lat="47.926453" lon="11.105624">
<ele>522.843</ele>
<time>2022-05-27T09:31:08Z</time>
</trkpt>
<trkpt lat="47.926453" lon="11.105577">
<ele>523.057</ele>
<time>2022-05-27T09:31:09Z</time>
</trkpt>
<trkpt lat="47.926449" lon="11.105536">
<ele>523.219</ele>
<time>2022-05-27T09:31:10Z</time>
</trkpt>
<trkpt lat="47.926437" lon="11.105505">
<ele>523.327</ele>
<time>2022-05-27T09:31:11Z</time>
</trkpt>
<trkpt lat="47.926418" lon="11.105482">
<ele>523.656</ele>
<time>2022-05-27T09:31:12Z</time>
</trkpt>
<trkpt lat="47.926392" lon="11.105469">
<ele>523.909</ele>
<time>2022-05-27T09:31:13Z</time>
</trkpt>
<trkpt lat="47.926361" lon="11.105458">
<ele>524.101</ele>
<time>2022-05-27T09:31:14Z</time>
</trkpt>
<trkpt lat="47.926334" lon="11.105449">
<ele>524.218</ele>
<time>2022-05-27T09:31:15Z</time>
</trkpt>
<trkpt lat="47.9263" lon="11.105444">
<ele>524.306</ele>
<time>2022-05-27T09:31:16Z</time>
</trkpt>
<trkpt lat="47.926266" lon="11.105438">
<ele>524.397</ele>
<time>2022-05-27T09:31:17Z</time>
</trkpt>
<trkpt lat="47.926228" lon="11.105435">
<ele>524.456</ele>
<time>2022-05-27T09:31:18Z</time>
</trkpt>
<trkpt lat="47.926193" lon="11.105432">
<ele>524.481</ele>
<time>2022-05-27T09:31:19Z</time>
</trkpt>
<trkpt lat="47.926155" lon="11.105427">
<ele>524.481</ele>
<time>2022-05-27T09:31:20Z</time>
</trkpt>
<trkpt lat="47.926117" lon="11.105423">
<ele>524.48</ele>
<time>2022-05-27T09:31:21Z</time>
</trkpt>
<trkpt lat="47.926075" lon="11.105421">
<ele>524.48</ele>
<time>2022-05-27T09:31:22Z</time>
</trkpt>
<trkpt lat="47.926037" lon="11.105418">
<ele>524.48</ele>
<time>2022-05-27T09:31:23Z</time>
</trkpt>
<trkpt lat="47.925995" lon="11.105414">
<ele>524.48</ele>
<time>2022-05-27T09:31:24Z</time>
</trkpt>
<trkpt lat="47.925957" lon="11.105407">
<ele>524.48</ele>
<time>2022-05-27T09:31:25Z</time>
</trkpt>
<trkpt lat="47.925922" lon="11.105393">
<ele>524.48</ele>
<time>2022-05-27T09:31:26Z</time>
</trkpt>
<trkpt lat="47.925884" lon="11.105379">
<ele>524.48</ele>
<time>2022-05-27T09:31:27Z</time>
</trkpt>
<trkpt lat="47.925846" lon="11.10536">
<ele>524.48</ele>
<time>2022-05-27T09:31:28Z</time>
</trkpt>
<trkpt lat="47.925808" lon="11.105344">
<ele>524.481</ele>
<time>2022-05-27T09:31:29Z</time>
</trkpt>
<trkpt lat="47.925766" lon="11.105331">
<ele>524.481</ele>
<time>2022-05-27T09:31:30Z</time>
</trkpt>
<trkpt lat="47.925728" lon="11.105327">
<ele>524.48</ele>
<time>2022-05-27T09:31:31Z</time>
</trkpt>
<trkpt lat="47.925686" lon="11.105325">
<ele>524.48</ele>
<time>2022-05-27T09:31:32Z</time>
</trkpt>
<trkpt lat="47.925648" lon="11.105323">
<ele>524.481</ele>
<time>2022-05-27T09:31:33Z</time>
</trkpt>
<trkpt lat="47.925606" lon="11.105322">
<ele>524.481</ele>
<time>2022-05-27T09:31:34Z</time>
</trkpt>
<trkpt lat="47.925568" lon="11.105316">
<ele>524.481</ele>
<time>2022-05-27T09:31:35Z</time>
</trkpt>
<trkpt lat="47.925529" lon="11.105311">
<ele>524.48</ele>
<time>2022-05-27T09:31:36Z</time>
</trkpt>
<trkpt lat="47.925491" lon="11.105307">
<ele>524.48</ele>
<time>2022-05-27T09:31:37Z</time>
</trkpt>
<trkpt lat="47.925449" lon="11.105306">
<ele>524.481</ele>
<time>2022-05-27T09:31:38Z</time>
</trkpt>
<trkpt lat="47.925407" lon="11.105307">
<ele>524.48</ele>
<time>2022-05-27T09:31:39Z</time>
</trkpt>
<trkpt lat="47.925365" lon="11.105314">
<ele>524.48</ele>
<time>2022-05-27T09:31:40Z</time>
</trkpt>
<trkpt lat="47.92532" lon="11.105329">
<ele>524.481</ele>
<time>2022-05-27T09:31:41Z</time>
</trkpt>
<trkpt lat="47.925274" lon="11.105339">
<ele>524.481</ele>
<time>2022-05-27T09:31:42Z</time>
</trkpt>
<trkpt lat="47.925224" lon="11.105345">
<ele>524.48</ele>
<time>2022-05-27T09:31:43Z</time>
</trkpt>
<trkpt lat="47.925175" lon="11.105348">
<ele>524.48</ele>
<time>2022-05-27T09:31:44Z</time>
</trkpt>
<trkpt lat="47.925125" lon="11.105351">
<ele>524.48</ele>
<time>2022-05-27T09:31:45Z</time>
</trkpt>
<trkpt lat="47.925079" lon="11.105348">
<ele>524.48</ele>
<time>2022-05-27T09:31:46Z</time>
</trkpt>
<trkpt lat="47.92503" lon="11.105342">
<ele>524.72</ele>
<time>2022-05-27T09:31:47Z</time>
</trkpt>
<trkpt lat="47.924984" lon="11.105331">
<ele>524.913</ele>
<time>2022-05-27T09:31:48Z</time>
</trkpt>
<trkpt lat="47.92495" lon="11.105323">
<ele>525.069</ele>
<time>2022-05-27T09:31:49Z</time>
</trkpt>
<trkpt lat="47.924915" lon="11.105318">
<ele>525.192</ele>
<time>2022-05-27T09:31:50Z</time>
</trkpt>
<trkpt lat="47.924885" lon="11.105322">
<ele>525.289</ele>
<time>2022-05-27T09:31:51Z</time>
</trkpt>
<trkpt lat="47.92485" lon="11.105329">
<ele>525.362</ele>
<time>2022-05-27T09:31:52Z</time>
</trkpt>
<trkpt lat="47.924816" lon="11.10534">
<ele>525.411</ele>
<time>2022-05-27T09:31:53Z</time>
</trkpt>
<trkpt lat="47.924782" lon="11.105353">
<ele>525.437</ele>
<time>2022-05-27T09:31:54Z</time>
</trkpt>
<trkpt lat="47.924747" lon="11.105369">
<ele>525.437</ele>
<time>2022-05-27T09:31:55Z</time>
</trkpt>
<trkpt lat="47.924709" lon="11.10538">
<ele>525.437</ele>
<time>2022-05-27T09:31:56Z</time>
</trkpt>
<trkpt lat="47.924671" lon="11.105392">
<ele>525.437</ele>
<time>2022-05-27T09:31:57Z</time>
</trkpt>
<trkpt lat="47.924637" lon="11.1054">
<ele>525.437</ele>
<time>2022-05-27T09:31:58Z</time>
</trkpt>
<trkpt lat="47.92461" lon="11.105404">
<ele>525.437</ele>
<time>2022-05-27T09:31:59Z</time>
</trkpt>
<trkpt lat="47.92458" lon="11.105405">
<ele>525.437</ele>
<time>2022-05-27T09:32:00Z</time>
</trkpt>
<trkpt lat="47.924553" lon="11.105404">
<ele>525.437</ele>
<time>2022-05-27T09:32:01Z</time>
</trkpt>
<trkpt lat="47.92453" lon="11.105405">
<ele>525.437</ele>
<time>2022-05-27T09:32:02Z</time>
</trkpt>
<trkpt lat="47.924507" lon="11.105407">
<ele>525.437</ele>
<time>2022-05-27T09:32:03Z</time>
</trkpt>
<trkpt lat="47.924488" lon="11.105411">
<ele>525.437</ele>
<time>2022-05-27T09:32:04Z</time>
</trkpt>
<trkpt lat="47.924465" lon="11.105414">
<ele>525.437</ele>
<time>2022-05-27T09:32:05Z</time>
</trkpt>
<trkpt lat="47.924446" lon="11.105418">
<ele>525.437</ele>
<time>2022-05-27T09:32:06Z</time>
</trkpt>
<trkpt lat="47.924427" lon="11.105416">
<ele>525.437</ele>
<time>2022-05-27T09:32:07Z</time>
</trkpt>
<trkpt lat="47.924416" lon="11.105414">
<ele>525.437</ele>
<time>2022-05-27T09:32:08Z</time>
</trkpt>
<trkpt lat="47.924404" lon="11.105414">
<ele>525.437</ele>
<time>2022-05-27T09:32:09Z</time>
</trkpt>
<trkpt lat="47.924393" lon="11.105414">
<ele>525.437</ele>
<time>2022-05-27T09:32:10Z</time>
</trkpt>
<trkpt lat="47.924385" lon="11.105414">
<ele>525.437</ele>
<time>2022-05-27T09:32:11Z</time>
</trkpt>
<trkpt lat="47.924385" lon="11.105413">
<ele>525.437</ele>
<time>2022-05-27T09:32:12Z</time>
</trkpt>
<trkpt lat="47.924389" lon="11.105412">
<ele>525.437</ele>
<time>2022-05-27T09:32:13Z</time>
</trkpt>
<trkpt lat="47.924366" lon="11.105409">
<ele>525.437</ele>
<time>2022-05-27T09:32:20Z</time>
</trkpt>
<trkpt lat="47.924358" lon="11.105411">
<ele>525.225</ele>
<time>2022-05-27T09:32:21Z</time>
</trkpt>
<trkpt lat="47.924351" lon="11.105413">
<ele>525.041</ele>
<time>2022-05-27T09:32:22Z</time>
</trkpt>
<trkpt lat="47.924347" lon="11.105413">
<ele>524.858</ele>
<time>2022-05-27T09:32:23Z</time>
</trkpt>
<trkpt lat="47.924339" lon="11.105418">
<ele>524.701</ele>
<time>2022-05-27T09:32:24Z</time>
</trkpt>
<trkpt lat="47.924332" lon="11.10542">
<ele>524.579</ele>
<time>2022-05-27T09:32:25Z</time>
</trkpt>
<trkpt lat="47.924324" lon="11.105423">
<ele>524.499</ele>
<time>2022-05-27T09:32:26Z</time>
</trkpt>
<trkpt lat="47.924316" lon="11.105425">
<ele>524.49</ele>
<time>2022-05-27T09:32:27Z</time>
</trkpt>
<trkpt lat="47.924309" lon="11.105427">
<ele>524.48</ele>
<time>2022-05-27T09:32:28Z</time>
</trkpt>
<trkpt lat="47.924309" lon="11.105429">
<ele>524.48</ele>
<time>2022-05-27T09:32:29Z</time>
</trkpt>
<trkpt lat="47.924305" lon="11.105429">
<ele>524.481</ele>
<time>2022-05-27T09:32:30Z</time>
</trkpt>
<trkpt lat="47.924248" lon="11.10542">
<ele>524.48</ele>
<time>2022-05-27T09:32:48Z</time>
</trkpt>
<trkpt lat="47.924236" lon="11.105427">
<ele>524.481</ele>
<time>2022-05-27T09:32:49Z</time>
</trkpt>
<trkpt lat="47.924225" lon="11.105432">
<ele>524.48</ele>
<time>2022-05-27T09:32:50Z</time>
</trkpt>
<trkpt lat="47.92421" lon="11.105438">
<ele>524.48</ele>
<time>2022-05-27T09:32:51Z</time>
</trkpt>
<trkpt lat="47.924198" lon="11.105442">
<ele>524.48</ele>
<time>2022-05-27T09:32:52Z</time>
</trkpt>
<trkpt lat="47.924183" lon="11.105449">
<ele>524.48</ele>
<time>2022-05-27T09:32:53Z</time>
</trkpt>
<trkpt lat="47.924171" lon="11.105452">
<ele>524.48</ele>
<time>2022-05-27T09:32:54Z</time>
</trkpt>
<trkpt lat="47.924171" lon="11.105456">
<ele>524.48</ele>
<time>2022-05-27T09:32:55Z</time>
</trkpt>
<trkpt lat="47.924168" lon="11.105461">
<ele>524.481</ele>
<time>2022-05-27T09:32:56Z</time>
</trkpt>
<trkpt lat="47.92416" lon="11.10546">
<ele>524.48</ele>
<time>2022-05-27T09:33:01Z</time>
</trkpt>
<trkpt lat="47.924156" lon="11.10546">
<ele>524.48</ele>
<time>2022-05-27T09:33:02Z</time>
</trkpt>
<trkpt lat="47.924152" lon="11.105456">
<ele>524.481</ele>
<time>2022-05-27T09:33:03Z</time>
</trkpt>
<trkpt lat="47.924145" lon="11.105454">
<ele>524.48</ele>
<time>2022-05-27T09:33:04Z</time>
</trkpt>
<trkpt lat="47.924137" lon="11.105454">
<ele>524.48</ele>
<time>2022-05-27T09:33:05Z</time>
</trkpt>
<trkpt lat="47.924133" lon="11.105453">
<ele>524.48</ele>
<time>2022-05-27T09:33:06Z</time>
</trkpt>
<trkpt lat="47.924129" lon="11.10545">
<ele>524.48</ele>
<time>2022-05-27T09:33:07Z</time>
</trkpt>
<trkpt lat="47.924118" lon="11.105447">
<ele>524.48</ele>
<time>2022-05-27T09:33:08Z</time>
</trkpt>
<trkpt lat="47.92411" lon="11.105447">
<ele>524.48</ele>
<time>2022-05-27T09:33:09Z</time>
</trkpt>
<trkpt lat="47.924107" lon="11.105447">
<ele>524.48</ele>
<time>2022-05-27T09:33:10Z</time>
</trkpt>
<trkpt lat="47.924099" lon="11.105444">
<ele>524.48</ele>
<time>2022-05-27T09:33:11Z</time>
</trkpt>
<trkpt lat="47.92408" lon="11.10539">
<ele>524.48</ele>
<time>2022-05-27T09:33:39Z</time>
</trkpt>
<trkpt lat="47.924072" lon="11.105379">
<ele>524.48</ele>
<time>2022-05-27T09:33:40Z</time>
</trkpt>
<trkpt lat="47.924068" lon="11.105365">
<ele>524.48</ele>
<time>2022-05-27T09:33:41Z</time>
</trkpt>
<trkpt lat="47.924061" lon="11.10535">
<ele>524.48</ele>
<time>2022-05-27T09:33:42Z</time>
</trkpt>
<trkpt lat="47.924057" lon="11.105335">
<ele>524.48</ele>
<time>2022-05-27T09:33:43Z</time>
</trkpt>
<trkpt lat="47.924053" lon="11.105316">
<ele>524.766</ele>
<time>2022-05-27T09:33:44Z</time>
</trkpt>
<trkpt lat="47.924042" lon="11.105295">
<ele>524.962</ele>
<time>2022-05-27T09:33:45Z</time>
</trkpt>
<trkpt lat="47.924026" lon="11.105267">
<ele>525.089</ele>
<time>2022-05-27T09:33:46Z</time>
</trkpt>
<trkpt lat="47.924011" lon="11.105243">
<ele>525.183</ele>
<time>2022-05-27T09:33:47Z</time>
</trkpt>
<trkpt lat="47.923996" lon="11.105218">
<ele>525.344</ele>
<time>2022-05-27T09:33:48Z</time>
</trkpt>
<trkpt lat="47.923985" lon="11.105193">
<ele>525.385</ele>
<time>2022-05-27T09:33:49Z</time>
</trkpt>
<trkpt lat="47.923969" lon="11.10517">
<ele>525.416</ele>
<time>2022-05-27T09:33:50Z</time>
</trkpt>
<trkpt lat="47.92395" lon="11.10514">
<ele>525.437</ele>
<time>2022-05-27T09:33:51Z</time>
</trkpt>
<trkpt lat="47.923935" lon="11.10511">
<ele>525.437</ele>
<time>2022-05-27T09:33:52Z</time>
</trkpt>
<trkpt lat="47.923916" lon="11.105085">
<ele>525.437</ele>
<time>2022-05-27T09:33:53Z</time>
</trkpt>
<trkpt lat="47.923904" lon="11.105059">
<ele>525.437</ele>
<time>2022-05-27T09:33:54Z</time>
</trkpt>
<trkpt lat="47.923893" lon="11.105031">
<ele>525.437</ele>
<time>2022-05-27T09:33:55Z</time>
</trkpt>
<trkpt lat="47.923878" lon="11.105003">
<ele>525.437</ele>
<time>2022-05-27T09:33:56Z</time>
</trkpt>
<trkpt lat="47.923859" lon="11.104975">
<ele>525.437</ele>
<time>2022-05-27T09:33:57Z</time>
</trkpt>
<trkpt lat="47.92384" lon="11.104954">
<ele>525.437</ele>
<time>2022-05-27T09:33:58Z</time>
</trkpt>
<trkpt lat="47.92382" lon="11.104939">
<ele>525.437</ele>
<time>2022-05-27T09:33:59Z</time>
</trkpt>
<trkpt lat="47.923798" lon="11.104939">
<ele>525.437</ele>
<time>2022-05-27T09:34:00Z</time>
</trkpt>
<trkpt lat="47.923775" lon="11.104952">
<ele>525.437</ele>
<time>2022-05-27T09:34:01Z</time>
</trkpt>
<trkpt lat="47.923759" lon="11.10497">
<ele>525.437</ele>
<time>2022-05-27T09:34:02Z</time>
</trkpt>
<trkpt lat="47.923744" lon="11.104992">
<ele>525.437</ele>
<time>2022-05-27T09:34:03Z</time>
</trkpt>
<trkpt lat="47.923721" lon="11.105015">
<ele>525.437</ele>
<time>2022-05-27T09:34:04Z</time>
</trkpt>
<trkpt lat="47.923706" lon="11.105038">
<ele>525.437</ele>
<time>2022-05-27T09:34:05Z</time>
</trkpt>
<trkpt lat="47.923687" lon="11.105065">
<ele>525.437</ele>
<time>2022-05-27T09:34:06Z</time>
</trkpt>
<trkpt lat="47.923664" lon="11.105099">
<ele>525.437</ele>
<time>2022-05-27T09:34:07Z</time>
</trkpt>
<trkpt lat="47.923645" lon="11.105134">
<ele>525.437</ele>
<time>2022-05-27T09:34:08Z</time>
</trkpt>
<trkpt lat="47.923615" lon="11.10517">
<ele>525.437</ele>
<time>2022-05-27T09:34:09Z</time>
</trkpt>
<trkpt lat="47.923588" lon="11.105208">
<ele>525.437</ele>
<time>2022-05-27T09:34:10Z</time>
</trkpt>
<trkpt lat="47.923561" lon="11.105245">
<ele>525.437</ele>
<time>2022-05-27T09:34:11Z</time>
</trkpt>
<trkpt lat="47.923538" lon="11.105287">
<ele>525.437</ele>
<time>2022-05-27T09:34:12Z</time>
</trkpt>
<trkpt lat="47.923515" lon="11.105329">
<ele>525.437</ele>
<time>2022-05-27T09:34:13Z</time>
</trkpt>
<trkpt lat="47.923492" lon="11.105371">
<ele>525.437</ele>
<time>2022-05-27T09:34:14Z</time>
</trkpt>
<trkpt lat="47.92347" lon="11.105413">
<ele>525.437</ele>
<time>2022-05-27T09:34:15Z</time>
</trkpt>
<trkpt lat="47.92345" lon="11.105456">
<ele>525.437</ele>
<time>2022-05-27T09:34:16Z</time>
</trkpt>
<trkpt lat="47.923431" lon="11.1055">
<ele>525.437</ele>
<time>2022-05-27T09:34:17Z</time>
</trkpt>
<trkpt lat="47.923416" lon="11.105545">
<ele>525.437</ele>
<time>2022-05-27T09:34:18Z</time>
</trkpt>
<trkpt lat="47.923397" lon="11.105593">
<ele>525.437</ele>
<time>2022-05-27T09:34:19Z</time>
</trkpt>
<trkpt lat="47.923378" lon="11.105643">
<ele>525.437</ele>
<time>2022-05-27T09:34:20Z</time>
</trkpt>
<trkpt lat="47.923359" lon="11.105692">
<ele>525.437</ele>
<time>2022-05-27T09:34:21Z</time>
</trkpt>
<trkpt lat="47.923336" lon="11.105735">
<ele>525.437</ele>
<time>2022-05-27T09:34:22Z</time>
</trkpt>
<trkpt lat="47.923309" lon="11.105777">
<ele>525.437</ele>
<time>2022-05-27T09:34:23Z</time>
</trkpt>
<trkpt lat="47.923279" lon="11.105812">
<ele>525.437</ele>
<time>2022-05-27T09:34:24Z</time>
</trkpt>
<trkpt lat="47.923248" lon="11.105844">
<ele>525.437</ele>
<time>2022-05-27T09:34:25Z</time>
</trkpt>
<trkpt lat="47.923218" lon="11.105875">
<ele>525.437</ele>
<time>2022-05-27T09:34:26Z</time>
</trkpt>
<trkpt lat="47.923176" lon="11.105899">
<ele>525.437</ele>
<time>2022-05-27T09:34:27Z</time>
</trkpt>
<trkpt lat="47.923138" lon="11.105926">
<ele>525.659</ele>
<time>2022-05-27T09:34:28Z</time>
</trkpt>
<trkpt lat="47.923096" lon="11.105953">
<ele>525.834</ele>
<time>2022-05-27T09:34:29Z</time>
</trkpt>
<trkpt lat="47.923058" lon="11.10598">
<ele>525.953</ele>
<time>2022-05-27T09:34:30Z</time>
</trkpt>
<trkpt lat="47.923023" lon="11.106008">
<ele>526.08</ele>
<time>2022-05-27T09:34:31Z</time>
</trkpt>
<trkpt lat="47.922981" lon="11.106039">
<ele>526.178</ele>
<time>2022-05-27T09:34:32Z</time>
</trkpt>
<trkpt lat="47.922943" lon="11.106071">
<ele>526.246</ele>
<time>2022-05-27T09:34:33Z</time>
</trkpt>
<trkpt lat="47.922901" lon="11.106105">
<ele>526.287</ele>
<time>2022-05-27T09:34:34Z</time>
</trkpt>
<trkpt lat="47.922867" lon="11.106145">
<ele>526.308</ele>
<time>2022-05-27T09:34:35Z</time>
</trkpt>
<trkpt lat="47.922829" lon="11.106185">
<ele>526.308</ele>
<time>2022-05-27T09:34:36Z</time>
</trkpt>
<trkpt lat="47.922791" lon="11.106227">
<ele>526.308</ele>
<time>2022-05-27T09:34:37Z</time>
</trkpt>
<trkpt lat="47.922752" lon="11.106265">
<ele>526.308</ele>
<time>2022-05-27T09:34:38Z</time>
</trkpt>
<trkpt lat="47.92271" lon="11.106301">
<ele>526.308</ele>
<time>2022-05-27T09:34:39Z</time>
</trkpt>
<trkpt lat="47.922668" lon="11.106337">
<ele>526.308</ele>
<time>2022-05-27T09:34:40Z</time>
</trkpt>
<trkpt lat="47.922626" lon="11.106368">
<ele>526.308</ele>
<time>2022-05-27T09:34:41Z</time>
</trkpt>
<trkpt lat="47.922577" lon="11.106393">
<ele>526.308</ele>
<time>2022-05-27T09:34:42Z</time>
</trkpt>
<trkpt lat="47.922531" lon="11.106412">
<ele>526.308</ele>
<time>2022-05-27T09:34:43Z</time>
</trkpt>
<trkpt lat="47.922482" lon="11.106437">
<ele>526.308</ele>
<time>2022-05-27T09:34:44Z</time>
</trkpt>
<trkpt lat="47.92244" lon="11.106458">
<ele>526.308</ele>
<time>2022-05-27T09:34:45Z</time>
</trkpt>
<trkpt lat="47.92239" lon="11.10648">
<ele>526.308</ele>
<time>2022-05-27T09:34:46Z</time>
</trkpt>
<trkpt lat="47.92234" lon="11.106495">
<ele>526.308</ele>
<time>2022-05-27T09:34:47Z</time>
</trkpt>
<trkpt lat="47.922298" lon="11.106513">
<ele>526.308</ele>
<time>2022-05-27T09:34:48Z</time>
</trkpt>
<trkpt lat="47.922249" lon="11.106533">
<ele>526.308</ele>
<time>2022-05-27T09:34:49Z</time>
</trkpt>
<trkpt lat="47.922199" lon="11.106552">
<ele>526.308</ele>
<time>2022-05-27T09:34:50Z</time>
</trkpt>
<trkpt lat="47.922146" lon="11.106569">
<ele>526.308</ele>
<time>2022-05-27T09:34:51Z</time>
</trkpt>
<trkpt lat="47.9221" lon="11.106578">
<ele>526.308</ele>
<time>2022-05-27T09:34:52Z</time>
</trkpt>
<trkpt lat="47.922047" lon="11.106586">
<ele>526.308</ele>
<time>2022-05-27T09:34:53Z</time>
</trkpt>
<trkpt lat="47.922001" lon="11.10659">
<ele>526.308</ele>
<time>2022-05-27T09:34:54Z</time>
</trkpt>
<trkpt lat="47.921951" lon="11.106595">
<ele>526.308</ele>
<time>2022-05-27T09:34:55Z</time>
</trkpt>
<trkpt lat="47.921906" lon="11.106598">
<ele>526.308</ele>
<time>2022-05-27T09:34:56Z</time>
</trkpt>
<trkpt lat="47.921852" lon="11.106603">
<ele>526.308</ele>
<time>2022-05-27T09:34:57Z</time>
</trkpt>
<trkpt lat="47.921806" lon="11.106608">
<ele>526.071</ele>
<time>2022-05-27T09:34:58Z</time>
</trkpt>
<trkpt lat="47.921761" lon="11.10661">
<ele>525.885</ele>
<time>2022-05-27T09:34:59Z</time>
</trkpt>
<trkpt lat="47.921719" lon="11.106611">
<ele>525.751</ele>
<time>2022-05-27T09:35:00Z</time>
</trkpt>
<trkpt lat="47.921677" lon="11.10661">
<ele>525.614</ele>
<time>2022-05-27T09:35:01Z</time>
</trkpt>
<trkpt lat="47.921635" lon="11.106602">
<ele>525.505</ele>
<time>2022-05-27T09:35:02Z</time>
</trkpt>
<trkpt lat="47.921597" lon="11.106586">
<ele>525.428</ele>
<time>2022-05-27T09:35:03Z</time>
</trkpt>
<trkpt lat="47.921558" lon="11.106568">
<ele>525.376</ele>
<time>2022-05-27T09:35:04Z</time>
</trkpt>
<trkpt lat="47.921524" lon="11.106553">
<ele>525.35</ele>
<time>2022-05-27T09:35:05Z</time>
</trkpt>
<trkpt lat="47.92149" lon="11.106537">
<ele>525.35</ele>
<time>2022-05-27T09:35:06Z</time>
</trkpt>
<trkpt lat="47.921455" lon="11.106519">
<ele>525.35</ele>
<time>2022-05-27T09:35:07Z</time>
</trkpt>
<trkpt lat="47.921417" lon="11.1065">
<ele>525.35</ele>
<time>2022-05-27T09:35:08Z</time>
</trkpt>
<trkpt lat="47.921375" lon="11.106482">
<ele>525.35</ele>
<time>2022-05-27T09:35:09Z</time>
</trkpt>
<trkpt lat="47.921337" lon="11.106466">
<ele>525.35</ele>
<time>2022-05-27T09:35:10Z</time>
</trkpt>
<trkpt lat="47.921299" lon="11.106456">
<ele>525.35</ele>
<time>2022-05-27T09:35:11Z</time>
</trkpt>
<trkpt lat="47.921265" lon="11.106441">
<ele>525.037</ele>
<time>2022-05-27T09:35:12Z</time>
</trkpt>
<trkpt lat="47.92123" lon="11.10643">
<ele>524.798</ele>
<time>2022-05-27T09:35:13Z</time>
</trkpt>
<trkpt lat="47.9212" lon="11.106421">
<ele>524.622</ele>
<time>2022-05-27T09:35:14Z</time>
</trkpt>
<trkpt lat="47.921165" lon="11.106406">
<ele>524.492</ele>
<time>2022-05-27T09:35:15Z</time>
</trkpt>
<trkpt lat="47.921127" lon="11.106397">
<ele>524.401</ele>
<time>2022-05-27T09:35:16Z</time>
</trkpt>
<trkpt lat="47.921085" lon="11.106387">
<ele>524.341</ele>
<time>2022-05-27T09:35:17Z</time>
</trkpt>
<trkpt lat="47.921047" lon="11.106374">
<ele>524.312</ele>
<time>2022-05-27T09:35:18Z</time>
</trkpt>
<trkpt lat="47.921009" lon="11.106355">
<ele>524.306</ele>
<time>2022-05-27T09:35:19Z</time>
</trkpt>
<trkpt lat="47.920979" lon="11.106335">
<ele>524.306</ele>
<time>2022-05-27T09:35:20Z</time>
</trkpt>
<trkpt lat="47.92094" lon="11.106318">
<ele>524.068</ele>
<time>2022-05-27T09:35:21Z</time>
</trkpt>
<trkpt lat="47.920906" lon="11.10631">
<ele>523.875</ele>
<time>2022-05-27T09:35:22Z</time>
</trkpt>
<trkpt lat="47.920872" lon="11.106305">
<ele>523.721</ele>
<time>2022-05-27T09:35:23Z</time>
</trkpt>
<trkpt lat="47.920841" lon="11.10631">
<ele>523.62</ele>
<time>2022-05-27T09:35:24Z</time>
</trkpt>
<trkpt lat="47.920807" lon="11.106321">
<ele>523.288</ele>
<time>2022-05-27T09:35:25Z</time>
</trkpt>
<trkpt lat="47.920776" lon="11.106349">
<ele>523.012</ele>
<time>2022-05-27T09:35:26Z</time>
</trkpt>
<trkpt lat="47.92075" lon="11.106385">
<ele>522.792</ele>
<time>2022-05-27T09:35:27Z</time>
</trkpt>
<trkpt lat="47.920731" lon="11.106435">
<ele>522.636</ele>
<time>2022-05-27T09:35:28Z</time>
</trkpt>
<trkpt lat="47.920715" lon="11.106485">
<ele>522.539</ele>
<time>2022-05-27T09:35:29Z</time>
</trkpt>
<trkpt lat="47.920712" lon="11.106533">
<ele>522.473</ele>
<time>2022-05-27T09:35:30Z</time>
</trkpt>
<trkpt lat="47.920696" lon="11.106586">
<ele>522.417</ele>
<time>2022-05-27T09:35:31Z</time>
</trkpt>
<trkpt lat="47.920681" lon="11.106636">
<ele>522.393</ele>
<time>2022-05-27T09:35:32Z</time>
</trkpt>
<trkpt lat="47.92067" lon="11.106692">
<ele>522.393</ele>
<time>2022-05-27T09:35:33Z</time>
</trkpt>
<trkpt lat="47.920654" lon="11.10674">
<ele>522.393</ele>
<time>2022-05-27T09:35:34Z</time>
</trkpt>
<trkpt lat="47.920639" lon="11.106783">
<ele>522.393</ele>
<time>2022-05-27T09:35:35Z</time>
</trkpt>
<trkpt lat="47.92062" lon="11.106825">
<ele>522.393</ele>
<time>2022-05-27T09:35:36Z</time>
</trkpt>
<trkpt lat="47.920609" lon="11.106863">
<ele>522.393</ele>
<time>2022-05-27T09:35:37Z</time>
</trkpt>
<trkpt lat="47.920593" lon="11.106898">
<ele>522.393</ele>
<time>2022-05-27T09:35:38Z</time>
</trkpt>
<trkpt lat="47.920578" lon="11.106938">
<ele>522.393</ele>
<time>2022-05-27T09:35:39Z</time>
</trkpt>
<trkpt lat="47.920563" lon="11.106985">
<ele>522.393</ele>
<time>2022-05-27T09:35:40Z</time>
</trkpt>
<trkpt lat="47.920544" lon="11.107037">
<ele>522.393</ele>
<time>2022-05-27T09:35:41Z</time>
</trkpt>
<trkpt lat="47.920525" lon="11.10709">
<ele>522.393</ele>
<time>2022-05-27T09:35:42Z</time>
</trkpt>
<trkpt lat="47.920513" lon="11.107141">
<ele>522.393</ele>
<time>2022-05-27T09:35:43Z</time>
</trkpt>
<trkpt lat="47.920494" lon="11.107197">
<ele>522.393</ele>
<time>2022-05-27T09:35:44Z</time>
</trkpt>
<trkpt lat="47.920471" lon="11.107255">
<ele>522.393</ele>
<time>2022-05-27T09:35:45Z</time>
</trkpt>
<trkpt lat="47.920448" lon="11.107315">
<ele>522.393</ele>
<time>2022-05-27T09:35:46Z</time>
</trkpt>
<trkpt lat="47.920429" lon="11.107376">
<ele>522.393</ele>
<time>2022-05-27T09:35:47Z</time>
</trkpt>
<trkpt lat="47.920403" lon="11.107443">
<ele>522.393</ele>
<time>2022-05-27T09:35:48Z</time>
</trkpt>
<trkpt lat="47.920376" lon="11.107513">
<ele>522.393</ele>
<time>2022-05-27T09:35:49Z</time>
</trkpt>
<trkpt lat="47.920353" lon="11.107585">
<ele>522.393</ele>
<time>2022-05-27T09:35:50Z</time>
</trkpt>
<trkpt lat="47.920326" lon="11.107662">
<ele>522.393</ele>
<time>2022-05-27T09:35:51Z</time>
</trkpt>
<trkpt lat="47.920303" lon="11.107737">
<ele>522.393</ele>
<time>2022-05-27T09:35:52Z</time>
</trkpt>
<trkpt lat="47.92028" lon="11.107812">
<ele>522.393</ele>
<time>2022-05-27T09:35:53Z</time>
</trkpt>
<trkpt lat="47.92025" lon="11.107886">
<ele>522.393</ele>
<time>2022-05-27T09:35:54Z</time>
</trkpt>
<trkpt lat="47.920223" lon="11.107964">
<ele>522.393</ele>
<time>2022-05-27T09:35:55Z</time>
</trkpt>
<trkpt lat="47.920197" lon="11.10804">
<ele>522.393</ele>
<time>2022-05-27T09:35:56Z</time>
</trkpt>
<trkpt lat="47.92017" lon="11.108115">
<ele>522.393</ele>
<time>2022-05-27T09:35:57Z</time>
</trkpt>
<trkpt lat="47.920139" lon="11.108185">
<ele>522.393</ele>
<time>2022-05-27T09:35:58Z</time>
</trkpt>
<trkpt lat="47.920101" lon="11.108253">
<ele>522.393</ele>
<time>2022-05-27T09:35:59Z</time>
</trkpt>
<trkpt lat="47.920063" lon="11.108314">
<ele>522.393</ele>
<time>2022-05-27T09:36:00Z</time>
</trkpt>
<trkpt lat="47.920021" lon="11.108367">
<ele>522.393</ele>
<time>2022-05-27T09:36:01Z</time>
</trkpt>
<trkpt lat="47.919975" lon="11.108412">
<ele>522.393</ele>
<time>2022-05-27T09:36:02Z</time>
</trkpt>
<trkpt lat="47.91993" lon="11.108452">
<ele>522.393</ele>
<time>2022-05-27T09:36:03Z</time>
</trkpt>
<trkpt lat="47.919888" lon="11.108479">
<ele>522.393</ele>
<time>2022-05-27T09:36:04Z</time>
</trkpt>
<trkpt lat="47.919838" lon="11.1085">
<ele>522.393</ele>
<time>2022-05-27T09:36:05Z</time>
</trkpt>
<trkpt lat="47.919792" lon="11.108515">
<ele>522.393</ele>
<time>2022-05-27T09:36:06Z</time>
</trkpt>
<trkpt lat="47.919743" lon="11.108526">
<ele>522.393</ele>
<time>2022-05-27T09:36:07Z</time>
</trkpt>
<trkpt lat="47.919697" lon="11.108534">
<ele>522.625</ele>
<time>2022-05-27T09:36:08Z</time>
</trkpt>
<trkpt lat="47.919651" lon="11.108539">
<ele>522.81</ele>
<time>2022-05-27T09:36:09Z</time>
</trkpt>
<trkpt lat="47.919605" lon="11.108539">
<ele>522.944</ele>
<time>2022-05-27T09:36:10Z</time>
</trkpt>
<trkpt lat="47.919563" lon="11.108539">
<ele>523.084</ele>
<time>2022-05-27T09:36:11Z</time>
</trkpt>
<trkpt lat="47.919518" lon="11.108537">
<ele>523.195</ele>
<time>2022-05-27T09:36:12Z</time>
</trkpt>
<trkpt lat="47.919472" lon="11.108537">
<ele>523.273</ele>
<time>2022-05-27T09:36:13Z</time>
</trkpt>
<trkpt lat="47.919434" lon="11.108535">
<ele>523.325</ele>
<time>2022-05-27T09:36:14Z</time>
</trkpt>
<trkpt lat="47.919392" lon="11.108528">
<ele>523.35</ele>
<time>2022-05-27T09:36:15Z</time>
</trkpt>
<trkpt lat="47.919346" lon="11.108525">
<ele>523.349</ele>
<time>2022-05-27T09:36:16Z</time>
</trkpt>
<trkpt lat="47.919308" lon="11.108518">
<ele>523.35</ele>
<time>2022-05-27T09:36:17Z</time>
</trkpt>
<trkpt lat="47.91927" lon="11.108512">
<ele>523.35</ele>
<time>2022-05-27T09:36:18Z</time>
</trkpt>
<trkpt lat="47.919231" lon="11.108507">
<ele>523.35</ele>
<time>2022-05-27T09:36:19Z</time>
</trkpt>
<trkpt lat="47.919193" lon="11.108499">
<ele>523.35</ele>
<time>2022-05-27T09:36:20Z</time>
</trkpt>
<trkpt lat="47.919163" lon="11.10849">
<ele>523.35</ele>
<time>2022-05-27T09:36:21Z</time>
</trkpt>
<trkpt lat="47.919128" lon="11.108479">
<ele>523.35</ele>
<time>2022-05-27T09:36:22Z</time>
</trkpt>
<trkpt lat="47.919102" lon="11.108467">
<ele>523.35</ele>
<time>2022-05-27T09:36:23Z</time>
</trkpt>
<trkpt lat="47.919071" lon="11.108457">
<ele>523.35</ele>
<time>2022-05-27T09:36:24Z</time>
</trkpt>
<trkpt lat="47.919033" lon="11.108448">
<ele>523.35</ele>
<time>2022-05-27T09:36:25Z</time>
</trkpt>
<trkpt lat="47.918999" lon="11.108434">
<ele>523.35</ele>
<time>2022-05-27T09:36:26Z</time>
</trkpt>
<trkpt lat="47.918961" lon="11.108419">
<ele>523.35</ele>
<time>2022-05-27T09:36:27Z</time>
</trkpt>
<trkpt lat="47.918922" lon="11.108405">
<ele>523.35</ele>
<time>2022-05-27T09:36:28Z</time>
</trkpt>
<trkpt lat="47.918888" lon="11.108385">
<ele>523.35</ele>
<time>2022-05-27T09:36:29Z</time>
</trkpt>
<trkpt lat="47.918854" lon="11.108362">
<ele>523.35</ele>
<time>2022-05-27T09:36:30Z</time>
</trkpt>
<trkpt lat="47.918819" lon="11.108335">
<ele>523.569</ele>
<time>2022-05-27T09:36:31Z</time>
</trkpt>
<trkpt lat="47.918789" lon="11.10831">
<ele>523.744</ele>
<time>2022-05-27T09:36:32Z</time>
</trkpt>
<trkpt lat="47.918762" lon="11.108287">
<ele>523.884</ele>
<time>2022-05-27T09:36:33Z</time>
</trkpt>
<trkpt lat="47.918736" lon="11.108268">
<ele>523.999</ele>
<time>2022-05-27T09:36:34Z</time>
</trkpt>
<trkpt lat="47.918713" lon="11.108253">
<ele>524.086</ele>
<time>2022-05-27T09:36:35Z</time>
</trkpt>
<trkpt lat="47.918697" lon="11.108232">
<ele>524.152</ele>
<time>2022-05-27T09:36:36Z</time>
</trkpt>
<trkpt lat="47.918682" lon="11.108212">
<ele>524.197</ele>
<time>2022-05-27T09:36:37Z</time>
</trkpt>
<trkpt lat="47.918655" lon="11.108197">
<ele>524.22</ele>
<time>2022-05-27T09:36:38Z</time>
</trkpt>
<trkpt lat="47.918629" lon="11.108185">
<ele>524.22</ele>
<time>2022-05-27T09:36:39Z</time>
</trkpt>
<trkpt lat="47.918606" lon="11.108182">
<ele>524.22</ele>
<time>2022-05-27T09:36:40Z</time>
</trkpt>
<trkpt lat="47.918575" lon="11.108176">
<ele>524.22</ele>
<time>2022-05-27T09:36:41Z</time>
</trkpt>
<trkpt lat="47.918552" lon="11.108176">
<ele>524.22</ele>
<time>2022-05-27T09:36:42Z</time>
</trkpt>
<trkpt lat="47.918533" lon="11.10818">
<ele>524.22</ele>
<time>2022-05-27T09:36:43Z</time>
</trkpt>
<trkpt lat="47.91851" lon="11.108187">
<ele>524.22</ele>
<time>2022-05-27T09:36:44Z</time>
</trkpt>
<trkpt lat="47.918476" lon="11.108197">
<ele>524.22</ele>
<time>2022-05-27T09:36:45Z</time>
</trkpt>
<trkpt lat="47.918446" lon="11.108207">
<ele>524.22</ele>
<time>2022-05-27T09:36:46Z</time>
</trkpt>
<trkpt lat="47.918415" lon="11.108207">
<ele>524.22</ele>
<time>2022-05-27T09:36:47Z</time>
</trkpt>
<trkpt lat="47.918385" lon="11.108203">
<ele>524.22</ele>
<time>2022-05-27T09:36:48Z</time>
</trkpt>
<trkpt lat="47.918358" lon="11.108197">
<ele>524.464</ele>
<time>2022-05-27T09:36:49Z</time>
</trkpt>
<trkpt lat="47.918327" lon="11.108184">
<ele>524.643</ele>
<time>2022-05-27T09:36:50Z</time>
</trkpt>
<trkpt lat="47.918285" lon="11.108164">
<ele>524.819</ele>
<time>2022-05-27T09:36:51Z</time>
</trkpt>
<trkpt lat="47.91824" lon="11.108165">
<ele>524.921</ele>
<time>2022-05-27T09:36:52Z</time>
</trkpt>
<trkpt lat="47.918201" lon="11.10815">
<ele>525.29</ele>
<time>2022-05-27T09:36:53Z</time>
</trkpt>
<trkpt lat="47.918167" lon="11.108131">
<ele>525.603</ele>
<time>2022-05-27T09:36:54Z</time>
</trkpt>
<trkpt lat="47.918133" lon="11.108117">
<ele>525.791</ele>
<time>2022-05-27T09:36:55Z</time>
</trkpt>
<trkpt lat="47.918095" lon="11.108096">
<ele>526.216</ele>
<time>2022-05-27T09:36:56Z</time>
</trkpt>
<trkpt lat="47.918056" lon="11.108078">
<ele>526.579</ele>
<time>2022-05-27T09:36:57Z</time>
</trkpt>
<trkpt lat="47.918018" lon="11.108061">
<ele>526.769</ele>
<time>2022-05-27T09:36:58Z</time>
</trkpt>
<trkpt lat="47.917976" lon="11.108048">
<ele>526.868</ele>
<time>2022-05-27T09:36:59Z</time>
</trkpt>
<trkpt lat="47.917934" lon="11.108033">
<ele>527.221</ele>
<time>2022-05-27T09:37:00Z</time>
</trkpt>
<trkpt lat="47.917892" lon="11.108017">
<ele>527.52</ele>
<time>2022-05-27T09:37:01Z</time>
</trkpt>
<trkpt lat="47.91785" lon="11.108002">
<ele>527.723</ele>
<time>2022-05-27T09:37:02Z</time>
</trkpt>
<trkpt lat="47.917809" lon="11.107993">
<ele>528.107</ele>
<time>2022-05-27T09:37:03Z</time>
</trkpt>
<trkpt lat="47.91777" lon="11.107984">
<ele>528.387</ele>
<time>2022-05-27T09:37:04Z</time>
</trkpt>
<trkpt lat="47.917728" lon="11.107973">
<ele>528.603</ele>
<time>2022-05-27T09:37:05Z</time>
</trkpt>
<trkpt lat="47.917686" lon="11.107962">
<ele>528.74</ele>
<time>2022-05-27T09:37:06Z</time>
</trkpt>
<trkpt lat="47.917645" lon="11.10795">
<ele>529.092</ele>
<time>2022-05-27T09:37:07Z</time>
</trkpt>
<trkpt lat="47.917606" lon="11.107939">
<ele>529.392</ele>
<time>2022-05-27T09:37:08Z</time>
</trkpt>
<trkpt lat="47.917568" lon="11.107928">
<ele>529.567</ele>
<time>2022-05-27T09:37:09Z</time>
</trkpt>
<trkpt lat="47.917526" lon="11.107921">
<ele>529.694</ele>
<time>2022-05-27T09:37:10Z</time>
</trkpt>
<trkpt lat="47.917484" lon="11.107912">
<ele>529.806</ele>
<time>2022-05-27T09:37:11Z</time>
</trkpt>
<trkpt lat="47.917442" lon="11.107903">
<ele>529.887</ele>
<time>2022-05-27T09:37:12Z</time>
</trkpt>
<trkpt lat="47.9174" lon="11.107893">
<ele>529.935</ele>
<time>2022-05-27T09:37:13Z</time>
</trkpt>
<trkpt lat="47.917355" lon="11.107883">
<ele>530.2</ele>
<time>2022-05-27T09:37:14Z</time>
</trkpt>
<trkpt lat="47.917313" lon="11.107875">
<ele>530.444</ele>
<time>2022-05-27T09:37:15Z</time>
</trkpt>
<trkpt lat="47.917267" lon="11.107863">
<ele>530.603</ele>
<time>2022-05-27T09:37:16Z</time>
</trkpt>
<trkpt lat="47.917221" lon="11.107851">
<ele>530.72</ele>
<time>2022-05-27T09:37:17Z</time>
</trkpt>
<trkpt lat="47.917179" lon="11.107843">
<ele>530.8</ele>
<time>2022-05-27T09:37:18Z</time>
</trkpt>
<trkpt lat="47.917133" lon="11.107837">
<ele>530.853</ele>
<time>2022-05-27T09:37:19Z</time>
</trkpt>
<trkpt lat="47.917091" lon="11.10783">
<ele>530.894</ele>
<time>2022-05-27T09:37:20Z</time>
</trkpt>
<trkpt lat="47.917046" lon="11.107823">
<ele>530.92</ele>
<time>2022-05-27T09:37:21Z</time>
</trkpt>
<trkpt lat="47.917004" lon="11.107814">
<ele>530.92</ele>
<time>2022-05-27T09:37:22Z</time>
</trkpt>
<trkpt lat="47.916962" lon="11.107807">
<ele>531.171</ele>
<time>2022-05-27T09:37:23Z</time>
</trkpt>
<trkpt lat="47.916916" lon="11.107799">
<ele>531.365</ele>
<time>2022-05-27T09:37:24Z</time>
</trkpt>
<trkpt lat="47.916874" lon="11.107792">
<ele>531.511</ele>
<time>2022-05-27T09:37:25Z</time>
</trkpt>
<trkpt lat="47.916832" lon="11.107784">
<ele>531.62</ele>
<time>2022-05-27T09:37:26Z</time>
</trkpt>
<trkpt lat="47.916786" lon="11.10778">
<ele>531.697</ele>
<time>2022-05-27T09:37:27Z</time>
</trkpt>
<trkpt lat="47.91674" lon="11.107776">
<ele>531.749</ele>
<time>2022-05-27T09:37:28Z</time>
</trkpt>
<trkpt lat="47.916698" lon="11.107774">
<ele>531.771</ele>
<time>2022-05-27T09:37:29Z</time>
</trkpt>
<trkpt lat="47.916653" lon="11.10777">
<ele>531.791</ele>
<time>2022-05-27T09:37:30Z</time>
</trkpt>
<trkpt lat="47.916603" lon="11.107765">
<ele>531.791</ele>
<time>2022-05-27T09:37:31Z</time>
</trkpt>
<trkpt lat="47.916561" lon="11.107759">
<ele>531.791</ele>
<time>2022-05-27T09:37:32Z</time>
</trkpt>
<trkpt lat="47.916515" lon="11.107755">
<ele>531.791</ele>
<time>2022-05-27T09:37:33Z</time>
</trkpt>
<trkpt lat="47.916473" lon="11.107752">
<ele>532.087</ele>
<time>2022-05-27T09:37:34Z</time>
</trkpt>
<trkpt lat="47.916424" lon="11.107748">
<ele>532.315</ele>
<time>2022-05-27T09:37:35Z</time>
</trkpt>
<trkpt lat="47.916378" lon="11.107746">
<ele>532.488</ele>
<time>2022-05-27T09:37:36Z</time>
</trkpt>
<trkpt lat="47.916336" lon="11.107742">
<ele>532.616</ele>
<time>2022-05-27T09:37:37Z</time>
</trkpt>
<trkpt lat="47.916294" lon="11.10774">
<ele>532.7</ele>
<time>2022-05-27T09:37:38Z</time>
</trkpt>
<trkpt lat="47.916256" lon="11.10774">
<ele>532.76</ele>
<time>2022-05-27T09:37:39Z</time>
</trkpt>
<trkpt lat="47.916214" lon="11.10774">
<ele>532.807</ele>
<time>2022-05-27T09:37:40Z</time>
</trkpt>
<trkpt lat="47.91618" lon="11.107743">
<ele>532.836</ele>
<time>2022-05-27T09:37:41Z</time>
</trkpt>
<trkpt lat="47.916138" lon="11.10775">
<ele>532.835</ele>
<time>2022-05-27T09:37:42Z</time>
</trkpt>
<trkpt lat="47.916092" lon="11.107761">
<ele>532.836</ele>
<time>2022-05-27T09:37:43Z</time>
</trkpt>
<trkpt lat="47.91605" lon="11.107776">
<ele>532.835</ele>
<time>2022-05-27T09:37:44Z</time>
</trkpt>
<trkpt lat="47.916004" lon="11.10779">
<ele>532.836</ele>
<time>2022-05-27T09:37:45Z</time>
</trkpt>
<trkpt lat="47.915958" lon="11.107807">
<ele>532.836</ele>
<time>2022-05-27T09:37:46Z</time>
</trkpt>
<trkpt lat="47.915916" lon="11.107825">
<ele>532.835</ele>
<time>2022-05-27T09:37:47Z</time>
</trkpt>
<trkpt lat="47.915874" lon="11.107843">
<ele>532.835</ele>
<time>2022-05-27T09:37:48Z</time>
</trkpt>
<trkpt lat="47.915833" lon="11.107865">
<ele>532.835</ele>
<time>2022-05-27T09:37:49Z</time>
</trkpt>
<trkpt lat="47.915787" lon="11.10789">
<ele>532.835</ele>
<time>2022-05-27T09:37:50Z</time>
</trkpt>
<trkpt lat="47.915749" lon="11.10791">
<ele>532.835</ele>
<time>2022-05-27T09:37:51Z</time>
</trkpt>
<trkpt lat="47.915707" lon="11.107931">
<ele>532.835</ele>
<time>2022-05-27T09:37:52Z</time>
</trkpt>
<trkpt lat="47.915661" lon="11.107954">
<ele>532.835</ele>
<time>2022-05-27T09:37:53Z</time>
</trkpt>
<trkpt lat="47.915623" lon="11.107973">
<ele>532.835</ele>
<time>2022-05-27T09:37:54Z</time>
</trkpt>
<trkpt lat="47.915588" lon="11.107991">
<ele>532.836</ele>
<time>2022-05-27T09:37:55Z</time>
</trkpt>
<trkpt lat="47.91555" lon="11.108013">
<ele>532.835</ele>
<time>2022-05-27T09:37:56Z</time>
</trkpt>
<trkpt lat="47.915504" lon="11.108038">
<ele>532.835</ele>
<time>2022-05-27T09:37:57Z</time>
</trkpt>
<trkpt lat="47.915462" lon="11.108059">
<ele>533.072</ele>
<time>2022-05-27T09:37:58Z</time>
</trkpt>
<trkpt lat="47.915421" lon="11.108084">
<ele>533.264</ele>
<time>2022-05-27T09:37:59Z</time>
</trkpt>
<trkpt lat="47.915379" lon="11.108105">
<ele>533.394</ele>
<time>2022-05-27T09:38:00Z</time>
</trkpt>
<trkpt lat="47.91534" lon="11.108124">
<ele>533.538</ele>
<time>2022-05-27T09:38:01Z</time>
</trkpt>
<trkpt lat="47.915298" lon="11.108149">
<ele>533.651</ele>
<time>2022-05-27T09:38:02Z</time>
</trkpt>
<trkpt lat="47.915245" lon="11.108173">
<ele>533.727</ele>
<time>2022-05-27T09:38:03Z</time>
</trkpt>
<trkpt lat="47.915195" lon="11.108201">
<ele>533.771</ele>
<time>2022-05-27T09:38:04Z</time>
</trkpt>
<trkpt lat="47.915142" lon="11.108229">
<ele>533.793</ele>
<time>2022-05-27T09:38:05Z</time>
</trkpt>
<trkpt lat="47.915092" lon="11.108252">
<ele>533.793</ele>
<time>2022-05-27T09:38:06Z</time>
</trkpt>
<trkpt lat="47.915039" lon="11.108274">
<ele>533.793</ele>
<time>2022-05-27T09:38:07Z</time>
</trkpt>
<trkpt lat="47.914993" lon="11.108302">
<ele>533.793</ele>
<time>2022-05-27T09:38:08Z</time>
</trkpt>
<trkpt lat="47.914944" lon="11.108323">
<ele>533.793</ele>
<time>2022-05-27T09:38:09Z</time>
</trkpt>
<trkpt lat="47.914902" lon="11.108345">
<ele>533.793</ele>
<time>2022-05-27T09:38:10Z</time>
</trkpt>
<trkpt lat="47.914848" lon="11.108371">
<ele>533.793</ele>
<time>2022-05-27T09:38:11Z</time>
</trkpt>
<trkpt lat="47.914799" lon="11.108392">
<ele>533.793</ele>
<time>2022-05-27T09:38:12Z</time>
</trkpt>
<trkpt lat="47.914745" lon="11.108408">
<ele>533.793</ele>
<time>2022-05-27T09:38:13Z</time>
</trkpt>
<trkpt lat="47.914692" lon="11.108427">
<ele>533.793</ele>
<time>2022-05-27T09:38:14Z</time>
</trkpt>
<trkpt lat="47.914642" lon="11.108443">
<ele>533.793</ele>
<time>2022-05-27T09:38:15Z</time>
</trkpt>
<trkpt lat="47.914589" lon="11.108459">
<ele>533.793</ele>
<time>2022-05-27T09:38:16Z</time>
</trkpt>
<trkpt lat="47.914536" lon="11.108477">
<ele>533.793</ele>
<time>2022-05-27T09:38:17Z</time>
</trkpt>
<trkpt lat="47.914482" lon="11.1085">
<ele>533.793</ele>
<time>2022-05-27T09:38:18Z</time>
</trkpt>
<trkpt lat="47.914433" lon="11.108515">
<ele>533.793</ele>
<time>2022-05-27T09:38:19Z</time>
</trkpt>
<trkpt lat="47.914387" lon="11.108526">
<ele>533.793</ele>
<time>2022-05-27T09:38:20Z</time>
</trkpt>
<trkpt lat="47.914337" lon="11.108537">
<ele>533.793</ele>
<time>2022-05-27T09:38:21Z</time>
</trkpt>
<trkpt lat="47.914291" lon="11.108546">
<ele>533.793</ele>
<time>2022-05-27T09:38:22Z</time>
</trkpt>
<trkpt lat="47.914246" lon="11.108557">
<ele>533.793</ele>
<time>2022-05-27T09:38:23Z</time>
</trkpt>
<trkpt lat="47.914192" lon="11.10856">
<ele>533.793</ele>
<time>2022-05-27T09:38:24Z</time>
</trkpt>
<trkpt lat="47.914146" lon="11.10856">
<ele>533.793</ele>
<time>2022-05-27T09:38:25Z</time>
</trkpt>
<trkpt lat="47.914093" lon="11.108563">
<ele>533.793</ele>
<time>2022-05-27T09:38:26Z</time>
</trkpt>
<trkpt lat="47.914047" lon="11.108566">
<ele>533.793</ele>
<time>2022-05-27T09:38:27Z</time>
</trkpt>
<trkpt lat="47.913998" lon="11.108568">
<ele>533.793</ele>
<time>2022-05-27T09:38:28Z</time>
</trkpt>
<trkpt lat="47.913948" lon="11.108572">
<ele>533.793</ele>
<time>2022-05-27T09:38:29Z</time>
</trkpt>
<trkpt lat="47.913895" lon="11.108572">
<ele>533.793</ele>
<time>2022-05-27T09:38:30Z</time>
</trkpt>
<trkpt lat="47.913841" lon="11.108572">
<ele>533.793</ele>
<time>2022-05-27T09:38:31Z</time>
</trkpt>
<trkpt lat="47.913792" lon="11.108566">
<ele>533.424</ele>
<time>2022-05-27T09:38:32Z</time>
</trkpt>
<trkpt lat="47.913738" lon="11.108562">
<ele>533.142</ele>
<time>2022-05-27T09:38:33Z</time>
</trkpt>
<trkpt lat="47.913689" lon="11.108557">
<ele>532.929</ele>
<time>2022-05-27T09:38:34Z</time>
</trkpt>
<trkpt lat="47.913635" lon="11.108555">
<ele>532.774</ele>
<time>2022-05-27T09:38:35Z</time>
</trkpt>
<trkpt lat="47.913578" lon="11.108557">
<ele>532.671</ele>
<time>2022-05-27T09:38:36Z</time>
</trkpt>
<trkpt lat="47.913528" lon="11.108559">
<ele>532.603</ele>
<time>2022-05-27T09:38:37Z</time>
</trkpt>
<trkpt lat="47.913479" lon="11.108555">
<ele>532.579</ele>
<time>2022-05-27T09:38:38Z</time>
</trkpt>
<trkpt lat="47.913429" lon="11.108553">
<ele>532.574</ele>
<time>2022-05-27T09:38:39Z</time>
</trkpt>
<trkpt lat="47.913376" lon="11.108548">
<ele>532.574</ele>
<time>2022-05-27T09:38:40Z</time>
</trkpt>
<trkpt lat="47.91333" lon="11.108545">
<ele>532.574</ele>
<time>2022-05-27T09:38:41Z</time>
</trkpt>
<trkpt lat="47.913277" lon="11.108545">
<ele>532.574</ele>
<time>2022-05-27T09:38:42Z</time>
</trkpt>
<trkpt lat="47.913235" lon="11.108545">
<ele>532.574</ele>
<time>2022-05-27T09:38:43Z</time>
</trkpt>
<trkpt lat="47.913185" lon="11.108542">
<ele>532.574</ele>
<time>2022-05-27T09:38:44Z</time>
</trkpt>
<trkpt lat="47.913136" lon="11.108534">
<ele>532.574</ele>
<time>2022-05-27T09:38:45Z</time>
</trkpt>
<trkpt lat="47.913082" lon="11.108526">
<ele>532.574</ele>
<time>2022-05-27T09:38:46Z</time>
</trkpt>
<trkpt lat="47.913033" lon="11.108521">
<ele>532.574</ele>
<time>2022-05-27T09:38:47Z</time>
</trkpt>
<trkpt lat="47.912983" lon="11.108513">
<ele>532.574</ele>
<time>2022-05-27T09:38:48Z</time>
</trkpt>
<trkpt lat="47.912933" lon="11.108509">
<ele>532.788</ele>
<time>2022-05-27T09:38:49Z</time>
</trkpt>
<trkpt lat="47.912884" lon="11.108505">
<ele>532.941</ele>
<time>2022-05-27T09:38:50Z</time>
</trkpt>
<trkpt lat="47.91283" lon="11.1085">
<ele>533.097</ele>
<time>2022-05-27T09:38:51Z</time>
</trkpt>
<trkpt lat="47.912781" lon="11.108499">
<ele>533.217</ele>
<time>2022-05-27T09:38:52Z</time>
</trkpt>
<trkpt lat="47.912727" lon="11.108495">
<ele>533.309</ele>
<time>2022-05-27T09:38:53Z</time>
</trkpt>
<trkpt lat="47.912678" lon="11.108495">
<ele>533.355</ele>
<time>2022-05-27T09:38:54Z</time>
</trkpt>
<trkpt lat="47.912636" lon="11.108499">
<ele>533.184</ele>
<time>2022-05-27T09:38:55Z</time>
</trkpt>
<trkpt lat="47.912601" lon="11.108499">
<ele>533.03</ele>
<time>2022-05-27T09:38:56Z</time>
</trkpt>
<trkpt lat="47.912563" lon="11.108495">
<ele>532.891</ele>
<time>2022-05-27T09:38:57Z</time>
</trkpt>
<trkpt lat="47.912533" lon="11.108493">
<ele>532.791</ele>
<time>2022-05-27T09:38:58Z</time>
</trkpt>
<trkpt lat="47.912502" lon="11.108497">
<ele>532.715</ele>
<time>2022-05-27T09:38:59Z</time>
</trkpt>
<trkpt lat="47.912472" lon="11.108497">
<ele>532.656</ele>
<time>2022-05-27T09:39:00Z</time>
</trkpt>
<trkpt lat="47.912441" lon="11.108503">
<ele>532.602</ele>
<time>2022-05-27T09:39:01Z</time>
</trkpt>
<trkpt lat="47.912407" lon="11.108513">
<ele>532.574</ele>
<time>2022-05-27T09:39:02Z</time>
</trkpt>
<trkpt lat="47.912373" lon="11.108525">
<ele>532.574</ele>
<time>2022-05-27T09:39:03Z</time>
</trkpt>
<trkpt lat="47.912342" lon="11.108535">
<ele>532.574</ele>
<time>2022-05-27T09:39:04Z</time>
</trkpt>
<trkpt lat="47.912308" lon="11.108545">
<ele>532.574</ele>
<time>2022-05-27T09:39:05Z</time>
</trkpt>
<trkpt lat="47.91227" lon="11.10855">
<ele>532.574</ele>
<time>2022-05-27T09:39:06Z</time>
</trkpt>
<trkpt lat="47.912231" lon="11.108551">
<ele>532.574</ele>
<time>2022-05-27T09:39:07Z</time>
</trkpt>
<trkpt lat="47.912193" lon="11.10856">
<ele>532.574</ele>
<time>2022-05-27T09:39:08Z</time>
</trkpt>
<trkpt lat="47.912151" lon="11.108563">
<ele>532.574</ele>
<time>2022-05-27T09:39:09Z</time>
</trkpt>
<trkpt lat="47.912106" lon="11.108565">
<ele>532.574</ele>
<time>2022-05-27T09:39:10Z</time>
</trkpt>
<trkpt lat="47.912064" lon="11.10857">
<ele>532.574</ele>
<time>2022-05-27T09:39:11Z</time>
</trkpt>
<trkpt lat="47.912018" lon="11.108574">
<ele>532.574</ele>
<time>2022-05-27T09:39:12Z</time>
</trkpt>
<trkpt lat="47.911972" lon="11.108579">
<ele>532.574</ele>
<time>2022-05-27T09:39:13Z</time>
</trkpt>
<trkpt lat="47.911919" lon="11.108584">
<ele>532.574</ele>
<time>2022-05-27T09:39:14Z</time>
</trkpt>
<trkpt lat="47.911873" lon="11.108588">
<ele>532.574</ele>
<time>2022-05-27T09:39:15Z</time>
</trkpt>
<trkpt lat="47.911819" lon="11.108586">
<ele>532.574</ele>
<time>2022-05-27T09:39:16Z</time>
</trkpt>
<trkpt lat="47.911766" lon="11.108588">
<ele>532.574</ele>
<time>2022-05-27T09:39:17Z</time>
</trkpt>
<trkpt lat="47.911713" lon="11.108593">
<ele>532.574</ele>
<time>2022-05-27T09:39:18Z</time>
</trkpt>
<trkpt lat="47.911663" lon="11.108595">
<ele>532.574</ele>
<time>2022-05-27T09:39:19Z</time>
</trkpt>
<trkpt lat="47.911606" lon="11.1086">
<ele>532.574</ele>
<time>2022-05-27T09:39:20Z</time>
</trkpt>
<trkpt lat="47.911549" lon="11.108603">
<ele>532.574</ele>
<time>2022-05-27T09:39:21Z</time>
</trkpt>
<trkpt lat="47.911491" lon="11.108607">
<ele>532.574</ele>
<time>2022-05-27T09:39:22Z</time>
</trkpt>
<trkpt lat="47.911434" lon="11.108612">
<ele>532.574</ele>
<time>2022-05-27T09:39:23Z</time>
</trkpt>
<trkpt lat="47.911381" lon="11.108615">
<ele>532.574</ele>
<time>2022-05-27T09:39:24Z</time>
</trkpt>
<trkpt lat="47.911324" lon="11.108622">
<ele>532.574</ele>
<time>2022-05-27T09:39:25Z</time>
</trkpt>
<trkpt lat="47.911274" lon="11.108624">
<ele>532.574</ele>
<time>2022-05-27T09:39:26Z</time>
</trkpt>
<trkpt lat="47.911224" lon="11.108624">
<ele>532.574</ele>
<time>2022-05-27T09:39:27Z</time>
</trkpt>
<trkpt lat="47.911167" lon="11.10863">
<ele>532.574</ele>
<time>2022-05-27T09:39:28Z</time>
</trkpt>
<trkpt lat="47.911118" lon="11.108633">
<ele>532.574</ele>
<time>2022-05-27T09:39:29Z</time>
</trkpt>
<trkpt lat="47.911064" lon="11.108635">
<ele>532.574</ele>
<time>2022-05-27T09:39:30Z</time>
</trkpt>
<trkpt lat="47.911018" lon="11.108637">
<ele>532.574</ele>
<time>2022-05-27T09:39:31Z</time>
</trkpt>
<trkpt lat="47.910969" lon="11.108639">
<ele>532.574</ele>
<time>2022-05-27T09:39:32Z</time>
</trkpt>
<trkpt lat="47.910919" lon="11.108647">
<ele>532.574</ele>
<time>2022-05-27T09:39:33Z</time>
</trkpt>
<trkpt lat="47.91087" lon="11.108655">
<ele>532.574</ele>
<time>2022-05-27T09:39:34Z</time>
</trkpt>
<trkpt lat="47.910831" lon="11.10867">
<ele>532.574</ele>
<time>2022-05-27T09:39:35Z</time>
</trkpt>
<trkpt lat="47.910797" lon="11.108702">
<ele>532.574</ele>
<time>2022-05-27T09:39:36Z</time>
</trkpt>
<trkpt lat="47.910774" lon="11.108742">
<ele>532.574</ele>
<time>2022-05-27T09:39:37Z</time>
</trkpt>
<trkpt lat="47.910755" lon="11.108796">
<ele>532.574</ele>
<time>2022-05-27T09:39:38Z</time>
</trkpt>
<trkpt lat="47.910736" lon="11.108857">
<ele>532.574</ele>
<time>2022-05-27T09:39:39Z</time>
</trkpt>
<trkpt lat="47.910732" lon="11.108922">
<ele>532.574</ele>
<time>2022-05-27T09:39:40Z</time>
</trkpt>
<trkpt lat="47.910728" lon="11.108991">
<ele>532.574</ele>
<time>2022-05-27T09:39:41Z</time>
</trkpt>
<trkpt lat="47.910717" lon="11.109065">
<ele>532.574</ele>
<time>2022-05-27T09:39:42Z</time>
</trkpt>
<trkpt lat="47.910717" lon="11.109139">
<ele>532.574</ele>
<time>2022-05-27T09:39:43Z</time>
</trkpt>
<trkpt lat="47.910717" lon="11.109219">
<ele>532.574</ele>
<time>2022-05-27T09:39:44Z</time>
</trkpt>
<trkpt lat="47.910721" lon="11.1093">
<ele>532.574</ele>
<time>2022-05-27T09:39:45Z</time>
</trkpt>
<trkpt lat="47.910721" lon="11.109383">
<ele>532.574</ele>
<time>2022-05-27T09:39:46Z</time>
</trkpt>
<trkpt lat="47.910732" lon="11.109463">
<ele>532.574</ele>
<time>2022-05-27T09:39:47Z</time>
</trkpt>
<trkpt lat="47.910744" lon="11.109542">
<ele>532.574</ele>
<time>2022-05-27T09:39:48Z</time>
</trkpt>
<trkpt lat="47.910755" lon="11.109622">
<ele>532.574</ele>
<time>2022-05-27T09:39:49Z</time>
</trkpt>
<trkpt lat="47.910767" lon="11.109698">
<ele>532.574</ele>
<time>2022-05-27T09:39:50Z</time>
</trkpt>
<trkpt lat="47.91077" lon="11.109775">
<ele>532.574</ele>
<time>2022-05-27T09:39:51Z</time>
</trkpt>
<trkpt lat="47.910782" lon="11.109854">
<ele>532.574</ele>
<time>2022-05-27T09:39:52Z</time>
</trkpt>
<trkpt lat="47.910793" lon="11.10993">
<ele>532.574</ele>
<time>2022-05-27T09:39:53Z</time>
</trkpt>
<trkpt lat="47.910801" lon="11.110005">
<ele>532.574</ele>
<time>2022-05-27T09:39:54Z</time>
</trkpt>
<trkpt lat="47.910816" lon="11.11008">
<ele>532.574</ele>
<time>2022-05-27T09:39:55Z</time>
</trkpt>
<trkpt lat="47.910831" lon="11.110151">
<ele>532.574</ele>
<time>2022-05-27T09:39:56Z</time>
</trkpt>
<trkpt lat="47.910839" lon="11.110221">
<ele>532.574</ele>
<time>2022-05-27T09:39:57Z</time>
</trkpt>
<trkpt lat="47.910851" lon="11.11029">
<ele>532.574</ele>
<time>2022-05-27T09:39:58Z</time>
</trkpt>
<trkpt lat="47.910866" lon="11.110355">
<ele>532.574</ele>
<time>2022-05-27T09:39:59Z</time>
</trkpt>
<trkpt lat="47.910873" lon="11.110418">
<ele>532.574</ele>
<time>2022-05-27T09:40:00Z</time>
</trkpt>
<trkpt lat="47.910885" lon="11.110478">
<ele>532.574</ele>
<time>2022-05-27T09:40:01Z</time>
</trkpt>
<trkpt lat="47.910896" lon="11.110533">
<ele>532.574</ele>
<time>2022-05-27T09:40:02Z</time>
</trkpt>
<trkpt lat="47.9109" lon="11.110588">
<ele>532.574</ele>
<time>2022-05-27T09:40:03Z</time>
</trkpt>
<trkpt lat="47.910912" lon="11.110646">
<ele>532.574</ele>
<time>2022-05-27T09:40:04Z</time>
</trkpt>
<trkpt lat="47.910931" lon="11.110708">
<ele>532.574</ele>
<time>2022-05-27T09:40:05Z</time>
</trkpt>
<trkpt lat="47.910942" lon="11.110774">
<ele>532.574</ele>
<time>2022-05-27T09:40:06Z</time>
</trkpt>
<trkpt lat="47.910954" lon="11.110842">
<ele>532.574</ele>
<time>2022-05-27T09:40:07Z</time>
</trkpt>
<trkpt lat="47.910961" lon="11.110912">
<ele>532.574</ele>
<time>2022-05-27T09:40:08Z</time>
</trkpt>
<trkpt lat="47.910976" lon="11.110983">
<ele>532.574</ele>
<time>2022-05-27T09:40:09Z</time>
</trkpt>
<trkpt lat="47.910988" lon="11.111054">
<ele>532.574</ele>
<time>2022-05-27T09:40:10Z</time>
</trkpt>
<trkpt lat="47.911003" lon="11.111132">
<ele>532.574</ele>
<time>2022-05-27T09:40:11Z</time>
</trkpt>
<trkpt lat="47.911026" lon="11.11121">
<ele>532.574</ele>
<time>2022-05-27T09:40:12Z</time>
</trkpt>
<trkpt lat="47.911041" lon="11.11129">
<ele>532.574</ele>
<time>2022-05-27T09:40:13Z</time>
</trkpt>
<trkpt lat="47.911053" lon="11.111368">
<ele>532.574</ele>
<time>2022-05-27T09:40:14Z</time>
</trkpt>
<trkpt lat="47.91106" lon="11.111448">
<ele>532.574</ele>
<time>2022-05-27T09:40:15Z</time>
</trkpt>
<trkpt lat="47.911068" lon="11.111528">
<ele>532.574</ele>
<time>2022-05-27T09:40:16Z</time>
</trkpt>
<trkpt lat="47.911087" lon="11.111609">
<ele>532.574</ele>
<time>2022-05-27T09:40:17Z</time>
</trkpt>
<trkpt lat="47.911106" lon="11.11169">
<ele>532.574</ele>
<time>2022-05-27T09:40:18Z</time>
</trkpt>
<trkpt lat="47.911118" lon="11.111772">
<ele>532.574</ele>
<time>2022-05-27T09:40:19Z</time>
</trkpt>
<trkpt lat="47.911125" lon="11.111853">
<ele>532.574</ele>
<time>2022-05-27T09:40:20Z</time>
</trkpt>
<trkpt lat="47.911137" lon="11.111933">
<ele>532.574</ele>
<time>2022-05-27T09:40:21Z</time>
</trkpt>
<trkpt lat="47.911148" lon="11.112014">
<ele>532.574</ele>
<time>2022-05-27T09:40:22Z</time>
</trkpt>
<trkpt lat="47.91116" lon="11.112094">
<ele>532.574</ele>
<time>2022-05-27T09:40:23Z</time>
</trkpt>
<trkpt lat="47.911171" lon="11.112173">
<ele>532.574</ele>
<time>2022-05-27T09:40:24Z</time>
</trkpt>
<trkpt lat="47.911186" lon="11.112251">
<ele>532.574</ele>
<time>2022-05-27T09:40:25Z</time>
</trkpt>
<trkpt lat="47.911198" lon="11.11233">
<ele>532.574</ele>
<time>2022-05-27T09:40:26Z</time>
</trkpt>
<trkpt lat="47.911209" lon="11.112409">
<ele>532.574</ele>
<time>2022-05-27T09:40:27Z</time>
</trkpt>
<trkpt lat="47.911221" lon="11.112481">
<ele>532.574</ele>
<time>2022-05-27T09:40:28Z</time>
</trkpt>
<trkpt lat="47.911224" lon="11.112552">
<ele>532.574</ele>
<time>2022-05-27T09:40:29Z</time>
</trkpt>
<trkpt lat="47.911236" lon="11.112619">
<ele>532.574</ele>
<time>2022-05-27T09:40:30Z</time>
</trkpt>
<trkpt lat="47.911251" lon="11.112687">
<ele>532.574</ele>
<time>2022-05-27T09:40:31Z</time>
</trkpt>
<trkpt lat="47.911266" lon="11.112756">
<ele>532.574</ele>
<time>2022-05-27T09:40:32Z</time>
</trkpt>
<trkpt lat="47.911278" lon="11.112822">
<ele>532.574</ele>
<time>2022-05-27T09:40:33Z</time>
</trkpt>
<trkpt lat="47.911289" lon="11.11289">
<ele>532.312</ele>
<time>2022-05-27T09:40:34Z</time>
</trkpt>
<trkpt lat="47.911301" lon="11.112962">
<ele>532.102</ele>
<time>2022-05-27T09:40:35Z</time>
</trkpt>
<trkpt lat="47.911312" lon="11.113035">
<ele>531.941</ele>
<time>2022-05-27T09:40:36Z</time>
</trkpt>
<trkpt lat="47.911316" lon="11.113108">
<ele>531.821</ele>
<time>2022-05-27T09:40:37Z</time>
</trkpt>
<trkpt lat="47.911324" lon="11.113178">
<ele>531.739</ele>
<time>2022-05-27T09:40:38Z</time>
</trkpt>
<trkpt lat="47.91132" lon="11.113244">
<ele>531.684</ele>
<time>2022-05-27T09:40:39Z</time>
</trkpt>
<trkpt lat="47.911293" lon="11.113302">
<ele>531.643</ele>
<time>2022-05-27T09:40:40Z</time>
</trkpt>
<trkpt lat="47.911263" lon="11.113351">
<ele>531.617</ele>
<time>2022-05-27T09:40:41Z</time>
</trkpt>
<trkpt lat="47.911232" lon="11.113388">
<ele>531.617</ele>
<time>2022-05-27T09:40:42Z</time>
</trkpt>
<trkpt lat="47.911201" lon="11.113433">
<ele>531.617</ele>
<time>2022-05-27T09:40:43Z</time>
</trkpt>
<trkpt lat="47.911175" lon="11.113483">
<ele>531.617</ele>
<time>2022-05-27T09:40:44Z</time>
</trkpt>
<trkpt lat="47.911152" lon="11.113538">
<ele>531.617</ele>
<time>2022-05-27T09:40:45Z</time>
</trkpt>
<trkpt lat="47.911125" lon="11.113604">
<ele>531.617</ele>
<time>2022-05-27T09:40:46Z</time>
</trkpt>
<trkpt lat="47.91111" lon="11.113669">
<ele>531.617</ele>
<time>2022-05-27T09:40:47Z</time>
</trkpt>
<trkpt lat="47.911098" lon="11.113742">
<ele>531.617</ele>
<time>2022-05-27T09:40:48Z</time>
</trkpt>
<trkpt lat="47.911091" lon="11.113813">
<ele>531.617</ele>
<time>2022-05-27T09:40:49Z</time>
</trkpt>
<trkpt lat="47.911087" lon="11.113887">
<ele>531.617</ele>
<time>2022-05-27T09:40:50Z</time>
</trkpt>
<trkpt lat="47.911091" lon="11.113965">
<ele>531.617</ele>
<time>2022-05-27T09:40:51Z</time>
</trkpt>
<trkpt lat="47.911095" lon="11.11404">
<ele>531.616</ele>
<time>2022-05-27T09:40:52Z</time>
</trkpt>
<trkpt lat="47.911106" lon="11.114116">
<ele>531.617</ele>
<time>2022-05-27T09:40:53Z</time>
</trkpt>
<trkpt lat="47.911121" lon="11.114185">
<ele>531.617</ele>
<time>2022-05-27T09:40:54Z</time>
</trkpt>
<trkpt lat="47.911137" lon="11.114252">
<ele>531.617</ele>
<time>2022-05-27T09:40:55Z</time>
</trkpt>
<trkpt lat="47.911152" lon="11.114315">
<ele>531.617</ele>
<time>2022-05-27T09:40:56Z</time>
</trkpt>
<trkpt lat="47.91116" lon="11.114378">
<ele>531.616</ele>
<time>2022-05-27T09:40:57Z</time>
</trkpt>
<trkpt lat="47.91116" lon="11.114442">
<ele>531.617</ele>
<time>2022-05-27T09:40:58Z</time>
</trkpt>
<trkpt lat="47.91116" lon="11.114505">
<ele>531.617</ele>
<time>2022-05-27T09:40:59Z</time>
</trkpt>
<trkpt lat="47.91114" lon="11.114562">
<ele>531.617</ele>
<time>2022-05-27T09:41:00Z</time>
</trkpt>
<trkpt lat="47.911125" lon="11.114608">
<ele>531.617</ele>
<time>2022-05-27T09:41:01Z</time>
</trkpt>
<trkpt lat="47.911095" lon="11.114648">
<ele>531.617</ele>
<time>2022-05-27T09:41:02Z</time>
</trkpt>
<trkpt lat="47.911057" lon="11.114685">
<ele>531.617</ele>
<time>2022-05-27T09:41:03Z</time>
</trkpt>
<trkpt lat="47.911018" lon="11.114721">
<ele>531.617</ele>
<time>2022-05-27T09:41:04Z</time>
</trkpt>
<trkpt lat="47.910976" lon="11.11476">
<ele>531.617</ele>
<time>2022-05-27T09:41:05Z</time>
</trkpt>
<trkpt lat="47.910931" lon="11.114801">
<ele>531.617</ele>
<time>2022-05-27T09:41:06Z</time>
</trkpt>
<trkpt lat="47.910877" lon="11.114845">
<ele>531.617</ele>
<time>2022-05-27T09:41:07Z</time>
</trkpt>
<trkpt lat="47.910828" lon="11.114891">
<ele>531.617</ele>
<time>2022-05-27T09:41:08Z</time>
</trkpt>
<trkpt lat="47.91077" lon="11.114942">
<ele>531.617</ele>
<time>2022-05-27T09:41:09Z</time>
</trkpt>
<trkpt lat="47.910721" lon="11.114995">
<ele>531.617</ele>
<time>2022-05-27T09:41:10Z</time>
</trkpt>
<trkpt lat="47.910667" lon="11.115046">
<ele>531.617</ele>
<time>2022-05-27T09:41:11Z</time>
</trkpt>
<trkpt lat="47.910614" lon="11.115096">
<ele>531.617</ele>
<time>2022-05-27T09:41:12Z</time>
</trkpt>
<trkpt lat="47.910561" lon="11.115149">
<ele>531.617</ele>
<time>2022-05-27T09:41:13Z</time>
</trkpt>
<trkpt lat="47.910507" lon="11.115198">
<ele>531.617</ele>
<time>2022-05-27T09:41:14Z</time>
</trkpt>
<trkpt lat="47.910461" lon="11.11525">
<ele>531.617</ele>
<time>2022-05-27T09:41:15Z</time>
</trkpt>
<trkpt lat="47.910412" lon="11.115299">
<ele>531.617</ele>
<time>2022-05-27T09:41:16Z</time>
</trkpt>
<trkpt lat="47.910366" lon="11.115352">
<ele>531.617</ele>
<time>2022-05-27T09:41:17Z</time>
</trkpt>
<trkpt lat="47.910316" lon="11.115404">
<ele>531.617</ele>
<time>2022-05-27T09:41:18Z</time>
</trkpt>
<trkpt lat="47.910271" lon="11.11546">
<ele>531.617</ele>
<time>2022-05-27T09:41:19Z</time>
</trkpt>
<trkpt lat="47.910221" lon="11.11551">
<ele>531.617</ele>
<time>2022-05-27T09:41:20Z</time>
</trkpt>
<trkpt lat="47.910175" lon="11.115565">
<ele>531.617</ele>
<time>2022-05-27T09:41:21Z</time>
</trkpt>
<trkpt lat="47.91013" lon="11.115615">
<ele>531.617</ele>
<time>2022-05-27T09:41:22Z</time>
</trkpt>
<trkpt lat="47.91008" lon="11.115664">
<ele>531.617</ele>
<time>2022-05-27T09:41:23Z</time>
</trkpt>
<trkpt lat="47.910034" lon="11.115712">
<ele>531.617</ele>
<time>2022-05-27T09:41:24Z</time>
</trkpt>
<trkpt lat="47.909992" lon="11.11576">
<ele>531.617</ele>
<time>2022-05-27T09:41:25Z</time>
</trkpt>
<trkpt lat="47.909954" lon="11.115804">
<ele>531.617</ele>
<time>2022-05-27T09:41:26Z</time>
</trkpt>
<trkpt lat="47.90992" lon="11.115845">
<ele>531.617</ele>
<time>2022-05-27T09:41:27Z</time>
</trkpt>
<trkpt lat="47.909885" lon="11.115882">
<ele>531.617</ele>
<time>2022-05-27T09:41:28Z</time>
</trkpt>
<trkpt lat="47.909855" lon="11.115917">
<ele>531.617</ele>
<time>2022-05-27T09:41:29Z</time>
</trkpt>
<trkpt lat="47.909817" lon="11.115949">
<ele>531.617</ele>
<time>2022-05-27T09:41:30Z</time>
</trkpt>
<trkpt lat="47.909779" lon="11.115978">
<ele>531.617</ele>
<time>2022-05-27T09:41:31Z</time>
</trkpt>
<trkpt lat="47.909737" lon="11.116005">
<ele>531.617</ele>
<time>2022-05-27T09:41:32Z</time>
</trkpt>
<trkpt lat="47.909702" lon="11.116029">
<ele>531.617</ele>
<time>2022-05-27T09:41:33Z</time>
</trkpt>
<trkpt lat="47.90966" lon="11.116058">
<ele>531.617</ele>
<time>2022-05-27T09:41:34Z</time>
</trkpt>
<trkpt lat="47.909626" lon="11.116098">
<ele>531.617</ele>
<time>2022-05-27T09:41:35Z</time>
</trkpt>
<trkpt lat="47.909588" lon="11.116146">
<ele>531.617</ele>
<time>2022-05-27T09:41:36Z</time>
</trkpt>
<trkpt lat="47.909554" lon="11.116197">
<ele>531.617</ele>
<time>2022-05-27T09:41:37Z</time>
</trkpt>
<trkpt lat="47.909515" lon="11.116246">
<ele>531.617</ele>
<time>2022-05-27T09:41:38Z</time>
</trkpt>
<trkpt lat="47.909473" lon="11.116295">
<ele>531.617</ele>
<time>2022-05-27T09:41:39Z</time>
</trkpt>
<trkpt lat="47.909435" lon="11.116341">
<ele>531.617</ele>
<time>2022-05-27T09:41:40Z</time>
</trkpt>
<trkpt lat="47.909397" lon="11.116385">
<ele>531.617</ele>
<time>2022-05-27T09:41:41Z</time>
</trkpt>
<trkpt lat="47.909355" lon="11.11643">
<ele>531.617</ele>
<time>2022-05-27T09:41:42Z</time>
</trkpt>
<trkpt lat="47.909309" lon="11.116475">
<ele>531.617</ele>
<time>2022-05-27T09:41:43Z</time>
</trkpt>
<trkpt lat="47.909267" lon="11.116521">
<ele>531.617</ele>
<time>2022-05-27T09:41:44Z</time>
</trkpt>
<trkpt lat="47.909233" lon="11.116569">
<ele>531.617</ele>
<time>2022-05-27T09:41:45Z</time>
</trkpt>
<trkpt lat="47.909191" lon="11.116613">
<ele>531.617</ele>
<time>2022-05-27T09:41:46Z</time>
</trkpt>
<trkpt lat="47.909149" lon="11.116655">
<ele>531.617</ele>
<time>2022-05-27T09:41:47Z</time>
</trkpt>
<trkpt lat="47.909103" lon="11.116694">
<ele>531.616</ele>
<time>2022-05-27T09:41:48Z</time>
</trkpt>
<trkpt lat="47.909065" lon="11.116735">
<ele>531.617</ele>
<time>2022-05-27T09:41:49Z</time>
</trkpt>
<trkpt lat="47.909023" lon="11.116778">
<ele>531.617</ele>
<time>2022-05-27T09:41:50Z</time>
</trkpt>
<trkpt lat="47.908985" lon="11.11682">
<ele>531.617</ele>
<time>2022-05-27T09:41:51Z</time>
</trkpt>
<trkpt lat="47.908943" lon="11.116863">
<ele>531.617</ele>
<time>2022-05-27T09:41:52Z</time>
</trkpt>
<trkpt lat="47.908905" lon="11.116904">
<ele>531.617</ele>
<time>2022-05-27T09:41:53Z</time>
</trkpt>
<trkpt lat="47.908863" lon="11.116946">
<ele>531.617</ele>
<time>2022-05-27T09:41:54Z</time>
</trkpt>
<trkpt lat="47.908817" lon="11.116986">
<ele>531.617</ele>
<time>2022-05-27T09:41:55Z</time>
</trkpt>
<trkpt lat="47.908779" lon="11.117026">
<ele>531.617</ele>
<time>2022-05-27T09:41:56Z</time>
</trkpt>
<trkpt lat="47.908737" lon="11.117064">
<ele>531.864</ele>
<time>2022-05-27T09:41:57Z</time>
</trkpt>
<trkpt lat="47.908691" lon="11.117097">
<ele>532.057</ele>
<time>2022-05-27T09:41:58Z</time>
</trkpt>
<trkpt lat="47.908649" lon="11.11713">
<ele>532.207</ele>
<time>2022-05-27T09:41:59Z</time>
</trkpt>
<trkpt lat="47.908611" lon="11.117165">
<ele>532.307</ele>
<time>2022-05-27T09:42:00Z</time>
</trkpt>
<trkpt lat="47.908573" lon="11.117197">
<ele>532.668</ele>
<time>2022-05-27T09:42:01Z</time>
</trkpt>
<trkpt lat="47.908539" lon="11.117229">
<ele>532.954</ele>
<time>2022-05-27T09:42:02Z</time>
</trkpt>
<trkpt lat="47.908504" lon="11.11726">
<ele>533.179</ele>
<time>2022-05-27T09:42:03Z</time>
</trkpt>
<trkpt lat="47.90847" lon="11.117295">
<ele>533.318</ele>
<time>2022-05-27T09:42:04Z</time>
</trkpt>
<trkpt lat="47.908432" lon="11.117328">
<ele>533.683</ele>
<time>2022-05-27T09:42:05Z</time>
</trkpt>
<trkpt lat="47.908398" lon="11.117358">
<ele>533.983</ele>
<time>2022-05-27T09:42:06Z</time>
</trkpt>
<trkpt lat="47.908363" lon="11.117387">
<ele>534.218</ele>
<time>2022-05-27T09:42:07Z</time>
</trkpt>
<trkpt lat="47.908333" lon="11.117422">
<ele>534.394</ele>
<time>2022-05-27T09:42:08Z</time>
</trkpt>
<trkpt lat="47.908314" lon="11.117455">
<ele>534.508</ele>
<time>2022-05-27T09:42:09Z</time>
</trkpt>
<trkpt lat="47.908298" lon="11.117501">
<ele>534.576</ele>
<time>2022-05-27T09:42:10Z</time>
</trkpt>
<trkpt lat="47.908291" lon="11.117548">
<ele>534.635</ele>
<time>2022-05-27T09:42:11Z</time>
</trkpt>
<trkpt lat="47.908291" lon="11.117594">
<ele>534.664</ele>
<time>2022-05-27T09:42:12Z</time>
</trkpt>
<trkpt lat="47.908298" lon="11.117629">
<ele>534.664</ele>
<time>2022-05-27T09:42:13Z</time>
</trkpt>
<trkpt lat="47.908314" lon="11.117661">
<ele>534.664</ele>
<time>2022-05-27T09:42:14Z</time>
</trkpt>
<trkpt lat="47.908325" lon="11.117688">
<ele>534.664</ele>
<time>2022-05-27T09:42:15Z</time>
</trkpt>
<trkpt lat="47.908337" lon="11.117711">
<ele>534.664</ele>
<time>2022-05-27T09:42:16Z</time>
</trkpt>
<trkpt lat="47.908344" lon="11.117732">
<ele>534.664</ele>
<time>2022-05-27T09:42:17Z</time>
</trkpt>
<trkpt lat="47.908352" lon="11.11775">
<ele>534.664</ele>
<time>2022-05-27T09:42:18Z</time>
</trkpt>
<trkpt lat="47.908356" lon="11.11776">
<ele>534.664</ele>
<time>2022-05-27T09:42:19Z</time>
</trkpt>
<trkpt lat="47.908356" lon="11.117762">
<ele>534.664</ele>
<time>2022-05-27T09:42:20Z</time>
</trkpt>
<trkpt lat="47.908356" lon="11.117764">
<ele>534.869</ele>
<time>2022-05-27T09:42:21Z</time>
</trkpt>
<trkpt lat="47.908375" lon="11.117759">
<ele>535.065</ele>
<time>2022-05-27T09:42:27Z</time>
</trkpt>
<trkpt lat="47.908379" lon="11.117743">
<ele>535.251</ele>
<time>2022-05-27T09:42:28Z</time>
</trkpt>
<trkpt lat="47.908379" lon="11.11773">
<ele>535.42</ele>
<time>2022-05-27T09:42:29Z</time>
</trkpt>
<trkpt lat="47.908379" lon="11.117719">
<ele>535.571</ele>
<time>2022-05-27T09:42:30Z</time>
</trkpt>
<trkpt lat="47.908371" lon="11.117711">
<ele>535.684</ele>
<time>2022-05-27T09:42:31Z</time>
</trkpt>
<trkpt lat="47.90836" lon="11.117708">
<ele>535.767</ele>
<time>2022-05-27T09:42:32Z</time>
</trkpt>
<trkpt lat="47.908352" lon="11.117699">
<ele>535.796</ele>
<time>2022-05-27T09:42:33Z</time>
</trkpt>
<trkpt lat="47.90834" lon="11.117688">
<ele>535.796</ele>
<time>2022-05-27T09:42:34Z</time>
</trkpt>
<trkpt lat="47.908333" lon="11.117675">
<ele>535.796</ele>
<time>2022-05-27T09:42:35Z</time>
</trkpt>
<trkpt lat="47.908325" lon="11.117659">
<ele>535.543</ele>
<time>2022-05-27T09:42:36Z</time>
</trkpt>
<trkpt lat="47.908314" lon="11.117641">
<ele>535.323</ele>
<time>2022-05-27T09:42:37Z</time>
</trkpt>
<trkpt lat="47.908298" lon="11.117629">
<ele>535.154</ele>
<time>2022-05-27T09:42:38Z</time>
</trkpt>
<trkpt lat="47.908287" lon="11.117619">
<ele>535.036</ele>
<time>2022-05-27T09:42:39Z</time>
</trkpt>
<trkpt lat="47.908272" lon="11.11761">
<ele>534.955</ele>
<time>2022-05-27T09:42:40Z</time>
</trkpt>
<trkpt lat="47.908257" lon="11.117605">
<ele>534.901</ele>
<time>2022-05-27T09:42:41Z</time>
</trkpt>
<trkpt lat="47.908241" lon="11.117605">
<ele>534.855</ele>
<time>2022-05-27T09:42:42Z</time>
</trkpt>
<trkpt lat="47.908222" lon="11.117603">
<ele>534.838</ele>
<time>2022-05-27T09:42:43Z</time>
</trkpt>
<trkpt lat="47.908195" lon="11.117606">
<ele>534.838</ele>
<time>2022-05-27T09:42:44Z</time>
</trkpt>
<trkpt lat="47.908176" lon="11.117614">
<ele>534.838</ele>
<time>2022-05-27T09:42:45Z</time>
</trkpt>
<trkpt lat="47.908157" lon="11.117619">
<ele>534.838</ele>
<time>2022-05-27T09:42:46Z</time>
</trkpt>
<trkpt lat="47.908154" lon="11.117623">
<ele>534.838</ele>
<time>2022-05-27T09:42:47Z</time>
</trkpt>
<trkpt lat="47.90815" lon="11.117629">
<ele>534.838</ele>
<time>2022-05-27T09:42:48Z</time>
</trkpt>
<trkpt lat="47.908146" lon="11.117631">
<ele>534.838</ele>
<time>2022-05-27T09:42:49Z</time>
</trkpt>
<trkpt lat="47.908146" lon="11.117635">
<ele>534.838</ele>
<time>2022-05-27T09:42:50Z</time>
</trkpt>
<trkpt lat="47.908123" lon="11.11768">
<ele>534.838</ele>
<time>2022-05-27T09:47:25Z</time>
</trkpt>
<trkpt lat="47.908112" lon="11.11769">
<ele>534.838</ele>
<time>2022-05-27T09:47:26Z</time>
</trkpt>
<trkpt lat="47.908104" lon="11.117703">
<ele>534.838</ele>
<time>2022-05-27T09:47:27Z</time>
</trkpt>
<trkpt lat="47.908092" lon="11.117719">
<ele>534.838</ele>
<time>2022-05-27T09:47:28Z</time>
</trkpt>
<trkpt lat="47.908077" lon="11.117734">
<ele>534.838</ele>
<time>2022-05-27T09:47:29Z</time>
</trkpt>
<trkpt lat="47.908062" lon="11.117746">
<ele>534.838</ele>
<time>2022-05-27T09:47:30Z</time>
</trkpt>
<trkpt lat="47.908043" lon="11.117765">
<ele>534.838</ele>
<time>2022-05-27T09:47:31Z</time>
</trkpt>
<trkpt lat="47.908016" lon="11.117792">
<ele>534.838</ele>
<time>2022-05-27T09:47:32Z</time>
</trkpt>
<trkpt lat="47.907978" lon="11.117826">
<ele>534.838</ele>
<time>2022-05-27T09:47:33Z</time>
</trkpt>
<trkpt lat="47.90794" lon="11.117864">
<ele>534.838</ele>
<time>2022-05-27T09:47:34Z</time>
</trkpt>
<trkpt lat="47.907909" lon="11.117904">
<ele>534.838</ele>
<time>2022-05-27T09:47:35Z</time>
</trkpt>
<trkpt lat="47.907871" lon="11.117945">
<ele>534.838</ele>
<time>2022-05-27T09:47:36Z</time>
</trkpt>
<trkpt lat="47.907833" lon="11.117983">
<ele>534.838</ele>
<time>2022-05-27T09:47:37Z</time>
</trkpt>
<trkpt lat="47.907791" lon="11.118029">
<ele>534.838</ele>
<time>2022-05-27T09:47:38Z</time>
</trkpt>
<trkpt lat="47.907742" lon="11.118073">
<ele>534.838</ele>
<time>2022-05-27T09:47:39Z</time>
</trkpt>
<trkpt lat="47.907696" lon="11.118121">
<ele>534.838</ele>
<time>2022-05-27T09:47:40Z</time>
</trkpt>
<trkpt lat="47.907642" lon="11.118178">
<ele>534.838</ele>
<time>2022-05-27T09:47:41Z</time>
</trkpt>
<trkpt lat="47.907589" lon="11.118235">
<ele>534.838</ele>
<time>2022-05-27T09:47:42Z</time>
</trkpt>
<trkpt lat="47.907539" lon="11.118293">
<ele>534.838</ele>
<time>2022-05-27T09:47:43Z</time>
</trkpt>
<trkpt lat="47.907482" lon="11.118361">
<ele>534.838</ele>
<time>2022-05-27T09:47:44Z</time>
</trkpt>
<trkpt lat="47.907429" lon="11.118419">
<ele>534.567</ele>
<time>2022-05-27T09:47:45Z</time>
</trkpt>
<trkpt lat="47.907375" lon="11.11848">
<ele>534.369</ele>
<time>2022-05-27T09:47:46Z</time>
</trkpt>
<trkpt lat="47.90731" lon="11.118545">
<ele>534.218</ele>
<time>2022-05-27T09:47:47Z</time>
</trkpt>
<trkpt lat="47.907261" lon="11.118608">
<ele>534.107</ele>
<time>2022-05-27T09:47:48Z</time>
</trkpt>
<trkpt lat="47.9072" lon="11.11868">
<ele>534.033</ele>
<time>2022-05-27T09:47:49Z</time>
</trkpt>
<trkpt lat="47.907146" lon="11.118746">
<ele>533.954</ele>
<time>2022-05-27T09:47:50Z</time>
</trkpt>
<trkpt lat="47.907085" lon="11.118814">
<ele>533.904</ele>
<time>2022-05-27T09:47:51Z</time>
</trkpt>
<trkpt lat="47.907028" lon="11.118876">
<ele>533.667</ele>
<time>2022-05-27T09:47:52Z</time>
</trkpt>
<trkpt lat="47.906971" lon="11.11894">
<ele>533.428</ele>
<time>2022-05-27T09:47:53Z</time>
</trkpt>
<trkpt lat="47.906914" lon="11.119005">
<ele>533.283</ele>
<time>2022-05-27T09:47:54Z</time>
</trkpt>
<trkpt lat="47.906853" lon="11.119077">
<ele>533.177</ele>
<time>2022-05-27T09:47:55Z</time>
</trkpt>
<trkpt lat="47.906788" lon="11.119146">
<ele>533.114</ele>
<time>2022-05-27T09:47:56Z</time>
</trkpt>
<trkpt lat="47.906723" lon="11.119219">
<ele>532.819</ele>
<time>2022-05-27T09:47:57Z</time>
</trkpt>
<trkpt lat="47.906658" lon="11.119284">
<ele>532.596</ele>
<time>2022-05-27T09:47:58Z</time>
</trkpt>
<trkpt lat="47.906601" lon="11.119345">
<ele>532.443</ele>
<time>2022-05-27T09:47:59Z</time>
</trkpt>
<trkpt lat="47.906544" lon="11.119407">
<ele>532.312</ele>
<time>2022-05-27T09:48:00Z</time>
</trkpt>
<trkpt lat="47.906487" lon="11.119476">
<ele>531.971</ele>
<time>2022-05-27T09:48:01Z</time>
</trkpt>
<trkpt lat="47.906429" lon="11.119546">
<ele>531.702</ele>
<time>2022-05-27T09:48:02Z</time>
</trkpt>
<trkpt lat="47.90638" lon="11.119612">
<ele>531.497</ele>
<time>2022-05-27T09:48:03Z</time>
</trkpt>
<trkpt lat="47.906315" lon="11.119683">
<ele>531.34</ele>
<time>2022-05-27T09:48:04Z</time>
</trkpt>
<trkpt lat="47.906254" lon="11.119757">
<ele>531.189</ele>
<time>2022-05-27T09:48:05Z</time>
</trkpt>
<trkpt lat="47.906193" lon="11.119828">
<ele>530.878</ele>
<time>2022-05-27T09:48:06Z</time>
</trkpt>
<trkpt lat="47.906136" lon="11.119902">
<ele>530.653</ele>
<time>2022-05-27T09:48:07Z</time>
</trkpt>
<trkpt lat="47.906071" lon="11.11998">
<ele>530.498</ele>
<time>2022-05-27T09:48:08Z</time>
</trkpt>
<trkpt lat="47.906006" lon="11.120058">
<ele>530.398</ele>
<time>2022-05-27T09:48:09Z</time>
</trkpt>
<trkpt lat="47.905941" lon="11.12014">
<ele>530.29</ele>
<time>2022-05-27T09:48:10Z</time>
</trkpt>
<trkpt lat="47.905872" lon="11.12022">
<ele>529.967</ele>
<time>2022-05-27T09:48:11Z</time>
</trkpt>
<trkpt lat="47.905804" lon="11.120296">
<ele>529.726</ele>
<time>2022-05-27T09:48:12Z</time>
</trkpt>
<trkpt lat="47.905739" lon="11.120367">
<ele>529.539</ele>
<time>2022-05-27T09:48:13Z</time>
</trkpt>
<trkpt lat="47.905678" lon="11.120439">
<ele>529.336</ele>
<time>2022-05-27T09:48:14Z</time>
</trkpt>
<trkpt lat="47.905617" lon="11.12051">
<ele>529.255</ele>
<time>2022-05-27T09:48:15Z</time>
</trkpt>
<trkpt lat="47.905552" lon="11.120584">
<ele>529.211</ele>
<time>2022-05-27T09:48:16Z</time>
</trkpt>
<trkpt lat="47.905495" lon="11.120646">
<ele>528.951</ele>
<time>2022-05-27T09:48:17Z</time>
</trkpt>
<trkpt lat="47.905437" lon="11.120717">
<ele>528.789</ele>
<time>2022-05-27T09:48:18Z</time>
</trkpt>
<trkpt lat="47.905376" lon="11.120787">
<ele>528.425</ele>
<time>2022-05-27T09:48:19Z</time>
</trkpt>
<trkpt lat="47.905319" lon="11.120852">
<ele>528.083</ele>
<time>2022-05-27T09:48:20Z</time>
</trkpt>
<trkpt lat="47.905258" lon="11.120914">
<ele>527.803</ele>
<time>2022-05-27T09:48:21Z</time>
</trkpt>
<trkpt lat="47.905197" lon="11.120976">
<ele>527.592</ele>
<time>2022-05-27T09:48:22Z</time>
</trkpt>
<trkpt lat="47.905136" lon="11.121043">
<ele>527.437</ele>
<time>2022-05-27T09:48:23Z</time>
</trkpt>
<trkpt lat="47.905079" lon="11.121109">
<ele>527.336</ele>
<time>2022-05-27T09:48:24Z</time>
</trkpt>
<trkpt lat="47.905022" lon="11.121174">
<ele>527.287</ele>
<time>2022-05-27T09:48:25Z</time>
</trkpt>
<trkpt lat="47.904972" lon="11.121235">
<ele>527.265</ele>
<time>2022-05-27T09:48:26Z</time>
</trkpt>
<trkpt lat="47.904919" lon="11.121286">
<ele>527.265</ele>
<time>2022-05-27T09:48:27Z</time>
</trkpt>
<trkpt lat="47.904865" lon="11.12134">
<ele>527.265</ele>
<time>2022-05-27T09:48:28Z</time>
</trkpt>
<trkpt lat="47.904812" lon="11.121395">
<ele>527.266</ele>
<time>2022-05-27T09:48:29Z</time>
</trkpt>
<trkpt lat="47.904762" lon="11.12145">
<ele>527.266</ele>
<time>2022-05-27T09:48:30Z</time>
</trkpt>
<trkpt lat="47.904705" lon="11.121507">
<ele>527.265</ele>
<time>2022-05-27T09:48:31Z</time>
</trkpt>
<trkpt lat="47.904659" lon="11.121562">
<ele>527.265</ele>
<time>2022-05-27T09:48:32Z</time>
</trkpt>
<trkpt lat="47.904613" lon="11.121618">
<ele>527.265</ele>
<time>2022-05-27T09:48:33Z</time>
</trkpt>
<trkpt lat="47.904568" lon="11.121676">
<ele>527.265</ele>
<time>2022-05-27T09:48:34Z</time>
</trkpt>
<trkpt lat="47.904518" lon="11.121734">
<ele>527.265</ele>
<time>2022-05-27T09:48:35Z</time>
</trkpt>
<trkpt lat="47.904472" lon="11.121785">
<ele>527.266</ele>
<time>2022-05-27T09:48:36Z</time>
</trkpt>
<trkpt lat="47.904423" lon="11.121839">
<ele>527.265</ele>
<time>2022-05-27T09:48:37Z</time>
</trkpt>
<trkpt lat="47.904377" lon="11.121893">
<ele>527.265</ele>
<time>2022-05-27T09:48:38Z</time>
</trkpt>
<trkpt lat="47.904335" lon="11.121948">
<ele>527.265</ele>
<time>2022-05-27T09:48:39Z</time>
</trkpt>
<trkpt lat="47.904289" lon="11.122005">
<ele>527.265</ele>
<time>2022-05-27T09:48:40Z</time>
</trkpt>
<trkpt lat="47.904247" lon="11.122058">
<ele>527.265</ele>
<time>2022-05-27T09:48:41Z</time>
</trkpt>
<trkpt lat="47.904202" lon="11.122108">
<ele>527.265</ele>
<time>2022-05-27T09:48:42Z</time>
</trkpt>
<trkpt lat="47.904156" lon="11.122158">
<ele>527.265</ele>
<time>2022-05-27T09:48:43Z</time>
</trkpt>
<trkpt lat="47.904118" lon="11.122209">
<ele>527.265</ele>
<time>2022-05-27T09:48:44Z</time>
</trkpt>
<trkpt lat="47.904079" lon="11.122257">
<ele>527.265</ele>
<time>2022-05-27T09:48:45Z</time>
</trkpt>
<trkpt lat="47.904034" lon="11.1223">
<ele>527.266</ele>
<time>2022-05-27T09:48:46Z</time>
</trkpt>
<trkpt lat="47.903992" lon="11.122345">
<ele>527.266</ele>
<time>2022-05-27T09:48:47Z</time>
</trkpt>
<trkpt lat="47.90395" lon="11.122389">
<ele>527.266</ele>
<time>2022-05-27T09:48:48Z</time>
</trkpt>
<trkpt lat="47.903908" lon="11.122432">
<ele>527.265</ele>
<time>2022-05-27T09:48:49Z</time>
</trkpt>
<trkpt lat="47.903866" lon="11.122477">
<ele>527.265</ele>
<time>2022-05-27T09:48:50Z</time>
</trkpt>
<trkpt lat="47.903824" lon="11.122519">
<ele>527.265</ele>
<time>2022-05-27T09:48:51Z</time>
</trkpt>
<trkpt lat="47.903782" lon="11.122563">
<ele>527.266</ele>
<time>2022-05-27T09:48:52Z</time>
</trkpt>
<trkpt lat="47.903736" lon="11.122607">
<ele>527.265</ele>
<time>2022-05-27T09:48:53Z</time>
</trkpt>
<trkpt lat="47.90369" lon="11.122657">
<ele>527.265</ele>
<time>2022-05-27T09:48:54Z</time>
</trkpt>
<trkpt lat="47.903648" lon="11.122705">
<ele>527.265</ele>
<time>2022-05-27T09:48:55Z</time>
</trkpt>
<trkpt lat="47.903603" lon="11.122751">
<ele>527.266</ele>
<time>2022-05-27T09:48:56Z</time>
</trkpt>
<trkpt lat="47.903561" lon="11.1228">
<ele>527.265</ele>
<time>2022-05-27T09:48:57Z</time>
</trkpt>
<trkpt lat="47.903522" lon="11.122847">
<ele>527.265</ele>
<time>2022-05-27T09:48:58Z</time>
</trkpt>
<trkpt lat="47.903481" lon="11.122893">
<ele>527.265</ele>
<time>2022-05-27T09:48:59Z</time>
</trkpt>
<trkpt lat="47.903439" lon="11.122942">
<ele>527.265</ele>
<time>2022-05-27T09:49:00Z</time>
</trkpt>
<trkpt lat="47.903397" lon="11.122993">
<ele>527.265</ele>
<time>2022-05-27T09:49:01Z</time>
</trkpt>
<trkpt lat="47.903347" lon="11.123049">
<ele>527.265</ele>
<time>2022-05-27T09:49:02Z</time>
</trkpt>
<trkpt lat="47.903301" lon="11.12311">
<ele>527.266</ele>
<time>2022-05-27T09:49:03Z</time>
</trkpt>
<trkpt lat="47.903255" lon="11.123168">
<ele>527.265</ele>
<time>2022-05-27T09:49:04Z</time>
</trkpt>
<trkpt lat="47.903206" lon="11.123225">
<ele>527.265</ele>
<time>2022-05-27T09:49:05Z</time>
</trkpt>
<trkpt lat="47.90316" lon="11.123281">
<ele>527.266</ele>
<time>2022-05-27T09:49:06Z</time>
</trkpt>
<trkpt lat="47.903111" lon="11.123335">
<ele>527.266</ele>
<time>2022-05-27T09:49:07Z</time>
</trkpt>
<trkpt lat="47.903069" lon="11.123388">
<ele>527.265</ele>
<time>2022-05-27T09:49:08Z</time>
</trkpt>
<trkpt lat="47.903019" lon="11.123442">
<ele>527.265</ele>
<time>2022-05-27T09:49:09Z</time>
</trkpt>
<trkpt lat="47.902973" lon="11.123495">
<ele>527.265</ele>
<time>2022-05-27T09:49:10Z</time>
</trkpt>
<trkpt lat="47.902927" lon="11.123549">
<ele>527.265</ele>
<time>2022-05-27T09:49:11Z</time>
</trkpt>
<trkpt lat="47.902878" lon="11.1236">
<ele>527.265</ele>
<time>2022-05-27T09:49:12Z</time>
</trkpt>
<trkpt lat="47.902832" lon="11.123652">
<ele>527.265</ele>
<time>2022-05-27T09:49:13Z</time>
</trkpt>
<trkpt lat="47.902782" lon="11.123705">
<ele>527.266</ele>
<time>2022-05-27T09:49:14Z</time>
</trkpt>
<trkpt lat="47.902737" lon="11.123759">
<ele>527.265</ele>
<time>2022-05-27T09:49:15Z</time>
</trkpt>
<trkpt lat="47.902683" lon="11.123814">
<ele>527.266</ele>
<time>2022-05-27T09:49:16Z</time>
</trkpt>
<trkpt lat="47.902637" lon="11.123866">
<ele>527.265</ele>
<time>2022-05-27T09:49:17Z</time>
</trkpt>
<trkpt lat="47.902588" lon="11.12392">
<ele>527.265</ele>
<time>2022-05-27T09:49:18Z</time>
</trkpt>
<trkpt lat="47.902546" lon="11.123973">
<ele>527.265</ele>
<time>2022-05-27T09:49:19Z</time>
</trkpt>
<trkpt lat="47.902496" lon="11.124027">
<ele>527.265</ele>
<time>2022-05-27T09:49:20Z</time>
</trkpt>
<trkpt lat="47.902451" lon="11.124084">
<ele>527.265</ele>
<time>2022-05-27T09:49:21Z</time>
</trkpt>
<trkpt lat="47.902397" lon="11.124142">
<ele>527.265</ele>
<time>2022-05-27T09:49:22Z</time>
</trkpt>
<trkpt lat="47.902348" lon="11.124199">
<ele>527.265</ele>
<time>2022-05-27T09:49:23Z</time>
</trkpt>
<trkpt lat="47.902298" lon="11.124251">
<ele>527.265</ele>
<time>2022-05-27T09:49:24Z</time>
</trkpt>
<trkpt lat="47.902252" lon="11.124309">
<ele>527.034</ele>
<time>2022-05-27T09:49:25Z</time>
</trkpt>
<trkpt lat="47.902199" lon="11.124363">
<ele>526.852</ele>
<time>2022-05-27T09:49:26Z</time>
</trkpt>
<trkpt lat="47.902149" lon="11.124421">
<ele>526.713</ele>
<time>2022-05-27T09:49:27Z</time>
</trkpt>
<trkpt lat="47.9021" lon="11.124478">
<ele>526.61</ele>
<time>2022-05-27T09:49:28Z</time>
</trkpt>
<trkpt lat="47.90205" lon="11.124532">
<ele>526.541</ele>
<time>2022-05-27T09:49:29Z</time>
</trkpt>
<trkpt lat="47.901997" lon="11.124583">
<ele>526.467</ele>
<time>2022-05-27T09:49:30Z</time>
</trkpt>
<trkpt lat="47.901947" lon="11.124637">
<ele>526.418</ele>
<time>2022-05-27T09:49:31Z</time>
</trkpt>
<trkpt lat="47.901897" lon="11.124692">
<ele>526.395</ele>
<time>2022-05-27T09:49:32Z</time>
</trkpt>
<trkpt lat="47.901852" lon="11.124746">
<ele>526.395</ele>
<time>2022-05-27T09:49:33Z</time>
</trkpt>
<trkpt lat="47.901802" lon="11.124801">
<ele>526.395</ele>
<time>2022-05-27T09:49:34Z</time>
</trkpt>
<trkpt lat="47.901752" lon="11.124853">
<ele>526.395</ele>
<time>2022-05-27T09:49:35Z</time>
</trkpt>
<trkpt lat="47.901703" lon="11.124906">
<ele>526.395</ele>
<time>2022-05-27T09:49:36Z</time>
</trkpt>
<trkpt lat="47.901653" lon="11.12496">
<ele>526.395</ele>
<time>2022-05-27T09:49:37Z</time>
</trkpt>
<trkpt lat="47.901604" lon="11.125014">
<ele>526.395</ele>
<time>2022-05-27T09:49:38Z</time>
</trkpt>
<trkpt lat="47.90155" lon="11.125071">
<ele>526.395</ele>
<time>2022-05-27T09:49:39Z</time>
</trkpt>
<trkpt lat="47.901505" lon="11.125125">
<ele>526.395</ele>
<time>2022-05-27T09:49:40Z</time>
</trkpt>
<trkpt lat="47.901451" lon="11.12518">
<ele>526.395</ele>
<time>2022-05-27T09:49:41Z</time>
</trkpt>
<trkpt lat="47.901405" lon="11.125235">
<ele>526.395</ele>
<time>2022-05-27T09:49:42Z</time>
</trkpt>
<trkpt lat="47.901356" lon="11.125291">
<ele>526.395</ele>
<time>2022-05-27T09:49:43Z</time>
</trkpt>
<trkpt lat="47.901306" lon="11.125347">
<ele>526.395</ele>
<time>2022-05-27T09:49:44Z</time>
</trkpt>
<trkpt lat="47.901257" lon="11.125401">
<ele>526.395</ele>
<time>2022-05-27T09:49:45Z</time>
</trkpt>
<trkpt lat="47.901211" lon="11.125459">
<ele>526.395</ele>
<time>2022-05-27T09:49:46Z</time>
</trkpt>
<trkpt lat="47.901161" lon="11.125511">
<ele>526.395</ele>
<time>2022-05-27T09:49:47Z</time>
</trkpt>
<trkpt lat="47.901112" lon="11.125566">
<ele>526.395</ele>
<time>2022-05-27T09:49:48Z</time>
</trkpt>
<trkpt lat="47.901058" lon="11.125618">
<ele>526.395</ele>
<time>2022-05-27T09:49:49Z</time>
</trkpt>
<trkpt lat="47.901012" lon="11.125673">
<ele>526.162</ele>
<time>2022-05-27T09:49:50Z</time>
</trkpt>
<trkpt lat="47.900959" lon="11.125727">
<ele>525.967</ele>
<time>2022-05-27T09:49:51Z</time>
</trkpt>
<trkpt lat="47.900909" lon="11.125781">
<ele>525.805</ele>
<time>2022-05-27T09:49:52Z</time>
</trkpt>
<trkpt lat="47.90086" lon="11.125838">
<ele>525.676</ele>
<time>2022-05-27T09:49:53Z</time>
</trkpt>
<trkpt lat="47.90081" lon="11.125896">
<ele>525.578</ele>
<time>2022-05-27T09:49:54Z</time>
</trkpt>
<trkpt lat="47.900757" lon="11.125951">
<ele>525.506</ele>
<time>2022-05-27T09:49:55Z</time>
</trkpt>
<trkpt lat="47.900711" lon="11.126007">
<ele>525.46</ele>
<time>2022-05-27T09:49:56Z</time>
</trkpt>
<trkpt lat="47.900661" lon="11.126061">
<ele>525.438</ele>
<time>2022-05-27T09:49:57Z</time>
</trkpt>
<trkpt lat="47.900608" lon="11.126115">
<ele>525.438</ele>
<time>2022-05-27T09:49:58Z</time>
</trkpt>
<trkpt lat="47.900558" lon="11.126168">
<ele>525.438</ele>
<time>2022-05-27T09:49:59Z</time>
</trkpt>
<trkpt lat="47.900509" lon="11.126222">
<ele>525.438</ele>
<time>2022-05-27T09:50:00Z</time>
</trkpt>
<trkpt lat="47.900463" lon="11.126277">
<ele>525.438</ele>
<time>2022-05-27T09:50:01Z</time>
</trkpt>
<trkpt lat="47.900414" lon="11.126328">
<ele>525.438</ele>
<time>2022-05-27T09:50:02Z</time>
</trkpt>
<trkpt lat="47.900368" lon="11.12638">
<ele>525.438</ele>
<time>2022-05-27T09:50:03Z</time>
</trkpt>
<trkpt lat="47.900318" lon="11.126432">
<ele>525.438</ele>
<time>2022-05-27T09:50:04Z</time>
</trkpt>
<trkpt lat="47.900272" lon="11.126481">
<ele>525.438</ele>
<time>2022-05-27T09:50:05Z</time>
</trkpt>
<trkpt lat="47.900227" lon="11.126534">
<ele>525.438</ele>
<time>2022-05-27T09:50:06Z</time>
</trkpt>
<trkpt lat="47.900181" lon="11.126587">
<ele>525.438</ele>
<time>2022-05-27T09:50:07Z</time>
</trkpt>
<trkpt lat="47.900135" lon="11.126638">
<ele>525.438</ele>
<time>2022-05-27T09:50:08Z</time>
</trkpt>
<trkpt lat="47.900089" lon="11.12669">
<ele>525.438</ele>
<time>2022-05-27T09:50:09Z</time>
</trkpt>
<trkpt lat="47.90004" lon="11.126745">
<ele>525.438</ele>
<time>2022-05-27T09:50:10Z</time>
</trkpt>
<trkpt lat="47.899994" lon="11.1268">
<ele>525.438</ele>
<time>2022-05-27T09:50:11Z</time>
</trkpt>
<trkpt lat="47.899944" lon="11.126856">
<ele>525.438</ele>
<time>2022-05-27T09:50:12Z</time>
</trkpt>
<trkpt lat="47.899895" lon="11.126912">
<ele>525.438</ele>
<time>2022-05-27T09:50:13Z</time>
</trkpt>
<trkpt lat="47.899845" lon="11.126968">
<ele>525.438</ele>
<time>2022-05-27T09:50:14Z</time>
</trkpt>
<trkpt lat="47.899796" lon="11.127024">
<ele>525.438</ele>
<time>2022-05-27T09:50:15Z</time>
</trkpt>
<trkpt lat="47.899746" lon="11.12708">
<ele>525.438</ele>
<time>2022-05-27T09:50:16Z</time>
</trkpt>
<trkpt lat="47.899696" lon="11.127136">
<ele>525.438</ele>
<time>2022-05-27T09:50:17Z</time>
</trkpt>
<trkpt lat="47.899651" lon="11.127193">
<ele>525.438</ele>
<time>2022-05-27T09:50:18Z</time>
</trkpt>
<trkpt lat="47.899605" lon="11.12725">
<ele>525.438</ele>
<time>2022-05-27T09:50:19Z</time>
</trkpt>
<trkpt lat="47.899555" lon="11.127305">
<ele>525.438</ele>
<time>2022-05-27T09:50:20Z</time>
</trkpt>
<trkpt lat="47.899509" lon="11.127358">
<ele>525.438</ele>
<time>2022-05-27T09:50:21Z</time>
</trkpt>
<trkpt lat="47.89946" lon="11.127415">
<ele>525.438</ele>
<time>2022-05-27T09:50:22Z</time>
</trkpt>
<trkpt lat="47.899418" lon="11.127474">
<ele>525.438</ele>
<time>2022-05-27T09:50:23Z</time>
</trkpt>
<trkpt lat="47.899368" lon="11.127535">
<ele>525.438</ele>
<time>2022-05-27T09:50:24Z</time>
</trkpt>
<trkpt lat="47.899323" lon="11.127593">
<ele>525.438</ele>
<time>2022-05-27T09:50:25Z</time>
</trkpt>
<trkpt lat="47.899281" lon="11.127652">
<ele>525.438</ele>
<time>2022-05-27T09:50:26Z</time>
</trkpt>
<trkpt lat="47.899231" lon="11.127708">
<ele>525.438</ele>
<time>2022-05-27T09:50:27Z</time>
</trkpt>
<trkpt lat="47.899185" lon="11.127765">
<ele>525.184</ele>
<time>2022-05-27T09:50:28Z</time>
</trkpt>
<trkpt lat="47.899136" lon="11.127822">
<ele>525.003</ele>
<time>2022-05-27T09:50:29Z</time>
</trkpt>
<trkpt lat="47.89909" lon="11.127876">
<ele>524.818</ele>
<time>2022-05-27T09:50:30Z</time>
</trkpt>
<trkpt lat="47.89904" lon="11.127931">
<ele>524.669</ele>
<time>2022-05-27T09:50:31Z</time>
</trkpt>
<trkpt lat="47.898994" lon="11.127981">
<ele>524.555</ele>
<time>2022-05-27T09:50:32Z</time>
</trkpt>
<trkpt lat="47.898941" lon="11.128034">
<ele>524.472</ele>
<time>2022-05-27T09:50:33Z</time>
</trkpt>
<trkpt lat="47.898895" lon="11.128085">
<ele>524.419</ele>
<time>2022-05-27T09:50:34Z</time>
</trkpt>
<trkpt lat="47.898849" lon="11.128136">
<ele>524.394</ele>
<time>2022-05-27T09:50:35Z</time>
</trkpt>
<trkpt lat="47.898804" lon="11.128186">
<ele>524.394</ele>
<time>2022-05-27T09:50:36Z</time>
</trkpt>
<trkpt lat="47.898754" lon="11.128239">
<ele>524.394</ele>
<time>2022-05-27T09:50:37Z</time>
</trkpt>
<trkpt lat="47.898705" lon="11.128288">
<ele>524.394</ele>
<time>2022-05-27T09:50:38Z</time>
</trkpt>
<trkpt lat="47.898659" lon="11.12834">
<ele>524.394</ele>
<time>2022-05-27T09:50:39Z</time>
</trkpt>
<trkpt lat="47.898613" lon="11.128391">
<ele>524.394</ele>
<time>2022-05-27T09:50:40Z</time>
</trkpt>
<trkpt lat="47.898567" lon="11.128442">
<ele>524.394</ele>
<time>2022-05-27T09:50:41Z</time>
</trkpt>
<trkpt lat="47.898514" lon="11.12849">
<ele>524.394</ele>
<time>2022-05-27T09:50:42Z</time>
</trkpt>
<trkpt lat="47.898468" lon="11.128538">
<ele>524.394</ele>
<time>2022-05-27T09:50:43Z</time>
</trkpt>
<trkpt lat="47.898418" lon="11.128591">
<ele>524.394</ele>
<time>2022-05-27T09:50:44Z</time>
</trkpt>
<trkpt lat="47.898373" lon="11.12864">
<ele>524.394</ele>
<time>2022-05-27T09:50:45Z</time>
</trkpt>
<trkpt lat="47.898319" lon="11.12869">
<ele>524.394</ele>
<time>2022-05-27T09:50:46Z</time>
</trkpt>
<trkpt lat="47.898277" lon="11.128741">
<ele>524.394</ele>
<time>2022-05-27T09:50:47Z</time>
</trkpt>
<trkpt lat="47.898232" lon="11.128797">
<ele>524.394</ele>
<time>2022-05-27T09:50:48Z</time>
</trkpt>
<trkpt lat="47.898186" lon="11.12885">
<ele>524.394</ele>
<time>2022-05-27T09:50:49Z</time>
</trkpt>
<trkpt lat="47.898144" lon="11.128901">
<ele>524.394</ele>
<time>2022-05-27T09:50:50Z</time>
</trkpt>
<trkpt lat="47.898094" lon="11.128946">
<ele>524.394</ele>
<time>2022-05-27T09:50:51Z</time>
</trkpt>
<trkpt lat="47.898048" lon="11.12899">
<ele>524.394</ele>
<time>2022-05-27T09:50:52Z</time>
</trkpt>
<trkpt lat="47.897999" lon="11.129033">
<ele>524.394</ele>
<time>2022-05-27T09:50:53Z</time>
</trkpt>
<trkpt lat="47.897953" lon="11.129077">
<ele>524.394</ele>
<time>2022-05-27T09:50:54Z</time>
</trkpt>
<trkpt lat="47.897907" lon="11.129118">
<ele>524.394</ele>
<time>2022-05-27T09:50:55Z</time>
</trkpt>
<trkpt lat="47.897861" lon="11.129167">
<ele>524.394</ele>
<time>2022-05-27T09:50:56Z</time>
</trkpt>
<trkpt lat="47.897816" lon="11.129222">
<ele>524.394</ele>
<time>2022-05-27T09:50:57Z</time>
</trkpt>
<trkpt lat="47.89777" lon="11.129276">
<ele>524.394</ele>
<time>2022-05-27T09:50:58Z</time>
</trkpt>
<trkpt lat="47.897728" lon="11.129325">
<ele>524.394</ele>
<time>2022-05-27T09:50:59Z</time>
</trkpt>
<trkpt lat="47.89769" lon="11.129374">
<ele>524.394</ele>
<time>2022-05-27T09:51:00Z</time>
</trkpt>
<trkpt lat="47.897644" lon="11.129422">
<ele>524.394</ele>
<time>2022-05-27T09:51:01Z</time>
</trkpt>
<trkpt lat="47.897598" lon="11.12947">
<ele>524.394</ele>
<time>2022-05-27T09:51:02Z</time>
</trkpt>
<trkpt lat="47.897552" lon="11.129519">
<ele>524.394</ele>
<time>2022-05-27T09:51:03Z</time>
</trkpt>
<trkpt lat="47.897507" lon="11.129569">
<ele>524.394</ele>
<time>2022-05-27T09:51:04Z</time>
</trkpt>
<trkpt lat="47.897465" lon="11.129619">
<ele>524.394</ele>
<time>2022-05-27T09:51:05Z</time>
</trkpt>
<trkpt lat="47.897423" lon="11.129667">
<ele>524.394</ele>
<time>2022-05-27T09:51:06Z</time>
</trkpt>
<trkpt lat="47.897385" lon="11.129711">
<ele>524.394</ele>
<time>2022-05-27T09:51:07Z</time>
</trkpt>
<trkpt lat="47.897339" lon="11.129766">
<ele>524.394</ele>
<time>2022-05-27T09:51:08Z</time>
</trkpt>
<trkpt lat="47.897293" lon="11.129816">
<ele>524.394</ele>
<time>2022-05-27T09:51:09Z</time>
</trkpt>
<trkpt lat="47.897236" lon="11.129869">
<ele>524.394</ele>
<time>2022-05-27T09:51:10Z</time>
</trkpt>
<trkpt lat="47.897182" lon="11.129927">
<ele>524.394</ele>
<time>2022-05-27T09:51:11Z</time>
</trkpt>
<trkpt lat="47.897133" lon="11.129986">
<ele>524.394</ele>
<time>2022-05-27T09:51:12Z</time>
</trkpt>
<trkpt lat="47.897079" lon="11.130042">
<ele>524.394</ele>
<time>2022-05-27T09:51:13Z</time>
</trkpt>
<trkpt lat="47.897026" lon="11.130092">
<ele>524.394</ele>
<time>2022-05-27T09:51:14Z</time>
</trkpt>
<trkpt lat="47.896976" lon="11.130143">
<ele>524.394</ele>
<time>2022-05-27T09:51:15Z</time>
</trkpt>
<trkpt lat="47.896919" lon="11.130201">
<ele>524.394</ele>
<time>2022-05-27T09:51:16Z</time>
</trkpt>
<trkpt lat="47.89687" lon="11.130257">
<ele>524.394</ele>
<time>2022-05-27T09:51:17Z</time>
</trkpt>
<trkpt lat="47.89682" lon="11.13031">
<ele>524.394</ele>
<time>2022-05-27T09:51:18Z</time>
</trkpt>
<trkpt lat="47.896778" lon="11.130359">
<ele>524.394</ele>
<time>2022-05-27T09:51:19Z</time>
</trkpt>
<trkpt lat="47.896729" lon="11.130406">
<ele>524.394</ele>
<time>2022-05-27T09:51:20Z</time>
</trkpt>
<trkpt lat="47.896687" lon="11.130457">
<ele>524.394</ele>
<time>2022-05-27T09:51:21Z</time>
</trkpt>
<trkpt lat="47.896641" lon="11.130508">
<ele>524.394</ele>
<time>2022-05-27T09:51:22Z</time>
</trkpt>
<trkpt lat="47.896595" lon="11.13056">
<ele>524.394</ele>
<time>2022-05-27T09:51:23Z</time>
</trkpt>
<trkpt lat="47.896553" lon="11.13061">
<ele>524.394</ele>
<time>2022-05-27T09:51:24Z</time>
</trkpt>
<trkpt lat="47.896503" lon="11.130658">
<ele>524.394</ele>
<time>2022-05-27T09:51:25Z</time>
</trkpt>
<trkpt lat="47.896458" lon="11.130711">
<ele>524.394</ele>
<time>2022-05-27T09:51:26Z</time>
</trkpt>
<trkpt lat="47.89642" lon="11.130763">
<ele>524.394</ele>
<time>2022-05-27T09:51:27Z</time>
</trkpt>
<trkpt lat="47.89637" lon="11.130814">
<ele>524.394</ele>
<time>2022-05-27T09:51:28Z</time>
</trkpt>
<trkpt lat="47.896324" lon="11.130861">
<ele>524.394</ele>
<time>2022-05-27T09:51:29Z</time>
</trkpt>
<trkpt lat="47.896286" lon="11.130906">
<ele>524.394</ele>
<time>2022-05-27T09:51:30Z</time>
</trkpt>
<trkpt lat="47.89624" lon="11.130954">
<ele>524.394</ele>
<time>2022-05-27T09:51:31Z</time>
</trkpt>
<trkpt lat="47.896202" lon="11.130998">
<ele>524.394</ele>
<time>2022-05-27T09:51:32Z</time>
</trkpt>
<trkpt lat="47.89616" lon="11.131037">
<ele>524.394</ele>
<time>2022-05-27T09:51:33Z</time>
</trkpt>
<trkpt lat="47.896122" lon="11.131078">
<ele>524.394</ele>
<time>2022-05-27T09:51:34Z</time>
</trkpt>
<trkpt lat="47.89608" lon="11.13112">
<ele>524.394</ele>
<time>2022-05-27T09:51:35Z</time>
</trkpt>
<trkpt lat="47.896034" lon="11.131164">
<ele>524.394</ele>
<time>2022-05-27T09:51:36Z</time>
</trkpt>
<trkpt lat="47.896" lon="11.131208">
<ele>524.394</ele>
<time>2022-05-27T09:51:37Z</time>
</trkpt>
<trkpt lat="47.895947" lon="11.131258">
<ele>524.394</ele>
<time>2022-05-27T09:51:38Z</time>
</trkpt>
<trkpt lat="47.895901" lon="11.131302">
<ele>524.394</ele>
<time>2022-05-27T09:51:39Z</time>
</trkpt>
<trkpt lat="47.895851" lon="11.13136">
<ele>524.394</ele>
<time>2022-05-27T09:51:40Z</time>
</trkpt>
<trkpt lat="47.895802" lon="11.13142">
<ele>524.394</ele>
<time>2022-05-27T09:51:41Z</time>
</trkpt>
<trkpt lat="47.895744" lon="11.13148">
<ele>524.394</ele>
<time>2022-05-27T09:51:42Z</time>
</trkpt>
<trkpt lat="47.895691" lon="11.131538">
<ele>524.394</ele>
<time>2022-05-27T09:51:43Z</time>
</trkpt>
<trkpt lat="47.895638" lon="11.131591">
<ele>524.394</ele>
<time>2022-05-27T09:51:44Z</time>
</trkpt>
<trkpt lat="47.895584" lon="11.131645">
<ele>524.394</ele>
<time>2022-05-27T09:51:45Z</time>
</trkpt>
<trkpt lat="47.895535" lon="11.131701">
<ele>524.394</ele>
<time>2022-05-27T09:51:46Z</time>
</trkpt>
<trkpt lat="47.895481" lon="11.131759">
<ele>524.394</ele>
<time>2022-05-27T09:51:47Z</time>
</trkpt>
<trkpt lat="47.895432" lon="11.131813">
<ele>524.395</ele>
<time>2022-05-27T09:51:48Z</time>
</trkpt>
<trkpt lat="47.895378" lon="11.131866">
<ele>524.394</ele>
<time>2022-05-27T09:51:49Z</time>
</trkpt>
<trkpt lat="47.895332" lon="11.131915">
<ele>524.394</ele>
<time>2022-05-27T09:51:50Z</time>
</trkpt>
<trkpt lat="47.895283" lon="11.131966">
<ele>524.394</ele>
<time>2022-05-27T09:51:51Z</time>
</trkpt>
<trkpt lat="47.895237" lon="11.132011">
<ele>524.394</ele>
<time>2022-05-27T09:51:52Z</time>
</trkpt>
<trkpt lat="47.895187" lon="11.132058">
<ele>524.394</ele>
<time>2022-05-27T09:51:53Z</time>
</trkpt>
<trkpt lat="47.895145" lon="11.132109">
<ele>524.394</ele>
<time>2022-05-27T09:51:54Z</time>
</trkpt>
<trkpt lat="47.895096" lon="11.132154">
<ele>524.395</ele>
<time>2022-05-27T09:51:55Z</time>
</trkpt>
<trkpt lat="47.895054" lon="11.132198">
<ele>524.394</ele>
<time>2022-05-27T09:51:56Z</time>
</trkpt>
<trkpt lat="47.895012" lon="11.13224">
<ele>524.394</ele>
<time>2022-05-27T09:51:57Z</time>
</trkpt>
<trkpt lat="47.89497" lon="11.132284">
<ele>524.394</ele>
<time>2022-05-27T09:51:58Z</time>
</trkpt>
<trkpt lat="47.894928" lon="11.13233">
<ele>524.394</ele>
<time>2022-05-27T09:51:59Z</time>
</trkpt>
<trkpt lat="47.894886" lon="11.132381">
<ele>524.395</ele>
<time>2022-05-27T09:52:00Z</time>
</trkpt>
<trkpt lat="47.89484" lon="11.132435">
<ele>524.394</ele>
<time>2022-05-27T09:52:01Z</time>
</trkpt>
<trkpt lat="47.894791" lon="11.132496">
<ele>524.394</ele>
<time>2022-05-27T09:52:02Z</time>
</trkpt>
<trkpt lat="47.894741" lon="11.132555">
<ele>524.394</ele>
<time>2022-05-27T09:52:03Z</time>
</trkpt>
<trkpt lat="47.894691" lon="11.132613">
<ele>524.394</ele>
<time>2022-05-27T09:52:04Z</time>
</trkpt>
<trkpt lat="47.894638" lon="11.132669">
<ele>524.394</ele>
<time>2022-05-27T09:52:05Z</time>
</trkpt>
<trkpt lat="47.894596" lon="11.132725">
<ele>524.394</ele>
<time>2022-05-27T09:52:06Z</time>
</trkpt>
<trkpt lat="47.894547" lon="11.13278">
<ele>524.394</ele>
<time>2022-05-27T09:52:07Z</time>
</trkpt>
<trkpt lat="47.894497" lon="11.132833">
<ele>524.394</ele>
<time>2022-05-27T09:52:08Z</time>
</trkpt>
<trkpt lat="47.894455" lon="11.132888">
<ele>524.394</ele>
<time>2022-05-27T09:52:09Z</time>
</trkpt>
<trkpt lat="47.894405" lon="11.132945">
<ele>524.394</ele>
<time>2022-05-27T09:52:10Z</time>
</trkpt>
<trkpt lat="47.89436" lon="11.132998">
<ele>524.394</ele>
<time>2022-05-27T09:52:11Z</time>
</trkpt>
<trkpt lat="47.894314" lon="11.133051">
<ele>524.394</ele>
<time>2022-05-27T09:52:12Z</time>
</trkpt>
<trkpt lat="47.894272" lon="11.133105">
<ele>524.394</ele>
<time>2022-05-27T09:52:13Z</time>
</trkpt>
<trkpt lat="47.894226" lon="11.13316">
<ele>524.394</ele>
<time>2022-05-27T09:52:14Z</time>
</trkpt>
<trkpt lat="47.89418" lon="11.133212">
<ele>524.394</ele>
<time>2022-05-27T09:52:15Z</time>
</trkpt>
<trkpt lat="47.894135" lon="11.133262">
<ele>524.394</ele>
<time>2022-05-27T09:52:16Z</time>
</trkpt>
<trkpt lat="47.894085" lon="11.133311">
<ele>524.394</ele>
<time>2022-05-27T09:52:17Z</time>
</trkpt>
<trkpt lat="47.894039" lon="11.133364">
<ele>524.394</ele>
<time>2022-05-27T09:52:18Z</time>
</trkpt>
<trkpt lat="47.89399" lon="11.133417">
<ele>524.394</ele>
<time>2022-05-27T09:52:19Z</time>
</trkpt>
<trkpt lat="47.893944" lon="11.133471">
<ele>524.394</ele>
<time>2022-05-27T09:52:20Z</time>
</trkpt>
<trkpt lat="47.89389" lon="11.133527">
<ele>524.394</ele>
<time>2022-05-27T09:52:21Z</time>
</trkpt>
<trkpt lat="47.893845" lon="11.133581">
<ele>524.394</ele>
<time>2022-05-27T09:52:22Z</time>
</trkpt>
<trkpt lat="47.893791" lon="11.133636">
<ele>524.394</ele>
<time>2022-05-27T09:52:23Z</time>
</trkpt>
<trkpt lat="47.893745" lon="11.133688">
<ele>524.394</ele>
<time>2022-05-27T09:52:24Z</time>
</trkpt>
<trkpt lat="47.893696" lon="11.133745">
<ele>524.394</ele>
<time>2022-05-27T09:52:25Z</time>
</trkpt>
<trkpt lat="47.89365" lon="11.133801">
<ele>524.394</ele>
<time>2022-05-27T09:52:26Z</time>
</trkpt>
<trkpt lat="47.8936" lon="11.133858">
<ele>524.394</ele>
<time>2022-05-27T09:52:27Z</time>
</trkpt>
<trkpt lat="47.893555" lon="11.133915">
<ele>524.142</ele>
<time>2022-05-27T09:52:28Z</time>
</trkpt>
<trkpt lat="47.893513" lon="11.133968">
<ele>523.962</ele>
<time>2022-05-27T09:52:29Z</time>
</trkpt>
<trkpt lat="47.893467" lon="11.134022">
<ele>523.777</ele>
<time>2022-05-27T09:52:30Z</time>
</trkpt>
<trkpt lat="47.893421" lon="11.134071">
<ele>523.714</ele>
<time>2022-05-27T09:52:31Z</time>
</trkpt>
<trkpt lat="47.893387" lon="11.134115">
<ele>523.854</ele>
<time>2022-05-27T09:52:32Z</time>
</trkpt>
<trkpt lat="47.893349" lon="11.134153">
<ele>523.972</ele>
<time>2022-05-27T09:52:33Z</time>
</trkpt>
<trkpt lat="47.893307" lon="11.134189">
<ele>524.082</ele>
<time>2022-05-27T09:52:34Z</time>
</trkpt>
<trkpt lat="47.893261" lon="11.134225">
<ele>524.184</ele>
<time>2022-05-27T09:52:35Z</time>
</trkpt>
<trkpt lat="47.893219" lon="11.134262">
<ele>524.274</ele>
<time>2022-05-27T09:52:36Z</time>
</trkpt>
<trkpt lat="47.893177" lon="11.134306">
<ele>524.338</ele>
<time>2022-05-27T09:52:37Z</time>
</trkpt>
<trkpt lat="47.893139" lon="11.134355">
<ele>524.367</ele>
<time>2022-05-27T09:52:38Z</time>
</trkpt>
<trkpt lat="47.893097" lon="11.134403">
<ele>524.394</ele>
<time>2022-05-27T09:52:39Z</time>
</trkpt>
<trkpt lat="47.893051" lon="11.134448">
<ele>524.394</ele>
<time>2022-05-27T09:52:40Z</time>
</trkpt>
<trkpt lat="47.893002" lon="11.134501">
<ele>524.394</ele>
<time>2022-05-27T09:52:41Z</time>
</trkpt>
<trkpt lat="47.892956" lon="11.13455">
<ele>524.394</ele>
<time>2022-05-27T09:52:42Z</time>
</trkpt>
<trkpt lat="47.89291" lon="11.134599">
<ele>524.394</ele>
<time>2022-05-27T09:52:43Z</time>
</trkpt>
<trkpt lat="47.892864" lon="11.134655">
<ele>524.394</ele>
<time>2022-05-27T09:52:44Z</time>
</trkpt>
<trkpt lat="47.892815" lon="11.134708">
<ele>524.394</ele>
<time>2022-05-27T09:52:45Z</time>
</trkpt>
<trkpt lat="47.892773" lon="11.134757">
<ele>524.394</ele>
<time>2022-05-27T09:52:46Z</time>
</trkpt>
<trkpt lat="47.892727" lon="11.13481">
<ele>524.394</ele>
<time>2022-05-27T09:52:47Z</time>
</trkpt>
<trkpt lat="47.892677" lon="11.134863">
<ele>524.394</ele>
<time>2022-05-27T09:52:48Z</time>
</trkpt>
<trkpt lat="47.892635" lon="11.134915">
<ele>524.394</ele>
<time>2022-05-27T09:52:49Z</time>
</trkpt>
<trkpt lat="47.89259" lon="11.134966">
<ele>524.394</ele>
<time>2022-05-27T09:52:50Z</time>
</trkpt>
<trkpt lat="47.892544" lon="11.135015">
<ele>524.394</ele>
<time>2022-05-27T09:52:51Z</time>
</trkpt>
<trkpt lat="47.892502" lon="11.135063">
<ele>524.394</ele>
<time>2022-05-27T09:52:52Z</time>
</trkpt>
<trkpt lat="47.892464" lon="11.135112">
<ele>524.394</ele>
<time>2022-05-27T09:52:53Z</time>
</trkpt>
<trkpt lat="47.892426" lon="11.13516">
<ele>524.649</ele>
<time>2022-05-27T09:52:54Z</time>
</trkpt>
<trkpt lat="47.892391" lon="11.135209">
<ele>524.847</ele>
<time>2022-05-27T09:52:55Z</time>
</trkpt>
<trkpt lat="47.892349" lon="11.135257">
<ele>525.002</ele>
<time>2022-05-27T09:52:56Z</time>
</trkpt>
<trkpt lat="47.892307" lon="11.135307">
<ele>525.117</ele>
<time>2022-05-27T09:52:57Z</time>
</trkpt>
<trkpt lat="47.892262" lon="11.135355">
<ele>525.203</ele>
<time>2022-05-27T09:52:58Z</time>
</trkpt>
<trkpt lat="47.89222" lon="11.135406">
<ele>525.267</ele>
<time>2022-05-27T09:52:59Z</time>
</trkpt>
<trkpt lat="47.892181" lon="11.135454">
<ele>525.325</ele>
<time>2022-05-27T09:53:00Z</time>
</trkpt>
<trkpt lat="47.892136" lon="11.135502">
<ele>525.351</ele>
<time>2022-05-27T09:53:01Z</time>
</trkpt>
<trkpt lat="47.892094" lon="11.135547">
<ele>525.351</ele>
<time>2022-05-27T09:53:02Z</time>
</trkpt>
<trkpt lat="47.892048" lon="11.135592">
<ele>525.351</ele>
<time>2022-05-27T09:53:03Z</time>
</trkpt>
<trkpt lat="47.892002" lon="11.135642">
<ele>525.351</ele>
<time>2022-05-27T09:53:04Z</time>
</trkpt>
<trkpt lat="47.891956" lon="11.135691">
<ele>525.351</ele>
<time>2022-05-27T09:53:05Z</time>
</trkpt>
<trkpt lat="47.891914" lon="11.135738">
<ele>525.351</ele>
<time>2022-05-27T09:53:06Z</time>
</trkpt>
<trkpt lat="47.891869" lon="11.135787">
<ele>525.351</ele>
<time>2022-05-27T09:53:07Z</time>
</trkpt>
<trkpt lat="47.891823" lon="11.135836">
<ele>525.351</ele>
<time>2022-05-27T09:53:08Z</time>
</trkpt>
<trkpt lat="47.891777" lon="11.135883">
<ele>525.351</ele>
<time>2022-05-27T09:53:09Z</time>
</trkpt>
<trkpt lat="47.891727" lon="11.135935">
<ele>525.351</ele>
<time>2022-05-27T09:53:10Z</time>
</trkpt>
<trkpt lat="47.891685" lon="11.135983">
<ele>525.351</ele>
<time>2022-05-27T09:53:11Z</time>
</trkpt>
<trkpt lat="47.891644" lon="11.136028">
<ele>525.351</ele>
<time>2022-05-27T09:53:12Z</time>
</trkpt>
<trkpt lat="47.891598" lon="11.136075">
<ele>525.351</ele>
<time>2022-05-27T09:53:13Z</time>
</trkpt>
<trkpt lat="47.891556" lon="11.136122">
<ele>525.351</ele>
<time>2022-05-27T09:53:14Z</time>
</trkpt>
<trkpt lat="47.89151" lon="11.13617">
<ele>525.351</ele>
<time>2022-05-27T09:53:15Z</time>
</trkpt>
<trkpt lat="47.891468" lon="11.13622">
<ele>525.351</ele>
<time>2022-05-27T09:53:16Z</time>
</trkpt>
<trkpt lat="47.891422" lon="11.136269">
<ele>525.351</ele>
<time>2022-05-27T09:53:17Z</time>
</trkpt>
<trkpt lat="47.891376" lon="11.136317">
<ele>525.351</ele>
<time>2022-05-27T09:53:18Z</time>
</trkpt>
<trkpt lat="47.891335" lon="11.136363">
<ele>525.351</ele>
<time>2022-05-27T09:53:19Z</time>
</trkpt>
<trkpt lat="47.891293" lon="11.136408">
<ele>525.351</ele>
<time>2022-05-27T09:53:20Z</time>
</trkpt>
<trkpt lat="47.891251" lon="11.136456">
<ele>525.351</ele>
<time>2022-05-27T09:53:21Z</time>
</trkpt>
<trkpt lat="47.891205" lon="11.136497">
<ele>525.351</ele>
<time>2022-05-27T09:53:22Z</time>
</trkpt>
<trkpt lat="47.891171" lon="11.136543">
<ele>525.351</ele>
<time>2022-05-27T09:53:23Z</time>
</trkpt>
<trkpt lat="47.891129" lon="11.136588">
<ele>525.351</ele>
<time>2022-05-27T09:53:24Z</time>
</trkpt>
<trkpt lat="47.891083" lon="11.136636">
<ele>525.351</ele>
<time>2022-05-27T09:53:25Z</time>
</trkpt>
<trkpt lat="47.891045" lon="11.136683">
<ele>525.351</ele>
<time>2022-05-27T09:53:26Z</time>
</trkpt>
<trkpt lat="47.890999" lon="11.136732">
<ele>525.351</ele>
<time>2022-05-27T09:53:27Z</time>
</trkpt>
<trkpt lat="47.890957" lon="11.136782">
<ele>525.351</ele>
<time>2022-05-27T09:53:28Z</time>
</trkpt>
<trkpt lat="47.890915" lon="11.136828">
<ele>525.351</ele>
<time>2022-05-27T09:53:29Z</time>
</trkpt>
<trkpt lat="47.890877" lon="11.136875">
<ele>525.351</ele>
<time>2022-05-27T09:53:30Z</time>
</trkpt>
<trkpt lat="47.890835" lon="11.13692">
<ele>525.351</ele>
<time>2022-05-27T09:53:31Z</time>
</trkpt>
<trkpt lat="47.890793" lon="11.136965">
<ele>525.351</ele>
<time>2022-05-27T09:53:32Z</time>
</trkpt>
<trkpt lat="47.890751" lon="11.137011">
<ele>525.351</ele>
<time>2022-05-27T09:53:33Z</time>
</trkpt>
<trkpt lat="47.890713" lon="11.137054">
<ele>525.351</ele>
<time>2022-05-27T09:53:34Z</time>
</trkpt>
<trkpt lat="47.890671" lon="11.137101">
<ele>525.351</ele>
<time>2022-05-27T09:53:35Z</time>
</trkpt>
<trkpt lat="47.890629" lon="11.137147">
<ele>525.351</ele>
<time>2022-05-27T09:53:36Z</time>
</trkpt>
<trkpt lat="47.890587" lon="11.137193">
<ele>525.351</ele>
<time>2022-05-27T09:53:37Z</time>
</trkpt>
<trkpt lat="47.890541" lon="11.137239">
<ele>525.351</ele>
<time>2022-05-27T09:53:38Z</time>
</trkpt>
<trkpt lat="47.890499" lon="11.137285">
<ele>525.351</ele>
<time>2022-05-27T09:53:39Z</time>
</trkpt>
<trkpt lat="47.890457" lon="11.13733">
<ele>525.351</ele>
<time>2022-05-27T09:53:40Z</time>
</trkpt>
<trkpt lat="47.890415" lon="11.137375">
<ele>525.351</ele>
<time>2022-05-27T09:53:41Z</time>
</trkpt>
<trkpt lat="47.890369" lon="11.137422">
<ele>525.351</ele>
<time>2022-05-27T09:53:42Z</time>
</trkpt>
<trkpt lat="47.890327" lon="11.13747">
<ele>525.351</ele>
<time>2022-05-27T09:53:43Z</time>
</trkpt>
<trkpt lat="47.890285" lon="11.137518">
<ele>525.351</ele>
<time>2022-05-27T09:53:44Z</time>
</trkpt>
<trkpt lat="47.890236" lon="11.137568">
<ele>525.351</ele>
<time>2022-05-27T09:53:45Z</time>
</trkpt>
<trkpt lat="47.890194" lon="11.137616">
<ele>525.351</ele>
<time>2022-05-27T09:53:46Z</time>
</trkpt>
<trkpt lat="47.890148" lon="11.137665">
<ele>525.351</ele>
<time>2022-05-27T09:53:47Z</time>
</trkpt>
<trkpt lat="47.890102" lon="11.137713">
<ele>525.351</ele>
<time>2022-05-27T09:53:48Z</time>
</trkpt>
<trkpt lat="47.89006" lon="11.137761">
<ele>525.351</ele>
<time>2022-05-27T09:53:49Z</time>
</trkpt>
<trkpt lat="47.890011" lon="11.137809">
<ele>525.351</ele>
<time>2022-05-27T09:53:50Z</time>
</trkpt>
<trkpt lat="47.889969" lon="11.137854">
<ele>525.351</ele>
<time>2022-05-27T09:53:51Z</time>
</trkpt>
<trkpt lat="47.889923" lon="11.137899">
<ele>525.351</ele>
<time>2022-05-27T09:53:52Z</time>
</trkpt>
<trkpt lat="47.889881" lon="11.13795">
<ele>525.351</ele>
<time>2022-05-27T09:53:53Z</time>
</trkpt>
<trkpt lat="47.889835" lon="11.137998">
<ele>525.351</ele>
<time>2022-05-27T09:53:54Z</time>
</trkpt>
<trkpt lat="47.889793" lon="11.138048">
<ele>525.351</ele>
<time>2022-05-27T09:53:55Z</time>
</trkpt>
<trkpt lat="47.889744" lon="11.138097">
<ele>525.351</ele>
<time>2022-05-27T09:53:56Z</time>
</trkpt>
<trkpt lat="47.889702" lon="11.138144">
<ele>525.351</ele>
<time>2022-05-27T09:53:57Z</time>
</trkpt>
<trkpt lat="47.88966" lon="11.138195">
<ele>525.351</ele>
<time>2022-05-27T09:53:58Z</time>
</trkpt>
<trkpt lat="47.88961" lon="11.138245">
<ele>525.351</ele>
<time>2022-05-27T09:53:59Z</time>
</trkpt>
<trkpt lat="47.889568" lon="11.138297">
<ele>525.351</ele>
<time>2022-05-27T09:54:00Z</time>
</trkpt>
<trkpt lat="47.889526" lon="11.138347">
<ele>525.351</ele>
<time>2022-05-27T09:54:01Z</time>
</trkpt>
<trkpt lat="47.889481" lon="11.1384">
<ele>525.351</ele>
<time>2022-05-27T09:54:02Z</time>
</trkpt>
<trkpt lat="47.889442" lon="11.138452">
<ele>525.351</ele>
<time>2022-05-27T09:54:03Z</time>
</trkpt>
<trkpt lat="47.889397" lon="11.138503">
<ele>525.351</ele>
<time>2022-05-27T09:54:04Z</time>
</trkpt>
<trkpt lat="47.889355" lon="11.138552">
<ele>525.351</ele>
<time>2022-05-27T09:54:05Z</time>
</trkpt>
<trkpt lat="47.889313" lon="11.138601">
<ele>525.351</ele>
<time>2022-05-27T09:54:06Z</time>
</trkpt>
<trkpt lat="47.889267" lon="11.138652">
<ele>525.351</ele>
<time>2022-05-27T09:54:07Z</time>
</trkpt>
<trkpt lat="47.889221" lon="11.138706">
<ele>525.351</ele>
<time>2022-05-27T09:54:08Z</time>
</trkpt>
<trkpt lat="47.889179" lon="11.138762">
<ele>525.351</ele>
<time>2022-05-27T09:54:09Z</time>
</trkpt>
<trkpt lat="47.889133" lon="11.138812">
<ele>525.351</ele>
<time>2022-05-27T09:54:10Z</time>
</trkpt>
<trkpt lat="47.889091" lon="11.138857">
<ele>525.351</ele>
<time>2022-05-27T09:54:11Z</time>
</trkpt>
<trkpt lat="47.88905" lon="11.138899">
<ele>525.351</ele>
<time>2022-05-27T09:54:12Z</time>
</trkpt>
<trkpt lat="47.889" lon="11.138938">
<ele>525.351</ele>
<time>2022-05-27T09:54:13Z</time>
</trkpt>
<trkpt lat="47.888958" lon="11.138982">
<ele>525.351</ele>
<time>2022-05-27T09:54:14Z</time>
</trkpt>
<trkpt lat="47.888908" lon="11.13903">
<ele>525.351</ele>
<time>2022-05-27T09:54:15Z</time>
</trkpt>
<trkpt lat="47.888863" lon="11.139078">
<ele>525.351</ele>
<time>2022-05-27T09:54:16Z</time>
</trkpt>
<trkpt lat="47.888821" lon="11.139125">
<ele>525.351</ele>
<time>2022-05-27T09:54:17Z</time>
</trkpt>
<trkpt lat="47.888775" lon="11.139171">
<ele>525.351</ele>
<time>2022-05-27T09:54:18Z</time>
</trkpt>
<trkpt lat="47.888729" lon="11.139215">
<ele>525.351</ele>
<time>2022-05-27T09:54:19Z</time>
</trkpt>
<trkpt lat="47.888683" lon="11.139258">
<ele>525.351</ele>
<time>2022-05-27T09:54:20Z</time>
</trkpt>
<trkpt lat="47.888634" lon="11.139307">
<ele>525.351</ele>
<time>2022-05-27T09:54:21Z</time>
</trkpt>
<trkpt lat="47.888592" lon="11.139355">
<ele>525.351</ele>
<time>2022-05-27T09:54:22Z</time>
</trkpt>
<trkpt lat="47.888546" lon="11.139407">
<ele>525.351</ele>
<time>2022-05-27T09:54:23Z</time>
</trkpt>
<trkpt lat="47.8885" lon="11.139456">
<ele>525.351</ele>
<time>2022-05-27T09:54:24Z</time>
</trkpt>
<trkpt lat="47.888462" lon="11.139502">
<ele>525.351</ele>
<time>2022-05-27T09:54:25Z</time>
</trkpt>
<trkpt lat="47.88842" lon="11.13955">
<ele>525.351</ele>
<time>2022-05-27T09:54:26Z</time>
</trkpt>
<trkpt lat="47.888378" lon="11.139602">
<ele>525.351</ele>
<time>2022-05-27T09:54:27Z</time>
</trkpt>
<trkpt lat="47.888336" lon="11.139648">
<ele>525.351</ele>
<time>2022-05-27T09:54:28Z</time>
</trkpt>
<trkpt lat="47.888298" lon="11.139692">
<ele>525.542</ele>
<time>2022-05-27T09:54:29Z</time>
</trkpt>
<trkpt lat="47.888264" lon="11.139727">
<ele>525.721</ele>
<time>2022-05-27T09:54:30Z</time>
</trkpt>
<trkpt lat="47.888226" lon="11.139767">
<ele>525.869</ele>
<time>2022-05-27T09:54:31Z</time>
</trkpt>
<trkpt lat="47.88818" lon="11.139813">
<ele>525.991</ele>
<time>2022-05-27T09:54:32Z</time>
</trkpt>
<trkpt lat="47.888138" lon="11.139862">
<ele>526.087</ele>
<time>2022-05-27T09:54:33Z</time>
</trkpt>
<trkpt lat="47.888088" lon="11.139912">
<ele>526.155</ele>
<time>2022-05-27T09:54:34Z</time>
</trkpt>
<trkpt lat="47.888042" lon="11.139961">
<ele>526.199</ele>
<time>2022-05-27T09:54:35Z</time>
</trkpt>
<trkpt lat="47.887989" lon="11.140012">
<ele>526.221</ele>
<time>2022-05-27T09:54:36Z</time>
</trkpt>
<trkpt lat="47.887939" lon="11.140065">
<ele>526.221</ele>
<time>2022-05-27T09:54:37Z</time>
</trkpt>
<trkpt lat="47.887886" lon="11.140116">
<ele>526.221</ele>
<time>2022-05-27T09:54:38Z</time>
</trkpt>
<trkpt lat="47.88784" lon="11.140166">
<ele>526</ele>
<time>2022-05-27T09:54:39Z</time>
</trkpt>
<trkpt lat="47.887791" lon="11.140219">
<ele>525.8</ele>
<time>2022-05-27T09:54:40Z</time>
</trkpt>
<trkpt lat="47.887745" lon="11.14027">
<ele>525.636</ele>
<time>2022-05-27T09:54:41Z</time>
</trkpt>
<trkpt lat="47.887695" lon="11.140322">
<ele>525.507</ele>
<time>2022-05-27T09:54:42Z</time>
</trkpt>
<trkpt lat="47.887653" lon="11.140375">
<ele>525.407</ele>
<time>2022-05-27T09:54:43Z</time>
</trkpt>
<trkpt lat="47.887604" lon="11.140429">
<ele>525.335</ele>
<time>2022-05-27T09:54:44Z</time>
</trkpt>
<trkpt lat="47.887558" lon="11.140482">
<ele>525.287</ele>
<time>2022-05-27T09:54:45Z</time>
</trkpt>
<trkpt lat="47.887516" lon="11.140534">
<ele>525.264</ele>
<time>2022-05-27T09:54:46Z</time>
</trkpt>
<trkpt lat="47.887466" lon="11.140585">
<ele>525.264</ele>
<time>2022-05-27T09:54:47Z</time>
</trkpt>
<trkpt lat="47.887421" lon="11.140637">
<ele>525.264</ele>
<time>2022-05-27T09:54:48Z</time>
</trkpt>
<trkpt lat="47.887375" lon="11.140687">
<ele>525.264</ele>
<time>2022-05-27T09:54:49Z</time>
</trkpt>
<trkpt lat="47.887325" lon="11.140738">
<ele>525.264</ele>
<time>2022-05-27T09:54:50Z</time>
</trkpt>
<trkpt lat="47.887283" lon="11.140792">
<ele>525.264</ele>
<time>2022-05-27T09:54:51Z</time>
</trkpt>
<trkpt lat="47.887238" lon="11.140841">
<ele>525.264</ele>
<time>2022-05-27T09:54:52Z</time>
</trkpt>
<trkpt lat="47.887196" lon="11.14089">
<ele>525.264</ele>
<time>2022-05-27T09:54:53Z</time>
</trkpt>
<trkpt lat="47.88715" lon="11.140939">
<ele>525.264</ele>
<time>2022-05-27T09:54:54Z</time>
</trkpt>
<trkpt lat="47.887104" lon="11.140987">
<ele>525.264</ele>
<time>2022-05-27T09:54:55Z</time>
</trkpt>
<trkpt lat="47.887062" lon="11.141038">
<ele>525.264</ele>
<time>2022-05-27T09:54:56Z</time>
</trkpt>
<trkpt lat="47.887016" lon="11.14109">
<ele>525.264</ele>
<time>2022-05-27T09:54:57Z</time>
</trkpt>
<trkpt lat="47.886971" lon="11.14114">
<ele>525.264</ele>
<time>2022-05-27T09:54:58Z</time>
</trkpt>
<trkpt lat="47.886932" lon="11.141189">
<ele>525.264</ele>
<time>2022-05-27T09:54:59Z</time>
</trkpt>
<trkpt lat="47.88689" lon="11.141232">
<ele>525.474</ele>
<time>2022-05-27T09:55:00Z</time>
</trkpt>
<trkpt lat="47.886845" lon="11.141278">
<ele>525.651</ele>
<time>2022-05-27T09:55:01Z</time>
</trkpt>
<trkpt lat="47.886806" lon="11.141322">
<ele>525.796</ele>
<time>2022-05-27T09:55:02Z</time>
</trkpt>
<trkpt lat="47.886761" lon="11.141367">
<ele>525.912</ele>
<time>2022-05-27T09:55:03Z</time>
</trkpt>
<trkpt lat="47.886719" lon="11.141412">
<ele>526.003</ele>
<time>2022-05-27T09:55:04Z</time>
</trkpt>
<trkpt lat="47.886677" lon="11.14146">
<ele>526.069</ele>
<time>2022-05-27T09:55:05Z</time>
</trkpt>
<trkpt lat="47.886635" lon="11.141509">
<ele>526.113</ele>
<time>2022-05-27T09:55:06Z</time>
</trkpt>
<trkpt lat="47.886593" lon="11.141557">
<ele>526.134</ele>
<time>2022-05-27T09:55:07Z</time>
</trkpt>
<trkpt lat="47.886547" lon="11.141602">
<ele>526.134</ele>
<time>2022-05-27T09:55:08Z</time>
</trkpt>
<trkpt lat="47.886509" lon="11.141645">
<ele>526.134</ele>
<time>2022-05-27T09:55:09Z</time>
</trkpt>
<trkpt lat="47.886467" lon="11.141691">
<ele>526.134</ele>
<time>2022-05-27T09:55:10Z</time>
</trkpt>
<trkpt lat="47.886421" lon="11.141738">
<ele>526.134</ele>
<time>2022-05-27T09:55:11Z</time>
</trkpt>
<trkpt lat="47.886379" lon="11.141788">
<ele>526.134</ele>
<time>2022-05-27T09:55:12Z</time>
</trkpt>
<trkpt lat="47.886333" lon="11.141835">
<ele>526.134</ele>
<time>2022-05-27T09:55:13Z</time>
</trkpt>
<trkpt lat="47.886288" lon="11.141884">
<ele>526.134</ele>
<time>2022-05-27T09:55:14Z</time>
</trkpt>
<trkpt lat="47.886246" lon="11.14193">
<ele>526.134</ele>
<time>2022-05-27T09:55:15Z</time>
</trkpt>
<trkpt lat="47.8862" lon="11.141976">
<ele>526.134</ele>
<time>2022-05-27T09:55:16Z</time>
</trkpt>
<trkpt lat="47.886154" lon="11.142022">
<ele>526.134</ele>
<time>2022-05-27T09:55:17Z</time>
</trkpt>
<trkpt lat="47.886116" lon="11.142068">
<ele>526.134</ele>
<time>2022-05-27T09:55:18Z</time>
</trkpt>
<trkpt lat="47.88607" lon="11.142113">
<ele>526.134</ele>
<time>2022-05-27T09:55:19Z</time>
</trkpt>
<trkpt lat="47.886028" lon="11.14216">
<ele>526.134</ele>
<time>2022-05-27T09:55:20Z</time>
</trkpt>
<trkpt lat="47.88599" lon="11.142208">
<ele>526.134</ele>
<time>2022-05-27T09:55:21Z</time>
</trkpt>
<trkpt lat="47.885948" lon="11.142255">
<ele>526.134</ele>
<time>2022-05-27T09:55:22Z</time>
</trkpt>
<trkpt lat="47.885906" lon="11.142302">
<ele>526.134</ele>
<time>2022-05-27T09:55:23Z</time>
</trkpt>
<trkpt lat="47.885864" lon="11.142346">
<ele>526.134</ele>
<time>2022-05-27T09:55:24Z</time>
</trkpt>
<trkpt lat="47.885826" lon="11.142391">
<ele>526.134</ele>
<time>2022-05-27T09:55:25Z</time>
</trkpt>
<trkpt lat="47.885788" lon="11.142437">
<ele>526.134</ele>
<time>2022-05-27T09:55:26Z</time>
</trkpt>
<trkpt lat="47.885746" lon="11.142484">
<ele>526.134</ele>
<time>2022-05-27T09:55:27Z</time>
</trkpt>
<trkpt lat="47.885704" lon="11.142529">
<ele>526.134</ele>
<time>2022-05-27T09:55:28Z</time>
</trkpt>
<trkpt lat="47.885662" lon="11.142575">
<ele>526.134</ele>
<time>2022-05-27T09:55:29Z</time>
</trkpt>
<trkpt lat="47.885628" lon="11.142618">
<ele>526.134</ele>
<time>2022-05-27T09:55:30Z</time>
</trkpt>
<trkpt lat="47.885582" lon="11.142657">
<ele>526.134</ele>
<time>2022-05-27T09:55:31Z</time>
</trkpt>
<trkpt lat="47.885536" lon="11.142691">
<ele>526.134</ele>
<time>2022-05-27T09:55:32Z</time>
</trkpt>
<trkpt lat="47.885494" lon="11.142716">
<ele>526.134</ele>
<time>2022-05-27T09:55:33Z</time>
</trkpt>
<trkpt lat="47.885445" lon="11.142735">
<ele>526.134</ele>
<time>2022-05-27T09:55:34Z</time>
</trkpt>
<trkpt lat="47.885399" lon="11.142749">
<ele>526.134</ele>
<time>2022-05-27T09:55:35Z</time>
</trkpt>
<trkpt lat="47.885353" lon="11.142756">
<ele>526.134</ele>
<time>2022-05-27T09:55:36Z</time>
</trkpt>
<trkpt lat="47.885303" lon="11.14276">
<ele>526.134</ele>
<time>2022-05-27T09:55:37Z</time>
</trkpt>
<trkpt lat="47.885262" lon="11.142763">
<ele>526.134</ele>
<time>2022-05-27T09:55:38Z</time>
</trkpt>
<trkpt lat="47.88522" lon="11.142757">
<ele>526.134</ele>
<time>2022-05-27T09:55:39Z</time>
</trkpt>
<trkpt lat="47.885174" lon="11.142745">
<ele>526.134</ele>
<time>2022-05-27T09:55:40Z</time>
</trkpt>
<trkpt lat="47.885132" lon="11.142727">
<ele>526.413</ele>
<time>2022-05-27T09:55:41Z</time>
</trkpt>
<trkpt lat="47.885082" lon="11.1427">
<ele>526.633</ele>
<time>2022-05-27T09:55:42Z</time>
</trkpt>
<trkpt lat="47.88504" lon="11.142672">
<ele>526.805</ele>
<time>2022-05-27T09:55:43Z</time>
</trkpt>
<trkpt lat="47.884995" lon="11.142634">
<ele>526.931</ele>
<time>2022-05-27T09:55:44Z</time>
</trkpt>
<trkpt lat="47.884953" lon="11.142593">
<ele>527.012</ele>
<time>2022-05-27T09:55:45Z</time>
</trkpt>
<trkpt lat="47.884914" lon="11.142552">
<ele>527.064</ele>
<time>2022-05-27T09:55:46Z</time>
</trkpt>
<trkpt lat="47.884869" lon="11.142512">
<ele>527.087</ele>
<time>2022-05-27T09:55:47Z</time>
</trkpt>
<trkpt lat="47.884827" lon="11.142467">
<ele>527.091</ele>
<time>2022-05-27T09:55:48Z</time>
</trkpt>
<trkpt lat="47.884785" lon="11.142416">
<ele>527.091</ele>
<time>2022-05-27T09:55:49Z</time>
</trkpt>
<trkpt lat="47.88475" lon="11.142364">
<ele>527.091</ele>
<time>2022-05-27T09:55:50Z</time>
</trkpt>
<trkpt lat="47.884712" lon="11.142309">
<ele>527.091</ele>
<time>2022-05-27T09:55:51Z</time>
</trkpt>
<trkpt lat="47.884674" lon="11.142253">
<ele>527.091</ele>
<time>2022-05-27T09:55:52Z</time>
</trkpt>
<trkpt lat="47.884644" lon="11.142194">
<ele>527.091</ele>
<time>2022-05-27T09:55:53Z</time>
</trkpt>
<trkpt lat="47.884609" lon="11.142134">
<ele>527.091</ele>
<time>2022-05-27T09:55:54Z</time>
</trkpt>
<trkpt lat="47.884583" lon="11.14207">
<ele>527.091</ele>
<time>2022-05-27T09:55:55Z</time>
</trkpt>
<trkpt lat="47.884552" lon="11.142008">
<ele>527.091</ele>
<time>2022-05-27T09:55:56Z</time>
</trkpt>
<trkpt lat="47.884521" lon="11.141949">
<ele>527.091</ele>
<time>2022-05-27T09:55:57Z</time>
</trkpt>
<trkpt lat="47.884487" lon="11.141891">
<ele>527.091</ele>
<time>2022-05-27T09:55:58Z</time>
</trkpt>
<trkpt lat="47.884453" lon="11.141831">
<ele>527.091</ele>
<time>2022-05-27T09:55:59Z</time>
</trkpt>
<trkpt lat="47.884415" lon="11.141779">
<ele>527.091</ele>
<time>2022-05-27T09:56:00Z</time>
</trkpt>
<trkpt lat="47.884373" lon="11.141728">
<ele>527.091</ele>
<time>2022-05-27T09:56:01Z</time>
</trkpt>
<trkpt lat="47.884331" lon="11.141685">
<ele>527.369</ele>
<time>2022-05-27T09:56:02Z</time>
</trkpt>
<trkpt lat="47.884289" lon="11.141644">
<ele>527.584</ele>
<time>2022-05-27T09:56:03Z</time>
</trkpt>
<trkpt lat="47.884243" lon="11.141607">
<ele>527.748</ele>
<time>2022-05-27T09:56:04Z</time>
</trkpt>
<trkpt lat="47.884197" lon="11.141572">
<ele>527.868</ele>
<time>2022-05-27T09:56:05Z</time>
</trkpt>
<trkpt lat="47.884148" lon="11.141539">
<ele>527.95</ele>
<time>2022-05-27T09:56:06Z</time>
</trkpt>
<trkpt lat="47.884098" lon="11.141509">
<ele>528.002</ele>
<time>2022-05-27T09:56:07Z</time>
</trkpt>
<trkpt lat="47.884052" lon="11.141479">
<ele>528.026</ele>
<time>2022-05-27T09:56:08Z</time>
</trkpt>
<trkpt lat="47.884003" lon="11.14145">
<ele>528.048</ele>
<time>2022-05-27T09:56:09Z</time>
</trkpt>
<trkpt lat="47.883953" lon="11.14142">
<ele>528.048</ele>
<time>2022-05-27T09:56:10Z</time>
</trkpt>
<trkpt lat="47.883904" lon="11.141396">
<ele>528.048</ele>
<time>2022-05-27T09:56:11Z</time>
</trkpt>
<trkpt lat="47.88385" lon="11.141369">
<ele>528.048</ele>
<time>2022-05-27T09:56:12Z</time>
</trkpt>
<trkpt lat="47.883801" lon="11.141343">
<ele>528.048</ele>
<time>2022-05-27T09:56:13Z</time>
</trkpt>
<trkpt lat="47.883747" lon="11.141318">
<ele>528.048</ele>
<time>2022-05-27T09:56:14Z</time>
</trkpt>
<trkpt lat="47.883698" lon="11.141292">
<ele>528.048</ele>
<time>2022-05-27T09:56:15Z</time>
</trkpt>
<trkpt lat="47.883644" lon="11.141266">
<ele>528.048</ele>
<time>2022-05-27T09:56:16Z</time>
</trkpt>
<trkpt lat="47.883595" lon="11.141241">
<ele>528.048</ele>
<time>2022-05-27T09:56:17Z</time>
</trkpt>
<trkpt lat="47.883545" lon="11.141218">
<ele>528.048</ele>
<time>2022-05-27T09:56:18Z</time>
</trkpt>
<trkpt lat="47.883492" lon="11.141193">
<ele>528.048</ele>
<time>2022-05-27T09:56:19Z</time>
</trkpt>
<trkpt lat="47.883442" lon="11.141171">
<ele>528.048</ele>
<time>2022-05-27T09:56:20Z</time>
</trkpt>
<trkpt lat="47.883389" lon="11.141153">
<ele>528.048</ele>
<time>2022-05-27T09:56:21Z</time>
</trkpt>
<trkpt lat="47.883339" lon="11.141135">
<ele>528.048</ele>
<time>2022-05-27T09:56:22Z</time>
</trkpt>
<trkpt lat="47.883286" lon="11.141119">
<ele>528.048</ele>
<time>2022-05-27T09:56:23Z</time>
</trkpt>
<trkpt lat="47.883236" lon="11.141102">
<ele>528.048</ele>
<time>2022-05-27T09:56:24Z</time>
</trkpt>
<trkpt lat="47.883186" lon="11.141086">
<ele>528.048</ele>
<time>2022-05-27T09:56:25Z</time>
</trkpt>
<trkpt lat="47.883133" lon="11.141068">
<ele>528.048</ele>
<time>2022-05-27T09:56:26Z</time>
</trkpt>
<trkpt lat="47.883087" lon="11.14105">
<ele>528.048</ele>
<time>2022-05-27T09:56:27Z</time>
</trkpt>
<trkpt lat="47.883034" lon="11.141033">
<ele>528.048</ele>
<time>2022-05-27T09:56:28Z</time>
</trkpt>
<trkpt lat="47.882988" lon="11.141019">
<ele>528.048</ele>
<time>2022-05-27T09:56:29Z</time>
</trkpt>
<trkpt lat="47.882935" lon="11.141">
<ele>528.048</ele>
<time>2022-05-27T09:56:30Z</time>
</trkpt>
<trkpt lat="47.882885" lon="11.140984">
<ele>528.048</ele>
<time>2022-05-27T09:56:31Z</time>
</trkpt>
<trkpt lat="47.882835" lon="11.140964">
<ele>528.048</ele>
<time>2022-05-27T09:56:32Z</time>
</trkpt>
<trkpt lat="47.882786" lon="11.140944">
<ele>528.048</ele>
<time>2022-05-27T09:56:33Z</time>
</trkpt>
<trkpt lat="47.882736" lon="11.140924">
<ele>528.048</ele>
<time>2022-05-27T09:56:34Z</time>
</trkpt>
<trkpt lat="47.88269" lon="11.140903">
<ele>528.048</ele>
<time>2022-05-27T09:56:35Z</time>
</trkpt>
<trkpt lat="47.882637" lon="11.140882">
<ele>528.048</ele>
<time>2022-05-27T09:56:36Z</time>
</trkpt>
<trkpt lat="47.882591" lon="11.140857">
<ele>528.048</ele>
<time>2022-05-27T09:56:37Z</time>
</trkpt>
<trkpt lat="47.882538" lon="11.140832">
<ele>528.048</ele>
<time>2022-05-27T09:56:38Z</time>
</trkpt>
<trkpt lat="47.882492" lon="11.140803">
<ele>528.048</ele>
<time>2022-05-27T09:56:39Z</time>
</trkpt>
<trkpt lat="47.882442" lon="11.140776">
<ele>528.048</ele>
<time>2022-05-27T09:56:40Z</time>
</trkpt>
<trkpt lat="47.882401" lon="11.140744">
<ele>528.048</ele>
<time>2022-05-27T09:56:41Z</time>
</trkpt>
<trkpt lat="47.882355" lon="11.140715">
<ele>528.048</ele>
<time>2022-05-27T09:56:42Z</time>
</trkpt>
<trkpt lat="47.882305" lon="11.140687">
<ele>528.048</ele>
<time>2022-05-27T09:56:43Z</time>
</trkpt>
<trkpt lat="47.882263" lon="11.140658">
<ele>528.048</ele>
<time>2022-05-27T09:56:44Z</time>
</trkpt>
<trkpt lat="47.882217" lon="11.140629">
<ele>528.048</ele>
<time>2022-05-27T09:56:45Z</time>
</trkpt>
<trkpt lat="47.882172" lon="11.140602">
<ele>528.048</ele>
<time>2022-05-27T09:56:46Z</time>
</trkpt>
<trkpt lat="47.882122" lon="11.140573">
<ele>528.048</ele>
<time>2022-05-27T09:56:47Z</time>
</trkpt>
<trkpt lat="47.882076" lon="11.140543">
<ele>528.048</ele>
<time>2022-05-27T09:56:48Z</time>
</trkpt>
<trkpt lat="47.882027" lon="11.140513">
<ele>528.048</ele>
<time>2022-05-27T09:56:49Z</time>
</trkpt>
<trkpt lat="47.881981" lon="11.140482">
<ele>528.048</ele>
<time>2022-05-27T09:56:50Z</time>
</trkpt>
<trkpt lat="47.881927" lon="11.14045">
<ele>527.758</ele>
<time>2022-05-27T09:56:51Z</time>
</trkpt>
<trkpt lat="47.881878" lon="11.140417">
<ele>527.533</ele>
<time>2022-05-27T09:56:52Z</time>
</trkpt>
<trkpt lat="47.881828" lon="11.140386">
<ele>527.366</ele>
<time>2022-05-27T09:56:53Z</time>
</trkpt>
<trkpt lat="47.881783" lon="11.140355">
<ele>527.246</ele>
<time>2022-05-27T09:56:54Z</time>
</trkpt>
<trkpt lat="47.881729" lon="11.140326">
<ele>527.169</ele>
<time>2022-05-27T09:56:55Z</time>
</trkpt>
<trkpt lat="47.881683" lon="11.140296">
<ele>527.118</ele>
<time>2022-05-27T09:56:56Z</time>
</trkpt>
<trkpt lat="47.88163" lon="11.140266">
<ele>527.095</ele>
<time>2022-05-27T09:56:57Z</time>
</trkpt>
<trkpt lat="47.881584" lon="11.140239">
<ele>527.091</ele>
<time>2022-05-27T09:56:58Z</time>
</trkpt>
<trkpt lat="47.881531" lon="11.140212">
<ele>527.091</ele>
<time>2022-05-27T09:56:59Z</time>
</trkpt>
<trkpt lat="47.881485" lon="11.140183">
<ele>527.091</ele>
<time>2022-05-27T09:57:00Z</time>
</trkpt>
<trkpt lat="47.881435" lon="11.140155">
<ele>527.091</ele>
<time>2022-05-27T09:57:01Z</time>
</trkpt>
<trkpt lat="47.881386" lon="11.140126">
<ele>527.091</ele>
<time>2022-05-27T09:57:02Z</time>
</trkpt>
<trkpt lat="47.881336" lon="11.1401">
<ele>527.091</ele>
<time>2022-05-27T09:57:03Z</time>
</trkpt>
<trkpt lat="47.88129" lon="11.14007">
<ele>527.091</ele>
<time>2022-05-27T09:57:04Z</time>
</trkpt>
<trkpt lat="47.881233" lon="11.140043">
<ele>527.091</ele>
<time>2022-05-27T09:57:05Z</time>
</trkpt>
<trkpt lat="47.881184" lon="11.140019">
<ele>527.091</ele>
<time>2022-05-27T09:57:06Z</time>
</trkpt>
<trkpt lat="47.881126" lon="11.140002">
<ele>527.091</ele>
<time>2022-05-27T09:57:07Z</time>
</trkpt>
<trkpt lat="47.881073" lon="11.139986">
<ele>527.091</ele>
<time>2022-05-27T09:57:08Z</time>
</trkpt>
<trkpt lat="47.88102" lon="11.139977">
<ele>527.091</ele>
<time>2022-05-27T09:57:09Z</time>
</trkpt>
<trkpt lat="47.880966" lon="11.139977">
<ele>527.091</ele>
<time>2022-05-27T09:57:10Z</time>
</trkpt>
<trkpt lat="47.880909" lon="11.139977">
<ele>527.091</ele>
<time>2022-05-27T09:57:11Z</time>
</trkpt>
<trkpt lat="47.880856" lon="11.139986">
<ele>527.091</ele>
<time>2022-05-27T09:57:12Z</time>
</trkpt>
<trkpt lat="47.880806" lon="11.140003">
<ele>527.358</ele>
<time>2022-05-27T09:57:13Z</time>
</trkpt>
<trkpt lat="47.880753" lon="11.140021">
<ele>527.565</ele>
<time>2022-05-27T09:57:14Z</time>
</trkpt>
<trkpt lat="47.880703" lon="11.14004">
<ele>527.726</ele>
<time>2022-05-27T09:57:15Z</time>
</trkpt>
<trkpt lat="47.88065" lon="11.140059">
<ele>527.845</ele>
<time>2022-05-27T09:57:16Z</time>
</trkpt>
<trkpt lat="47.880596" lon="11.140079">
<ele>527.927</ele>
<time>2022-05-27T09:57:17Z</time>
</trkpt>
<trkpt lat="47.880547" lon="11.140105">
<ele>527.979</ele>
<time>2022-05-27T09:57:18Z</time>
</trkpt>
<trkpt lat="47.880493" lon="11.140132">
<ele>528.022</ele>
<time>2022-05-27T09:57:19Z</time>
</trkpt>
<trkpt lat="47.88044" lon="11.14016">
<ele>528.048</ele>
<time>2022-05-27T09:57:20Z</time>
</trkpt>
<trkpt lat="47.880386" lon="11.140183">
<ele>528.048</ele>
<time>2022-05-27T09:57:21Z</time>
</trkpt>
<trkpt lat="47.880333" lon="11.140205">
<ele>528.048</ele>
<time>2022-05-27T09:57:22Z</time>
</trkpt>
<trkpt lat="47.880283" lon="11.140231">
<ele>528.048</ele>
<time>2022-05-27T09:57:23Z</time>
</trkpt>
<trkpt lat="47.880226" lon="11.140258">
<ele>528.048</ele>
<time>2022-05-27T09:57:24Z</time>
</trkpt>
<trkpt lat="47.880177" lon="11.140282">
<ele>528.048</ele>
<time>2022-05-27T09:57:25Z</time>
</trkpt>
<trkpt lat="47.880127" lon="11.140308">
<ele>528.048</ele>
<time>2022-05-27T09:57:26Z</time>
</trkpt>
<trkpt lat="47.880077" lon="11.140336">
<ele>528.048</ele>
<time>2022-05-27T09:57:27Z</time>
</trkpt>
<trkpt lat="47.880028" lon="11.140361">
<ele>528.069</ele>
<time>2022-05-27T09:57:28Z</time>
</trkpt>
<trkpt lat="47.879986" lon="11.14038">
<ele>528.087</ele>
<time>2022-05-27T09:57:29Z</time>
</trkpt>
<trkpt lat="47.879936" lon="11.140395">
<ele>528.101</ele>
<time>2022-05-27T09:57:30Z</time>
</trkpt>
<trkpt lat="47.879894" lon="11.140411">
<ele>528.113</ele>
<time>2022-05-27T09:57:31Z</time>
</trkpt>
<trkpt lat="47.879856" lon="11.140434">
<ele>528.122</ele>
<time>2022-05-27T09:57:32Z</time>
</trkpt>
<trkpt lat="47.87981" lon="11.140467">
<ele>528.129</ele>
<time>2022-05-27T09:57:33Z</time>
</trkpt>
<trkpt lat="47.879776" lon="11.140503">
<ele>528.133</ele>
<time>2022-05-27T09:57:34Z</time>
</trkpt>
<trkpt lat="47.879745" lon="11.140553">
<ele>528.135</ele>
<time>2022-05-27T09:57:35Z</time>
</trkpt>
<trkpt lat="47.879723" lon="11.140608">
<ele>528.135</ele>
<time>2022-05-27T09:57:36Z</time>
</trkpt>
<trkpt lat="47.879704" lon="11.140663">
<ele>528.135</ele>
<time>2022-05-27T09:57:37Z</time>
</trkpt>
<trkpt lat="47.879681" lon="11.140725">
<ele>528.135</ele>
<time>2022-05-27T09:57:38Z</time>
</trkpt>
<trkpt lat="47.879665" lon="11.140788">
<ele>528.135</ele>
<time>2022-05-27T09:57:39Z</time>
</trkpt>
<trkpt lat="47.87965" lon="11.140843">
<ele>528.367</ele>
<time>2022-05-27T09:57:40Z</time>
</trkpt>
<trkpt lat="47.879635" lon="11.140891">
<ele>528.557</ele>
<time>2022-05-27T09:57:41Z</time>
</trkpt>
<trkpt lat="47.879631" lon="11.140933">
<ele>528.716</ele>
<time>2022-05-27T09:57:42Z</time>
</trkpt>
<trkpt lat="47.879627" lon="11.14097">
<ele>528.841</ele>
<time>2022-05-27T09:57:43Z</time>
</trkpt>
<trkpt lat="47.879627" lon="11.140998">
<ele>528.941</ele>
<time>2022-05-27T09:57:44Z</time>
</trkpt>
<trkpt lat="47.87962" lon="11.141031">
<ele>529.006</ele>
<time>2022-05-27T09:57:45Z</time>
</trkpt>
<trkpt lat="47.879608" lon="11.14107">
<ele>529.261</ele>
<time>2022-05-27T09:57:46Z</time>
</trkpt>
<trkpt lat="47.879601" lon="11.141109">
<ele>529.476</ele>
<time>2022-05-27T09:57:47Z</time>
</trkpt>
<trkpt lat="47.879597" lon="11.141147">
<ele>529.645</ele>
<time>2022-05-27T09:57:48Z</time>
</trkpt>
<trkpt lat="47.879589" lon="11.141187">
<ele>529.762</ele>
<time>2022-05-27T09:57:49Z</time>
</trkpt>
<trkpt lat="47.879581" lon="11.141225">
<ele>529.891</ele>
<time>2022-05-27T09:57:50Z</time>
</trkpt>
<trkpt lat="47.879574" lon="11.141266">
<ele>529.975</ele>
<time>2022-05-27T09:57:51Z</time>
</trkpt>
<trkpt lat="47.879566" lon="11.14131">
<ele>530.278</ele>
<time>2022-05-27T09:57:52Z</time>
</trkpt>
<trkpt lat="47.879559" lon="11.141352">
<ele>530.491</ele>
<time>2022-05-27T09:57:53Z</time>
</trkpt>
<trkpt lat="47.879547" lon="11.141397">
<ele>530.715</ele>
<time>2022-05-27T09:57:54Z</time>
</trkpt>
<trkpt lat="47.879536" lon="11.141441">
<ele>530.828</ele>
<time>2022-05-27T09:57:55Z</time>
</trkpt>
<trkpt lat="47.879536" lon="11.141483">
<ele>530.915</ele>
<time>2022-05-27T09:57:56Z</time>
</trkpt>
<trkpt lat="47.879524" lon="11.141521">
<ele>530.957</ele>
<time>2022-05-27T09:57:57Z</time>
</trkpt>
<trkpt lat="47.879513" lon="11.14156">
<ele>530.987</ele>
<time>2022-05-27T09:57:58Z</time>
</trkpt>
<trkpt lat="47.879501" lon="11.141607">
<ele>531.008</ele>
<time>2022-05-27T09:57:59Z</time>
</trkpt>
<trkpt lat="47.87949" lon="11.141655">
<ele>531.008</ele>
<time>2022-05-27T09:58:00Z</time>
</trkpt>
<trkpt lat="47.879478" lon="11.141698">
<ele>531.007</ele>
<time>2022-05-27T09:58:01Z</time>
</trkpt>
<trkpt lat="47.879467" lon="11.14175">
<ele>531.008</ele>
<time>2022-05-27T09:58:02Z</time>
</trkpt>
<trkpt lat="47.879456" lon="11.141802">
<ele>531.008</ele>
<time>2022-05-27T09:58:03Z</time>
</trkpt>
<trkpt lat="47.879444" lon="11.141857">
<ele>531.008</ele>
<time>2022-05-27T09:58:04Z</time>
</trkpt>
<trkpt lat="47.879436" lon="11.14191">
<ele>531.007</ele>
<time>2022-05-27T09:58:05Z</time>
</trkpt>
<trkpt lat="47.879417" lon="11.141967">
<ele>531.007</ele>
<time>2022-05-27T09:58:06Z</time>
</trkpt>
<trkpt lat="47.879398" lon="11.142031">
<ele>531.007</ele>
<time>2022-05-27T09:58:07Z</time>
</trkpt>
<trkpt lat="47.879372" lon="11.14209">
<ele>530.756</ele>
<time>2022-05-27T09:58:08Z</time>
</trkpt>
<trkpt lat="47.879337" lon="11.142154">
<ele>530.586</ele>
<time>2022-05-27T09:58:09Z</time>
</trkpt>
<trkpt lat="47.879303" lon="11.142219">
<ele>530.412</ele>
<time>2022-05-27T09:58:10Z</time>
</trkpt>
<trkpt lat="47.879269" lon="11.142284">
<ele>530.275</ele>
<time>2022-05-27T09:58:11Z</time>
</trkpt>
<trkpt lat="47.87923" lon="11.142348">
<ele>530.19</ele>
<time>2022-05-27T09:58:12Z</time>
</trkpt>
<trkpt lat="47.879177" lon="11.142404">
<ele>529.883</ele>
<time>2022-05-27T09:58:13Z</time>
</trkpt>
<trkpt lat="47.879128" lon="11.142448">
<ele>529.659</ele>
<time>2022-05-27T09:58:14Z</time>
</trkpt>
<trkpt lat="47.87907" lon="11.142485">
<ele>529.497</ele>
<time>2022-05-27T09:58:15Z</time>
</trkpt>
<trkpt lat="47.879013" lon="11.142512">
<ele>529.356</ele>
<time>2022-05-27T09:58:16Z</time>
</trkpt>
<trkpt lat="47.878948" lon="11.142529">
<ele>529.286</ele>
<time>2022-05-27T09:58:17Z</time>
</trkpt>
<trkpt lat="47.878883" lon="11.142533">
<ele>529.239</ele>
<time>2022-05-27T09:58:18Z</time>
</trkpt>
<trkpt lat="47.87883" lon="11.142533">
<ele>529.202</ele>
<time>2022-05-27T09:58:19Z</time>
</trkpt>
<trkpt lat="47.878773" lon="11.142529">
<ele>529.18</ele>
<time>2022-05-27T09:58:20Z</time>
</trkpt>
<trkpt lat="47.878716" lon="11.142529">
<ele>529.18</ele>
<time>2022-05-27T09:58:21Z</time>
</trkpt>
<trkpt lat="47.878658" lon="11.142529">
<ele>529.18</ele>
<time>2022-05-27T09:58:22Z</time>
</trkpt>
<trkpt lat="47.878601" lon="11.142529">
<ele>529.18</ele>
<time>2022-05-27T09:58:23Z</time>
</trkpt>
<trkpt lat="47.878544" lon="11.142529">
<ele>529.18</ele>
<time>2022-05-27T09:58:24Z</time>
</trkpt>
<trkpt lat="47.878483" lon="11.142527">
<ele>529.18</ele>
<time>2022-05-27T09:58:25Z</time>
</trkpt>
<trkpt lat="47.878426" lon="11.142527">
<ele>529.18</ele>
<time>2022-05-27T09:58:26Z</time>
</trkpt>
<trkpt lat="47.878368" lon="11.142529">
<ele>529.18</ele>
<time>2022-05-27T09:58:27Z</time>
</trkpt>
<trkpt lat="47.878315" lon="11.142547">
<ele>529.18</ele>
<time>2022-05-27T09:58:28Z</time>
</trkpt>
<trkpt lat="47.878262" lon="11.142556">
<ele>529.18</ele>
<time>2022-05-27T09:58:29Z</time>
</trkpt>
<trkpt lat="47.878208" lon="11.14257">
<ele>529.18</ele>
<time>2022-05-27T09:58:30Z</time>
</trkpt>
<trkpt lat="47.878155" lon="11.142584">
<ele>529.18</ele>
<time>2022-05-27T09:58:31Z</time>
</trkpt>
<trkpt lat="47.878101" lon="11.142602">
<ele>529.18</ele>
<time>2022-05-27T09:58:32Z</time>
</trkpt>
<trkpt lat="47.878052" lon="11.142628">
<ele>529.18</ele>
<time>2022-05-27T09:58:33Z</time>
</trkpt>
<trkpt lat="47.878002" lon="11.142658">
<ele>529.18</ele>
<time>2022-05-27T09:58:34Z</time>
</trkpt>
<trkpt lat="47.877964" lon="11.142685">
<ele>529.18</ele>
<time>2022-05-27T09:58:35Z</time>
</trkpt>
<trkpt lat="47.877918" lon="11.142714">
<ele>529.18</ele>
<time>2022-05-27T09:58:36Z</time>
</trkpt>
<trkpt lat="47.877876" lon="11.14274">
<ele>529.18</ele>
<time>2022-05-27T09:58:37Z</time>
</trkpt>
<trkpt lat="47.877838" lon="11.142768">
<ele>529.18</ele>
<time>2022-05-27T09:58:38Z</time>
</trkpt>
<trkpt lat="47.877808" lon="11.142794">
<ele>529.18</ele>
<time>2022-05-27T09:58:39Z</time>
</trkpt>
<trkpt lat="47.877773" lon="11.142817">
<ele>529.18</ele>
<time>2022-05-27T09:58:40Z</time>
</trkpt>
<trkpt lat="47.877743" lon="11.142837">
<ele>529.18</ele>
<time>2022-05-27T09:58:41Z</time>
</trkpt>
<trkpt lat="47.877708" lon="11.142847">
<ele>529.18</ele>
<time>2022-05-27T09:58:42Z</time>
</trkpt>
<trkpt lat="47.877682" lon="11.142852">
<ele>529.18</ele>
<time>2022-05-27T09:58:43Z</time>
</trkpt>
<trkpt lat="47.877651" lon="11.142854">
<ele>529.18</ele>
<time>2022-05-27T09:58:44Z</time>
</trkpt>
<trkpt lat="47.877621" lon="11.142852">
<ele>529.18</ele>
<time>2022-05-27T09:58:45Z</time>
</trkpt>
<trkpt lat="47.877594" lon="11.142845">
<ele>529.18</ele>
<time>2022-05-27T09:58:46Z</time>
</trkpt>
<trkpt lat="47.877563" lon="11.142839">
<ele>529.179</ele>
<time>2022-05-27T09:58:47Z</time>
</trkpt>
<trkpt lat="47.877533" lon="11.142832">
<ele>529.18</ele>
<time>2022-05-27T09:58:48Z</time>
</trkpt>
<trkpt lat="47.877499" lon="11.142823">
<ele>529.18</ele>
<time>2022-05-27T09:58:49Z</time>
</trkpt>
<trkpt lat="47.877464" lon="11.142817">
<ele>529.18</ele>
<time>2022-05-27T09:58:50Z</time>
</trkpt>
<trkpt lat="47.877422" lon="11.142812">
<ele>529.18</ele>
<time>2022-05-27T09:58:51Z</time>
</trkpt>
<trkpt lat="47.877388" lon="11.142801">
<ele>529.18</ele>
<time>2022-05-27T09:58:52Z</time>
</trkpt>
<trkpt lat="47.877357" lon="11.142789">
<ele>529.18</ele>
<time>2022-05-27T09:58:53Z</time>
</trkpt>
<trkpt lat="47.877338" lon="11.142768">
<ele>529.18</ele>
<time>2022-05-27T09:58:54Z</time>
</trkpt>
<trkpt lat="47.877312" lon="11.142743">
<ele>529.18</ele>
<time>2022-05-27T09:58:55Z</time>
</trkpt>
<trkpt lat="47.877277" lon="11.142718">
<ele>529.18</ele>
<time>2022-05-27T09:58:56Z</time>
</trkpt>
<trkpt lat="47.877239" lon="11.142689">
<ele>529.18</ele>
<time>2022-05-27T09:58:57Z</time>
</trkpt>
<trkpt lat="47.877201" lon="11.142653">
<ele>529.18</ele>
<time>2022-05-27T09:58:58Z</time>
</trkpt>
<trkpt lat="47.877159" lon="11.142615">
<ele>529.18</ele>
<time>2022-05-27T09:58:59Z</time>
</trkpt>
<trkpt lat="47.877121" lon="11.142582">
<ele>529.18</ele>
<time>2022-05-27T09:59:00Z</time>
</trkpt>
<trkpt lat="47.877083" lon="11.142552">
<ele>529.18</ele>
<time>2022-05-27T09:59:01Z</time>
</trkpt>
<trkpt lat="47.877045" lon="11.142521">
<ele>529.18</ele>
<time>2022-05-27T09:59:02Z</time>
</trkpt>
<trkpt lat="47.877007" lon="11.142487">
<ele>529.18</ele>
<time>2022-05-27T09:59:03Z</time>
</trkpt>
<trkpt lat="47.876968" lon="11.142449">
<ele>529.18</ele>
<time>2022-05-27T09:59:04Z</time>
</trkpt>
<trkpt lat="47.876923" lon="11.14241">
<ele>529.18</ele>
<time>2022-05-27T09:59:05Z</time>
</trkpt>
<trkpt lat="47.876873" lon="11.142368">
<ele>529.18</ele>
<time>2022-05-27T09:59:06Z</time>
</trkpt>
<trkpt lat="47.876827" lon="11.142335">
<ele>529.18</ele>
<time>2022-05-27T09:59:07Z</time>
</trkpt>
<trkpt lat="47.876785" lon="11.142305">
<ele>529.18</ele>
<time>2022-05-27T09:59:08Z</time>
</trkpt>
<trkpt lat="47.87674" lon="11.142276">
<ele>529.18</ele>
<time>2022-05-27T09:59:09Z</time>
</trkpt>
<trkpt lat="47.876698" lon="11.142239">
<ele>529.18</ele>
<time>2022-05-27T09:59:10Z</time>
</trkpt>
<trkpt lat="47.876659" lon="11.142197">
<ele>529.18</ele>
<time>2022-05-27T09:59:11Z</time>
</trkpt>
<trkpt lat="47.87661" lon="11.142162">
<ele>529.18</ele>
<time>2022-05-27T09:59:12Z</time>
</trkpt>
<trkpt lat="47.876568" lon="11.142118">
<ele>529.18</ele>
<time>2022-05-27T09:59:13Z</time>
</trkpt>
<trkpt lat="47.876522" lon="11.142066">
<ele>529.18</ele>
<time>2022-05-27T09:59:14Z</time>
</trkpt>
<trkpt lat="47.876472" lon="11.142018">
<ele>529.18</ele>
<time>2022-05-27T09:59:15Z</time>
</trkpt>
<trkpt lat="47.876431" lon="11.141976">
<ele>529.18</ele>
<time>2022-05-27T09:59:16Z</time>
</trkpt>
<trkpt lat="47.876385" lon="11.141934">
<ele>529.18</ele>
<time>2022-05-27T09:59:17Z</time>
</trkpt>
<trkpt lat="47.876343" lon="11.141893">
<ele>529.18</ele>
<time>2022-05-27T09:59:18Z</time>
</trkpt>
<trkpt lat="47.876301" lon="11.141844">
<ele>529.18</ele>
<time>2022-05-27T09:59:19Z</time>
</trkpt>
<trkpt lat="47.876251" lon="11.141795">
<ele>529.18</ele>
<time>2022-05-27T09:59:20Z</time>
</trkpt>
<trkpt lat="47.876202" lon="11.141748">
<ele>529.18</ele>
<time>2022-05-27T09:59:21Z</time>
</trkpt>
<trkpt lat="47.876152" lon="11.141704">
<ele>529.18</ele>
<time>2022-05-27T09:59:22Z</time>
</trkpt>
<trkpt lat="47.87611" lon="11.141662">
<ele>529.18</ele>
<time>2022-05-27T09:59:23Z</time>
</trkpt>
<trkpt lat="47.876064" lon="11.141614">
<ele>529.443</ele>
<time>2022-05-27T09:59:24Z</time>
</trkpt>
<trkpt lat="47.876019" lon="11.141567">
<ele>529.649</ele>
<time>2022-05-27T09:59:25Z</time>
</trkpt>
<trkpt lat="47.875973" lon="11.141521">
<ele>529.798</ele>
<time>2022-05-27T09:59:26Z</time>
</trkpt>
<trkpt lat="47.875931" lon="11.141477">
<ele>529.909</ele>
<time>2022-05-27T09:59:27Z</time>
</trkpt>
<trkpt lat="47.875893" lon="11.141437">
<ele>529.991</ele>
<time>2022-05-27T09:59:28Z</time>
</trkpt>
<trkpt lat="47.875854" lon="11.1414">
<ele>530.053</ele>
<time>2022-05-27T09:59:29Z</time>
</trkpt>
<trkpt lat="47.875816" lon="11.141371">
<ele>530.109</ele>
<time>2022-05-27T09:59:30Z</time>
</trkpt>
<trkpt lat="47.875767" lon="11.141348">
<ele>530.137</ele>
<time>2022-05-27T09:59:31Z</time>
</trkpt>
<trkpt lat="47.875721" lon="11.141335">
<ele>530.137</ele>
<time>2022-05-27T09:59:32Z</time>
</trkpt>
<trkpt lat="47.875671" lon="11.141327">
<ele>530.137</ele>
<time>2022-05-27T09:59:33Z</time>
</trkpt>
<trkpt lat="47.875622" lon="11.141322">
<ele>530.137</ele>
<time>2022-05-27T09:59:34Z</time>
</trkpt>
<trkpt lat="47.875568" lon="11.141323">
<ele>530.137</ele>
<time>2022-05-27T09:59:35Z</time>
</trkpt>
<trkpt lat="47.875523" lon="11.141334">
<ele>530.137</ele>
<time>2022-05-27T09:59:36Z</time>
</trkpt>
<trkpt lat="47.875477" lon="11.141343">
<ele>530.137</ele>
<time>2022-05-27T09:59:37Z</time>
</trkpt>
<trkpt lat="47.875435" lon="11.141352">
<ele>530.137</ele>
<time>2022-05-27T09:59:38Z</time>
</trkpt>
<trkpt lat="47.875393" lon="11.141365">
<ele>530.137</ele>
<time>2022-05-27T09:59:39Z</time>
</trkpt>
<trkpt lat="47.875351" lon="11.141381">
<ele>530.137</ele>
<time>2022-05-27T09:59:40Z</time>
</trkpt>
<trkpt lat="47.875309" lon="11.141396">
<ele>530.137</ele>
<time>2022-05-27T09:59:41Z</time>
</trkpt>
<trkpt lat="47.875267" lon="11.141406">
<ele>530.137</ele>
<time>2022-05-27T09:59:42Z</time>
</trkpt>
<trkpt lat="47.875225" lon="11.141423">
<ele>530.137</ele>
<time>2022-05-27T09:59:43Z</time>
</trkpt>
<trkpt lat="47.875175" lon="11.141446">
<ele>530.137</ele>
<time>2022-05-27T09:59:44Z</time>
</trkpt>
<trkpt lat="47.875126" lon="11.141477">
<ele>530.137</ele>
<time>2022-05-27T09:59:45Z</time>
</trkpt>
<trkpt lat="47.875069" lon="11.141509">
<ele>530.137</ele>
<time>2022-05-27T09:59:46Z</time>
</trkpt>
<trkpt lat="47.875019" lon="11.141534">
<ele>530.137</ele>
<time>2022-05-27T09:59:47Z</time>
</trkpt>
<trkpt lat="47.874969" lon="11.141555">
<ele>530.137</ele>
<time>2022-05-27T09:59:48Z</time>
</trkpt>
<trkpt lat="47.87492" lon="11.141577">
<ele>530.137</ele>
<time>2022-05-27T09:59:49Z</time>
</trkpt>
<trkpt lat="47.874874" lon="11.141599">
<ele>530.137</ele>
<time>2022-05-27T09:59:50Z</time>
</trkpt>
<trkpt lat="47.874821" lon="11.141616">
<ele>530.137</ele>
<time>2022-05-27T09:59:51Z</time>
</trkpt>
<trkpt lat="47.874775" lon="11.141637">
<ele>530.137</ele>
<time>2022-05-27T09:59:52Z</time>
</trkpt>
<trkpt lat="47.874722" lon="11.141657">
<ele>530.137</ele>
<time>2022-05-27T09:59:53Z</time>
</trkpt>
<trkpt lat="47.874676" lon="11.141682">
<ele>530.137</ele>
<time>2022-05-27T09:59:54Z</time>
</trkpt>
<trkpt lat="47.874626" lon="11.141704">
<ele>530.137</ele>
<time>2022-05-27T09:59:55Z</time>
</trkpt>
<trkpt lat="47.874573" lon="11.141722">
<ele>530.137</ele>
<time>2022-05-27T09:59:56Z</time>
</trkpt>
<trkpt lat="47.874516" lon="11.141746">
<ele>530.137</ele>
<time>2022-05-27T09:59:57Z</time>
</trkpt>
<trkpt lat="47.874462" lon="11.141768">
<ele>530.137</ele>
<time>2022-05-27T09:59:58Z</time>
</trkpt>
<trkpt lat="47.874413" lon="11.141789">
<ele>530.137</ele>
<time>2022-05-27T09:59:59Z</time>
</trkpt>
<trkpt lat="47.874355" lon="11.141807">
<ele>530.137</ele>
<time>2022-05-27T10:00:00Z</time>
</trkpt>
<trkpt lat="47.874302" lon="11.141823">
<ele>530.137</ele>
<time>2022-05-27T10:00:01Z</time>
</trkpt>
<trkpt lat="47.874252" lon="11.141838">
<ele>530.137</ele>
<time>2022-05-27T10:00:02Z</time>
</trkpt>
<trkpt lat="47.874195" lon="11.141852">
<ele>530.137</ele>
<time>2022-05-27T10:00:03Z</time>
</trkpt>
<trkpt lat="47.874138" lon="11.141861">
<ele>530.137</ele>
<time>2022-05-27T10:00:04Z</time>
</trkpt>
<trkpt lat="47.874084" lon="11.141871">
<ele>530.137</ele>
<time>2022-05-27T10:00:05Z</time>
</trkpt>
<trkpt lat="47.874027" lon="11.141878">
<ele>530.137</ele>
<time>2022-05-27T10:00:06Z</time>
</trkpt>
<trkpt lat="47.873978" lon="11.141884">
<ele>530.137</ele>
<time>2022-05-27T10:00:07Z</time>
</trkpt>
<trkpt lat="47.873924" lon="11.141889">
<ele>530.137</ele>
<time>2022-05-27T10:00:08Z</time>
</trkpt>
<trkpt lat="47.873867" lon="11.141892">
<ele>530.137</ele>
<time>2022-05-27T10:00:09Z</time>
</trkpt>
<trkpt lat="47.873814" lon="11.141892">
<ele>530.137</ele>
<time>2022-05-27T10:00:10Z</time>
</trkpt>
<trkpt lat="47.873764" lon="11.141892">
<ele>530.137</ele>
<time>2022-05-27T10:00:11Z</time>
</trkpt>
<trkpt lat="47.873711" lon="11.141891">
<ele>530.386</ele>
<time>2022-05-27T10:00:12Z</time>
</trkpt>
<trkpt lat="47.873661" lon="11.141885">
<ele>530.582</ele>
<time>2022-05-27T10:00:13Z</time>
</trkpt>
<trkpt lat="47.873604" lon="11.141878">
<ele>530.732</ele>
<time>2022-05-27T10:00:14Z</time>
</trkpt>
<trkpt lat="47.873554" lon="11.14187">
<ele>530.841</ele>
<time>2022-05-27T10:00:15Z</time>
</trkpt>
<trkpt lat="47.873505" lon="11.141861">
<ele>530.913</ele>
<time>2022-05-27T10:00:16Z</time>
</trkpt>
<trkpt lat="47.873459" lon="11.141855">
<ele>530.964</ele>
<time>2022-05-27T10:00:17Z</time>
</trkpt>
<trkpt lat="47.873413" lon="11.14185">
<ele>530.987</ele>
<time>2022-05-27T10:00:18Z</time>
</trkpt>
<trkpt lat="47.873367" lon="11.141847">
<ele>531.007</ele>
<time>2022-05-27T10:00:19Z</time>
</trkpt>
<trkpt lat="47.873318" lon="11.141842">
<ele>531.007</ele>
<time>2022-05-27T10:00:20Z</time>
</trkpt>
<trkpt lat="47.873276" lon="11.141842">
<ele>531.007</ele>
<time>2022-05-27T10:00:21Z</time>
</trkpt>
<trkpt lat="47.87323" lon="11.141842">
<ele>530.762</ele>
<time>2022-05-27T10:00:22Z</time>
</trkpt>
<trkpt lat="47.873177" lon="11.14184">
<ele>530.565</ele>
<time>2022-05-27T10:00:23Z</time>
</trkpt>
<trkpt lat="47.873131" lon="11.141835">
<ele>530.412</ele>
<time>2022-05-27T10:00:24Z</time>
</trkpt>
<trkpt lat="47.873081" lon="11.141828">
<ele>530.301</ele>
<time>2022-05-27T10:00:25Z</time>
</trkpt>
<trkpt lat="47.873035" lon="11.141819">
<ele>530.229</ele>
<time>2022-05-27T10:00:26Z</time>
</trkpt>
<trkpt lat="47.872986" lon="11.141809">
<ele>530.183</ele>
<time>2022-05-27T10:00:27Z</time>
</trkpt>
<trkpt lat="47.872944" lon="11.141802">
<ele>530.156</ele>
<time>2022-05-27T10:00:28Z</time>
</trkpt>
<trkpt lat="47.872894" lon="11.141793">
<ele>530.137</ele>
<time>2022-05-27T10:00:29Z</time>
</trkpt>
<trkpt lat="47.872849" lon="11.141788">
<ele>530.137</ele>
<time>2022-05-27T10:00:30Z</time>
</trkpt>
<trkpt lat="47.872803" lon="11.14178">
<ele>530.137</ele>
<time>2022-05-27T10:00:31Z</time>
</trkpt>
<trkpt lat="47.872757" lon="11.141777">
<ele>530.137</ele>
<time>2022-05-27T10:00:32Z</time>
</trkpt>
<trkpt lat="47.872704" lon="11.14177">
<ele>530.137</ele>
<time>2022-05-27T10:00:33Z</time>
</trkpt>
<trkpt lat="47.87265" lon="11.141768">
<ele>530.137</ele>
<time>2022-05-27T10:00:34Z</time>
</trkpt>
<trkpt lat="47.872597" lon="11.141758">
<ele>530.137</ele>
<time>2022-05-27T10:00:35Z</time>
</trkpt>
<trkpt lat="47.872543" lon="11.141753">
<ele>530.137</ele>
<time>2022-05-27T10:00:36Z</time>
</trkpt>
<trkpt lat="47.872482" lon="11.141753">
<ele>530.137</ele>
<time>2022-05-27T10:00:37Z</time>
</trkpt>
<trkpt lat="47.872429" lon="11.141748">
<ele>530.137</ele>
<time>2022-05-27T10:00:38Z</time>
</trkpt>
<trkpt lat="47.872372" lon="11.141742">
<ele>530.137</ele>
<time>2022-05-27T10:00:39Z</time>
</trkpt>
<trkpt lat="47.872318" lon="11.141738">
<ele>530.137</ele>
<time>2022-05-27T10:00:40Z</time>
</trkpt>
<trkpt lat="47.872265" lon="11.141733">
<ele>530.137</ele>
<time>2022-05-27T10:00:41Z</time>
</trkpt>
<trkpt lat="47.872208" lon="11.141731">
<ele>530.137</ele>
<time>2022-05-27T10:00:42Z</time>
</trkpt>
<trkpt lat="47.872154" lon="11.141726">
<ele>530.382</ele>
<time>2022-05-27T10:00:43Z</time>
</trkpt>
<trkpt lat="47.872101" lon="11.141722">
<ele>530.569</ele>
<time>2022-05-27T10:00:44Z</time>
</trkpt>
<trkpt lat="47.872036" lon="11.141728">
<ele>530.714</ele>
<time>2022-05-27T10:00:45Z</time>
</trkpt>
<trkpt lat="47.871979" lon="11.141731">
<ele>530.824</ele>
<time>2022-05-27T10:00:46Z</time>
</trkpt>
<trkpt lat="47.871925" lon="11.141733">
<ele>530.898</ele>
<time>2022-05-27T10:00:47Z</time>
</trkpt>
<trkpt lat="47.871872" lon="11.141733">
<ele>530.948</ele>
<time>2022-05-27T10:00:48Z</time>
</trkpt>
<trkpt lat="47.871822" lon="11.141731">
<ele>530.985</ele>
<time>2022-05-27T10:00:49Z</time>
</trkpt>
<trkpt lat="47.871777" lon="11.14173">
<ele>531.007</ele>
<time>2022-05-27T10:00:50Z</time>
</trkpt>
<trkpt lat="47.871723" lon="11.14173">
<ele>531.007</ele>
<time>2022-05-27T10:00:51Z</time>
</trkpt>
<trkpt lat="47.871674" lon="11.14173">
<ele>531.007</ele>
<time>2022-05-27T10:00:52Z</time>
</trkpt>
<trkpt lat="47.871624" lon="11.141726">
<ele>531.007</ele>
<time>2022-05-27T10:00:53Z</time>
</trkpt>
<trkpt lat="47.871578" lon="11.141723">
<ele>531.008</ele>
<time>2022-05-27T10:00:54Z</time>
</trkpt>
<trkpt lat="47.871532" lon="11.14172">
<ele>531.007</ele>
<time>2022-05-27T10:00:55Z</time>
</trkpt>
<trkpt lat="47.871487" lon="11.141718">
<ele>531.008</ele>
<time>2022-05-27T10:00:56Z</time>
</trkpt>
<trkpt lat="47.871441" lon="11.141715">
<ele>531.007</ele>
<time>2022-05-27T10:00:57Z</time>
</trkpt>
<trkpt lat="47.871391" lon="11.141712">
<ele>531.007</ele>
<time>2022-05-27T10:00:58Z</time>
</trkpt>
<trkpt lat="47.871349" lon="11.14171">
<ele>531.007</ele>
<time>2022-05-27T10:00:59Z</time>
</trkpt>
<trkpt lat="47.871296" lon="11.141708">
<ele>531.007</ele>
<time>2022-05-27T10:01:00Z</time>
</trkpt>
<trkpt lat="47.87125" lon="11.141706">
<ele>531.294</ele>
<time>2022-05-27T10:01:01Z</time>
</trkpt>
<trkpt lat="47.871201" lon="11.141704">
<ele>531.517</ele>
<time>2022-05-27T10:01:02Z</time>
</trkpt>
<trkpt lat="47.871155" lon="11.141702">
<ele>531.682</ele>
<time>2022-05-27T10:01:03Z</time>
</trkpt>
<trkpt lat="47.871109" lon="11.1417">
<ele>531.807</ele>
<time>2022-05-27T10:01:04Z</time>
</trkpt>
<trkpt lat="47.871063" lon="11.141698">
<ele>531.89</ele>
<time>2022-05-27T10:01:05Z</time>
</trkpt>
<trkpt lat="47.871017" lon="11.141697">
<ele>531.941</ele>
<time>2022-05-27T10:01:06Z</time>
</trkpt>
<trkpt lat="47.870968" lon="11.141693">
<ele>531.965</ele>
<time>2022-05-27T10:01:07Z</time>
</trkpt>
<trkpt lat="47.870926" lon="11.141691">
<ele>531.965</ele>
<time>2022-05-27T10:01:08Z</time>
</trkpt>
<trkpt lat="47.870876" lon="11.141689">
<ele>531.965</ele>
<time>2022-05-27T10:01:09Z</time>
</trkpt>
<trkpt lat="47.870831" lon="11.141686">
<ele>531.965</ele>
<time>2022-05-27T10:01:10Z</time>
</trkpt>
<trkpt lat="47.870777" lon="11.141684">
<ele>531.965</ele>
<time>2022-05-27T10:01:11Z</time>
</trkpt>
<trkpt lat="47.870728" lon="11.141679">
<ele>531.965</ele>
<time>2022-05-27T10:01:12Z</time>
</trkpt>
<trkpt lat="47.870674" lon="11.141677">
<ele>531.965</ele>
<time>2022-05-27T10:01:13Z</time>
</trkpt>
<trkpt lat="47.870625" lon="11.141675">
<ele>531.965</ele>
<time>2022-05-27T10:01:14Z</time>
</trkpt>
<trkpt lat="47.870571" lon="11.141673">
<ele>531.965</ele>
<time>2022-05-27T10:01:15Z</time>
</trkpt>
<trkpt lat="47.870522" lon="11.141673">
<ele>531.965</ele>
<time>2022-05-27T10:01:16Z</time>
</trkpt>
<trkpt lat="47.870468" lon="11.141673">
<ele>532.228</ele>
<time>2022-05-27T10:01:17Z</time>
</trkpt>
<trkpt lat="47.870419" lon="11.141675">
<ele>532.435</ele>
<time>2022-05-27T10:01:18Z</time>
</trkpt>
<trkpt lat="47.870373" lon="11.141677">
<ele>532.574</ele>
<time>2022-05-27T10:01:19Z</time>
</trkpt>
<trkpt lat="47.870323" lon="11.141679">
<ele>532.727</ele>
<time>2022-05-27T10:01:20Z</time>
</trkpt>
<trkpt lat="47.870274" lon="11.141682">
<ele>532.842</ele>
<time>2022-05-27T10:01:21Z</time>
</trkpt>
<trkpt lat="47.870224" lon="11.141685">
<ele>532.927</ele>
<time>2022-05-27T10:01:22Z</time>
</trkpt>
<trkpt lat="47.870174" lon="11.141688">
<ele>532.982</ele>
<time>2022-05-27T10:01:23Z</time>
</trkpt>
<trkpt lat="47.870121" lon="11.141691">
<ele>533.01</ele>
<time>2022-05-27T10:01:24Z</time>
</trkpt>
<trkpt lat="47.870071" lon="11.141695">
<ele>533.01</ele>
<time>2022-05-27T10:01:25Z</time>
</trkpt>
<trkpt lat="47.870022" lon="11.141698">
<ele>533.009</ele>
<time>2022-05-27T10:01:26Z</time>
</trkpt>
<trkpt lat="47.869972" lon="11.141702">
<ele>533.009</ele>
<time>2022-05-27T10:01:27Z</time>
</trkpt>
<trkpt lat="47.869919" lon="11.141706">
<ele>533.009</ele>
<time>2022-05-27T10:01:28Z</time>
</trkpt>
<trkpt lat="47.869869" lon="11.141708">
<ele>533.01</ele>
<time>2022-05-27T10:01:29Z</time>
</trkpt>
<trkpt lat="47.869823" lon="11.141712">
<ele>533.01</ele>
<time>2022-05-27T10:01:30Z</time>
</trkpt>
<trkpt lat="47.869778" lon="11.141717">
<ele>533.009</ele>
<time>2022-05-27T10:01:31Z</time>
</trkpt>
<trkpt lat="47.869732" lon="11.141722">
<ele>533.01</ele>
<time>2022-05-27T10:01:32Z</time>
</trkpt>
<trkpt lat="47.869686" lon="11.141731">
<ele>533.01</ele>
<time>2022-05-27T10:01:33Z</time>
</trkpt>
<trkpt lat="47.869637" lon="11.141742">
<ele>533.01</ele>
<time>2022-05-27T10:01:34Z</time>
</trkpt>
<trkpt lat="47.869591" lon="11.141756">
<ele>533.01</ele>
<time>2022-05-27T10:01:35Z</time>
</trkpt>
<trkpt lat="47.869549" lon="11.141773">
<ele>533.01</ele>
<time>2022-05-27T10:01:36Z</time>
</trkpt>
<trkpt lat="47.869499" lon="11.141793">
<ele>533.009</ele>
<time>2022-05-27T10:01:37Z</time>
</trkpt>
<trkpt lat="47.869457" lon="11.141813">
<ele>533.01</ele>
<time>2022-05-27T10:01:38Z</time>
</trkpt>
<trkpt lat="47.869411" lon="11.141836">
<ele>533.01</ele>
<time>2022-05-27T10:01:39Z</time>
</trkpt>
<trkpt lat="47.869362" lon="11.141861">
<ele>533.009</ele>
<time>2022-05-27T10:01:40Z</time>
</trkpt>
<trkpt lat="47.869312" lon="11.141889">
<ele>533.01</ele>
<time>2022-05-27T10:01:41Z</time>
</trkpt>
<trkpt lat="47.869267" lon="11.14192">
<ele>532.725</ele>
<time>2022-05-27T10:01:42Z</time>
</trkpt>
<trkpt lat="47.869209" lon="11.141953">
<ele>532.505</ele>
<time>2022-05-27T10:01:43Z</time>
</trkpt>
<trkpt lat="47.869156" lon="11.141991">
<ele>532.342</ele>
<time>2022-05-27T10:01:44Z</time>
</trkpt>
<trkpt lat="47.869102" lon="11.142029">
<ele>532.223</ele>
<time>2022-05-27T10:01:45Z</time>
</trkpt>
<trkpt lat="47.869045" lon="11.142066">
<ele>532.143</ele>
<time>2022-05-27T10:01:46Z</time>
</trkpt>
<trkpt lat="47.868996" lon="11.142105">
<ele>532.098</ele>
<time>2022-05-27T10:01:47Z</time>
</trkpt>
<trkpt lat="47.868938" lon="11.142143">
<ele>532.072</ele>
<time>2022-05-27T10:01:48Z</time>
</trkpt>
<trkpt lat="47.868893" lon="11.142185">
<ele>532.052</ele>
<time>2022-05-27T10:01:49Z</time>
</trkpt>
<trkpt lat="47.868843" lon="11.142227">
<ele>532.052</ele>
<time>2022-05-27T10:01:50Z</time>
</trkpt>
<trkpt lat="47.868793" lon="11.142268">
<ele>532.052</ele>
<time>2022-05-27T10:01:51Z</time>
</trkpt>
<trkpt lat="47.868744" lon="11.142311">
<ele>532.052</ele>
<time>2022-05-27T10:01:52Z</time>
</trkpt>
<trkpt lat="47.868698" lon="11.142355">
<ele>532.052</ele>
<time>2022-05-27T10:01:53Z</time>
</trkpt>
<trkpt lat="47.868649" lon="11.1424">
<ele>532.052</ele>
<time>2022-05-27T10:01:54Z</time>
</trkpt>
<trkpt lat="47.868603" lon="11.142446">
<ele>532.052</ele>
<time>2022-05-27T10:01:55Z</time>
</trkpt>
<trkpt lat="47.868561" lon="11.142489">
<ele>532.052</ele>
<time>2022-05-27T10:01:56Z</time>
</trkpt>
<trkpt lat="47.868515" lon="11.142535">
<ele>532.052</ele>
<time>2022-05-27T10:01:57Z</time>
</trkpt>
<trkpt lat="47.868481" lon="11.142578">
<ele>532.052</ele>
<time>2022-05-27T10:01:58Z</time>
</trkpt>
<trkpt lat="47.868443" lon="11.142625">
<ele>532.052</ele>
<time>2022-05-27T10:01:59Z</time>
</trkpt>
<trkpt lat="47.868397" lon="11.142673">
<ele>532.052</ele>
<time>2022-05-27T10:02:00Z</time>
</trkpt>
<trkpt lat="47.868359" lon="11.142722">
<ele>532.052</ele>
<time>2022-05-27T10:02:01Z</time>
</trkpt>
<trkpt lat="47.86832" lon="11.142775">
<ele>532.052</ele>
<time>2022-05-27T10:02:02Z</time>
</trkpt>
<trkpt lat="47.868282" lon="11.142829">
<ele>532.052</ele>
<time>2022-05-27T10:02:03Z</time>
</trkpt>
<trkpt lat="47.868244" lon="11.142885">
<ele>532.052</ele>
<time>2022-05-27T10:02:04Z</time>
</trkpt>
<trkpt lat="47.86821" lon="11.142943">
<ele>532.052</ele>
<time>2022-05-27T10:02:05Z</time>
</trkpt>
<trkpt lat="47.868176" lon="11.143003">
<ele>532.052</ele>
<time>2022-05-27T10:02:06Z</time>
</trkpt>
<trkpt lat="47.868141" lon="11.143065">
<ele>532.052</ele>
<time>2022-05-27T10:02:07Z</time>
</trkpt>
<trkpt lat="47.868107" lon="11.143126">
<ele>532.052</ele>
<time>2022-05-27T10:02:08Z</time>
</trkpt>
<trkpt lat="47.86808" lon="11.143191">
<ele>532.052</ele>
<time>2022-05-27T10:02:09Z</time>
</trkpt>
<trkpt lat="47.86805" lon="11.143256">
<ele>532.052</ele>
<time>2022-05-27T10:02:10Z</time>
</trkpt>
<trkpt lat="47.868023" lon="11.143323">
<ele>532.052</ele>
<time>2022-05-27T10:02:11Z</time>
</trkpt>
<trkpt lat="47.867992" lon="11.143389">
<ele>532.052</ele>
<time>2022-05-27T10:02:12Z</time>
</trkpt>
<trkpt lat="47.867962" lon="11.143452">
<ele>532.052</ele>
<time>2022-05-27T10:02:13Z</time>
</trkpt>
<trkpt lat="47.867928" lon="11.143518">
<ele>532.052</ele>
<time>2022-05-27T10:02:14Z</time>
</trkpt>
<trkpt lat="47.867897" lon="11.143585">
<ele>532.052</ele>
<time>2022-05-27T10:02:15Z</time>
</trkpt>
<trkpt lat="47.86787" lon="11.143648">
<ele>532.052</ele>
<time>2022-05-27T10:02:16Z</time>
</trkpt>
<trkpt lat="47.867844" lon="11.14371">
<ele>532.052</ele>
<time>2022-05-27T10:02:17Z</time>
</trkpt>
<trkpt lat="47.867817" lon="11.14377">
<ele>532.052</ele>
<time>2022-05-27T10:02:18Z</time>
</trkpt>
<trkpt lat="47.86779" lon="11.143825">
<ele>532.052</ele>
<time>2022-05-27T10:02:19Z</time>
</trkpt>
<trkpt lat="47.86776" lon="11.143876">
<ele>532.052</ele>
<time>2022-05-27T10:02:20Z</time>
</trkpt>
<trkpt lat="47.867733" lon="11.14393">
<ele>532.052</ele>
<time>2022-05-27T10:02:21Z</time>
</trkpt>
<trkpt lat="47.867699" lon="11.143988">
<ele>532.052</ele>
<time>2022-05-27T10:02:22Z</time>
</trkpt>
<trkpt lat="47.867668" lon="11.144042">
<ele>532.052</ele>
<time>2022-05-27T10:02:23Z</time>
</trkpt>
<trkpt lat="47.867626" lon="11.144094">
<ele>532.052</ele>
<time>2022-05-27T10:02:24Z</time>
</trkpt>
<trkpt lat="47.86758" lon="11.144149">
<ele>532.052</ele>
<time>2022-05-27T10:02:25Z</time>
</trkpt>
<trkpt lat="47.867538" lon="11.144199">
<ele>532.052</ele>
<time>2022-05-27T10:02:26Z</time>
</trkpt>
<trkpt lat="47.867493" lon="11.144254">
<ele>532.304</ele>
<time>2022-05-27T10:02:27Z</time>
</trkpt>
<trkpt lat="47.867451" lon="11.144305">
<ele>532.498</ele>
<time>2022-05-27T10:02:28Z</time>
</trkpt>
<trkpt lat="47.867409" lon="11.144354">
<ele>532.625</ele>
<time>2022-05-27T10:02:29Z</time>
</trkpt>
<trkpt lat="47.867367" lon="11.144397">
<ele>532.759</ele>
<time>2022-05-27T10:02:30Z</time>
</trkpt>
<trkpt lat="47.867321" lon="11.14444">
<ele>532.863</ele>
<time>2022-05-27T10:02:31Z</time>
</trkpt>
<trkpt lat="47.867275" lon="11.144484">
<ele>532.936</ele>
<time>2022-05-27T10:02:32Z</time>
</trkpt>
<trkpt lat="47.867229" lon="11.144526">
<ele>532.985</ele>
<time>2022-05-27T10:02:33Z</time>
</trkpt>
<trkpt lat="47.86718" lon="11.144567">
<ele>533.01</ele>
<time>2022-05-27T10:02:34Z</time>
</trkpt>
<trkpt lat="47.867134" lon="11.144606">
<ele>533.009</ele>
<time>2022-05-27T10:02:35Z</time>
</trkpt>
<trkpt lat="47.867088" lon="11.144643">
<ele>533.01</ele>
<time>2022-05-27T10:02:36Z</time>
</trkpt>
<trkpt lat="47.867043" lon="11.144678">
<ele>533.01</ele>
<time>2022-05-27T10:02:37Z</time>
</trkpt>
<trkpt lat="47.866993" lon="11.144713">
<ele>533.01</ele>
<time>2022-05-27T10:02:38Z</time>
</trkpt>
<trkpt lat="47.866951" lon="11.144748">
<ele>533.01</ele>
<time>2022-05-27T10:02:39Z</time>
</trkpt>
<trkpt lat="47.866905" lon="11.144781">
<ele>533.01</ele>
<time>2022-05-27T10:02:40Z</time>
</trkpt>
<trkpt lat="47.866852" lon="11.144812">
<ele>533.01</ele>
<time>2022-05-27T10:02:41Z</time>
</trkpt>
<trkpt lat="47.866806" lon="11.144838">
<ele>533.01</ele>
<time>2022-05-27T10:02:42Z</time>
</trkpt>
<trkpt lat="47.866756" lon="11.144863">
<ele>533.01</ele>
<time>2022-05-27T10:02:43Z</time>
</trkpt>
<trkpt lat="47.866703" lon="11.144888">
<ele>533.01</ele>
<time>2022-05-27T10:02:44Z</time>
</trkpt>
<trkpt lat="47.86665" lon="11.144912">
<ele>533.01</ele>
<time>2022-05-27T10:02:45Z</time>
</trkpt>
<trkpt lat="47.866596" lon="11.144932">
<ele>533.01</ele>
<time>2022-05-27T10:02:46Z</time>
</trkpt>
<trkpt lat="47.866543" lon="11.144947">
<ele>533.231</ele>
<time>2022-05-27T10:02:47Z</time>
</trkpt>
<trkpt lat="47.866489" lon="11.144959">
<ele>533.404</ele>
<time>2022-05-27T10:02:48Z</time>
</trkpt>
<trkpt lat="47.866432" lon="11.144974">
<ele>533.521</ele>
<time>2022-05-27T10:02:49Z</time>
</trkpt>
<trkpt lat="47.866379" lon="11.144983">
<ele>533.648</ele>
<time>2022-05-27T10:02:50Z</time>
</trkpt>
<trkpt lat="47.866329" lon="11.144993">
<ele>533.744</ele>
<time>2022-05-27T10:02:51Z</time>
</trkpt>
<trkpt lat="47.866276" lon="11.145">
<ele>533.813</ele>
<time>2022-05-27T10:02:52Z</time>
</trkpt>
<trkpt lat="47.866226" lon="11.145006">
<ele>533.858</ele>
<time>2022-05-27T10:02:53Z</time>
</trkpt>
<trkpt lat="47.866173" lon="11.14501">
<ele>533.88</ele>
<time>2022-05-27T10:02:54Z</time>
</trkpt>
<trkpt lat="47.866123" lon="11.145012">
<ele>533.88</ele>
<time>2022-05-27T10:02:55Z</time>
</trkpt>
<trkpt lat="47.86607" lon="11.145014">
<ele>533.88</ele>
<time>2022-05-27T10:02:56Z</time>
</trkpt>
<trkpt lat="47.86602" lon="11.145008">
<ele>533.88</ele>
<time>2022-05-27T10:02:57Z</time>
</trkpt>
<trkpt lat="47.865971" lon="11.145003">
<ele>533.88</ele>
<time>2022-05-27T10:02:58Z</time>
</trkpt>
<trkpt lat="47.865917" lon="11.144999">
<ele>533.88</ele>
<time>2022-05-27T10:02:59Z</time>
</trkpt>
<trkpt lat="47.865868" lon="11.144993">
<ele>533.88</ele>
<time>2022-05-27T10:03:00Z</time>
</trkpt>
<trkpt lat="47.86581" lon="11.144985">
<ele>533.88</ele>
<time>2022-05-27T10:03:01Z</time>
</trkpt>
<trkpt lat="47.865761" lon="11.144977">
<ele>533.88</ele>
<time>2022-05-27T10:03:02Z</time>
</trkpt>
<trkpt lat="47.865711" lon="11.144966">
<ele>533.88</ele>
<time>2022-05-27T10:03:03Z</time>
</trkpt>
<trkpt lat="47.865658" lon="11.144954">
<ele>533.88</ele>
<time>2022-05-27T10:03:04Z</time>
</trkpt>
<trkpt lat="47.865608" lon="11.144938">
<ele>533.88</ele>
<time>2022-05-27T10:03:05Z</time>
</trkpt>
<trkpt lat="47.865555" lon="11.14492">
<ele>533.88</ele>
<time>2022-05-27T10:03:06Z</time>
</trkpt>
<trkpt lat="47.865509" lon="11.144903">
<ele>533.88</ele>
<time>2022-05-27T10:03:07Z</time>
</trkpt>
<trkpt lat="47.865456" lon="11.144884">
<ele>533.88</ele>
<time>2022-05-27T10:03:08Z</time>
</trkpt>
<trkpt lat="47.86541" lon="11.144861">
<ele>533.88</ele>
<time>2022-05-27T10:03:09Z</time>
</trkpt>
<trkpt lat="47.86536" lon="11.144836">
<ele>533.88</ele>
<time>2022-05-27T10:03:10Z</time>
</trkpt>
<trkpt lat="47.865311" lon="11.144811">
<ele>533.88</ele>
<time>2022-05-27T10:03:11Z</time>
</trkpt>
<trkpt lat="47.865261" lon="11.14478">
<ele>533.88</ele>
<time>2022-05-27T10:03:12Z</time>
</trkpt>
<trkpt lat="47.865215" lon="11.14475">
<ele>533.88</ele>
<time>2022-05-27T10:03:13Z</time>
</trkpt>
<trkpt lat="47.86517" lon="11.144718">
<ele>533.88</ele>
<time>2022-05-27T10:03:14Z</time>
</trkpt>
<trkpt lat="47.865124" lon="11.144687">
<ele>533.88</ele>
<time>2022-05-27T10:03:15Z</time>
</trkpt>
<trkpt lat="47.865082" lon="11.144653">
<ele>533.88</ele>
<time>2022-05-27T10:03:16Z</time>
</trkpt>
<trkpt lat="47.865036" lon="11.144618">
<ele>533.88</ele>
<time>2022-05-27T10:03:17Z</time>
</trkpt>
<trkpt lat="47.864994" lon="11.14458">
<ele>533.88</ele>
<time>2022-05-27T10:03:18Z</time>
</trkpt>
<trkpt lat="47.864952" lon="11.144543">
<ele>533.88</ele>
<time>2022-05-27T10:03:19Z</time>
</trkpt>
<trkpt lat="47.864906" lon="11.144506">
<ele>533.88</ele>
<time>2022-05-27T10:03:20Z</time>
</trkpt>
<trkpt lat="47.864864" lon="11.144468">
<ele>533.88</ele>
<time>2022-05-27T10:03:21Z</time>
</trkpt>
<trkpt lat="47.864822" lon="11.144428">
<ele>533.88</ele>
<time>2022-05-27T10:03:22Z</time>
</trkpt>
<trkpt lat="47.864777" lon="11.14439">
<ele>533.88</ele>
<time>2022-05-27T10:03:23Z</time>
</trkpt>
<trkpt lat="47.864735" lon="11.144352">
<ele>533.88</ele>
<time>2022-05-27T10:03:24Z</time>
</trkpt>
<trkpt lat="47.864689" lon="11.144314">
<ele>533.88</ele>
<time>2022-05-27T10:03:25Z</time>
</trkpt>
<trkpt lat="47.864647" lon="11.144272">
<ele>533.88</ele>
<time>2022-05-27T10:03:26Z</time>
</trkpt>
<trkpt lat="47.864605" lon="11.144233">
<ele>533.88</ele>
<time>2022-05-27T10:03:27Z</time>
</trkpt>
<trkpt lat="47.864555" lon="11.144197">
<ele>533.881</ele>
<time>2022-05-27T10:03:28Z</time>
</trkpt>
<trkpt lat="47.864513" lon="11.144161">
<ele>533.88</ele>
<time>2022-05-27T10:03:29Z</time>
</trkpt>
<trkpt lat="47.864471" lon="11.144126">
<ele>533.88</ele>
<time>2022-05-27T10:03:30Z</time>
</trkpt>
<trkpt lat="47.864429" lon="11.144092">
<ele>533.88</ele>
<time>2022-05-27T10:03:31Z</time>
</trkpt>
<trkpt lat="47.864388" lon="11.144054">
<ele>534.155</ele>
<time>2022-05-27T10:03:32Z</time>
</trkpt>
<trkpt lat="47.864346" lon="11.144018">
<ele>534.368</ele>
<time>2022-05-27T10:03:33Z</time>
</trkpt>
<trkpt lat="47.864304" lon="11.14398">
<ele>534.531</ele>
<time>2022-05-27T10:03:34Z</time>
</trkpt>
<trkpt lat="47.864262" lon="11.143942">
<ele>534.652</ele>
<time>2022-05-27T10:03:35Z</time>
</trkpt>
<trkpt lat="47.864212" lon="11.143906">
<ele>534.738</ele>
<time>2022-05-27T10:03:36Z</time>
</trkpt>
<trkpt lat="47.864174" lon="11.143867">
<ele>534.787</ele>
<time>2022-05-27T10:03:37Z</time>
</trkpt>
<trkpt lat="47.864128" lon="11.14383">
<ele>534.816</ele>
<time>2022-05-27T10:03:38Z</time>
</trkpt>
<trkpt lat="47.864082" lon="11.143792">
<ele>534.838</ele>
<time>2022-05-27T10:03:39Z</time>
</trkpt>
<trkpt lat="47.86404" lon="11.143753">
<ele>534.838</ele>
<time>2022-05-27T10:03:40Z</time>
</trkpt>
<trkpt lat="47.863991" lon="11.143719">
<ele>534.838</ele>
<time>2022-05-27T10:03:41Z</time>
</trkpt>
<trkpt lat="47.863949" lon="11.14368">
<ele>534.838</ele>
<time>2022-05-27T10:03:42Z</time>
</trkpt>
<trkpt lat="47.863903" lon="11.143645">
<ele>534.838</ele>
<time>2022-05-27T10:03:43Z</time>
</trkpt>
<trkpt lat="47.863857" lon="11.14361">
<ele>534.838</ele>
<time>2022-05-27T10:03:44Z</time>
</trkpt>
<trkpt lat="47.863815" lon="11.143577">
<ele>534.838</ele>
<time>2022-05-27T10:03:45Z</time>
</trkpt>
<trkpt lat="47.863773" lon="11.143543">
<ele>535.104</ele>
<time>2022-05-27T10:03:46Z</time>
</trkpt>
<trkpt lat="47.863728" lon="11.14351">
<ele>535.31</ele>
<time>2022-05-27T10:03:47Z</time>
</trkpt>
<trkpt lat="47.863689" lon="11.143475">
<ele>535.474</ele>
<time>2022-05-27T10:03:48Z</time>
</trkpt>
<trkpt lat="47.863644" lon="11.14344">
<ele>535.587</ele>
<time>2022-05-27T10:03:49Z</time>
</trkpt>
<trkpt lat="47.863602" lon="11.143405">
<ele>535.708</ele>
<time>2022-05-27T10:03:50Z</time>
</trkpt>
<trkpt lat="47.86356" lon="11.14337">
<ele>535.799</ele>
<time>2022-05-27T10:03:51Z</time>
</trkpt>
<trkpt lat="47.863514" lon="11.143333">
<ele>535.856</ele>
<time>2022-05-27T10:03:52Z</time>
</trkpt>
<trkpt lat="47.863472" lon="11.143295">
<ele>535.883</ele>
<time>2022-05-27T10:03:53Z</time>
</trkpt>
<trkpt lat="47.86343" lon="11.143256">
<ele>535.883</ele>
<time>2022-05-27T10:03:54Z</time>
</trkpt>
<trkpt lat="47.863384" lon="11.14322">
<ele>535.883</ele>
<time>2022-05-27T10:03:55Z</time>
</trkpt>
<trkpt lat="47.863338" lon="11.143185">
<ele>535.883</ele>
<time>2022-05-27T10:03:56Z</time>
</trkpt>
<trkpt lat="47.863297" lon="11.143148">
<ele>535.883</ele>
<time>2022-05-27T10:03:57Z</time>
</trkpt>
<trkpt lat="47.863251" lon="11.14311">
<ele>535.883</ele>
<time>2022-05-27T10:03:58Z</time>
</trkpt>
<trkpt lat="47.863209" lon="11.143074">
<ele>535.883</ele>
<time>2022-05-27T10:03:59Z</time>
</trkpt>
<trkpt lat="47.863167" lon="11.143037">
<ele>535.883</ele>
<time>2022-05-27T10:04:00Z</time>
</trkpt>
<trkpt lat="47.863121" lon="11.143001">
<ele>535.883</ele>
<time>2022-05-27T10:04:01Z</time>
</trkpt>
<trkpt lat="47.863079" lon="11.142965">
<ele>535.883</ele>
<time>2022-05-27T10:04:02Z</time>
</trkpt>
<trkpt lat="47.863037" lon="11.14293">
<ele>535.883</ele>
<time>2022-05-27T10:04:03Z</time>
</trkpt>
<trkpt lat="47.862995" lon="11.142896">
<ele>535.883</ele>
<time>2022-05-27T10:04:04Z</time>
</trkpt>
<trkpt lat="47.862949" lon="11.142862">
<ele>535.883</ele>
<time>2022-05-27T10:04:05Z</time>
</trkpt>
<trkpt lat="47.862907" lon="11.142829">
<ele>535.883</ele>
<time>2022-05-27T10:04:06Z</time>
</trkpt>
<trkpt lat="47.862862" lon="11.142796">
<ele>535.883</ele>
<time>2022-05-27T10:04:07Z</time>
</trkpt>
<trkpt lat="47.862812" lon="11.142763">
<ele>535.648</ele>
<time>2022-05-27T10:04:08Z</time>
</trkpt>
<trkpt lat="47.862766" lon="11.142732">
<ele>535.481</ele>
<time>2022-05-27T10:04:09Z</time>
</trkpt>
<trkpt lat="47.86272" lon="11.142703">
<ele>535.308</ele>
<time>2022-05-27T10:04:10Z</time>
</trkpt>
<trkpt lat="47.862675" lon="11.142675">
<ele>535.173</ele>
<time>2022-05-27T10:04:11Z</time>
</trkpt>
<trkpt lat="47.862625" lon="11.142649">
<ele>535.071</ele>
<time>2022-05-27T10:04:12Z</time>
</trkpt>
<trkpt lat="47.862579" lon="11.142622">
<ele>534.996</ele>
<time>2022-05-27T10:04:13Z</time>
</trkpt>
<trkpt lat="47.862526" lon="11.142594">
<ele>534.948</ele>
<time>2022-05-27T10:04:14Z</time>
</trkpt>
<trkpt lat="47.86248" lon="11.142571">
<ele>534.925</ele>
<time>2022-05-27T10:04:15Z</time>
</trkpt>
<trkpt lat="47.862434" lon="11.142547">
<ele>534.925</ele>
<time>2022-05-27T10:04:16Z</time>
</trkpt>
<trkpt lat="47.862392" lon="11.142525">
<ele>534.925</ele>
<time>2022-05-27T10:04:17Z</time>
</trkpt>
<trkpt lat="47.86235" lon="11.142504">
<ele>534.925</ele>
<time>2022-05-27T10:04:18Z</time>
</trkpt>
<trkpt lat="47.862305" lon="11.142484">
<ele>534.925</ele>
<time>2022-05-27T10:04:19Z</time>
</trkpt>
<trkpt lat="47.862263" lon="11.14246">
<ele>534.925</ele>
<time>2022-05-27T10:04:20Z</time>
</trkpt>
<trkpt lat="47.862225" lon="11.14244">
<ele>534.925</ele>
<time>2022-05-27T10:04:21Z</time>
</trkpt>
<trkpt lat="47.862183" lon="11.142422">
<ele>534.925</ele>
<time>2022-05-27T10:04:22Z</time>
</trkpt>
<trkpt lat="47.862144" lon="11.142402">
<ele>534.925</ele>
<time>2022-05-27T10:04:23Z</time>
</trkpt>
<trkpt lat="47.862099" lon="11.14238">
<ele>534.925</ele>
<time>2022-05-27T10:04:24Z</time>
</trkpt>
<trkpt lat="47.862061" lon="11.142358">
<ele>534.925</ele>
<time>2022-05-27T10:04:25Z</time>
</trkpt>
<trkpt lat="47.862026" lon="11.142335">
<ele>534.925</ele>
<time>2022-05-27T10:04:26Z</time>
</trkpt>
<trkpt lat="47.861992" lon="11.142309">
<ele>534.925</ele>
<time>2022-05-27T10:04:27Z</time>
</trkpt>
<trkpt lat="47.861954" lon="11.142286">
<ele>534.925</ele>
<time>2022-05-27T10:04:28Z</time>
</trkpt>
<trkpt lat="47.861916" lon="11.142263">
<ele>534.925</ele>
<time>2022-05-27T10:04:29Z</time>
</trkpt>
<trkpt lat="47.861874" lon="11.142241">
<ele>534.925</ele>
<time>2022-05-27T10:04:30Z</time>
</trkpt>
<trkpt lat="47.861832" lon="11.142219">
<ele>535.211</ele>
<time>2022-05-27T10:04:31Z</time>
</trkpt>
<trkpt lat="47.861794" lon="11.142197">
<ele>535.429</ele>
<time>2022-05-27T10:04:32Z</time>
</trkpt>
<trkpt lat="47.861748" lon="11.142171">
<ele>535.603</ele>
<time>2022-05-27T10:04:33Z</time>
</trkpt>
<trkpt lat="47.861706" lon="11.142154">
<ele>535.728</ele>
<time>2022-05-27T10:04:34Z</time>
</trkpt>
<trkpt lat="47.861664" lon="11.142138">
<ele>535.813</ele>
<time>2022-05-27T10:04:35Z</time>
</trkpt>
<trkpt lat="47.861622" lon="11.142123">
<ele>535.856</ele>
<time>2022-05-27T10:04:36Z</time>
</trkpt>
<trkpt lat="47.86158" lon="11.142112">
<ele>535.878</ele>
<time>2022-05-27T10:04:37Z</time>
</trkpt>
<trkpt lat="47.861542" lon="11.142103">
<ele>535.883</ele>
<time>2022-05-27T10:04:38Z</time>
</trkpt>
<trkpt lat="47.8615" lon="11.142094">
<ele>535.883</ele>
<time>2022-05-27T10:04:39Z</time>
</trkpt>
<trkpt lat="47.861458" lon="11.142083">
<ele>535.883</ele>
<time>2022-05-27T10:04:40Z</time>
</trkpt>
<trkpt lat="47.861416" lon="11.142072">
<ele>535.883</ele>
<time>2022-05-27T10:04:41Z</time>
</trkpt>
<trkpt lat="47.861378" lon="11.142062">
<ele>535.883</ele>
<time>2022-05-27T10:04:42Z</time>
</trkpt>
<trkpt lat="47.861336" lon="11.142052">
<ele>535.883</ele>
<time>2022-05-27T10:04:43Z</time>
</trkpt>
<trkpt lat="47.861294" lon="11.142045">
<ele>535.883</ele>
<time>2022-05-27T10:04:44Z</time>
</trkpt>
<trkpt lat="47.861256" lon="11.14204">
<ele>535.883</ele>
<time>2022-05-27T10:04:45Z</time>
</trkpt>
<trkpt lat="47.861214" lon="11.142035">
<ele>535.883</ele>
<time>2022-05-27T10:04:46Z</time>
</trkpt>
<trkpt lat="47.861176" lon="11.142033">
<ele>535.883</ele>
<time>2022-05-27T10:04:47Z</time>
</trkpt>
<trkpt lat="47.861134" lon="11.142029">
<ele>535.883</ele>
<time>2022-05-27T10:04:48Z</time>
</trkpt>
<trkpt lat="47.861092" lon="11.142025">
<ele>535.883</ele>
<time>2022-05-27T10:04:49Z</time>
</trkpt>
<trkpt lat="47.861053" lon="11.142022">
<ele>535.883</ele>
<time>2022-05-27T10:04:50Z</time>
</trkpt>
<trkpt lat="47.861019" lon="11.142018">
<ele>535.883</ele>
<time>2022-05-27T10:04:51Z</time>
</trkpt>
<trkpt lat="47.860985" lon="11.142018">
<ele>535.883</ele>
<time>2022-05-27T10:04:52Z</time>
</trkpt>
<trkpt lat="47.86095" lon="11.14202">
<ele>535.883</ele>
<time>2022-05-27T10:04:53Z</time>
</trkpt>
<trkpt lat="47.86092" lon="11.142022">
<ele>535.883</ele>
<time>2022-05-27T10:04:54Z</time>
</trkpt>
<trkpt lat="47.860886" lon="11.142023">
<ele>535.883</ele>
<time>2022-05-27T10:04:55Z</time>
</trkpt>
<trkpt lat="47.860855" lon="11.142027">
<ele>535.883</ele>
<time>2022-05-27T10:04:56Z</time>
</trkpt>
<trkpt lat="47.860828" lon="11.142033">
<ele>535.883</ele>
<time>2022-05-27T10:04:57Z</time>
</trkpt>
<trkpt lat="47.860806" lon="11.14204">
<ele>535.883</ele>
<time>2022-05-27T10:04:58Z</time>
</trkpt>
<trkpt lat="47.860786" lon="11.142048">
<ele>535.883</ele>
<time>2022-05-27T10:04:59Z</time>
</trkpt>
<trkpt lat="47.860764" lon="11.14205">
<ele>535.883</ele>
<time>2022-05-27T10:05:00Z</time>
</trkpt>
<trkpt lat="47.860741" lon="11.142054">
<ele>535.883</ele>
<time>2022-05-27T10:05:01Z</time>
</trkpt>
<trkpt lat="47.860718" lon="11.142056">
<ele>535.883</ele>
<time>2022-05-27T10:05:02Z</time>
</trkpt>
<trkpt lat="47.860687" lon="11.14205">
<ele>535.883</ele>
<time>2022-05-27T10:05:03Z</time>
</trkpt>
<trkpt lat="47.860657" lon="11.142047">
<ele>535.883</ele>
<time>2022-05-27T10:05:04Z</time>
</trkpt>
<trkpt lat="47.860622" lon="11.142045">
<ele>535.883</ele>
<time>2022-05-27T10:05:05Z</time>
</trkpt>
<trkpt lat="47.860592" lon="11.142041">
<ele>535.883</ele>
<time>2022-05-27T10:05:06Z</time>
</trkpt>
<trkpt lat="47.860561" lon="11.142038">
<ele>535.883</ele>
<time>2022-05-27T10:05:07Z</time>
</trkpt>
<trkpt lat="47.860527" lon="11.142032">
<ele>535.883</ele>
<time>2022-05-27T10:05:08Z</time>
</trkpt>
<trkpt lat="47.860497" lon="11.142027">
<ele>535.883</ele>
<time>2022-05-27T10:05:09Z</time>
</trkpt>
<trkpt lat="47.860462" lon="11.142023">
<ele>535.883</ele>
<time>2022-05-27T10:05:10Z</time>
</trkpt>
<trkpt lat="47.860424" lon="11.142023">
<ele>535.883</ele>
<time>2022-05-27T10:05:11Z</time>
</trkpt>
<trkpt lat="47.860382" lon="11.142025">
<ele>535.883</ele>
<time>2022-05-27T10:05:12Z</time>
</trkpt>
<trkpt lat="47.86034" lon="11.142029">
<ele>535.883</ele>
<time>2022-05-27T10:05:13Z</time>
</trkpt>
<trkpt lat="47.860298" lon="11.142031">
<ele>535.883</ele>
<time>2022-05-27T10:05:14Z</time>
</trkpt>
<trkpt lat="47.86026" lon="11.142032">
<ele>535.883</ele>
<time>2022-05-27T10:05:15Z</time>
</trkpt>
<trkpt lat="47.860218" lon="11.142036">
<ele>535.883</ele>
<time>2022-05-27T10:05:16Z</time>
</trkpt>
<trkpt lat="47.860168" lon="11.142038">
<ele>535.883</ele>
<time>2022-05-27T10:05:17Z</time>
</trkpt>
<trkpt lat="47.860126" lon="11.14204">
<ele>535.883</ele>
<time>2022-05-27T10:05:18Z</time>
</trkpt>
<trkpt lat="47.860081" lon="11.142043">
<ele>535.883</ele>
<time>2022-05-27T10:05:19Z</time>
</trkpt>
<trkpt lat="47.860031" lon="11.14205">
<ele>535.883</ele>
<time>2022-05-27T10:05:20Z</time>
</trkpt>
<trkpt lat="47.859978" lon="11.142065">
<ele>535.883</ele>
<time>2022-05-27T10:05:21Z</time>
</trkpt>
<trkpt lat="47.859924" lon="11.142078">
<ele>535.883</ele>
<time>2022-05-27T10:05:22Z</time>
</trkpt>
<trkpt lat="47.859871" lon="11.142094">
<ele>535.883</ele>
<time>2022-05-27T10:05:23Z</time>
</trkpt>
<trkpt lat="47.859814" lon="11.142106">
<ele>535.883</ele>
<time>2022-05-27T10:05:24Z</time>
</trkpt>
<trkpt lat="47.859764" lon="11.142123">
<ele>535.883</ele>
<time>2022-05-27T10:05:25Z</time>
</trkpt>
<trkpt lat="47.859711" lon="11.142141">
<ele>535.883</ele>
<time>2022-05-27T10:05:26Z</time>
</trkpt>
<trkpt lat="47.859657" lon="11.142162">
<ele>535.883</ele>
<time>2022-05-27T10:05:27Z</time>
</trkpt>
<trkpt lat="47.859604" lon="11.142183">
<ele>535.883</ele>
<time>2022-05-27T10:05:28Z</time>
</trkpt>
<trkpt lat="47.85955" lon="11.142205">
<ele>535.883</ele>
<time>2022-05-27T10:05:29Z</time>
</trkpt>
<trkpt lat="47.859501" lon="11.142223">
<ele>535.883</ele>
<time>2022-05-27T10:05:30Z</time>
</trkpt>
<trkpt lat="47.859451" lon="11.142239">
<ele>535.883</ele>
<time>2022-05-27T10:05:31Z</time>
</trkpt>
<trkpt lat="47.859394" lon="11.14225">
<ele>535.883</ele>
<time>2022-05-27T10:05:32Z</time>
</trkpt>
<trkpt lat="47.859348" lon="11.142259">
<ele>535.883</ele>
<time>2022-05-27T10:05:33Z</time>
</trkpt>
<trkpt lat="47.859299" lon="11.142267">
<ele>535.883</ele>
<time>2022-05-27T10:05:34Z</time>
</trkpt>
<trkpt lat="47.859253" lon="11.142276">
<ele>535.883</ele>
<time>2022-05-27T10:05:35Z</time>
</trkpt>
<trkpt lat="47.859203" lon="11.142295">
<ele>535.883</ele>
<time>2022-05-27T10:05:36Z</time>
</trkpt>
<trkpt lat="47.859154" lon="11.142315">
<ele>535.883</ele>
<time>2022-05-27T10:05:37Z</time>
</trkpt>
<trkpt lat="47.8591" lon="11.142333">
<ele>535.883</ele>
<time>2022-05-27T10:05:38Z</time>
</trkpt>
<trkpt lat="47.859047" lon="11.142357">
<ele>535.883</ele>
<time>2022-05-27T10:05:39Z</time>
</trkpt>
<trkpt lat="47.858997" lon="11.142383">
<ele>535.883</ele>
<time>2022-05-27T10:05:40Z</time>
</trkpt>
<trkpt lat="47.858944" lon="11.142414">
<ele>535.883</ele>
<time>2022-05-27T10:05:41Z</time>
</trkpt>
<trkpt lat="47.858894" lon="11.142446">
<ele>535.883</ele>
<time>2022-05-27T10:05:42Z</time>
</trkpt>
<trkpt lat="47.858841" lon="11.142479">
<ele>535.883</ele>
<time>2022-05-27T10:05:43Z</time>
</trkpt>
<trkpt lat="47.858795" lon="11.142512">
<ele>535.883</ele>
<time>2022-05-27T10:05:44Z</time>
</trkpt>
<trkpt lat="47.858749" lon="11.142544">
<ele>536.136</ele>
<time>2022-05-27T10:05:45Z</time>
</trkpt>
<trkpt lat="47.858704" lon="11.142571">
<ele>536.332</ele>
<time>2022-05-27T10:05:46Z</time>
</trkpt>
<trkpt lat="47.858662" lon="11.142598">
<ele>536.481</ele>
<time>2022-05-27T10:05:47Z</time>
</trkpt>
<trkpt lat="47.858624" lon="11.142622">
<ele>536.593</ele>
<time>2022-05-27T10:05:48Z</time>
</trkpt>
<trkpt lat="47.858582" lon="11.142643">
<ele>536.675</ele>
<time>2022-05-27T10:05:49Z</time>
</trkpt>
<trkpt lat="47.85854" lon="11.142667">
<ele>536.758</ele>
<time>2022-05-27T10:05:50Z</time>
</trkpt>
<trkpt lat="47.858505" lon="11.142689">
<ele>536.813</ele>
<time>2022-05-27T10:05:51Z</time>
</trkpt>
<trkpt lat="47.858467" lon="11.142712">
<ele>536.841</ele>
<time>2022-05-27T10:05:52Z</time>
</trkpt>
<trkpt lat="47.858429" lon="11.142736">
<ele>536.841</ele>
<time>2022-05-27T10:05:53Z</time>
</trkpt>
<trkpt lat="47.858391" lon="11.142762">
<ele>536.841</ele>
<time>2022-05-27T10:05:54Z</time>
</trkpt>
<trkpt lat="47.858349" lon="11.142781">
<ele>536.841</ele>
<time>2022-05-27T10:05:55Z</time>
</trkpt>
<trkpt lat="47.858307" lon="11.14281">
<ele>536.841</ele>
<time>2022-05-27T10:05:56Z</time>
</trkpt>
<trkpt lat="47.858261" lon="11.142848">
<ele>536.841</ele>
<time>2022-05-27T10:05:57Z</time>
</trkpt>
<trkpt lat="47.858215" lon="11.142883">
<ele>536.841</ele>
<time>2022-05-27T10:05:58Z</time>
</trkpt>
<trkpt lat="47.85817" lon="11.14292">
<ele>536.841</ele>
<time>2022-05-27T10:05:59Z</time>
</trkpt>
<trkpt lat="47.858116" lon="11.142952">
<ele>536.841</ele>
<time>2022-05-27T10:06:00Z</time>
</trkpt>
<trkpt lat="47.858067" lon="11.142983">
<ele>536.841</ele>
<time>2022-05-27T10:06:01Z</time>
</trkpt>
<trkpt lat="47.858017" lon="11.143006">
<ele>536.841</ele>
<time>2022-05-27T10:06:02Z</time>
</trkpt>
<trkpt lat="47.857971" lon="11.143028">
<ele>536.841</ele>
<time>2022-05-27T10:06:03Z</time>
</trkpt>
<trkpt lat="47.857925" lon="11.143053">
<ele>536.841</ele>
<time>2022-05-27T10:06:04Z</time>
</trkpt>
<trkpt lat="47.857883" lon="11.14308">
<ele>536.841</ele>
<time>2022-05-27T10:06:05Z</time>
</trkpt>
<trkpt lat="47.857841" lon="11.143111">
<ele>536.841</ele>
<time>2022-05-27T10:06:06Z</time>
</trkpt>
<trkpt lat="47.857788" lon="11.143144">
<ele>536.841</ele>
<time>2022-05-27T10:06:07Z</time>
</trkpt>
<trkpt lat="47.857742" lon="11.14317">
<ele>536.841</ele>
<time>2022-05-27T10:06:08Z</time>
</trkpt>
<trkpt lat="47.857689" lon="11.143195">
<ele>536.841</ele>
<time>2022-05-27T10:06:09Z</time>
</trkpt>
<trkpt lat="47.857639" lon="11.143216">
<ele>536.841</ele>
<time>2022-05-27T10:06:10Z</time>
</trkpt>
<trkpt lat="47.85759" lon="11.143235">
<ele>536.841</ele>
<time>2022-05-27T10:06:11Z</time>
</trkpt>
<trkpt lat="47.857536" lon="11.143256">
<ele>536.841</ele>
<time>2022-05-27T10:06:12Z</time>
</trkpt>
<trkpt lat="47.857483" lon="11.14328">
<ele>536.841</ele>
<time>2022-05-27T10:06:13Z</time>
</trkpt>
<trkpt lat="47.85743" lon="11.143302">
<ele>536.841</ele>
<time>2022-05-27T10:06:14Z</time>
</trkpt>
<trkpt lat="47.857376" lon="11.143319">
<ele>536.841</ele>
<time>2022-05-27T10:06:15Z</time>
</trkpt>
<trkpt lat="47.857327" lon="11.143342">
<ele>536.841</ele>
<time>2022-05-27T10:06:16Z</time>
</trkpt>
<trkpt lat="47.857269" lon="11.143363">
<ele>536.841</ele>
<time>2022-05-27T10:06:17Z</time>
</trkpt>
<trkpt lat="47.857216" lon="11.143385">
<ele>536.841</ele>
<time>2022-05-27T10:06:18Z</time>
</trkpt>
<trkpt lat="47.857166" lon="11.143403">
<ele>536.841</ele>
<time>2022-05-27T10:06:19Z</time>
</trkpt>
<trkpt lat="47.857117" lon="11.143417">
<ele>536.841</ele>
<time>2022-05-27T10:06:20Z</time>
</trkpt>
<trkpt lat="47.857071" lon="11.143428">
<ele>536.841</ele>
<time>2022-05-27T10:06:21Z</time>
</trkpt>
<trkpt lat="47.857025" lon="11.143438">
<ele>536.841</ele>
<time>2022-05-27T10:06:22Z</time>
</trkpt>
<trkpt lat="47.856976" lon="11.143452">
<ele>536.841</ele>
<time>2022-05-27T10:06:23Z</time>
</trkpt>
<trkpt lat="47.856922" lon="11.143474">
<ele>536.841</ele>
<time>2022-05-27T10:06:24Z</time>
</trkpt>
<trkpt lat="47.856876" lon="11.143491">
<ele>536.841</ele>
<time>2022-05-27T10:06:25Z</time>
</trkpt>
<trkpt lat="47.856823" lon="11.143514">
<ele>536.841</ele>
<time>2022-05-27T10:06:26Z</time>
</trkpt>
<trkpt lat="47.856781" lon="11.143537">
<ele>536.841</ele>
<time>2022-05-27T10:06:27Z</time>
</trkpt>
<trkpt lat="47.856731" lon="11.143559">
<ele>536.841</ele>
<time>2022-05-27T10:06:28Z</time>
</trkpt>
<trkpt lat="47.856678" lon="11.143579">
<ele>536.841</ele>
<time>2022-05-27T10:06:29Z</time>
</trkpt>
<trkpt lat="47.856621" lon="11.14359">
<ele>536.841</ele>
<time>2022-05-27T10:06:30Z</time>
</trkpt>
<trkpt lat="47.856567" lon="11.143604">
<ele>536.841</ele>
<time>2022-05-27T10:06:31Z</time>
</trkpt>
<trkpt lat="47.856514" lon="11.14362">
<ele>536.841</ele>
<time>2022-05-27T10:06:32Z</time>
</trkpt>
<trkpt lat="47.856457" lon="11.143633">
<ele>536.841</ele>
<time>2022-05-27T10:06:33Z</time>
</trkpt>
<trkpt lat="47.8564" lon="11.143638">
<ele>536.841</ele>
<time>2022-05-27T10:06:34Z</time>
</trkpt>
<trkpt lat="47.85635" lon="11.14364">
<ele>536.841</ele>
<time>2022-05-27T10:06:35Z</time>
</trkpt>
<trkpt lat="47.856297" lon="11.143641">
<ele>536.841</ele>
<time>2022-05-27T10:06:36Z</time>
</trkpt>
<trkpt lat="47.856243" lon="11.143643">
<ele>537.077</ele>
<time>2022-05-27T10:06:37Z</time>
</trkpt>
<trkpt lat="47.85619" lon="11.143645">
<ele>537.266</ele>
<time>2022-05-27T10:06:38Z</time>
</trkpt>
<trkpt lat="47.856129" lon="11.14365">
<ele>537.395</ele>
<time>2022-05-27T10:06:39Z</time>
</trkpt>
<trkpt lat="47.856075" lon="11.143648">
<ele>537.537</ele>
<time>2022-05-27T10:06:40Z</time>
</trkpt>
<trkpt lat="47.856026" lon="11.143648">
<ele>537.644</ele>
<time>2022-05-27T10:06:41Z</time>
</trkpt>
<trkpt lat="47.855972" lon="11.143643">
<ele>537.724</ele>
<time>2022-05-27T10:06:42Z</time>
</trkpt>
<trkpt lat="47.855927" lon="11.143637">
<ele>537.775</ele>
<time>2022-05-27T10:06:43Z</time>
</trkpt>
<trkpt lat="47.855881" lon="11.143632">
<ele>537.799</ele>
<time>2022-05-27T10:06:44Z</time>
</trkpt>
<trkpt lat="47.855835" lon="11.143627">
<ele>537.799</ele>
<time>2022-05-27T10:06:45Z</time>
</trkpt>
<trkpt lat="47.855797" lon="11.143623">
<ele>537.799</ele>
<time>2022-05-27T10:06:46Z</time>
</trkpt>
<trkpt lat="47.855755" lon="11.143619">
<ele>537.799</ele>
<time>2022-05-27T10:06:47Z</time>
</trkpt>
<trkpt lat="47.855713" lon="11.143615">
<ele>537.799</ele>
<time>2022-05-27T10:06:48Z</time>
</trkpt>
<trkpt lat="47.855679" lon="11.143613">
<ele>537.799</ele>
<time>2022-05-27T10:06:49Z</time>
</trkpt>
<trkpt lat="47.855637" lon="11.143612">
<ele>537.799</ele>
<time>2022-05-27T10:06:50Z</time>
</trkpt>
<trkpt lat="47.855606" lon="11.143612">
<ele>537.799</ele>
<time>2022-05-27T10:06:51Z</time>
</trkpt>
<trkpt lat="47.855568" lon="11.143608">
<ele>537.799</ele>
<time>2022-05-27T10:06:52Z</time>
</trkpt>
<trkpt lat="47.85553" lon="11.14361">
<ele>537.799</ele>
<time>2022-05-27T10:06:53Z</time>
</trkpt>
<trkpt lat="47.855495" lon="11.14361">
<ele>537.799</ele>
<time>2022-05-27T10:06:54Z</time>
</trkpt>
<trkpt lat="47.855457" lon="11.143608">
<ele>537.799</ele>
<time>2022-05-27T10:06:55Z</time>
</trkpt>
<trkpt lat="47.855427" lon="11.143604">
<ele>537.799</ele>
<time>2022-05-27T10:06:56Z</time>
</trkpt>
<trkpt lat="47.855396" lon="11.143601">
<ele>537.799</ele>
<time>2022-05-27T10:06:57Z</time>
</trkpt>
<trkpt lat="47.855366" lon="11.1436">
<ele>537.799</ele>
<time>2022-05-27T10:06:58Z</time>
</trkpt>
<trkpt lat="47.855331" lon="11.143597">
<ele>537.799</ele>
<time>2022-05-27T10:06:59Z</time>
</trkpt>
<trkpt lat="47.855293" lon="11.143592">
<ele>537.799</ele>
<time>2022-05-27T10:07:00Z</time>
</trkpt>
<trkpt lat="47.855259" lon="11.143585">
<ele>537.799</ele>
<time>2022-05-27T10:07:01Z</time>
</trkpt>
<trkpt lat="47.855221" lon="11.143581">
<ele>537.799</ele>
<time>2022-05-27T10:07:02Z</time>
</trkpt>
<trkpt lat="47.855183" lon="11.143575">
<ele>537.799</ele>
<time>2022-05-27T10:07:03Z</time>
</trkpt>
<trkpt lat="47.855148" lon="11.143564">
<ele>537.799</ele>
<time>2022-05-27T10:07:04Z</time>
</trkpt>
<trkpt lat="47.855106" lon="11.143556">
<ele>537.799</ele>
<time>2022-05-27T10:07:05Z</time>
</trkpt>
<trkpt lat="47.855068" lon="11.143541">
<ele>537.799</ele>
<time>2022-05-27T10:07:06Z</time>
</trkpt>
<trkpt lat="47.855022" lon="11.143527">
<ele>537.799</ele>
<time>2022-05-27T10:07:07Z</time>
</trkpt>
<trkpt lat="47.854984" lon="11.14351">
<ele>537.799</ele>
<time>2022-05-27T10:07:08Z</time>
</trkpt>
<trkpt lat="47.854939" lon="11.143492">
<ele>537.799</ele>
<time>2022-05-27T10:07:09Z</time>
</trkpt>
<trkpt lat="47.854893" lon="11.143475">
<ele>537.799</ele>
<time>2022-05-27T10:07:10Z</time>
</trkpt>
<trkpt lat="47.854855" lon="11.143458">
<ele>537.799</ele>
<time>2022-05-27T10:07:11Z</time>
</trkpt>
<trkpt lat="47.854805" lon="11.143443">
<ele>537.799</ele>
<time>2022-05-27T10:07:12Z</time>
</trkpt>
<trkpt lat="47.854759" lon="11.143425">
<ele>537.799</ele>
<time>2022-05-27T10:07:13Z</time>
</trkpt>
<trkpt lat="47.854721" lon="11.143405">
<ele>537.799</ele>
<time>2022-05-27T10:07:14Z</time>
</trkpt>
<trkpt lat="47.854679" lon="11.143384">
<ele>537.799</ele>
<time>2022-05-27T10:07:15Z</time>
</trkpt>
<trkpt lat="47.854637" lon="11.143361">
<ele>538.042</ele>
<time>2022-05-27T10:07:16Z</time>
</trkpt>
<trkpt lat="47.854595" lon="11.143333">
<ele>538.235</ele>
<time>2022-05-27T10:07:17Z</time>
</trkpt>
<trkpt lat="47.854557" lon="11.143303">
<ele>538.384</ele>
<time>2022-05-27T10:07:18Z</time>
</trkpt>
<trkpt lat="47.854519" lon="11.14327">
<ele>538.487</ele>
<time>2022-05-27T10:07:19Z</time>
</trkpt>
<trkpt lat="47.854473" lon="11.143233">
<ele>538.598</ele>
<time>2022-05-27T10:07:20Z</time>
</trkpt>
<trkpt lat="47.854431" lon="11.143195">
<ele>538.68</ele>
<time>2022-05-27T10:07:21Z</time>
</trkpt>
<trkpt lat="47.854389" lon="11.143153">
<ele>538.733</ele>
<time>2022-05-27T10:07:22Z</time>
</trkpt>
<trkpt lat="47.854347" lon="11.143108">
<ele>538.757</ele>
<time>2022-05-27T10:07:23Z</time>
</trkpt>
<trkpt lat="47.854305" lon="11.14306">
<ele>538.757</ele>
<time>2022-05-27T10:07:24Z</time>
</trkpt>
<trkpt lat="47.854267" lon="11.143013">
<ele>538.757</ele>
<time>2022-05-27T10:07:25Z</time>
</trkpt>
<trkpt lat="47.854229" lon="11.142967">
<ele>538.757</ele>
<time>2022-05-27T10:07:26Z</time>
</trkpt>
<trkpt lat="47.854187" lon="11.142921">
<ele>538.757</ele>
<time>2022-05-27T10:07:27Z</time>
</trkpt>
<trkpt lat="47.854149" lon="11.142873">
<ele>538.757</ele>
<time>2022-05-27T10:07:28Z</time>
</trkpt>
<trkpt lat="47.854111" lon="11.142825">
<ele>538.564</ele>
<time>2022-05-27T10:07:29Z</time>
</trkpt>
<trkpt lat="47.854073" lon="11.142776">
<ele>538.383</ele>
<time>2022-05-27T10:07:30Z</time>
</trkpt>
<trkpt lat="47.854034" lon="11.142733">
<ele>538.232</ele>
<time>2022-05-27T10:07:31Z</time>
</trkpt>
<trkpt lat="47.853996" lon="11.142689">
<ele>538.111</ele>
<time>2022-05-27T10:07:32Z</time>
</trkpt>
<trkpt lat="47.853958" lon="11.142643">
<ele>538.018</ele>
<time>2022-05-27T10:07:33Z</time>
</trkpt>
<trkpt lat="47.853916" lon="11.1426">
<ele>537.95</ele>
<time>2022-05-27T10:07:34Z</time>
</trkpt>
<trkpt lat="47.853882" lon="11.142558">
<ele>537.906</ele>
<time>2022-05-27T10:07:35Z</time>
</trkpt>
<trkpt lat="47.853848" lon="11.142512">
<ele>537.886</ele>
<time>2022-05-27T10:07:36Z</time>
</trkpt>
<trkpt lat="47.853813" lon="11.142467">
<ele>537.886</ele>
<time>2022-05-27T10:07:37Z</time>
</trkpt>
<trkpt lat="47.853779" lon="11.142422">
<ele>537.886</ele>
<time>2022-05-27T10:07:38Z</time>
</trkpt>
<trkpt lat="47.853741" lon="11.142379">
<ele>537.886</ele>
<time>2022-05-27T10:07:39Z</time>
</trkpt>
<trkpt lat="47.853703" lon="11.142335">
<ele>538.096</ele>
<time>2022-05-27T10:07:40Z</time>
</trkpt>
<trkpt lat="47.853668" lon="11.142293">
<ele>538.273</ele>
<time>2022-05-27T10:07:41Z</time>
</trkpt>
<trkpt lat="47.853634" lon="11.142248">
<ele>538.421</ele>
<time>2022-05-27T10:07:42Z</time>
</trkpt>
<trkpt lat="47.8536" lon="11.142202">
<ele>538.54</ele>
<time>2022-05-27T10:07:43Z</time>
</trkpt>
<trkpt lat="47.853565" lon="11.142155">
<ele>538.63</ele>
<time>2022-05-27T10:07:44Z</time>
</trkpt>
<trkpt lat="47.853535" lon="11.14211">
<ele>538.694</ele>
<time>2022-05-27T10:07:45Z</time>
</trkpt>
<trkpt lat="47.8535" lon="11.142064">
<ele>538.737</ele>
<time>2022-05-27T10:07:46Z</time>
</trkpt>
<trkpt lat="47.85347" lon="11.142015">
<ele>538.757</ele>
<time>2022-05-27T10:07:47Z</time>
</trkpt>
<trkpt lat="47.853436" lon="11.141968">
<ele>538.757</ele>
<time>2022-05-27T10:07:48Z</time>
</trkpt>
<trkpt lat="47.853405" lon="11.141918">
<ele>538.757</ele>
<time>2022-05-27T10:07:49Z</time>
</trkpt>
<trkpt lat="47.853367" lon="11.141865">
<ele>538.757</ele>
<time>2022-05-27T10:07:50Z</time>
</trkpt>
<trkpt lat="47.853333" lon="11.141811">
<ele>538.757</ele>
<time>2022-05-27T10:07:51Z</time>
</trkpt>
<trkpt lat="47.853294" lon="11.141758">
<ele>538.757</ele>
<time>2022-05-27T10:07:52Z</time>
</trkpt>
<trkpt lat="47.85326" lon="11.141704">
<ele>538.757</ele>
<time>2022-05-27T10:07:53Z</time>
</trkpt>
<trkpt lat="47.853226" lon="11.141653">
<ele>538.757</ele>
<time>2022-05-27T10:07:54Z</time>
</trkpt>
<trkpt lat="47.853195" lon="11.1416">
<ele>538.757</ele>
<time>2022-05-27T10:07:55Z</time>
</trkpt>
<trkpt lat="47.853161" lon="11.141551">
<ele>538.757</ele>
<time>2022-05-27T10:07:56Z</time>
</trkpt>
<trkpt lat="47.853127" lon="11.141502">
<ele>538.757</ele>
<time>2022-05-27T10:07:57Z</time>
</trkpt>
<trkpt lat="47.853088" lon="11.141453">
<ele>538.757</ele>
<time>2022-05-27T10:07:58Z</time>
</trkpt>
<trkpt lat="47.853054" lon="11.141412">
<ele>538.757</ele>
<time>2022-05-27T10:07:59Z</time>
</trkpt>
<trkpt lat="47.85302" lon="11.141369">
<ele>538.757</ele>
<time>2022-05-27T10:08:00Z</time>
</trkpt>
<trkpt lat="47.852989" lon="11.141325">
<ele>538.757</ele>
<time>2022-05-27T10:08:01Z</time>
</trkpt>
<trkpt lat="47.852962" lon="11.141278">
<ele>538.757</ele>
<time>2022-05-27T10:08:02Z</time>
</trkpt>
<trkpt lat="47.852932" lon="11.141232">
<ele>538.757</ele>
<time>2022-05-27T10:08:03Z</time>
</trkpt>
<trkpt lat="47.852909" lon="11.141189">
<ele>538.757</ele>
<time>2022-05-27T10:08:04Z</time>
</trkpt>
<trkpt lat="47.852882" lon="11.141143">
<ele>538.757</ele>
<time>2022-05-27T10:08:05Z</time>
</trkpt>
<trkpt lat="47.852863" lon="11.141093">
<ele>538.541</ele>
<time>2022-05-27T10:08:06Z</time>
</trkpt>
<trkpt lat="47.852844" lon="11.14104">
<ele>538.367</ele>
<time>2022-05-27T10:08:07Z</time>
</trkpt>
<trkpt lat="47.852833" lon="11.140987">
<ele>538.229</ele>
<time>2022-05-27T10:08:08Z</time>
</trkpt>
<trkpt lat="47.852821" lon="11.140928">
<ele>538.133</ele>
<time>2022-05-27T10:08:09Z</time>
</trkpt>
<trkpt lat="47.852806" lon="11.140862">
<ele>538.03</ele>
<time>2022-05-27T10:08:10Z</time>
</trkpt>
<trkpt lat="47.852791" lon="11.140797">
<ele>537.955</ele>
<time>2022-05-27T10:08:11Z</time>
</trkpt>
<trkpt lat="47.852779" lon="11.140732">
<ele>537.908</ele>
<time>2022-05-27T10:08:12Z</time>
</trkpt>
<trkpt lat="47.852768" lon="11.140672">
<ele>537.886</ele>
<time>2022-05-27T10:08:13Z</time>
</trkpt>
<trkpt lat="47.852749" lon="11.14061">
<ele>537.886</ele>
<time>2022-05-27T10:08:14Z</time>
</trkpt>
<trkpt lat="47.852734" lon="11.140543">
<ele>537.886</ele>
<time>2022-05-27T10:08:15Z</time>
</trkpt>
<trkpt lat="47.852715" lon="11.140476">
<ele>537.886</ele>
<time>2022-05-27T10:08:16Z</time>
</trkpt>
<trkpt lat="47.852703" lon="11.140411">
<ele>537.886</ele>
<time>2022-05-27T10:08:17Z</time>
</trkpt>
<trkpt lat="47.852684" lon="11.140342">
<ele>537.886</ele>
<time>2022-05-27T10:08:18Z</time>
</trkpt>
<trkpt lat="47.852669" lon="11.140273">
<ele>537.886</ele>
<time>2022-05-27T10:08:19Z</time>
</trkpt>
<trkpt lat="47.852646" lon="11.140205">
<ele>538.147</ele>
<time>2022-05-27T10:08:20Z</time>
</trkpt>
<trkpt lat="47.852634" lon="11.140141">
<ele>538.363</ele>
<time>2022-05-27T10:08:21Z</time>
</trkpt>
<trkpt lat="47.852615" lon="11.140077">
<ele>538.535</ele>
<time>2022-05-27T10:08:22Z</time>
</trkpt>
<trkpt lat="47.852596" lon="11.140015">
<ele>538.671</ele>
<time>2022-05-27T10:08:23Z</time>
</trkpt>
<trkpt lat="47.852577" lon="11.139954">
<ele>538.732</ele>
<time>2022-05-27T10:08:24Z</time>
</trkpt>
<trkpt lat="47.852554" lon="11.139887">
<ele>538.561</ele>
<time>2022-05-27T10:08:25Z</time>
</trkpt>
<trkpt lat="47.852531" lon="11.13982">
<ele>538.408</ele>
<time>2022-05-27T10:08:26Z</time>
</trkpt>
<trkpt lat="47.852509" lon="11.139753">
<ele>538.272</ele>
<time>2022-05-27T10:08:27Z</time>
</trkpt>
<trkpt lat="47.852486" lon="11.139687">
<ele>538.146</ele>
<time>2022-05-27T10:08:28Z</time>
</trkpt>
<trkpt lat="47.852459" lon="11.139626">
<ele>538.056</ele>
<time>2022-05-27T10:08:29Z</time>
</trkpt>
<trkpt lat="47.852432" lon="11.139563">
<ele>538.183</ele>
<time>2022-05-27T10:08:30Z</time>
</trkpt>
<trkpt lat="47.852409" lon="11.139505">
<ele>538.306</ele>
<time>2022-05-27T10:08:31Z</time>
</trkpt>
<trkpt lat="47.852379" lon="11.139447">
<ele>538.423</ele>
<time>2022-05-27T10:08:32Z</time>
</trkpt>
<trkpt lat="47.85236" lon="11.139391">
<ele>538.492</ele>
<time>2022-05-27T10:08:33Z</time>
</trkpt>
<trkpt lat="47.852341" lon="11.139334">
<ele>538.604</ele>
<time>2022-05-27T10:08:34Z</time>
</trkpt>
<trkpt lat="47.852314" lon="11.139277">
<ele>538.681</ele>
<time>2022-05-27T10:08:35Z</time>
</trkpt>
<trkpt lat="47.852295" lon="11.139221">
<ele>538.73</ele>
<time>2022-05-27T10:08:36Z</time>
</trkpt>
<trkpt lat="47.852272" lon="11.139167">
<ele>538.753</ele>
<time>2022-05-27T10:08:37Z</time>
</trkpt>
<trkpt lat="47.852249" lon="11.139114">
<ele>538.757</ele>
<time>2022-05-27T10:08:38Z</time>
</trkpt>
<trkpt lat="47.852234" lon="11.139062">
<ele>538.757</ele>
<time>2022-05-27T10:08:39Z</time>
</trkpt>
<trkpt lat="47.852215" lon="11.139011">
<ele>538.757</ele>
<time>2022-05-27T10:08:40Z</time>
</trkpt>
<trkpt lat="47.852184" lon="11.138959">
<ele>538.757</ele>
<time>2022-05-27T10:08:41Z</time>
</trkpt>
<trkpt lat="47.85215" lon="11.138905">
<ele>538.757</ele>
<time>2022-05-27T10:08:42Z</time>
</trkpt>
<trkpt lat="47.852116" lon="11.138859">
<ele>538.757</ele>
<time>2022-05-27T10:08:43Z</time>
</trkpt>
<trkpt lat="47.852081" lon="11.13881">
<ele>538.757</ele>
<time>2022-05-27T10:08:44Z</time>
</trkpt>
<trkpt lat="47.852043" lon="11.13876">
<ele>538.757</ele>
<time>2022-05-27T10:08:45Z</time>
</trkpt>
<trkpt lat="47.852001" lon="11.138705">
<ele>538.757</ele>
<time>2022-05-27T10:08:46Z</time>
</trkpt>
<trkpt lat="47.851963" lon="11.138649">
<ele>538.757</ele>
<time>2022-05-27T10:08:47Z</time>
</trkpt>
<trkpt lat="47.851921" lon="11.1386">
<ele>538.757</ele>
<time>2022-05-27T10:08:48Z</time>
</trkpt>
<trkpt lat="47.851891" lon="11.138561">
<ele>538.757</ele>
<time>2022-05-27T10:08:49Z</time>
</trkpt>
<trkpt lat="47.851852" lon="11.138518">
<ele>538.757</ele>
<time>2022-05-27T10:08:50Z</time>
</trkpt>
<trkpt lat="47.851822" lon="11.138467">
<ele>538.757</ele>
<time>2022-05-27T10:08:51Z</time>
</trkpt>
<trkpt lat="47.851791" lon="11.138412">
<ele>538.757</ele>
<time>2022-05-27T10:08:52Z</time>
</trkpt>
<trkpt lat="47.851757" lon="11.138355">
<ele>538.757</ele>
<time>2022-05-27T10:08:53Z</time>
</trkpt>
<trkpt lat="47.851727" lon="11.138302">
<ele>538.757</ele>
<time>2022-05-27T10:08:54Z</time>
</trkpt>
<trkpt lat="47.851692" lon="11.13825">
<ele>538.757</ele>
<time>2022-05-27T10:08:55Z</time>
</trkpt>
<trkpt lat="47.851662" lon="11.138193">
<ele>538.757</ele>
<time>2022-05-27T10:08:56Z</time>
</trkpt>
<trkpt lat="47.851624" lon="11.138135">
<ele>538.511</ele>
<time>2022-05-27T10:08:57Z</time>
</trkpt>
<trkpt lat="47.851589" lon="11.138075">
<ele>538.319</ele>
<time>2022-05-27T10:08:58Z</time>
</trkpt>
<trkpt lat="47.851543" lon="11.138015">
<ele>538.19</ele>
<time>2022-05-27T10:08:59Z</time>
</trkpt>
<trkpt lat="47.851501" lon="11.137964">
<ele>538.049</ele>
<time>2022-05-27T10:09:00Z</time>
</trkpt>
<trkpt lat="47.851463" lon="11.13792">
<ele>537.944</ele>
<time>2022-05-27T10:09:01Z</time>
</trkpt>
<trkpt lat="47.851433" lon="11.137877">
<ele>537.868</ele>
<time>2022-05-27T10:09:02Z</time>
</trkpt>
<trkpt lat="47.851398" lon="11.137835">
<ele>537.821</ele>
<time>2022-05-27T10:09:03Z</time>
</trkpt>
<trkpt lat="47.851368" lon="11.137792">
<ele>537.983</ele>
<time>2022-05-27T10:09:04Z</time>
</trkpt>
<trkpt lat="47.851334" lon="11.137747">
<ele>538.018</ele>
<time>2022-05-27T10:09:05Z</time>
</trkpt>
<trkpt lat="47.851303" lon="11.137696">
<ele>538.194</ele>
<time>2022-05-27T10:09:06Z</time>
</trkpt>
<trkpt lat="47.851269" lon="11.137642">
<ele>538.334</ele>
<time>2022-05-27T10:09:07Z</time>
</trkpt>
<trkpt lat="47.851238" lon="11.137583">
<ele>538.444</ele>
<time>2022-05-27T10:09:08Z</time>
</trkpt>
<trkpt lat="47.851204" lon="11.137524">
<ele>538.523</ele>
<time>2022-05-27T10:09:09Z</time>
</trkpt>
<trkpt lat="47.851173" lon="11.137467">
<ele>538.603</ele>
<time>2022-05-27T10:09:10Z</time>
</trkpt>
<trkpt lat="47.851143" lon="11.137411">
<ele>538.648</ele>
<time>2022-05-27T10:09:11Z</time>
</trkpt>
<trkpt lat="47.851112" lon="11.137355">
<ele>538.67</ele>
<time>2022-05-27T10:09:12Z</time>
</trkpt>
<trkpt lat="47.851078" lon="11.137298">
<ele>538.67</ele>
<time>2022-05-27T10:09:13Z</time>
</trkpt>
<trkpt lat="47.851048" lon="11.137245">
<ele>538.67</ele>
<time>2022-05-27T10:09:14Z</time>
</trkpt>
<trkpt lat="47.851017" lon="11.137183">
<ele>538.67</ele>
<time>2022-05-27T10:09:15Z</time>
</trkpt>
<trkpt lat="47.850983" lon="11.137122">
<ele>538.67</ele>
<time>2022-05-27T10:09:16Z</time>
</trkpt>
<trkpt lat="47.850952" lon="11.137054">
<ele>538.67</ele>
<time>2022-05-27T10:09:17Z</time>
</trkpt>
<trkpt lat="47.850925" lon="11.13699">
<ele>538.67</ele>
<time>2022-05-27T10:09:18Z</time>
</trkpt>
<trkpt lat="47.850895" lon="11.136922">
<ele>538.67</ele>
<time>2022-05-27T10:09:19Z</time>
</trkpt>
<trkpt lat="47.850864" lon="11.136856">
<ele>538.67</ele>
<time>2022-05-27T10:09:20Z</time>
</trkpt>
<trkpt lat="47.850834" lon="11.136793">
<ele>538.67</ele>
<time>2022-05-27T10:09:21Z</time>
</trkpt>
<trkpt lat="47.850811" lon="11.13673">
<ele>538.67</ele>
<time>2022-05-27T10:09:22Z</time>
</trkpt>
<trkpt lat="47.85078" lon="11.136665">
<ele>538.67</ele>
<time>2022-05-27T10:09:23Z</time>
</trkpt>
<trkpt lat="47.850761" lon="11.136604">
<ele>538.67</ele>
<time>2022-05-27T10:09:24Z</time>
</trkpt>
<trkpt lat="47.850742" lon="11.136541">
<ele>538.67</ele>
<time>2022-05-27T10:09:25Z</time>
</trkpt>
<trkpt lat="47.850719" lon="11.136473">
<ele>538.67</ele>
<time>2022-05-27T10:09:26Z</time>
</trkpt>
<trkpt lat="47.8507" lon="11.136408">
<ele>538.67</ele>
<time>2022-05-27T10:09:27Z</time>
</trkpt>
<trkpt lat="47.850681" lon="11.136345">
<ele>538.67</ele>
<time>2022-05-27T10:09:28Z</time>
</trkpt>
<trkpt lat="47.850666" lon="11.136282">
<ele>538.67</ele>
<time>2022-05-27T10:09:29Z</time>
</trkpt>
<trkpt lat="47.850647" lon="11.136219">
<ele>538.67</ele>
<time>2022-05-27T10:09:30Z</time>
</trkpt>
<trkpt lat="47.850624" lon="11.136158">
<ele>538.67</ele>
<time>2022-05-27T10:09:31Z</time>
</trkpt>
<trkpt lat="47.850605" lon="11.136098">
<ele>538.67</ele>
<time>2022-05-27T10:09:32Z</time>
</trkpt>
<trkpt lat="47.850586" lon="11.136035">
<ele>538.67</ele>
<time>2022-05-27T10:09:33Z</time>
</trkpt>
<trkpt lat="47.850563" lon="11.13597">
<ele>538.67</ele>
<time>2022-05-27T10:09:34Z</time>
</trkpt>
<trkpt lat="47.85054" lon="11.135903">
<ele>538.67</ele>
<time>2022-05-27T10:09:35Z</time>
</trkpt>
<trkpt lat="47.850517" lon="11.135834">
<ele>538.442</ele>
<time>2022-05-27T10:09:36Z</time>
</trkpt>
<trkpt lat="47.850487" lon="11.135758">
<ele>538.262</ele>
<time>2022-05-27T10:09:37Z</time>
</trkpt>
<trkpt lat="47.850456" lon="11.135689">
<ele>538.121</ele>
<time>2022-05-27T10:09:38Z</time>
</trkpt>
<trkpt lat="47.850422" lon="11.135622">
<ele>538.029</ele>
<time>2022-05-27T10:09:39Z</time>
</trkpt>
<trkpt lat="47.850388" lon="11.135561">
<ele>537.93</ele>
<time>2022-05-27T10:09:40Z</time>
</trkpt>
<trkpt lat="47.850346" lon="11.135505">
<ele>537.862</ele>
<time>2022-05-27T10:09:41Z</time>
</trkpt>
<trkpt lat="47.850307" lon="11.135454">
<ele>537.819</ele>
<time>2022-05-27T10:09:42Z</time>
</trkpt>
<trkpt lat="47.850262" lon="11.13541">
<ele>537.799</ele>
<time>2022-05-27T10:09:43Z</time>
</trkpt>
<trkpt lat="47.85022" lon="11.135373">
<ele>537.799</ele>
<time>2022-05-27T10:09:44Z</time>
</trkpt>
<trkpt lat="47.850174" lon="11.135342">
<ele>537.799</ele>
<time>2022-05-27T10:09:45Z</time>
</trkpt>
<trkpt lat="47.850128" lon="11.135315">
<ele>537.799</ele>
<time>2022-05-27T10:09:46Z</time>
</trkpt>
<trkpt lat="47.850082" lon="11.135295">
<ele>537.799</ele>
<time>2022-05-27T10:09:47Z</time>
</trkpt>
<trkpt lat="47.85004" lon="11.135272">
<ele>537.799</ele>
<time>2022-05-27T10:09:48Z</time>
</trkpt>
<trkpt lat="47.849998" lon="11.135253">
<ele>537.799</ele>
<time>2022-05-27T10:09:49Z</time>
</trkpt>
<trkpt lat="47.849953" lon="11.135235">
<ele>537.799</ele>
<time>2022-05-27T10:09:50Z</time>
</trkpt>
<trkpt lat="47.849915" lon="11.13521">
<ele>537.799</ele>
<time>2022-05-27T10:09:51Z</time>
</trkpt>
<trkpt lat="47.849873" lon="11.135177">
<ele>537.799</ele>
<time>2022-05-27T10:09:52Z</time>
</trkpt>
<trkpt lat="47.849834" lon="11.135139">
<ele>537.799</ele>
<time>2022-05-27T10:09:53Z</time>
</trkpt>
<trkpt lat="47.849796" lon="11.135102">
<ele>537.799</ele>
<time>2022-05-27T10:09:54Z</time>
</trkpt>
<trkpt lat="47.849758" lon="11.135065">
<ele>538.029</ele>
<time>2022-05-27T10:09:55Z</time>
</trkpt>
<trkpt lat="47.849716" lon="11.135032">
<ele>538.209</ele>
<time>2022-05-27T10:09:56Z</time>
</trkpt>
<trkpt lat="47.84967" lon="11.134998">
<ele>538.352</ele>
<time>2022-05-27T10:09:57Z</time>
</trkpt>
<trkpt lat="47.849628" lon="11.134968">
<ele>538.456</ele>
<time>2022-05-27T10:09:58Z</time>
</trkpt>
<trkpt lat="47.849579" lon="11.134943">
<ele>538.528</ele>
<time>2022-05-27T10:09:59Z</time>
</trkpt>
<trkpt lat="47.849533" lon="11.134922">
<ele>538.601</ele>
<time>2022-05-27T10:10:00Z</time>
</trkpt>
<trkpt lat="47.849483" lon="11.134905">
<ele>538.648</ele>
<time>2022-05-27T10:10:01Z</time>
</trkpt>
<trkpt lat="47.849438" lon="11.134892">
<ele>538.67</ele>
<time>2022-05-27T10:10:02Z</time>
</trkpt>
<trkpt lat="47.849384" lon="11.134884">
<ele>538.67</ele>
<time>2022-05-27T10:10:03Z</time>
</trkpt>
<trkpt lat="47.849331" lon="11.134878">
<ele>538.67</ele>
<time>2022-05-27T10:10:04Z</time>
</trkpt>
<trkpt lat="47.849281" lon="11.134876">
<ele>538.67</ele>
<time>2022-05-27T10:10:05Z</time>
</trkpt>
<trkpt lat="47.849224" lon="11.134875">
<ele>538.67</ele>
<time>2022-05-27T10:10:06Z</time>
</trkpt>
<trkpt lat="47.849174" lon="11.134873">
<ele>538.67</ele>
<time>2022-05-27T10:10:07Z</time>
</trkpt>
<trkpt lat="47.849125" lon="11.13487">
<ele>538.67</ele>
<time>2022-05-27T10:10:08Z</time>
</trkpt>
<trkpt lat="47.849079" lon="11.13487">
<ele>538.67</ele>
<time>2022-05-27T10:10:09Z</time>
</trkpt>
<trkpt lat="47.849022" lon="11.13487">
<ele>538.67</ele>
<time>2022-05-27T10:10:10Z</time>
</trkpt>
<trkpt lat="47.848976" lon="11.134875">
<ele>538.67</ele>
<time>2022-05-27T10:10:11Z</time>
</trkpt>
<trkpt lat="47.848927" lon="11.134885">
<ele>538.67</ele>
<time>2022-05-27T10:10:12Z</time>
</trkpt>
<trkpt lat="47.848877" lon="11.134895">
<ele>538.67</ele>
<time>2022-05-27T10:10:13Z</time>
</trkpt>
<trkpt lat="47.848827" lon="11.13491">
<ele>538.67</ele>
<time>2022-05-27T10:10:14Z</time>
</trkpt>
<trkpt lat="47.848782" lon="11.134925">
<ele>538.67</ele>
<time>2022-05-27T10:10:15Z</time>
</trkpt>
<trkpt lat="47.848728" lon="11.134947">
<ele>538.67</ele>
<time>2022-05-27T10:10:16Z</time>
</trkpt>
<trkpt lat="47.848679" lon="11.134972">
<ele>538.67</ele>
<time>2022-05-27T10:10:17Z</time>
</trkpt>
<trkpt lat="47.848629" lon="11.134995">
<ele>538.67</ele>
<time>2022-05-27T10:10:18Z</time>
</trkpt>
<trkpt lat="47.848579" lon="11.135016">
<ele>538.67</ele>
<time>2022-05-27T10:10:19Z</time>
</trkpt>
<trkpt lat="47.84853" lon="11.135038">
<ele>538.67</ele>
<time>2022-05-27T10:10:20Z</time>
</trkpt>
<trkpt lat="47.84848" lon="11.135062">
<ele>538.67</ele>
<time>2022-05-27T10:10:21Z</time>
</trkpt>
<trkpt lat="47.848434" lon="11.135085">
<ele>538.67</ele>
<time>2022-05-27T10:10:22Z</time>
</trkpt>
<trkpt lat="47.848389" lon="11.135106">
<ele>538.67</ele>
<time>2022-05-27T10:10:23Z</time>
</trkpt>
<trkpt lat="47.848343" lon="11.135128">
<ele>538.67</ele>
<time>2022-05-27T10:10:24Z</time>
</trkpt>
<trkpt lat="47.848301" lon="11.13515">
<ele>538.67</ele>
<time>2022-05-27T10:10:25Z</time>
</trkpt>
<trkpt lat="47.848255" lon="11.135172">
<ele>538.67</ele>
<time>2022-05-27T10:10:26Z</time>
</trkpt>
<trkpt lat="47.848213" lon="11.135192">
<ele>538.67</ele>
<time>2022-05-27T10:10:27Z</time>
</trkpt>
<trkpt lat="47.848171" lon="11.135211">
<ele>538.67</ele>
<time>2022-05-27T10:10:28Z</time>
</trkpt>
<trkpt lat="47.848122" lon="11.135232">
<ele>538.67</ele>
<time>2022-05-27T10:10:29Z</time>
</trkpt>
<trkpt lat="47.848076" lon="11.135253">
<ele>538.67</ele>
<time>2022-05-27T10:10:30Z</time>
</trkpt>
<trkpt lat="47.848034" lon="11.135279">
<ele>538.67</ele>
<time>2022-05-27T10:10:31Z</time>
</trkpt>
<trkpt lat="47.847992" lon="11.135303">
<ele>538.67</ele>
<time>2022-05-27T10:10:32Z</time>
</trkpt>
<trkpt lat="47.84795" lon="11.135326">
<ele>538.67</ele>
<time>2022-05-27T10:10:33Z</time>
</trkpt>
<trkpt lat="47.847912" lon="11.135349">
<ele>538.67</ele>
<time>2022-05-27T10:10:34Z</time>
</trkpt>
<trkpt lat="47.847878" lon="11.135372">
<ele>538.67</ele>
<time>2022-05-27T10:10:35Z</time>
</trkpt>
<trkpt lat="47.847843" lon="11.135389">
<ele>538.67</ele>
<time>2022-05-27T10:10:36Z</time>
</trkpt>
<trkpt lat="47.847809" lon="11.13541">
<ele>538.67</ele>
<time>2022-05-27T10:10:37Z</time>
</trkpt>
<trkpt lat="47.847771" lon="11.135428">
<ele>538.67</ele>
<time>2022-05-27T10:10:38Z</time>
</trkpt>
<trkpt lat="47.847736" lon="11.135447">
<ele>538.67</ele>
<time>2022-05-27T10:10:39Z</time>
</trkpt>
<trkpt lat="47.847702" lon="11.135463">
<ele>538.895</ele>
<time>2022-05-27T10:10:40Z</time>
</trkpt>
<trkpt lat="47.847668" lon="11.135479">
<ele>539.09</ele>
<time>2022-05-27T10:10:41Z</time>
</trkpt>
<trkpt lat="47.84763" lon="11.135493">
<ele>539.255</ele>
<time>2022-05-27T10:10:42Z</time>
</trkpt>
<trkpt lat="47.847595" lon="11.13551">
<ele>539.386</ele>
<time>2022-05-27T10:10:43Z</time>
</trkpt>
<trkpt lat="47.847557" lon="11.135528">
<ele>539.486</ele>
<time>2022-05-27T10:10:44Z</time>
</trkpt>
<trkpt lat="47.847515" lon="11.135545">
<ele>539.559</ele>
<time>2022-05-27T10:10:45Z</time>
</trkpt>
<trkpt lat="47.847473" lon="11.135563">
<ele>539.605</ele>
<time>2022-05-27T10:10:46Z</time>
</trkpt>
<trkpt lat="47.847424" lon="11.135582">
<ele>539.628</ele>
<time>2022-05-27T10:10:47Z</time>
</trkpt>
<trkpt lat="47.847378" lon="11.135601">
<ele>539.628</ele>
<time>2022-05-27T10:10:48Z</time>
</trkpt>
<trkpt lat="47.847332" lon="11.135622">
<ele>539.628</ele>
<time>2022-05-27T10:10:49Z</time>
</trkpt>
<trkpt lat="47.84729" lon="11.135642">
<ele>539.628</ele>
<time>2022-05-27T10:10:50Z</time>
</trkpt>
<trkpt lat="47.847244" lon="11.135662">
<ele>539.628</ele>
<time>2022-05-27T10:10:51Z</time>
</trkpt>
<trkpt lat="47.847198" lon="11.13568">
<ele>539.628</ele>
<time>2022-05-27T10:10:52Z</time>
</trkpt>
<trkpt lat="47.847153" lon="11.135694">
<ele>539.628</ele>
<time>2022-05-27T10:10:53Z</time>
</trkpt>
<trkpt lat="47.847103" lon="11.13571">
<ele>539.628</ele>
<time>2022-05-27T10:10:54Z</time>
</trkpt>
<trkpt lat="47.847057" lon="11.135727">
<ele>539.628</ele>
<time>2022-05-27T10:10:55Z</time>
</trkpt>
<trkpt lat="47.847004" lon="11.135745">
<ele>539.628</ele>
<time>2022-05-27T10:10:56Z</time>
</trkpt>
<trkpt lat="47.846966" lon="11.135765">
<ele>539.628</ele>
<time>2022-05-27T10:10:57Z</time>
</trkpt>
<trkpt lat="47.84692" lon="11.13579">
<ele>539.394</ele>
<time>2022-05-27T10:10:58Z</time>
</trkpt>
<trkpt lat="47.846874" lon="11.13582">
<ele>539.228</ele>
<time>2022-05-27T10:10:59Z</time>
</trkpt>
<trkpt lat="47.846832" lon="11.135852">
<ele>539.057</ele>
<time>2022-05-27T10:11:00Z</time>
</trkpt>
<trkpt lat="47.846783" lon="11.135885">
<ele>538.924</ele>
<time>2022-05-27T10:11:01Z</time>
</trkpt>
<trkpt lat="47.846737" lon="11.13592">
<ele>538.821</ele>
<time>2022-05-27T10:11:02Z</time>
</trkpt>
<trkpt lat="47.846695" lon="11.135957">
<ele>538.743</ele>
<time>2022-05-27T10:11:03Z</time>
</trkpt>
<trkpt lat="47.846653" lon="11.135993">
<ele>538.694</ele>
<time>2022-05-27T10:11:04Z</time>
</trkpt>
<trkpt lat="47.846607" lon="11.136032">
<ele>538.67</ele>
<time>2022-05-27T10:11:05Z</time>
</trkpt>
<trkpt lat="47.846569" lon="11.136065">
<ele>538.67</ele>
<time>2022-05-27T10:11:06Z</time>
</trkpt>
<trkpt lat="47.846519" lon="11.136098">
<ele>538.67</ele>
<time>2022-05-27T10:11:07Z</time>
</trkpt>
<trkpt lat="47.846478" lon="11.136128">
<ele>538.67</ele>
<time>2022-05-27T10:11:08Z</time>
</trkpt>
<trkpt lat="47.846432" lon="11.136162">
<ele>538.67</ele>
<time>2022-05-27T10:11:09Z</time>
</trkpt>
<trkpt lat="47.846386" lon="11.136188">
<ele>538.902</ele>
<time>2022-05-27T10:11:10Z</time>
</trkpt>
<trkpt lat="47.846348" lon="11.136213">
<ele>539.096</ele>
<time>2022-05-27T10:11:11Z</time>
</trkpt>
<trkpt lat="47.846306" lon="11.136237">
<ele>539.256</ele>
<time>2022-05-27T10:11:12Z</time>
</trkpt>
<trkpt lat="47.846264" lon="11.136256">
<ele>539.381</ele>
<time>2022-05-27T10:11:13Z</time>
</trkpt>
<trkpt lat="47.846222" lon="11.136273">
<ele>539.483</ele>
<time>2022-05-27T10:11:14Z</time>
</trkpt>
<trkpt lat="47.846176" lon="11.136293">
<ele>539.555</ele>
<time>2022-05-27T10:11:15Z</time>
</trkpt>
<trkpt lat="47.846127" lon="11.136313">
<ele>539.605</ele>
<time>2022-05-27T10:11:16Z</time>
</trkpt>
<trkpt lat="47.846077" lon="11.136338">
<ele>539.623</ele>
<time>2022-05-27T10:11:17Z</time>
</trkpt>
<trkpt lat="47.846016" lon="11.136368">
<ele>539.382</ele>
<time>2022-05-27T10:11:18Z</time>
</trkpt>
<trkpt lat="47.845955" lon="11.136403">
<ele>539.212</ele>
<time>2022-05-27T10:11:19Z</time>
</trkpt>
<trkpt lat="47.845894" lon="11.136447">
<ele>538.798</ele>
<time>2022-05-27T10:11:20Z</time>
</trkpt>
<trkpt lat="47.84584" lon="11.136489">
<ele>538.47</ele>
<time>2022-05-27T10:11:21Z</time>
</trkpt>
<trkpt lat="47.845791" lon="11.136532">
<ele>538.231</ele>
<time>2022-05-27T10:11:22Z</time>
</trkpt>
<trkpt lat="47.845749" lon="11.136573">
<ele>538.26</ele>
<time>2022-05-27T10:11:23Z</time>
</trkpt>
<trkpt lat="47.845707" lon="11.136613">
<ele>538.298</ele>
<time>2022-05-27T10:11:24Z</time>
</trkpt>
<trkpt lat="47.845669" lon="11.136655">
<ele>538.348</ele>
<time>2022-05-27T10:11:25Z</time>
</trkpt>
<trkpt lat="47.845634" lon="11.136693">
<ele>538.371</ele>
<time>2022-05-27T10:11:26Z</time>
</trkpt>
<trkpt lat="47.8456" lon="11.13673">
<ele>538.449</ele>
<time>2022-05-27T10:11:27Z</time>
</trkpt>
<trkpt lat="47.845566" lon="11.136765">
<ele>538.523</ele>
<time>2022-05-27T10:11:28Z</time>
</trkpt>
<trkpt lat="47.845528" lon="11.136799">
<ele>538.587</ele>
<time>2022-05-27T10:11:29Z</time>
</trkpt>
<trkpt lat="47.845482" lon="11.13683">
<ele>538.643</ele>
<time>2022-05-27T10:11:30Z</time>
</trkpt>
<trkpt lat="47.845436" lon="11.13686">
<ele>538.67</ele>
<time>2022-05-27T10:11:31Z</time>
</trkpt>
<trkpt lat="47.845394" lon="11.136889">
<ele>538.67</ele>
<time>2022-05-27T10:11:32Z</time>
</trkpt>
<trkpt lat="47.845348" lon="11.136916">
<ele>538.944</ele>
<time>2022-05-27T10:11:33Z</time>
</trkpt>
<trkpt lat="47.845303" lon="11.136946">
<ele>539.158</ele>
<time>2022-05-27T10:11:34Z</time>
</trkpt>
<trkpt lat="47.845249" lon="11.136971">
<ele>539.317</ele>
<time>2022-05-27T10:11:35Z</time>
</trkpt>
<trkpt lat="47.845196" lon="11.136998">
<ele>539.432</ele>
<time>2022-05-27T10:11:36Z</time>
</trkpt>
<trkpt lat="47.845139" lon="11.137025">
<ele>539.51</ele>
<time>2022-05-27T10:11:37Z</time>
</trkpt>
<trkpt lat="47.845074" lon="11.137047">
<ele>539.348</ele>
<time>2022-05-27T10:11:38Z</time>
</trkpt>
<trkpt lat="47.845009" lon="11.137067">
<ele>539.361</ele>
<time>2022-05-27T10:11:39Z</time>
</trkpt>
<trkpt lat="47.844944" lon="11.137089">
<ele>539.178</ele>
<time>2022-05-27T10:11:40Z</time>
</trkpt>
<trkpt lat="47.844875" lon="11.137112">
<ele>539.047</ele>
<time>2022-05-27T10:11:41Z</time>
</trkpt>
<trkpt lat="47.844807" lon="11.137138">
<ele>538.684</ele>
<time>2022-05-27T10:11:42Z</time>
</trkpt>
<trkpt lat="47.844742" lon="11.137166">
<ele>538.401</ele>
<time>2022-05-27T10:11:43Z</time>
</trkpt>
<trkpt lat="47.844685" lon="11.137191">
<ele>538.189</ele>
<time>2022-05-27T10:11:44Z</time>
</trkpt>
<trkpt lat="47.844627" lon="11.137212">
<ele>538.032</ele>
<time>2022-05-27T10:11:45Z</time>
</trkpt>
<trkpt lat="47.844578" lon="11.13723">
<ele>538.129</ele>
<time>2022-05-27T10:11:46Z</time>
</trkpt>
<trkpt lat="47.844536" lon="11.137239">
<ele>538.115</ele>
<time>2022-05-27T10:11:47Z</time>
</trkpt>
<trkpt lat="47.844494" lon="11.137248">
<ele>538.229</ele>
<time>2022-05-27T10:11:48Z</time>
</trkpt>
<trkpt lat="47.844456" lon="11.137254">
<ele>538.566</ele>
<time>2022-05-27T10:11:49Z</time>
</trkpt>
<trkpt lat="47.844414" lon="11.137259">
<ele>538.881</ele>
<time>2022-05-27T10:11:50Z</time>
</trkpt>
<trkpt lat="47.844368" lon="11.137264">
<ele>539.171</ele>
<time>2022-05-27T10:11:51Z</time>
</trkpt>
<trkpt lat="47.844326" lon="11.137272">
<ele>539.413</ele>
<time>2022-05-27T10:11:52Z</time>
</trkpt>
<trkpt lat="47.844284" lon="11.137275">
<ele>539.597</ele>
<time>2022-05-27T10:11:53Z</time>
</trkpt>
<trkpt lat="47.844234" lon="11.13728">
<ele>539.719</ele>
<time>2022-05-27T10:11:54Z</time>
</trkpt>
<trkpt lat="47.844193" lon="11.13728">
<ele>539.777</ele>
<time>2022-05-27T10:11:55Z</time>
</trkpt>
<trkpt lat="47.844143" lon="11.137281">
<ele>539.803</ele>
<time>2022-05-27T10:11:56Z</time>
</trkpt>
<trkpt lat="47.844093" lon="11.137283">
<ele>539.802</ele>
<time>2022-05-27T10:11:57Z</time>
</trkpt>
<trkpt lat="47.844044" lon="11.137285">
<ele>539.803</ele>
<time>2022-05-27T10:11:58Z</time>
</trkpt>
<trkpt lat="47.843998" lon="11.137288">
<ele>539.802</ele>
<time>2022-05-27T10:11:59Z</time>
</trkpt>
<trkpt lat="47.843948" lon="11.137287">
<ele>539.803</ele>
<time>2022-05-27T10:12:00Z</time>
</trkpt>
<trkpt lat="47.843903" lon="11.137283">
<ele>539.803</ele>
<time>2022-05-27T10:12:01Z</time>
</trkpt>
<trkpt lat="47.843853" lon="11.137279">
<ele>539.803</ele>
<time>2022-05-27T10:12:02Z</time>
</trkpt>
<trkpt lat="47.843803" lon="11.137277">
<ele>539.803</ele>
<time>2022-05-27T10:12:03Z</time>
</trkpt>
<trkpt lat="47.843761" lon="11.137273">
<ele>539.803</ele>
<time>2022-05-27T10:12:04Z</time>
</trkpt>
<trkpt lat="47.843716" lon="11.13727">
<ele>539.803</ele>
<time>2022-05-27T10:12:05Z</time>
</trkpt>
<trkpt lat="47.84367" lon="11.137266">
<ele>539.803</ele>
<time>2022-05-27T10:12:06Z</time>
</trkpt>
<trkpt lat="47.843628" lon="11.13726">
<ele>539.802</ele>
<time>2022-05-27T10:12:07Z</time>
</trkpt>
<trkpt lat="47.843582" lon="11.137256">
<ele>539.803</ele>
<time>2022-05-27T10:12:08Z</time>
</trkpt>
<trkpt lat="47.843536" lon="11.137252">
<ele>539.802</ele>
<time>2022-05-27T10:12:09Z</time>
</trkpt>
<trkpt lat="47.843494" lon="11.137247">
<ele>539.802</ele>
<time>2022-05-27T10:12:10Z</time>
</trkpt>
<trkpt lat="47.843449" lon="11.137239">
<ele>539.802</ele>
<time>2022-05-27T10:12:11Z</time>
</trkpt>
<trkpt lat="47.84341" lon="11.137231">
<ele>539.803</ele>
<time>2022-05-27T10:12:12Z</time>
</trkpt>
<trkpt lat="47.843372" lon="11.137223">
<ele>539.803</ele>
<time>2022-05-27T10:12:13Z</time>
</trkpt>
<trkpt lat="47.843338" lon="11.137218">
<ele>539.803</ele>
<time>2022-05-27T10:12:14Z</time>
</trkpt>
<trkpt lat="47.843304" lon="11.137214">
<ele>539.803</ele>
<time>2022-05-27T10:12:15Z</time>
</trkpt>
<trkpt lat="47.843273" lon="11.137203">
<ele>539.803</ele>
<time>2022-05-27T10:12:16Z</time>
</trkpt>
<trkpt lat="47.843243" lon="11.137192">
<ele>539.803</ele>
<time>2022-05-27T10:12:17Z</time>
</trkpt>
<trkpt lat="47.843216" lon="11.137178">
<ele>539.803</ele>
<time>2022-05-27T10:12:18Z</time>
</trkpt>
<trkpt lat="47.843185" lon="11.137163">
<ele>539.803</ele>
<time>2022-05-27T10:12:19Z</time>
</trkpt>
<trkpt lat="47.843155" lon="11.137147">
<ele>539.802</ele>
<time>2022-05-27T10:12:20Z</time>
</trkpt>
<trkpt lat="47.843121" lon="11.13713">
<ele>539.803</ele>
<time>2022-05-27T10:12:21Z</time>
</trkpt>
<trkpt lat="47.843079" lon="11.13711">
<ele>539.803</ele>
<time>2022-05-27T10:12:22Z</time>
</trkpt>
<trkpt lat="47.843029" lon="11.13709">
<ele>539.803</ele>
<time>2022-05-27T10:12:23Z</time>
</trkpt>
<trkpt lat="47.842979" lon="11.137065">
<ele>539.535</ele>
<time>2022-05-27T10:12:24Z</time>
</trkpt>
<trkpt lat="47.842922" lon="11.137038">
<ele>539.337</ele>
<time>2022-05-27T10:12:25Z</time>
</trkpt>
<trkpt lat="47.842865" lon="11.137012">
<ele>539.19</ele>
<time>2022-05-27T10:12:26Z</time>
</trkpt>
<trkpt lat="47.842812" lon="11.136987">
<ele>539.119</ele>
<time>2022-05-27T10:12:27Z</time>
</trkpt>
<trkpt lat="47.842754" lon="11.136963">
<ele>538.788</ele>
<time>2022-05-27T10:12:28Z</time>
</trkpt>
<trkpt lat="47.842693" lon="11.136933">
<ele>538.568</ele>
<time>2022-05-27T10:12:29Z</time>
</trkpt>
<trkpt lat="47.842636" lon="11.13691">
<ele>538.363</ele>
<time>2022-05-27T10:12:30Z</time>
</trkpt>
<trkpt lat="47.842583" lon="11.136887">
<ele>538.214</ele>
<time>2022-05-27T10:12:31Z</time>
</trkpt>
<trkpt lat="47.842533" lon="11.136865">
<ele>538.118</ele>
<time>2022-05-27T10:12:32Z</time>
</trkpt>
<trkpt lat="47.842476" lon="11.13684">
<ele>538.046</ele>
<time>2022-05-27T10:12:33Z</time>
</trkpt>
<trkpt lat="47.84243" lon="11.136818">
<ele>537.997</ele>
<time>2022-05-27T10:12:34Z</time>
</trkpt>
<trkpt lat="47.842388" lon="11.136799">
<ele>537.973</ele>
<time>2022-05-27T10:12:35Z</time>
</trkpt>
<trkpt lat="47.842346" lon="11.136782">
<ele>537.973</ele>
<time>2022-05-27T10:12:36Z</time>
</trkpt>
<trkpt lat="47.842312" lon="11.136766">
<ele>537.973</ele>
<time>2022-05-27T10:12:37Z</time>
</trkpt>
<trkpt lat="47.842278" lon="11.136753">
<ele>538.204</ele>
<time>2022-05-27T10:12:38Z</time>
</trkpt>
<trkpt lat="47.842247" lon="11.136742">
<ele>538.38</ele>
<time>2022-05-27T10:12:39Z</time>
</trkpt>
<trkpt lat="47.842213" lon="11.136734">
<ele>538.556</ele>
<time>2022-05-27T10:12:40Z</time>
</trkpt>
<trkpt lat="47.842182" lon="11.136725">
<ele>538.693</ele>
<time>2022-05-27T10:12:41Z</time>
</trkpt>
<trkpt lat="47.842155" lon="11.136718">
<ele>539.035</ele>
<time>2022-05-27T10:12:42Z</time>
</trkpt>
<trkpt lat="47.842133" lon="11.136718">
<ele>539.322</ele>
<time>2022-05-27T10:12:43Z</time>
</trkpt>
<trkpt lat="47.842113" lon="11.136726">
<ele>539.521</ele>
<time>2022-05-27T10:12:44Z</time>
</trkpt>
<trkpt lat="47.842102" lon="11.136737">
<ele>539.881</ele>
<time>2022-05-27T10:12:45Z</time>
</trkpt>
<trkpt lat="47.842091" lon="11.136751">
<ele>540.222</ele>
<time>2022-05-27T10:12:46Z</time>
</trkpt>
<trkpt lat="47.842079" lon="11.136774">
<ele>540.415</ele>
<time>2022-05-27T10:12:47Z</time>
</trkpt>
<trkpt lat="47.842075" lon="11.136799">
<ele>540.547</ele>
<time>2022-05-27T10:12:48Z</time>
</trkpt>
<trkpt lat="47.842075" lon="11.136824">
<ele>540.667</ele>
<time>2022-05-27T10:12:49Z</time>
</trkpt>
<trkpt lat="47.842075" lon="11.136848">
<ele>540.754</ele>
<time>2022-05-27T10:12:50Z</time>
</trkpt>
<trkpt lat="47.842075" lon="11.136867">
<ele>540.818</ele>
<time>2022-05-27T10:12:51Z</time>
</trkpt>
<trkpt lat="47.842079" lon="11.136881">
<ele>540.848</ele>
<time>2022-05-27T10:12:52Z</time>
</trkpt>
<trkpt lat="47.842079" lon="11.136885">
<ele>540.848</ele>
<time>2022-05-27T10:12:53Z</time>
</trkpt>
<trkpt lat="47.842075" lon="11.136887">
<ele>540.848</ele>
<time>2022-05-27T10:12:54Z</time>
</trkpt>
<trkpt lat="47.842075" lon="11.136907">
<ele>540.655</ele>
<time>2022-05-27T10:13:04Z</time>
</trkpt>
<trkpt lat="47.842079" lon="11.136927">
<ele>540.495</ele>
<time>2022-05-27T10:13:05Z</time>
</trkpt>
<trkpt lat="47.842091" lon="11.136951">
<ele>540.34</ele>
<time>2022-05-27T10:13:06Z</time>
</trkpt>
<trkpt lat="47.84211" lon="11.136977">
<ele>540.217</ele>
<time>2022-05-27T10:13:07Z</time>
</trkpt>
<trkpt lat="47.842133" lon="11.137">
<ele>540.127</ele>
<time>2022-05-27T10:13:08Z</time>
</trkpt>
<trkpt lat="47.842163" lon="11.137019">
<ele>540.029</ele>
<time>2022-05-27T10:13:09Z</time>
</trkpt>
<trkpt lat="47.842197" lon="11.137036">
<ele>539.981</ele>
<time>2022-05-27T10:13:10Z</time>
</trkpt>
<trkpt lat="47.842236" lon="11.137054">
<ele>539.976</ele>
<time>2022-05-27T10:13:11Z</time>
</trkpt>
<trkpt lat="47.84227" lon="11.137078">
<ele>539.976</ele>
<time>2022-05-27T10:13:12Z</time>
</trkpt>
<trkpt lat="47.842304" lon="11.137101">
<ele>539.976</ele>
<time>2022-05-27T10:13:13Z</time>
</trkpt>
<trkpt lat="47.842339" lon="11.137126">
<ele>540.255</ele>
<time>2022-05-27T10:13:14Z</time>
</trkpt>
<trkpt lat="47.842369" lon="11.137149">
<ele>540.449</ele>
<time>2022-05-27T10:13:15Z</time>
</trkpt>
<trkpt lat="47.8424" lon="11.137172">
<ele>540.59</ele>
<time>2022-05-27T10:13:16Z</time>
</trkpt>
<trkpt lat="47.84243" lon="11.137195">
<ele>540.7</ele>
<time>2022-05-27T10:13:17Z</time>
</trkpt>
<trkpt lat="47.842457" lon="11.137218">
<ele>540.774</ele>
<time>2022-05-27T10:13:18Z</time>
</trkpt>
<trkpt lat="47.842484" lon="11.137239">
<ele>540.855</ele>
<time>2022-05-27T10:13:19Z</time>
</trkpt>
<trkpt lat="47.842518" lon="11.137257">
<ele>540.908</ele>
<time>2022-05-27T10:13:20Z</time>
</trkpt>
<trkpt lat="47.842548" lon="11.137272">
<ele>540.935</ele>
<time>2022-05-27T10:13:21Z</time>
</trkpt>
<trkpt lat="47.842579" lon="11.137288">
<ele>540.935</ele>
<time>2022-05-27T10:13:22Z</time>
</trkpt>
<trkpt lat="47.842606" lon="11.137313">
<ele>540.935</ele>
<time>2022-05-27T10:13:23Z</time>
</trkpt>
<trkpt lat="47.842628" lon="11.137348">
<ele>540.935</ele>
<time>2022-05-27T10:13:24Z</time>
</trkpt>
<trkpt lat="47.842644" lon="11.137397">
<ele>540.935</ele>
<time>2022-05-27T10:13:25Z</time>
</trkpt>
<trkpt lat="47.842651" lon="11.137455">
<ele>540.935</ele>
<time>2022-05-27T10:13:26Z</time>
</trkpt>
<trkpt lat="47.842651" lon="11.137516">
<ele>540.935</ele>
<time>2022-05-27T10:13:27Z</time>
</trkpt>
<trkpt lat="47.842651" lon="11.137582">
<ele>540.935</ele>
<time>2022-05-27T10:13:28Z</time>
</trkpt>
<trkpt lat="47.842651" lon="11.137648">
<ele>540.935</ele>
<time>2022-05-27T10:13:29Z</time>
</trkpt>
<trkpt lat="47.842651" lon="11.137715">
<ele>540.935</ele>
<time>2022-05-27T10:13:30Z</time>
</trkpt>
<trkpt lat="47.842651" lon="11.137785">
<ele>540.935</ele>
<time>2022-05-27T10:13:31Z</time>
</trkpt>
<trkpt lat="47.842655" lon="11.137854">
<ele>540.935</ele>
<time>2022-05-27T10:13:32Z</time>
</trkpt>
<trkpt lat="47.842659" lon="11.137922">
<ele>540.935</ele>
<time>2022-05-27T10:13:33Z</time>
</trkpt>
<trkpt lat="47.842659" lon="11.137995">
<ele>540.935</ele>
<time>2022-05-27T10:13:34Z</time>
</trkpt>
<trkpt lat="47.842655" lon="11.138071">
<ele>540.935</ele>
<time>2022-05-27T10:13:35Z</time>
</trkpt>
<trkpt lat="47.842648" lon="11.138144">
<ele>540.935</ele>
<time>2022-05-27T10:13:36Z</time>
</trkpt>
<trkpt lat="47.842644" lon="11.138218">
<ele>540.935</ele>
<time>2022-05-27T10:13:37Z</time>
</trkpt>
<trkpt lat="47.842636" lon="11.138295">
<ele>540.935</ele>
<time>2022-05-27T10:13:38Z</time>
</trkpt>
<trkpt lat="47.842632" lon="11.138371">
<ele>540.935</ele>
<time>2022-05-27T10:13:39Z</time>
</trkpt>
<trkpt lat="47.842628" lon="11.138444">
<ele>540.935</ele>
<time>2022-05-27T10:13:40Z</time>
</trkpt>
<trkpt lat="47.842625" lon="11.138512">
<ele>540.935</ele>
<time>2022-05-27T10:13:41Z</time>
</trkpt>
<trkpt lat="47.842617" lon="11.138582">
<ele>540.935</ele>
<time>2022-05-27T10:13:42Z</time>
</trkpt>
<trkpt lat="47.842617" lon="11.138647">
<ele>540.935</ele>
<time>2022-05-27T10:13:43Z</time>
</trkpt>
<trkpt lat="47.842613" lon="11.138708">
<ele>540.935</ele>
<time>2022-05-27T10:13:44Z</time>
</trkpt>
<trkpt lat="47.842609" lon="11.138764">
<ele>540.935</ele>
<time>2022-05-27T10:13:45Z</time>
</trkpt>
<trkpt lat="47.842598" lon="11.138827">
<ele>540.935</ele>
<time>2022-05-27T10:13:46Z</time>
</trkpt>
<trkpt lat="47.842594" lon="11.138894">
<ele>540.935</ele>
<time>2022-05-27T10:13:47Z</time>
</trkpt>
<trkpt lat="47.842583" lon="11.138959">
<ele>540.935</ele>
<time>2022-05-27T10:13:48Z</time>
</trkpt>
<trkpt lat="47.842571" lon="11.139016">
<ele>540.935</ele>
<time>2022-05-27T10:13:49Z</time>
</trkpt>
<trkpt lat="47.842556" lon="11.139064">
<ele>540.935</ele>
<time>2022-05-27T10:13:50Z</time>
</trkpt>
<trkpt lat="47.842541" lon="11.139114">
<ele>540.935</ele>
<time>2022-05-27T10:13:51Z</time>
</trkpt>
<trkpt lat="47.842533" lon="11.139169">
<ele>541.199</ele>
<time>2022-05-27T10:13:52Z</time>
</trkpt>
<trkpt lat="47.842514" lon="11.13923">
<ele>541.409</ele>
<time>2022-05-27T10:13:53Z</time>
</trkpt>
<trkpt lat="47.842499" lon="11.139292">
<ele>541.565</ele>
<time>2022-05-27T10:13:54Z</time>
</trkpt>
<trkpt lat="47.842484" lon="11.139355">
<ele>541.685</ele>
<time>2022-05-27T10:13:55Z</time>
</trkpt>
<trkpt lat="47.842468" lon="11.139426">
<ele>541.768</ele>
<time>2022-05-27T10:13:56Z</time>
</trkpt>
<trkpt lat="47.842453" lon="11.139493">
<ele>541.828</ele>
<time>2022-05-27T10:13:57Z</time>
</trkpt>
<trkpt lat="47.842434" lon="11.139565">
<ele>541.87</ele>
<time>2022-05-27T10:13:58Z</time>
</trkpt>
<trkpt lat="47.842419" lon="11.13964">
<ele>541.893</ele>
<time>2022-05-27T10:13:59Z</time>
</trkpt>
<trkpt lat="47.842403" lon="11.139718">
<ele>541.893</ele>
<time>2022-05-27T10:14:00Z</time>
</trkpt>
<trkpt lat="47.842369" lon="11.139797">
<ele>541.893</ele>
<time>2022-05-27T10:14:01Z</time>
</trkpt>
<trkpt lat="47.842342" lon="11.139881">
<ele>541.608</ele>
<time>2022-05-27T10:14:02Z</time>
</trkpt>
<trkpt lat="47.842319" lon="11.13997">
<ele>541.391</ele>
<time>2022-05-27T10:14:03Z</time>
</trkpt>
<trkpt lat="47.8423" lon="11.140059">
<ele>541.271</ele>
<time>2022-05-27T10:14:04Z</time>
</trkpt>
<trkpt lat="47.842262" lon="11.140139">
<ele>540.877</ele>
<time>2022-05-27T10:14:05Z</time>
</trkpt>
<trkpt lat="47.842239" lon="11.140219">
<ele>540.599</ele>
<time>2022-05-27T10:14:06Z</time>
</trkpt>
<trkpt lat="47.842224" lon="11.1403">
<ele>540.402</ele>
<time>2022-05-27T10:14:07Z</time>
</trkpt>
<trkpt lat="47.842205" lon="11.140378">
<ele>540.262</ele>
<time>2022-05-27T10:14:08Z</time>
</trkpt>
<trkpt lat="47.842182" lon="11.140451">
<ele>540.133</ele>
<time>2022-05-27T10:14:09Z</time>
</trkpt>
<trkpt lat="47.842171" lon="11.140522">
<ele>540.081</ele>
<time>2022-05-27T10:14:10Z</time>
</trkpt>
<trkpt lat="47.842152" lon="11.140594">
<ele>540.274</ele>
<time>2022-05-27T10:14:11Z</time>
</trkpt>
<trkpt lat="47.84214" lon="11.140669">
<ele>540.427</ele>
<time>2022-05-27T10:14:12Z</time>
</trkpt>
<trkpt lat="47.842129" lon="11.140737">
<ele>540.849</ele>
<time>2022-05-27T10:14:13Z</time>
</trkpt>
<trkpt lat="47.84211" lon="11.140805">
<ele>541.188</ele>
<time>2022-05-27T10:14:14Z</time>
</trkpt>
<trkpt lat="47.842098" lon="11.140866">
<ele>541.4</ele>
<time>2022-05-27T10:14:15Z</time>
</trkpt>
<trkpt lat="47.842083" lon="11.140928">
<ele>541.81</ele>
<time>2022-05-27T10:14:16Z</time>
</trkpt>
<trkpt lat="47.842072" lon="11.140975">
<ele>542.121</ele>
<time>2022-05-27T10:14:17Z</time>
</trkpt>
<trkpt lat="47.842064" lon="11.141031">
<ele>542.359</ele>
<time>2022-05-27T10:14:18Z</time>
</trkpt>
<trkpt lat="47.842056" lon="11.141093">
<ele>542.542</ele>
<time>2022-05-27T10:14:19Z</time>
</trkpt>
<trkpt lat="47.842049" lon="11.141153">
<ele>542.904</ele>
<time>2022-05-27T10:14:20Z</time>
</trkpt>
<trkpt lat="47.842041" lon="11.14122">
<ele>543.185</ele>
<time>2022-05-27T10:14:21Z</time>
</trkpt>
<trkpt lat="47.842022" lon="11.14128">
<ele>543.405</ele>
<time>2022-05-27T10:14:22Z</time>
</trkpt>
<trkpt lat="47.84201" lon="11.141336">
<ele>543.571</ele>
<time>2022-05-27T10:14:23Z</time>
</trkpt>
<trkpt lat="47.842003" lon="11.141387">
<ele>543.735</ele>
<time>2022-05-27T10:14:24Z</time>
</trkpt>
<trkpt lat="47.841991" lon="11.141438">
<ele>543.786</ele>
<time>2022-05-27T10:14:25Z</time>
</trkpt>
<trkpt lat="47.841984" lon="11.141486">
<ele>544.021</ele>
<time>2022-05-27T10:14:26Z</time>
</trkpt>
<trkpt lat="47.84198" lon="11.14153">
<ele>544.184</ele>
<time>2022-05-27T10:14:27Z</time>
</trkpt>
<trkpt lat="47.841969" lon="11.141577">
<ele>544.302</ele>
<time>2022-05-27T10:14:28Z</time>
</trkpt>
<trkpt lat="47.841949" lon="11.141628">
<ele>544.426</ele>
<time>2022-05-27T10:14:29Z</time>
</trkpt>
<trkpt lat="47.841938" lon="11.141675">
<ele>544.531</ele>
<time>2022-05-27T10:14:30Z</time>
</trkpt>
<trkpt lat="47.841927" lon="11.14172">
<ele>544.609</ele>
<time>2022-05-27T10:14:31Z</time>
</trkpt>
<trkpt lat="47.841915" lon="11.14177">
<ele>544.66</ele>
<time>2022-05-27T10:14:32Z</time>
</trkpt>
<trkpt lat="47.841908" lon="11.141819">
<ele>544.682</ele>
<time>2022-05-27T10:14:33Z</time>
</trkpt>
<trkpt lat="47.841888" lon="11.141869">
<ele>544.682</ele>
<time>2022-05-27T10:14:34Z</time>
</trkpt>
<trkpt lat="47.841873" lon="11.14192">
<ele>544.682</ele>
<time>2022-05-27T10:14:35Z</time>
</trkpt>
<trkpt lat="47.841854" lon="11.141972">
<ele>544.682</ele>
<time>2022-05-27T10:14:36Z</time>
</trkpt>
<trkpt lat="47.841831" lon="11.14202">
<ele>544.682</ele>
<time>2022-05-27T10:14:37Z</time>
</trkpt>
<trkpt lat="47.841812" lon="11.142056">
<ele>544.682</ele>
<time>2022-05-27T10:14:38Z</time>
</trkpt>
<trkpt lat="47.841793" lon="11.14211">
<ele>544.682</ele>
<time>2022-05-27T10:14:39Z</time>
</trkpt>
<trkpt lat="47.841782" lon="11.142163">
<ele>544.682</ele>
<time>2022-05-27T10:14:40Z</time>
</trkpt>
<trkpt lat="47.84177" lon="11.142203">
<ele>544.682</ele>
<time>2022-05-27T10:14:41Z</time>
</trkpt>
<trkpt lat="47.841751" lon="11.142253">
<ele>544.682</ele>
<time>2022-05-27T10:14:42Z</time>
</trkpt>
<trkpt lat="47.841732" lon="11.142286">
<ele>544.682</ele>
<time>2022-05-27T10:14:43Z</time>
</trkpt>
<trkpt lat="47.841713" lon="11.142301">
<ele>544.682</ele>
<time>2022-05-27T10:14:44Z</time>
</trkpt>
<trkpt lat="47.841686" lon="11.142307">
<ele>544.682</ele>
<time>2022-05-27T10:14:45Z</time>
</trkpt>
<trkpt lat="47.841656" lon="11.142301">
<ele>544.682</ele>
<time>2022-05-27T10:14:46Z</time>
</trkpt>
<trkpt lat="47.841629" lon="11.142284">
<ele>544.682</ele>
<time>2022-05-27T10:14:47Z</time>
</trkpt>
<trkpt lat="47.841602" lon="11.14227">
<ele>544.682</ele>
<time>2022-05-27T10:14:48Z</time>
</trkpt>
<trkpt lat="47.841583" lon="11.142259">
<ele>544.682</ele>
<time>2022-05-27T10:14:49Z</time>
</trkpt>
<trkpt lat="47.841564" lon="11.142259">
<ele>544.682</ele>
<time>2022-05-27T10:14:50Z</time>
</trkpt>
<trkpt lat="47.841549" lon="11.142253">
<ele>544.682</ele>
<time>2022-05-27T10:14:51Z</time>
</trkpt>
<trkpt lat="47.841537" lon="11.142253">
<ele>544.682</ele>
<time>2022-05-27T10:14:52Z</time>
</trkpt>
<trkpt lat="47.841522" lon="11.142255">
<ele>544.682</ele>
<time>2022-05-27T10:14:53Z</time>
</trkpt>
<trkpt lat="47.841515" lon="11.142252">
<ele>544.682</ele>
<time>2022-05-27T10:14:54Z</time>
</trkpt>
<trkpt lat="47.841507" lon="11.142246">
<ele>544.682</ele>
<time>2022-05-27T10:14:55Z</time>
</trkpt>
<trkpt lat="47.841492" lon="11.142236">
<ele>544.682</ele>
<time>2022-05-27T10:14:56Z</time>
</trkpt>
<trkpt lat="47.84148" lon="11.142232">
<ele>544.682</ele>
<time>2022-05-27T10:14:57Z</time>
</trkpt>
<trkpt lat="47.841457" lon="11.142234">
<ele>544.682</ele>
<time>2022-05-27T10:14:58Z</time>
</trkpt>
<trkpt lat="47.841454" lon="11.142228">
<ele>544.682</ele>
<time>2022-05-27T10:14:59Z</time>
</trkpt>
<trkpt lat="47.841446" lon="11.142225">
<ele>544.682</ele>
<time>2022-05-27T10:15:00Z</time>
</trkpt>
<trkpt lat="47.841442" lon="11.142225">
<ele>544.682</ele>
<time>2022-05-27T10:15:01Z</time>
</trkpt>
<trkpt lat="47.841438" lon="11.142221">
<ele>544.682</ele>
<time>2022-05-27T10:15:02Z</time>
</trkpt>
<trkpt lat="47.841438" lon="11.142217">
<ele>544.682</ele>
<time>2022-05-27T10:15:03Z</time>
</trkpt>
<trkpt lat="47.841431" lon="11.142219">
<ele>544.682</ele>
<time>2022-05-27T10:15:04Z</time>
</trkpt>
<trkpt lat="47.841373" lon="11.142232">
<ele>544.682</ele>
<time>2022-05-27T10:15:13Z</time>
</trkpt>
<trkpt lat="47.841358" lon="11.142228">
<ele>545.007</ele>
<time>2022-05-27T10:15:14Z</time>
</trkpt>
<trkpt lat="47.841335" lon="11.142219">
<ele>545.308</ele>
<time>2022-05-27T10:15:15Z</time>
</trkpt>
<trkpt lat="47.841309" lon="11.14221">
<ele>545.456</ele>
<time>2022-05-27T10:15:16Z</time>
</trkpt>
<trkpt lat="47.841282" lon="11.142199">
<ele>545.568</ele>
<time>2022-05-27T10:15:17Z</time>
</trkpt>
<trkpt lat="47.841259" lon="11.142185">
<ele>545.606</ele>
<time>2022-05-27T10:15:18Z</time>
</trkpt>
<trkpt lat="47.841232" lon="11.142171">
<ele>545.627</ele>
<time>2022-05-27T10:15:19Z</time>
</trkpt>
<trkpt lat="47.841209" lon="11.142157">
<ele>545.636</ele>
<time>2022-05-27T10:15:20Z</time>
</trkpt>
<trkpt lat="47.841187" lon="11.142138">
<ele>545.641</ele>
<time>2022-05-27T10:15:21Z</time>
</trkpt>
<trkpt lat="47.841164" lon="11.14212">
<ele>545.641</ele>
<time>2022-05-27T10:15:22Z</time>
</trkpt>
<trkpt lat="47.841141" lon="11.142108">
<ele>545.641</ele>
<time>2022-05-27T10:15:23Z</time>
</trkpt>
<trkpt lat="47.841122" lon="11.142097">
<ele>545.641</ele>
<time>2022-05-27T10:15:24Z</time>
</trkpt>
<trkpt lat="47.841103" lon="11.142085">
<ele>545.883</ele>
<time>2022-05-27T10:15:25Z</time>
</trkpt>
<trkpt lat="47.841087" lon="11.142078">
<ele>546.065</ele>
<time>2022-05-27T10:15:26Z</time>
</trkpt>
<trkpt lat="47.841064" lon="11.142072">
<ele>546.024</ele>
<time>2022-05-27T10:15:27Z</time>
</trkpt>
<trkpt lat="47.841045" lon="11.142058">
<ele>545.984</ele>
<time>2022-05-27T10:15:28Z</time>
</trkpt>
<trkpt lat="47.84103" lon="11.14205">
<ele>545.942</ele>
<time>2022-05-27T10:15:29Z</time>
</trkpt>
<trkpt lat="47.841003" lon="11.142038">
<ele>545.896</ele>
<time>2022-05-27T10:15:30Z</time>
</trkpt>
<trkpt lat="47.840981" lon="11.142018">
<ele>545.848</ele>
<time>2022-05-27T10:15:31Z</time>
</trkpt>
<trkpt lat="47.840954" lon="11.141998">
<ele>545.795</ele>
<time>2022-05-27T10:15:32Z</time>
</trkpt>
<trkpt lat="47.840935" lon="11.141982">
<ele>545.758</ele>
<time>2022-05-27T10:15:33Z</time>
</trkpt>
<trkpt lat="47.840908" lon="11.141968">
<ele>545.728</ele>
<time>2022-05-27T10:15:34Z</time>
</trkpt>
<trkpt lat="47.840889" lon="11.141953">
<ele>545.728</ele>
<time>2022-05-27T10:15:35Z</time>
</trkpt>
<trkpt lat="47.84087" lon="11.141942">
<ele>545.728</ele>
<time>2022-05-27T10:15:36Z</time>
</trkpt>
<trkpt lat="47.840851" lon="11.141933">
<ele>545.728</ele>
<time>2022-05-27T10:15:37Z</time>
</trkpt>
<trkpt lat="47.840836" lon="11.14192">
<ele>545.728</ele>
<time>2022-05-27T10:15:38Z</time>
</trkpt>
<trkpt lat="47.840813" lon="11.141907">
<ele>545.728</ele>
<time>2022-05-27T10:15:39Z</time>
</trkpt>
<trkpt lat="47.840801" lon="11.141893">
<ele>545.728</ele>
<time>2022-05-27T10:15:40Z</time>
</trkpt>
<trkpt lat="47.840782" lon="11.141885">
<ele>545.728</ele>
<time>2022-05-27T10:15:41Z</time>
</trkpt>
<trkpt lat="47.840767" lon="11.141877">
<ele>545.728</ele>
<time>2022-05-27T10:15:42Z</time>
</trkpt>
<trkpt lat="47.840748" lon="11.141867">
<ele>545.728</ele>
<time>2022-05-27T10:15:43Z</time>
</trkpt>
<trkpt lat="47.840733" lon="11.141855">
<ele>545.728</ele>
<time>2022-05-27T10:15:44Z</time>
</trkpt>
<trkpt lat="47.840717" lon="11.141842">
<ele>545.728</ele>
<time>2022-05-27T10:15:45Z</time>
</trkpt>
<trkpt lat="47.840702" lon="11.141829">
<ele>545.728</ele>
<time>2022-05-27T10:15:46Z</time>
</trkpt>
<trkpt lat="47.840687" lon="11.14182">
<ele>545.728</ele>
<time>2022-05-27T10:15:47Z</time>
</trkpt>
<trkpt lat="47.840672" lon="11.14181">
<ele>545.728</ele>
<time>2022-05-27T10:15:48Z</time>
</trkpt>
<trkpt lat="47.840652" lon="11.141802">
<ele>545.728</ele>
<time>2022-05-27T10:15:49Z</time>
</trkpt>
<trkpt lat="47.840641" lon="11.141788">
<ele>545.728</ele>
<time>2022-05-27T10:15:50Z</time>
</trkpt>
<trkpt lat="47.840626" lon="11.141777">
<ele>545.728</ele>
<time>2022-05-27T10:15:51Z</time>
</trkpt>
<trkpt lat="47.840614" lon="11.141765">
<ele>545.728</ele>
<time>2022-05-27T10:15:52Z</time>
</trkpt>
<trkpt lat="47.840599" lon="11.141753">
<ele>545.728</ele>
<time>2022-05-27T10:15:53Z</time>
</trkpt>
<trkpt lat="47.840584" lon="11.14174">
<ele>545.728</ele>
<time>2022-05-27T10:15:54Z</time>
</trkpt>
<trkpt lat="47.840572" lon="11.141726">
<ele>545.728</ele>
<time>2022-05-27T10:15:55Z</time>
</trkpt>
<trkpt lat="47.840546" lon="11.14172">
<ele>545.728</ele>
<time>2022-05-27T10:15:56Z</time>
</trkpt>
<trkpt lat="47.84053" lon="11.141706">
<ele>545.728</ele>
<time>2022-05-27T10:15:57Z</time>
</trkpt>
<trkpt lat="47.840511" lon="11.1417">
<ele>545.728</ele>
<time>2022-05-27T10:15:58Z</time>
</trkpt>
<trkpt lat="47.840488" lon="11.141689">
<ele>545.728</ele>
<time>2022-05-27T10:15:59Z</time>
</trkpt>
<trkpt lat="47.840473" lon="11.141685">
<ele>545.728</ele>
<time>2022-05-27T10:16:00Z</time>
</trkpt>
<trkpt lat="47.840454" lon="11.141681">
<ele>545.489</ele>
<time>2022-05-27T10:16:01Z</time>
</trkpt>
<trkpt lat="47.840435" lon="11.141675">
<ele>545.307</ele>
<time>2022-05-27T10:16:02Z</time>
</trkpt>
<trkpt lat="47.840416" lon="11.141668">
<ele>545.172</ele>
<time>2022-05-27T10:16:03Z</time>
</trkpt>
<trkpt lat="47.840405" lon="11.141665">
<ele>545.075</ele>
<time>2022-05-27T10:16:04Z</time>
</trkpt>
<trkpt lat="47.840397" lon="11.141662">
<ele>544.993</ele>
<time>2022-05-27T10:16:05Z</time>
</trkpt>
<trkpt lat="47.840382" lon="11.141657">
<ele>544.936</ele>
<time>2022-05-27T10:16:06Z</time>
</trkpt>
<trkpt lat="47.840374" lon="11.141648">
<ele>544.884</ele>
<time>2022-05-27T10:16:07Z</time>
</trkpt>
<trkpt lat="47.840366" lon="11.141639">
<ele>544.856</ele>
<time>2022-05-27T10:16:08Z</time>
</trkpt>
<trkpt lat="47.840351" lon="11.141632">
<ele>544.856</ele>
<time>2022-05-27T10:16:09Z</time>
</trkpt>
<trkpt lat="47.84034" lon="11.141622">
<ele>544.856</ele>
<time>2022-05-27T10:16:10Z</time>
</trkpt>
<trkpt lat="47.840324" lon="11.141608">
<ele>544.856</ele>
<time>2022-05-27T10:16:11Z</time>
</trkpt>
<trkpt lat="47.840317" lon="11.1416">
<ele>544.856</ele>
<time>2022-05-27T10:16:12Z</time>
</trkpt>
<trkpt lat="47.840305" lon="11.141593">
<ele>544.856</ele>
<time>2022-05-27T10:16:13Z</time>
</trkpt>
<trkpt lat="47.84029" lon="11.14159">
<ele>544.856</ele>
<time>2022-05-27T10:16:14Z</time>
</trkpt>
<trkpt lat="47.840279" lon="11.141583">
<ele>544.856</ele>
<time>2022-05-27T10:16:15Z</time>
</trkpt>
<trkpt lat="47.840275" lon="11.14158">
<ele>544.856</ele>
<time>2022-05-27T10:16:16Z</time>
</trkpt>
<trkpt lat="47.840187" lon="11.141528">
<ele>544.856</ele>
<time>2022-05-27T10:27:05Z</time>
</trkpt>
<trkpt lat="47.840187" lon="11.141526">
<ele>544.856</ele>
<time>2022-05-27T10:27:06Z</time>
</trkpt>
<trkpt lat="47.840225" lon="11.141541">
<ele>544.856</ele>
<time>2022-05-27T10:32:31Z</time>
</trkpt>
<trkpt lat="47.840218" lon="11.141539">
<ele>544.856</ele>
<time>2022-05-27T10:32:32Z</time>
</trkpt>
<trkpt lat="47.84021" lon="11.141535">
<ele>544.856</ele>
<time>2022-05-27T10:32:33Z</time>
</trkpt>
<trkpt lat="47.840202" lon="11.141534">
<ele>544.856</ele>
<time>2022-05-27T10:32:34Z</time>
</trkpt>
<trkpt lat="47.840191" lon="11.141532">
<ele>544.856</ele>
<time>2022-05-27T10:32:35Z</time>
</trkpt>
<trkpt lat="47.840183" lon="11.141528">
<ele>544.856</ele>
<time>2022-05-27T10:32:36Z</time>
</trkpt>
<trkpt lat="47.840179" lon="11.141525">
<ele>544.856</ele>
<time>2022-05-27T10:32:37Z</time>
</trkpt>
<trkpt lat="47.840172" lon="11.141523">
<ele>544.856</ele>
<time>2022-05-27T10:32:38Z</time>
</trkpt>
<trkpt lat="47.840164" lon="11.141517">
<ele>544.856</ele>
<time>2022-05-27T10:32:39Z</time>
</trkpt>
<trkpt lat="47.840157" lon="11.141515">
<ele>544.856</ele>
<time>2022-05-27T10:32:40Z</time>
</trkpt>
<trkpt lat="47.840153" lon="11.141513">
<ele>544.856</ele>
<time>2022-05-27T10:32:41Z</time>
</trkpt>
<trkpt lat="47.840145" lon="11.141515">
<ele>544.856</ele>
<time>2022-05-27T10:32:42Z</time>
</trkpt>
<trkpt lat="47.840134" lon="11.141511">
<ele>544.856</ele>
<time>2022-05-27T10:32:43Z</time>
</trkpt>
<trkpt lat="47.840126" lon="11.141509">
<ele>544.856</ele>
<time>2022-05-27T10:32:44Z</time>
</trkpt>
<trkpt lat="47.840118" lon="11.1415">
<ele>544.856</ele>
<time>2022-05-27T10:32:45Z</time>
</trkpt>
<trkpt lat="47.840111" lon="11.141494">
<ele>544.856</ele>
<time>2022-05-27T10:32:46Z</time>
</trkpt>
<trkpt lat="47.840103" lon="11.14149">
<ele>544.856</ele>
<time>2022-05-27T10:32:47Z</time>
</trkpt>
<trkpt lat="47.840099" lon="11.141478">
<ele>544.856</ele>
<time>2022-05-27T10:32:48Z</time>
</trkpt>
<trkpt lat="47.840096" lon="11.141469">
<ele>544.856</ele>
<time>2022-05-27T10:32:49Z</time>
</trkpt>
<trkpt lat="47.840088" lon="11.141465">
<ele>544.856</ele>
<time>2022-05-27T10:32:50Z</time>
</trkpt>
<trkpt lat="47.84008" lon="11.141465">
<ele>544.856</ele>
<time>2022-05-27T10:32:51Z</time>
</trkpt>
<trkpt lat="47.840073" lon="11.14146">
<ele>544.856</ele>
<time>2022-05-27T10:32:52Z</time>
</trkpt>
<trkpt lat="47.840061" lon="11.141459">
<ele>544.856</ele>
<time>2022-05-27T10:32:53Z</time>
</trkpt>
<trkpt lat="47.840054" lon="11.14146">
<ele>544.856</ele>
<time>2022-05-27T10:32:54Z</time>
</trkpt>
<trkpt lat="47.840042" lon="11.141463">
<ele>544.856</ele>
<time>2022-05-27T10:32:55Z</time>
</trkpt>
<trkpt lat="47.840031" lon="11.141465">
<ele>544.856</ele>
<time>2022-05-27T10:32:56Z</time>
</trkpt>
<trkpt lat="47.840023" lon="11.14146">
<ele>544.856</ele>
<time>2022-05-27T10:32:57Z</time>
</trkpt>
<trkpt lat="47.840023" lon="11.141455">
<ele>544.856</ele>
<time>2022-05-27T10:32:58Z</time>
</trkpt>
<trkpt lat="47.840015" lon="11.14145">
<ele>544.856</ele>
<time>2022-05-27T10:32:59Z</time>
</trkpt>
<trkpt lat="47.840008" lon="11.141443">
<ele>544.856</ele>
<time>2022-05-27T10:33:00Z</time>
</trkpt>
<trkpt lat="47.84" lon="11.141439">
<ele>544.856</ele>
<time>2022-05-27T10:33:01Z</time>
</trkpt>
<trkpt lat="47.839989" lon="11.141438">
<ele>544.856</ele>
<time>2022-05-27T10:33:02Z</time>
</trkpt>
<trkpt lat="47.839985" lon="11.141437">
<ele>544.856</ele>
<time>2022-05-27T10:33:03Z</time>
</trkpt>
<trkpt lat="47.839977" lon="11.141438">
<ele>544.856</ele>
<time>2022-05-27T10:33:04Z</time>
</trkpt>
<trkpt lat="47.83997" lon="11.141439">
<ele>544.856</ele>
<time>2022-05-27T10:33:05Z</time>
</trkpt>
<trkpt lat="47.839962" lon="11.141438">
<ele>544.856</ele>
<time>2022-05-27T10:33:06Z</time>
</trkpt>
<trkpt lat="47.839958" lon="11.141438">
<ele>544.856</ele>
<time>2022-05-27T10:33:07Z</time>
</trkpt>
<trkpt lat="47.839951" lon="11.141436">
<ele>544.856</ele>
<time>2022-05-27T10:33:08Z</time>
</trkpt>
<trkpt lat="47.839943" lon="11.141434">
<ele>544.856</ele>
<time>2022-05-27T10:33:09Z</time>
</trkpt>
<trkpt lat="47.839935" lon="11.141425">
<ele>544.856</ele>
<time>2022-05-27T10:33:10Z</time>
</trkpt>
<trkpt lat="47.839924" lon="11.141425">
<ele>544.856</ele>
<time>2022-05-27T10:33:11Z</time>
</trkpt>
<trkpt lat="47.839912" lon="11.141423">
<ele>544.856</ele>
<time>2022-05-27T10:33:12Z</time>
</trkpt>
<trkpt lat="47.839905" lon="11.141418">
<ele>544.856</ele>
<time>2022-05-27T10:33:13Z</time>
</trkpt>
<trkpt lat="47.839897" lon="11.141415">
<ele>544.856</ele>
<time>2022-05-27T10:33:14Z</time>
</trkpt>
<trkpt lat="47.839893" lon="11.141406">
<ele>544.856</ele>
<time>2022-05-27T10:33:15Z</time>
</trkpt>
<trkpt lat="47.839886" lon="11.141402">
<ele>544.856</ele>
<time>2022-05-27T10:33:16Z</time>
</trkpt>
<trkpt lat="47.839874" lon="11.141392">
<ele>544.856</ele>
<time>2022-05-27T10:33:17Z</time>
</trkpt>
<trkpt lat="47.839867" lon="11.141387">
<ele>544.856</ele>
<time>2022-05-27T10:33:18Z</time>
</trkpt>
<trkpt lat="47.839859" lon="11.141388">
<ele>544.856</ele>
<time>2022-05-27T10:33:19Z</time>
</trkpt>
<trkpt lat="47.839844" lon="11.141385">
<ele>544.856</ele>
<time>2022-05-27T10:33:20Z</time>
</trkpt>
<trkpt lat="47.839825" lon="11.141387">
<ele>544.856</ele>
<time>2022-05-27T10:33:21Z</time>
</trkpt>
<trkpt lat="47.839813" lon="11.14139">
<ele>544.856</ele>
<time>2022-05-27T10:33:22Z</time>
</trkpt>
<trkpt lat="47.839798" lon="11.1414">
<ele>544.856</ele>
<time>2022-05-27T10:33:23Z</time>
</trkpt>
<trkpt lat="47.839783" lon="11.141417">
<ele>544.856</ele>
<time>2022-05-27T10:33:24Z</time>
</trkpt>
<trkpt lat="47.83976" lon="11.141432">
<ele>544.856</ele>
<time>2022-05-27T10:33:25Z</time>
</trkpt>
<trkpt lat="47.839748" lon="11.141441">
<ele>544.856</ele>
<time>2022-05-27T10:33:26Z</time>
</trkpt>
<trkpt lat="47.839729" lon="11.141446">
<ele>544.856</ele>
<time>2022-05-27T10:33:27Z</time>
</trkpt>
<trkpt lat="47.839722" lon="11.14145">
<ele>544.856</ele>
<time>2022-05-27T10:33:28Z</time>
</trkpt>
<trkpt lat="47.839706" lon="11.141453">
<ele>544.856</ele>
<time>2022-05-27T10:33:29Z</time>
</trkpt>
<trkpt lat="47.839695" lon="11.14145">
<ele>544.856</ele>
<time>2022-05-27T10:33:30Z</time>
</trkpt>
<trkpt lat="47.839684" lon="11.14145">
<ele>544.856</ele>
<time>2022-05-27T10:33:31Z</time>
</trkpt>
<trkpt lat="47.839668" lon="11.14145">
<ele>544.856</ele>
<time>2022-05-27T10:33:32Z</time>
</trkpt>
<trkpt lat="47.839661" lon="11.14145">
<ele>544.856</ele>
<time>2022-05-27T10:33:33Z</time>
</trkpt>
<trkpt lat="47.839649" lon="11.141445">
<ele>544.856</ele>
<time>2022-05-27T10:33:34Z</time>
</trkpt>
<trkpt lat="47.839638" lon="11.141441">
<ele>544.856</ele>
<time>2022-05-27T10:33:35Z</time>
</trkpt>
<trkpt lat="47.83963" lon="11.141437">
<ele>545.08</ele>
<time>2022-05-27T10:33:36Z</time>
</trkpt>
<trkpt lat="47.839626" lon="11.141437">
<ele>545.241</ele>
<time>2022-05-27T10:33:37Z</time>
</trkpt>
<trkpt lat="47.8396" lon="11.141425">
<ele>545.421</ele>
<time>2022-05-27T10:34:04Z</time>
</trkpt>
<trkpt lat="47.839592" lon="11.14142">
<ele>545.566</ele>
<time>2022-05-27T10:34:05Z</time>
</trkpt>
<trkpt lat="47.839584" lon="11.141417">
<ele>545.67</ele>
<time>2022-05-27T10:34:06Z</time>
</trkpt>
<trkpt lat="47.839577" lon="11.141413">
<ele>545.746</ele>
<time>2022-05-27T10:34:07Z</time>
</trkpt>
<trkpt lat="47.839573" lon="11.14141">
<ele>545.789</ele>
<time>2022-05-27T10:34:08Z</time>
</trkpt>
<trkpt lat="47.839565" lon="11.141406">
<ele>545.815</ele>
<time>2022-05-27T10:34:09Z</time>
</trkpt>
<trkpt lat="47.839565" lon="11.141404">
<ele>545.815</ele>
<time>2022-05-27T10:34:10Z</time>
</trkpt>
<trkpt lat="47.839558" lon="11.1414">
<ele>545.815</ele>
<time>2022-05-27T10:34:11Z</time>
</trkpt>
<trkpt lat="47.83955" lon="11.141397">
<ele>545.815</ele>
<time>2022-05-27T10:34:12Z</time>
</trkpt>
<trkpt lat="47.839542" lon="11.14139">
<ele>545.815</ele>
<time>2022-05-27T10:34:13Z</time>
</trkpt>
<trkpt lat="47.839542" lon="11.141387">
<ele>545.815</ele>
<time>2022-05-27T10:34:14Z</time>
</trkpt>
<trkpt lat="47.839535" lon="11.141381">
<ele>545.815</ele>
<time>2022-05-27T10:34:15Z</time>
</trkpt>
<trkpt lat="47.839527" lon="11.141322">
<ele>545.815</ele>
<time>2022-05-27T10:34:34Z</time>
</trkpt>
<trkpt lat="47.839523" lon="11.141323">
<ele>546.157</ele>
<time>2022-05-27T10:34:35Z</time>
</trkpt>
<trkpt lat="47.83952" lon="11.141322">
<ele>546.381</ele>
<time>2022-05-27T10:34:36Z</time>
</trkpt>
<trkpt lat="47.83952" lon="11.14132">
<ele>546.628</ele>
<time>2022-05-27T10:34:38Z</time>
</trkpt>
<trkpt lat="47.83952" lon="11.141323">
<ele>546.701</ele>
<time>2022-05-27T10:34:39Z</time>
</trkpt>
<trkpt lat="47.83955" lon="11.141192">
<ele>546.729</ele>
<time>2022-05-27T10:36:03Z</time>
</trkpt>
<trkpt lat="47.839546" lon="11.14118">
<ele>546.764</ele>
<time>2022-05-27T10:36:04Z</time>
</trkpt>
<trkpt lat="47.839542" lon="11.141165">
<ele>546.774</ele>
<time>2022-05-27T10:36:05Z</time>
</trkpt>
<trkpt lat="47.839539" lon="11.141155">
<ele>546.774</ele>
<time>2022-05-27T10:36:06Z</time>
</trkpt>
<trkpt lat="47.839535" lon="11.141147">
<ele>546.774</ele>
<time>2022-05-27T10:36:07Z</time>
</trkpt>
<trkpt lat="47.839542" lon="11.141129">
<ele>546.774</ele>
<time>2022-05-27T10:36:08Z</time>
</trkpt>
<trkpt lat="47.839542" lon="11.14112">
<ele>546.774</ele>
<time>2022-05-27T10:36:09Z</time>
</trkpt>
<trkpt lat="47.839542" lon="11.14111">
<ele>546.774</ele>
<time>2022-05-27T10:36:10Z</time>
</trkpt>
<trkpt lat="47.839539" lon="11.1411">
<ele>546.774</ele>
<time>2022-05-27T10:36:11Z</time>
</trkpt>
<trkpt lat="47.839539" lon="11.141098">
<ele>546.774</ele>
<time>2022-05-27T10:36:12Z</time>
</trkpt>
<trkpt lat="47.839535" lon="11.14109">
<ele>546.774</ele>
<time>2022-05-27T10:36:13Z</time>
</trkpt>
<trkpt lat="47.839531" lon="11.14108">
<ele>546.774</ele>
<time>2022-05-27T10:36:14Z</time>
</trkpt>
<trkpt lat="47.839531" lon="11.141063">
<ele>546.774</ele>
<time>2022-05-27T10:36:15Z</time>
</trkpt>
<trkpt lat="47.839531" lon="11.141048">
<ele>546.774</ele>
<time>2022-05-27T10:36:16Z</time>
</trkpt>
<trkpt lat="47.839527" lon="11.141038">
<ele>546.774</ele>
<time>2022-05-27T10:36:17Z</time>
</trkpt>
<trkpt lat="47.839531" lon="11.141029">
<ele>546.774</ele>
<time>2022-05-27T10:36:18Z</time>
</trkpt>
<trkpt lat="47.839535" lon="11.141019">
<ele>546.774</ele>
<time>2022-05-27T10:36:19Z</time>
</trkpt>
<trkpt lat="47.839531" lon="11.141006">
<ele>546.774</ele>
<time>2022-05-27T10:36:20Z</time>
</trkpt>
<trkpt lat="47.839531" lon="11.140993">
<ele>546.774</ele>
<time>2022-05-27T10:36:21Z</time>
</trkpt>
<trkpt lat="47.839527" lon="11.140982">
<ele>546.774</ele>
<time>2022-05-27T10:36:22Z</time>
</trkpt>
<trkpt lat="47.83952" lon="11.14097">
<ele>546.774</ele>
<time>2022-05-27T10:36:23Z</time>
</trkpt>
<trkpt lat="47.839516" lon="11.140956">
<ele>546.774</ele>
<time>2022-05-27T10:36:24Z</time>
</trkpt>
<trkpt lat="47.839508" lon="11.140944">
<ele>546.774</ele>
<time>2022-05-27T10:36:25Z</time>
</trkpt>
<trkpt lat="47.839523" lon="11.140912">
<ele>546.774</ele>
<time>2022-05-27T10:36:26Z</time>
</trkpt>
<trkpt lat="47.839516" lon="11.1409">
<ele>546.774</ele>
<time>2022-05-27T10:36:27Z</time>
</trkpt>
<trkpt lat="47.839531" lon="11.140866">
<ele>546.774</ele>
<time>2022-05-27T10:36:28Z</time>
</trkpt>
<trkpt lat="47.839531" lon="11.140841">
<ele>546.774</ele>
<time>2022-05-27T10:36:29Z</time>
</trkpt>
<trkpt lat="47.839535" lon="11.140817">
<ele>546.774</ele>
<time>2022-05-27T10:36:30Z</time>
</trkpt>
<trkpt lat="47.839531" lon="11.14081">
<ele>546.774</ele>
<time>2022-05-27T10:36:31Z</time>
</trkpt>
<trkpt lat="47.839531" lon="11.1408">
<ele>546.774</ele>
<time>2022-05-27T10:36:32Z</time>
</trkpt>
<trkpt lat="47.839527" lon="11.140788">
<ele>546.774</ele>
<time>2022-05-27T10:36:33Z</time>
</trkpt>
<trkpt lat="47.839516" lon="11.140776">
<ele>546.774</ele>
<time>2022-05-27T10:36:34Z</time>
</trkpt>
<trkpt lat="47.8395" lon="11.140768">
<ele>546.774</ele>
<time>2022-05-27T10:36:35Z</time>
</trkpt>
<trkpt lat="47.8395" lon="11.140763">
<ele>546.774</ele>
<time>2022-05-27T10:36:36Z</time>
</trkpt>
<trkpt lat="47.839497" lon="11.140761">
<ele>546.774</ele>
<time>2022-05-27T10:36:37Z</time>
</trkpt>
<trkpt lat="47.839489" lon="11.140761">
<ele>546.774</ele>
<time>2022-05-27T10:36:38Z</time>
</trkpt>
<trkpt lat="47.839485" lon="11.140757">
<ele>546.774</ele>
<time>2022-05-27T10:36:39Z</time>
</trkpt>
<trkpt lat="47.839436" lon="11.140697">
<ele>546.774</ele>
<time>2022-05-27T10:36:48Z</time>
</trkpt>
<trkpt lat="47.839432" lon="11.140683">
<ele>546.774</ele>
<time>2022-05-27T10:36:49Z</time>
</trkpt>
<trkpt lat="47.839432" lon="11.140674">
<ele>546.774</ele>
<time>2022-05-27T10:36:50Z</time>
</trkpt>
<trkpt lat="47.839428" lon="11.140663">
<ele>546.774</ele>
<time>2022-05-27T10:36:51Z</time>
</trkpt>
<trkpt lat="47.839424" lon="11.140645">
<ele>546.774</ele>
<time>2022-05-27T10:36:52Z</time>
</trkpt>
<trkpt lat="47.83942" lon="11.140629">
<ele>546.774</ele>
<time>2022-05-27T10:36:53Z</time>
</trkpt>
<trkpt lat="47.839417" lon="11.140612">
<ele>546.774</ele>
<time>2022-05-27T10:36:54Z</time>
</trkpt>
<trkpt lat="47.839409" lon="11.1406">
<ele>546.774</ele>
<time>2022-05-27T10:36:55Z</time>
</trkpt>
<trkpt lat="47.839401" lon="11.140587">
<ele>546.774</ele>
<time>2022-05-27T10:36:56Z</time>
</trkpt>
<trkpt lat="47.839394" lon="11.140578">
<ele>546.774</ele>
<time>2022-05-27T10:36:57Z</time>
</trkpt>
<trkpt lat="47.839371" lon="11.140538">
<ele>546.774</ele>
<time>2022-05-27T10:37:01Z</time>
</trkpt>
<trkpt lat="47.839363" lon="11.140531">
<ele>546.774</ele>
<time>2022-05-27T10:37:02Z</time>
</trkpt>
<trkpt lat="47.839352" lon="11.140531">
<ele>546.525</ele>
<time>2022-05-27T10:37:03Z</time>
</trkpt>
<trkpt lat="47.83934" lon="11.140525">
<ele>546.348</ele>
<time>2022-05-27T10:37:04Z</time>
</trkpt>
<trkpt lat="47.839333" lon="11.14052">
<ele>546.185</ele>
<time>2022-05-27T10:37:05Z</time>
</trkpt>
<trkpt lat="47.839321" lon="11.140513">
<ele>546.057</ele>
<time>2022-05-27T10:37:06Z</time>
</trkpt>
<trkpt lat="47.839302" lon="11.140508">
<ele>545.968</ele>
<time>2022-05-27T10:37:07Z</time>
</trkpt>
<trkpt lat="47.839283" lon="11.14051">
<ele>545.902</ele>
<time>2022-05-27T10:37:08Z</time>
</trkpt>
<trkpt lat="47.839272" lon="11.140501">
<ele>545.865</ele>
<time>2022-05-27T10:37:09Z</time>
</trkpt>
<trkpt lat="47.83926" lon="11.140493">
<ele>545.815</ele>
<time>2022-05-27T10:37:10Z</time>
</trkpt>
<trkpt lat="47.839249" lon="11.140487">
<ele>545.815</ele>
<time>2022-05-27T10:37:11Z</time>
</trkpt>
<trkpt lat="47.839237" lon="11.14048">
<ele>545.815</ele>
<time>2022-05-27T10:37:12Z</time>
</trkpt>
<trkpt lat="47.839211" lon="11.140475">
<ele>545.815</ele>
<time>2022-05-27T10:37:13Z</time>
</trkpt>
<trkpt lat="47.839188" lon="11.140473">
<ele>545.815</ele>
<time>2022-05-27T10:37:14Z</time>
</trkpt>
<trkpt lat="47.839165" lon="11.140475">
<ele>545.815</ele>
<time>2022-05-27T10:37:15Z</time>
</trkpt>
<trkpt lat="47.839142" lon="11.140478">
<ele>545.815</ele>
<time>2022-05-27T10:37:16Z</time>
</trkpt>
<trkpt lat="47.839123" lon="11.140489">
<ele>545.815</ele>
<time>2022-05-27T10:37:17Z</time>
</trkpt>
<trkpt lat="47.8391" lon="11.140495">
<ele>545.815</ele>
<time>2022-05-27T10:37:18Z</time>
</trkpt>
<trkpt lat="47.839069" lon="11.140499">
<ele>545.815</ele>
<time>2022-05-27T10:37:19Z</time>
</trkpt>
<trkpt lat="47.839043" lon="11.140497">
<ele>545.815</ele>
<time>2022-05-27T10:37:20Z</time>
</trkpt>
<trkpt lat="47.839016" lon="11.140491">
<ele>546.113</ele>
<time>2022-05-27T10:37:21Z</time>
</trkpt>
<trkpt lat="47.838997" lon="11.14048">
<ele>546.344</ele>
<time>2022-05-27T10:37:22Z</time>
</trkpt>
<trkpt lat="47.83897" lon="11.14047">
<ele>546.528</ele>
<time>2022-05-27T10:37:23Z</time>
</trkpt>
<trkpt lat="47.838947" lon="11.140464">
<ele>546.655</ele>
<time>2022-05-27T10:37:24Z</time>
</trkpt>
<trkpt lat="47.838924" lon="11.140457">
<ele>546.773</ele>
<time>2022-05-27T10:37:25Z</time>
</trkpt>
<trkpt lat="47.838909" lon="11.140459">
<ele>546.859</ele>
<time>2022-05-27T10:37:26Z</time>
</trkpt>
<trkpt lat="47.838894" lon="11.14046">
<ele>546.915</ele>
<time>2022-05-27T10:37:27Z</time>
</trkpt>
<trkpt lat="47.838882" lon="11.140475">
<ele>546.948</ele>
<time>2022-05-27T10:37:28Z</time>
</trkpt>
<trkpt lat="47.838863" lon="11.140491">
<ele>546.948</ele>
<time>2022-05-27T10:37:29Z</time>
</trkpt>
<trkpt lat="47.838852" lon="11.140501">
<ele>546.948</ele>
<time>2022-05-27T10:37:30Z</time>
</trkpt>
<trkpt lat="47.838837" lon="11.140515">
<ele>546.948</ele>
<time>2022-05-27T10:37:31Z</time>
</trkpt>
<trkpt lat="47.83881" lon="11.140543">
<ele>546.948</ele>
<time>2022-05-27T10:37:32Z</time>
</trkpt>
<trkpt lat="47.838783" lon="11.140573">
<ele>546.948</ele>
<time>2022-05-27T10:37:33Z</time>
</trkpt>
<trkpt lat="47.838749" lon="11.140605">
<ele>546.948</ele>
<time>2022-05-27T10:37:34Z</time>
</trkpt>
<trkpt lat="47.838715" lon="11.140635">
<ele>546.948</ele>
<time>2022-05-27T10:37:35Z</time>
</trkpt>
<trkpt lat="47.838676" lon="11.140643">
<ele>546.948</ele>
<time>2022-05-27T10:37:36Z</time>
</trkpt>
<trkpt lat="47.83865" lon="11.140638">
<ele>546.948</ele>
<time>2022-05-27T10:37:37Z</time>
</trkpt>
<trkpt lat="47.838631" lon="11.140634">
<ele>546.948</ele>
<time>2022-05-27T10:37:38Z</time>
</trkpt>
<trkpt lat="47.838608" lon="11.140622">
<ele>546.948</ele>
<time>2022-05-27T10:37:39Z</time>
</trkpt>
<trkpt lat="47.838585" lon="11.140606">
<ele>546.948</ele>
<time>2022-05-27T10:37:40Z</time>
</trkpt>
<trkpt lat="47.838558" lon="11.140595">
<ele>546.948</ele>
<time>2022-05-27T10:37:41Z</time>
</trkpt>
<trkpt lat="47.838528" lon="11.140578">
<ele>546.948</ele>
<time>2022-05-27T10:37:42Z</time>
</trkpt>
<trkpt lat="47.838501" lon="11.140569">
<ele>546.948</ele>
<time>2022-05-27T10:37:43Z</time>
</trkpt>
<trkpt lat="47.83847" lon="11.140558">
<ele>546.948</ele>
<time>2022-05-27T10:37:44Z</time>
</trkpt>
<trkpt lat="47.838448" lon="11.14055">
<ele>546.948</ele>
<time>2022-05-27T10:37:45Z</time>
</trkpt>
<trkpt lat="47.838428" lon="11.140549">
<ele>546.948</ele>
<time>2022-05-27T10:37:46Z</time>
</trkpt>
<trkpt lat="47.838421" lon="11.140527">
<ele>546.948</ele>
<time>2022-05-27T10:37:47Z</time>
</trkpt>
<trkpt lat="47.838406" lon="11.140507">
<ele>546.948</ele>
<time>2022-05-27T10:37:48Z</time>
</trkpt>
<trkpt lat="47.83839" lon="11.140483">
<ele>546.948</ele>
<time>2022-05-27T10:37:49Z</time>
</trkpt>
<trkpt lat="47.838375" lon="11.140457">
<ele>546.948</ele>
<time>2022-05-27T10:37:50Z</time>
</trkpt>
<trkpt lat="47.83836" lon="11.14044">
<ele>546.714</ele>
<time>2022-05-27T10:37:51Z</time>
</trkpt>
<trkpt lat="47.838345" lon="11.14042">
<ele>546.518</ele>
<time>2022-05-27T10:37:52Z</time>
</trkpt>
<trkpt lat="47.838352" lon="11.140396">
<ele>546.355</ele>
<time>2022-05-27T10:37:53Z</time>
</trkpt>
<trkpt lat="47.838364" lon="11.140378">
<ele>546.244</ele>
<time>2022-05-27T10:37:54Z</time>
</trkpt>
<trkpt lat="47.838371" lon="11.14035">
<ele>546.138</ele>
<time>2022-05-27T10:37:55Z</time>
</trkpt>
<trkpt lat="47.838383" lon="11.140324">
<ele>546.062</ele>
<time>2022-05-27T10:37:56Z</time>
</trkpt>
<trkpt lat="47.838394" lon="11.140288">
<ele>546.014</ele>
<time>2022-05-27T10:37:57Z</time>
</trkpt>
<trkpt lat="47.838406" lon="11.140248">
<ele>545.989</ele>
<time>2022-05-27T10:37:58Z</time>
</trkpt>
<trkpt lat="47.838406" lon="11.140193">
<ele>545.989</ele>
<time>2022-05-27T10:37:59Z</time>
</trkpt>
<trkpt lat="47.838413" lon="11.140157">
<ele>545.989</ele>
<time>2022-05-27T10:38:00Z</time>
</trkpt>
<trkpt lat="47.838425" lon="11.140128">
<ele>545.989</ele>
<time>2022-05-27T10:38:01Z</time>
</trkpt>
<trkpt lat="47.838436" lon="11.140095">
<ele>545.989</ele>
<time>2022-05-27T10:38:02Z</time>
</trkpt>
<trkpt lat="47.838448" lon="11.140063">
<ele>545.774</ele>
<time>2022-05-27T10:38:03Z</time>
</trkpt>
<trkpt lat="47.838459" lon="11.14003">
<ele>545.627</ele>
<time>2022-05-27T10:38:04Z</time>
</trkpt>
<trkpt lat="47.83847" lon="11.140007">
<ele>545.487</ele>
<time>2022-05-27T10:38:05Z</time>
</trkpt>
<trkpt lat="47.838482" lon="11.139985">
<ele>545.369</ele>
<time>2022-05-27T10:38:06Z</time>
</trkpt>
<trkpt lat="47.83849" lon="11.139963">
<ele>545.284</ele>
<time>2022-05-27T10:38:07Z</time>
</trkpt>
<trkpt lat="47.838493" lon="11.13995">
<ele>544.963</ele>
<time>2022-05-27T10:38:08Z</time>
</trkpt>
<trkpt lat="47.83849" lon="11.139935">
<ele>544.716</ele>
<time>2022-05-27T10:38:09Z</time>
</trkpt>
<trkpt lat="47.838493" lon="11.139915">
<ele>544.533</ele>
<time>2022-05-27T10:38:10Z</time>
</trkpt>
<trkpt lat="47.83849" lon="11.139892">
<ele>544.337</ele>
<time>2022-05-27T10:38:11Z</time>
</trkpt>
<trkpt lat="47.838486" lon="11.139883">
<ele>544.237</ele>
<time>2022-05-27T10:38:12Z</time>
</trkpt>
<trkpt lat="47.83849" lon="11.139885">
<ele>544.168</ele>
<time>2022-05-27T10:38:13Z</time>
</trkpt>
<trkpt lat="47.838478" lon="11.139848">
<ele>544.109</ele>
<time>2022-05-27T10:38:33Z</time>
</trkpt>
<trkpt lat="47.838486" lon="11.139843">
<ele>544.071</ele>
<time>2022-05-27T10:38:34Z</time>
</trkpt>
<trkpt lat="47.83849" lon="11.139839">
<ele>544.071</ele>
<time>2022-05-27T10:38:35Z</time>
</trkpt>
<trkpt lat="47.838497" lon="11.139831">
<ele>544.071</ele>
<time>2022-05-27T10:38:36Z</time>
</trkpt>
<trkpt lat="47.838509" lon="11.139818">
<ele>544.071</ele>
<time>2022-05-27T10:38:37Z</time>
</trkpt>
<trkpt lat="47.838524" lon="11.139812">
<ele>544.071</ele>
<time>2022-05-27T10:38:38Z</time>
</trkpt>
<trkpt lat="47.838535" lon="11.139807">
<ele>544.071</ele>
<time>2022-05-27T10:38:39Z</time>
</trkpt>
<trkpt lat="47.838551" lon="11.1398">
<ele>544.071</ele>
<time>2022-05-27T10:38:40Z</time>
</trkpt>
<trkpt lat="47.838562" lon="11.139795">
<ele>544.071</ele>
<time>2022-05-27T10:38:41Z</time>
</trkpt>
<trkpt lat="47.83857" lon="11.139785">
<ele>544.071</ele>
<time>2022-05-27T10:38:42Z</time>
</trkpt>
<trkpt lat="47.838577" lon="11.139774">
<ele>544.071</ele>
<time>2022-05-27T10:38:43Z</time>
</trkpt>
<trkpt lat="47.838589" lon="11.139766">
<ele>544.071</ele>
<time>2022-05-27T10:38:44Z</time>
</trkpt>
<trkpt lat="47.838589" lon="11.139767">
<ele>544.071</ele>
<time>2022-05-27T10:38:45Z</time>
</trkpt>
<trkpt lat="47.838608" lon="11.139764">
<ele>544.071</ele>
<time>2022-05-27T10:38:46Z</time>
</trkpt>
<trkpt lat="47.838619" lon="11.139776">
<ele>544.071</ele>
<time>2022-05-27T10:38:47Z</time>
</trkpt>
<trkpt lat="47.838646" lon="11.139778">
<ele>544.071</ele>
<time>2022-05-27T10:38:48Z</time>
</trkpt>
<trkpt lat="47.838657" lon="11.139776">
<ele>544.071</ele>
<time>2022-05-27T10:38:49Z</time>
</trkpt>
<trkpt lat="47.838673" lon="11.139755">
<ele>544.071</ele>
<time>2022-05-27T10:38:50Z</time>
</trkpt>
<trkpt lat="47.838696" lon="11.139713">
<ele>544.071</ele>
<time>2022-05-27T10:38:51Z</time>
</trkpt>
<trkpt lat="47.838722" lon="11.139655">
<ele>543.744</ele>
<time>2022-05-27T10:38:52Z</time>
</trkpt>
<trkpt lat="47.838741" lon="11.139588">
<ele>543.577</ele>
<time>2022-05-27T10:38:53Z</time>
</trkpt>
<trkpt lat="47.83876" lon="11.139508">
<ele>543.411</ele>
<time>2022-05-27T10:38:54Z</time>
</trkpt>
<trkpt lat="47.838783" lon="11.139432">
<ele>543.304</ele>
<time>2022-05-27T10:38:55Z</time>
</trkpt>
<trkpt lat="47.838802" lon="11.139357">
<ele>542.937</ele>
<time>2022-05-27T10:38:56Z</time>
</trkpt>
<trkpt lat="47.838818" lon="11.139282">
<ele>542.683</ele>
<time>2022-05-27T10:38:57Z</time>
</trkpt>
<trkpt lat="47.838837" lon="11.139205">
<ele>542.537</ele>
<time>2022-05-27T10:38:58Z</time>
</trkpt>
<trkpt lat="47.838856" lon="11.139132">
<ele>542.438</ele>
<time>2022-05-27T10:38:59Z</time>
</trkpt>
<trkpt lat="47.838875" lon="11.139062">
<ele>542.33</ele>
<time>2022-05-27T10:39:00Z</time>
</trkpt>
<trkpt lat="47.838894" lon="11.138997">
<ele>542.286</ele>
<time>2022-05-27T10:39:01Z</time>
</trkpt>
<trkpt lat="47.838909" lon="11.138928">
<ele>542.262</ele>
<time>2022-05-27T10:39:02Z</time>
</trkpt>
<trkpt lat="47.838921" lon="11.138864">
<ele>542.241</ele>
<time>2022-05-27T10:39:03Z</time>
</trkpt>
<trkpt lat="47.83894" lon="11.138802">
<ele>542.241</ele>
<time>2022-05-27T10:39:04Z</time>
</trkpt>
<trkpt lat="47.838955" lon="11.138748">
<ele>542.241</ele>
<time>2022-05-27T10:39:05Z</time>
</trkpt>
<trkpt lat="47.838966" lon="11.138695">
<ele>542.241</ele>
<time>2022-05-27T10:39:06Z</time>
</trkpt>
<trkpt lat="47.838974" lon="11.138632">
<ele>542.241</ele>
<time>2022-05-27T10:39:07Z</time>
</trkpt>
<trkpt lat="47.838985" lon="11.138572">
<ele>542.241</ele>
<time>2022-05-27T10:39:08Z</time>
</trkpt>
<trkpt lat="47.838997" lon="11.138516">
<ele>542.241</ele>
<time>2022-05-27T10:39:09Z</time>
</trkpt>
<trkpt lat="47.839008" lon="11.138465">
<ele>542.241</ele>
<time>2022-05-27T10:39:10Z</time>
</trkpt>
<trkpt lat="47.83902" lon="11.138414">
<ele>542.241</ele>
<time>2022-05-27T10:39:11Z</time>
</trkpt>
<trkpt lat="47.839031" lon="11.138367">
<ele>542.241</ele>
<time>2022-05-27T10:39:12Z</time>
</trkpt>
<trkpt lat="47.839035" lon="11.138315">
<ele>542.241</ele>
<time>2022-05-27T10:39:13Z</time>
</trkpt>
<trkpt lat="47.839039" lon="11.138264">
<ele>542.241</ele>
<time>2022-05-27T10:39:14Z</time>
</trkpt>
<trkpt lat="47.839046" lon="11.138209">
<ele>542.241</ele>
<time>2022-05-27T10:39:15Z</time>
</trkpt>
<trkpt lat="47.839062" lon="11.13815">
<ele>542.241</ele>
<time>2022-05-27T10:39:16Z</time>
</trkpt>
<trkpt lat="47.839073" lon="11.138092">
<ele>542.241</ele>
<time>2022-05-27T10:39:17Z</time>
</trkpt>
<trkpt lat="47.839088" lon="11.138035">
<ele>542.241</ele>
<time>2022-05-27T10:39:18Z</time>
</trkpt>
<trkpt lat="47.839111" lon="11.137977">
<ele>542.241</ele>
<time>2022-05-27T10:39:19Z</time>
</trkpt>
<trkpt lat="47.83913" lon="11.137918">
<ele>542.241</ele>
<time>2022-05-27T10:39:20Z</time>
</trkpt>
<trkpt lat="47.839134" lon="11.137856">
<ele>542.241</ele>
<time>2022-05-27T10:39:21Z</time>
</trkpt>
<trkpt lat="47.839134" lon="11.137794">
<ele>542.241</ele>
<time>2022-05-27T10:39:22Z</time>
</trkpt>
<trkpt lat="47.839142" lon="11.137736">
<ele>542.241</ele>
<time>2022-05-27T10:39:23Z</time>
</trkpt>
<trkpt lat="47.839157" lon="11.137687">
<ele>542.241</ele>
<time>2022-05-27T10:39:24Z</time>
</trkpt>
<trkpt lat="47.839165" lon="11.13764">
<ele>542.241</ele>
<time>2022-05-27T10:39:25Z</time>
</trkpt>
<trkpt lat="47.839157" lon="11.137589">
<ele>542.241</ele>
<time>2022-05-27T10:39:26Z</time>
</trkpt>
<trkpt lat="47.839153" lon="11.137545">
<ele>542.241</ele>
<time>2022-05-27T10:39:27Z</time>
</trkpt>
<trkpt lat="47.839153" lon="11.1375">
<ele>542.241</ele>
<time>2022-05-27T10:39:28Z</time>
</trkpt>
<trkpt lat="47.839142" lon="11.137451">
<ele>542.241</ele>
<time>2022-05-27T10:39:29Z</time>
</trkpt>
<trkpt lat="47.839123" lon="11.137417">
<ele>541.944</ele>
<time>2022-05-27T10:39:30Z</time>
</trkpt>
<trkpt lat="47.839092" lon="11.13739">
<ele>541.697</ele>
<time>2022-05-27T10:39:31Z</time>
</trkpt>
<trkpt lat="47.839066" lon="11.137368">
<ele>541.496</ele>
<time>2022-05-27T10:39:32Z</time>
</trkpt>
<trkpt lat="47.839027" lon="11.137352">
<ele>541.36</ele>
<time>2022-05-27T10:39:33Z</time>
</trkpt>
<trkpt lat="47.838989" lon="11.137335">
<ele>541.217</ele>
<time>2022-05-27T10:39:34Z</time>
</trkpt>
<trkpt lat="47.838955" lon="11.137321">
<ele>541.109</ele>
<time>2022-05-27T10:39:35Z</time>
</trkpt>
<trkpt lat="47.838928" lon="11.137304">
<ele>541.05</ele>
<time>2022-05-27T10:39:36Z</time>
</trkpt>
<trkpt lat="47.838905" lon="11.137285">
<ele>541.021</ele>
<time>2022-05-27T10:39:37Z</time>
</trkpt>
<trkpt lat="47.838882" lon="11.137268">
<ele>541.021</ele>
<time>2022-05-27T10:39:38Z</time>
</trkpt>
<trkpt lat="47.838863" lon="11.137248">
<ele>541.021</ele>
<time>2022-05-27T10:39:39Z</time>
</trkpt>
<trkpt lat="47.838848" lon="11.137227">
<ele>541.021</ele>
<time>2022-05-27T10:39:40Z</time>
</trkpt>
<trkpt lat="47.838837" lon="11.137208">
<ele>541.021</ele>
<time>2022-05-27T10:39:41Z</time>
</trkpt>
<trkpt lat="47.838829" lon="11.137183">
<ele>541.021</ele>
<time>2022-05-27T10:39:42Z</time>
</trkpt>
<trkpt lat="47.838833" lon="11.137156">
<ele>541.021</ele>
<time>2022-05-27T10:39:43Z</time>
</trkpt>
<trkpt lat="47.83884" lon="11.137126">
<ele>541.021</ele>
<time>2022-05-27T10:39:44Z</time>
</trkpt>
<trkpt lat="47.838852" lon="11.137092">
<ele>541.021</ele>
<time>2022-05-27T10:39:45Z</time>
</trkpt>
<trkpt lat="47.838871" lon="11.137052">
<ele>541.021</ele>
<time>2022-05-27T10:39:46Z</time>
</trkpt>
<trkpt lat="47.83889" lon="11.137009">
<ele>541.021</ele>
<time>2022-05-27T10:39:47Z</time>
</trkpt>
<trkpt lat="47.838909" lon="11.136967">
<ele>541.021</ele>
<time>2022-05-27T10:39:48Z</time>
</trkpt>
<trkpt lat="47.838924" lon="11.136918">
<ele>541.021</ele>
<time>2022-05-27T10:39:49Z</time>
</trkpt>
<trkpt lat="47.83894" lon="11.136872">
<ele>541.021</ele>
<time>2022-05-27T10:39:50Z</time>
</trkpt>
<trkpt lat="47.838947" lon="11.136827">
<ele>541.021</ele>
<time>2022-05-27T10:39:51Z</time>
</trkpt>
<trkpt lat="47.838955" lon="11.13678">
<ele>541.021</ele>
<time>2022-05-27T10:39:52Z</time>
</trkpt>
<trkpt lat="47.838959" lon="11.13673">
<ele>541.021</ele>
<time>2022-05-27T10:39:53Z</time>
</trkpt>
<trkpt lat="47.83897" lon="11.13668">
<ele>541.021</ele>
<time>2022-05-27T10:39:54Z</time>
</trkpt>
<trkpt lat="47.838978" lon="11.136632">
<ele>541.021</ele>
<time>2022-05-27T10:39:55Z</time>
</trkpt>
<trkpt lat="47.838982" lon="11.136588">
<ele>541.021</ele>
<time>2022-05-27T10:39:56Z</time>
</trkpt>
<trkpt lat="47.838993" lon="11.136546">
<ele>541.021</ele>
<time>2022-05-27T10:39:57Z</time>
</trkpt>
<trkpt lat="47.839005" lon="11.136506">
<ele>541.021</ele>
<time>2022-05-27T10:39:58Z</time>
</trkpt>
<trkpt lat="47.839016" lon="11.136466">
<ele>541.021</ele>
<time>2022-05-27T10:39:59Z</time>
</trkpt>
<trkpt lat="47.839024" lon="11.136425">
<ele>541.021</ele>
<time>2022-05-27T10:40:00Z</time>
</trkpt>
<trkpt lat="47.839031" lon="11.136382">
<ele>541.021</ele>
<time>2022-05-27T10:40:01Z</time>
</trkpt>
<trkpt lat="47.839043" lon="11.136353">
<ele>541.021</ele>
<time>2022-05-27T10:40:02Z</time>
</trkpt>
<trkpt lat="47.839058" lon="11.136332">
<ele>541.021</ele>
<time>2022-05-27T10:40:03Z</time>
</trkpt>
<trkpt lat="47.839073" lon="11.136305">
<ele>541.021</ele>
<time>2022-05-27T10:40:04Z</time>
</trkpt>
<trkpt lat="47.839081" lon="11.136282">
<ele>541.021</ele>
<time>2022-05-27T10:40:05Z</time>
</trkpt>
<trkpt lat="47.839085" lon="11.13626">
<ele>541.021</ele>
<time>2022-05-27T10:40:06Z</time>
</trkpt>
<trkpt lat="47.839092" lon="11.136244">
<ele>541.021</ele>
<time>2022-05-27T10:40:07Z</time>
</trkpt>
<trkpt lat="47.839108" lon="11.136219">
<ele>541.021</ele>
<time>2022-05-27T10:40:08Z</time>
</trkpt>
<trkpt lat="47.839115" lon="11.136193">
<ele>541.021</ele>
<time>2022-05-27T10:40:09Z</time>
</trkpt>
<trkpt lat="47.839111" lon="11.136158">
<ele>541.021</ele>
<time>2022-05-27T10:40:10Z</time>
</trkpt>
<trkpt lat="47.83913" lon="11.136142">
<ele>541.021</ele>
<time>2022-05-27T10:40:11Z</time>
</trkpt>
<trkpt lat="47.839142" lon="11.136123">
<ele>541.021</ele>
<time>2022-05-27T10:40:12Z</time>
</trkpt>
<trkpt lat="47.839161" lon="11.136091">
<ele>541.021</ele>
<time>2022-05-27T10:40:13Z</time>
</trkpt>
<trkpt lat="47.839165" lon="11.136064">
<ele>541.021</ele>
<time>2022-05-27T10:40:14Z</time>
</trkpt>
<trkpt lat="47.839172" lon="11.136041">
<ele>541.021</ele>
<time>2022-05-27T10:40:15Z</time>
</trkpt>
<trkpt lat="47.839176" lon="11.136013">
<ele>541.021</ele>
<time>2022-05-27T10:40:16Z</time>
</trkpt>
<trkpt lat="47.839188" lon="11.135982">
<ele>541.021</ele>
<time>2022-05-27T10:40:17Z</time>
</trkpt>
<trkpt lat="47.839199" lon="11.135941">
<ele>541.021</ele>
<time>2022-05-27T10:40:18Z</time>
</trkpt>
<trkpt lat="47.839207" lon="11.135897">
<ele>541.021</ele>
<time>2022-05-27T10:40:19Z</time>
</trkpt>
<trkpt lat="47.839211" lon="11.135857">
<ele>541.021</ele>
<time>2022-05-27T10:40:20Z</time>
</trkpt>
<trkpt lat="47.839218" lon="11.135815">
<ele>541.301</ele>
<time>2022-05-27T10:40:21Z</time>
</trkpt>
<trkpt lat="47.839226" lon="11.135773">
<ele>541.532</ele>
<time>2022-05-27T10:40:22Z</time>
</trkpt>
<trkpt lat="47.839233" lon="11.135729">
<ele>541.671</ele>
<time>2022-05-27T10:40:23Z</time>
</trkpt>
<trkpt lat="47.839241" lon="11.13568">
<ele>541.811</ele>
<time>2022-05-27T10:40:24Z</time>
</trkpt>
<trkpt lat="47.839252" lon="11.135643">
<ele>541.911</ele>
<time>2022-05-27T10:40:25Z</time>
</trkpt>
<trkpt lat="47.839264" lon="11.135605">
<ele>541.986</ele>
<time>2022-05-27T10:40:26Z</time>
</trkpt>
<trkpt lat="47.839272" lon="11.135563">
<ele>542.041</ele>
<time>2022-05-27T10:40:27Z</time>
</trkpt>
<trkpt lat="47.839283" lon="11.13552">
<ele>542.067</ele>
<time>2022-05-27T10:40:28Z</time>
</trkpt>
<trkpt lat="47.839298" lon="11.135475">
<ele>542.067</ele>
<time>2022-05-27T10:40:29Z</time>
</trkpt>
<trkpt lat="47.83931" lon="11.13543">
<ele>542.067</ele>
<time>2022-05-27T10:40:30Z</time>
</trkpt>
<trkpt lat="47.839321" lon="11.135386">
<ele>542.067</ele>
<time>2022-05-27T10:40:31Z</time>
</trkpt>
<trkpt lat="47.839333" lon="11.135347">
<ele>542.067</ele>
<time>2022-05-27T10:40:32Z</time>
</trkpt>
<trkpt lat="47.839344" lon="11.135302">
<ele>542.067</ele>
<time>2022-05-27T10:40:33Z</time>
</trkpt>
<trkpt lat="47.839355" lon="11.135251">
<ele>542.067</ele>
<time>2022-05-27T10:40:34Z</time>
</trkpt>
<trkpt lat="47.839371" lon="11.135201">
<ele>542.067</ele>
<time>2022-05-27T10:40:35Z</time>
</trkpt>
<trkpt lat="47.83939" lon="11.135144">
<ele>542.067</ele>
<time>2022-05-27T10:40:36Z</time>
</trkpt>
<trkpt lat="47.839405" lon="11.135087">
<ele>542.067</ele>
<time>2022-05-27T10:40:37Z</time>
</trkpt>
<trkpt lat="47.839432" lon="11.135029">
<ele>542.067</ele>
<time>2022-05-27T10:40:38Z</time>
</trkpt>
<trkpt lat="47.839447" lon="11.134976">
<ele>542.067</ele>
<time>2022-05-27T10:40:39Z</time>
</trkpt>
<trkpt lat="47.839466" lon="11.134929">
<ele>542.067</ele>
<time>2022-05-27T10:40:40Z</time>
</trkpt>
<trkpt lat="47.839478" lon="11.134878">
<ele>542.067</ele>
<time>2022-05-27T10:40:41Z</time>
</trkpt>
<trkpt lat="47.8395" lon="11.134822">
<ele>542.067</ele>
<time>2022-05-27T10:40:42Z</time>
</trkpt>
<trkpt lat="47.839512" lon="11.134765">
<ele>542.067</ele>
<time>2022-05-27T10:40:43Z</time>
</trkpt>
<trkpt lat="47.839535" lon="11.134713">
<ele>542.067</ele>
<time>2022-05-27T10:40:44Z</time>
</trkpt>
<trkpt lat="47.83955" lon="11.134662">
<ele>542.067</ele>
<time>2022-05-27T10:40:45Z</time>
</trkpt>
<trkpt lat="47.839569" lon="11.134615">
<ele>542.067</ele>
<time>2022-05-27T10:40:46Z</time>
</trkpt>
<trkpt lat="47.839581" lon="11.134565">
<ele>542.067</ele>
<time>2022-05-27T10:40:47Z</time>
</trkpt>
<trkpt lat="47.8396" lon="11.134518">
<ele>542.067</ele>
<time>2022-05-27T10:40:48Z</time>
</trkpt>
<trkpt lat="47.839607" lon="11.134468">
<ele>542.067</ele>
<time>2022-05-27T10:40:49Z</time>
</trkpt>
<trkpt lat="47.839622" lon="11.134418">
<ele>542.067</ele>
<time>2022-05-27T10:40:50Z</time>
</trkpt>
<trkpt lat="47.839642" lon="11.134363">
<ele>542.067</ele>
<time>2022-05-27T10:40:51Z</time>
</trkpt>
<trkpt lat="47.839664" lon="11.134315">
<ele>542.067</ele>
<time>2022-05-27T10:40:52Z</time>
</trkpt>
<trkpt lat="47.83968" lon="11.134274">
<ele>542.067</ele>
<time>2022-05-27T10:40:53Z</time>
</trkpt>
<trkpt lat="47.839695" lon="11.134245">
<ele>542.067</ele>
<time>2022-05-27T10:40:54Z</time>
</trkpt>
<trkpt lat="47.839718" lon="11.134212">
<ele>542.067</ele>
<time>2022-05-27T10:40:55Z</time>
</trkpt>
<trkpt lat="47.839741" lon="11.134171">
<ele>542.067</ele>
<time>2022-05-27T10:40:56Z</time>
</trkpt>
<trkpt lat="47.83976" lon="11.134134">
<ele>542.067</ele>
<time>2022-05-27T10:40:57Z</time>
</trkpt>
<trkpt lat="47.839783" lon="11.134093">
<ele>542.067</ele>
<time>2022-05-27T10:40:58Z</time>
</trkpt>
<trkpt lat="47.839794" lon="11.134045">
<ele>542.067</ele>
<time>2022-05-27T10:40:59Z</time>
</trkpt>
<trkpt lat="47.839806" lon="11.133991">
<ele>542.067</ele>
<time>2022-05-27T10:41:00Z</time>
</trkpt>
<trkpt lat="47.839809" lon="11.13395">
<ele>542.067</ele>
<time>2022-05-27T10:41:01Z</time>
</trkpt>
<trkpt lat="47.839809" lon="11.133908">
<ele>542.067</ele>
<time>2022-05-27T10:41:02Z</time>
</trkpt>
<trkpt lat="47.839813" lon="11.133865">
<ele>542.067</ele>
<time>2022-05-27T10:41:03Z</time>
</trkpt>
<trkpt lat="47.839821" lon="11.133818">
<ele>542.067</ele>
<time>2022-05-27T10:41:04Z</time>
</trkpt>
<trkpt lat="47.839825" lon="11.13377">
<ele>542.067</ele>
<time>2022-05-27T10:41:05Z</time>
</trkpt>
<trkpt lat="47.839821" lon="11.133719">
<ele>541.819</ele>
<time>2022-05-27T10:41:06Z</time>
</trkpt>
<trkpt lat="47.839813" lon="11.133669">
<ele>541.625</ele>
<time>2022-05-27T10:41:07Z</time>
</trkpt>
<trkpt lat="47.839806" lon="11.13363">
<ele>541.47</ele>
<time>2022-05-27T10:41:08Z</time>
</trkpt>
<trkpt lat="47.839806" lon="11.133588">
<ele>541.357</ele>
<time>2022-05-27T10:41:09Z</time>
</trkpt>
<trkpt lat="47.839802" lon="11.13355">
<ele>541.286</ele>
<time>2022-05-27T10:41:10Z</time>
</trkpt>
<trkpt lat="47.839798" lon="11.133514">
<ele>541.237</ele>
<time>2022-05-27T10:41:11Z</time>
</trkpt>
<trkpt lat="47.839794" lon="11.133478">
<ele>541.216</ele>
<time>2022-05-27T10:41:12Z</time>
</trkpt>
<trkpt lat="47.83979" lon="11.133449">
<ele>541.195</ele>
<time>2022-05-27T10:41:13Z</time>
</trkpt>
<trkpt lat="47.83979" lon="11.133424">
<ele>541.195</ele>
<time>2022-05-27T10:41:14Z</time>
</trkpt>
<trkpt lat="47.839779" lon="11.133384">
<ele>541.195</ele>
<time>2022-05-27T10:41:15Z</time>
</trkpt>
<trkpt lat="47.839764" lon="11.133344">
<ele>541.195</ele>
<time>2022-05-27T10:41:16Z</time>
</trkpt>
<trkpt lat="47.83976" lon="11.13331">
<ele>541.195</ele>
<time>2022-05-27T10:41:17Z</time>
</trkpt>
<trkpt lat="47.83976" lon="11.133262">
<ele>541.195</ele>
<time>2022-05-27T10:41:18Z</time>
</trkpt>
<trkpt lat="47.839771" lon="11.133217">
<ele>541.195</ele>
<time>2022-05-27T10:41:19Z</time>
</trkpt>
<trkpt lat="47.839779" lon="11.133182">
<ele>541.195</ele>
<time>2022-05-27T10:41:20Z</time>
</trkpt>
<trkpt lat="47.839775" lon="11.13316">
<ele>541.195</ele>
<time>2022-05-27T10:41:21Z</time>
</trkpt>
<trkpt lat="47.839783" lon="11.13314">
<ele>541.195</ele>
<time>2022-05-27T10:41:22Z</time>
</trkpt>
<trkpt lat="47.83979" lon="11.133119">
<ele>541.195</ele>
<time>2022-05-27T10:41:23Z</time>
</trkpt>
<trkpt lat="47.83979" lon="11.133095">
<ele>541.195</ele>
<time>2022-05-27T10:41:24Z</time>
</trkpt>
<trkpt lat="47.839794" lon="11.133075">
<ele>541.195</ele>
<time>2022-05-27T10:41:25Z</time>
</trkpt>
<trkpt lat="47.839794" lon="11.133051">
<ele>541.195</ele>
<time>2022-05-27T10:41:26Z</time>
</trkpt>
<trkpt lat="47.839802" lon="11.133034">
<ele>541.195</ele>
<time>2022-05-27T10:41:27Z</time>
</trkpt>
<trkpt lat="47.839806" lon="11.133012">
<ele>540.953</ele>
<time>2022-05-27T10:41:28Z</time>
</trkpt>
<trkpt lat="47.839817" lon="11.132983">
<ele>540.733</ele>
<time>2022-05-27T10:41:29Z</time>
</trkpt>
<trkpt lat="47.839828" lon="11.132955">
<ele>540.575</ele>
<time>2022-05-27T10:41:30Z</time>
</trkpt>
<trkpt lat="47.839836" lon="11.132932">
<ele>540.462</ele>
<time>2022-05-27T10:41:31Z</time>
</trkpt>
<trkpt lat="47.839851" lon="11.132913">
<ele>540.368</ele>
<time>2022-05-27T10:41:32Z</time>
</trkpt>
<trkpt lat="47.83987" lon="11.132894">
<ele>540.309</ele>
<time>2022-05-27T10:41:33Z</time>
</trkpt>
<trkpt lat="47.839924" lon="11.132854">
<ele>540.259</ele>
<time>2022-05-27T10:41:34Z</time>
</trkpt>
<trkpt lat="47.839962" lon="11.132835">
<ele>540.237</ele>
<time>2022-05-27T10:41:35Z</time>
</trkpt>
<trkpt lat="47.839989" lon="11.132804">
<ele>540.237</ele>
<time>2022-05-27T10:41:36Z</time>
</trkpt>
<trkpt lat="47.840012" lon="11.132769">
<ele>540.237</ele>
<time>2022-05-27T10:41:37Z</time>
</trkpt>
<trkpt lat="47.840042" lon="11.132737">
<ele>540.524</ele>
<time>2022-05-27T10:41:38Z</time>
</trkpt>
<trkpt lat="47.840088" lon="11.132705">
<ele>540.732</ele>
<time>2022-05-27T10:41:39Z</time>
</trkpt>
<trkpt lat="47.840118" lon="11.132673">
<ele>540.836</ele>
<time>2022-05-27T10:41:40Z</time>
</trkpt>
<trkpt lat="47.840153" lon="11.132638">
<ele>541.225</ele>
<time>2022-05-27T10:41:41Z</time>
</trkpt>
<trkpt lat="47.840179" lon="11.132595">
<ele>541.514</ele>
<time>2022-05-27T10:41:42Z</time>
</trkpt>
<trkpt lat="47.840187" lon="11.132548">
<ele>541.792</ele>
<time>2022-05-27T10:41:43Z</time>
</trkpt>
<trkpt lat="47.840183" lon="11.132504">
<ele>542.014</ele>
<time>2022-05-27T10:41:44Z</time>
</trkpt>
<trkpt lat="47.840187" lon="11.132463">
<ele>542.154</ele>
<time>2022-05-27T10:41:45Z</time>
</trkpt>
<trkpt lat="47.840191" lon="11.132423">
<ele>542.235</ele>
<time>2022-05-27T10:41:46Z</time>
</trkpt>
<trkpt lat="47.840195" lon="11.132381">
<ele>542.293</ele>
<time>2022-05-27T10:41:47Z</time>
</trkpt>
<trkpt lat="47.840195" lon="11.132341">
<ele>542.328</ele>
<time>2022-05-27T10:41:48Z</time>
</trkpt>
<trkpt lat="47.840187" lon="11.132307">
<ele>542.328</ele>
<time>2022-05-27T10:41:49Z</time>
</trkpt>
<trkpt lat="47.840183" lon="11.132272">
<ele>542.328</ele>
<time>2022-05-27T10:41:50Z</time>
</trkpt>
<trkpt lat="47.840183" lon="11.132232">
<ele>542.328</ele>
<time>2022-05-27T10:41:51Z</time>
</trkpt>
<trkpt lat="47.840176" lon="11.132181">
<ele>542.328</ele>
<time>2022-05-27T10:41:52Z</time>
</trkpt>
<trkpt lat="47.840168" lon="11.132132">
<ele>542.328</ele>
<time>2022-05-27T10:41:53Z</time>
</trkpt>
<trkpt lat="47.84016" lon="11.132081">
<ele>542.328</ele>
<time>2022-05-27T10:41:54Z</time>
</trkpt>
<trkpt lat="47.840153" lon="11.132037">
<ele>542.328</ele>
<time>2022-05-27T10:41:55Z</time>
</trkpt>
<trkpt lat="47.840153" lon="11.131995">
<ele>542.328</ele>
<time>2022-05-27T10:41:56Z</time>
</trkpt>
<trkpt lat="47.840153" lon="11.131953">
<ele>542.328</ele>
<time>2022-05-27T10:41:57Z</time>
</trkpt>
<trkpt lat="47.840153" lon="11.131909">
<ele>542.328</ele>
<time>2022-05-27T10:41:58Z</time>
</trkpt>
<trkpt lat="47.840149" lon="11.131868">
<ele>542.328</ele>
<time>2022-05-27T10:41:59Z</time>
</trkpt>
<trkpt lat="47.840141" lon="11.131824">
<ele>542.328</ele>
<time>2022-05-27T10:42:00Z</time>
</trkpt>
<trkpt lat="47.84013" lon="11.131773">
<ele>542.544</ele>
<time>2022-05-27T10:42:01Z</time>
</trkpt>
<trkpt lat="47.840118" lon="11.131721">
<ele>542.72</ele>
<time>2022-05-27T10:42:02Z</time>
</trkpt>
<trkpt lat="47.840115" lon="11.131659">
<ele>542.844</ele>
<time>2022-05-27T10:42:03Z</time>
</trkpt>
<trkpt lat="47.840107" lon="11.131589">
<ele>542.982</ele>
<time>2022-05-27T10:42:04Z</time>
</trkpt>
<trkpt lat="47.840107" lon="11.131519">
<ele>543.079</ele>
<time>2022-05-27T10:42:05Z</time>
</trkpt>
<trkpt lat="47.840103" lon="11.131449">
<ele>543.144</ele>
<time>2022-05-27T10:42:06Z</time>
</trkpt>
<trkpt lat="47.840099" lon="11.131375">
<ele>543.183</ele>
<time>2022-05-27T10:42:07Z</time>
</trkpt>
<trkpt lat="47.840096" lon="11.131304">
<ele>543.2</ele>
<time>2022-05-27T10:42:08Z</time>
</trkpt>
<trkpt lat="47.840096" lon="11.131232">
<ele>543.2</ele>
<time>2022-05-27T10:42:09Z</time>
</trkpt>
<trkpt lat="47.840092" lon="11.131164">
<ele>543.2</ele>
<time>2022-05-27T10:42:10Z</time>
</trkpt>
<trkpt lat="47.840092" lon="11.131095">
<ele>543.2</ele>
<time>2022-05-27T10:42:11Z</time>
</trkpt>
<trkpt lat="47.840092" lon="11.13103">
<ele>543.2</ele>
<time>2022-05-27T10:42:12Z</time>
</trkpt>
<trkpt lat="47.840088" lon="11.130964">
<ele>543.2</ele>
<time>2022-05-27T10:42:13Z</time>
</trkpt>
<trkpt lat="47.840092" lon="11.130912">
<ele>543.2</ele>
<time>2022-05-27T10:42:14Z</time>
</trkpt>
<trkpt lat="47.840088" lon="11.130866">
<ele>543.2</ele>
<time>2022-05-27T10:42:15Z</time>
</trkpt>
<trkpt lat="47.840088" lon="11.130818">
<ele>543.2</ele>
<time>2022-05-27T10:42:16Z</time>
</trkpt>
<trkpt lat="47.840088" lon="11.13077">
<ele>543.2</ele>
<time>2022-05-27T10:42:17Z</time>
</trkpt>
<trkpt lat="47.840084" lon="11.130719">
<ele>543.2</ele>
<time>2022-05-27T10:42:18Z</time>
</trkpt>
<trkpt lat="47.840076" lon="11.130663">
<ele>543.2</ele>
<time>2022-05-27T10:42:19Z</time>
</trkpt>
<trkpt lat="47.840069" lon="11.130604">
<ele>543.2</ele>
<time>2022-05-27T10:42:20Z</time>
</trkpt>
<trkpt lat="47.840061" lon="11.130547">
<ele>543.2</ele>
<time>2022-05-27T10:42:21Z</time>
</trkpt>
<trkpt lat="47.840054" lon="11.130488">
<ele>543.2</ele>
<time>2022-05-27T10:42:22Z</time>
</trkpt>
<trkpt lat="47.840046" lon="11.130425">
<ele>543.2</ele>
<time>2022-05-27T10:42:23Z</time>
</trkpt>
<trkpt lat="47.840031" lon="11.130357">
<ele>543.2</ele>
<time>2022-05-27T10:42:24Z</time>
</trkpt>
<trkpt lat="47.840019" lon="11.130294">
<ele>543.2</ele>
<time>2022-05-27T10:42:25Z</time>
</trkpt>
<trkpt lat="47.840008" lon="11.130229">
<ele>543.2</ele>
<time>2022-05-27T10:42:26Z</time>
</trkpt>
<trkpt lat="47.839989" lon="11.130165">
<ele>543.2</ele>
<time>2022-05-27T10:42:27Z</time>
</trkpt>
<trkpt lat="47.839981" lon="11.130101">
<ele>543.2</ele>
<time>2022-05-27T10:42:28Z</time>
</trkpt>
<trkpt lat="47.83997" lon="11.130038">
<ele>543.2</ele>
<time>2022-05-27T10:42:29Z</time>
</trkpt>
<trkpt lat="47.839954" lon="11.129973">
<ele>543.2</ele>
<time>2022-05-27T10:42:30Z</time>
</trkpt>
<trkpt lat="47.839939" lon="11.12991">
<ele>543.2</ele>
<time>2022-05-27T10:42:31Z</time>
</trkpt>
<trkpt lat="47.839924" lon="11.129846">
<ele>543.2</ele>
<time>2022-05-27T10:42:32Z</time>
</trkpt>
<trkpt lat="47.839912" lon="11.129782">
<ele>543.2</ele>
<time>2022-05-27T10:42:33Z</time>
</trkpt>
<trkpt lat="47.839893" lon="11.129718">
<ele>543.2</ele>
<time>2022-05-27T10:42:34Z</time>
</trkpt>
<trkpt lat="47.839882" lon="11.129655">
<ele>543.2</ele>
<time>2022-05-27T10:42:35Z</time>
</trkpt>
<trkpt lat="47.839863" lon="11.129592">
<ele>543.2</ele>
<time>2022-05-27T10:42:36Z</time>
</trkpt>
<trkpt lat="47.839851" lon="11.12953">
<ele>543.2</ele>
<time>2022-05-27T10:42:37Z</time>
</trkpt>
<trkpt lat="47.839832" lon="11.129472">
<ele>543.2</ele>
<time>2022-05-27T10:42:38Z</time>
</trkpt>
<trkpt lat="47.839817" lon="11.12941">
<ele>543.2</ele>
<time>2022-05-27T10:42:39Z</time>
</trkpt>
<trkpt lat="47.839798" lon="11.129349">
<ele>543.2</ele>
<time>2022-05-27T10:42:40Z</time>
</trkpt>
<trkpt lat="47.839783" lon="11.129285">
<ele>543.2</ele>
<time>2022-05-27T10:42:41Z</time>
</trkpt>
<trkpt lat="47.83976" lon="11.129223">
<ele>543.2</ele>
<time>2022-05-27T10:42:42Z</time>
</trkpt>
<trkpt lat="47.839748" lon="11.129162">
<ele>543.2</ele>
<time>2022-05-27T10:42:43Z</time>
</trkpt>
<trkpt lat="47.839729" lon="11.129102">
<ele>543.2</ele>
<time>2022-05-27T10:42:44Z</time>
</trkpt>
<trkpt lat="47.839718" lon="11.129044">
<ele>543.2</ele>
<time>2022-05-27T10:42:45Z</time>
</trkpt>
<trkpt lat="47.839699" lon="11.128984">
<ele>543.2</ele>
<time>2022-05-27T10:42:46Z</time>
</trkpt>
<trkpt lat="47.839684" lon="11.128925">
<ele>543.2</ele>
<time>2022-05-27T10:42:47Z</time>
</trkpt>
<trkpt lat="47.839664" lon="11.128867">
<ele>543.2</ele>
<time>2022-05-27T10:42:48Z</time>
</trkpt>
<trkpt lat="47.839638" lon="11.128808">
<ele>543.2</ele>
<time>2022-05-27T10:42:49Z</time>
</trkpt>
<trkpt lat="47.839619" lon="11.128752">
<ele>543.447</ele>
<time>2022-05-27T10:42:50Z</time>
</trkpt>
<trkpt lat="47.839596" lon="11.128697">
<ele>543.643</ele>
<time>2022-05-27T10:42:51Z</time>
</trkpt>
<trkpt lat="47.839569" lon="11.128641">
<ele>543.793</ele>
<time>2022-05-27T10:42:52Z</time>
</trkpt>
<trkpt lat="47.83955" lon="11.128587">
<ele>543.896</ele>
<time>2022-05-27T10:42:53Z</time>
</trkpt>
<trkpt lat="47.839527" lon="11.12853">
<ele>544.005</ele>
<time>2022-05-27T10:42:54Z</time>
</trkpt>
<trkpt lat="47.8395" lon="11.128473">
<ele>544.082</ele>
<time>2022-05-27T10:42:55Z</time>
</trkpt>
<trkpt lat="47.839478" lon="11.128417">
<ele>544.134</ele>
<time>2022-05-27T10:42:56Z</time>
</trkpt>
<trkpt lat="47.839451" lon="11.128362">
<ele>544.159</ele>
<time>2022-05-27T10:42:57Z</time>
</trkpt>
<trkpt lat="47.839424" lon="11.128306">
<ele>544.159</ele>
<time>2022-05-27T10:42:58Z</time>
</trkpt>
<trkpt lat="47.839397" lon="11.128255">
<ele>544.159</ele>
<time>2022-05-27T10:42:59Z</time>
</trkpt>
<trkpt lat="47.839371" lon="11.128203">
<ele>544.158</ele>
<time>2022-05-27T10:43:00Z</time>
</trkpt>
<trkpt lat="47.839336" lon="11.12815">
<ele>544.159</ele>
<time>2022-05-27T10:43:01Z</time>
</trkpt>
<trkpt lat="47.83931" lon="11.128098">
<ele>544.159</ele>
<time>2022-05-27T10:43:02Z</time>
</trkpt>
<trkpt lat="47.839279" lon="11.128045">
<ele>544.159</ele>
<time>2022-05-27T10:43:03Z</time>
</trkpt>
<trkpt lat="47.839252" lon="11.127995">
<ele>544.159</ele>
<time>2022-05-27T10:43:04Z</time>
</trkpt>
<trkpt lat="47.83923" lon="11.127945">
<ele>544.159</ele>
<time>2022-05-27T10:43:05Z</time>
</trkpt>
<trkpt lat="47.839203" lon="11.127891">
<ele>544.158</ele>
<time>2022-05-27T10:43:06Z</time>
</trkpt>
<trkpt lat="47.839176" lon="11.127838">
<ele>544.159</ele>
<time>2022-05-27T10:43:07Z</time>
</trkpt>
<trkpt lat="47.839146" lon="11.127787">
<ele>544.159</ele>
<time>2022-05-27T10:43:08Z</time>
</trkpt>
<trkpt lat="47.839123" lon="11.127731">
<ele>544.159</ele>
<time>2022-05-27T10:43:09Z</time>
</trkpt>
<trkpt lat="47.839104" lon="11.127677">
<ele>544.159</ele>
<time>2022-05-27T10:43:10Z</time>
</trkpt>
<trkpt lat="47.839081" lon="11.127621">
<ele>544.159</ele>
<time>2022-05-27T10:43:11Z</time>
</trkpt>
<trkpt lat="47.839062" lon="11.127564">
<ele>544.159</ele>
<time>2022-05-27T10:43:12Z</time>
</trkpt>
<trkpt lat="47.839039" lon="11.12751">
<ele>544.159</ele>
<time>2022-05-27T10:43:13Z</time>
</trkpt>
<trkpt lat="47.839012" lon="11.127457">
<ele>544.159</ele>
<time>2022-05-27T10:43:14Z</time>
</trkpt>
<trkpt lat="47.838993" lon="11.127409">
<ele>544.159</ele>
<time>2022-05-27T10:43:15Z</time>
</trkpt>
<trkpt lat="47.838966" lon="11.12736">
<ele>544.159</ele>
<time>2022-05-27T10:43:16Z</time>
</trkpt>
<trkpt lat="47.838936" lon="11.127307">
<ele>544.159</ele>
<time>2022-05-27T10:43:17Z</time>
</trkpt>
<trkpt lat="47.838913" lon="11.127252">
<ele>544.159</ele>
<time>2022-05-27T10:43:18Z</time>
</trkpt>
<trkpt lat="47.83889" lon="11.127195">
<ele>544.159</ele>
<time>2022-05-27T10:43:19Z</time>
</trkpt>
<trkpt lat="47.838867" lon="11.127136">
<ele>544.159</ele>
<time>2022-05-27T10:43:20Z</time>
</trkpt>
<trkpt lat="47.838848" lon="11.127084">
<ele>544.159</ele>
<time>2022-05-27T10:43:21Z</time>
</trkpt>
<trkpt lat="47.838818" lon="11.127029">
<ele>544.159</ele>
<time>2022-05-27T10:43:22Z</time>
</trkpt>
<trkpt lat="47.838783" lon="11.126973">
<ele>544.159</ele>
<time>2022-05-27T10:43:23Z</time>
</trkpt>
<trkpt lat="47.838745" lon="11.126908">
<ele>544.159</ele>
<time>2022-05-27T10:43:24Z</time>
</trkpt>
<trkpt lat="47.838711" lon="11.126847">
<ele>544.159</ele>
<time>2022-05-27T10:43:25Z</time>
</trkpt>
<trkpt lat="47.838676" lon="11.126786">
<ele>544.159</ele>
<time>2022-05-27T10:43:26Z</time>
</trkpt>
<trkpt lat="47.838642" lon="11.126725">
<ele>544.159</ele>
<time>2022-05-27T10:43:27Z</time>
</trkpt>
<trkpt lat="47.838608" lon="11.126665">
<ele>544.159</ele>
<time>2022-05-27T10:43:28Z</time>
</trkpt>
<trkpt lat="47.838577" lon="11.126609">
<ele>544.159</ele>
<time>2022-05-27T10:43:29Z</time>
</trkpt>
<trkpt lat="47.838543" lon="11.126552">
<ele>544.159</ele>
<time>2022-05-27T10:43:30Z</time>
</trkpt>
<trkpt lat="47.838509" lon="11.126495">
<ele>544.159</ele>
<time>2022-05-27T10:43:31Z</time>
</trkpt>
<trkpt lat="47.838482" lon="11.12644">
<ele>544.159</ele>
<time>2022-05-27T10:43:32Z</time>
</trkpt>
<trkpt lat="47.838448" lon="11.126383">
<ele>544.159</ele>
<time>2022-05-27T10:43:33Z</time>
</trkpt>
<trkpt lat="47.838421" lon="11.126328">
<ele>544.159</ele>
<time>2022-05-27T10:43:34Z</time>
</trkpt>
<trkpt lat="47.838387" lon="11.126273">
<ele>544.159</ele>
<time>2022-05-27T10:43:35Z</time>
</trkpt>
<trkpt lat="47.83836" lon="11.126217">
<ele>544.159</ele>
<time>2022-05-27T10:43:36Z</time>
</trkpt>
<trkpt lat="47.838326" lon="11.12616">
<ele>544.159</ele>
<time>2022-05-27T10:43:37Z</time>
</trkpt>
<trkpt lat="47.838299" lon="11.126106">
<ele>544.159</ele>
<time>2022-05-27T10:43:38Z</time>
</trkpt>
<trkpt lat="47.838272" lon="11.126057">
<ele>544.159</ele>
<time>2022-05-27T10:43:39Z</time>
</trkpt>
<trkpt lat="47.838242" lon="11.126007">
<ele>544.159</ele>
<time>2022-05-27T10:43:40Z</time>
</trkpt>
<trkpt lat="47.838219" lon="11.125957">
<ele>544.159</ele>
<time>2022-05-27T10:43:41Z</time>
</trkpt>
<trkpt lat="47.838192" lon="11.125905">
<ele>544.159</ele>
<time>2022-05-27T10:43:42Z</time>
</trkpt>
<trkpt lat="47.838165" lon="11.125854">
<ele>544.159</ele>
<time>2022-05-27T10:43:43Z</time>
</trkpt>
<trkpt lat="47.838142" lon="11.125804">
<ele>544.159</ele>
<time>2022-05-27T10:43:44Z</time>
</trkpt>
<trkpt lat="47.838112" lon="11.125753">
<ele>544.159</ele>
<time>2022-05-27T10:43:45Z</time>
</trkpt>
<trkpt lat="47.838081" lon="11.125706">
<ele>544.159</ele>
<time>2022-05-27T10:43:46Z</time>
</trkpt>
<trkpt lat="47.838047" lon="11.125658">
<ele>544.159</ele>
<time>2022-05-27T10:43:47Z</time>
</trkpt>
<trkpt lat="47.838013" lon="11.125615">
<ele>544.159</ele>
<time>2022-05-27T10:43:48Z</time>
</trkpt>
<trkpt lat="47.837982" lon="11.125567">
<ele>544.159</ele>
<time>2022-05-27T10:43:49Z</time>
</trkpt>
<trkpt lat="47.837952" lon="11.125519">
<ele>544.159</ele>
<time>2022-05-27T10:43:50Z</time>
</trkpt>
<trkpt lat="47.837925" lon="11.12547">
<ele>544.159</ele>
<time>2022-05-27T10:43:51Z</time>
</trkpt>
<trkpt lat="47.837894" lon="11.125423">
<ele>544.159</ele>
<time>2022-05-27T10:43:52Z</time>
</trkpt>
<trkpt lat="47.83786" lon="11.125383">
<ele>544.159</ele>
<time>2022-05-27T10:43:53Z</time>
</trkpt>
<trkpt lat="47.837822" lon="11.125343">
<ele>544.159</ele>
<time>2022-05-27T10:43:54Z</time>
</trkpt>
<trkpt lat="47.837788" lon="11.125301">
<ele>544.159</ele>
<time>2022-05-27T10:43:55Z</time>
</trkpt>
<trkpt lat="47.837746" lon="11.125266">
<ele>544.159</ele>
<time>2022-05-27T10:43:56Z</time>
</trkpt>
<trkpt lat="47.837708" lon="11.125235">
<ele>544.159</ele>
<time>2022-05-27T10:43:57Z</time>
</trkpt>
<trkpt lat="47.837673" lon="11.1252">
<ele>544.159</ele>
<time>2022-05-27T10:43:58Z</time>
</trkpt>
<trkpt lat="47.837646" lon="11.125172">
<ele>544.159</ele>
<time>2022-05-27T10:43:59Z</time>
</trkpt>
<trkpt lat="47.83762" lon="11.125142">
<ele>544.159</ele>
<time>2022-05-27T10:44:00Z</time>
</trkpt>
<trkpt lat="47.837589" lon="11.125115">
<ele>544.159</ele>
<time>2022-05-27T10:44:01Z</time>
</trkpt>
<trkpt lat="47.837555" lon="11.125095">
<ele>544.159</ele>
<time>2022-05-27T10:44:02Z</time>
</trkpt>
<trkpt lat="47.837517" lon="11.125075">
<ele>544.159</ele>
<time>2022-05-27T10:44:03Z</time>
</trkpt>
<trkpt lat="47.837482" lon="11.125056">
<ele>544.159</ele>
<time>2022-05-27T10:44:04Z</time>
</trkpt>
<trkpt lat="47.837444" lon="11.125038">
<ele>544.159</ele>
<time>2022-05-27T10:44:05Z</time>
</trkpt>
<trkpt lat="47.837399" lon="11.12502">
<ele>544.159</ele>
<time>2022-05-27T10:44:06Z</time>
</trkpt>
<trkpt lat="47.837349" lon="11.125004">
<ele>544.159</ele>
<time>2022-05-27T10:44:07Z</time>
</trkpt>
<trkpt lat="47.837299" lon="11.124987">
<ele>544.159</ele>
<time>2022-05-27T10:44:08Z</time>
</trkpt>
<trkpt lat="47.837254" lon="11.12497">
<ele>544.159</ele>
<time>2022-05-27T10:44:09Z</time>
</trkpt>
<trkpt lat="47.837215" lon="11.124957">
<ele>544.159</ele>
<time>2022-05-27T10:44:10Z</time>
</trkpt>
<trkpt lat="47.837173" lon="11.124943">
<ele>544.159</ele>
<time>2022-05-27T10:44:11Z</time>
</trkpt>
<trkpt lat="47.837128" lon="11.124928">
<ele>544.159</ele>
<time>2022-05-27T10:44:12Z</time>
</trkpt>
<trkpt lat="47.83709" lon="11.124907">
<ele>544.159</ele>
<time>2022-05-27T10:44:13Z</time>
</trkpt>
<trkpt lat="47.83704" lon="11.124893">
<ele>544.159</ele>
<time>2022-05-27T10:44:14Z</time>
</trkpt>
<trkpt lat="47.836987" lon="11.124885">
<ele>544.159</ele>
<time>2022-05-27T10:44:15Z</time>
</trkpt>
<trkpt lat="47.836933" lon="11.12488">
<ele>544.159</ele>
<time>2022-05-27T10:44:16Z</time>
</trkpt>
<trkpt lat="47.836887" lon="11.12487">
<ele>544.159</ele>
<time>2022-05-27T10:44:17Z</time>
</trkpt>
<trkpt lat="47.836838" lon="11.124864">
<ele>544.159</ele>
<time>2022-05-27T10:44:18Z</time>
</trkpt>
<trkpt lat="47.836792" lon="11.124864">
<ele>544.159</ele>
<time>2022-05-27T10:44:19Z</time>
</trkpt>
<trkpt lat="47.836742" lon="11.124868">
<ele>543.911</ele>
<time>2022-05-27T10:44:20Z</time>
</trkpt>
<trkpt lat="47.836693" lon="11.124871">
<ele>543.721</ele>
<time>2022-05-27T10:44:21Z</time>
</trkpt>
<trkpt lat="47.836639" lon="11.124876">
<ele>543.575</ele>
<time>2022-05-27T10:44:22Z</time>
</trkpt>
<trkpt lat="47.836594" lon="11.12488">
<ele>543.472</ele>
<time>2022-05-27T10:44:23Z</time>
</trkpt>
<trkpt lat="47.836552" lon="11.124885">
<ele>543.36</ele>
<time>2022-05-27T10:44:24Z</time>
</trkpt>
<trkpt lat="47.836506" lon="11.124897">
<ele>543.276</ele>
<time>2022-05-27T10:44:25Z</time>
</trkpt>
<trkpt lat="47.836464" lon="11.124907">
<ele>543.224</ele>
<time>2022-05-27T10:44:26Z</time>
</trkpt>
<trkpt lat="47.836418" lon="11.12492">
<ele>543.2</ele>
<time>2022-05-27T10:44:27Z</time>
</trkpt>
<trkpt lat="47.836376" lon="11.124928">
<ele>543.2</ele>
<time>2022-05-27T10:44:28Z</time>
</trkpt>
<trkpt lat="47.836338" lon="11.124943">
<ele>543.2</ele>
<time>2022-05-27T10:44:29Z</time>
</trkpt>
<trkpt lat="47.8363" lon="11.124955">
<ele>543.2</ele>
<time>2022-05-27T10:44:30Z</time>
</trkpt>
<trkpt lat="47.836258" lon="11.124967">
<ele>543.434</ele>
<time>2022-05-27T10:44:31Z</time>
</trkpt>
<trkpt lat="47.836212" lon="11.124981">
<ele>543.623</ele>
<time>2022-05-27T10:44:32Z</time>
</trkpt>
<trkpt lat="47.83617" lon="11.125002">
<ele>543.752</ele>
<time>2022-05-27T10:44:33Z</time>
</trkpt>
<trkpt lat="47.836121" lon="11.125022">
<ele>543.895</ele>
<time>2022-05-27T10:44:34Z</time>
</trkpt>
<trkpt lat="47.836079" lon="11.12504">
<ele>544.007</ele>
<time>2022-05-27T10:44:35Z</time>
</trkpt>
<trkpt lat="47.836025" lon="11.125051">
<ele>544.085</ele>
<time>2022-05-27T10:44:36Z</time>
</trkpt>
<trkpt lat="47.835979" lon="11.125069">
<ele>544.135</ele>
<time>2022-05-27T10:44:37Z</time>
</trkpt>
<trkpt lat="47.835934" lon="11.125088">
<ele>544.159</ele>
<time>2022-05-27T10:44:38Z</time>
</trkpt>
<trkpt lat="47.835892" lon="11.1251">
<ele>544.159</ele>
<time>2022-05-27T10:44:39Z</time>
</trkpt>
<trkpt lat="47.83585" lon="11.125113">
<ele>544.159</ele>
<time>2022-05-27T10:44:40Z</time>
</trkpt>
<trkpt lat="47.835796" lon="11.125134">
<ele>544.158</ele>
<time>2022-05-27T10:44:41Z</time>
</trkpt>
<trkpt lat="47.835751" lon="11.125156">
<ele>544.159</ele>
<time>2022-05-27T10:44:42Z</time>
</trkpt>
<trkpt lat="47.835709" lon="11.125172">
<ele>544.159</ele>
<time>2022-05-27T10:44:43Z</time>
</trkpt>
<trkpt lat="47.835667" lon="11.125186">
<ele>544.159</ele>
<time>2022-05-27T10:44:44Z</time>
</trkpt>
<trkpt lat="47.835621" lon="11.125209">
<ele>544.159</ele>
<time>2022-05-27T10:44:45Z</time>
</trkpt>
<trkpt lat="47.835575" lon="11.125228">
<ele>544.159</ele>
<time>2022-05-27T10:44:46Z</time>
</trkpt>
<trkpt lat="47.835533" lon="11.125243">
<ele>544.159</ele>
<time>2022-05-27T10:44:47Z</time>
</trkpt>
<trkpt lat="47.835491" lon="11.125261">
<ele>544.159</ele>
<time>2022-05-27T10:44:48Z</time>
</trkpt>
<trkpt lat="47.835453" lon="11.12528">
<ele>544.159</ele>
<time>2022-05-27T10:44:49Z</time>
</trkpt>
<trkpt lat="47.835411" lon="11.125303">
<ele>544.159</ele>
<time>2022-05-27T10:44:50Z</time>
</trkpt>
<trkpt lat="47.835365" lon="11.125322">
<ele>544.159</ele>
<time>2022-05-27T10:44:51Z</time>
</trkpt>
<trkpt lat="47.835327" lon="11.125333">
<ele>544.159</ele>
<time>2022-05-27T10:44:52Z</time>
</trkpt>
<trkpt lat="47.835297" lon="11.125347">
<ele>544.159</ele>
<time>2022-05-27T10:44:53Z</time>
</trkpt>
<trkpt lat="47.835258" lon="11.125363">
<ele>544.159</ele>
<time>2022-05-27T10:44:54Z</time>
</trkpt>
<trkpt lat="47.83522" lon="11.125375">
<ele>544.159</ele>
<time>2022-05-27T10:44:55Z</time>
</trkpt>
<trkpt lat="47.835182" lon="11.125387">
<ele>544.159</ele>
<time>2022-05-27T10:44:56Z</time>
</trkpt>
<trkpt lat="47.835148" lon="11.125383">
<ele>544.159</ele>
<time>2022-05-27T10:44:57Z</time>
</trkpt>
<trkpt lat="47.835114" lon="11.125373">
<ele>544.159</ele>
<time>2022-05-27T10:44:58Z</time>
</trkpt>
<trkpt lat="47.835079" lon="11.12536">
<ele>544.181</ele>
<time>2022-05-27T10:44:59Z</time>
</trkpt>
<trkpt lat="47.835037" lon="11.125339">
<ele>544.2</ele>
<time>2022-05-27T10:45:00Z</time>
</trkpt>
<trkpt lat="47.834988" lon="11.125314">
<ele>544.202</ele>
<time>2022-05-27T10:45:01Z</time>
</trkpt>
<trkpt lat="47.834927" lon="11.125289">
<ele>543.96</ele>
<time>2022-05-27T10:45:02Z</time>
</trkpt>
<trkpt lat="47.834862" lon="11.12527">
<ele>543.402</ele>
<time>2022-05-27T10:45:03Z</time>
</trkpt>
<trkpt lat="47.834797" lon="11.125266">
<ele>542.897</ele>
<time>2022-05-27T10:45:04Z</time>
</trkpt>
<trkpt lat="47.834736" lon="11.125275">
<ele>542.549</ele>
<time>2022-05-27T10:45:05Z</time>
</trkpt>
<trkpt lat="47.83469" lon="11.12532">
<ele>542.334</ele>
<time>2022-05-27T10:45:06Z</time>
</trkpt>
<trkpt lat="47.834644" lon="11.125389">
<ele>542.187</ele>
<time>2022-05-27T10:45:07Z</time>
</trkpt>
<trkpt lat="47.834602" lon="11.125448">
<ele>542.293</ele>
<time>2022-05-27T10:45:08Z</time>
</trkpt>
<trkpt lat="47.834553" lon="11.125502">
<ele>542.62</ele>
<time>2022-05-27T10:45:09Z</time>
</trkpt>
<trkpt lat="47.834511" lon="11.125544">
<ele>542.676</ele>
<time>2022-05-27T10:45:10Z</time>
</trkpt>
<trkpt lat="47.834469" lon="11.125575">
<ele>543.028</ele>
<time>2022-05-27T10:45:11Z</time>
</trkpt>
<trkpt lat="47.834419" lon="11.125599">
<ele>543.311</ele>
<time>2022-05-27T10:45:12Z</time>
</trkpt>
<trkpt lat="47.834381" lon="11.125609">
<ele>543.522</ele>
<time>2022-05-27T10:45:13Z</time>
</trkpt>
<trkpt lat="47.834335" lon="11.125618">
<ele>543.728</ele>
<time>2022-05-27T10:45:14Z</time>
</trkpt>
<trkpt lat="47.834293" lon="11.125625">
<ele>543.856</ele>
<time>2022-05-27T10:45:15Z</time>
</trkpt>
<trkpt lat="47.834248" lon="11.125638">
<ele>544.15</ele>
<time>2022-05-27T10:45:16Z</time>
</trkpt>
<trkpt lat="47.834198" lon="11.125647">
<ele>544.36</ele>
<time>2022-05-27T10:45:17Z</time>
</trkpt>
<trkpt lat="47.834152" lon="11.125657">
<ele>544.408</ele>
<time>2022-05-27T10:45:18Z</time>
</trkpt>
<trkpt lat="47.834099" lon="11.125667">
<ele>544.306</ele>
<time>2022-05-27T10:45:19Z</time>
</trkpt>
<trkpt lat="47.834053" lon="11.125673">
<ele>544.215</ele>
<time>2022-05-27T10:45:20Z</time>
</trkpt>
<trkpt lat="47.834" lon="11.125683">
<ele>544.136</ele>
<time>2022-05-27T10:45:21Z</time>
</trkpt>
<trkpt lat="47.833954" lon="11.125691">
<ele>544.277</ele>
<time>2022-05-27T10:45:22Z</time>
</trkpt>
<trkpt lat="47.8339" lon="11.125697">
<ele>544.385</ele>
<time>2022-05-27T10:45:23Z</time>
</trkpt>
<trkpt lat="47.833847" lon="11.125698">
<ele>544.463</ele>
<time>2022-05-27T10:45:24Z</time>
</trkpt>
<trkpt lat="47.833797" lon="11.125698">
<ele>544.528</ele>
<time>2022-05-27T10:45:25Z</time>
</trkpt>
<trkpt lat="47.833748" lon="11.125697">
<ele>544.59</ele>
<time>2022-05-27T10:45:26Z</time>
</trkpt>
<trkpt lat="47.833698" lon="11.125691">
<ele>544.636</ele>
<time>2022-05-27T10:45:27Z</time>
</trkpt>
<trkpt lat="47.833649" lon="11.125685">
<ele>544.706</ele>
<time>2022-05-27T10:45:28Z</time>
</trkpt>
<trkpt lat="47.833599" lon="11.125682">
<ele>544.748</ele>
<time>2022-05-27T10:45:29Z</time>
</trkpt>
<trkpt lat="47.833553" lon="11.125674">
<ele>544.769</ele>
<time>2022-05-27T10:45:30Z</time>
</trkpt>
<trkpt lat="47.8335" lon="11.12567">
<ele>544.769</ele>
<time>2022-05-27T10:45:31Z</time>
</trkpt>
<trkpt lat="47.833458" lon="11.12567">
<ele>544.769</ele>
<time>2022-05-27T10:45:32Z</time>
</trkpt>
<trkpt lat="47.833412" lon="11.125667">
<ele>544.769</ele>
<time>2022-05-27T10:45:33Z</time>
</trkpt>
<trkpt lat="47.83337" lon="11.12566">
<ele>544.769</ele>
<time>2022-05-27T10:45:34Z</time>
</trkpt>
<trkpt lat="47.833336" lon="11.125651">
<ele>544.769</ele>
<time>2022-05-27T10:45:35Z</time>
</trkpt>
<trkpt lat="47.833298" lon="11.125642">
<ele>544.769</ele>
<time>2022-05-27T10:45:36Z</time>
</trkpt>
<trkpt lat="47.833263" lon="11.125635">
<ele>544.769</ele>
<time>2022-05-27T10:45:37Z</time>
</trkpt>
<trkpt lat="47.833218" lon="11.125628">
<ele>544.769</ele>
<time>2022-05-27T10:45:38Z</time>
</trkpt>
<trkpt lat="47.833176" lon="11.125622">
<ele>544.769</ele>
<time>2022-05-27T10:45:39Z</time>
</trkpt>
<trkpt lat="47.833134" lon="11.125613">
<ele>544.769</ele>
<time>2022-05-27T10:45:40Z</time>
</trkpt>
<trkpt lat="47.833084" lon="11.125605">
<ele>544.769</ele>
<time>2022-05-27T10:45:41Z</time>
</trkpt>
<trkpt lat="47.833042" lon="11.125595">
<ele>544.769</ele>
<time>2022-05-27T10:45:42Z</time>
</trkpt>
<trkpt lat="47.833004" lon="11.12558">
<ele>544.769</ele>
<time>2022-05-27T10:45:43Z</time>
</trkpt>
<trkpt lat="47.832954" lon="11.125569">
<ele>544.769</ele>
<time>2022-05-27T10:45:44Z</time>
</trkpt>
<trkpt lat="47.832909" lon="11.125559">
<ele>544.769</ele>
<time>2022-05-27T10:45:45Z</time>
</trkpt>
<trkpt lat="47.832855" lon="11.125546">
<ele>544.769</ele>
<time>2022-05-27T10:45:46Z</time>
</trkpt>
<trkpt lat="47.832806" lon="11.125535">
<ele>544.769</ele>
<time>2022-05-27T10:45:47Z</time>
</trkpt>
<trkpt lat="47.832752" lon="11.125527">
<ele>544.769</ele>
<time>2022-05-27T10:45:48Z</time>
</trkpt>
<trkpt lat="47.832699" lon="11.125513">
<ele>544.769</ele>
<time>2022-05-27T10:45:49Z</time>
</trkpt>
<trkpt lat="47.832645" lon="11.1255">
<ele>544.769</ele>
<time>2022-05-27T10:45:50Z</time>
</trkpt>
<trkpt lat="47.832592" lon="11.125485">
<ele>544.769</ele>
<time>2022-05-27T10:45:51Z</time>
</trkpt>
<trkpt lat="47.832546" lon="11.125471">
<ele>545.027</ele>
<time>2022-05-27T10:45:52Z</time>
</trkpt>
<trkpt lat="47.832493" lon="11.125455">
<ele>545.208</ele>
<time>2022-05-27T10:45:53Z</time>
</trkpt>
<trkpt lat="47.832443" lon="11.125438">
<ele>545.392</ele>
<time>2022-05-27T10:45:54Z</time>
</trkpt>
<trkpt lat="47.832394" lon="11.125422">
<ele>545.538</ele>
<time>2022-05-27T10:45:55Z</time>
</trkpt>
<trkpt lat="47.832348" lon="11.125405">
<ele>545.651</ele>
<time>2022-05-27T10:45:56Z</time>
</trkpt>
<trkpt lat="47.832302" lon="11.125389">
<ele>545.732</ele>
<time>2022-05-27T10:45:57Z</time>
</trkpt>
<trkpt lat="47.832256" lon="11.125372">
<ele>545.788</ele>
<time>2022-05-27T10:45:58Z</time>
</trkpt>
<trkpt lat="47.832207" lon="11.125357">
<ele>545.815</ele>
<time>2022-05-27T10:45:59Z</time>
</trkpt>
<trkpt lat="47.832157" lon="11.125345">
<ele>545.815</ele>
<time>2022-05-27T10:46:00Z</time>
</trkpt>
<trkpt lat="47.832104" lon="11.12533">
<ele>545.815</ele>
<time>2022-05-27T10:46:01Z</time>
</trkpt>
<trkpt lat="47.832054" lon="11.12531">
<ele>545.815</ele>
<time>2022-05-27T10:46:02Z</time>
</trkpt>
<trkpt lat="47.832001" lon="11.12529">
<ele>545.815</ele>
<time>2022-05-27T10:46:03Z</time>
</trkpt>
<trkpt lat="47.831951" lon="11.125263">
<ele>545.815</ele>
<time>2022-05-27T10:46:04Z</time>
</trkpt>
<trkpt lat="47.831905" lon="11.125237">
<ele>545.815</ele>
<time>2022-05-27T10:46:05Z</time>
</trkpt>
<trkpt lat="47.831852" lon="11.125217">
<ele>545.815</ele>
<time>2022-05-27T10:46:06Z</time>
</trkpt>
<trkpt lat="47.831802" lon="11.1252">
<ele>545.815</ele>
<time>2022-05-27T10:46:07Z</time>
</trkpt>
<trkpt lat="47.831749" lon="11.125178">
<ele>545.815</ele>
<time>2022-05-27T10:46:08Z</time>
</trkpt>
<trkpt lat="47.831699" lon="11.125158">
<ele>545.815</ele>
<time>2022-05-27T10:46:09Z</time>
</trkpt>
<trkpt lat="47.831657" lon="11.125136">
<ele>545.815</ele>
<time>2022-05-27T10:46:10Z</time>
</trkpt>
<trkpt lat="47.831612" lon="11.125112">
<ele>545.815</ele>
<time>2022-05-27T10:46:11Z</time>
</trkpt>
<trkpt lat="47.831562" lon="11.125087">
<ele>545.815</ele>
<time>2022-05-27T10:46:12Z</time>
</trkpt>
<trkpt lat="47.831512" lon="11.125065">
<ele>545.815</ele>
<time>2022-05-27T10:46:13Z</time>
</trkpt>
<trkpt lat="47.83147" lon="11.125044">
<ele>545.815</ele>
<time>2022-05-27T10:46:14Z</time>
</trkpt>
<trkpt lat="47.831425" lon="11.125018">
<ele>545.815</ele>
<time>2022-05-27T10:46:15Z</time>
</trkpt>
<trkpt lat="47.831387" lon="11.12499">
<ele>545.815</ele>
<time>2022-05-27T10:46:16Z</time>
</trkpt>
<trkpt lat="47.831341" lon="11.124965">
<ele>545.815</ele>
<time>2022-05-27T10:46:17Z</time>
</trkpt>
<trkpt lat="47.831295" lon="11.124941">
<ele>545.815</ele>
<time>2022-05-27T10:46:18Z</time>
</trkpt>
<trkpt lat="47.831253" lon="11.124918">
<ele>545.815</ele>
<time>2022-05-27T10:46:19Z</time>
</trkpt>
<trkpt lat="47.831207" lon="11.124893">
<ele>545.815</ele>
<time>2022-05-27T10:46:20Z</time>
</trkpt>
<trkpt lat="47.831169" lon="11.124868">
<ele>545.815</ele>
<time>2022-05-27T10:46:21Z</time>
</trkpt>
<trkpt lat="47.831123" lon="11.12485">
<ele>545.815</ele>
<time>2022-05-27T10:46:22Z</time>
</trkpt>
<trkpt lat="47.83107" lon="11.124826">
<ele>545.815</ele>
<time>2022-05-27T10:46:23Z</time>
</trkpt>
<trkpt lat="47.831024" lon="11.124803">
<ele>545.815</ele>
<time>2022-05-27T10:46:24Z</time>
</trkpt>
<trkpt lat="47.830971" lon="11.124778">
<ele>545.815</ele>
<time>2022-05-27T10:46:25Z</time>
</trkpt>
<trkpt lat="47.830921" lon="11.124753">
<ele>545.815</ele>
<time>2022-05-27T10:46:26Z</time>
</trkpt>
<trkpt lat="47.830872" lon="11.124728">
<ele>545.815</ele>
<time>2022-05-27T10:46:27Z</time>
</trkpt>
<trkpt lat="47.830822" lon="11.124706">
<ele>545.815</ele>
<time>2022-05-27T10:46:28Z</time>
</trkpt>
<trkpt lat="47.830769" lon="11.124685">
<ele>545.815</ele>
<time>2022-05-27T10:46:29Z</time>
</trkpt>
<trkpt lat="47.830719" lon="11.124664">
<ele>545.815</ele>
<time>2022-05-27T10:46:30Z</time>
</trkpt>
<trkpt lat="47.830669" lon="11.124645">
<ele>545.815</ele>
<time>2022-05-27T10:46:31Z</time>
</trkpt>
<trkpt lat="47.830624" lon="11.124627">
<ele>545.815</ele>
<time>2022-05-27T10:46:32Z</time>
</trkpt>
<trkpt lat="47.830574" lon="11.124612">
<ele>545.815</ele>
<time>2022-05-27T10:46:33Z</time>
</trkpt>
<trkpt lat="47.830528" lon="11.124599">
<ele>545.815</ele>
<time>2022-05-27T10:46:34Z</time>
</trkpt>
<trkpt lat="47.830479" lon="11.124587">
<ele>545.815</ele>
<time>2022-05-27T10:46:35Z</time>
</trkpt>
<trkpt lat="47.830429" lon="11.124575">
<ele>545.815</ele>
<time>2022-05-27T10:46:36Z</time>
</trkpt>
<trkpt lat="47.830376" lon="11.124568">
<ele>545.815</ele>
<time>2022-05-27T10:46:37Z</time>
</trkpt>
<trkpt lat="47.830334" lon="11.124559">
<ele>545.815</ele>
<time>2022-05-27T10:46:38Z</time>
</trkpt>
<trkpt lat="47.830284" lon="11.124557">
<ele>545.815</ele>
<time>2022-05-27T10:46:39Z</time>
</trkpt>
<trkpt lat="47.830235" lon="11.124556">
<ele>545.815</ele>
<time>2022-05-27T10:46:40Z</time>
</trkpt>
<trkpt lat="47.830189" lon="11.124557">
<ele>545.815</ele>
<time>2022-05-27T10:46:41Z</time>
</trkpt>
<trkpt lat="47.830143" lon="11.124559">
<ele>545.815</ele>
<time>2022-05-27T10:46:42Z</time>
</trkpt>
<trkpt lat="47.830093" lon="11.124561">
<ele>545.815</ele>
<time>2022-05-27T10:46:43Z</time>
</trkpt>
<trkpt lat="47.830048" lon="11.12457">
<ele>545.815</ele>
<time>2022-05-27T10:46:44Z</time>
</trkpt>
<trkpt lat="47.830009" lon="11.124578">
<ele>545.815</ele>
<time>2022-05-27T10:46:45Z</time>
</trkpt>
<trkpt lat="47.829975" lon="11.124585">
<ele>545.815</ele>
<time>2022-05-27T10:46:46Z</time>
</trkpt>
<trkpt lat="47.829945" lon="11.12459">
<ele>545.815</ele>
<time>2022-05-27T10:46:47Z</time>
</trkpt>
<trkpt lat="47.829918" lon="11.124589">
<ele>545.815</ele>
<time>2022-05-27T10:46:48Z</time>
</trkpt>
<trkpt lat="47.829887" lon="11.124585">
<ele>545.815</ele>
<time>2022-05-27T10:46:49Z</time>
</trkpt>
<trkpt lat="47.829865" lon="11.124568">
<ele>545.815</ele>
<time>2022-05-27T10:46:50Z</time>
</trkpt>
<trkpt lat="47.829834" lon="11.12455">
<ele>545.815</ele>
<time>2022-05-27T10:46:51Z</time>
</trkpt>
<trkpt lat="47.829792" lon="11.124526">
<ele>545.815</ele>
<time>2022-05-27T10:46:52Z</time>
</trkpt>
<trkpt lat="47.829739" lon="11.124501">
<ele>545.815</ele>
<time>2022-05-27T10:46:53Z</time>
</trkpt>
<trkpt lat="47.829681" lon="11.124475">
<ele>545.6</ele>
<time>2022-05-27T10:46:54Z</time>
</trkpt>
<trkpt lat="47.829617" lon="11.124458">
<ele>545.103</ele>
<time>2022-05-27T10:46:55Z</time>
</trkpt>
<trkpt lat="47.829556" lon="11.124454">
<ele>544.384</ele>
<time>2022-05-27T10:46:56Z</time>
</trkpt>
<trkpt lat="47.829506" lon="11.124463">
<ele>543.892</ele>
<time>2022-05-27T10:46:57Z</time>
</trkpt>
<trkpt lat="47.82946" lon="11.124492">
<ele>543.542</ele>
<time>2022-05-27T10:46:58Z</time>
</trkpt>
<trkpt lat="47.829422" lon="11.12453">
<ele>543.311</ele>
<time>2022-05-27T10:46:59Z</time>
</trkpt>
<trkpt lat="47.829388" lon="11.124568">
<ele>543.149</ele>
<time>2022-05-27T10:47:00Z</time>
</trkpt>
<trkpt lat="47.829357" lon="11.124601">
<ele>543.03</ele>
<time>2022-05-27T10:47:01Z</time>
</trkpt>
<trkpt lat="47.829323" lon="11.124631">
<ele>542.961</ele>
<time>2022-05-27T10:47:02Z</time>
</trkpt>
<trkpt lat="47.829288" lon="11.124659">
<ele>542.938</ele>
<time>2022-05-27T10:47:03Z</time>
</trkpt>
<trkpt lat="47.829258" lon="11.124679">
<ele>542.938</ele>
<time>2022-05-27T10:47:04Z</time>
</trkpt>
<trkpt lat="47.829227" lon="11.124688">
<ele>542.938</ele>
<time>2022-05-27T10:47:05Z</time>
</trkpt>
<trkpt lat="47.829193" lon="11.124688">
<ele>542.938</ele>
<time>2022-05-27T10:47:06Z</time>
</trkpt>
<trkpt lat="47.829163" lon="11.124679">
<ele>542.938</ele>
<time>2022-05-27T10:47:07Z</time>
</trkpt>
<trkpt lat="47.829124" lon="11.12467">
<ele>542.938</ele>
<time>2022-05-27T10:47:08Z</time>
</trkpt>
<trkpt lat="47.829079" lon="11.12466">
<ele>542.938</ele>
<time>2022-05-27T10:47:09Z</time>
</trkpt>
<trkpt lat="47.829037" lon="11.12465">
<ele>542.938</ele>
<time>2022-05-27T10:47:10Z</time>
</trkpt>
<trkpt lat="47.828987" lon="11.124647">
<ele>542.938</ele>
<time>2022-05-27T10:47:11Z</time>
</trkpt>
<trkpt lat="47.828949" lon="11.12465">
<ele>542.938</ele>
<time>2022-05-27T10:47:12Z</time>
</trkpt>
<trkpt lat="47.828907" lon="11.124659">
<ele>542.938</ele>
<time>2022-05-27T10:47:13Z</time>
</trkpt>
<trkpt lat="47.828873" lon="11.124668">
<ele>543.179</ele>
<time>2022-05-27T10:47:14Z</time>
</trkpt>
<trkpt lat="47.828838" lon="11.124679">
<ele>543.607</ele>
<time>2022-05-27T10:47:15Z</time>
</trkpt>
<trkpt lat="47.828808" lon="11.124685">
<ele>543.942</ele>
<time>2022-05-27T10:47:16Z</time>
</trkpt>
<trkpt lat="47.82877" lon="11.124694">
<ele>544.214</ele>
<time>2022-05-27T10:47:17Z</time>
</trkpt>
<trkpt lat="47.828735" lon="11.124704">
<ele>544.405</ele>
<time>2022-05-27T10:47:18Z</time>
</trkpt>
<trkpt lat="47.828697" lon="11.124712">
<ele>544.854</ele>
<time>2022-05-27T10:47:19Z</time>
</trkpt>
<trkpt lat="47.828663" lon="11.124717">
<ele>545.214</ele>
<time>2022-05-27T10:47:20Z</time>
</trkpt>
<trkpt lat="47.828621" lon="11.124725">
<ele>545.473</ele>
<time>2022-05-27T10:47:21Z</time>
</trkpt>
<trkpt lat="47.828579" lon="11.124733">
<ele>545.643</ele>
<time>2022-05-27T10:47:22Z</time>
</trkpt>
<trkpt lat="47.828541" lon="11.124737">
<ele>545.732</ele>
<time>2022-05-27T10:47:23Z</time>
</trkpt>
<trkpt lat="47.828495" lon="11.124738">
<ele>545.823</ele>
<time>2022-05-27T10:47:24Z</time>
</trkpt>
<trkpt lat="47.828449" lon="11.124742">
<ele>545.876</ele>
<time>2022-05-27T10:47:25Z</time>
</trkpt>
<trkpt lat="47.828407" lon="11.124744">
<ele>545.902</ele>
<time>2022-05-27T10:47:26Z</time>
</trkpt>
<trkpt lat="47.828354" lon="11.124746">
<ele>545.902</ele>
<time>2022-05-27T10:47:27Z</time>
</trkpt>
<trkpt lat="47.828308" lon="11.124744">
<ele>545.902</ele>
<time>2022-05-27T10:47:28Z</time>
</trkpt>
<trkpt lat="47.828255" lon="11.124743">
<ele>545.902</ele>
<time>2022-05-27T10:47:29Z</time>
</trkpt>
<trkpt lat="47.828205" lon="11.12473">
<ele>545.902</ele>
<time>2022-05-27T10:47:30Z</time>
</trkpt>
<trkpt lat="47.828159" lon="11.1247">
<ele>545.902</ele>
<time>2022-05-27T10:47:31Z</time>
</trkpt>
<trkpt lat="47.82811" lon="11.124677">
<ele>545.902</ele>
<time>2022-05-27T10:47:32Z</time>
</trkpt>
<trkpt lat="47.82806" lon="11.124652">
<ele>545.902</ele>
<time>2022-05-27T10:47:33Z</time>
</trkpt>
<trkpt lat="47.828014" lon="11.124625">
<ele>545.902</ele>
<time>2022-05-27T10:47:34Z</time>
</trkpt>
<trkpt lat="47.827965" lon="11.124601">
<ele>545.902</ele>
<time>2022-05-27T10:47:35Z</time>
</trkpt>
<trkpt lat="47.827911" lon="11.124577">
<ele>545.902</ele>
<time>2022-05-27T10:47:36Z</time>
</trkpt>
<trkpt lat="47.827862" lon="11.124554">
<ele>545.902</ele>
<time>2022-05-27T10:47:37Z</time>
</trkpt>
<trkpt lat="47.827808" lon="11.124537">
<ele>545.902</ele>
<time>2022-05-27T10:47:38Z</time>
</trkpt>
<trkpt lat="47.827763" lon="11.124516">
<ele>545.902</ele>
<time>2022-05-27T10:47:39Z</time>
</trkpt>
<trkpt lat="47.827713" lon="11.124495">
<ele>545.902</ele>
<time>2022-05-27T10:47:40Z</time>
</trkpt>
<trkpt lat="47.827663" lon="11.124468">
<ele>545.902</ele>
<time>2022-05-27T10:47:41Z</time>
</trkpt>
<trkpt lat="47.827618" lon="11.124435">
<ele>545.902</ele>
<time>2022-05-27T10:47:42Z</time>
</trkpt>
<trkpt lat="47.827572" lon="11.124396">
<ele>545.902</ele>
<time>2022-05-27T10:47:43Z</time>
</trkpt>
<trkpt lat="47.82753" lon="11.124356">
<ele>545.902</ele>
<time>2022-05-27T10:47:44Z</time>
</trkpt>
<trkpt lat="47.827484" lon="11.124318">
<ele>545.902</ele>
<time>2022-05-27T10:47:45Z</time>
</trkpt>
<trkpt lat="47.827438" lon="11.124277">
<ele>545.902</ele>
<time>2022-05-27T10:47:46Z</time>
</trkpt>
<trkpt lat="47.827396" lon="11.124231">
<ele>546.172</ele>
<time>2022-05-27T10:47:47Z</time>
</trkpt>
<trkpt lat="47.827351" lon="11.124183">
<ele>546.383</ele>
<time>2022-05-27T10:47:48Z</time>
</trkpt>
<trkpt lat="47.827309" lon="11.124134">
<ele>546.539</ele>
<time>2022-05-27T10:47:49Z</time>
</trkpt>
<trkpt lat="47.827274" lon="11.124078">
<ele>546.658</ele>
<time>2022-05-27T10:47:50Z</time>
</trkpt>
<trkpt lat="47.82724" lon="11.124027">
<ele>546.739</ele>
<time>2022-05-27T10:47:51Z</time>
</trkpt>
<trkpt lat="47.827202" lon="11.123975">
<ele>546.794</ele>
<time>2022-05-27T10:47:52Z</time>
</trkpt>
<trkpt lat="47.82716" lon="11.123927">
<ele>546.835</ele>
<time>2022-05-27T10:47:53Z</time>
</trkpt>
<trkpt lat="47.827122" lon="11.12388">
<ele>546.861</ele>
<time>2022-05-27T10:47:54Z</time>
</trkpt>
<trkpt lat="47.827087" lon="11.12384">
<ele>546.861</ele>
<time>2022-05-27T10:47:55Z</time>
</trkpt>
<trkpt lat="47.827053" lon="11.123796">
<ele>546.861</ele>
<time>2022-05-27T10:47:56Z</time>
</trkpt>
<trkpt lat="47.827015" lon="11.123754">
<ele>546.861</ele>
<time>2022-05-27T10:47:57Z</time>
</trkpt>
<trkpt lat="47.826973" lon="11.123709">
<ele>546.861</ele>
<time>2022-05-27T10:47:58Z</time>
</trkpt>
<trkpt lat="47.826931" lon="11.12366">
<ele>546.861</ele>
<time>2022-05-27T10:47:59Z</time>
</trkpt>
<trkpt lat="47.826885" lon="11.123607">
<ele>546.861</ele>
<time>2022-05-27T10:48:00Z</time>
</trkpt>
<trkpt lat="47.826851" lon="11.123549">
<ele>546.861</ele>
<time>2022-05-27T10:48:01Z</time>
</trkpt>
<trkpt lat="47.826813" lon="11.123489">
<ele>546.861</ele>
<time>2022-05-27T10:48:02Z</time>
</trkpt>
<trkpt lat="47.826775" lon="11.123437">
<ele>546.861</ele>
<time>2022-05-27T10:48:03Z</time>
</trkpt>
<trkpt lat="47.826733" lon="11.123388">
<ele>546.861</ele>
<time>2022-05-27T10:48:04Z</time>
</trkpt>
<trkpt lat="47.826691" lon="11.123342">
<ele>546.861</ele>
<time>2022-05-27T10:48:05Z</time>
</trkpt>
<trkpt lat="47.826656" lon="11.123297">
<ele>546.861</ele>
<time>2022-05-27T10:48:06Z</time>
</trkpt>
<trkpt lat="47.826622" lon="11.12325">
<ele>546.861</ele>
<time>2022-05-27T10:48:07Z</time>
</trkpt>
<trkpt lat="47.826603" lon="11.123201">
<ele>546.861</ele>
<time>2022-05-27T10:48:08Z</time>
</trkpt>
<trkpt lat="47.82658" lon="11.123148">
<ele>546.861</ele>
<time>2022-05-27T10:48:09Z</time>
</trkpt>
<trkpt lat="47.826553" lon="11.123089">
<ele>546.861</ele>
<time>2022-05-27T10:48:10Z</time>
</trkpt>
<trkpt lat="47.826527" lon="11.123032">
<ele>546.861</ele>
<time>2022-05-27T10:48:11Z</time>
</trkpt>
<trkpt lat="47.8265" lon="11.122967">
<ele>546.861</ele>
<time>2022-05-27T10:48:12Z</time>
</trkpt>
<trkpt lat="47.826481" lon="11.1229">
<ele>546.861</ele>
<time>2022-05-27T10:48:13Z</time>
</trkpt>
<trkpt lat="47.826462" lon="11.122835">
<ele>546.861</ele>
<time>2022-05-27T10:48:14Z</time>
</trkpt>
<trkpt lat="47.826447" lon="11.122765">
<ele>546.861</ele>
<time>2022-05-27T10:48:15Z</time>
</trkpt>
<trkpt lat="47.826435" lon="11.122695">
<ele>546.861</ele>
<time>2022-05-27T10:48:16Z</time>
</trkpt>
<trkpt lat="47.826427" lon="11.122622">
<ele>546.861</ele>
<time>2022-05-27T10:48:17Z</time>
</trkpt>
<trkpt lat="47.826412" lon="11.122557">
<ele>546.861</ele>
<time>2022-05-27T10:48:18Z</time>
</trkpt>
<trkpt lat="47.826393" lon="11.12249">
<ele>546.861</ele>
<time>2022-05-27T10:48:19Z</time>
</trkpt>
<trkpt lat="47.826382" lon="11.122425">
<ele>546.861</ele>
<time>2022-05-27T10:48:20Z</time>
</trkpt>
<trkpt lat="47.826359" lon="11.122356">
<ele>546.861</ele>
<time>2022-05-27T10:48:21Z</time>
</trkpt>
<trkpt lat="47.82634" lon="11.122295">
<ele>547.093</ele>
<time>2022-05-27T10:48:22Z</time>
</trkpt>
<trkpt lat="47.826324" lon="11.122233">
<ele>547.259</ele>
<time>2022-05-27T10:48:23Z</time>
</trkpt>
<trkpt lat="47.826302" lon="11.122171">
<ele>547.429</ele>
<time>2022-05-27T10:48:24Z</time>
</trkpt>
<trkpt lat="47.826279" lon="11.12211">
<ele>547.566</ele>
<time>2022-05-27T10:48:25Z</time>
</trkpt>
<trkpt lat="47.826252" lon="11.122047">
<ele>547.674</ele>
<time>2022-05-27T10:48:26Z</time>
</trkpt>
<trkpt lat="47.826221" lon="11.121984">
<ele>547.748</ele>
<time>2022-05-27T10:48:27Z</time>
</trkpt>
<trkpt lat="47.826187" lon="11.121922">
<ele>547.797</ele>
<time>2022-05-27T10:48:28Z</time>
</trkpt>
<trkpt lat="47.826153" lon="11.121863">
<ele>547.82</ele>
<time>2022-05-27T10:48:29Z</time>
</trkpt>
<trkpt lat="47.826118" lon="11.12181">
<ele>547.82</ele>
<time>2022-05-27T10:48:30Z</time>
</trkpt>
<trkpt lat="47.826088" lon="11.121757">
<ele>547.82</ele>
<time>2022-05-27T10:48:31Z</time>
</trkpt>
<trkpt lat="47.82605" lon="11.121704">
<ele>548.056</ele>
<time>2022-05-27T10:48:32Z</time>
</trkpt>
<trkpt lat="47.826004" lon="11.121654">
<ele>548.22</ele>
<time>2022-05-27T10:48:33Z</time>
</trkpt>
<trkpt lat="47.825958" lon="11.12161">
<ele>548.389</ele>
<time>2022-05-27T10:48:34Z</time>
</trkpt>
<trkpt lat="47.825909" lon="11.12157">
<ele>548.526</ele>
<time>2022-05-27T10:48:35Z</time>
</trkpt>
<trkpt lat="47.825867" lon="11.121531">
<ele>548.631</ele>
<time>2022-05-27T10:48:36Z</time>
</trkpt>
<trkpt lat="47.825817" lon="11.121493">
<ele>548.709</ele>
<time>2022-05-27T10:48:37Z</time>
</trkpt>
<trkpt lat="47.825771" lon="11.121452">
<ele>548.757</ele>
<time>2022-05-27T10:48:38Z</time>
</trkpt>
<trkpt lat="47.825726" lon="11.121408">
<ele>548.779</ele>
<time>2022-05-27T10:48:39Z</time>
</trkpt>
<trkpt lat="47.82568" lon="11.121363">
<ele>548.779</ele>
<time>2022-05-27T10:48:40Z</time>
</trkpt>
<trkpt lat="47.825634" lon="11.121319">
<ele>548.779</ele>
<time>2022-05-27T10:48:41Z</time>
</trkpt>
<trkpt lat="47.825588" lon="11.121275">
<ele>548.779</ele>
<time>2022-05-27T10:48:42Z</time>
</trkpt>
<trkpt lat="47.825542" lon="11.121235">
<ele>548.779</ele>
<time>2022-05-27T10:48:43Z</time>
</trkpt>
<trkpt lat="47.825493" lon="11.121191">
<ele>548.779</ele>
<time>2022-05-27T10:48:44Z</time>
</trkpt>
<trkpt lat="47.825451" lon="11.121147">
<ele>548.779</ele>
<time>2022-05-27T10:48:45Z</time>
</trkpt>
<trkpt lat="47.825409" lon="11.121101">
<ele>548.779</ele>
<time>2022-05-27T10:48:46Z</time>
</trkpt>
<trkpt lat="47.825367" lon="11.121055">
<ele>548.779</ele>
<time>2022-05-27T10:48:47Z</time>
</trkpt>
<trkpt lat="47.825325" lon="11.12101">
<ele>548.779</ele>
<time>2022-05-27T10:48:48Z</time>
</trkpt>
<trkpt lat="47.825287" lon="11.120965">
<ele>548.779</ele>
<time>2022-05-27T10:48:49Z</time>
</trkpt>
<trkpt lat="47.825253" lon="11.120916">
<ele>548.779</ele>
<time>2022-05-27T10:48:50Z</time>
</trkpt>
<trkpt lat="47.825214" lon="11.120867">
<ele>548.779</ele>
<time>2022-05-27T10:48:51Z</time>
</trkpt>
<trkpt lat="47.82518" lon="11.120816">
<ele>548.779</ele>
<time>2022-05-27T10:48:52Z</time>
</trkpt>
<trkpt lat="47.825142" lon="11.120764">
<ele>548.779</ele>
<time>2022-05-27T10:48:53Z</time>
</trkpt>
<trkpt lat="47.825108" lon="11.12071">
<ele>548.779</ele>
<time>2022-05-27T10:48:54Z</time>
</trkpt>
<trkpt lat="47.825073" lon="11.120652">
<ele>548.779</ele>
<time>2022-05-27T10:48:55Z</time>
</trkpt>
<trkpt lat="47.825035" lon="11.120591">
<ele>548.779</ele>
<time>2022-05-27T10:48:56Z</time>
</trkpt>
<trkpt lat="47.824997" lon="11.12053">
<ele>548.779</ele>
<time>2022-05-27T10:48:57Z</time>
</trkpt>
<trkpt lat="47.824963" lon="11.120468">
<ele>548.779</ele>
<time>2022-05-27T10:48:58Z</time>
</trkpt>
<trkpt lat="47.824928" lon="11.120407">
<ele>548.779</ele>
<time>2022-05-27T10:48:59Z</time>
</trkpt>
<trkpt lat="47.824894" lon="11.120342">
<ele>548.779</ele>
<time>2022-05-27T10:49:00Z</time>
</trkpt>
<trkpt lat="47.824863" lon="11.120278">
<ele>548.779</ele>
<time>2022-05-27T10:49:01Z</time>
</trkpt>
<trkpt lat="47.824829" lon="11.120214">
<ele>548.779</ele>
<time>2022-05-27T10:49:02Z</time>
</trkpt>
<trkpt lat="47.824799" lon="11.12015">
<ele>548.779</ele>
<time>2022-05-27T10:49:03Z</time>
</trkpt>
<trkpt lat="47.824764" lon="11.120083">
<ele>548.779</ele>
<time>2022-05-27T10:49:04Z</time>
</trkpt>
<trkpt lat="47.824734" lon="11.120017">
<ele>548.779</ele>
<time>2022-05-27T10:49:05Z</time>
</trkpt>
<trkpt lat="47.824699" lon="11.11995">
<ele>548.779</ele>
<time>2022-05-27T10:49:06Z</time>
</trkpt>
<trkpt lat="47.824669" lon="11.119884">
<ele>548.779</ele>
<time>2022-05-27T10:49:07Z</time>
</trkpt>
<trkpt lat="47.824638" lon="11.119814">
<ele>548.779</ele>
<time>2022-05-27T10:49:08Z</time>
</trkpt>
<trkpt lat="47.824608" lon="11.119745">
<ele>548.779</ele>
<time>2022-05-27T10:49:09Z</time>
</trkpt>
<trkpt lat="47.824581" lon="11.119674">
<ele>548.779</ele>
<time>2022-05-27T10:49:10Z</time>
</trkpt>
<trkpt lat="47.824554" lon="11.119603">
<ele>548.779</ele>
<time>2022-05-27T10:49:11Z</time>
</trkpt>
<trkpt lat="47.824524" lon="11.119535">
<ele>548.779</ele>
<time>2022-05-27T10:49:12Z</time>
</trkpt>
<trkpt lat="47.824497" lon="11.119467">
<ele>548.779</ele>
<time>2022-05-27T10:49:13Z</time>
</trkpt>
<trkpt lat="47.824471" lon="11.119404">
<ele>548.779</ele>
<time>2022-05-27T10:49:14Z</time>
</trkpt>
<trkpt lat="47.824444" lon="11.11934">
<ele>548.779</ele>
<time>2022-05-27T10:49:15Z</time>
</trkpt>
<trkpt lat="47.824421" lon="11.119276">
<ele>548.779</ele>
<time>2022-05-27T10:49:16Z</time>
</trkpt>
<trkpt lat="47.824398" lon="11.119211">
<ele>548.779</ele>
<time>2022-05-27T10:49:17Z</time>
</trkpt>
<trkpt lat="47.824375" lon="11.119145">
<ele>548.779</ele>
<time>2022-05-27T10:49:18Z</time>
</trkpt>
<trkpt lat="47.824352" lon="11.119081">
<ele>548.779</ele>
<time>2022-05-27T10:49:19Z</time>
</trkpt>
<trkpt lat="47.824333" lon="11.119015">
<ele>548.779</ele>
<time>2022-05-27T10:49:20Z</time>
</trkpt>
<trkpt lat="47.82431" lon="11.118952">
<ele>548.779</ele>
<time>2022-05-27T10:49:21Z</time>
</trkpt>
<trkpt lat="47.824299" lon="11.118888">
<ele>548.779</ele>
<time>2022-05-27T10:49:22Z</time>
</trkpt>
<trkpt lat="47.824276" lon="11.118827">
<ele>548.779</ele>
<time>2022-05-27T10:49:23Z</time>
</trkpt>
<trkpt lat="47.824257" lon="11.118767">
<ele>548.779</ele>
<time>2022-05-27T10:49:24Z</time>
</trkpt>
<trkpt lat="47.824242" lon="11.118704">
<ele>548.779</ele>
<time>2022-05-27T10:49:25Z</time>
</trkpt>
<trkpt lat="47.824223" lon="11.118643">
<ele>548.779</ele>
<time>2022-05-27T10:49:26Z</time>
</trkpt>
<trkpt lat="47.824207" lon="11.11858">
<ele>548.779</ele>
<time>2022-05-27T10:49:27Z</time>
</trkpt>
<trkpt lat="47.824192" lon="11.118513">
<ele>548.779</ele>
<time>2022-05-27T10:49:28Z</time>
</trkpt>
<trkpt lat="47.824181" lon="11.118442">
<ele>548.779</ele>
<time>2022-05-27T10:49:29Z</time>
</trkpt>
<trkpt lat="47.824177" lon="11.118363">
<ele>548.779</ele>
<time>2022-05-27T10:49:30Z</time>
</trkpt>
<trkpt lat="47.824184" lon="11.11828">
<ele>548.507</ele>
<time>2022-05-27T10:49:31Z</time>
</trkpt>
<trkpt lat="47.824192" lon="11.118195">
<ele>548.292</ele>
<time>2022-05-27T10:49:32Z</time>
</trkpt>
<trkpt lat="47.824188" lon="11.118109">
<ele>548.152</ele>
<time>2022-05-27T10:49:33Z</time>
</trkpt>
<trkpt lat="47.824177" lon="11.118025">
<ele>547.997</ele>
<time>2022-05-27T10:49:34Z</time>
</trkpt>
<trkpt lat="47.824162" lon="11.117949">
<ele>547.884</ele>
<time>2022-05-27T10:49:35Z</time>
</trkpt>
<trkpt lat="47.824131" lon="11.117885">
<ele>547.805</ele>
<time>2022-05-27T10:49:36Z</time>
</trkpt>
<trkpt lat="47.824097" lon="11.117824">
<ele>547.756</ele>
<time>2022-05-27T10:49:37Z</time>
</trkpt>
<trkpt lat="47.824055" lon="11.117767">
<ele>547.733</ele>
<time>2022-05-27T10:49:38Z</time>
</trkpt>
<trkpt lat="47.824017" lon="11.117711">
<ele>547.733</ele>
<time>2022-05-27T10:49:39Z</time>
</trkpt>
<trkpt lat="47.823978" lon="11.117662">
<ele>547.733</ele>
<time>2022-05-27T10:49:40Z</time>
</trkpt>
<trkpt lat="47.82394" lon="11.11761">
<ele>547.733</ele>
<time>2022-05-27T10:49:41Z</time>
</trkpt>
<trkpt lat="47.823895" lon="11.11756">
<ele>547.733</ele>
<time>2022-05-27T10:49:42Z</time>
</trkpt>
<trkpt lat="47.823856" lon="11.11751">
<ele>547.733</ele>
<time>2022-05-27T10:49:43Z</time>
</trkpt>
<trkpt lat="47.823818" lon="11.117458">
<ele>547.501</ele>
<time>2022-05-27T10:49:44Z</time>
</trkpt>
<trkpt lat="47.823784" lon="11.117407">
<ele>547.307</ele>
<time>2022-05-27T10:49:45Z</time>
</trkpt>
<trkpt lat="47.82375" lon="11.117352">
<ele>547.147</ele>
<time>2022-05-27T10:49:46Z</time>
</trkpt>
<trkpt lat="47.823715" lon="11.1173">
<ele>547.09</ele>
<time>2022-05-27T10:49:47Z</time>
</trkpt>
<trkpt lat="47.823681" lon="11.117246">
<ele>547.211</ele>
<time>2022-05-27T10:49:48Z</time>
</trkpt>
<trkpt lat="47.82365" lon="11.117187">
<ele>547.32</ele>
<time>2022-05-27T10:49:49Z</time>
</trkpt>
<trkpt lat="47.823624" lon="11.117128">
<ele>547.419</ele>
<time>2022-05-27T10:49:50Z</time>
</trkpt>
<trkpt lat="47.823597" lon="11.117067">
<ele>547.508</ele>
<time>2022-05-27T10:49:51Z</time>
</trkpt>
<trkpt lat="47.823582" lon="11.117001">
<ele>547.589</ele>
<time>2022-05-27T10:49:52Z</time>
</trkpt>
<trkpt lat="47.82357" lon="11.116932">
<ele>547.652</ele>
<time>2022-05-27T10:49:53Z</time>
</trkpt>
<trkpt lat="47.823566" lon="11.116863">
<ele>547.707</ele>
<time>2022-05-27T10:49:54Z</time>
</trkpt>
<trkpt lat="47.823574" lon="11.116796">
<ele>547.733</ele>
<time>2022-05-27T10:49:55Z</time>
</trkpt>
<trkpt lat="47.823589" lon="11.116732">
<ele>547.733</ele>
<time>2022-05-27T10:49:56Z</time>
</trkpt>
<trkpt lat="47.823605" lon="11.116667">
<ele>547.733</ele>
<time>2022-05-27T10:49:57Z</time>
</trkpt>
<trkpt lat="47.823624" lon="11.116602">
<ele>547.733</ele>
<time>2022-05-27T10:49:58Z</time>
</trkpt>
<trkpt lat="47.82365" lon="11.116537">
<ele>547.733</ele>
<time>2022-05-27T10:49:59Z</time>
</trkpt>
<trkpt lat="47.823673" lon="11.116473">
<ele>547.733</ele>
<time>2022-05-27T10:50:00Z</time>
</trkpt>
<trkpt lat="47.823689" lon="11.116407">
<ele>547.733</ele>
<time>2022-05-27T10:50:01Z</time>
</trkpt>
<trkpt lat="47.823711" lon="11.116337">
<ele>547.733</ele>
<time>2022-05-27T10:50:02Z</time>
</trkpt>
<trkpt lat="47.823727" lon="11.116267">
<ele>547.93</ele>
<time>2022-05-27T10:50:03Z</time>
</trkpt>
<trkpt lat="47.823746" lon="11.116192">
<ele>548.116</ele>
<time>2022-05-27T10:50:04Z</time>
</trkpt>
<trkpt lat="47.823753" lon="11.116114">
<ele>548.266</ele>
<time>2022-05-27T10:50:05Z</time>
</trkpt>
<trkpt lat="47.823769" lon="11.116032">
<ele>548.318</ele>
<time>2022-05-27T10:50:06Z</time>
</trkpt>
<trkpt lat="47.823776" lon="11.115947">
<ele>548.191</ele>
<time>2022-05-27T10:50:07Z</time>
</trkpt>
<trkpt lat="47.82378" lon="11.115861">
<ele>548.083</ele>
<time>2022-05-27T10:50:08Z</time>
</trkpt>
<trkpt lat="47.823776" lon="11.115786">
<ele>547.99</ele>
<time>2022-05-27T10:50:09Z</time>
</trkpt>
<trkpt lat="47.823765" lon="11.115718">
<ele>547.91</ele>
<time>2022-05-27T10:50:10Z</time>
</trkpt>
<trkpt lat="47.82375" lon="11.115653">
<ele>547.842</ele>
<time>2022-05-27T10:50:11Z</time>
</trkpt>
<trkpt lat="47.823723" lon="11.115586">
<ele>547.795</ele>
<time>2022-05-27T10:50:12Z</time>
</trkpt>
<trkpt lat="47.823696" lon="11.115521">
<ele>547.757</ele>
<time>2022-05-27T10:50:13Z</time>
</trkpt>
<trkpt lat="47.823666" lon="11.115463">
<ele>547.733</ele>
<time>2022-05-27T10:50:14Z</time>
</trkpt>
<trkpt lat="47.823631" lon="11.115404">
<ele>547.733</ele>
<time>2022-05-27T10:50:15Z</time>
</trkpt>
<trkpt lat="47.823597" lon="11.115352">
<ele>547.733</ele>
<time>2022-05-27T10:50:16Z</time>
</trkpt>
<trkpt lat="47.823563" lon="11.115299">
<ele>547.733</ele>
<time>2022-05-27T10:50:17Z</time>
</trkpt>
<trkpt lat="47.823528" lon="11.11525">
<ele>547.733</ele>
<time>2022-05-27T10:50:18Z</time>
</trkpt>
<trkpt lat="47.823494" lon="11.11521">
<ele>547.733</ele>
<time>2022-05-27T10:50:19Z</time>
</trkpt>
<trkpt lat="47.823456" lon="11.115169">
<ele>547.733</ele>
<time>2022-05-27T10:50:20Z</time>
</trkpt>
<trkpt lat="47.823418" lon="11.115127">
<ele>547.733</ele>
<time>2022-05-27T10:50:21Z</time>
</trkpt>
<trkpt lat="47.82338" lon="11.115088">
<ele>547.733</ele>
<time>2022-05-27T10:50:22Z</time>
</trkpt>
<trkpt lat="47.823338" lon="11.11505">
<ele>547.733</ele>
<time>2022-05-27T10:50:23Z</time>
</trkpt>
<trkpt lat="47.823299" lon="11.115017">
<ele>547.733</ele>
<time>2022-05-27T10:50:24Z</time>
</trkpt>
<trkpt lat="47.823257" lon="11.114984">
<ele>547.733</ele>
<time>2022-05-27T10:50:25Z</time>
</trkpt>
<trkpt lat="47.823208" lon="11.114953">
<ele>547.986</ele>
<time>2022-05-27T10:50:26Z</time>
</trkpt>
<trkpt lat="47.823166" lon="11.114926">
<ele>548.183</ele>
<time>2022-05-27T10:50:27Z</time>
</trkpt>
<trkpt lat="47.823124" lon="11.114897">
<ele>548.33</ele>
<time>2022-05-27T10:50:28Z</time>
</trkpt>
<trkpt lat="47.823078" lon="11.114868">
<ele>548.439</ele>
<time>2022-05-27T10:50:29Z</time>
</trkpt>
<trkpt lat="47.823032" lon="11.114845">
<ele>548.517</ele>
<time>2022-05-27T10:50:30Z</time>
</trkpt>
<trkpt lat="47.822983" lon="11.114826">
<ele>548.563</ele>
<time>2022-05-27T10:50:31Z</time>
</trkpt>
<trkpt lat="47.822941" lon="11.11481">
<ele>548.585</ele>
<time>2022-05-27T10:50:32Z</time>
</trkpt>
<trkpt lat="47.822895" lon="11.114794">
<ele>548.605</ele>
<time>2022-05-27T10:50:33Z</time>
</trkpt>
<trkpt lat="47.822845" lon="11.114778">
<ele>548.605</ele>
<time>2022-05-27T10:50:34Z</time>
</trkpt>
<trkpt lat="47.8228" lon="11.114767">
<ele>548.605</ele>
<time>2022-05-27T10:50:35Z</time>
</trkpt>
<trkpt lat="47.82275" lon="11.114755">
<ele>548.605</ele>
<time>2022-05-27T10:50:36Z</time>
</trkpt>
<trkpt lat="47.822701" lon="11.114746">
<ele>548.605</ele>
<time>2022-05-27T10:50:37Z</time>
</trkpt>
<trkpt lat="47.822647" lon="11.114738">
<ele>548.605</ele>
<time>2022-05-27T10:50:38Z</time>
</trkpt>
<trkpt lat="47.822601" lon="11.114734">
<ele>548.605</ele>
<time>2022-05-27T10:50:39Z</time>
</trkpt>
<trkpt lat="47.822548" lon="11.114727">
<ele>548.605</ele>
<time>2022-05-27T10:50:40Z</time>
</trkpt>
<trkpt lat="47.822498" lon="11.114723">
<ele>548.605</ele>
<time>2022-05-27T10:50:41Z</time>
</trkpt>
<trkpt lat="47.822449" lon="11.11472">
<ele>548.605</ele>
<time>2022-05-27T10:50:42Z</time>
</trkpt>
<trkpt lat="47.822395" lon="11.114721">
<ele>548.605</ele>
<time>2022-05-27T10:50:43Z</time>
</trkpt>
<trkpt lat="47.822342" lon="11.114723">
<ele>548.605</ele>
<time>2022-05-27T10:50:44Z</time>
</trkpt>
<trkpt lat="47.822289" lon="11.114728">
<ele>548.605</ele>
<time>2022-05-27T10:50:45Z</time>
</trkpt>
<trkpt lat="47.822239" lon="11.114732">
<ele>548.605</ele>
<time>2022-05-27T10:50:46Z</time>
</trkpt>
<trkpt lat="47.822189" lon="11.11474">
<ele>548.605</ele>
<time>2022-05-27T10:50:47Z</time>
</trkpt>
<trkpt lat="47.822136" lon="11.114753">
<ele>548.605</ele>
<time>2022-05-27T10:50:48Z</time>
</trkpt>
<trkpt lat="47.822086" lon="11.114769">
<ele>548.605</ele>
<time>2022-05-27T10:50:49Z</time>
</trkpt>
<trkpt lat="47.822037" lon="11.114785">
<ele>548.605</ele>
<time>2022-05-27T10:50:50Z</time>
</trkpt>
<trkpt lat="47.821991" lon="11.114807">
<ele>548.605</ele>
<time>2022-05-27T10:50:51Z</time>
</trkpt>
<trkpt lat="47.821938" lon="11.11483">
<ele>548.605</ele>
<time>2022-05-27T10:50:52Z</time>
</trkpt>
<trkpt lat="47.821888" lon="11.114857">
<ele>548.605</ele>
<time>2022-05-27T10:50:53Z</time>
</trkpt>
<trkpt lat="47.821838" lon="11.114886">
<ele>548.605</ele>
<time>2022-05-27T10:50:54Z</time>
</trkpt>
<trkpt lat="47.821793" lon="11.114918">
<ele>548.605</ele>
<time>2022-05-27T10:50:55Z</time>
</trkpt>
<trkpt lat="47.821743" lon="11.114951">
<ele>548.605</ele>
<time>2022-05-27T10:50:56Z</time>
</trkpt>
<trkpt lat="47.821697" lon="11.114986">
<ele>548.605</ele>
<time>2022-05-27T10:50:57Z</time>
</trkpt>
<trkpt lat="47.821648" lon="11.115021">
<ele>548.605</ele>
<time>2022-05-27T10:50:58Z</time>
</trkpt>
<trkpt lat="47.821602" lon="11.115054">
<ele>548.605</ele>
<time>2022-05-27T10:50:59Z</time>
</trkpt>
<trkpt lat="47.82156" lon="11.115088">
<ele>548.605</ele>
<time>2022-05-27T10:51:00Z</time>
</trkpt>
<trkpt lat="47.821518" lon="11.115122">
<ele>548.605</ele>
<time>2022-05-27T10:51:01Z</time>
</trkpt>
<trkpt lat="47.821476" lon="11.115155">
<ele>548.605</ele>
<time>2022-05-27T10:51:02Z</time>
</trkpt>
<trkpt lat="47.821438" lon="11.115191">
<ele>548.605</ele>
<time>2022-05-27T10:51:03Z</time>
</trkpt>
<trkpt lat="47.821392" lon="11.115225">
<ele>548.605</ele>
<time>2022-05-27T10:51:04Z</time>
</trkpt>
<trkpt lat="47.821346" lon="11.115264">
<ele>548.605</ele>
<time>2022-05-27T10:51:05Z</time>
</trkpt>
<trkpt lat="47.821304" lon="11.115303">
<ele>548.605</ele>
<time>2022-05-27T10:51:06Z</time>
</trkpt>
<trkpt lat="47.821259" lon="11.115348">
<ele>548.605</ele>
<time>2022-05-27T10:51:07Z</time>
</trkpt>
<trkpt lat="47.821213" lon="11.115396">
<ele>548.605</ele>
<time>2022-05-27T10:51:08Z</time>
</trkpt>
<trkpt lat="47.821171" lon="11.115439">
<ele>548.605</ele>
<time>2022-05-27T10:51:09Z</time>
</trkpt>
<trkpt lat="47.821125" lon="11.115486">
<ele>548.605</ele>
<time>2022-05-27T10:51:10Z</time>
</trkpt>
<trkpt lat="47.821083" lon="11.115537">
<ele>548.605</ele>
<time>2022-05-27T10:51:11Z</time>
</trkpt>
<trkpt lat="47.821045" lon="11.115592">
<ele>548.605</ele>
<time>2022-05-27T10:51:12Z</time>
</trkpt>
<trkpt lat="47.821007" lon="11.115644">
<ele>548.605</ele>
<time>2022-05-27T10:51:13Z</time>
</trkpt>
<trkpt lat="47.820965" lon="11.115697">
<ele>548.605</ele>
<time>2022-05-27T10:51:14Z</time>
</trkpt>
<trkpt lat="47.82093" lon="11.11575">
<ele>548.605</ele>
<time>2022-05-27T10:51:15Z</time>
</trkpt>
<trkpt lat="47.820892" lon="11.115798">
<ele>548.605</ele>
<time>2022-05-27T10:51:16Z</time>
</trkpt>
<trkpt lat="47.820858" lon="11.115849">
<ele>548.605</ele>
<time>2022-05-27T10:51:17Z</time>
</trkpt>
<trkpt lat="47.820824" lon="11.115903">
<ele>548.605</ele>
<time>2022-05-27T10:51:18Z</time>
</trkpt>
<trkpt lat="47.820786" lon="11.115961">
<ele>548.605</ele>
<time>2022-05-27T10:51:19Z</time>
</trkpt>
<trkpt lat="47.820755" lon="11.116016">
<ele>548.605</ele>
<time>2022-05-27T10:51:20Z</time>
</trkpt>
<trkpt lat="47.820721" lon="11.116066">
<ele>548.605</ele>
<time>2022-05-27T10:51:21Z</time>
</trkpt>
<trkpt lat="47.82069" lon="11.116115">
<ele>548.605</ele>
<time>2022-05-27T10:51:22Z</time>
</trkpt>
<trkpt lat="47.820663" lon="11.116167">
<ele>548.605</ele>
<time>2022-05-27T10:51:23Z</time>
</trkpt>
<trkpt lat="47.820633" lon="11.11622">
<ele>548.605</ele>
<time>2022-05-27T10:51:24Z</time>
</trkpt>
<trkpt lat="47.820606" lon="11.116277">
<ele>548.605</ele>
<time>2022-05-27T10:51:25Z</time>
</trkpt>
<trkpt lat="47.820576" lon="11.116335">
<ele>548.605</ele>
<time>2022-05-27T10:51:26Z</time>
</trkpt>
<trkpt lat="47.820545" lon="11.116395">
<ele>548.605</ele>
<time>2022-05-27T10:51:27Z</time>
</trkpt>
<trkpt lat="47.820507" lon="11.116458">
<ele>548.605</ele>
<time>2022-05-27T10:51:28Z</time>
</trkpt>
<trkpt lat="47.820469" lon="11.116515">
<ele>548.605</ele>
<time>2022-05-27T10:51:29Z</time>
</trkpt>
<trkpt lat="47.820431" lon="11.116575">
<ele>548.605</ele>
<time>2022-05-27T10:51:30Z</time>
</trkpt>
<trkpt lat="47.820396" lon="11.116633">
<ele>548.605</ele>
<time>2022-05-27T10:51:31Z</time>
</trkpt>
<trkpt lat="47.820358" lon="11.116691">
<ele>548.605</ele>
<time>2022-05-27T10:51:32Z</time>
</trkpt>
<trkpt lat="47.82032" lon="11.116745">
<ele>548.605</ele>
<time>2022-05-27T10:51:33Z</time>
</trkpt>
<trkpt lat="47.820282" lon="11.116796">
<ele>548.605</ele>
<time>2022-05-27T10:51:34Z</time>
</trkpt>
<trkpt lat="47.820244" lon="11.116839">
<ele>548.605</ele>
<time>2022-05-27T10:51:35Z</time>
</trkpt>
<trkpt lat="47.820202" lon="11.116879">
<ele>548.605</ele>
<time>2022-05-27T10:51:36Z</time>
</trkpt>
<trkpt lat="47.820156" lon="11.116913">
<ele>548.605</ele>
<time>2022-05-27T10:51:37Z</time>
</trkpt>
<trkpt lat="47.820107" lon="11.116946">
<ele>548.605</ele>
<time>2022-05-27T10:51:38Z</time>
</trkpt>
<trkpt lat="47.820061" lon="11.116982">
<ele>548.605</ele>
<time>2022-05-27T10:51:39Z</time>
</trkpt>
<trkpt lat="47.820007" lon="11.117013">
<ele>548.605</ele>
<time>2022-05-27T10:51:40Z</time>
</trkpt>
<trkpt lat="47.819962" lon="11.117044">
<ele>548.605</ele>
<time>2022-05-27T10:51:41Z</time>
</trkpt>
<trkpt lat="47.819908" lon="11.117074">
<ele>548.605</ele>
<time>2022-05-27T10:51:42Z</time>
</trkpt>
<trkpt lat="47.819859" lon="11.117099">
<ele>548.823</ele>
<time>2022-05-27T10:51:43Z</time>
</trkpt>
<trkpt lat="47.819809" lon="11.11712">
<ele>549.025</ele>
<time>2022-05-27T10:51:44Z</time>
</trkpt>
<trkpt lat="47.819763" lon="11.117141">
<ele>549.188</ele>
<time>2022-05-27T10:51:45Z</time>
</trkpt>
<trkpt lat="47.819714" lon="11.117157">
<ele>549.316</ele>
<time>2022-05-27T10:51:46Z</time>
</trkpt>
<trkpt lat="47.819675" lon="11.117173">
<ele>549.417</ele>
<time>2022-05-27T10:51:47Z</time>
</trkpt>
<trkpt lat="47.819633" lon="11.117189">
<ele>549.491</ele>
<time>2022-05-27T10:51:48Z</time>
</trkpt>
<trkpt lat="47.819592" lon="11.117197">
<ele>549.54</ele>
<time>2022-05-27T10:51:49Z</time>
</trkpt>
<trkpt lat="47.819553" lon="11.117204">
<ele>549.564</ele>
<time>2022-05-27T10:51:50Z</time>
</trkpt>
<trkpt lat="47.819519" lon="11.117208">
<ele>549.564</ele>
<time>2022-05-27T10:51:51Z</time>
</trkpt>
<trkpt lat="47.819489" lon="11.117216">
<ele>549.564</ele>
<time>2022-05-27T10:51:52Z</time>
</trkpt>
<trkpt lat="47.819462" lon="11.117223">
<ele>549.564</ele>
<time>2022-05-27T10:51:53Z</time>
</trkpt>
<trkpt lat="47.819435" lon="11.117223">
<ele>549.564</ele>
<time>2022-05-27T10:51:54Z</time>
</trkpt>
<trkpt lat="47.81942" lon="11.117214">
<ele>549.564</ele>
<time>2022-05-27T10:51:55Z</time>
</trkpt>
<trkpt lat="47.819397" lon="11.117193">
<ele>549.564</ele>
<time>2022-05-27T10:51:56Z</time>
</trkpt>
<trkpt lat="47.819366" lon="11.117172">
<ele>549.564</ele>
<time>2022-05-27T10:51:57Z</time>
</trkpt>
<trkpt lat="47.819321" lon="11.117162">
<ele>549.303</ele>
<time>2022-05-27T10:51:58Z</time>
</trkpt>
<trkpt lat="47.819271" lon="11.117155">
<ele>549.126</ele>
<time>2022-05-27T10:51:59Z</time>
</trkpt>
<trkpt lat="47.819221" lon="11.117155">
<ele>548.591</ele>
<time>2022-05-27T10:52:00Z</time>
</trkpt>
<trkpt lat="47.819164" lon="11.117158">
<ele>548.192</ele>
<time>2022-05-27T10:52:01Z</time>
</trkpt>
<trkpt lat="47.819107" lon="11.11716">
<ele>547.915</ele>
<time>2022-05-27T10:52:02Z</time>
</trkpt>
<trkpt lat="47.819042" lon="11.117167">
<ele>547.757</ele>
<time>2022-05-27T10:52:03Z</time>
</trkpt>
<trkpt lat="47.818989" lon="11.117173">
<ele>548.16</ele>
<time>2022-05-27T10:52:04Z</time>
</trkpt>
<trkpt lat="47.818939" lon="11.117177">
<ele>548.46</ele>
<time>2022-05-27T10:52:05Z</time>
</trkpt>
<trkpt lat="47.818897" lon="11.117175">
<ele>548.552</ele>
<time>2022-05-27T10:52:06Z</time>
</trkpt>
<trkpt lat="47.818855" lon="11.117167">
<ele>548.839</ele>
<time>2022-05-27T10:52:07Z</time>
</trkpt>
<trkpt lat="47.818817" lon="11.117157">
<ele>549.028</ele>
<time>2022-05-27T10:52:08Z</time>
</trkpt>
<trkpt lat="47.81879" lon="11.117146">
<ele>549.22</ele>
<time>2022-05-27T10:52:09Z</time>
</trkpt>
<trkpt lat="47.818764" lon="11.117141">
<ele>549.355</ele>
<time>2022-05-27T10:52:10Z</time>
</trkpt>
<trkpt lat="47.818741" lon="11.117132">
<ele>549.43</ele>
<time>2022-05-27T10:52:11Z</time>
</trkpt>
<trkpt lat="47.818718" lon="11.117118">
<ele>549.451</ele>
<time>2022-05-27T10:52:12Z</time>
</trkpt>
<trkpt lat="47.818691" lon="11.117102">
<ele>549.461</ele>
<time>2022-05-27T10:52:13Z</time>
</trkpt>
<trkpt lat="47.818668" lon="11.117085">
<ele>549.469</ele>
<time>2022-05-27T10:52:14Z</time>
</trkpt>
<trkpt lat="47.818634" lon="11.117084">
<ele>549.474</ele>
<time>2022-05-27T10:52:15Z</time>
</trkpt>
<trkpt lat="47.818604" lon="11.117078">
<ele>549.477</ele>
<time>2022-05-27T10:52:16Z</time>
</trkpt>
<trkpt lat="47.818573" lon="11.117074">
<ele>549.477</ele>
<time>2022-05-27T10:52:17Z</time>
</trkpt>
<trkpt lat="47.818542" lon="11.117062">
<ele>549.477</ele>
<time>2022-05-27T10:52:18Z</time>
</trkpt>
<trkpt lat="47.818516" lon="11.117044">
<ele>549.477</ele>
<time>2022-05-27T10:52:19Z</time>
</trkpt>
<trkpt lat="47.818481" lon="11.117026">
<ele>549.477</ele>
<time>2022-05-27T10:52:20Z</time>
</trkpt>
<trkpt lat="47.818447" lon="11.117006">
<ele>549.477</ele>
<time>2022-05-27T10:52:21Z</time>
</trkpt>
<trkpt lat="47.818413" lon="11.116994">
<ele>549.477</ele>
<time>2022-05-27T10:52:22Z</time>
</trkpt>
<trkpt lat="47.818378" lon="11.116977">
<ele>549.477</ele>
<time>2022-05-27T10:52:23Z</time>
</trkpt>
<trkpt lat="47.818344" lon="11.11695">
<ele>549.477</ele>
<time>2022-05-27T10:52:24Z</time>
</trkpt>
<trkpt lat="47.81831" lon="11.116921">
<ele>549.477</ele>
<time>2022-05-27T10:52:25Z</time>
</trkpt>
<trkpt lat="47.81826" lon="11.11689">
<ele>549.477</ele>
<time>2022-05-27T10:52:26Z</time>
</trkpt>
<trkpt lat="47.818211" lon="11.116852">
<ele>549.477</ele>
<time>2022-05-27T10:52:27Z</time>
</trkpt>
<trkpt lat="47.818169" lon="11.116814">
<ele>549.477</ele>
<time>2022-05-27T10:52:28Z</time>
</trkpt>
<trkpt lat="47.818119" lon="11.116775">
<ele>549.477</ele>
<time>2022-05-27T10:52:29Z</time>
</trkpt>
<trkpt lat="47.818085" lon="11.116738">
<ele>549.477</ele>
<time>2022-05-27T10:52:30Z</time>
</trkpt>
<trkpt lat="47.81805" lon="11.116701">
<ele>549.477</ele>
<time>2022-05-27T10:52:31Z</time>
</trkpt>
<trkpt lat="47.818016" lon="11.11667">
<ele>549.477</ele>
<time>2022-05-27T10:52:32Z</time>
</trkpt>
<trkpt lat="47.817986" lon="11.116642">
<ele>549.477</ele>
<time>2022-05-27T10:52:33Z</time>
</trkpt>
<trkpt lat="47.817951" lon="11.116619">
<ele>549.477</ele>
<time>2022-05-27T10:52:34Z</time>
</trkpt>
<trkpt lat="47.817917" lon="11.11659">
<ele>549.477</ele>
<time>2022-05-27T10:52:35Z</time>
</trkpt>
<trkpt lat="47.817886" lon="11.116553">
<ele>549.477</ele>
<time>2022-05-27T10:52:36Z</time>
</trkpt>
<trkpt lat="47.817844" lon="11.116512">
<ele>549.477</ele>
<time>2022-05-27T10:52:37Z</time>
</trkpt>
<trkpt lat="47.817802" lon="11.116467">
<ele>549.477</ele>
<time>2022-05-27T10:52:38Z</time>
</trkpt>
<trkpt lat="47.817757" lon="11.116418">
<ele>549.477</ele>
<time>2022-05-27T10:52:39Z</time>
</trkpt>
<trkpt lat="47.817703" lon="11.116368">
<ele>549.207</ele>
<time>2022-05-27T10:52:40Z</time>
</trkpt>
<trkpt lat="47.817657" lon="11.11632">
<ele>549.001</ele>
<time>2022-05-27T10:52:41Z</time>
</trkpt>
<trkpt lat="47.817619" lon="11.116282">
<ele>548.851</ele>
<time>2022-05-27T10:52:42Z</time>
</trkpt>
<trkpt lat="47.81757" lon="11.11625">
<ele>548.755</ele>
<time>2022-05-27T10:52:43Z</time>
</trkpt>
<trkpt lat="47.81752" lon="11.116234">
<ele>548.658</ele>
<time>2022-05-27T10:52:44Z</time>
</trkpt>
<trkpt lat="47.817467" lon="11.11623">
<ele>548.588</ele>
<time>2022-05-27T10:52:45Z</time>
</trkpt>
<trkpt lat="47.81741" lon="11.116236">
<ele>548.541</ele>
<time>2022-05-27T10:52:46Z</time>
</trkpt>
<trkpt lat="47.817352" lon="11.116248">
<ele>548.518</ele>
<time>2022-05-27T10:52:47Z</time>
</trkpt>
<trkpt lat="47.817303" lon="11.116265">
<ele>548.518</ele>
<time>2022-05-27T10:52:48Z</time>
</trkpt>
<trkpt lat="47.817253" lon="11.116284">
<ele>548.518</ele>
<time>2022-05-27T10:52:49Z</time>
</trkpt>
<trkpt lat="47.817204" lon="11.116309">
<ele>548.518</ele>
<time>2022-05-27T10:52:50Z</time>
</trkpt>
<trkpt lat="47.817158" lon="11.116337">
<ele>548.518</ele>
<time>2022-05-27T10:52:51Z</time>
</trkpt>
<trkpt lat="47.817108" lon="11.11636">
<ele>548.518</ele>
<time>2022-05-27T10:52:52Z</time>
</trkpt>
<trkpt lat="47.817062" lon="11.116386">
<ele>548.518</ele>
<time>2022-05-27T10:52:53Z</time>
</trkpt>
<trkpt lat="47.817013" lon="11.116416">
<ele>548.518</ele>
<time>2022-05-27T10:52:54Z</time>
</trkpt>
<trkpt lat="47.816967" lon="11.116447">
<ele>548.518</ele>
<time>2022-05-27T10:52:55Z</time>
</trkpt>
<trkpt lat="47.816914" lon="11.116481">
<ele>548.798</ele>
<time>2022-05-27T10:52:56Z</time>
</trkpt>
<trkpt lat="47.816868" lon="11.116513">
<ele>549.012</ele>
<time>2022-05-27T10:52:57Z</time>
</trkpt>
<trkpt lat="47.816826" lon="11.116546">
<ele>549.176</ele>
<time>2022-05-27T10:52:58Z</time>
</trkpt>
<trkpt lat="47.81678" lon="11.116571">
<ele>549.293</ele>
<time>2022-05-27T10:52:59Z</time>
</trkpt>
<trkpt lat="47.816738" lon="11.116598">
<ele>549.38</ele>
<time>2022-05-27T10:53:00Z</time>
</trkpt>
<trkpt lat="47.816696" lon="11.116627">
<ele>549.43</ele>
<time>2022-05-27T10:53:01Z</time>
</trkpt>
<trkpt lat="47.816658" lon="11.11666">
<ele>549.454</ele>
<time>2022-05-27T10:53:02Z</time>
</trkpt>
<trkpt lat="47.816616" lon="11.116696">
<ele>549.477</ele>
<time>2022-05-27T10:53:03Z</time>
</trkpt>
<trkpt lat="47.816578" lon="11.116732">
<ele>549.683</ele>
<time>2022-05-27T10:53:04Z</time>
</trkpt>
<trkpt lat="47.816536" lon="11.116766">
<ele>549.862</ele>
<time>2022-05-27T10:53:05Z</time>
</trkpt>
<trkpt lat="47.816494" lon="11.116796">
<ele>550.012</ele>
<time>2022-05-27T10:53:06Z</time>
</trkpt>
<trkpt lat="47.816452" lon="11.116822">
<ele>550.129</ele>
<time>2022-05-27T10:53:07Z</time>
</trkpt>
<trkpt lat="47.816406" lon="11.116848">
<ele>550.224</ele>
<time>2022-05-27T10:53:08Z</time>
</trkpt>
<trkpt lat="47.81636" lon="11.116877">
<ele>550.288</ele>
<time>2022-05-27T10:53:09Z</time>
</trkpt>
<trkpt lat="47.816319" lon="11.116903">
<ele>550.33</ele>
<time>2022-05-27T10:53:10Z</time>
</trkpt>
<trkpt lat="47.816273" lon="11.116934">
<ele>550.349</ele>
<time>2022-05-27T10:53:11Z</time>
</trkpt>
<trkpt lat="47.816227" lon="11.116961">
<ele>550.349</ele>
<time>2022-05-27T10:53:12Z</time>
</trkpt>
<trkpt lat="47.816181" lon="11.116985">
<ele>550.349</ele>
<time>2022-05-27T10:53:13Z</time>
</trkpt>
<trkpt lat="47.816128" lon="11.117008">
<ele>550.349</ele>
<time>2022-05-27T10:53:14Z</time>
</trkpt>
<trkpt lat="47.816082" lon="11.117026">
<ele>550.349</ele>
<time>2022-05-27T10:53:15Z</time>
</trkpt>
<trkpt lat="47.816036" lon="11.117042">
<ele>550.349</ele>
<time>2022-05-27T10:53:16Z</time>
</trkpt>
<trkpt lat="47.81599" lon="11.117057">
<ele>550.349</ele>
<time>2022-05-27T10:53:17Z</time>
</trkpt>
<trkpt lat="47.815945" lon="11.11707">
<ele>550.349</ele>
<time>2022-05-27T10:53:18Z</time>
</trkpt>
<trkpt lat="47.815899" lon="11.117082">
<ele>550.349</ele>
<time>2022-05-27T10:53:19Z</time>
</trkpt>
<trkpt lat="47.815857" lon="11.117093">
<ele>550.349</ele>
<time>2022-05-27T10:53:20Z</time>
</trkpt>
<trkpt lat="47.815811" lon="11.1171">
<ele>550.349</ele>
<time>2022-05-27T10:53:21Z</time>
</trkpt>
<trkpt lat="47.815765" lon="11.117104">
<ele>550.349</ele>
<time>2022-05-27T10:53:22Z</time>
</trkpt>
<trkpt lat="47.815716" lon="11.117108">
<ele>550.349</ele>
<time>2022-05-27T10:53:23Z</time>
</trkpt>
<trkpt lat="47.815674" lon="11.117113">
<ele>550.349</ele>
<time>2022-05-27T10:53:24Z</time>
</trkpt>
<trkpt lat="47.815632" lon="11.117115">
<ele>550.349</ele>
<time>2022-05-27T10:53:25Z</time>
</trkpt>
<trkpt lat="47.815586" lon="11.117118">
<ele>550.349</ele>
<time>2022-05-27T10:53:26Z</time>
</trkpt>
<trkpt lat="47.81554" lon="11.117115">
<ele>550.349</ele>
<time>2022-05-27T10:53:27Z</time>
</trkpt>
<trkpt lat="47.815487" lon="11.117115">
<ele>550.349</ele>
<time>2022-05-27T10:53:28Z</time>
</trkpt>
<trkpt lat="47.815441" lon="11.117107">
<ele>550.349</ele>
<time>2022-05-27T10:53:29Z</time>
</trkpt>
<trkpt lat="47.815392" lon="11.117093">
<ele>550.349</ele>
<time>2022-05-27T10:53:30Z</time>
</trkpt>
<trkpt lat="47.815338" lon="11.117082">
<ele>550.349</ele>
<time>2022-05-27T10:53:31Z</time>
</trkpt>
<trkpt lat="47.815285" lon="11.117068">
<ele>550.349</ele>
<time>2022-05-27T10:53:32Z</time>
</trkpt>
<trkpt lat="47.815231" lon="11.117051">
<ele>550.349</ele>
<time>2022-05-27T10:53:33Z</time>
</trkpt>
<trkpt lat="47.815182" lon="11.11703">
<ele>550.349</ele>
<time>2022-05-27T10:53:34Z</time>
</trkpt>
<trkpt lat="47.815136" lon="11.117004">
<ele>550.349</ele>
<time>2022-05-27T10:53:35Z</time>
</trkpt>
<trkpt lat="47.81509" lon="11.116983">
<ele>550.349</ele>
<time>2022-05-27T10:53:36Z</time>
</trkpt>
<trkpt lat="47.815048" lon="11.116955">
<ele>550.349</ele>
<time>2022-05-27T10:53:37Z</time>
</trkpt>
<trkpt lat="47.815006" lon="11.11693">
<ele>550.349</ele>
<time>2022-05-27T10:53:38Z</time>
</trkpt>
<trkpt lat="47.814968" lon="11.1169">
<ele>550.349</ele>
<time>2022-05-27T10:53:39Z</time>
</trkpt>
<trkpt lat="47.814922" lon="11.11687">
<ele>550.349</ele>
<time>2022-05-27T10:53:40Z</time>
</trkpt>
<trkpt lat="47.814888" lon="11.116837">
<ele>550.349</ele>
<time>2022-05-27T10:53:41Z</time>
</trkpt>
<trkpt lat="47.814842" lon="11.116803">
<ele>550.349</ele>
<time>2022-05-27T10:53:42Z</time>
</trkpt>
<trkpt lat="47.8148" lon="11.116765">
<ele>550.349</ele>
<time>2022-05-27T10:53:43Z</time>
</trkpt>
<trkpt lat="47.814762" lon="11.116725">
<ele>550.349</ele>
<time>2022-05-27T10:53:44Z</time>
</trkpt>
<trkpt lat="47.814724" lon="11.116691">
<ele>550.349</ele>
<time>2022-05-27T10:53:45Z</time>
</trkpt>
<trkpt lat="47.814686" lon="11.116651">
<ele>550.349</ele>
<time>2022-05-27T10:53:46Z</time>
</trkpt>
<trkpt lat="47.814644" lon="11.116611">
<ele>550.349</ele>
<time>2022-05-27T10:53:47Z</time>
</trkpt>
<trkpt lat="47.81461" lon="11.116567">
<ele>550.349</ele>
<time>2022-05-27T10:53:48Z</time>
</trkpt>
<trkpt lat="47.814571" lon="11.116527">
<ele>550.349</ele>
<time>2022-05-27T10:53:49Z</time>
</trkpt>
<trkpt lat="47.814541" lon="11.116488">
<ele>550.349</ele>
<time>2022-05-27T10:53:50Z</time>
</trkpt>
<trkpt lat="47.814503" lon="11.116447">
<ele>550.349</ele>
<time>2022-05-27T10:53:51Z</time>
</trkpt>
<trkpt lat="47.814468" lon="11.116407">
<ele>550.349</ele>
<time>2022-05-27T10:53:52Z</time>
</trkpt>
<trkpt lat="47.81443" lon="11.116364">
<ele>550.349</ele>
<time>2022-05-27T10:53:53Z</time>
</trkpt>
<trkpt lat="47.814396" lon="11.116317">
<ele>550.349</ele>
<time>2022-05-27T10:53:54Z</time>
</trkpt>
<trkpt lat="47.814358" lon="11.116268">
<ele>550.402</ele>
<time>2022-05-27T10:53:55Z</time>
</trkpt>
<trkpt lat="47.814316" lon="11.116219">
<ele>550.443</ele>
<time>2022-05-27T10:53:56Z</time>
</trkpt>
<trkpt lat="47.814278" lon="11.116167">
<ele>550.474</ele>
<time>2022-05-27T10:53:57Z</time>
</trkpt>
<trkpt lat="47.81424" lon="11.116114">
<ele>550.496</ele>
<time>2022-05-27T10:53:58Z</time>
</trkpt>
<trkpt lat="47.814201" lon="11.11606">
<ele>550.51</ele>
<time>2022-05-27T10:53:59Z</time>
</trkpt>
<trkpt lat="47.814167" lon="11.116005">
<ele>550.519</ele>
<time>2022-05-27T10:54:00Z</time>
</trkpt>
<trkpt lat="47.814125" lon="11.115947">
<ele>550.523</ele>
<time>2022-05-27T10:54:01Z</time>
</trkpt>
<trkpt lat="47.814087" lon="11.115887">
<ele>550.523</ele>
<time>2022-05-27T10:54:02Z</time>
</trkpt>
<trkpt lat="47.814056" lon="11.115825">
<ele>550.523</ele>
<time>2022-05-27T10:54:03Z</time>
</trkpt>
<trkpt lat="47.814022" lon="11.115767">
<ele>550.523</ele>
<time>2022-05-27T10:54:04Z</time>
</trkpt>
<trkpt lat="47.813992" lon="11.115705">
<ele>550.523</ele>
<time>2022-05-27T10:54:05Z</time>
</trkpt>
<trkpt lat="47.813961" lon="11.115642">
<ele>550.523</ele>
<time>2022-05-27T10:54:06Z</time>
</trkpt>
<trkpt lat="47.813931" lon="11.11558">
<ele>550.523</ele>
<time>2022-05-27T10:54:07Z</time>
</trkpt>
<trkpt lat="47.813904" lon="11.11552">
<ele>550.523</ele>
<time>2022-05-27T10:54:08Z</time>
</trkpt>
<trkpt lat="47.813877" lon="11.115463">
<ele>550.523</ele>
<time>2022-05-27T10:54:09Z</time>
</trkpt>
<trkpt lat="47.813847" lon="11.115406">
<ele>550.523</ele>
<time>2022-05-27T10:54:10Z</time>
</trkpt>
<trkpt lat="47.81382" lon="11.115348">
<ele>550.523</ele>
<time>2022-05-27T10:54:11Z</time>
</trkpt>
<trkpt lat="47.813793" lon="11.115294">
<ele>550.523</ele>
<time>2022-05-27T10:54:12Z</time>
</trkpt>
<trkpt lat="47.813759" lon="11.115242">
<ele>550.523</ele>
<time>2022-05-27T10:54:13Z</time>
</trkpt>
<trkpt lat="47.813732" lon="11.115193">
<ele>550.523</ele>
<time>2022-05-27T10:54:14Z</time>
</trkpt>
<trkpt lat="47.813705" lon="11.115152">
<ele>550.523</ele>
<time>2022-05-27T10:54:15Z</time>
</trkpt>
<trkpt lat="47.813675" lon="11.115108">
<ele>550.523</ele>
<time>2022-05-27T10:54:16Z</time>
</trkpt>
<trkpt lat="47.813644" lon="11.115067">
<ele>550.811</ele>
<time>2022-05-27T10:54:17Z</time>
</trkpt>
<trkpt lat="47.81361" lon="11.115026">
<ele>551.035</ele>
<time>2022-05-27T10:54:18Z</time>
</trkpt>
<trkpt lat="47.813583" lon="11.114991">
<ele>551.209</ele>
<time>2022-05-27T10:54:19Z</time>
</trkpt>
<trkpt lat="47.813549" lon="11.114955">
<ele>551.34</ele>
<time>2022-05-27T10:54:20Z</time>
</trkpt>
<trkpt lat="47.813515" lon="11.114916">
<ele>551.43</ele>
<time>2022-05-27T10:54:21Z</time>
</trkpt>
<trkpt lat="47.813477" lon="11.114882">
<ele>551.495</ele>
<time>2022-05-27T10:54:22Z</time>
</trkpt>
<trkpt lat="47.813431" lon="11.114847">
<ele>551.541</ele>
<time>2022-05-27T10:54:23Z</time>
</trkpt>
<trkpt lat="47.813389" lon="11.114815">
<ele>551.57</ele>
<time>2022-05-27T10:54:24Z</time>
</trkpt>
<trkpt lat="47.813351" lon="11.114792">
<ele>551.57</ele>
<time>2022-05-27T10:54:25Z</time>
</trkpt>
<trkpt lat="47.813309" lon="11.114763">
<ele>551.57</ele>
<time>2022-05-27T10:54:26Z</time>
</trkpt>
<trkpt lat="47.813271" lon="11.11474">
<ele>551.57</ele>
<time>2022-05-27T10:54:27Z</time>
</trkpt>
<trkpt lat="47.813236" lon="11.114717">
<ele>551.57</ele>
<time>2022-05-27T10:54:28Z</time>
</trkpt>
<trkpt lat="47.813194" lon="11.1147">
<ele>551.57</ele>
<time>2022-05-27T10:54:29Z</time>
</trkpt>
<trkpt lat="47.81316" lon="11.114678">
<ele>551.57</ele>
<time>2022-05-27T10:54:30Z</time>
</trkpt>
<trkpt lat="47.813118" lon="11.114648">
<ele>551.337</ele>
<time>2022-05-27T10:54:31Z</time>
</trkpt>
<trkpt lat="47.813076" lon="11.114622">
<ele>551.145</ele>
<time>2022-05-27T10:54:32Z</time>
</trkpt>
<trkpt lat="47.813026" lon="11.1146">
<ele>551.012</ele>
<time>2022-05-27T10:54:33Z</time>
</trkpt>
<trkpt lat="47.812977" lon="11.11459">
<ele>550.865</ele>
<time>2022-05-27T10:54:34Z</time>
</trkpt>
<trkpt lat="47.812931" lon="11.114595">
<ele>550.755</ele>
<time>2022-05-27T10:54:35Z</time>
</trkpt>
<trkpt lat="47.812885" lon="11.114606">
<ele>550.679</ele>
<time>2022-05-27T10:54:36Z</time>
</trkpt>
<trkpt lat="47.81284" lon="11.114614">
<ele>550.633</ele>
<time>2022-05-27T10:54:37Z</time>
</trkpt>
<trkpt lat="47.812798" lon="11.114627">
<ele>550.611</ele>
<time>2022-05-27T10:54:38Z</time>
</trkpt>
<trkpt lat="47.812752" lon="11.114639">
<ele>550.336</ele>
<time>2022-05-27T10:54:39Z</time>
</trkpt>
<trkpt lat="47.812706" lon="11.114647">
<ele>550.124</ele>
<time>2022-05-27T10:54:40Z</time>
</trkpt>
<trkpt lat="47.812668" lon="11.114655">
<ele>549.963</ele>
<time>2022-05-27T10:54:41Z</time>
</trkpt>
<trkpt lat="47.812622" lon="11.114675">
<ele>549.831</ele>
<time>2022-05-27T10:54:42Z</time>
</trkpt>
<trkpt lat="47.81258" lon="11.114692">
<ele>549.74</ele>
<time>2022-05-27T10:54:43Z</time>
</trkpt>
<trkpt lat="47.812538" lon="11.114712">
<ele>549.676</ele>
<time>2022-05-27T10:54:44Z</time>
</trkpt>
<trkpt lat="47.8125" lon="11.114736">
<ele>549.966</ele>
<time>2022-05-27T10:54:45Z</time>
</trkpt>
<trkpt lat="47.812458" lon="11.114763">
<ele>550.207</ele>
<time>2022-05-27T10:54:46Z</time>
</trkpt>
<trkpt lat="47.812416" lon="11.114786">
<ele>550.421</ele>
<time>2022-05-27T10:54:47Z</time>
</trkpt>
<trkpt lat="47.812382" lon="11.11481">
<ele>550.577</ele>
<time>2022-05-27T10:54:48Z</time>
</trkpt>
<trkpt lat="47.812344" lon="11.114832">
<ele>550.676</ele>
<time>2022-05-27T10:54:49Z</time>
</trkpt>
<trkpt lat="47.812309" lon="11.114847">
<ele>551</ele>
<time>2022-05-27T10:54:50Z</time>
</trkpt>
<trkpt lat="47.812267" lon="11.114863">
<ele>551.248</ele>
<time>2022-05-27T10:54:51Z</time>
</trkpt>
<trkpt lat="47.812222" lon="11.114879">
<ele>551.419</ele>
<time>2022-05-27T10:54:52Z</time>
</trkpt>
<trkpt lat="47.81218" lon="11.114902">
<ele>551.529</ele>
<time>2022-05-27T10:54:53Z</time>
</trkpt>
<trkpt lat="47.812134" lon="11.114928">
<ele>551.657</ele>
<time>2022-05-27T10:54:54Z</time>
</trkpt>
<trkpt lat="47.812088" lon="11.114953">
<ele>551.749</ele>
<time>2022-05-27T10:54:55Z</time>
</trkpt>
<trkpt lat="47.812038" lon="11.114972">
<ele>551.806</ele>
<time>2022-05-27T10:54:56Z</time>
</trkpt>
<trkpt lat="47.811977" lon="11.114991">
<ele>551.832</ele>
<time>2022-05-27T10:54:57Z</time>
</trkpt>
<trkpt lat="47.811916" lon="11.115008">
<ele>551.832</ele>
<time>2022-05-27T10:54:58Z</time>
</trkpt>
<trkpt lat="47.811859" lon="11.115021">
<ele>551.832</ele>
<time>2022-05-27T10:54:59Z</time>
</trkpt>
<trkpt lat="47.811806" lon="11.115029">
<ele>551.832</ele>
<time>2022-05-27T10:55:00Z</time>
</trkpt>
<trkpt lat="47.811756" lon="11.115037">
<ele>551.607</ele>
<time>2022-05-27T10:55:01Z</time>
</trkpt>
<trkpt lat="47.811707" lon="11.115044">
<ele>551.436</ele>
<time>2022-05-27T10:55:02Z</time>
</trkpt>
<trkpt lat="47.811668" lon="11.11505">
<ele>551.321</ele>
<time>2022-05-27T10:55:03Z</time>
</trkpt>
<trkpt lat="47.81163" lon="11.115052">
<ele>551.206</ele>
<time>2022-05-27T10:55:04Z</time>
</trkpt>
<trkpt lat="47.811592" lon="11.115056">
<ele>551.113</ele>
<time>2022-05-27T10:55:05Z</time>
</trkpt>
<trkpt lat="47.811562" lon="11.115065">
<ele>551.036</ele>
<time>2022-05-27T10:55:06Z</time>
</trkpt>
<trkpt lat="47.811527" lon="11.115071">
<ele>550.985</ele>
<time>2022-05-27T10:55:07Z</time>
</trkpt>
<trkpt lat="47.811497" lon="11.115079">
<ele>550.959</ele>
<time>2022-05-27T10:55:08Z</time>
</trkpt>
<trkpt lat="47.811462" lon="11.115096">
<ele>550.721</ele>
<time>2022-05-27T10:55:09Z</time>
</trkpt>
<trkpt lat="47.811424" lon="11.115117">
<ele>550.52</ele>
<time>2022-05-27T10:55:10Z</time>
</trkpt>
<trkpt lat="47.811386" lon="11.115127">
<ele>550.362</ele>
<time>2022-05-27T10:55:11Z</time>
</trkpt>
<trkpt lat="47.811344" lon="11.115129">
<ele>550.46</ele>
<time>2022-05-27T10:55:12Z</time>
</trkpt>
<trkpt lat="47.811306" lon="11.115131">
<ele>550.425</ele>
<time>2022-05-27T10:55:13Z</time>
</trkpt>
<trkpt lat="47.811283" lon="11.115128">
<ele>550.54</ele>
<time>2022-05-27T10:55:14Z</time>
</trkpt>
<trkpt lat="47.811256" lon="11.115133">
<ele>550.637</ele>
<time>2022-05-27T10:55:15Z</time>
</trkpt>
<trkpt lat="47.811234" lon="11.115135">
<ele>550.724</ele>
<time>2022-05-27T10:55:16Z</time>
</trkpt>
<trkpt lat="47.811207" lon="11.115142">
<ele>550.803</ele>
<time>2022-05-27T10:55:17Z</time>
</trkpt>
<trkpt lat="47.81118" lon="11.115152">
<ele>550.878</ele>
<time>2022-05-27T10:55:18Z</time>
</trkpt>
<trkpt lat="47.81115" lon="11.115161">
<ele>550.933</ele>
<time>2022-05-27T10:55:19Z</time>
</trkpt>
<trkpt lat="47.811131" lon="11.11516">
<ele>550.959</ele>
<time>2022-05-27T10:55:20Z</time>
</trkpt>
<trkpt lat="47.811108" lon="11.115157">
<ele>550.959</ele>
<time>2022-05-27T10:55:21Z</time>
</trkpt>
<trkpt lat="47.811081" lon="11.115153">
<ele>551.19</ele>
<time>2022-05-27T10:55:22Z</time>
</trkpt>
<trkpt lat="47.811054" lon="11.115157">
<ele>551.353</ele>
<time>2022-05-27T10:55:23Z</time>
</trkpt>
<trkpt lat="47.811035" lon="11.115145">
<ele>551.523</ele>
<time>2022-05-27T10:55:24Z</time>
</trkpt>
<trkpt lat="47.811016" lon="11.115131">
<ele>551.653</ele>
<time>2022-05-27T10:55:25Z</time>
</trkpt>
<trkpt lat="47.810993" lon="11.115119">
<ele>551.76</ele>
<time>2022-05-27T10:55:26Z</time>
</trkpt>
<trkpt lat="47.810959" lon="11.115107">
<ele>551.841</ele>
<time>2022-05-27T10:55:27Z</time>
</trkpt>
<trkpt lat="47.810909" lon="11.115096">
<ele>551.898</ele>
<time>2022-05-27T10:55:28Z</time>
</trkpt>
<trkpt lat="47.810871" lon="11.115068">
<ele>551.919</ele>
<time>2022-05-27T10:55:29Z</time>
</trkpt>
<trkpt lat="47.810829" lon="11.115046">
<ele>551.919</ele>
<time>2022-05-27T10:55:30Z</time>
</trkpt>
<trkpt lat="47.810783" lon="11.115025">
<ele>551.919</ele>
<time>2022-05-27T10:55:31Z</time>
</trkpt>
<trkpt lat="47.810745" lon="11.115">
<ele>551.919</ele>
<time>2022-05-27T10:55:32Z</time>
</trkpt>
<trkpt lat="47.810703" lon="11.114958">
<ele>551.919</ele>
<time>2022-05-27T10:55:33Z</time>
</trkpt>
<trkpt lat="47.810658" lon="11.114942">
<ele>551.919</ele>
<time>2022-05-27T10:55:34Z</time>
</trkpt>
<trkpt lat="47.810616" lon="11.114928">
<ele>551.919</ele>
<time>2022-05-27T10:55:35Z</time>
</trkpt>
<trkpt lat="47.810577" lon="11.114907">
<ele>551.919</ele>
<time>2022-05-27T10:55:36Z</time>
</trkpt>
<trkpt lat="47.810535" lon="11.114883">
<ele>551.919</ele>
<time>2022-05-27T10:55:37Z</time>
</trkpt>
<trkpt lat="47.810497" lon="11.11486">
<ele>551.919</ele>
<time>2022-05-27T10:55:38Z</time>
</trkpt>
<trkpt lat="47.810459" lon="11.114821">
<ele>551.919</ele>
<time>2022-05-27T10:55:39Z</time>
</trkpt>
<trkpt lat="47.810421" lon="11.114794">
<ele>551.919</ele>
<time>2022-05-27T10:55:40Z</time>
</trkpt>
<trkpt lat="47.810364" lon="11.114769">
<ele>551.919</ele>
<time>2022-05-27T10:55:41Z</time>
</trkpt>
<trkpt lat="47.810318" lon="11.114744">
<ele>551.919</ele>
<time>2022-05-27T10:55:42Z</time>
</trkpt>
<trkpt lat="47.810272" lon="11.114708">
<ele>551.718</ele>
<time>2022-05-27T10:55:43Z</time>
</trkpt>
<trkpt lat="47.810226" lon="11.114663">
<ele>551.525</ele>
<time>2022-05-27T10:55:44Z</time>
</trkpt>
<trkpt lat="47.810192" lon="11.114583">
<ele>551.484</ele>
<time>2022-05-27T10:55:45Z</time>
</trkpt>
<trkpt lat="47.810158" lon="11.114499">
<ele>551.581</ele>
<time>2022-05-27T10:55:46Z</time>
</trkpt>
<trkpt lat="47.810123" lon="11.114422">
<ele>551.664</ele>
<time>2022-05-27T10:55:47Z</time>
</trkpt>
<trkpt lat="47.810089" lon="11.114344">
<ele>551.732</ele>
<time>2022-05-27T10:55:48Z</time>
</trkpt>
<trkpt lat="47.810051" lon="11.114258">
<ele>551.788</ele>
<time>2022-05-27T10:55:49Z</time>
</trkpt>
<trkpt lat="47.810005" lon="11.114161">
<ele>551.842</ele>
<time>2022-05-27T10:55:50Z</time>
</trkpt>
<trkpt lat="47.809967" lon="11.114077">
<ele>551.882</ele>
<time>2022-05-27T10:55:51Z</time>
</trkpt>
<trkpt lat="47.809937" lon="11.113994">
<ele>551.902</ele>
<time>2022-05-27T10:55:52Z</time>
</trkpt>
<trkpt lat="47.809914" lon="11.113914">
<ele>551.919</ele>
<time>2022-05-27T10:55:53Z</time>
</trkpt>
<trkpt lat="47.809891" lon="11.113837">
<ele>551.919</ele>
<time>2022-05-27T10:55:54Z</time>
</trkpt>
<trkpt lat="47.809864" lon="11.113755">
<ele>551.919</ele>
<time>2022-05-27T10:55:55Z</time>
</trkpt>
<trkpt lat="47.809837" lon="11.113677">
<ele>551.919</ele>
<time>2022-05-27T10:55:56Z</time>
</trkpt>
<trkpt lat="47.809818" lon="11.113605">
<ele>551.919</ele>
<time>2022-05-27T10:55:57Z</time>
</trkpt>
<trkpt lat="47.809799" lon="11.113531">
<ele>551.919</ele>
<time>2022-05-27T10:55:58Z</time>
</trkpt>
<trkpt lat="47.809784" lon="11.11346">
<ele>551.919</ele>
<time>2022-05-27T10:55:59Z</time>
</trkpt>
<trkpt lat="47.809769" lon="11.113397">
<ele>551.919</ele>
<time>2022-05-27T10:56:00Z</time>
</trkpt>
<trkpt lat="47.80975" lon="11.113334">
<ele>551.919</ele>
<time>2022-05-27T10:56:01Z</time>
</trkpt>
<trkpt lat="47.809734" lon="11.113272">
<ele>551.919</ele>
<time>2022-05-27T10:56:02Z</time>
</trkpt>
<trkpt lat="47.809715" lon="11.113209">
<ele>551.919</ele>
<time>2022-05-27T10:56:03Z</time>
</trkpt>
<trkpt lat="47.8097" lon="11.113147">
<ele>551.919</ele>
<time>2022-05-27T10:56:04Z</time>
</trkpt>
<trkpt lat="47.809689" lon="11.113082">
<ele>551.919</ele>
<time>2022-05-27T10:56:05Z</time>
</trkpt>
<trkpt lat="47.809669" lon="11.11302">
<ele>551.919</ele>
<time>2022-05-27T10:56:06Z</time>
</trkpt>
<trkpt lat="47.809654" lon="11.11296">
<ele>551.919</ele>
<time>2022-05-27T10:56:07Z</time>
</trkpt>
<trkpt lat="47.809628" lon="11.112905">
<ele>551.919</ele>
<time>2022-05-27T10:56:08Z</time>
</trkpt>
<trkpt lat="47.809605" lon="11.112848">
<ele>551.919</ele>
<time>2022-05-27T10:56:09Z</time>
</trkpt>
<trkpt lat="47.80957" lon="11.112792">
<ele>551.919</ele>
<time>2022-05-27T10:56:10Z</time>
</trkpt>
<trkpt lat="47.80954" lon="11.112724">
<ele>551.919</ele>
<time>2022-05-27T10:56:11Z</time>
</trkpt>
<trkpt lat="47.809509" lon="11.112663">
<ele>551.919</ele>
<time>2022-05-27T10:56:12Z</time>
</trkpt>
<trkpt lat="47.809479" lon="11.112603">
<ele>551.919</ele>
<time>2022-05-27T10:56:13Z</time>
</trkpt>
<trkpt lat="47.809444" lon="11.112549">
<ele>551.919</ele>
<time>2022-05-27T10:56:14Z</time>
</trkpt>
<trkpt lat="47.80941" lon="11.112496">
<ele>551.919</ele>
<time>2022-05-27T10:56:15Z</time>
</trkpt>
<trkpt lat="47.809376" lon="11.112446">
<ele>551.919</ele>
<time>2022-05-27T10:56:16Z</time>
</trkpt>
<trkpt lat="47.809338" lon="11.112397">
<ele>551.919</ele>
<time>2022-05-27T10:56:17Z</time>
</trkpt>
<trkpt lat="47.809299" lon="11.112349">
<ele>551.919</ele>
<time>2022-05-27T10:56:18Z</time>
</trkpt>
<trkpt lat="47.809258" lon="11.112306">
<ele>551.919</ele>
<time>2022-05-27T10:56:19Z</time>
</trkpt>
<trkpt lat="47.809216" lon="11.112267">
<ele>551.919</ele>
<time>2022-05-27T10:56:20Z</time>
</trkpt>
<trkpt lat="47.809177" lon="11.11223">
<ele>551.919</ele>
<time>2022-05-27T10:56:21Z</time>
</trkpt>
<trkpt lat="47.809135" lon="11.112192">
<ele>551.919</ele>
<time>2022-05-27T10:56:22Z</time>
</trkpt>
<trkpt lat="47.809093" lon="11.112157">
<ele>551.919</ele>
<time>2022-05-27T10:56:23Z</time>
</trkpt>
<trkpt lat="47.809052" lon="11.112128">
<ele>551.919</ele>
<time>2022-05-27T10:56:24Z</time>
</trkpt>
<trkpt lat="47.809006" lon="11.112102">
<ele>551.919</ele>
<time>2022-05-27T10:56:25Z</time>
</trkpt>
<trkpt lat="47.808964" lon="11.112075">
<ele>551.919</ele>
<time>2022-05-27T10:56:26Z</time>
</trkpt>
<trkpt lat="47.808922" lon="11.11205">
<ele>551.919</ele>
<time>2022-05-27T10:56:27Z</time>
</trkpt>
<trkpt lat="47.808872" lon="11.11203">
<ele>552.178</ele>
<time>2022-05-27T10:56:28Z</time>
</trkpt>
<trkpt lat="47.808823" lon="11.112012">
<ele>552.386</ele>
<time>2022-05-27T10:56:29Z</time>
</trkpt>
<trkpt lat="47.808777" lon="11.111993">
<ele>552.542</ele>
<time>2022-05-27T10:56:30Z</time>
</trkpt>
<trkpt lat="47.808727" lon="11.111977">
<ele>552.655</ele>
<time>2022-05-27T10:56:31Z</time>
</trkpt>
<trkpt lat="47.808681" lon="11.111961">
<ele>552.741</ele>
<time>2022-05-27T10:56:32Z</time>
</trkpt>
<trkpt lat="47.808628" lon="11.11195">
<ele>552.801</ele>
<time>2022-05-27T10:56:33Z</time>
</trkpt>
<trkpt lat="47.808578" lon="11.111941">
<ele>552.854</ele>
<time>2022-05-27T10:56:34Z</time>
</trkpt>
<trkpt lat="47.808529" lon="11.111935">
<ele>552.878</ele>
<time>2022-05-27T10:56:35Z</time>
</trkpt>
<trkpt lat="47.808487" lon="11.11193">
<ele>552.878</ele>
<time>2022-05-27T10:56:36Z</time>
</trkpt>
<trkpt lat="47.808437" lon="11.111928">
<ele>552.878</ele>
<time>2022-05-27T10:56:37Z</time>
</trkpt>
<trkpt lat="47.808392" lon="11.11193">
<ele>552.878</ele>
<time>2022-05-27T10:56:38Z</time>
</trkpt>
<trkpt lat="47.808346" lon="11.111933">
<ele>552.878</ele>
<time>2022-05-27T10:56:39Z</time>
</trkpt>
<trkpt lat="47.8083" lon="11.11194">
<ele>552.878</ele>
<time>2022-05-27T10:56:40Z</time>
</trkpt>
<trkpt lat="47.80825" lon="11.11195">
<ele>552.878</ele>
<time>2022-05-27T10:56:41Z</time>
</trkpt>
<trkpt lat="47.808205" lon="11.111958">
<ele>552.878</ele>
<time>2022-05-27T10:56:42Z</time>
</trkpt>
<trkpt lat="47.808159" lon="11.111966">
<ele>552.878</ele>
<time>2022-05-27T10:56:43Z</time>
</trkpt>
<trkpt lat="47.808113" lon="11.111979">
<ele>552.878</ele>
<time>2022-05-27T10:56:44Z</time>
</trkpt>
<trkpt lat="47.808071" lon="11.111998">
<ele>552.878</ele>
<time>2022-05-27T10:56:45Z</time>
</trkpt>
<trkpt lat="47.808025" lon="11.112019">
<ele>552.878</ele>
<time>2022-05-27T10:56:46Z</time>
</trkpt>
<trkpt lat="47.80798" lon="11.112037">
<ele>552.878</ele>
<time>2022-05-27T10:56:47Z</time>
</trkpt>
<trkpt lat="47.807941" lon="11.112055">
<ele>552.878</ele>
<time>2022-05-27T10:56:48Z</time>
</trkpt>
<trkpt lat="47.807899" lon="11.112077">
<ele>552.878</ele>
<time>2022-05-27T10:56:49Z</time>
</trkpt>
<trkpt lat="47.807858" lon="11.112098">
<ele>552.878</ele>
<time>2022-05-27T10:56:50Z</time>
</trkpt>
<trkpt lat="47.807816" lon="11.112123">
<ele>552.878</ele>
<time>2022-05-27T10:56:51Z</time>
</trkpt>
<trkpt lat="47.807777" lon="11.112153">
<ele>552.878</ele>
<time>2022-05-27T10:56:52Z</time>
</trkpt>
<trkpt lat="47.807732" lon="11.112185">
<ele>552.878</ele>
<time>2022-05-27T10:56:53Z</time>
</trkpt>
<trkpt lat="47.80769" lon="11.112218">
<ele>552.878</ele>
<time>2022-05-27T10:56:54Z</time>
</trkpt>
<trkpt lat="47.807648" lon="11.112253">
<ele>552.878</ele>
<time>2022-05-27T10:56:55Z</time>
</trkpt>
<trkpt lat="47.807606" lon="11.11229">
<ele>552.878</ele>
<time>2022-05-27T10:56:56Z</time>
</trkpt>
<trkpt lat="47.807568" lon="11.112325">
<ele>552.878</ele>
<time>2022-05-27T10:56:57Z</time>
</trkpt>
<trkpt lat="47.807529" lon="11.112364">
<ele>552.878</ele>
<time>2022-05-27T10:56:58Z</time>
</trkpt>
<trkpt lat="47.807491" lon="11.112404">
<ele>552.878</ele>
<time>2022-05-27T10:56:59Z</time>
</trkpt>
<trkpt lat="47.807453" lon="11.112446">
<ele>552.878</ele>
<time>2022-05-27T10:57:00Z</time>
</trkpt>
<trkpt lat="47.807419" lon="11.112488">
<ele>553.116</ele>
<time>2022-05-27T10:57:01Z</time>
</trkpt>
<trkpt lat="47.807381" lon="11.11253">
<ele>553.305</ele>
<time>2022-05-27T10:57:02Z</time>
</trkpt>
<trkpt lat="47.807339" lon="11.112572">
<ele>553.435</ele>
<time>2022-05-27T10:57:03Z</time>
</trkpt>
<trkpt lat="47.807301" lon="11.112612">
<ele>553.579</ele>
<time>2022-05-27T10:57:04Z</time>
</trkpt>
<trkpt lat="47.807259" lon="11.112649">
<ele>553.688</ele>
<time>2022-05-27T10:57:05Z</time>
</trkpt>
<trkpt lat="47.80722" lon="11.112683">
<ele>553.765</ele>
<time>2022-05-27T10:57:06Z</time>
</trkpt>
<trkpt lat="47.807178" lon="11.112712">
<ele>553.815</ele>
<time>2022-05-27T10:57:07Z</time>
</trkpt>
<trkpt lat="47.807133" lon="11.112741">
<ele>553.838</ele>
<time>2022-05-27T10:57:08Z</time>
</trkpt>
<trkpt lat="47.807095" lon="11.112766">
<ele>553.838</ele>
<time>2022-05-27T10:57:09Z</time>
</trkpt>
<trkpt lat="47.807053" lon="11.112788">
<ele>553.838</ele>
<time>2022-05-27T10:57:10Z</time>
</trkpt>
<trkpt lat="47.807011" lon="11.112806">
<ele>553.838</ele>
<time>2022-05-27T10:57:11Z</time>
</trkpt>
<trkpt lat="47.806969" lon="11.112825">
<ele>553.838</ele>
<time>2022-05-27T10:57:12Z</time>
</trkpt>
<trkpt lat="47.806927" lon="11.112844">
<ele>553.838</ele>
<time>2022-05-27T10:57:13Z</time>
</trkpt>
<trkpt lat="47.806881" lon="11.112862">
<ele>553.838</ele>
<time>2022-05-27T10:57:14Z</time>
</trkpt>
<trkpt lat="47.806839" lon="11.112873">
<ele>553.838</ele>
<time>2022-05-27T10:57:15Z</time>
</trkpt>
<trkpt lat="47.806797" lon="11.112882">
<ele>553.838</ele>
<time>2022-05-27T10:57:16Z</time>
</trkpt>
<trkpt lat="47.806755" lon="11.11289">
<ele>553.838</ele>
<time>2022-05-27T10:57:17Z</time>
</trkpt>
<trkpt lat="47.806709" lon="11.112903">
<ele>553.838</ele>
<time>2022-05-27T10:57:18Z</time>
</trkpt>
<trkpt lat="47.806671" lon="11.112915">
<ele>554.067</ele>
<time>2022-05-27T10:57:19Z</time>
</trkpt>
<trkpt lat="47.806633" lon="11.112924">
<ele>554.244</ele>
<time>2022-05-27T10:57:20Z</time>
</trkpt>
<trkpt lat="47.806591" lon="11.112932">
<ele>554.381</ele>
<time>2022-05-27T10:57:21Z</time>
</trkpt>
<trkpt lat="47.806549" lon="11.112936">
<ele>554.488</ele>
<time>2022-05-27T10:57:22Z</time>
</trkpt>
<trkpt lat="47.806507" lon="11.112942">
<ele>554.564</ele>
<time>2022-05-27T10:57:23Z</time>
</trkpt>
<trkpt lat="47.806461" lon="11.112947">
<ele>554.639</ele>
<time>2022-05-27T10:57:24Z</time>
</trkpt>
<trkpt lat="47.806416" lon="11.112951">
<ele>554.688</ele>
<time>2022-05-27T10:57:25Z</time>
</trkpt>
<trkpt lat="47.806374" lon="11.112955">
<ele>554.711</ele>
<time>2022-05-27T10:57:26Z</time>
</trkpt>
<trkpt lat="47.806332" lon="11.112959">
<ele>554.711</ele>
<time>2022-05-27T10:57:27Z</time>
</trkpt>
<trkpt lat="47.80629" lon="11.112959">
<ele>554.71</ele>
<time>2022-05-27T10:57:28Z</time>
</trkpt>
<trkpt lat="47.806252" lon="11.112951">
<ele>554.711</ele>
<time>2022-05-27T10:57:29Z</time>
</trkpt>
<trkpt lat="47.806213" lon="11.112947">
<ele>554.711</ele>
<time>2022-05-27T10:57:30Z</time>
</trkpt>
<trkpt lat="47.806175" lon="11.112936">
<ele>554.711</ele>
<time>2022-05-27T10:57:31Z</time>
</trkpt>
<trkpt lat="47.806133" lon="11.112928">
<ele>554.711</ele>
<time>2022-05-27T10:57:32Z</time>
</trkpt>
<trkpt lat="47.806091" lon="11.112917">
<ele>554.711</ele>
<time>2022-05-27T10:57:33Z</time>
</trkpt>
<trkpt lat="47.806053" lon="11.112906">
<ele>554.711</ele>
<time>2022-05-27T10:57:34Z</time>
</trkpt>
<trkpt lat="47.806015" lon="11.1129">
<ele>554.711</ele>
<time>2022-05-27T10:57:35Z</time>
</trkpt>
<trkpt lat="47.805981" lon="11.11289">
<ele>554.711</ele>
<time>2022-05-27T10:57:36Z</time>
</trkpt>
<trkpt lat="47.805946" lon="11.112878">
<ele>554.711</ele>
<time>2022-05-27T10:57:37Z</time>
</trkpt>
<trkpt lat="47.805912" lon="11.112868">
<ele>554.711</ele>
<time>2022-05-27T10:57:38Z</time>
</trkpt>
<trkpt lat="47.805874" lon="11.112855">
<ele>554.711</ele>
<time>2022-05-27T10:57:39Z</time>
</trkpt>
<trkpt lat="47.805843" lon="11.112842">
<ele>554.711</ele>
<time>2022-05-27T10:57:40Z</time>
</trkpt>
<trkpt lat="47.805809" lon="11.112828">
<ele>554.711</ele>
<time>2022-05-27T10:57:41Z</time>
</trkpt>
<trkpt lat="47.805775" lon="11.112813">
<ele>554.711</ele>
<time>2022-05-27T10:57:42Z</time>
</trkpt>
<trkpt lat="47.80574" lon="11.112798">
<ele>554.711</ele>
<time>2022-05-27T10:57:43Z</time>
</trkpt>
<trkpt lat="47.805706" lon="11.112777">
<ele>554.711</ele>
<time>2022-05-27T10:57:44Z</time>
</trkpt>
<trkpt lat="47.805672" lon="11.112756">
<ele>554.711</ele>
<time>2022-05-27T10:57:45Z</time>
</trkpt>
<trkpt lat="47.805641" lon="11.112733">
<ele>554.711</ele>
<time>2022-05-27T10:57:46Z</time>
</trkpt>
<trkpt lat="47.805607" lon="11.112714">
<ele>554.711</ele>
<time>2022-05-27T10:57:47Z</time>
</trkpt>
<trkpt lat="47.805573" lon="11.112697">
<ele>554.711</ele>
<time>2022-05-27T10:57:48Z</time>
</trkpt>
<trkpt lat="47.805542" lon="11.112679">
<ele>554.711</ele>
<time>2022-05-27T10:57:49Z</time>
</trkpt>
<trkpt lat="47.805511" lon="11.112659">
<ele>554.711</ele>
<time>2022-05-27T10:57:50Z</time>
</trkpt>
<trkpt lat="47.805477" lon="11.112641">
<ele>554.711</ele>
<time>2022-05-27T10:57:51Z</time>
</trkpt>
<trkpt lat="47.80545" lon="11.112625">
<ele>554.711</ele>
<time>2022-05-27T10:57:52Z</time>
</trkpt>
<trkpt lat="47.805424" lon="11.11261">
<ele>554.711</ele>
<time>2022-05-27T10:57:53Z</time>
</trkpt>
<trkpt lat="47.805397" lon="11.112595">
<ele>554.711</ele>
<time>2022-05-27T10:57:54Z</time>
</trkpt>
<trkpt lat="47.80537" lon="11.112584">
<ele>554.711</ele>
<time>2022-05-27T10:57:55Z</time>
</trkpt>
<trkpt lat="47.805351" lon="11.11258">
<ele>554.711</ele>
<time>2022-05-27T10:57:56Z</time>
</trkpt>
<trkpt lat="47.805332" lon="11.112586">
<ele>554.711</ele>
<time>2022-05-27T10:57:57Z</time>
</trkpt>
<trkpt lat="47.805309" lon="11.112598">
<ele>554.711</ele>
<time>2022-05-27T10:57:58Z</time>
</trkpt>
<trkpt lat="47.805294" lon="11.112616">
<ele>554.711</ele>
<time>2022-05-27T10:57:59Z</time>
</trkpt>
<trkpt lat="47.805271" lon="11.112638">
<ele>554.711</ele>
<time>2022-05-27T10:58:00Z</time>
</trkpt>
<trkpt lat="47.805256" lon="11.112665">
<ele>554.711</ele>
<time>2022-05-27T10:58:01Z</time>
</trkpt>
<trkpt lat="47.805244" lon="11.112693">
<ele>554.711</ele>
<time>2022-05-27T10:58:02Z</time>
</trkpt>
<trkpt lat="47.805237" lon="11.112724">
<ele>554.711</ele>
<time>2022-05-27T10:58:03Z</time>
</trkpt>
<trkpt lat="47.805229" lon="11.112763">
<ele>554.711</ele>
<time>2022-05-27T10:58:04Z</time>
</trkpt>
<trkpt lat="47.805229" lon="11.112806">
<ele>554.711</ele>
<time>2022-05-27T10:58:05Z</time>
</trkpt>
<trkpt lat="47.805233" lon="11.112857">
<ele>554.711</ele>
<time>2022-05-27T10:58:06Z</time>
</trkpt>
<trkpt lat="47.805237" lon="11.112906">
<ele>555.028</ele>
<time>2022-05-27T10:58:07Z</time>
</trkpt>
<trkpt lat="47.805244" lon="11.112966">
<ele>555.271</ele>
<time>2022-05-27T10:58:08Z</time>
</trkpt>
<trkpt lat="47.805248" lon="11.113027">
<ele>555.449</ele>
<time>2022-05-27T10:58:09Z</time>
</trkpt>
<trkpt lat="47.805252" lon="11.113087">
<ele>555.574</ele>
<time>2022-05-27T10:58:10Z</time>
</trkpt>
<trkpt lat="47.805252" lon="11.113143">
<ele>555.651</ele>
<time>2022-05-27T10:58:11Z</time>
</trkpt>
<trkpt lat="47.805252" lon="11.113202">
<ele>555.697</ele>
<time>2022-05-27T10:58:12Z</time>
</trkpt>
<trkpt lat="47.805252" lon="11.113258">
<ele>555.734</ele>
<time>2022-05-27T10:58:13Z</time>
</trkpt>
<trkpt lat="47.805252" lon="11.113312">
<ele>555.758</ele>
<time>2022-05-27T10:58:14Z</time>
</trkpt>
<trkpt lat="47.805248" lon="11.113365">
<ele>555.758</ele>
<time>2022-05-27T10:58:15Z</time>
</trkpt>
<trkpt lat="47.805252" lon="11.113419">
<ele>555.758</ele>
<time>2022-05-27T10:58:16Z</time>
</trkpt>
<trkpt lat="47.805252" lon="11.113473">
<ele>555.758</ele>
<time>2022-05-27T10:58:17Z</time>
</trkpt>
<trkpt lat="47.805252" lon="11.113528">
<ele>555.758</ele>
<time>2022-05-27T10:58:18Z</time>
</trkpt>
<trkpt lat="47.805252" lon="11.113584">
<ele>555.758</ele>
<time>2022-05-27T10:58:19Z</time>
</trkpt>
<trkpt lat="47.805252" lon="11.113636">
<ele>555.758</ele>
<time>2022-05-27T10:58:20Z</time>
</trkpt>
<trkpt lat="47.805252" lon="11.113688">
<ele>555.758</ele>
<time>2022-05-27T10:58:21Z</time>
</trkpt>
<trkpt lat="47.805252" lon="11.113742">
<ele>555.758</ele>
<time>2022-05-27T10:58:22Z</time>
</trkpt>
<trkpt lat="47.805256" lon="11.113793">
<ele>555.97</ele>
<time>2022-05-27T10:58:23Z</time>
</trkpt>
<trkpt lat="47.805256" lon="11.113838">
<ele>556.168</ele>
<time>2022-05-27T10:58:24Z</time>
</trkpt>
<trkpt lat="47.80526" lon="11.11388">
<ele>556.329</ele>
<time>2022-05-27T10:58:25Z</time>
</trkpt>
<trkpt lat="47.805256" lon="11.113916">
<ele>556.46</ele>
<time>2022-05-27T10:58:26Z</time>
</trkpt>
<trkpt lat="47.805256" lon="11.113952">
<ele>556.563</ele>
<time>2022-05-27T10:58:27Z</time>
</trkpt>
<trkpt lat="47.805256" lon="11.113986">
<ele>556.64</ele>
<time>2022-05-27T10:58:28Z</time>
</trkpt>
<trkpt lat="47.805252" lon="11.114021">
<ele>556.692</ele>
<time>2022-05-27T10:58:29Z</time>
</trkpt>
<trkpt lat="47.805244" lon="11.114055">
<ele>556.717</ele>
<time>2022-05-27T10:58:30Z</time>
</trkpt>
<trkpt lat="47.805241" lon="11.114086">
<ele>556.717</ele>
<time>2022-05-27T10:58:31Z</time>
</trkpt>
<trkpt lat="47.805237" lon="11.114118">
<ele>556.717</ele>
<time>2022-05-27T10:58:32Z</time>
</trkpt>
<trkpt lat="47.805233" lon="11.11415">
<ele>556.717</ele>
<time>2022-05-27T10:58:33Z</time>
</trkpt>
<trkpt lat="47.805222" lon="11.114182">
<ele>556.717</ele>
<time>2022-05-27T10:58:34Z</time>
</trkpt>
<trkpt lat="47.80521" lon="11.114219">
<ele>556.717</ele>
<time>2022-05-27T10:58:35Z</time>
</trkpt>
<trkpt lat="47.805202" lon="11.114255">
<ele>556.717</ele>
<time>2022-05-27T10:58:36Z</time>
</trkpt>
<trkpt lat="47.805191" lon="11.114291">
<ele>556.717</ele>
<time>2022-05-27T10:58:37Z</time>
</trkpt>
<trkpt lat="47.805183" lon="11.114325">
<ele>556.717</ele>
<time>2022-05-27T10:58:38Z</time>
</trkpt>
<trkpt lat="47.805172" lon="11.114357">
<ele>556.717</ele>
<time>2022-05-27T10:58:39Z</time>
</trkpt>
<trkpt lat="47.805164" lon="11.114388">
<ele>556.717</ele>
<time>2022-05-27T10:58:40Z</time>
</trkpt>
<trkpt lat="47.805149" lon="11.11442">
<ele>556.717</ele>
<time>2022-05-27T10:58:41Z</time>
</trkpt>
<trkpt lat="47.805138" lon="11.114453">
<ele>556.717</ele>
<time>2022-05-27T10:58:42Z</time>
</trkpt>
<trkpt lat="47.805122" lon="11.114484">
<ele>556.717</ele>
<time>2022-05-27T10:58:43Z</time>
</trkpt>
<trkpt lat="47.805107" lon="11.114513">
<ele>556.717</ele>
<time>2022-05-27T10:58:44Z</time>
</trkpt>
<trkpt lat="47.805096" lon="11.114538">
<ele>556.717</ele>
<time>2022-05-27T10:58:45Z</time>
</trkpt>
<trkpt lat="47.805088" lon="11.11456">
<ele>556.717</ele>
<time>2022-05-27T10:58:46Z</time>
</trkpt>
<trkpt lat="47.805077" lon="11.114583">
<ele>556.717</ele>
<time>2022-05-27T10:58:47Z</time>
</trkpt>
<trkpt lat="47.805069" lon="11.114605">
<ele>556.717</ele>
<time>2022-05-27T10:58:48Z</time>
</trkpt>
<trkpt lat="47.805058" lon="11.114622">
<ele>556.717</ele>
<time>2022-05-27T10:58:49Z</time>
</trkpt>
<trkpt lat="47.80505" lon="11.114638">
<ele>556.717</ele>
<time>2022-05-27T10:58:50Z</time>
</trkpt>
<trkpt lat="47.805042" lon="11.114656">
<ele>556.717</ele>
<time>2022-05-27T10:58:51Z</time>
</trkpt>
<trkpt lat="47.805038" lon="11.114672">
<ele>556.717</ele>
<time>2022-05-27T10:58:52Z</time>
</trkpt>
<trkpt lat="47.805038" lon="11.114678">
<ele>556.717</ele>
<time>2022-05-27T10:58:53Z</time>
</trkpt>
<trkpt lat="47.805038" lon="11.114679">
<ele>556.717</ele>
<time>2022-05-27T10:58:54Z</time>
</trkpt>
<trkpt lat="47.805023" lon="11.114676">
<ele>556.717</ele>
<time>2022-05-27T11:11:18Z</time>
</trkpt>
<trkpt lat="47.805023" lon="11.114673">
<ele>556.717</ele>
<time>2022-05-27T11:11:19Z</time>
</trkpt>
<trkpt lat="47.805023" lon="11.114675">
<ele>556.717</ele>
<time>2022-05-27T11:11:20Z</time>
</trkpt>
<trkpt lat="47.805027" lon="11.114675">
<ele>556.717</ele>
<time>2022-05-27T11:11:21Z</time>
</trkpt>
<trkpt lat="47.805042" lon="11.114663">
<ele>556.717</ele>
<time>2022-05-27T11:12:29Z</time>
</trkpt>
<trkpt lat="47.805054" lon="11.114652">
<ele>556.717</ele>
<time>2022-05-27T11:12:30Z</time>
</trkpt>
<trkpt lat="47.805069" lon="11.114638">
<ele>556.717</ele>
<time>2022-05-27T11:12:31Z</time>
</trkpt>
<trkpt lat="47.805084" lon="11.114618">
<ele>556.717</ele>
<time>2022-05-27T11:12:32Z</time>
</trkpt>
<trkpt lat="47.805099" lon="11.114595">
<ele>556.717</ele>
<time>2022-05-27T11:12:33Z</time>
</trkpt>
<trkpt lat="47.805107" lon="11.114567">
<ele>556.717</ele>
<time>2022-05-27T11:12:34Z</time>
</trkpt>
<trkpt lat="47.805122" lon="11.114534">
<ele>556.717</ele>
<time>2022-05-27T11:12:35Z</time>
</trkpt>
<trkpt lat="47.805134" lon="11.114503">
<ele>556.717</ele>
<time>2022-05-27T11:12:36Z</time>
</trkpt>
<trkpt lat="47.805141" lon="11.114468">
<ele>556.717</ele>
<time>2022-05-27T11:12:37Z</time>
</trkpt>
<trkpt lat="47.805157" lon="11.114429">
<ele>556.717</ele>
<time>2022-05-27T11:12:38Z</time>
</trkpt>
<trkpt lat="47.805172" lon="11.11439">
<ele>556.717</ele>
<time>2022-05-27T11:12:39Z</time>
</trkpt>
<trkpt lat="47.80518" lon="11.11435">
<ele>556.717</ele>
<time>2022-05-27T11:12:40Z</time>
</trkpt>
<trkpt lat="47.805195" lon="11.114312">
<ele>556.717</ele>
<time>2022-05-27T11:12:41Z</time>
</trkpt>
<trkpt lat="47.805202" lon="11.114273">
<ele>556.717</ele>
<time>2022-05-27T11:12:42Z</time>
</trkpt>
<trkpt lat="47.80521" lon="11.114233">
<ele>556.717</ele>
<time>2022-05-27T11:12:43Z</time>
</trkpt>
<trkpt lat="47.805218" lon="11.114197">
<ele>556.717</ele>
<time>2022-05-27T11:12:44Z</time>
</trkpt>
<trkpt lat="47.805222" lon="11.114157">
<ele>556.717</ele>
<time>2022-05-27T11:12:45Z</time>
</trkpt>
<trkpt lat="47.805229" lon="11.114117">
<ele>556.717</ele>
<time>2022-05-27T11:12:46Z</time>
</trkpt>
<trkpt lat="47.805233" lon="11.114076">
<ele>556.717</ele>
<time>2022-05-27T11:12:47Z</time>
</trkpt>
<trkpt lat="47.805237" lon="11.114034">
<ele>556.717</ele>
<time>2022-05-27T11:12:48Z</time>
</trkpt>
<trkpt lat="47.805237" lon="11.11399">
<ele>556.717</ele>
<time>2022-05-27T11:12:49Z</time>
</trkpt>
<trkpt lat="47.805237" lon="11.113945">
<ele>556.717</ele>
<time>2022-05-27T11:12:50Z</time>
</trkpt>
<trkpt lat="47.805241" lon="11.113896">
<ele>556.717</ele>
<time>2022-05-27T11:12:51Z</time>
</trkpt>
<trkpt lat="47.805241" lon="11.113848">
<ele>556.717</ele>
<time>2022-05-27T11:12:52Z</time>
</trkpt>
<trkpt lat="47.805244" lon="11.113799">
<ele>556.717</ele>
<time>2022-05-27T11:12:53Z</time>
</trkpt>
<trkpt lat="47.805248" lon="11.113749">
<ele>556.717</ele>
<time>2022-05-27T11:12:54Z</time>
</trkpt>
<trkpt lat="47.805248" lon="11.113697">
<ele>556.717</ele>
<time>2022-05-27T11:12:55Z</time>
</trkpt>
<trkpt lat="47.805252" lon="11.113645">
<ele>556.717</ele>
<time>2022-05-27T11:12:56Z</time>
</trkpt>
<trkpt lat="47.805256" lon="11.113594">
<ele>556.717</ele>
<time>2022-05-27T11:12:57Z</time>
</trkpt>
<trkpt lat="47.805256" lon="11.113538">
<ele>556.717</ele>
<time>2022-05-27T11:12:58Z</time>
</trkpt>
<trkpt lat="47.80526" lon="11.113487">
<ele>556.717</ele>
<time>2022-05-27T11:12:59Z</time>
</trkpt>
<trkpt lat="47.80526" lon="11.113432">
<ele>556.717</ele>
<time>2022-05-27T11:13:00Z</time>
</trkpt>
<trkpt lat="47.805264" lon="11.113377">
<ele>556.717</ele>
<time>2022-05-27T11:13:01Z</time>
</trkpt>
<trkpt lat="47.80526" lon="11.113321">
<ele>556.717</ele>
<time>2022-05-27T11:13:02Z</time>
</trkpt>
<trkpt lat="47.80526" lon="11.113267">
<ele>556.717</ele>
<time>2022-05-27T11:13:03Z</time>
</trkpt>
<trkpt lat="47.80526" lon="11.113211">
<ele>556.717</ele>
<time>2022-05-27T11:13:04Z</time>
</trkpt>
<trkpt lat="47.805264" lon="11.113156">
<ele>556.717</ele>
<time>2022-05-27T11:13:05Z</time>
</trkpt>
<trkpt lat="47.805264" lon="11.113104">
<ele>556.717</ele>
<time>2022-05-27T11:13:06Z</time>
</trkpt>
<trkpt lat="47.805264" lon="11.113051">
<ele>556.717</ele>
<time>2022-05-27T11:13:07Z</time>
</trkpt>
<trkpt lat="47.805264" lon="11.113">
<ele>556.717</ele>
<time>2022-05-27T11:13:08Z</time>
</trkpt>
<trkpt lat="47.805264" lon="11.112951">
<ele>556.717</ele>
<time>2022-05-27T11:13:09Z</time>
</trkpt>
<trkpt lat="47.805264" lon="11.112903">
<ele>556.717</ele>
<time>2022-05-27T11:13:10Z</time>
</trkpt>
<trkpt lat="47.80526" lon="11.112857">
<ele>556.717</ele>
<time>2022-05-27T11:13:11Z</time>
</trkpt>
<trkpt lat="47.80526" lon="11.11281">
<ele>556.717</ele>
<time>2022-05-27T11:13:12Z</time>
</trkpt>
<trkpt lat="47.80526" lon="11.112763">
<ele>556.717</ele>
<time>2022-05-27T11:13:13Z</time>
</trkpt>
<trkpt lat="47.805256" lon="11.112717">
<ele>556.717</ele>
<time>2022-05-27T11:13:14Z</time>
</trkpt>
<trkpt lat="47.805248" lon="11.112672">
<ele>556.717</ele>
<time>2022-05-27T11:13:15Z</time>
</trkpt>
<trkpt lat="47.805241" lon="11.112628">
<ele>556.717</ele>
<time>2022-05-27T11:13:16Z</time>
</trkpt>
<trkpt lat="47.805233" lon="11.112588">
<ele>556.717</ele>
<time>2022-05-27T11:13:17Z</time>
</trkpt>
<trkpt lat="47.805222" lon="11.112549">
<ele>556.717</ele>
<time>2022-05-27T11:13:18Z</time>
</trkpt>
<trkpt lat="47.805206" lon="11.112511">
<ele>556.717</ele>
<time>2022-05-27T11:13:19Z</time>
</trkpt>
<trkpt lat="47.805183" lon="11.112478">
<ele>556.717</ele>
<time>2022-05-27T11:13:20Z</time>
</trkpt>
<trkpt lat="47.805157" lon="11.112454">
<ele>556.717</ele>
<time>2022-05-27T11:13:21Z</time>
</trkpt>
<trkpt lat="47.805122" lon="11.112429">
<ele>556.717</ele>
<time>2022-05-27T11:13:22Z</time>
</trkpt>
<trkpt lat="47.805092" lon="11.112402">
<ele>556.717</ele>
<time>2022-05-27T11:13:23Z</time>
</trkpt>
<trkpt lat="47.805058" lon="11.112373">
<ele>556.717</ele>
<time>2022-05-27T11:13:24Z</time>
</trkpt>
<trkpt lat="47.805023" lon="11.112345">
<ele>556.717</ele>
<time>2022-05-27T11:13:25Z</time>
</trkpt>
<trkpt lat="47.804989" lon="11.112315">
<ele>556.717</ele>
<time>2022-05-27T11:13:26Z</time>
</trkpt>
<trkpt lat="47.804955" lon="11.112278">
<ele>556.717</ele>
<time>2022-05-27T11:13:27Z</time>
</trkpt>
<trkpt lat="47.804924" lon="11.112238">
<ele>556.717</ele>
<time>2022-05-27T11:13:28Z</time>
</trkpt>
<trkpt lat="47.804893" lon="11.112197">
<ele>556.717</ele>
<time>2022-05-27T11:13:29Z</time>
</trkpt>
<trkpt lat="47.804859" lon="11.112155">
<ele>556.717</ele>
<time>2022-05-27T11:13:30Z</time>
</trkpt>
<trkpt lat="47.804825" lon="11.112113">
<ele>556.717</ele>
<time>2022-05-27T11:13:31Z</time>
</trkpt>
<trkpt lat="47.80479" lon="11.112075">
<ele>556.717</ele>
<time>2022-05-27T11:13:32Z</time>
</trkpt>
<trkpt lat="47.804749" lon="11.112039">
<ele>556.717</ele>
<time>2022-05-27T11:13:33Z</time>
</trkpt>
<trkpt lat="47.80471" lon="11.11201">
<ele>556.717</ele>
<time>2022-05-27T11:13:34Z</time>
</trkpt>
<trkpt lat="47.804668" lon="11.111985">
<ele>556.717</ele>
<time>2022-05-27T11:13:35Z</time>
</trkpt>
<trkpt lat="47.804623" lon="11.111966">
<ele>556.717</ele>
<time>2022-05-27T11:13:36Z</time>
</trkpt>
<trkpt lat="47.804585" lon="11.111952">
<ele>556.717</ele>
<time>2022-05-27T11:13:37Z</time>
</trkpt>
<trkpt lat="47.804539" lon="11.111943">
<ele>556.717</ele>
<time>2022-05-27T11:13:38Z</time>
</trkpt>
<trkpt lat="47.804497" lon="11.111938">
<ele>556.717</ele>
<time>2022-05-27T11:13:39Z</time>
</trkpt>
<trkpt lat="47.804455" lon="11.111933">
<ele>556.717</ele>
<time>2022-05-27T11:13:40Z</time>
</trkpt>
<trkpt lat="47.804413" lon="11.11193">
<ele>556.717</ele>
<time>2022-05-27T11:13:41Z</time>
</trkpt>
<trkpt lat="47.804371" lon="11.11193">
<ele>556.717</ele>
<time>2022-05-27T11:13:42Z</time>
</trkpt>
<trkpt lat="47.804329" lon="11.111933">
<ele>556.717</ele>
<time>2022-05-27T11:13:43Z</time>
</trkpt>
<trkpt lat="47.804291" lon="11.111937">
<ele>556.717</ele>
<time>2022-05-27T11:13:44Z</time>
</trkpt>
<trkpt lat="47.804249" lon="11.11194">
<ele>556.717</ele>
<time>2022-05-27T11:13:45Z</time>
</trkpt>
<trkpt lat="47.804203" lon="11.111947">
<ele>556.717</ele>
<time>2022-05-27T11:13:46Z</time>
</trkpt>
<trkpt lat="47.804165" lon="11.111956">
<ele>556.978</ele>
<time>2022-05-27T11:13:47Z</time>
</trkpt>
<trkpt lat="47.804127" lon="11.111959">
<ele>557.182</ele>
<time>2022-05-27T11:13:48Z</time>
</trkpt>
<trkpt lat="47.804085" lon="11.111959">
<ele>557.338</ele>
<time>2022-05-27T11:13:49Z</time>
</trkpt>
<trkpt lat="47.80405" lon="11.111961">
<ele>557.454</ele>
<time>2022-05-27T11:13:50Z</time>
</trkpt>
<trkpt lat="47.804012" lon="11.111963">
<ele>557.535</ele>
<time>2022-05-27T11:13:51Z</time>
</trkpt>
<trkpt lat="47.803974" lon="11.111968">
<ele>557.596</ele>
<time>2022-05-27T11:13:52Z</time>
</trkpt>
<trkpt lat="47.803936" lon="11.111974">
<ele>557.651</ele>
<time>2022-05-27T11:13:53Z</time>
</trkpt>
<trkpt lat="47.803902" lon="11.11198">
<ele>557.678</ele>
<time>2022-05-27T11:13:54Z</time>
</trkpt>
<trkpt lat="47.803867" lon="11.111983">
<ele>557.678</ele>
<time>2022-05-27T11:13:55Z</time>
</trkpt>
<trkpt lat="47.803837" lon="11.111985">
<ele>557.678</ele>
<time>2022-05-27T11:13:56Z</time>
</trkpt>
<trkpt lat="47.80381" lon="11.111985">
<ele>557.383</ele>
<time>2022-05-27T11:13:57Z</time>
</trkpt>
<trkpt lat="47.803783" lon="11.111983">
<ele>557.149</ele>
<time>2022-05-27T11:13:58Z</time>
</trkpt>
<trkpt lat="47.803761" lon="11.11199">
<ele>556.975</ele>
<time>2022-05-27T11:13:59Z</time>
</trkpt>
<trkpt lat="47.803738" lon="11.112006">
<ele>556.865</ele>
<time>2022-05-27T11:14:00Z</time>
</trkpt>
<trkpt lat="47.803711" lon="11.112027">
<ele>556.495</ele>
<time>2022-05-27T11:14:01Z</time>
</trkpt>
<trkpt lat="47.803688" lon="11.11205">
<ele>556.209</ele>
<time>2022-05-27T11:14:02Z</time>
</trkpt>
<trkpt lat="47.803661" lon="11.112064">
<ele>555.921</ele>
<time>2022-05-27T11:14:03Z</time>
</trkpt>
<trkpt lat="47.803623" lon="11.112082">
<ele>555.709</ele>
<time>2022-05-27T11:14:04Z</time>
</trkpt>
<trkpt lat="47.803577" lon="11.112106">
<ele>555.573</ele>
<time>2022-05-27T11:14:05Z</time>
</trkpt>
<trkpt lat="47.803535" lon="11.112138">
<ele>555.496</ele>
<time>2022-05-27T11:14:06Z</time>
</trkpt>
<trkpt lat="47.80349" lon="11.11218">
<ele>555.18</ele>
<time>2022-05-27T11:14:07Z</time>
</trkpt>
<trkpt lat="47.803452" lon="11.112226">
<ele>554.964</ele>
<time>2022-05-27T11:14:08Z</time>
</trkpt>
<trkpt lat="47.803413" lon="11.11227">
<ele>554.794</ele>
<time>2022-05-27T11:14:09Z</time>
</trkpt>
<trkpt lat="47.803379" lon="11.112318">
<ele>554.703</ele>
<time>2022-05-27T11:14:10Z</time>
</trkpt>
<trkpt lat="47.803345" lon="11.112375">
<ele>554.64</ele>
<time>2022-05-27T11:14:11Z</time>
</trkpt>
<trkpt lat="47.803307" lon="11.112435">
<ele>554.6</ele>
<time>2022-05-27T11:14:12Z</time>
</trkpt>
<trkpt lat="47.803276" lon="11.112498">
<ele>554.558</ele>
<time>2022-05-27T11:14:13Z</time>
</trkpt>
<trkpt lat="47.803242" lon="11.112567">
<ele>554.536</ele>
<time>2022-05-27T11:14:14Z</time>
</trkpt>
<trkpt lat="47.803215" lon="11.11264">
<ele>554.536</ele>
<time>2022-05-27T11:14:15Z</time>
</trkpt>
<trkpt lat="47.803196" lon="11.11271">
<ele>554.536</ele>
<time>2022-05-27T11:14:16Z</time>
</trkpt>
<trkpt lat="47.803185" lon="11.112781">
<ele>554.536</ele>
<time>2022-05-27T11:14:17Z</time>
</trkpt>
<trkpt lat="47.803169" lon="11.112848">
<ele>554.536</ele>
<time>2022-05-27T11:14:18Z</time>
</trkpt>
<trkpt lat="47.803154" lon="11.112919">
<ele>554.536</ele>
<time>2022-05-27T11:14:19Z</time>
</trkpt>
<trkpt lat="47.803139" lon="11.112997">
<ele>554.536</ele>
<time>2022-05-27T11:14:20Z</time>
</trkpt>
<trkpt lat="47.803127" lon="11.113078">
<ele>554.768</ele>
<time>2022-05-27T11:14:21Z</time>
</trkpt>
<trkpt lat="47.80312" lon="11.113158">
<ele>554.934</ele>
<time>2022-05-27T11:14:22Z</time>
</trkpt>
<trkpt lat="47.803112" lon="11.113234">
<ele>555.108</ele>
<time>2022-05-27T11:14:23Z</time>
</trkpt>
<trkpt lat="47.803112" lon="11.113303">
<ele>555.25</ele>
<time>2022-05-27T11:14:24Z</time>
</trkpt>
<trkpt lat="47.803116" lon="11.113375">
<ele>555.355</ele>
<time>2022-05-27T11:14:25Z</time>
</trkpt>
<trkpt lat="47.803116" lon="11.11345">
<ele>555.428</ele>
<time>2022-05-27T11:14:26Z</time>
</trkpt>
<trkpt lat="47.803116" lon="11.113524">
<ele>555.474</ele>
<time>2022-05-27T11:14:27Z</time>
</trkpt>
<trkpt lat="47.80312" lon="11.1136">
<ele>555.496</ele>
<time>2022-05-27T11:14:28Z</time>
</trkpt>
<trkpt lat="47.803131" lon="11.113675">
<ele>555.496</ele>
<time>2022-05-27T11:14:29Z</time>
</trkpt>
<trkpt lat="47.803143" lon="11.113747">
<ele>555.496</ele>
<time>2022-05-27T11:14:30Z</time>
</trkpt>
<trkpt lat="47.80315" lon="11.11382">
<ele>555.496</ele>
<time>2022-05-27T11:14:31Z</time>
</trkpt>
<trkpt lat="47.803158" lon="11.11389">
<ele>555.496</ele>
<time>2022-05-27T11:14:32Z</time>
</trkpt>
<trkpt lat="47.803177" lon="11.113965">
<ele>555.496</ele>
<time>2022-05-27T11:14:33Z</time>
</trkpt>
<trkpt lat="47.803188" lon="11.114042">
<ele>555.496</ele>
<time>2022-05-27T11:14:34Z</time>
</trkpt>
<trkpt lat="47.803204" lon="11.114117">
<ele>555.496</ele>
<time>2022-05-27T11:14:35Z</time>
</trkpt>
<trkpt lat="47.803219" lon="11.114191">
<ele>555.496</ele>
<time>2022-05-27T11:14:36Z</time>
</trkpt>
<trkpt lat="47.803242" lon="11.114264">
<ele>555.496</ele>
<time>2022-05-27T11:14:37Z</time>
</trkpt>
<trkpt lat="47.803261" lon="11.114331">
<ele>555.496</ele>
<time>2022-05-27T11:14:38Z</time>
</trkpt>
<trkpt lat="47.80328" lon="11.114396">
<ele>555.496</ele>
<time>2022-05-27T11:14:39Z</time>
</trkpt>
<trkpt lat="47.803295" lon="11.11446">
<ele>555.496</ele>
<time>2022-05-27T11:14:40Z</time>
</trkpt>
<trkpt lat="47.803314" lon="11.114525">
<ele>555.496</ele>
<time>2022-05-27T11:14:41Z</time>
</trkpt>
<trkpt lat="47.803329" lon="11.114587">
<ele>555.496</ele>
<time>2022-05-27T11:14:42Z</time>
</trkpt>
<trkpt lat="47.803345" lon="11.114647">
<ele>555.496</ele>
<time>2022-05-27T11:14:43Z</time>
</trkpt>
<trkpt lat="47.803356" lon="11.114705">
<ele>555.496</ele>
<time>2022-05-27T11:14:44Z</time>
</trkpt>
<trkpt lat="47.803371" lon="11.114761">
<ele>555.496</ele>
<time>2022-05-27T11:14:45Z</time>
</trkpt>
<trkpt lat="47.803383" lon="11.114817">
<ele>555.496</ele>
<time>2022-05-27T11:14:46Z</time>
</trkpt>
<trkpt lat="47.803398" lon="11.114872">
<ele>555.496</ele>
<time>2022-05-27T11:14:47Z</time>
</trkpt>
<trkpt lat="47.80341" lon="11.114926">
<ele>555.496</ele>
<time>2022-05-27T11:14:48Z</time>
</trkpt>
<trkpt lat="47.803421" lon="11.114982">
<ele>555.496</ele>
<time>2022-05-27T11:14:49Z</time>
</trkpt>
<trkpt lat="47.803425" lon="11.115037">
<ele>555.496</ele>
<time>2022-05-27T11:14:50Z</time>
</trkpt>
<trkpt lat="47.803432" lon="11.115096">
<ele>555.496</ele>
<time>2022-05-27T11:14:51Z</time>
</trkpt>
<trkpt lat="47.80344" lon="11.11516">
<ele>555.496</ele>
<time>2022-05-27T11:14:52Z</time>
</trkpt>
<trkpt lat="47.803444" lon="11.115224">
<ele>555.496</ele>
<time>2022-05-27T11:14:53Z</time>
</trkpt>
<trkpt lat="47.803444" lon="11.115285">
<ele>555.496</ele>
<time>2022-05-27T11:14:54Z</time>
</trkpt>
<trkpt lat="47.803444" lon="11.115348">
<ele>555.496</ele>
<time>2022-05-27T11:14:55Z</time>
</trkpt>
<trkpt lat="47.803444" lon="11.115408">
<ele>555.496</ele>
<time>2022-05-27T11:14:56Z</time>
</trkpt>
<trkpt lat="47.80344" lon="11.11546">
<ele>555.496</ele>
<time>2022-05-27T11:14:57Z</time>
</trkpt>
<trkpt lat="47.80344" lon="11.115511">
<ele>555.496</ele>
<time>2022-05-27T11:14:58Z</time>
</trkpt>
<trkpt lat="47.803432" lon="11.11556">
<ele>555.496</ele>
<time>2022-05-27T11:14:59Z</time>
</trkpt>
<trkpt lat="47.803425" lon="11.11561">
<ele>555.496</ele>
<time>2022-05-27T11:15:00Z</time>
</trkpt>
<trkpt lat="47.803417" lon="11.115658">
<ele>555.496</ele>
<time>2022-05-27T11:15:01Z</time>
</trkpt>
<trkpt lat="47.80341" lon="11.115706">
<ele>555.496</ele>
<time>2022-05-27T11:15:02Z</time>
</trkpt>
<trkpt lat="47.803398" lon="11.115752">
<ele>555.496</ele>
<time>2022-05-27T11:15:03Z</time>
</trkpt>
<trkpt lat="47.803387" lon="11.115804">
<ele>555.496</ele>
<time>2022-05-27T11:15:04Z</time>
</trkpt>
<trkpt lat="47.803375" lon="11.11586">
<ele>555.496</ele>
<time>2022-05-27T11:15:05Z</time>
</trkpt>
<trkpt lat="47.80336" lon="11.115913">
<ele>555.496</ele>
<time>2022-05-27T11:15:06Z</time>
</trkpt>
<trkpt lat="47.803345" lon="11.115957">
<ele>555.496</ele>
<time>2022-05-27T11:15:07Z</time>
</trkpt>
<trkpt lat="47.803326" lon="11.116001">
<ele>555.496</ele>
<time>2022-05-27T11:15:08Z</time>
</trkpt>
<trkpt lat="47.80331" lon="11.116047">
<ele>555.496</ele>
<time>2022-05-27T11:15:09Z</time>
</trkpt>
<trkpt lat="47.803284" lon="11.116087">
<ele>555.496</ele>
<time>2022-05-27T11:15:10Z</time>
</trkpt>
<trkpt lat="47.803268" lon="11.116125">
<ele>555.496</ele>
<time>2022-05-27T11:15:11Z</time>
</trkpt>
<trkpt lat="47.803249" lon="11.116167">
<ele>555.496</ele>
<time>2022-05-27T11:15:12Z</time>
</trkpt>
<trkpt lat="47.803223" lon="11.116206">
<ele>555.496</ele>
<time>2022-05-27T11:15:13Z</time>
</trkpt>
<trkpt lat="47.8032" lon="11.116241">
<ele>555.496</ele>
<time>2022-05-27T11:15:14Z</time>
</trkpt>
<trkpt lat="47.803173" lon="11.116283">
<ele>555.496</ele>
<time>2022-05-27T11:15:15Z</time>
</trkpt>
<trkpt lat="47.803143" lon="11.116323">
<ele>555.496</ele>
<time>2022-05-27T11:15:16Z</time>
</trkpt>
<trkpt lat="47.803112" lon="11.116365">
<ele>555.496</ele>
<time>2022-05-27T11:15:17Z</time>
</trkpt>
<trkpt lat="47.803082" lon="11.116405">
<ele>555.496</ele>
<time>2022-05-27T11:15:18Z</time>
</trkpt>
<trkpt lat="47.803051" lon="11.116446">
<ele>555.496</ele>
<time>2022-05-27T11:15:19Z</time>
</trkpt>
<trkpt lat="47.803013" lon="11.116487">
<ele>555.496</ele>
<time>2022-05-27T11:15:20Z</time>
</trkpt>
<trkpt lat="47.802982" lon="11.116518">
<ele>555.496</ele>
<time>2022-05-27T11:15:21Z</time>
</trkpt>
<trkpt lat="47.802944" lon="11.116549">
<ele>555.496</ele>
<time>2022-05-27T11:15:22Z</time>
</trkpt>
<trkpt lat="47.80291" lon="11.116575">
<ele>555.496</ele>
<time>2022-05-27T11:15:23Z</time>
</trkpt>
<trkpt lat="47.802876" lon="11.116602">
<ele>555.496</ele>
<time>2022-05-27T11:15:24Z</time>
</trkpt>
<trkpt lat="47.802849" lon="11.11663">
<ele>555.496</ele>
<time>2022-05-27T11:15:25Z</time>
</trkpt>
<trkpt lat="47.802814" lon="11.116653">
<ele>555.496</ele>
<time>2022-05-27T11:15:26Z</time>
</trkpt>
<trkpt lat="47.80278" lon="11.116673">
<ele>555.496</ele>
<time>2022-05-27T11:15:27Z</time>
</trkpt>
<trkpt lat="47.802742" lon="11.116691">
<ele>555.496</ele>
<time>2022-05-27T11:15:28Z</time>
</trkpt>
<trkpt lat="47.802704" lon="11.116712">
<ele>555.496</ele>
<time>2022-05-27T11:15:29Z</time>
</trkpt>
<trkpt lat="47.802666" lon="11.116732">
<ele>555.496</ele>
<time>2022-05-27T11:15:30Z</time>
</trkpt>
<trkpt lat="47.802628" lon="11.116754">
<ele>555.496</ele>
<time>2022-05-27T11:15:31Z</time>
</trkpt>
<trkpt lat="47.802586" lon="11.11677">
<ele>555.496</ele>
<time>2022-05-27T11:15:32Z</time>
</trkpt>
<trkpt lat="47.802544" lon="11.11679">
<ele>555.496</ele>
<time>2022-05-27T11:15:33Z</time>
</trkpt>
<trkpt lat="47.802498" lon="11.116815">
<ele>555.796</ele>
<time>2022-05-27T11:15:34Z</time>
</trkpt>
<trkpt lat="47.802452" lon="11.116833">
<ele>556.023</ele>
<time>2022-05-27T11:15:35Z</time>
</trkpt>
<trkpt lat="47.80241" lon="11.116843">
<ele>556.19</ele>
<time>2022-05-27T11:15:36Z</time>
</trkpt>
<trkpt lat="47.802368" lon="11.116848">
<ele>556.304</ele>
<time>2022-05-27T11:15:37Z</time>
</trkpt>
<trkpt lat="47.80233" lon="11.116847">
<ele>556.38</ele>
<time>2022-05-27T11:15:38Z</time>
</trkpt>
<trkpt lat="47.802292" lon="11.116839">
<ele>556.428</ele>
<time>2022-05-27T11:15:39Z</time>
</trkpt>
<trkpt lat="47.802254" lon="11.116829">
<ele>556.456</ele>
<time>2022-05-27T11:15:40Z</time>
</trkpt>
<trkpt lat="47.802208" lon="11.116825">
<ele>556.456</ele>
<time>2022-05-27T11:15:41Z</time>
</trkpt>
<trkpt lat="47.802158" lon="11.116815">
<ele>556.456</ele>
<time>2022-05-27T11:15:42Z</time>
</trkpt>
<trkpt lat="47.802113" lon="11.116803">
<ele>556.456</ele>
<time>2022-05-27T11:15:43Z</time>
</trkpt>
<trkpt lat="47.802071" lon="11.116796">
<ele>556.456</ele>
<time>2022-05-27T11:15:44Z</time>
</trkpt>
<trkpt lat="47.802029" lon="11.116785">
<ele>556.456</ele>
<time>2022-05-27T11:15:45Z</time>
</trkpt>
<trkpt lat="47.801983" lon="11.116783">
<ele>556.456</ele>
<time>2022-05-27T11:15:46Z</time>
</trkpt>
<trkpt lat="47.801941" lon="11.116785">
<ele>556.456</ele>
<time>2022-05-27T11:15:47Z</time>
</trkpt>
<trkpt lat="47.801903" lon="11.116775">
<ele>556.456</ele>
<time>2022-05-27T11:15:48Z</time>
</trkpt>
<trkpt lat="47.80188" lon="11.116765">
<ele>556.456</ele>
<time>2022-05-27T11:15:49Z</time>
</trkpt>
<trkpt lat="47.801842" lon="11.116758">
<ele>556.456</ele>
<time>2022-05-27T11:15:50Z</time>
</trkpt>
<trkpt lat="47.801815" lon="11.11675">
<ele>556.456</ele>
<time>2022-05-27T11:15:51Z</time>
</trkpt>
<trkpt lat="47.801781" lon="11.11674">
<ele>556.456</ele>
<time>2022-05-27T11:15:52Z</time>
</trkpt>
<trkpt lat="47.801758" lon="11.116732">
<ele>556.456</ele>
<time>2022-05-27T11:15:53Z</time>
</trkpt>
<trkpt lat="47.801743" lon="11.116712">
<ele>556.456</ele>
<time>2022-05-27T11:15:54Z</time>
</trkpt>
<trkpt lat="47.801735" lon="11.116682">
<ele>556.456</ele>
<time>2022-05-27T11:15:55Z</time>
</trkpt>
<trkpt lat="47.801716" lon="11.116657">
<ele>556.456</ele>
<time>2022-05-27T11:15:56Z</time>
</trkpt>
<trkpt lat="47.801701" lon="11.116635">
<ele>556.456</ele>
<time>2022-05-27T11:15:57Z</time>
</trkpt>
<trkpt lat="47.801682" lon="11.116609">
<ele>556.456</ele>
<time>2022-05-27T11:15:58Z</time>
</trkpt>
<trkpt lat="47.801666" lon="11.116582">
<ele>556.456</ele>
<time>2022-05-27T11:15:59Z</time>
</trkpt>
<trkpt lat="47.801647" lon="11.11655">
<ele>556.456</ele>
<time>2022-05-27T11:16:00Z</time>
</trkpt>
<trkpt lat="47.801628" lon="11.116521">
<ele>556.456</ele>
<time>2022-05-27T11:16:01Z</time>
</trkpt>
<trkpt lat="47.801613" lon="11.116483">
<ele>556.456</ele>
<time>2022-05-27T11:16:02Z</time>
</trkpt>
<trkpt lat="47.80159" lon="11.116426">
<ele>556.456</ele>
<time>2022-05-27T11:16:03Z</time>
</trkpt>
<trkpt lat="47.801579" lon="11.116374">
<ele>556.456</ele>
<time>2022-05-27T11:16:04Z</time>
</trkpt>
<trkpt lat="47.801556" lon="11.116341">
<ele>556.456</ele>
<time>2022-05-27T11:16:05Z</time>
</trkpt>
<trkpt lat="47.801537" lon="11.116302">
<ele>556.456</ele>
<time>2022-05-27T11:16:06Z</time>
</trkpt>
<trkpt lat="47.801502" lon="11.11627">
<ele>556.456</ele>
<time>2022-05-27T11:16:07Z</time>
</trkpt>
<trkpt lat="47.801487" lon="11.11624">
<ele>556.456</ele>
<time>2022-05-27T11:16:08Z</time>
</trkpt>
<trkpt lat="47.80146" lon="11.116212">
<ele>556.456</ele>
<time>2022-05-27T11:16:09Z</time>
</trkpt>
<trkpt lat="47.801437" lon="11.116179">
<ele>556.456</ele>
<time>2022-05-27T11:16:10Z</time>
</trkpt>
<trkpt lat="47.801414" lon="11.116154">
<ele>556.456</ele>
<time>2022-05-27T11:16:11Z</time>
</trkpt>
<trkpt lat="47.801388" lon="11.11613">
<ele>556.456</ele>
<time>2022-05-27T11:16:12Z</time>
</trkpt>
<trkpt lat="47.801361" lon="11.116108">
<ele>556.706</ele>
<time>2022-05-27T11:16:13Z</time>
</trkpt>
<trkpt lat="47.801342" lon="11.116081">
<ele>556.912</ele>
<time>2022-05-27T11:16:14Z</time>
</trkpt>
<trkpt lat="47.801323" lon="11.116073">
<ele>557.084</ele>
<time>2022-05-27T11:16:15Z</time>
</trkpt>
<trkpt lat="47.801308" lon="11.116056">
<ele>557.236</ele>
<time>2022-05-27T11:16:16Z</time>
</trkpt>
<trkpt lat="47.801292" lon="11.116047">
<ele>557.319</ele>
<time>2022-05-27T11:16:17Z</time>
</trkpt>
<trkpt lat="47.801277" lon="11.116047">
<ele>557.629</ele>
<time>2022-05-27T11:16:18Z</time>
</trkpt>
<trkpt lat="47.801262" lon="11.116052">
<ele>557.887</ele>
<time>2022-05-27T11:16:19Z</time>
</trkpt>
<trkpt lat="47.801258" lon="11.116066">
<ele>558.084</ele>
<time>2022-05-27T11:16:20Z</time>
</trkpt>
<trkpt lat="47.80125" lon="11.116089">
<ele>558.229</ele>
<time>2022-05-27T11:16:21Z</time>
</trkpt>
<trkpt lat="47.80125" lon="11.116101">
<ele>558.338</ele>
<time>2022-05-27T11:16:22Z</time>
</trkpt>
<trkpt lat="47.801254" lon="11.116112">
<ele>558.447</ele>
<time>2022-05-27T11:16:23Z</time>
</trkpt>
<trkpt lat="47.801262" lon="11.116122">
<ele>558.516</ele>
<time>2022-05-27T11:16:24Z</time>
</trkpt>
<trkpt lat="47.80127" lon="11.116141">
<ele>558.55</ele>
<time>2022-05-27T11:16:25Z</time>
</trkpt>
<trkpt lat="47.801285" lon="11.116162">
<ele>558.55</ele>
<time>2022-05-27T11:16:26Z</time>
</trkpt>
<trkpt lat="47.801292" lon="11.116188">
<ele>558.55</ele>
<time>2022-05-27T11:16:27Z</time>
</trkpt>
<trkpt lat="47.8013" lon="11.116213">
<ele>558.826</ele>
<time>2022-05-27T11:16:28Z</time>
</trkpt>
<trkpt lat="47.801308" lon="11.11623">
<ele>559.037</ele>
<time>2022-05-27T11:16:29Z</time>
</trkpt>
<trkpt lat="47.801315" lon="11.116244">
<ele>559.2</ele>
<time>2022-05-27T11:16:30Z</time>
</trkpt>
<trkpt lat="47.801323" lon="11.116257">
<ele>559.308</ele>
<time>2022-05-27T11:16:31Z</time>
</trkpt>
<trkpt lat="47.801327" lon="11.116267">
<ele>559.358</ele>
<time>2022-05-27T11:16:32Z</time>
</trkpt>
<trkpt lat="47.801334" lon="11.11628">
<ele>559.432</ele>
<time>2022-05-27T11:16:33Z</time>
</trkpt>
<trkpt lat="47.801334" lon="11.116288">
<ele>559.481</ele>
<time>2022-05-27T11:16:34Z</time>
</trkpt>
<trkpt lat="47.801342" lon="11.116297">
<ele>559.51</ele>
<time>2022-05-27T11:16:35Z</time>
</trkpt>
<trkpt lat="47.801346" lon="11.116302">
<ele>559.51</ele>
<time>2022-05-27T11:16:36Z</time>
</trkpt>
<trkpt lat="47.80135" lon="11.116301">
<ele>559.51</ele>
<time>2022-05-27T11:16:37Z</time>
</trkpt>
<trkpt lat="47.801353" lon="11.116301">
<ele>559.51</ele>
<time>2022-05-27T11:16:38Z</time>
</trkpt>
<trkpt lat="47.801357" lon="11.116299">
<ele>559.51</ele>
<time>2022-05-27T11:16:39Z</time>
</trkpt>
<trkpt lat="47.80138" lon="11.116322">
<ele>559.51</ele>
<time>2022-05-27T11:20:37Z</time>
</trkpt>
<trkpt lat="47.80138" lon="11.116337">
<ele>559.641</ele>
<time>2022-05-27T11:20:38Z</time>
</trkpt>
<trkpt lat="47.80138" lon="11.116346">
<ele>559.689</ele>
<time>2022-05-27T11:20:39Z</time>
</trkpt>
<trkpt lat="47.801376" lon="11.116355">
<ele>559.733</ele>
<time>2022-05-27T11:20:40Z</time>
</trkpt>
<trkpt lat="47.801376" lon="11.116372">
<ele>559.755</ele>
<time>2022-05-27T11:20:41Z</time>
</trkpt>
<trkpt lat="47.801369" lon="11.116388">
<ele>559.766</ele>
<time>2022-05-27T11:20:43Z</time>
</trkpt>
<trkpt lat="47.80135" lon="11.116439">
<ele>559.772</ele>
<time>2022-05-27T11:20:44Z</time>
</trkpt>
<trkpt lat="47.801334" lon="11.116468">
<ele>559.772</ele>
<time>2022-05-27T11:20:45Z</time>
</trkpt>
<trkpt lat="47.801315" lon="11.116498">
<ele>559.772</ele>
<time>2022-05-27T11:20:46Z</time>
</trkpt>
<trkpt lat="47.801296" lon="11.116529">
<ele>559.772</ele>
<time>2022-05-27T11:20:48Z</time>
</trkpt>
<trkpt lat="47.801258" lon="11.116607">
<ele>559.772</ele>
<time>2022-05-27T11:20:50Z</time>
</trkpt>
<trkpt lat="47.801235" lon="11.116649">
<ele>560.12</ele>
<time>2022-05-27T11:20:51Z</time>
</trkpt>
<trkpt lat="47.801189" lon="11.116724">
<ele>560.488</ele>
<time>2022-05-27T11:20:52Z</time>
</trkpt>
<trkpt lat="47.801163" lon="11.116758">
<ele>560.585</ele>
<time>2022-05-27T11:20:53Z</time>
</trkpt>
<trkpt lat="47.801132" lon="11.116796">
<ele>560.66</ele>
<time>2022-05-27T11:20:55Z</time>
</trkpt>
<trkpt lat="47.801083" lon="11.116875">
<ele>560.969</ele>
<time>2022-05-27T11:20:56Z</time>
</trkpt>
<trkpt lat="47.801056" lon="11.116915">
<ele>561.134</ele>
<time>2022-05-27T11:20:57Z</time>
</trkpt>
<trkpt lat="47.801022" lon="11.116957">
<ele>561.492</ele>
<time>2022-05-27T11:20:58Z</time>
</trkpt>
<trkpt lat="47.800987" lon="11.116997">
<ele>561.828</ele>
<time>2022-05-27T11:20:59Z</time>
</trkpt>
<trkpt lat="47.800949" lon="11.117037">
<ele>562.096</ele>
<time>2022-05-27T11:21:00Z</time>
</trkpt>
<trkpt lat="47.800911" lon="11.117076">
<ele>562.29</ele>
<time>2022-05-27T11:21:01Z</time>
</trkpt>
<trkpt lat="47.800877" lon="11.117113">
<ele>562.423</ele>
<time>2022-05-27T11:21:02Z</time>
</trkpt>
<trkpt lat="47.800842" lon="11.117149">
<ele>562.509</ele>
<time>2022-05-27T11:21:03Z</time>
</trkpt>
<trkpt lat="47.800812" lon="11.117189">
<ele>562.547</ele>
<time>2022-05-27T11:21:04Z</time>
</trkpt>
<trkpt lat="47.800774" lon="11.11723">
<ele>562.566</ele>
<time>2022-05-27T11:21:05Z</time>
</trkpt>
<trkpt lat="47.800743" lon="11.117273">
<ele>562.566</ele>
<time>2022-05-27T11:21:06Z</time>
</trkpt>
<trkpt lat="47.800713" lon="11.117315">
<ele>562.796</ele>
<time>2022-05-27T11:21:07Z</time>
</trkpt>
<trkpt lat="47.800682" lon="11.117352">
<ele>562.964</ele>
<time>2022-05-27T11:21:08Z</time>
</trkpt>
<trkpt lat="47.800652" lon="11.11739">
<ele>563.134</ele>
<time>2022-05-27T11:21:10Z</time>
</trkpt>
<trkpt lat="47.800583" lon="11.117461">
<ele>563.6</ele>
<time>2022-05-27T11:21:11Z</time>
</trkpt>
<trkpt lat="47.800549" lon="11.117499">
<ele>563.84</ele>
<time>2022-05-27T11:21:12Z</time>
</trkpt>
<trkpt lat="47.80051" lon="11.117538">
<ele>564.279</ele>
<time>2022-05-27T11:21:13Z</time>
</trkpt>
<trkpt lat="47.800468" lon="11.117577">
<ele>564.584</ele>
<time>2022-05-27T11:21:14Z</time>
</trkpt>
<trkpt lat="47.80043" lon="11.117619">
<ele>565.187</ele>
<time>2022-05-27T11:21:15Z</time>
</trkpt>
<trkpt lat="47.800392" lon="11.117662">
<ele>565.558</ele>
<time>2022-05-27T11:21:16Z</time>
</trkpt>
<trkpt lat="47.800354" lon="11.117704">
<ele>565.778</ele>
<time>2022-05-27T11:21:17Z</time>
</trkpt>
<trkpt lat="47.80032" lon="11.117742">
<ele>566.223</ele>
<time>2022-05-27T11:21:18Z</time>
</trkpt>
<trkpt lat="47.800282" lon="11.117778">
<ele>566.566</ele>
<time>2022-05-27T11:21:20Z</time>
</trkpt>
<trkpt lat="47.800213" lon="11.117849">
<ele>567.22</ele>
<time>2022-05-27T11:21:21Z</time>
</trkpt>
<trkpt lat="47.800179" lon="11.11788">
<ele>567.506</ele>
<time>2022-05-27T11:21:23Z</time>
</trkpt>
<trkpt lat="47.800106" lon="11.117939">
<ele>568.335</ele>
<time>2022-05-27T11:21:24Z</time>
</trkpt>
<trkpt lat="47.800072" lon="11.117967">
<ele>568.581</ele>
<time>2022-05-27T11:21:25Z</time>
</trkpt>
<trkpt lat="47.800037" lon="11.117996">
<ele>569.085</ele>
<time>2022-05-27T11:21:26Z</time>
</trkpt>
<trkpt lat="47.800003" lon="11.118027">
<ele>569.407</ele>
<time>2022-05-27T11:21:28Z</time>
</trkpt>
<trkpt lat="47.799942" lon="11.118085">
<ele>570.077</ele>
<time>2022-05-27T11:21:29Z</time>
</trkpt>
<trkpt lat="47.799908" lon="11.118111">
<ele>570.418</ele>
<time>2022-05-27T11:21:30Z</time>
</trkpt>
<trkpt lat="47.799877" lon="11.118136">
<ele>570.627</ele>
<time>2022-05-27T11:21:31Z</time>
</trkpt>
<trkpt lat="47.799847" lon="11.118165">
<ele>571.04</ele>
<time>2022-05-27T11:21:32Z</time>
</trkpt>
<trkpt lat="47.799812" lon="11.118193">
<ele>571.355</ele>
<time>2022-05-27T11:21:33Z</time>
</trkpt>
<trkpt lat="47.799782" lon="11.11822">
<ele>571.583</ele>
<time>2022-05-27T11:21:34Z</time>
</trkpt>
<trkpt lat="47.799755" lon="11.118247">
<ele>571.726</ele>
<time>2022-05-27T11:21:35Z</time>
</trkpt>
<trkpt lat="47.799728" lon="11.118272">
<ele>572.086</ele>
<time>2022-05-27T11:21:36Z</time>
</trkpt>
<trkpt lat="47.799702" lon="11.118299">
<ele>572.351</ele>
<time>2022-05-27T11:21:37Z</time>
</trkpt>
<trkpt lat="47.799683" lon="11.118341">
<ele>572.531</ele>
<time>2022-05-27T11:21:38Z</time>
</trkpt>
<trkpt lat="47.799667" lon="11.11839">
<ele>572.922</ele>
<time>2022-05-27T11:21:39Z</time>
</trkpt>
<trkpt lat="47.799664" lon="11.118443">
<ele>573.222</ele>
<time>2022-05-27T11:21:41Z</time>
</trkpt>
<trkpt lat="47.799675" lon="11.118497">
<ele>573.471</ele>
<time>2022-05-27T11:21:42Z</time>
</trkpt>
<trkpt lat="47.799728" lon="11.118585">
<ele>573.79</ele>
<time>2022-05-27T11:21:44Z</time>
</trkpt>
<trkpt lat="47.799801" lon="11.118651">
<ele>573.905</ele>
<time>2022-05-27T11:21:45Z</time>
</trkpt>
<trkpt lat="47.799847" lon="11.11868">
<ele>573.923</ele>
<time>2022-05-27T11:21:46Z</time>
</trkpt>
<trkpt lat="47.799889" lon="11.118706">
<ele>573.923</ele>
<time>2022-05-27T11:21:47Z</time>
</trkpt>
<trkpt lat="47.799931" lon="11.11873">
<ele>573.923</ele>
<time>2022-05-27T11:21:48Z</time>
</trkpt>
<trkpt lat="47.799976" lon="11.11875">
<ele>573.923</ele>
<time>2022-05-27T11:21:49Z</time>
</trkpt>
<trkpt lat="47.800014" lon="11.118765">
<ele>573.923</ele>
<time>2022-05-27T11:21:51Z</time>
</trkpt>
<trkpt lat="47.800056" lon="11.118777">
<ele>573.923</ele>
<time>2022-05-27T11:21:52Z</time>
</trkpt>
<trkpt lat="47.800148" lon="11.118785">
<ele>574.445</ele>
<time>2022-05-27T11:21:53Z</time>
</trkpt>
<trkpt lat="47.800186" lon="11.118785">
<ele>574.614</ele>
<time>2022-05-27T11:21:54Z</time>
</trkpt>
<trkpt lat="47.800232" lon="11.118783">
<ele>574.717</ele>
<time>2022-05-27T11:21:55Z</time>
</trkpt>
<trkpt lat="47.800278" lon="11.11878">
<ele>575.054</ele>
<time>2022-05-27T11:21:57Z</time>
</trkpt>
<trkpt lat="47.800362" lon="11.118773">
<ele>575.507</ele>
<time>2022-05-27T11:21:58Z</time>
</trkpt>
<trkpt lat="47.800404" lon="11.118771">
<ele>575.666</ele>
<time>2022-05-27T11:21:59Z</time>
</trkpt>
<trkpt lat="47.800446" lon="11.118765">
<ele>575.988</ele>
<time>2022-05-27T11:22:00Z</time>
</trkpt>
<trkpt lat="47.800484" lon="11.11876">
<ele>576.245</ele>
<time>2022-05-27T11:22:01Z</time>
</trkpt>
<trkpt lat="47.800526" lon="11.118754">
<ele>576.443</ele>
<time>2022-05-27T11:22:02Z</time>
</trkpt>
<trkpt lat="47.800568" lon="11.11875">
<ele>576.586</ele>
<time>2022-05-27T11:22:03Z</time>
</trkpt>
<trkpt lat="47.800606" lon="11.118742">
<ele>576.737</ele>
<time>2022-05-27T11:22:04Z</time>
</trkpt>
<trkpt lat="47.800648" lon="11.118738">
<ele>576.782</ele>
<time>2022-05-27T11:22:05Z</time>
</trkpt>
<trkpt lat="47.800694" lon="11.118735">
<ele>577.043</ele>
<time>2022-05-27T11:22:06Z</time>
</trkpt>
<trkpt lat="47.800735" lon="11.118731">
<ele>577.241</ele>
<time>2022-05-27T11:22:07Z</time>
</trkpt>
<trkpt lat="47.800774" lon="11.118727">
<ele>577.373</ele>
<time>2022-05-27T11:22:08Z</time>
</trkpt>
<trkpt lat="47.800812" lon="11.118723">
<ele>577.511</ele>
<time>2022-05-27T11:22:09Z</time>
</trkpt>
<trkpt lat="47.80085" lon="11.11872">
<ele>577.617</ele>
<time>2022-05-27T11:22:10Z</time>
</trkpt>
<trkpt lat="47.800892" lon="11.118716">
<ele>577.695</ele>
<time>2022-05-27T11:22:11Z</time>
</trkpt>
<trkpt lat="47.800934" lon="11.118711">
<ele>577.743</ele>
<time>2022-05-27T11:22:12Z</time>
</trkpt>
<trkpt lat="47.800976" lon="11.118706">
<ele>578.026</ele>
<time>2022-05-27T11:22:13Z</time>
</trkpt>
<trkpt lat="47.801018" lon="11.118704">
<ele>578.282</ele>
<time>2022-05-27T11:22:14Z</time>
</trkpt>
<trkpt lat="47.80106" lon="11.1187">
<ele>578.455</ele>
<time>2022-05-27T11:22:15Z</time>
</trkpt>
<trkpt lat="47.801102" lon="11.118697">
<ele>578.584</ele>
<time>2022-05-27T11:22:16Z</time>
</trkpt>
<trkpt lat="47.801144" lon="11.118693">
<ele>578.672</ele>
<time>2022-05-27T11:22:17Z</time>
</trkpt>
<trkpt lat="47.801186" lon="11.11869">
<ele>578.735</ele>
<time>2022-05-27T11:22:18Z</time>
</trkpt>
<trkpt lat="47.801228" lon="11.118689">
<ele>578.792</ele>
<time>2022-05-27T11:22:20Z</time>
</trkpt>
<trkpt lat="47.80127" lon="11.11869">
<ele>578.82</ele>
<time>2022-05-27T11:22:21Z</time>
</trkpt>
<trkpt lat="47.801361" lon="11.118689">
<ele>578.82</ele>
<time>2022-05-27T11:22:22Z</time>
</trkpt>
<trkpt lat="47.801411" lon="11.11869">
<ele>578.82</ele>
<time>2022-05-27T11:22:23Z</time>
</trkpt>
<trkpt lat="47.80146" lon="11.118697">
<ele>578.82</ele>
<time>2022-05-27T11:22:24Z</time>
</trkpt>
<trkpt lat="47.80151" lon="11.118707">
<ele>578.82</ele>
<time>2022-05-27T11:22:25Z</time>
</trkpt>
<trkpt lat="47.801559" lon="11.11872">
<ele>578.82</ele>
<time>2022-05-27T11:22:27Z</time>
</trkpt>
<trkpt lat="47.801678" lon="11.118746">
<ele>578.82</ele>
<time>2022-05-27T11:22:28Z</time>
</trkpt>
<trkpt lat="47.801731" lon="11.118763">
<ele>578.82</ele>
<time>2022-05-27T11:22:29Z</time>
</trkpt>
<trkpt lat="47.801785" lon="11.11878">
<ele>578.82</ele>
<time>2022-05-27T11:22:30Z</time>
</trkpt>
<trkpt lat="47.801846" lon="11.1188">
<ele>578.82</ele>
<time>2022-05-27T11:22:31Z</time>
</trkpt>
<trkpt lat="47.801903" lon="11.118821">
<ele>578.82</ele>
<time>2022-05-27T11:22:32Z</time>
</trkpt>
<trkpt lat="47.80196" lon="11.118845">
<ele>578.82</ele>
<time>2022-05-27T11:22:33Z</time>
</trkpt>
<trkpt lat="47.802013" lon="11.118874">
<ele>578.82</ele>
<time>2022-05-27T11:22:35Z</time>
</trkpt>
<trkpt lat="47.802071" lon="11.118903">
<ele>578.82</ele>
<time>2022-05-27T11:22:36Z</time>
</trkpt>
<trkpt lat="47.802177" lon="11.118974">
<ele>578.388</ele>
<time>2022-05-27T11:22:37Z</time>
</trkpt>
<trkpt lat="47.802231" lon="11.119008">
<ele>578.259</ele>
<time>2022-05-27T11:22:38Z</time>
</trkpt>
<trkpt lat="47.80228" lon="11.119043">
<ele>578.12</ele>
<time>2022-05-27T11:22:39Z</time>
</trkpt>
<trkpt lat="47.80233" lon="11.119077">
<ele>578.012</ele>
<time>2022-05-27T11:22:40Z</time>
</trkpt>
<trkpt lat="47.802376" lon="11.119112">
<ele>577.933</ele>
<time>2022-05-27T11:22:42Z</time>
</trkpt>
<trkpt lat="47.802471" lon="11.119188">
<ele>577.858</ele>
<time>2022-05-27T11:22:43Z</time>
</trkpt>
<trkpt lat="47.802517" lon="11.119228">
<ele>577.858</ele>
<time>2022-05-27T11:22:45Z</time>
</trkpt>
<trkpt lat="47.802563" lon="11.119271">
<ele>577.858</ele>
<time>2022-05-27T11:22:46Z</time>
</trkpt>
<trkpt lat="47.802608" lon="11.119313">
<ele>577.858</ele>
<time>2022-05-27T11:22:47Z</time>
</trkpt>
<trkpt lat="47.802692" lon="11.119411">
<ele>577.858</ele>
<time>2022-05-27T11:22:48Z</time>
</trkpt>
<trkpt lat="47.802727" lon="11.119462">
<ele>577.858</ele>
<time>2022-05-27T11:22:49Z</time>
</trkpt>
<trkpt lat="47.802776" lon="11.11952">
<ele>577.858</ele>
<time>2022-05-27T11:22:50Z</time>
</trkpt>
<trkpt lat="47.802818" lon="11.119581">
<ele>577.574</ele>
<time>2022-05-27T11:22:51Z</time>
</trkpt>
<trkpt lat="47.802856" lon="11.119645">
<ele>577.355</ele>
<time>2022-05-27T11:22:52Z</time>
</trkpt>
<trkpt lat="47.802902" lon="11.119712">
<ele>577.221</ele>
<time>2022-05-27T11:22:53Z</time>
</trkpt>
<trkpt lat="47.802944" lon="11.119773">
<ele>576.85</ele>
<time>2022-05-27T11:22:54Z</time>
</trkpt>
<trkpt lat="47.802994" lon="11.119842">
<ele>576.615</ele>
<time>2022-05-27T11:22:55Z</time>
</trkpt>
<trkpt lat="47.803051" lon="11.119905">
<ele>576.19</ele>
<time>2022-05-27T11:22:56Z</time>
</trkpt>
<trkpt lat="47.803116" lon="11.119975">
<ele>575.642</ele>
<time>2022-05-27T11:22:57Z</time>
</trkpt>
<trkpt lat="47.803185" lon="11.120045">
<ele>574.948</ele>
<time>2022-05-27T11:22:58Z</time>
</trkpt>
<trkpt lat="47.803257" lon="11.12011">
<ele>574.377</ele>
<time>2022-05-27T11:23:00Z</time>
</trkpt>
<trkpt lat="47.803417" lon="11.120234">
<ele>572.939</ele>
<time>2022-05-27T11:23:01Z</time>
</trkpt>
<trkpt lat="47.80349" lon="11.120288">
<ele>572.048</ele>
<time>2022-05-27T11:23:02Z</time>
</trkpt>
<trkpt lat="47.803566" lon="11.120337">
<ele>571.485</ele>
<time>2022-05-27T11:23:04Z</time>
</trkpt>
<trkpt lat="47.803696" lon="11.120421">
<ele>570.2</ele>
<time>2022-05-27T11:23:05Z</time>
</trkpt>
<trkpt lat="47.803757" lon="11.12046">
<ele>569.76</ele>
<time>2022-05-27T11:23:06Z</time>
</trkpt>
<trkpt lat="47.803818" lon="11.120495">
<ele>569.311</ele>
<time>2022-05-27T11:23:07Z</time>
</trkpt>
<trkpt lat="47.803879" lon="11.120537">
<ele>568.957</ele>
<time>2022-05-27T11:23:08Z</time>
</trkpt>
<trkpt lat="47.803936" lon="11.120575">
<ele>568.673</ele>
<time>2022-05-27T11:23:09Z</time>
</trkpt>
<trkpt lat="47.803993" lon="11.120612">
<ele>568.264</ele>
<time>2022-05-27T11:23:10Z</time>
</trkpt>
<trkpt lat="47.804043" lon="11.120646">
<ele>567.944</ele>
<time>2022-05-27T11:23:11Z</time>
</trkpt>
<trkpt lat="47.804092" lon="11.120677">
<ele>567.711</ele>
<time>2022-05-27T11:23:13Z</time>
</trkpt>
<trkpt lat="47.804134" lon="11.120703">
<ele>567.538</ele>
<time>2022-05-27T11:23:14Z</time>
</trkpt>
<trkpt lat="47.80418" lon="11.120726">
<ele>567.42</ele>
<time>2022-05-27T11:23:15Z</time>
</trkpt>
<trkpt lat="47.804218" lon="11.120749">
<ele>567.309</ele>
<time>2022-05-27T11:23:16Z</time>
</trkpt>
<trkpt lat="47.80426" lon="11.12077">
<ele>567.286</ele>
<time>2022-05-27T11:23:17Z</time>
</trkpt>
<trkpt lat="47.804295" lon="11.120787">
<ele>567.068</ele>
<time>2022-05-27T11:23:18Z</time>
</trkpt>
<trkpt lat="47.804329" lon="11.120807">
<ele>566.903</ele>
<time>2022-05-27T11:23:19Z</time>
</trkpt>
<trkpt lat="47.804356" lon="11.120833">
<ele>566.742</ele>
<time>2022-05-27T11:23:20Z</time>
</trkpt>
<trkpt lat="47.804371" lon="11.12086">
<ele>566.395</ele>
<time>2022-05-27T11:23:21Z</time>
</trkpt>
<trkpt lat="47.804371" lon="11.120889">
<ele>566.101</ele>
<time>2022-05-27T11:23:22Z</time>
</trkpt>
<trkpt lat="47.804348" lon="11.120922">
<ele>565.676</ele>
<time>2022-05-27T11:23:24Z</time>
</trkpt>
<trkpt lat="47.804325" lon="11.120918">
<ele>565.539</ele>
<time>2022-05-27T11:23:25Z</time>
</trkpt>
<trkpt lat="47.804298" lon="11.120903">
<ele>565.402</ele>
<time>2022-05-27T11:23:26Z</time>
</trkpt>
<trkpt lat="47.804245" lon="11.120862">
<ele>565.36</ele>
<time>2022-05-27T11:23:27Z</time>
</trkpt>
<trkpt lat="47.804211" lon="11.12084">
<ele>565.36</ele>
<time>2022-05-27T11:23:28Z</time>
</trkpt>
<trkpt lat="47.804176" lon="11.120816">
<ele>565.36</ele>
<time>2022-05-27T11:23:29Z</time>
</trkpt>
<trkpt lat="47.804134" lon="11.120793">
<ele>565.36</ele>
<time>2022-05-27T11:23:30Z</time>
</trkpt>
<trkpt lat="47.804096" lon="11.12077">
<ele>565.36</ele>
<time>2022-05-27T11:23:31Z</time>
</trkpt>
<trkpt lat="47.804058" lon="11.120751">
<ele>565.361</ele>
<time>2022-05-27T11:23:32Z</time>
</trkpt>
<trkpt lat="47.804016" lon="11.120736">
<ele>565.361</ele>
<time>2022-05-27T11:23:33Z</time>
</trkpt>
<trkpt lat="47.803978" lon="11.120726">
<ele>565.36</ele>
<time>2022-05-27T11:23:34Z</time>
</trkpt>
<trkpt lat="47.803932" lon="11.120713">
<ele>565.36</ele>
<time>2022-05-27T11:23:35Z</time>
</trkpt>
<trkpt lat="47.803894" lon="11.120703">
<ele>565.361</ele>
<time>2022-05-27T11:23:36Z</time>
</trkpt>
<trkpt lat="47.803852" lon="11.120694">
<ele>565.361</ele>
<time>2022-05-27T11:23:37Z</time>
</trkpt>
<trkpt lat="47.80381" lon="11.120688">
<ele>565.575</ele>
<time>2022-05-27T11:23:38Z</time>
</trkpt>
<trkpt lat="47.803772" lon="11.120686">
<ele>565.775</ele>
<time>2022-05-27T11:23:39Z</time>
</trkpt>
<trkpt lat="47.803734" lon="11.120682">
<ele>565.939</ele>
<time>2022-05-27T11:23:41Z</time>
</trkpt>
<trkpt lat="47.803658" lon="11.120675">
<ele>566.159</ele>
<time>2022-05-27T11:23:42Z</time>
</trkpt>
<trkpt lat="47.803619" lon="11.120675">
<ele>566.49</ele>
<time>2022-05-27T11:23:43Z</time>
</trkpt>
<trkpt lat="47.803581" lon="11.120677">
<ele>566.755</ele>
<time>2022-05-27T11:23:44Z</time>
</trkpt>
<trkpt lat="47.803543" lon="11.120678">
<ele>566.958</ele>
<time>2022-05-27T11:23:45Z</time>
</trkpt>
<trkpt lat="47.803509" lon="11.120678">
<ele>567.091</ele>
<time>2022-05-27T11:23:46Z</time>
</trkpt>
<trkpt lat="47.803471" lon="11.120682">
<ele>567.429</ele>
<time>2022-05-27T11:23:47Z</time>
</trkpt>
<trkpt lat="47.803429" lon="11.120684">
<ele>567.676</ele>
<time>2022-05-27T11:23:49Z</time>
</trkpt>
<trkpt lat="47.803352" lon="11.120692">
<ele>568.077</ele>
<time>2022-05-27T11:23:50Z</time>
</trkpt>
<trkpt lat="47.803314" lon="11.120703">
<ele>568.183</ele>
<time>2022-05-27T11:23:52Z</time>
</trkpt>
<trkpt lat="47.803211" lon="11.120729">
<ele>568.308</ele>
<time>2022-05-27T11:23:53Z</time>
</trkpt>
<trkpt lat="47.803146" lon="11.120743">
<ele>568.33</ele>
<time>2022-05-27T11:23:55Z</time>
</trkpt>
<trkpt lat="47.803005" lon="11.120767">
<ele>568.026</ele>
<time>2022-05-27T11:23:56Z</time>
</trkpt>
<trkpt lat="47.802929" lon="11.120773">
<ele>567.796</ele>
<time>2022-05-27T11:23:57Z</time>
</trkpt>
<trkpt lat="47.802856" lon="11.120773">
<ele>567.664</ele>
<time>2022-05-27T11:23:58Z</time>
</trkpt>
<trkpt lat="47.802784" lon="11.120771">
<ele>567.523</ele>
<time>2022-05-27T11:23:59Z</time>
</trkpt>
<trkpt lat="47.802704" lon="11.120775">
<ele>567.434</ele>
<time>2022-05-27T11:24:00Z</time>
</trkpt>
<trkpt lat="47.802628" lon="11.120782">
<ele>567.267</ele>
<time>2022-05-27T11:24:01Z</time>
</trkpt>
<trkpt lat="47.802559" lon="11.120792">
<ele>567.146</ele>
<time>2022-05-27T11:24:02Z</time>
</trkpt>
<trkpt lat="47.80249" lon="11.120795">
<ele>566.931</ele>
<time>2022-05-27T11:24:03Z</time>
</trkpt>
<trkpt lat="47.802425" lon="11.120797">
<ele>566.625</ele>
<time>2022-05-27T11:24:04Z</time>
</trkpt>
<trkpt lat="47.802364" lon="11.120797">
<ele>566.683</ele>
<time>2022-05-27T11:24:06Z</time>
</trkpt>
<trkpt lat="47.802258" lon="11.120785">
<ele>566.799</ele>
<time>2022-05-27T11:24:07Z</time>
</trkpt>
<trkpt lat="47.802208" lon="11.120782">
<ele>566.848</ele>
<time>2022-05-27T11:24:08Z</time>
</trkpt>
<trkpt lat="47.802151" lon="11.120787">
<ele>566.877</ele>
<time>2022-05-27T11:24:09Z</time>
</trkpt>
<trkpt lat="47.802097" lon="11.12079">
<ele>566.922</ele>
<time>2022-05-27T11:24:10Z</time>
</trkpt>
<trkpt lat="47.80204" lon="11.120789">
<ele>566.958</ele>
<time>2022-05-27T11:24:11Z</time>
</trkpt>
<trkpt lat="47.801987" lon="11.120799">
<ele>566.99</ele>
<time>2022-05-27T11:24:12Z</time>
</trkpt>
<trkpt lat="47.801933" lon="11.120805">
<ele>567.02</ele>
<time>2022-05-27T11:24:13Z</time>
</trkpt>
<trkpt lat="47.801884" lon="11.120805">
<ele>567.02</ele>
<time>2022-05-27T11:24:14Z</time>
</trkpt>
<trkpt lat="47.801834" lon="11.120815">
<ele>567.02</ele>
<time>2022-05-27T11:24:15Z</time>
</trkpt>
<trkpt lat="47.801788" lon="11.120815">
<ele>567.02</ele>
<time>2022-05-27T11:24:16Z</time>
</trkpt>
<trkpt lat="47.801746" lon="11.120811">
<ele>567.02</ele>
<time>2022-05-27T11:24:17Z</time>
</trkpt>
<trkpt lat="47.801704" lon="11.120813">
<ele>567.02</ele>
<time>2022-05-27T11:24:18Z</time>
</trkpt>
<trkpt lat="47.801662" lon="11.120811">
<ele>567.02</ele>
<time>2022-05-27T11:24:19Z</time>
</trkpt>
<trkpt lat="47.801613" lon="11.120811">
<ele>567.02</ele>
<time>2022-05-27T11:24:20Z</time>
</trkpt>
<trkpt lat="47.801559" lon="11.12081">
<ele>567.02</ele>
<time>2022-05-27T11:24:21Z</time>
</trkpt>
<trkpt lat="47.801506" lon="11.120805">
<ele>567.02</ele>
<time>2022-05-27T11:24:23Z</time>
</trkpt>
<trkpt lat="47.801384" lon="11.120811">
<ele>567.02</ele>
<time>2022-05-27T11:24:24Z</time>
</trkpt>
<trkpt lat="47.801323" lon="11.120809">
<ele>567.338</ele>
<time>2022-05-27T11:24:25Z</time>
</trkpt>
<trkpt lat="47.801266" lon="11.120809">
<ele>567.573</ele>
<time>2022-05-27T11:24:26Z</time>
</trkpt>
<trkpt lat="47.801208" lon="11.1208">
<ele>567.748</ele>
<time>2022-05-27T11:24:27Z</time>
</trkpt>
<trkpt lat="47.801151" lon="11.120795">
<ele>567.856</ele>
<time>2022-05-27T11:24:28Z</time>
</trkpt>
<trkpt lat="47.801098" lon="11.120787">
<ele>567.982</ele>
<time>2022-05-27T11:24:29Z</time>
</trkpt>
<trkpt lat="47.801041" lon="11.120782">
<ele>568.07</ele>
<time>2022-05-27T11:24:30Z</time>
</trkpt>
<trkpt lat="47.800991" lon="11.120776">
<ele>568.126</ele>
<time>2022-05-27T11:24:31Z</time>
</trkpt>
<trkpt lat="47.800941" lon="11.120768">
<ele>568.156</ele>
<time>2022-05-27T11:24:32Z</time>
</trkpt>
<trkpt lat="47.800888" lon="11.120765">
<ele>568.41</ele>
<time>2022-05-27T11:24:33Z</time>
</trkpt>
<trkpt lat="47.800835" lon="11.120764">
<ele>568.611</ele>
<time>2022-05-27T11:24:34Z</time>
</trkpt>
<trkpt lat="47.800785" lon="11.120762">
<ele>568.767</ele>
<time>2022-05-27T11:24:35Z</time>
</trkpt>
<trkpt lat="47.800739" lon="11.120757">
<ele>568.888</ele>
<time>2022-05-27T11:24:36Z</time>
</trkpt>
<trkpt lat="47.800682" lon="11.120753">
<ele>568.971</ele>
<time>2022-05-27T11:24:37Z</time>
</trkpt>
<trkpt lat="47.800632" lon="11.120742">
<ele>569.036</ele>
<time>2022-05-27T11:24:38Z</time>
</trkpt>
<trkpt lat="47.800583" lon="11.120729">
<ele>569.367</ele>
<time>2022-05-27T11:24:39Z</time>
</trkpt>
<trkpt lat="47.800533" lon="11.120722">
<ele>569.623</ele>
<time>2022-05-27T11:24:41Z</time>
</trkpt>
<trkpt lat="47.80043" lon="11.120694">
<ele>570.179</ele>
<time>2022-05-27T11:24:42Z</time>
</trkpt>
<trkpt lat="47.800377" lon="11.120678">
<ele>570.51</ele>
<time>2022-05-27T11:24:43Z</time>
</trkpt>
<trkpt lat="47.800323" lon="11.120662">
<ele>570.718</ele>
<time>2022-05-27T11:24:44Z</time>
</trkpt>
<trkpt lat="47.80027" lon="11.120646">
<ele>571.243</ele>
<time>2022-05-27T11:24:45Z</time>
</trkpt>
<trkpt lat="47.800217" lon="11.120635">
<ele>571.662</ele>
<time>2022-05-27T11:24:46Z</time>
</trkpt>
<trkpt lat="47.800167" lon="11.120628">
<ele>571.916</ele>
<time>2022-05-27T11:24:47Z</time>
</trkpt>
<trkpt lat="47.800117" lon="11.120622">
<ele>572.375</ele>
<time>2022-05-27T11:24:48Z</time>
</trkpt>
<trkpt lat="47.800083" lon="11.12061">
<ele>572.759</ele>
<time>2022-05-27T11:24:49Z</time>
</trkpt>
<trkpt lat="47.800041" lon="11.120596">
<ele>573.036</ele>
<time>2022-05-27T11:24:51Z</time>
</trkpt>
<trkpt lat="47.799969" lon="11.120579">
<ele>573.606</ele>
<time>2022-05-27T11:24:52Z</time>
</trkpt>
<trkpt lat="47.799938" lon="11.120572">
<ele>573.878</ele>
<time>2022-05-27T11:24:53Z</time>
</trkpt>
<trkpt lat="47.799904" lon="11.120564">
<ele>574.1</ele>
<time>2022-05-27T11:24:54Z</time>
</trkpt>
<trkpt lat="47.79987" lon="11.12056">
<ele>574.268</ele>
<time>2022-05-27T11:24:55Z</time>
</trkpt>
<trkpt lat="47.799839" lon="11.120554">
<ele>574.397</ele>
<time>2022-05-27T11:24:56Z</time>
</trkpt>
<trkpt lat="47.799809" lon="11.120547">
<ele>574.459</ele>
<time>2022-05-27T11:24:57Z</time>
</trkpt>
<trkpt lat="47.799778" lon="11.120542">
<ele>574.506</ele>
<time>2022-05-27T11:24:58Z</time>
</trkpt>
<trkpt lat="47.799744" lon="11.12054">
<ele>574.535</ele>
<time>2022-05-27T11:25:00Z</time>
</trkpt>
<trkpt lat="47.799667" lon="11.120535">
<ele>574.535</ele>
<time>2022-05-27T11:25:01Z</time>
</trkpt>
<trkpt lat="47.799633" lon="11.120531">
<ele>574.535</ele>
<time>2022-05-27T11:25:02Z</time>
</trkpt>
<trkpt lat="47.799595" lon="11.120533">
<ele>574.535</ele>
<time>2022-05-27T11:25:04Z</time>
</trkpt>
<trkpt lat="47.799526" lon="11.120542">
<ele>574.787</ele>
<time>2022-05-27T11:25:05Z</time>
</trkpt>
<trkpt lat="47.799492" lon="11.120547">
<ele>574.981</ele>
<time>2022-05-27T11:25:06Z</time>
</trkpt>
<trkpt lat="47.799454" lon="11.120552">
<ele>575.128</ele>
<time>2022-05-27T11:25:07Z</time>
</trkpt>
<trkpt lat="47.799419" lon="11.120556">
<ele>575.227</ele>
<time>2022-05-27T11:25:08Z</time>
</trkpt>
<trkpt lat="47.799385" lon="11.120558">
<ele>575.549</ele>
<time>2022-05-27T11:25:09Z</time>
</trkpt>
<trkpt lat="47.799351" lon="11.120558">
<ele>575.808</ele>
<time>2022-05-27T11:25:11Z</time>
</trkpt>
<trkpt lat="47.799286" lon="11.120558">
<ele>576.386</ele>
<time>2022-05-27T11:25:13Z</time>
</trkpt>
<trkpt lat="47.799217" lon="11.120556">
<ele>576.941</ele>
<time>2022-05-27T11:25:15Z</time>
</trkpt>
<trkpt lat="47.799149" lon="11.120554">
<ele>577.242</ele>
<time>2022-05-27T11:25:16Z</time>
</trkpt>
<trkpt lat="47.79911" lon="11.120548">
<ele>577.592</ele>
<time>2022-05-27T11:25:17Z</time>
</trkpt>
<trkpt lat="47.799076" lon="11.120543">
<ele>577.834</ele>
<time>2022-05-27T11:25:18Z</time>
</trkpt>
<trkpt lat="47.799038" lon="11.12054">
<ele>578.054</ele>
<time>2022-05-27T11:25:19Z</time>
</trkpt>
<trkpt lat="47.799" lon="11.120537">
<ele>578.204</ele>
<time>2022-05-27T11:25:20Z</time>
</trkpt>
<trkpt lat="47.798962" lon="11.120535">
<ele>578.317</ele>
<time>2022-05-27T11:25:22Z</time>
</trkpt>
<trkpt lat="47.798878" lon="11.120524">
<ele>578.447</ele>
<time>2022-05-27T11:25:23Z</time>
</trkpt>
<trkpt lat="47.79884" lon="11.120521">
<ele>578.47</ele>
<time>2022-05-27T11:25:24Z</time>
</trkpt>
<trkpt lat="47.798798" lon="11.120517">
<ele>578.47</ele>
<time>2022-05-27T11:25:25Z</time>
</trkpt>
<trkpt lat="47.798756" lon="11.120512">
<ele>578.47</ele>
<time>2022-05-27T11:25:26Z</time>
</trkpt>
<trkpt lat="47.798717" lon="11.120505">
<ele>578.47</ele>
<time>2022-05-27T11:25:27Z</time>
</trkpt>
<trkpt lat="47.798679" lon="11.120502">
<ele>578.47</ele>
<time>2022-05-27T11:25:28Z</time>
</trkpt>
<trkpt lat="47.798634" lon="11.120499">
<ele>578.47</ele>
<time>2022-05-27T11:25:29Z</time>
</trkpt>
<trkpt lat="47.798592" lon="11.120493">
<ele>578.787</ele>
<time>2022-05-27T11:25:30Z</time>
</trkpt>
<trkpt lat="47.798553" lon="11.12049">
<ele>579.026</ele>
<time>2022-05-27T11:25:31Z</time>
</trkpt>
<trkpt lat="47.798515" lon="11.120486">
<ele>579.177</ele>
<time>2022-05-27T11:25:32Z</time>
</trkpt>
<trkpt lat="47.798473" lon="11.120483">
<ele>579.699</ele>
<time>2022-05-27T11:25:33Z</time>
</trkpt>
<trkpt lat="47.798431" lon="11.120482">
<ele>580.097</ele>
<time>2022-05-27T11:25:34Z</time>
</trkpt>
<trkpt lat="47.798393" lon="11.120477">
<ele>580.388</ele>
<time>2022-05-27T11:25:35Z</time>
</trkpt>
<trkpt lat="47.798355" lon="11.12047">
<ele>580.579</ele>
<time>2022-05-27T11:25:36Z</time>
</trkpt>
<trkpt lat="47.798313" lon="11.120461">
<ele>580.71</ele>
<time>2022-05-27T11:25:37Z</time>
</trkpt>
<trkpt lat="47.798271" lon="11.120455">
<ele>580.8</ele>
<time>2022-05-27T11:25:38Z</time>
</trkpt>
<trkpt lat="47.798225" lon="11.12045">
<ele>580.881</ele>
<time>2022-05-27T11:25:40Z</time>
</trkpt>
<trkpt lat="47.798138" lon="11.120439">
<ele>580.919</ele>
<time>2022-05-27T11:25:41Z</time>
</trkpt>
<trkpt lat="47.798096" lon="11.120432">
<ele>580.919</ele>
<time>2022-05-27T11:25:43Z</time>
</trkpt>
<trkpt lat="47.798046" lon="11.120428">
<ele>580.919</ele>
<time>2022-05-27T11:25:44Z</time>
</trkpt>
<trkpt lat="47.797955" lon="11.120421">
<ele>580.919</ele>
<time>2022-05-27T11:25:46Z</time>
</trkpt>
<trkpt lat="47.797913" lon="11.120416">
<ele>580.919</ele>
<time>2022-05-27T11:25:47Z</time>
</trkpt>
<trkpt lat="47.797825" lon="11.120403">
<ele>580.919</ele>
<time>2022-05-27T11:25:48Z</time>
</trkpt>
<trkpt lat="47.797783" lon="11.120397">
<ele>580.919</ele>
<time>2022-05-27T11:25:49Z</time>
</trkpt>
<trkpt lat="47.797737" lon="11.120388">
<ele>580.919</ele>
<time>2022-05-27T11:25:50Z</time>
</trkpt>
<trkpt lat="47.797695" lon="11.120386">
<ele>580.919</ele>
<time>2022-05-27T11:25:52Z</time>
</trkpt>
<trkpt lat="47.797649" lon="11.120383">
<ele>581.212</ele>
<time>2022-05-27T11:25:53Z</time>
</trkpt>
<trkpt lat="47.797565" lon="11.120377">
<ele>581.619</ele>
<time>2022-05-27T11:25:54Z</time>
</trkpt>
<trkpt lat="47.797523" lon="11.120368">
<ele>581.747</ele>
<time>2022-05-27T11:25:55Z</time>
</trkpt>
<trkpt lat="47.797482" lon="11.120365">
<ele>581.818</ele>
<time>2022-05-27T11:25:56Z</time>
</trkpt>
<trkpt lat="47.79744" lon="11.120361">
<ele>582.156</ele>
<time>2022-05-27T11:25:57Z</time>
</trkpt>
<trkpt lat="47.797394" lon="11.120357">
<ele>582.407</ele>
<time>2022-05-27T11:25:58Z</time>
</trkpt>
<trkpt lat="47.797348" lon="11.120353">
<ele>582.644</ele>
<time>2022-05-27T11:25:59Z</time>
</trkpt>
<trkpt lat="47.797302" lon="11.12035">
<ele>582.807</ele>
<time>2022-05-27T11:26:00Z</time>
</trkpt>
<trkpt lat="47.79726" lon="11.120348">
<ele>582.917</ele>
<time>2022-05-27T11:26:01Z</time>
</trkpt>
<trkpt lat="47.797215" lon="11.120353">
<ele>583.231</ele>
<time>2022-05-27T11:26:02Z</time>
</trkpt>
<trkpt lat="47.797169" lon="11.120357">
<ele>583.475</ele>
<time>2022-05-27T11:26:04Z</time>
</trkpt>
<trkpt lat="47.797081" lon="11.120368">
<ele>583.793</ele>
<time>2022-05-27T11:26:05Z</time>
</trkpt>
<trkpt lat="47.797035" lon="11.120376">
<ele>583.85</ele>
<time>2022-05-27T11:26:06Z</time>
</trkpt>
<trkpt lat="47.796993" lon="11.12038">
<ele>584.14</ele>
<time>2022-05-27T11:26:07Z</time>
</trkpt>
<trkpt lat="47.796951" lon="11.120386">
<ele>584.356</ele>
<time>2022-05-27T11:26:08Z</time>
</trkpt>
<trkpt lat="47.796909" lon="11.120392">
<ele>584.551</ele>
<time>2022-05-27T11:26:09Z</time>
</trkpt>
<trkpt lat="47.796871" lon="11.120397">
<ele>584.683</ele>
<time>2022-05-27T11:26:10Z</time>
</trkpt>
<trkpt lat="47.796829" lon="11.120403">
<ele>584.79</ele>
<time>2022-05-27T11:26:11Z</time>
</trkpt>
<trkpt lat="47.796791" lon="11.120407">
<ele>584.867</ele>
<time>2022-05-27T11:26:13Z</time>
</trkpt>
<trkpt lat="47.796722" lon="11.120412">
<ele>585.17</ele>
<time>2022-05-27T11:26:14Z</time>
</trkpt>
<trkpt lat="47.796684" lon="11.120412">
<ele>585.384</ele>
<time>2022-05-27T11:26:15Z</time>
</trkpt>
<trkpt lat="47.79665" lon="11.12041">
<ele>585.537</ele>
<time>2022-05-27T11:26:16Z</time>
</trkpt>
<trkpt lat="47.796612" lon="11.120405">
<ele>585.656</ele>
<time>2022-05-27T11:26:17Z</time>
</trkpt>
<trkpt lat="47.796574" lon="11.1204">
<ele>585.741</ele>
<time>2022-05-27T11:26:19Z</time>
</trkpt>
<trkpt lat="47.796497" lon="11.120377">
<ele>585.88</ele>
<time>2022-05-27T11:26:20Z</time>
</trkpt>
<trkpt lat="47.796459" lon="11.120361">
<ele>585.906</ele>
<time>2022-05-27T11:26:21Z</time>
</trkpt>
<trkpt lat="47.796417" lon="11.120344">
<ele>585.906</ele>
<time>2022-05-27T11:26:22Z</time>
</trkpt>
<trkpt lat="47.796375" lon="11.120325">
<ele>585.611</ele>
<time>2022-05-27T11:26:23Z</time>
</trkpt>
<trkpt lat="47.796329" lon="11.120307">
<ele>585.417</ele>
<time>2022-05-27T11:26:25Z</time>
</trkpt>
<trkpt lat="47.796234" lon="11.120262">
<ele>584.686</ele>
<time>2022-05-27T11:26:26Z</time>
</trkpt>
<trkpt lat="47.796185" lon="11.120237">
<ele>584.197</ele>
<time>2022-05-27T11:26:27Z</time>
</trkpt>
<trkpt lat="47.796139" lon="11.12021">
<ele>583.569</ele>
<time>2022-05-27T11:26:29Z</time>
</trkpt>
<trkpt lat="47.796043" lon="11.120162">
<ele>582.558</ele>
<time>2022-05-27T11:26:30Z</time>
</trkpt>
<trkpt lat="47.795998" lon="11.120141">
<ele>581.994</ele>
<time>2022-05-27T11:26:32Z</time>
</trkpt>
<trkpt lat="47.795902" lon="11.120097">
<ele>581.066</ele>
<time>2022-05-27T11:26:33Z</time>
</trkpt>
<trkpt lat="47.795853" lon="11.120078">
<ele>580.652</ele>
<time>2022-05-27T11:26:34Z</time>
</trkpt>
<trkpt lat="47.795807" lon="11.120064">
<ele>580.361</ele>
<time>2022-05-27T11:26:36Z</time>
</trkpt>
<trkpt lat="47.795757" lon="11.120057">
<ele>580.193</ele>
<time>2022-05-27T11:26:37Z</time>
</trkpt>
<trkpt lat="47.795662" lon="11.120057">
<ele>579.543</ele>
<time>2022-05-27T11:26:39Z</time>
</trkpt>
<trkpt lat="47.79562" lon="11.120055">
<ele>579.118</ele>
<time>2022-05-27T11:26:40Z</time>
</trkpt>
<trkpt lat="47.795517" lon="11.120066">
<ele>578.274</ele>
<time>2022-05-27T11:26:41Z</time>
</trkpt>
<trkpt lat="47.795456" lon="11.120082">
<ele>577.825</ele>
<time>2022-05-27T11:26:43Z</time>
</trkpt>
<trkpt lat="47.795395" lon="11.120102">
<ele>577.476</ele>
<time>2022-05-27T11:26:44Z</time>
</trkpt>
<trkpt lat="47.795254" lon="11.120135">
<ele>576.827</ele>
<time>2022-05-27T11:26:46Z</time>
</trkpt>
<trkpt lat="47.795109" lon="11.120173">
<ele>576.323</ele>
<time>2022-05-27T11:26:48Z</time>
</trkpt>
<trkpt lat="47.794991" lon="11.120207">
<ele>575.568</ele>
<time>2022-05-27T11:26:50Z</time>
</trkpt>
<trkpt lat="47.794933" lon="11.12022">
<ele>575.311</ele>
<time>2022-05-27T11:26:51Z</time>
</trkpt>
<trkpt lat="47.794838" lon="11.120248">
<ele>574.979</ele>
<time>2022-05-27T11:26:52Z</time>
</trkpt>
<trkpt lat="47.794788" lon="11.12026">
<ele>574.891</ele>
<time>2022-05-27T11:26:53Z</time>
</trkpt>
<trkpt lat="47.794743" lon="11.120274">
<ele>574.829</ele>
<time>2022-05-27T11:26:54Z</time>
</trkpt>
<trkpt lat="47.794704" lon="11.120285">
<ele>574.797</ele>
<time>2022-05-27T11:26:55Z</time>
</trkpt>
<trkpt lat="47.794662" lon="11.120298">
<ele>574.797</ele>
<time>2022-05-27T11:26:56Z</time>
</trkpt>
<trkpt lat="47.794624" lon="11.120317">
<ele>574.797</ele>
<time>2022-05-27T11:26:57Z</time>
</trkpt>
<trkpt lat="47.794598" lon="11.120344">
<ele>574.797</ele>
<time>2022-05-27T11:26:58Z</time>
</trkpt>
<trkpt lat="47.794575" lon="11.120386">
<ele>574.797</ele>
<time>2022-05-27T11:26:59Z</time>
</trkpt>
<trkpt lat="47.794559" lon="11.120437">
<ele>574.531</ele>
<time>2022-05-27T11:27:01Z</time>
</trkpt>
<trkpt lat="47.794529" lon="11.120528">
<ele>574.146</ele>
<time>2022-05-27T11:27:02Z</time>
</trkpt>
<trkpt lat="47.79451" lon="11.120568">
<ele>574.016</ele>
<time>2022-05-27T11:27:03Z</time>
</trkpt>
<trkpt lat="47.794491" lon="11.1206">
<ele>574.12</ele>
<time>2022-05-27T11:27:04Z</time>
</trkpt>
<trkpt lat="47.794464" lon="11.120622">
<ele>574.228</ele>
<time>2022-05-27T11:27:05Z</time>
</trkpt>
<trkpt lat="47.794437" lon="11.120633">
<ele>574.328</ele>
<time>2022-05-27T11:27:06Z</time>
</trkpt>
<trkpt lat="47.794407" lon="11.120637">
<ele>574.418</ele>
<time>2022-05-27T11:27:07Z</time>
</trkpt>
<trkpt lat="47.794373" lon="11.120637">
<ele>574.454</ele>
<time>2022-05-27T11:27:08Z</time>
</trkpt>
<trkpt lat="47.794342" lon="11.120633">
<ele>574.561</ele>
<time>2022-05-27T11:27:09Z</time>
</trkpt>
<trkpt lat="47.794304" lon="11.120625">
<ele>574.64</ele>
<time>2022-05-27T11:27:11Z</time>
</trkpt>
<trkpt lat="47.794231" lon="11.120613">
<ele>575.021</ele>
<time>2022-05-27T11:27:12Z</time>
</trkpt>
<trkpt lat="47.794193" lon="11.120605">
<ele>575.343</ele>
<time>2022-05-27T11:27:13Z</time>
</trkpt>
<trkpt lat="47.794155" lon="11.120596">
<ele>575.54</ele>
<time>2022-05-27T11:27:15Z</time>
</trkpt>
<trkpt lat="47.794075" lon="11.120585">
<ele>575.769</ele>
<time>2022-05-27T11:27:16Z</time>
</trkpt>
<trkpt lat="47.794025" lon="11.120588">
<ele>576.089</ele>
<time>2022-05-27T11:27:18Z</time>
</trkpt>
<trkpt lat="47.793934" lon="11.120602">
<ele>576.512</ele>
<time>2022-05-27T11:27:19Z</time>
</trkpt>
<trkpt lat="47.793888" lon="11.120605">
<ele>576.929</ele>
<time>2022-05-27T11:27:20Z</time>
</trkpt>
<trkpt lat="47.793839" lon="11.120608">
<ele>577.545</ele>
<time>2022-05-27T11:27:22Z</time>
</trkpt>
<trkpt lat="47.793758" lon="11.120604">
<ele>578.338</ele>
<time>2022-05-27T11:27:24Z</time>
</trkpt>
<trkpt lat="47.793728" lon="11.120602">
<ele>578.892</ele>
<time>2022-05-27T11:27:25Z</time>
</trkpt>
<trkpt lat="47.793663" lon="11.120598">
<ele>579.713</ele>
<time>2022-05-27T11:27:26Z</time>
</trkpt>
<trkpt lat="47.793625" lon="11.120606">
<ele>579.877</ele>
<time>2022-05-27T11:27:27Z</time>
</trkpt>
<trkpt lat="47.793583" lon="11.120617">
<ele>580.005</ele>
<time>2022-05-27T11:27:28Z</time>
</trkpt>
<trkpt lat="47.793545" lon="11.120633">
<ele>580.11</ele>
<time>2022-05-27T11:27:29Z</time>
</trkpt>
<trkpt lat="47.793507" lon="11.120646">
<ele>580.183</ele>
<time>2022-05-27T11:27:30Z</time>
</trkpt>
<trkpt lat="47.793468" lon="11.12066">
<ele>580.219</ele>
<time>2022-05-27T11:27:31Z</time>
</trkpt>
<trkpt lat="47.793427" lon="11.120682">
<ele>580.219</ele>
<time>2022-05-27T11:27:32Z</time>
</trkpt>
<trkpt lat="47.793381" lon="11.120703">
<ele>580.219</ele>
<time>2022-05-27T11:27:33Z</time>
</trkpt>
<trkpt lat="47.793343" lon="11.120715">
<ele>580.219</ele>
<time>2022-05-27T11:27:35Z</time>
</trkpt>
<trkpt lat="47.793308" lon="11.120731">
<ele>580.219</ele>
<time>2022-05-27T11:27:36Z</time>
</trkpt>
<trkpt lat="47.793228" lon="11.120767">
<ele>580.219</ele>
<time>2022-05-27T11:27:37Z</time>
</trkpt>
<trkpt lat="47.793186" lon="11.120782">
<ele>580.219</ele>
<time>2022-05-27T11:27:38Z</time>
</trkpt>
<trkpt lat="47.793148" lon="11.120793">
<ele>580.449</ele>
<time>2022-05-27T11:27:39Z</time>
</trkpt>
<trkpt lat="47.79311" lon="11.120809">
<ele>580.644</ele>
<time>2022-05-27T11:27:40Z</time>
</trkpt>
<trkpt lat="47.793064" lon="11.120818">
<ele>580.809</ele>
<time>2022-05-27T11:27:41Z</time>
</trkpt>
<trkpt lat="47.793022" lon="11.120818">
<ele>580.946</ele>
<time>2022-05-27T11:27:43Z</time>
</trkpt>
<trkpt lat="47.792992" lon="11.120799">
<ele>581.043</ele>
<time>2022-05-27T11:27:44Z</time>
</trkpt>
<trkpt lat="47.792923" lon="11.120782">
<ele>581.155</ele>
<time>2022-05-27T11:27:45Z</time>
</trkpt>
<trkpt lat="47.792885" lon="11.120775">
<ele>581.407</ele>
<time>2022-05-27T11:27:46Z</time>
</trkpt>
<trkpt lat="47.792847" lon="11.120771">
<ele>581.601</ele>
<time>2022-05-27T11:27:47Z</time>
</trkpt>
<trkpt lat="47.792812" lon="11.120773">
<ele>581.727</ele>
<time>2022-05-27T11:27:48Z</time>
</trkpt>
<trkpt lat="47.792774" lon="11.120776">
<ele>582.099</ele>
<time>2022-05-27T11:27:49Z</time>
</trkpt>
<trkpt lat="47.79274" lon="11.120782">
<ele>582.419</ele>
<time>2022-05-27T11:27:50Z</time>
</trkpt>
<trkpt lat="47.792702" lon="11.120789">
<ele>582.675</ele>
<time>2022-05-27T11:27:51Z</time>
</trkpt>
<trkpt lat="47.792671" lon="11.1208">
<ele>582.819</ele>
<time>2022-05-27T11:27:52Z</time>
</trkpt>
<trkpt lat="47.792641" lon="11.120815">
<ele>583.158</ele>
<time>2022-05-27T11:27:54Z</time>
</trkpt>
<trkpt lat="47.792618" lon="11.120831">
<ele>583.407</ele>
<time>2022-05-27T11:27:55Z</time>
</trkpt>
<trkpt lat="47.792591" lon="11.120849">
<ele>583.601</ele>
<time>2022-05-27T11:27:56Z</time>
</trkpt>
<trkpt lat="47.792545" lon="11.120892">
<ele>584.046</ele>
<time>2022-05-27T11:27:57Z</time>
</trkpt>
<trkpt lat="47.792519" lon="11.120916">
<ele>584.286</ele>
<time>2022-05-27T11:27:59Z</time>
</trkpt>
<trkpt lat="47.792461" lon="11.120971">
<ele>584.668</ele>
<time>2022-05-27T11:28:00Z</time>
</trkpt>
<trkpt lat="47.792427" lon="11.121">
<ele>585.055</ele>
<time>2022-05-27T11:28:02Z</time>
</trkpt>
<trkpt lat="47.792374" lon="11.121063">
<ele>585.594</ele>
<time>2022-05-27T11:28:03Z</time>
</trkpt>
<trkpt lat="47.792347" lon="11.121097">
<ele>585.723</ele>
<time>2022-05-27T11:28:05Z</time>
</trkpt>
<trkpt lat="47.792286" lon="11.121161">
<ele>586.387</ele>
<time>2022-05-27T11:28:07Z</time>
</trkpt>
<trkpt lat="47.792229" lon="11.121232">
<ele>586.69</ele>
<time>2022-05-27T11:28:08Z</time>
</trkpt>
<trkpt lat="47.792202" lon="11.121268">
<ele>586.801</ele>
<time>2022-05-27T11:28:09Z</time>
</trkpt>
<trkpt lat="47.792171" lon="11.121305">
<ele>586.883</ele>
<time>2022-05-27T11:28:10Z</time>
</trkpt>
<trkpt lat="47.792141" lon="11.121342">
<ele>586.931</ele>
<time>2022-05-27T11:28:12Z</time>
</trkpt>
<trkpt lat="47.792076" lon="11.12142">
<ele>587.398</ele>
<time>2022-05-27T11:28:13Z</time>
</trkpt>
<trkpt lat="47.792046" lon="11.121459">
<ele>587.549</ele>
<time>2022-05-27T11:28:14Z</time>
</trkpt>
<trkpt lat="47.792011" lon="11.121496">
<ele>587.654</ele>
<time>2022-05-27T11:28:15Z</time>
</trkpt>
<trkpt lat="47.791981" lon="11.121534">
<ele>587.723</ele>
<time>2022-05-27T11:28:16Z</time>
</trkpt>
<trkpt lat="47.79195" lon="11.121578">
<ele>587.772</ele>
<time>2022-05-27T11:28:17Z</time>
</trkpt>
<trkpt lat="47.791924" lon="11.121622">
<ele>587.809</ele>
<time>2022-05-27T11:28:18Z</time>
</trkpt>
<trkpt lat="47.791897" lon="11.121658">
<ele>587.832</ele>
<time>2022-05-27T11:28:19Z</time>
</trkpt>
<trkpt lat="47.79187" lon="11.1217">
<ele>587.832</ele>
<time>2022-05-27T11:28:21Z</time>
</trkpt>
<trkpt lat="47.791809" lon="11.121795">
<ele>587.588</ele>
<time>2022-05-27T11:28:22Z</time>
</trkpt>
<trkpt lat="47.791786" lon="11.121839">
<ele>587.397</ele>
<time>2022-05-27T11:28:23Z</time>
</trkpt>
<trkpt lat="47.791763" lon="11.12188">
<ele>587.249</ele>
<time>2022-05-27T11:28:24Z</time>
</trkpt>
<trkpt lat="47.791737" lon="11.12192">
<ele>587.144</ele>
<time>2022-05-27T11:28:25Z</time>
</trkpt>
<trkpt lat="47.791706" lon="11.121962">
<ele>587.063</ele>
<time>2022-05-27T11:28:26Z</time>
</trkpt>
<trkpt lat="47.791676" lon="11.122005">
<ele>587.015</ele>
<time>2022-05-27T11:28:27Z</time>
</trkpt>
<trkpt lat="47.791649" lon="11.122052">
<ele>586.979</ele>
<time>2022-05-27T11:28:28Z</time>
</trkpt>
<trkpt lat="47.791618" lon="11.122105">
<ele>586.956</ele>
<time>2022-05-27T11:28:29Z</time>
</trkpt>
<trkpt lat="47.79158" lon="11.122165">
<ele>586.956</ele>
<time>2022-05-27T11:28:30Z</time>
</trkpt>
<trkpt lat="47.791542" lon="11.122222">
<ele>586.655</ele>
<time>2022-05-27T11:28:32Z</time>
</trkpt>
<trkpt lat="47.791454" lon="11.122338">
<ele>586</ele>
<time>2022-05-27T11:28:33Z</time>
</trkpt>
<trkpt lat="47.791405" lon="11.122405">
<ele>585.724</ele>
<time>2022-05-27T11:28:34Z</time>
</trkpt>
<trkpt lat="47.791359" lon="11.122477">
<ele>585.198</ele>
<time>2022-05-27T11:28:35Z</time>
</trkpt>
<trkpt lat="47.791313" lon="11.122555">
<ele>584.823</ele>
<time>2022-05-27T11:28:37Z</time>
</trkpt>
<trkpt lat="47.791237" lon="11.122707">
<ele>584.174</ele>
<time>2022-05-27T11:28:38Z</time>
</trkpt>
<trkpt lat="47.791195" lon="11.122787">
<ele>583.807</ele>
<time>2022-05-27T11:28:39Z</time>
</trkpt>
<trkpt lat="47.791153" lon="11.122865">
<ele>583.545</ele>
<time>2022-05-27T11:28:41Z</time>
</trkpt>
<trkpt lat="47.791054" lon="11.123028">
<ele>583.251</ele>
<time>2022-05-27T11:28:42Z</time>
</trkpt>
<trkpt lat="47.791004" lon="11.123103">
<ele>583.176</ele>
<time>2022-05-27T11:28:43Z</time>
</trkpt>
<trkpt lat="47.790951" lon="11.123178">
<ele>583.129</ele>
<time>2022-05-27T11:28:45Z</time>
</trkpt>
<trkpt lat="47.790909" lon="11.123245">
<ele>583.106</ele>
<time>2022-05-27T11:28:46Z</time>
</trkpt>
<trkpt lat="47.79084" lon="11.12337">
<ele>583.106</ele>
<time>2022-05-27T11:28:47Z</time>
</trkpt>
<trkpt lat="47.790802" lon="11.123432">
<ele>583.106</ele>
<time>2022-05-27T11:28:48Z</time>
</trkpt>
<trkpt lat="47.790768" lon="11.123491">
<ele>583.106</ele>
<time>2022-05-27T11:28:49Z</time>
</trkpt>
<trkpt lat="47.790733" lon="11.123551">
<ele>583.106</ele>
<time>2022-05-27T11:28:50Z</time>
</trkpt>
<trkpt lat="47.790707" lon="11.123609">
<ele>583.106</ele>
<time>2022-05-27T11:28:51Z</time>
</trkpt>
<trkpt lat="47.790684" lon="11.123658">
<ele>583.106</ele>
<time>2022-05-27T11:28:53Z</time>
</trkpt>
<trkpt lat="47.790634" lon="11.123752">
<ele>583.106</ele>
<time>2022-05-27T11:28:54Z</time>
</trkpt>
<trkpt lat="47.790611" lon="11.123795">
<ele>583.106</ele>
<time>2022-05-27T11:28:56Z</time>
</trkpt>
<trkpt lat="47.790565" lon="11.123877">
<ele>583.106</ele>
<time>2022-05-27T11:28:57Z</time>
</trkpt>
<trkpt lat="47.790543" lon="11.123919">
<ele>583.106</ele>
<time>2022-05-27T11:28:58Z</time>
</trkpt>
<trkpt lat="47.79052" lon="11.123957">
<ele>583.106</ele>
<time>2022-05-27T11:28:59Z</time>
</trkpt>
<trkpt lat="47.790497" lon="11.124006">
<ele>583.106</ele>
<time>2022-05-27T11:29:01Z</time>
</trkpt>
<trkpt lat="47.790436" lon="11.124109">
<ele>583.106</ele>
<time>2022-05-27T11:29:03Z</time>
</trkpt>
<trkpt lat="47.790401" lon="11.124164">
<ele>583.106</ele>
<time>2022-05-27T11:29:04Z</time>
</trkpt>
<trkpt lat="47.790363" lon="11.124222">
<ele>583.106</ele>
<time>2022-05-27T11:29:05Z</time>
</trkpt>
<trkpt lat="47.790283" lon="11.124325">
<ele>583.106</ele>
<time>2022-05-27T11:29:06Z</time>
</trkpt>
<trkpt lat="47.790245" lon="11.124378">
<ele>583.106</ele>
<time>2022-05-27T11:29:08Z</time>
</trkpt>
<trkpt lat="47.790165" lon="11.124482">
<ele>583.106</ele>
<time>2022-05-27T11:29:09Z</time>
</trkpt>
<trkpt lat="47.790123" lon="11.124533">
<ele>583.106</ele>
<time>2022-05-27T11:29:11Z</time>
</trkpt>
<trkpt lat="47.790035" lon="11.124643">
<ele>583.106</ele>
<time>2022-05-27T11:29:12Z</time>
</trkpt>
<trkpt lat="47.789986" lon="11.1247">
<ele>583.106</ele>
<time>2022-05-27T11:29:13Z</time>
</trkpt>
<trkpt lat="47.789944" lon="11.124757">
<ele>583.106</ele>
<time>2022-05-27T11:29:14Z</time>
</trkpt>
<trkpt lat="47.789902" lon="11.12481">
<ele>583.106</ele>
<time>2022-05-27T11:29:15Z</time>
</trkpt>
<trkpt lat="47.789864" lon="11.124862">
<ele>583.106</ele>
<time>2022-05-27T11:29:16Z</time>
</trkpt>
<trkpt lat="47.789822" lon="11.124907">
<ele>583.106</ele>
<time>2022-05-27T11:29:17Z</time>
</trkpt>
<trkpt lat="47.789783" lon="11.124958">
<ele>583.106</ele>
<time>2022-05-27T11:29:18Z</time>
</trkpt>
<trkpt lat="47.789742" lon="11.125014">
<ele>583.106</ele>
<time>2022-05-27T11:29:19Z</time>
</trkpt>
<trkpt lat="47.789703" lon="11.125067">
<ele>582.826</ele>
<time>2022-05-27T11:29:20Z</time>
</trkpt>
<trkpt lat="47.789669" lon="11.12512">
<ele>582.608</ele>
<time>2022-05-27T11:29:21Z</time>
</trkpt>
<trkpt lat="47.789631" lon="11.125178">
<ele>582.433</ele>
<time>2022-05-27T11:29:22Z</time>
</trkpt>
<trkpt lat="47.789589" lon="11.125235">
<ele>582.309</ele>
<time>2022-05-27T11:29:23Z</time>
</trkpt>
<trkpt lat="47.789551" lon="11.125289">
<ele>582.222</ele>
<time>2022-05-27T11:29:25Z</time>
</trkpt>
<trkpt lat="47.789474" lon="11.125395">
<ele>582.147</ele>
<time>2022-05-27T11:29:26Z</time>
</trkpt>
<trkpt lat="47.789433" lon="11.125448">
<ele>582.144</ele>
<time>2022-05-27T11:29:27Z</time>
</trkpt>
<trkpt lat="47.789387" lon="11.125498">
<ele>582.144</ele>
<time>2022-05-27T11:29:29Z</time>
</trkpt>
<trkpt lat="47.789295" lon="11.125603">
<ele>582.144</ele>
<time>2022-05-27T11:29:31Z</time>
</trkpt>
<trkpt lat="47.7892" lon="11.12571">
<ele>582.144</ele>
<time>2022-05-27T11:29:32Z</time>
</trkpt>
<trkpt lat="47.789158" lon="11.125764">
<ele>582.144</ele>
<time>2022-05-27T11:29:34Z</time>
</trkpt>
<trkpt lat="47.789116" lon="11.125816">
<ele>582.143</ele>
<time>2022-05-27T11:29:35Z</time>
</trkpt>
<trkpt lat="47.789032" lon="11.125923">
<ele>582.144</ele>
<time>2022-05-27T11:29:36Z</time>
</trkpt>
<trkpt lat="47.788994" lon="11.125977">
<ele>582.144</ele>
<time>2022-05-27T11:29:37Z</time>
</trkpt>
<trkpt lat="47.788956" lon="11.126026">
<ele>582.143</ele>
<time>2022-05-27T11:29:39Z</time>
</trkpt>
<trkpt lat="47.78891" lon="11.126079">
<ele>582.144</ele>
<time>2022-05-27T11:29:40Z</time>
</trkpt>
<trkpt lat="47.788826" lon="11.126194">
<ele>582.144</ele>
<time>2022-05-27T11:29:41Z</time>
</trkpt>
<trkpt lat="47.788784" lon="11.126248">
<ele>582.144</ele>
<time>2022-05-27T11:29:43Z</time>
</trkpt>
<trkpt lat="47.788746" lon="11.126299">
<ele>582.144</ele>
<time>2022-05-27T11:29:44Z</time>
</trkpt>
<trkpt lat="47.788708" lon="11.126347">
<ele>582.144</ele>
<time>2022-05-27T11:29:45Z</time>
</trkpt>
<trkpt lat="47.788673" lon="11.1264">
<ele>582.144</ele>
<time>2022-05-27T11:29:46Z</time>
</trkpt>
<trkpt lat="47.788589" lon="11.126512">
<ele>582.144</ele>
<time>2022-05-27T11:29:47Z</time>
</trkpt>
<trkpt lat="47.788551" lon="11.126567">
<ele>582.144</ele>
<time>2022-05-27T11:29:48Z</time>
</trkpt>
<trkpt lat="47.788513" lon="11.126618">
<ele>582.143</ele>
<time>2022-05-27T11:29:49Z</time>
</trkpt>
<trkpt lat="47.788475" lon="11.126668">
<ele>582.144</ele>
<time>2022-05-27T11:29:50Z</time>
</trkpt>
<trkpt lat="47.788433" lon="11.126719">
<ele>582.144</ele>
<time>2022-05-27T11:29:51Z</time>
</trkpt>
<trkpt lat="47.788387" lon="11.126772">
<ele>582.144</ele>
<time>2022-05-27T11:29:52Z</time>
</trkpt>
<trkpt lat="47.788349" lon="11.126824">
<ele>582.144</ele>
<time>2022-05-27T11:29:53Z</time>
</trkpt>
<trkpt lat="47.788315" lon="11.126879">
<ele>582.144</ele>
<time>2022-05-27T11:29:54Z</time>
</trkpt>
<trkpt lat="47.788284" lon="11.126925">
<ele>582.144</ele>
<time>2022-05-27T11:29:55Z</time>
</trkpt>
<trkpt lat="47.78825" lon="11.12697">
<ele>582.143</ele>
<time>2022-05-27T11:29:57Z</time>
</trkpt>
<trkpt lat="47.788189" lon="11.127057">
<ele>582.144</ele>
<time>2022-05-27T11:29:58Z</time>
</trkpt>
<trkpt lat="47.788166" lon="11.127107">
<ele>582.143</ele>
<time>2022-05-27T11:30:00Z</time>
</trkpt>
<trkpt lat="47.788101" lon="11.127214">
<ele>582.144</ele>
<time>2022-05-27T11:30:02Z</time>
</trkpt>
<trkpt lat="47.788036" lon="11.12732">
<ele>582.627</ele>
<time>2022-05-27T11:30:04Z</time>
</trkpt>
<trkpt lat="47.788006" lon="11.127374">
<ele>582.791</ele>
<time>2022-05-27T11:30:05Z</time>
</trkpt>
<trkpt lat="47.787956" lon="11.127477">
<ele>583.285</ele>
<time>2022-05-27T11:30:06Z</time>
</trkpt>
<trkpt lat="47.787926" lon="11.127528">
<ele>583.583</ele>
<time>2022-05-27T11:30:07Z</time>
</trkpt>
<trkpt lat="47.787895" lon="11.127577">
<ele>583.79</ele>
<time>2022-05-27T11:30:08Z</time>
</trkpt>
<trkpt lat="47.787868" lon="11.12763">
<ele>583.979</ele>
<time>2022-05-27T11:30:09Z</time>
</trkpt>
<trkpt lat="47.787838" lon="11.127668">
<ele>584.396</ele>
<time>2022-05-27T11:30:10Z</time>
</trkpt>
<trkpt lat="47.787823" lon="11.127705">
<ele>584.718</ele>
<time>2022-05-27T11:30:11Z</time>
</trkpt>
<trkpt lat="47.787796" lon="11.127735">
<ele>584.981</ele>
<time>2022-05-27T11:30:12Z</time>
</trkpt>
<trkpt lat="47.787777" lon="11.127771">
<ele>585.168</ele>
<time>2022-05-27T11:30:13Z</time>
</trkpt>
<trkpt lat="47.787762" lon="11.127811">
<ele>585.169</ele>
<time>2022-05-27T11:30:15Z</time>
</trkpt>
<trkpt lat="47.787716" lon="11.127897">
<ele>584.982</ele>
<time>2022-05-27T11:30:16Z</time>
</trkpt>
<trkpt lat="47.787693" lon="11.12792">
<ele>584.885</ele>
<time>2022-05-27T11:30:18Z</time>
</trkpt>
<trkpt lat="47.787643" lon="11.127969">
<ele>584.731</ele>
<time>2022-05-27T11:30:20Z</time>
</trkpt>
<trkpt lat="47.78759" lon="11.128038">
<ele>584.616</ele>
<time>2022-05-27T11:30:21Z</time>
</trkpt>
<trkpt lat="47.78756" lon="11.128072">
<ele>584.335</ele>
<time>2022-05-27T11:30:23Z</time>
</trkpt>
<trkpt lat="47.787537" lon="11.128119">
<ele>584.068</ele>
<time>2022-05-27T11:30:24Z</time>
</trkpt>
<trkpt lat="47.78751" lon="11.12817">
<ele>583.883</ele>
<time>2022-05-27T11:30:25Z</time>
</trkpt>
<trkpt lat="47.78746" lon="11.128277">
<ele>583.42</ele>
<time>2022-05-27T11:30:27Z</time>
</trkpt>
<trkpt lat="47.78743" lon="11.12832">
<ele>583.165</ele>
<time>2022-05-27T11:30:28Z</time>
</trkpt>
<trkpt lat="47.787392" lon="11.12835">
<ele>582.995</ele>
<time>2022-05-27T11:30:29Z</time>
</trkpt>
<trkpt lat="47.787323" lon="11.128402">
<ele>582.724</ele>
<time>2022-05-27T11:30:31Z</time>
</trkpt>
<trkpt lat="47.7873" lon="11.128435">
<ele>582.653</ele>
<time>2022-05-27T11:30:32Z</time>
</trkpt>
<trkpt lat="47.787247" lon="11.128518">
<ele>582.581</ele>
<time>2022-05-27T11:30:33Z</time>
</trkpt>
<trkpt lat="47.787224" lon="11.128559">
<ele>582.581</ele>
<time>2022-05-27T11:30:34Z</time>
</trkpt>
<trkpt lat="47.787197" lon="11.128607">
<ele>582.581</ele>
<time>2022-05-27T11:30:35Z</time>
</trkpt>
<trkpt lat="47.78717" lon="11.128654">
<ele>582.581</ele>
<time>2022-05-27T11:30:36Z</time>
</trkpt>
<trkpt lat="47.787151" lon="11.128698">
<ele>582.816</ele>
<time>2022-05-27T11:30:37Z</time>
</trkpt>
<trkpt lat="47.787136" lon="11.128743">
<ele>582.991</ele>
<time>2022-05-27T11:30:38Z</time>
</trkpt>
<trkpt lat="47.787117" lon="11.128783">
<ele>583.149</ele>
<time>2022-05-27T11:30:39Z</time>
</trkpt>
<trkpt lat="47.787098" lon="11.12882">
<ele>583.486</ele>
<time>2022-05-27T11:30:40Z</time>
</trkpt>
<trkpt lat="47.787079" lon="11.128853">
<ele>583.772</ele>
<time>2022-05-27T11:30:41Z</time>
</trkpt>
<trkpt lat="47.787064" lon="11.128883">
<ele>583.956</ele>
<time>2022-05-27T11:30:43Z</time>
</trkpt>
<trkpt lat="47.787033" lon="11.128934">
<ele>584.633</ele>
<time>2022-05-27T11:30:44Z</time>
</trkpt>
<trkpt lat="47.787014" lon="11.128962">
<ele>585.188</ele>
<time>2022-05-27T11:30:45Z</time>
</trkpt>
<trkpt lat="47.786995" lon="11.128986">
<ele>585.528</ele>
<time>2022-05-27T11:30:46Z</time>
</trkpt>
<trkpt lat="47.786976" lon="11.129012">
<ele>585.785</ele>
<time>2022-05-27T11:30:48Z</time>
</trkpt>
<trkpt lat="47.786942" lon="11.129066">
<ele>586.148</ele>
<time>2022-05-27T11:30:50Z</time>
</trkpt>
<trkpt lat="47.786903" lon="11.129125">
<ele>586.766</ele>
<time>2022-05-27T11:30:51Z</time>
</trkpt>
<trkpt lat="47.78688" lon="11.129156">
<ele>586.94</ele>
<time>2022-05-27T11:30:52Z</time>
</trkpt>
<trkpt lat="47.786854" lon="11.129189">
<ele>587.15</ele>
<time>2022-05-27T11:30:53Z</time>
</trkpt>
<trkpt lat="47.786827" lon="11.129231">
<ele>587.214</ele>
<time>2022-05-27T11:30:55Z</time>
</trkpt>
<trkpt lat="47.786785" lon="11.129303">
<ele>587.763</ele>
<time>2022-05-27T11:30:56Z</time>
</trkpt>
<trkpt lat="47.78677" lon="11.12934">
<ele>587.92</ele>
<time>2022-05-27T11:30:57Z</time>
</trkpt>
<trkpt lat="47.786747" lon="11.129382">
<ele>588.018</ele>
<time>2022-05-27T11:30:58Z</time>
</trkpt>
<trkpt lat="47.78672" lon="11.129439">
<ele>588.126</ele>
<time>2022-05-27T11:30:59Z</time>
</trkpt>
<trkpt lat="47.786697" lon="11.12951">
<ele>588.194</ele>
<time>2022-05-27T11:31:00Z</time>
</trkpt>
<trkpt lat="47.786678" lon="11.129573">
<ele>588.528</ele>
<time>2022-05-27T11:31:01Z</time>
</trkpt>
<trkpt lat="47.786663" lon="11.129632">
<ele>588.773</ele>
<time>2022-05-27T11:31:03Z</time>
</trkpt>
<trkpt lat="47.786644" lon="11.129744">
<ele>589.143</ele>
<time>2022-05-27T11:31:05Z</time>
</trkpt>
<trkpt lat="47.78664" lon="11.129798">
<ele>589.206</ele>
<time>2022-05-27T11:31:06Z</time>
</trkpt>
<trkpt lat="47.786633" lon="11.12991">
<ele>589.701</ele>
<time>2022-05-27T11:31:07Z</time>
</trkpt>
<trkpt lat="47.786633" lon="11.129963">
<ele>589.858</ele>
<time>2022-05-27T11:31:08Z</time>
</trkpt>
<trkpt lat="47.786633" lon="11.130015">
<ele>590.002</ele>
<time>2022-05-27T11:31:09Z</time>
</trkpt>
<trkpt lat="47.786636" lon="11.130065">
<ele>590.348</ele>
<time>2022-05-27T11:31:11Z</time>
</trkpt>
<trkpt lat="47.786644" lon="11.13016">
<ele>590.807</ele>
<time>2022-05-27T11:31:13Z</time>
</trkpt>
<trkpt lat="47.786652" lon="11.130257">
<ele>591.571</ele>
<time>2022-05-27T11:31:15Z</time>
</trkpt>
<trkpt lat="47.786655" lon="11.130301">
<ele>591.751</ele>
<time>2022-05-27T11:31:16Z</time>
</trkpt>
<trkpt lat="47.786674" lon="11.130382">
<ele>592.4</ele>
<time>2022-05-27T11:31:17Z</time>
</trkpt>
<trkpt lat="47.786686" lon="11.130418">
<ele>592.602</ele>
<time>2022-05-27T11:31:18Z</time>
</trkpt>
<trkpt lat="47.786701" lon="11.130455">
<ele>592.794</ele>
<time>2022-05-27T11:31:19Z</time>
</trkpt>
<trkpt lat="47.786716" lon="11.13049">
<ele>592.917</ele>
<time>2022-05-27T11:31:20Z</time>
</trkpt>
<trkpt lat="47.786728" lon="11.130522">
<ele>593.225</ele>
<time>2022-05-27T11:31:21Z</time>
</trkpt>
<trkpt lat="47.786739" lon="11.130555">
<ele>593.473</ele>
<time>2022-05-27T11:31:22Z</time>
</trkpt>
<trkpt lat="47.786751" lon="11.130587">
<ele>593.665</ele>
<time>2022-05-27T11:31:24Z</time>
</trkpt>
<trkpt lat="47.786751" lon="11.13065">
<ele>593.942</ele>
<time>2022-05-27T11:31:25Z</time>
</trkpt>
<trkpt lat="47.786747" lon="11.130675">
<ele>593.997</ele>
<time>2022-05-27T11:31:26Z</time>
</trkpt>
<trkpt lat="47.786732" lon="11.130694">
<ele>594.023</ele>
<time>2022-05-27T11:31:27Z</time>
</trkpt>
<trkpt lat="47.78672" lon="11.130717">
<ele>594.048</ele>
<time>2022-05-27T11:31:29Z</time>
</trkpt>
<trkpt lat="47.786678" lon="11.130767">
<ele>594.048</ele>
<time>2022-05-27T11:31:30Z</time>
</trkpt>
<trkpt lat="47.786652" lon="11.130792">
<ele>594.048</ele>
<time>2022-05-27T11:31:31Z</time>
</trkpt>
<trkpt lat="47.786617" lon="11.13082">
<ele>594.048</ele>
<time>2022-05-27T11:31:32Z</time>
</trkpt>
<trkpt lat="47.786575" lon="11.130856">
<ele>594.048</ele>
<time>2022-05-27T11:31:34Z</time>
</trkpt>
<trkpt lat="47.78653" lon="11.13089">
<ele>593.776</ele>
<time>2022-05-27T11:31:35Z</time>
</trkpt>
<trkpt lat="47.786427" lon="11.130966">
<ele>592.893</ele>
<time>2022-05-27T11:31:36Z</time>
</trkpt>
<trkpt lat="47.786373" lon="11.131004">
<ele>592.396</ele>
<time>2022-05-27T11:31:37Z</time>
</trkpt>
<trkpt lat="47.78632" lon="11.131042">
<ele>591.743</ele>
<time>2022-05-27T11:31:38Z</time>
</trkpt>
<trkpt lat="47.786259" lon="11.13108">
<ele>591.21</ele>
<time>2022-05-27T11:31:39Z</time>
</trkpt>
<trkpt lat="47.786198" lon="11.131117">
<ele>590.874</ele>
<time>2022-05-27T11:31:40Z</time>
</trkpt>
<trkpt lat="47.786129" lon="11.131153">
<ele>590.286</ele>
<time>2022-05-27T11:31:42Z</time>
</trkpt>
<trkpt lat="47.785992" lon="11.131233">
<ele>589.322</ele>
<time>2022-05-27T11:31:43Z</time>
</trkpt>
<trkpt lat="47.785923" lon="11.131276">
<ele>588.928</ele>
<time>2022-05-27T11:31:45Z</time>
</trkpt>
<trkpt lat="47.785854" lon="11.131323">
<ele>588.273</ele>
<time>2022-05-27T11:31:46Z</time>
</trkpt>
<trkpt lat="47.785793" lon="11.131371">
<ele>587.738</ele>
<time>2022-05-27T11:31:47Z</time>
</trkpt>
<trkpt lat="47.785675" lon="11.131463">
<ele>587.2</ele>
<time>2022-05-27T11:31:48Z</time>
</trkpt>
<trkpt lat="47.785618" lon="11.131509">
<ele>586.779</ele>
<time>2022-05-27T11:31:49Z</time>
</trkpt>
<trkpt lat="47.785564" lon="11.131555">
<ele>586.46</ele>
<time>2022-05-27T11:31:50Z</time>
</trkpt>
<trkpt lat="47.785503" lon="11.131605">
<ele>586.266</ele>
<time>2022-05-27T11:31:52Z</time>
</trkpt>
<trkpt lat="47.785381" lon="11.131706">
<ele>585.484</ele>
<time>2022-05-27T11:31:53Z</time>
</trkpt>
<trkpt lat="47.785316" lon="11.131746">
<ele>584.954</ele>
<time>2022-05-27T11:31:55Z</time>
</trkpt>
<trkpt lat="47.785175" lon="11.131808">
<ele>583.759</ele>
<time>2022-05-27T11:31:56Z</time>
</trkpt>
<trkpt lat="47.785107" lon="11.131827">
<ele>583.087</ele>
<time>2022-05-27T11:31:58Z</time>
</trkpt>
<trkpt lat="47.784985" lon="11.131864">
<ele>582.264</ele>
<time>2022-05-27T11:31:59Z</time>
</trkpt>
<trkpt lat="47.784927" lon="11.131901">
<ele>581.701</ele>
<time>2022-05-27T11:32:00Z</time>
</trkpt>
<trkpt lat="47.784882" lon="11.131949">
<ele>581.269</ele>
<time>2022-05-27T11:32:02Z</time>
</trkpt>
<trkpt lat="47.784794" lon="11.132067">
<ele>580.749</ele>
<time>2022-05-27T11:32:04Z</time>
</trkpt>
<trkpt lat="47.784718" lon="11.132183">
<ele>580.429</ele>
<time>2022-05-27T11:32:06Z</time>
</trkpt>
<trkpt lat="47.784641" lon="11.132292">
<ele>580.394</ele>
<time>2022-05-27T11:32:07Z</time>
</trkpt>
<trkpt lat="47.784603" lon="11.132341">
<ele>580.394</ele>
<time>2022-05-27T11:32:09Z</time>
</trkpt>
<trkpt lat="47.784531" lon="11.132445">
<ele>580.394</ele>
<time>2022-05-27T11:32:11Z</time>
</trkpt>
<trkpt lat="47.784454" lon="11.132552">
<ele>580.13</ele>
<time>2022-05-27T11:32:13Z</time>
</trkpt>
<trkpt lat="47.784382" lon="11.132659">
<ele>579.754</ele>
<time>2022-05-27T11:32:15Z</time>
</trkpt>
<trkpt lat="47.784309" lon="11.132764">
<ele>579.552</ele>
<time>2022-05-27T11:32:16Z</time>
</trkpt>
<trkpt lat="47.784275" lon="11.132818">
<ele>579.5</ele>
<time>2022-05-27T11:32:17Z</time>
</trkpt>
<trkpt lat="47.784233" lon="11.132877">
<ele>579.459</ele>
<time>2022-05-27T11:32:18Z</time>
</trkpt>
<trkpt lat="47.784195" lon="11.132932">
<ele>579.432</ele>
<time>2022-05-27T11:32:20Z</time>
</trkpt>
<trkpt lat="47.784115" lon="11.133043">
<ele>579.432</ele>
<time>2022-05-27T11:32:22Z</time>
</trkpt>
<trkpt lat="47.784046" lon="11.133148">
<ele>579.432</ele>
<time>2022-05-27T11:32:23Z</time>
</trkpt>
<trkpt lat="47.784008" lon="11.1332">
<ele>579.432</ele>
<time>2022-05-27T11:32:24Z</time>
</trkpt>
<trkpt lat="47.78397" lon="11.133252">
<ele>579.432</ele>
<time>2022-05-27T11:32:26Z</time>
</trkpt>
<trkpt lat="47.783894" lon="11.13336">
<ele>579.432</ele>
<time>2022-05-27T11:32:27Z</time>
</trkpt>
<trkpt lat="47.783859" lon="11.133411">
<ele>579.432</ele>
<time>2022-05-27T11:32:29Z</time>
</trkpt>
<trkpt lat="47.783787" lon="11.133512">
<ele>579.432</ele>
<time>2022-05-27T11:32:30Z</time>
</trkpt>
<trkpt lat="47.783752" lon="11.13356">
<ele>579.432</ele>
<time>2022-05-27T11:32:32Z</time>
</trkpt>
<trkpt lat="47.783688" lon="11.133657">
<ele>579.432</ele>
<time>2022-05-27T11:32:33Z</time>
</trkpt>
<trkpt lat="47.783653" lon="11.133705">
<ele>579.432</ele>
<time>2022-05-27T11:32:34Z</time>
</trkpt>
<trkpt lat="47.783615" lon="11.133755">
<ele>579.432</ele>
<time>2022-05-27T11:32:35Z</time>
</trkpt>
<trkpt lat="47.783581" lon="11.133807">
<ele>579.432</ele>
<time>2022-05-27T11:32:37Z</time>
</trkpt>
<trkpt lat="47.783508" lon="11.13391">
<ele>579.432</ele>
<time>2022-05-27T11:32:39Z</time>
</trkpt>
<trkpt lat="47.783466" lon="11.133965">
<ele>579.432</ele>
<time>2022-05-27T11:32:40Z</time>
</trkpt>
<trkpt lat="47.783394" lon="11.134069">
<ele>579.432</ele>
<time>2022-05-27T11:32:41Z</time>
</trkpt>
<trkpt lat="47.783356" lon="11.13413">
<ele>579.432</ele>
<time>2022-05-27T11:32:43Z</time>
</trkpt>
<trkpt lat="47.783268" lon="11.134254">
<ele>579.432</ele>
<time>2022-05-27T11:32:44Z</time>
</trkpt>
<trkpt lat="47.78323" lon="11.134312">
<ele>579.152</ele>
<time>2022-05-27T11:32:46Z</time>
</trkpt>
<trkpt lat="47.78315" lon="11.134417">
<ele>579.201</ele>
<time>2022-05-27T11:32:47Z</time>
</trkpt>
<trkpt lat="47.783112" lon="11.13447">
<ele>579.218</ele>
<time>2022-05-27T11:32:48Z</time>
</trkpt>
<trkpt lat="47.783081" lon="11.134518">
<ele>579.236</ele>
<time>2022-05-27T11:32:49Z</time>
</trkpt>
<trkpt lat="47.783047" lon="11.134563">
<ele>579.255</ele>
<time>2022-05-27T11:32:50Z</time>
</trkpt>
<trkpt lat="47.783016" lon="11.134608">
<ele>579.274</ele>
<time>2022-05-27T11:32:52Z</time>
</trkpt>
<trkpt lat="47.782951" lon="11.134705">
<ele>579.317</ele>
<time>2022-05-27T11:32:53Z</time>
</trkpt>
<trkpt lat="47.782917" lon="11.134755">
<ele>579.344</ele>
<time>2022-05-27T11:32:55Z</time>
</trkpt>
<trkpt lat="47.782883" lon="11.134802">
<ele>579.344</ele>
<time>2022-05-27T11:32:56Z</time>
</trkpt>
<trkpt lat="47.782818" lon="11.134893">
<ele>578.912</ele>
<time>2022-05-27T11:32:58Z</time>
</trkpt>
<trkpt lat="47.782791" lon="11.134932">
<ele>578.78</ele>
<time>2022-05-27T11:32:59Z</time>
</trkpt>
<trkpt lat="47.78273" lon="11.135008">
<ele>578.539</ele>
<time>2022-05-27T11:33:00Z</time>
</trkpt>
<trkpt lat="47.7827" lon="11.135047">
<ele>578.461</ele>
<time>2022-05-27T11:33:01Z</time>
</trkpt>
<trkpt lat="47.782669" lon="11.135081">
<ele>578.409</ele>
<time>2022-05-27T11:33:02Z</time>
</trkpt>
<trkpt lat="47.782639" lon="11.135108">
<ele>578.383</ele>
<time>2022-05-27T11:33:04Z</time>
</trkpt>
<trkpt lat="47.782593" lon="11.13515">
<ele>578.383</ele>
<time>2022-05-27T11:33:06Z</time>
</trkpt>
<trkpt lat="47.782574" lon="11.135172">
<ele>578.382</ele>
<time>2022-05-27T11:33:07Z</time>
</trkpt>
<trkpt lat="47.782532" lon="11.135225">
<ele>578.383</ele>
<time>2022-05-27T11:33:08Z</time>
</trkpt>
<trkpt lat="47.782509" lon="11.13526">
<ele>578.382</ele>
<time>2022-05-27T11:33:09Z</time>
</trkpt>
<trkpt lat="47.782482" lon="11.135299">
<ele>578.382</ele>
<time>2022-05-27T11:33:11Z</time>
</trkpt>
<trkpt lat="47.782417" lon="11.135382">
<ele>578.383</ele>
<time>2022-05-27T11:33:13Z</time>
</trkpt>
<trkpt lat="47.782337" lon="11.135473">
<ele>577.913</ele>
<time>2022-05-27T11:33:14Z</time>
</trkpt>
<trkpt lat="47.782299" lon="11.135513">
<ele>577.776</ele>
<time>2022-05-27T11:33:16Z</time>
</trkpt>
<trkpt lat="47.782219" lon="11.135598">
<ele>577.615</ele>
<time>2022-05-27T11:33:17Z</time>
</trkpt>
<trkpt lat="47.782177" lon="11.13564">
<ele>577.57</ele>
<time>2022-05-27T11:33:18Z</time>
</trkpt>
<trkpt lat="47.782135" lon="11.13568">
<ele>577.529</ele>
<time>2022-05-27T11:33:19Z</time>
</trkpt>
<trkpt lat="47.782097" lon="11.135722">
<ele>577.508</ele>
<time>2022-05-27T11:33:20Z</time>
</trkpt>
<trkpt lat="47.782055" lon="11.135764">
<ele>577.508</ele>
<time>2022-05-27T11:33:21Z</time>
</trkpt>
<trkpt lat="47.782013" lon="11.135808">
<ele>577.508</ele>
<time>2022-05-27T11:33:23Z</time>
</trkpt>
<trkpt lat="47.781967" lon="11.135854">
<ele>577.508</ele>
<time>2022-05-27T11:33:24Z</time>
</trkpt>
<trkpt lat="47.781872" lon="11.135953">
<ele>577.508</ele>
<time>2022-05-27T11:33:26Z</time>
</trkpt>
<trkpt lat="47.781826" lon="11.136003">
<ele>577.508</ele>
<time>2022-05-27T11:33:27Z</time>
</trkpt>
<trkpt lat="47.781731" lon="11.136093">
<ele>577.508</ele>
<time>2022-05-27T11:33:28Z</time>
</trkpt>
<trkpt lat="47.781681" lon="11.136137">
<ele>577.508</ele>
<time>2022-05-27T11:33:29Z</time>
</trkpt>
<trkpt lat="47.781631" lon="11.13618">
<ele>577.508</ele>
<time>2022-05-27T11:33:30Z</time>
</trkpt>
<trkpt lat="47.781582" lon="11.136227">
<ele>577.508</ele>
<time>2022-05-27T11:33:31Z</time>
</trkpt>
<trkpt lat="47.781536" lon="11.136271">
<ele>577.508</ele>
<time>2022-05-27T11:33:32Z</time>
</trkpt>
<trkpt lat="47.781487" lon="11.136313">
<ele>577.508</ele>
<time>2022-05-27T11:33:33Z</time>
</trkpt>
<trkpt lat="47.781437" lon="11.136353">
<ele>577.257</ele>
<time>2022-05-27T11:33:34Z</time>
</trkpt>
<trkpt lat="47.781391" lon="11.1364">
<ele>577.057</ele>
<time>2022-05-27T11:33:35Z</time>
</trkpt>
<trkpt lat="47.781342" lon="11.136447">
<ele>576.902</ele>
<time>2022-05-27T11:33:36Z</time>
</trkpt>
<trkpt lat="47.781296" lon="11.13649">
<ele>576.788</ele>
<time>2022-05-27T11:33:37Z</time>
</trkpt>
<trkpt lat="47.781246" lon="11.136533">
<ele>576.709</ele>
<time>2022-05-27T11:33:39Z</time>
</trkpt>
<trkpt lat="47.7812" lon="11.136579">
<ele>576.625</ele>
<time>2022-05-27T11:33:40Z</time>
</trkpt>
<trkpt lat="47.781155" lon="11.136623">
<ele>576.572</ele>
<time>2022-05-27T11:33:41Z</time>
</trkpt>
<trkpt lat="47.781067" lon="11.136713">
<ele>576.546</ele>
<time>2022-05-27T11:33:42Z</time>
</trkpt>
<trkpt lat="47.781013" lon="11.136759">
<ele>576.546</ele>
<time>2022-05-27T11:33:44Z</time>
</trkpt>
<trkpt lat="47.780972" lon="11.136804">
<ele>576.546</ele>
<time>2022-05-27T11:33:45Z</time>
</trkpt>
<trkpt lat="47.780876" lon="11.136889">
<ele>576.546</ele>
<time>2022-05-27T11:33:46Z</time>
</trkpt>
<trkpt lat="47.780827" lon="11.13693">
<ele>576.546</ele>
<time>2022-05-27T11:33:47Z</time>
</trkpt>
<trkpt lat="47.780785" lon="11.136975">
<ele>576.546</ele>
<time>2022-05-27T11:33:49Z</time>
</trkpt>
<trkpt lat="47.780689" lon="11.137067">
<ele>576.546</ele>
<time>2022-05-27T11:33:50Z</time>
</trkpt>
<trkpt lat="47.780643" lon="11.137109">
<ele>576.546</ele>
<time>2022-05-27T11:33:51Z</time>
</trkpt>
<trkpt lat="47.780594" lon="11.137152">
<ele>576.546</ele>
<time>2022-05-27T11:33:52Z</time>
</trkpt>
<trkpt lat="47.780548" lon="11.137197">
<ele>576.546</ele>
<time>2022-05-27T11:33:53Z</time>
</trkpt>
<trkpt lat="47.780499" lon="11.137243">
<ele>576.546</ele>
<time>2022-05-27T11:33:54Z</time>
</trkpt>
<trkpt lat="47.780453" lon="11.137292">
<ele>576.546</ele>
<time>2022-05-27T11:33:55Z</time>
</trkpt>
<trkpt lat="47.780407" lon="11.137338">
<ele>576.546</ele>
<time>2022-05-27T11:33:56Z</time>
</trkpt>
<trkpt lat="47.780361" lon="11.137383">
<ele>576.546</ele>
<time>2022-05-27T11:33:57Z</time>
</trkpt>
<trkpt lat="47.780312" lon="11.137428">
<ele>576.546</ele>
<time>2022-05-27T11:33:58Z</time>
</trkpt>
<trkpt lat="47.780266" lon="11.137472">
<ele>576.546</ele>
<time>2022-05-27T11:33:59Z</time>
</trkpt>
<trkpt lat="47.78022" lon="11.137513">
<ele>576.546</ele>
<time>2022-05-27T11:34:00Z</time>
</trkpt>
<trkpt lat="47.78017" lon="11.137555">
<ele>576.546</ele>
<time>2022-05-27T11:34:01Z</time>
</trkpt>
<trkpt lat="47.780132" lon="11.137598">
<ele>576.546</ele>
<time>2022-05-27T11:34:02Z</time>
</trkpt>
<trkpt lat="47.78009" lon="11.137644">
<ele>576.546</ele>
<time>2022-05-27T11:34:03Z</time>
</trkpt>
<trkpt lat="47.780045" lon="11.137687">
<ele>576.546</ele>
<time>2022-05-27T11:34:04Z</time>
</trkpt>
<trkpt lat="47.780003" lon="11.137729">
<ele>576.546</ele>
<time>2022-05-27T11:34:05Z</time>
</trkpt>
<trkpt lat="47.779961" lon="11.137769">
<ele>576.76</ele>
<time>2022-05-27T11:34:06Z</time>
</trkpt>
<trkpt lat="47.779915" lon="11.137809">
<ele>576.933</ele>
<time>2022-05-27T11:34:07Z</time>
</trkpt>
<trkpt lat="47.779873" lon="11.137849">
<ele>577.052</ele>
<time>2022-05-27T11:34:09Z</time>
</trkpt>
<trkpt lat="47.779785" lon="11.137924">
<ele>577.282</ele>
<time>2022-05-27T11:34:10Z</time>
</trkpt>
<trkpt lat="47.779743" lon="11.137959">
<ele>577.352</ele>
<time>2022-05-27T11:34:12Z</time>
</trkpt>
<trkpt lat="47.779648" lon="11.13804">
<ele>577.421</ele>
<time>2022-05-27T11:34:13Z</time>
</trkpt>
<trkpt lat="47.77961" lon="11.138079">
<ele>577.676</ele>
<time>2022-05-27T11:34:15Z</time>
</trkpt>
<trkpt lat="47.779526" lon="11.138161">
<ele>578.028</ele>
<time>2022-05-27T11:34:16Z</time>
</trkpt>
<trkpt lat="47.779484" lon="11.138193">
<ele>578.14</ele>
<time>2022-05-27T11:34:17Z</time>
</trkpt>
<trkpt lat="47.779446" lon="11.138227">
<ele>578.222</ele>
<time>2022-05-27T11:34:18Z</time>
</trkpt>
<trkpt lat="47.779404" lon="11.138268">
<ele>578.302</ele>
<time>2022-05-27T11:34:19Z</time>
</trkpt>
<trkpt lat="47.779366" lon="11.138313">
<ele>578.356</ele>
<time>2022-05-27T11:34:21Z</time>
</trkpt>
<trkpt lat="47.779327" lon="11.138356">
<ele>578.382</ele>
<time>2022-05-27T11:34:22Z</time>
</trkpt>
<trkpt lat="47.779285" lon="11.138395">
<ele>578.383</ele>
<time>2022-05-27T11:34:23Z</time>
</trkpt>
<trkpt lat="47.779205" lon="11.138483">
<ele>578.382</ele>
<time>2022-05-27T11:34:25Z</time>
</trkpt>
<trkpt lat="47.779167" lon="11.138534">
<ele>578.382</ele>
<time>2022-05-27T11:34:26Z</time>
</trkpt>
<trkpt lat="47.779091" lon="11.138635">
<ele>578.383</ele>
<time>2022-05-27T11:34:27Z</time>
</trkpt>
<trkpt lat="47.779049" lon="11.138689">
<ele>578.382</ele>
<time>2022-05-27T11:34:28Z</time>
</trkpt>
<trkpt lat="47.779007" lon="11.138737">
<ele>578.382</ele>
<time>2022-05-27T11:34:29Z</time>
</trkpt>
<trkpt lat="47.778961" lon="11.138783">
<ele>578.382</ele>
<time>2022-05-27T11:34:30Z</time>
</trkpt>
<trkpt lat="47.778919" lon="11.138827">
<ele>578.383</ele>
<time>2022-05-27T11:34:32Z</time>
</trkpt>
<trkpt lat="47.778828" lon="11.138902">
<ele>578.382</ele>
<time>2022-05-27T11:34:34Z</time>
</trkpt>
<trkpt lat="47.778744" lon="11.138978">
<ele>578.382</ele>
<time>2022-05-27T11:34:35Z</time>
</trkpt>
<trkpt lat="47.778702" lon="11.139018">
<ele>578.383</ele>
<time>2022-05-27T11:34:36Z</time>
</trkpt>
<trkpt lat="47.778664" lon="11.139055">
<ele>578.612</ele>
<time>2022-05-27T11:34:37Z</time>
</trkpt>
<trkpt lat="47.778629" lon="11.139087">
<ele>578.777</ele>
<time>2022-05-27T11:34:38Z</time>
</trkpt>
<trkpt lat="47.778595" lon="11.139123">
<ele>578.935</ele>
<time>2022-05-27T11:34:39Z</time>
</trkpt>
<trkpt lat="47.778561" lon="11.139162">
<ele>579.3</ele>
<time>2022-05-27T11:34:40Z</time>
</trkpt>
<trkpt lat="47.778526" lon="11.139202">
<ele>579.603</ele>
<time>2022-05-27T11:34:41Z</time>
</trkpt>
<trkpt lat="47.778492" lon="11.139244">
<ele>579.842</ele>
<time>2022-05-27T11:34:42Z</time>
</trkpt>
<trkpt lat="47.778461" lon="11.139283">
<ele>579.996</ele>
<time>2022-05-27T11:34:43Z</time>
</trkpt>
<trkpt lat="47.778427" lon="11.139321">
<ele>580.372</ele>
<time>2022-05-27T11:34:44Z</time>
</trkpt>
<trkpt lat="47.778393" lon="11.139361">
<ele>580.723</ele>
<time>2022-05-27T11:34:45Z</time>
</trkpt>
<trkpt lat="47.778358" lon="11.139397">
<ele>580.906</ele>
<time>2022-05-27T11:34:46Z</time>
</trkpt>
<trkpt lat="47.778328" lon="11.139432">
<ele>581.027</ele>
<time>2022-05-27T11:34:47Z</time>
</trkpt>
<trkpt lat="47.778294" lon="11.139473">
<ele>581.107</ele>
<time>2022-05-27T11:34:49Z</time>
</trkpt>
<trkpt lat="47.778225" lon="11.139555">
<ele>581.751</ele>
<time>2022-05-27T11:34:50Z</time>
</trkpt>
<trkpt lat="47.778194" lon="11.139596">
<ele>581.97</ele>
<time>2022-05-27T11:34:51Z</time>
</trkpt>
<trkpt lat="47.77816" lon="11.139633">
<ele>582.122</ele>
<time>2022-05-27T11:34:53Z</time>
</trkpt>
<trkpt lat="47.778126" lon="11.139669">
<ele>582.24</ele>
<time>2022-05-27T11:34:54Z</time>
</trkpt>
<trkpt lat="47.778091" lon="11.139703">
<ele>582.328</ele>
<time>2022-05-27T11:34:55Z</time>
</trkpt>
<trkpt lat="47.778027" lon="11.139774">
<ele>582.406</ele>
<time>2022-05-27T11:34:56Z</time>
</trkpt>
<trkpt lat="47.777996" lon="11.139812">
<ele>582.636</ele>
<time>2022-05-27T11:34:57Z</time>
</trkpt>
<trkpt lat="47.777958" lon="11.139845">
<ele>582.803</ele>
<time>2022-05-27T11:34:58Z</time>
</trkpt>
<trkpt lat="47.777927" lon="11.13988">
<ele>582.975</ele>
<time>2022-05-27T11:34:59Z</time>
</trkpt>
<trkpt lat="47.777889" lon="11.139913">
<ele>583.115</ele>
<time>2022-05-27T11:35:00Z</time>
</trkpt>
<trkpt lat="47.777855" lon="11.13995">
<ele>583.221</ele>
<time>2022-05-27T11:35:01Z</time>
</trkpt>
<trkpt lat="47.777821" lon="11.139988">
<ele>583.298</ele>
<time>2022-05-27T11:35:02Z</time>
</trkpt>
<trkpt lat="47.777786" lon="11.140028">
<ele>583.346</ele>
<time>2022-05-27T11:35:03Z</time>
</trkpt>
<trkpt lat="47.777752" lon="11.140061">
<ele>583.368</ele>
<time>2022-05-27T11:35:04Z</time>
</trkpt>
<trkpt lat="47.777721" lon="11.140095">
<ele>583.369</ele>
<time>2022-05-27T11:35:06Z</time>
</trkpt>
<trkpt lat="47.777687" lon="11.140128">
<ele>583.368</ele>
<time>2022-05-27T11:35:07Z</time>
</trkpt>
<trkpt lat="47.777622" lon="11.140197">
<ele>583.766</ele>
<time>2022-05-27T11:35:09Z</time>
</trkpt>
<trkpt lat="47.777557" lon="11.14026">
<ele>584.071</ele>
<time>2022-05-27T11:35:10Z</time>
</trkpt>
<trkpt lat="47.777527" lon="11.140291">
<ele>584.177</ele>
<time>2022-05-27T11:35:11Z</time>
</trkpt>
<trkpt lat="47.777493" lon="11.140319">
<ele>584.257</ele>
<time>2022-05-27T11:35:12Z</time>
</trkpt>
<trkpt lat="47.777462" lon="11.140347">
<ele>584.307</ele>
<time>2022-05-27T11:35:13Z</time>
</trkpt>
<trkpt lat="47.777428" lon="11.140371">
<ele>584.331</ele>
<time>2022-05-27T11:35:14Z</time>
</trkpt>
<trkpt lat="47.777397" lon="11.140395">
<ele>584.331</ele>
<time>2022-05-27T11:35:15Z</time>
</trkpt>
<trkpt lat="47.77737" lon="11.140422">
<ele>584.563</ele>
<time>2022-05-27T11:35:16Z</time>
</trkpt>
<trkpt lat="47.777351" lon="11.140445">
<ele>584.749</ele>
<time>2022-05-27T11:35:18Z</time>
</trkpt>
<trkpt lat="47.777306" lon="11.140487">
<ele>585.02</ele>
<time>2022-05-27T11:35:19Z</time>
</trkpt>
<trkpt lat="47.777287" lon="11.140518">
<ele>585.122</ele>
<time>2022-05-27T11:35:20Z</time>
</trkpt>
<trkpt lat="47.777264" lon="11.140547">
<ele>585.428</ele>
<time>2022-05-27T11:35:21Z</time>
</trkpt>
<trkpt lat="47.777237" lon="11.140572">
<ele>585.677</ele>
<time>2022-05-27T11:35:23Z</time>
</trkpt>
<trkpt lat="47.777195" lon="11.140632">
<ele>586.277</ele>
<time>2022-05-27T11:35:24Z</time>
</trkpt>
<trkpt lat="47.777172" lon="11.140665">
<ele>586.566</ele>
<time>2022-05-27T11:35:25Z</time>
</trkpt>
<trkpt lat="47.777153" lon="11.140695">
<ele>586.77</ele>
<time>2022-05-27T11:35:27Z</time>
</trkpt>
<trkpt lat="47.777103" lon="11.140719">
<ele>586.987</ele>
<time>2022-05-27T11:35:28Z</time>
</trkpt>
<trkpt lat="47.777069" lon="11.140718">
<ele>587.061</ele>
<time>2022-05-27T11:35:29Z</time>
</trkpt>
<trkpt lat="47.777039" lon="11.140721">
<ele>587.092</ele>
<time>2022-05-27T11:35:30Z</time>
</trkpt>
<trkpt lat="47.777004" lon="11.140734">
<ele>586.869</ele>
<time>2022-05-27T11:35:31Z</time>
</trkpt>
<trkpt lat="47.77697" lon="11.140752">
<ele>586.712</ele>
<time>2022-05-27T11:35:33Z</time>
</trkpt>
<trkpt lat="47.776878" lon="11.14082">
<ele>585.975</ele>
<time>2022-05-27T11:35:34Z</time>
</trkpt>
<trkpt lat="47.776836" lon="11.140853">
<ele>585.452</ele>
<time>2022-05-27T11:35:35Z</time>
</trkpt>
<trkpt lat="47.776783" lon="11.140903">
<ele>584.744</ele>
<time>2022-05-27T11:35:36Z</time>
</trkpt>
<trkpt lat="47.776733" lon="11.14097">
<ele>584.24</ele>
<time>2022-05-27T11:35:37Z</time>
</trkpt>
<trkpt lat="47.776688" lon="11.141047">
<ele>583.946</ele>
<time>2022-05-27T11:35:38Z</time>
</trkpt>
<trkpt lat="47.776646" lon="11.141117">
<ele>583.417</ele>
<time>2022-05-27T11:35:39Z</time>
</trkpt>
<trkpt lat="47.776596" lon="11.141185">
<ele>583.051</ele>
<time>2022-05-27T11:35:40Z</time>
</trkpt>
<trkpt lat="47.776546" lon="11.141247">
<ele>582.802</ele>
<time>2022-05-27T11:35:42Z</time>
</trkpt>
<trkpt lat="47.77647" lon="11.141371">
<ele>582.523</ele>
<time>2022-05-27T11:35:43Z</time>
</trkpt>
<trkpt lat="47.776428" lon="11.141427">
<ele>582.467</ele>
<time>2022-05-27T11:35:44Z</time>
</trkpt>
<trkpt lat="47.776398" lon="11.141486">
<ele>582.427</ele>
<time>2022-05-27T11:35:45Z</time>
</trkpt>
<trkpt lat="47.776367" lon="11.141535">
<ele>582.406</ele>
<time>2022-05-27T11:35:46Z</time>
</trkpt>
<trkpt lat="47.77634" lon="11.141579">
<ele>582.406</ele>
<time>2022-05-27T11:35:47Z</time>
</trkpt>
<trkpt lat="47.776318" lon="11.141622">
<ele>582.406</ele>
<time>2022-05-27T11:35:48Z</time>
</trkpt>
<trkpt lat="47.776287" lon="11.141665">
<ele>582.406</ele>
<time>2022-05-27T11:35:49Z</time>
</trkpt>
<trkpt lat="47.776268" lon="11.141702">
<ele>582.406</ele>
<time>2022-05-27T11:35:50Z</time>
</trkpt>
<trkpt lat="47.776241" lon="11.141742">
<ele>582.406</ele>
<time>2022-05-27T11:35:51Z</time>
</trkpt>
<trkpt lat="47.776211" lon="11.141784">
<ele>582.406</ele>
<time>2022-05-27T11:35:52Z</time>
</trkpt>
<trkpt lat="47.776176" lon="11.141819">
<ele>582.406</ele>
<time>2022-05-27T11:35:53Z</time>
</trkpt>
<trkpt lat="47.776134" lon="11.141857">
<ele>582.406</ele>
<time>2022-05-27T11:35:55Z</time>
</trkpt>
<trkpt lat="47.776051" lon="11.141951">
<ele>582.406</ele>
<time>2022-05-27T11:35:57Z</time>
</trkpt>
<trkpt lat="47.775967" lon="11.142043">
<ele>582.174</ele>
<time>2022-05-27T11:35:58Z</time>
</trkpt>
<trkpt lat="47.775928" lon="11.142094">
<ele>581.966</ele>
<time>2022-05-27T11:36:00Z</time>
</trkpt>
<trkpt lat="47.775887" lon="11.142143">
<ele>581.804</ele>
<time>2022-05-27T11:36:01Z</time>
</trkpt>
<trkpt lat="47.775799" lon="11.142241">
<ele>581.585</ele>
<time>2022-05-27T11:36:02Z</time>
</trkpt>
<trkpt lat="47.775761" lon="11.142284">
<ele>581.514</ele>
<time>2022-05-27T11:36:04Z</time>
</trkpt>
<trkpt lat="47.775723" lon="11.142326">
<ele>581.468</ele>
<time>2022-05-27T11:36:05Z</time>
</trkpt>
<trkpt lat="47.775642" lon="11.142386">
<ele>581.444</ele>
<time>2022-05-27T11:36:06Z</time>
</trkpt>
<trkpt lat="47.7756" lon="11.142399">
<ele>581.444</ele>
<time>2022-05-27T11:36:07Z</time>
</trkpt>
<trkpt lat="47.775566" lon="11.1424">
<ele>581.444</ele>
<time>2022-05-27T11:36:08Z</time>
</trkpt>
<trkpt lat="47.775536" lon="11.14239">
<ele>581.444</ele>
<time>2022-05-27T11:36:09Z</time>
</trkpt>
<trkpt lat="47.775513" lon="11.142377">
<ele>581.444</ele>
<time>2022-05-27T11:36:10Z</time>
</trkpt>
<trkpt lat="47.775501" lon="11.142372">
<ele>581.444</ele>
<time>2022-05-27T11:36:11Z</time>
</trkpt>
<trkpt lat="47.775494" lon="11.142375">
<ele>581.444</ele>
<time>2022-05-27T11:36:12Z</time>
</trkpt>
<trkpt lat="47.77549" lon="11.14238">
<ele>581.444</ele>
<time>2022-05-27T11:36:14Z</time>
</trkpt>
<trkpt lat="47.775475" lon="11.142422">
<ele>581.444</ele>
<time>2022-05-27T11:36:15Z</time>
</trkpt>
<trkpt lat="47.775471" lon="11.142446">
<ele>581.444</ele>
<time>2022-05-27T11:36:16Z</time>
</trkpt>
<trkpt lat="47.775459" lon="11.142479">
<ele>581.444</ele>
<time>2022-05-27T11:36:17Z</time>
</trkpt>
<trkpt lat="47.775448" lon="11.142515">
<ele>581.444</ele>
<time>2022-05-27T11:36:18Z</time>
</trkpt>
<trkpt lat="47.775436" lon="11.142552">
<ele>581.444</ele>
<time>2022-05-27T11:36:19Z</time>
</trkpt>
<trkpt lat="47.775417" lon="11.142591">
<ele>581.444</ele>
<time>2022-05-27T11:36:20Z</time>
</trkpt>
<trkpt lat="47.775394" lon="11.142636">
<ele>581.444</ele>
<time>2022-05-27T11:36:21Z</time>
</trkpt>
<trkpt lat="47.775375" lon="11.142684">
<ele>581.444</ele>
<time>2022-05-27T11:36:22Z</time>
</trkpt>
<trkpt lat="47.775349" lon="11.142736">
<ele>581.444</ele>
<time>2022-05-27T11:36:23Z</time>
</trkpt>
<trkpt lat="47.775326" lon="11.14279">
<ele>581.443</ele>
<time>2022-05-27T11:36:24Z</time>
</trkpt>
<trkpt lat="47.775295" lon="11.142845">
<ele>581.444</ele>
<time>2022-05-27T11:36:25Z</time>
</trkpt>
<trkpt lat="47.775269" lon="11.142902">
<ele>581.444</ele>
<time>2022-05-27T11:36:26Z</time>
</trkpt>
<trkpt lat="47.775242" lon="11.142957">
<ele>581.444</ele>
<time>2022-05-27T11:36:27Z</time>
</trkpt>
<trkpt lat="47.775215" lon="11.14301">
<ele>581.444</ele>
<time>2022-05-27T11:36:28Z</time>
</trkpt>
<trkpt lat="47.775192" lon="11.14307">
<ele>581.444</ele>
<time>2022-05-27T11:36:30Z</time>
</trkpt>
<trkpt lat="47.775169" lon="11.143132">
<ele>581.444</ele>
<time>2022-05-27T11:36:31Z</time>
</trkpt>
<trkpt lat="47.775143" lon="11.143191">
<ele>581.082</ele>
<time>2022-05-27T11:36:32Z</time>
</trkpt>
<trkpt lat="47.775089" lon="11.143319">
<ele>580.605</ele>
<time>2022-05-27T11:36:33Z</time>
</trkpt>
<trkpt lat="47.775063" lon="11.14338">
<ele>580.445</ele>
<time>2022-05-27T11:36:34Z</time>
</trkpt>
<trkpt lat="47.775036" lon="11.14344">
<ele>580.345</ele>
<time>2022-05-27T11:36:36Z</time>
</trkpt>
<trkpt lat="47.774982" lon="11.143559">
<ele>580.246</ele>
<time>2022-05-27T11:36:37Z</time>
</trkpt>
<trkpt lat="47.774956" lon="11.143619">
<ele>580.219</ele>
<time>2022-05-27T11:36:38Z</time>
</trkpt>
<trkpt lat="47.774929" lon="11.143675">
<ele>580.219</ele>
<time>2022-05-27T11:36:39Z</time>
</trkpt>
<trkpt lat="47.774902" lon="11.143734">
<ele>580.219</ele>
<time>2022-05-27T11:36:40Z</time>
</trkpt>
<trkpt lat="47.774876" lon="11.143795">
<ele>580.219</ele>
<time>2022-05-27T11:36:41Z</time>
</trkpt>
<trkpt lat="47.774853" lon="11.143855">
<ele>580.219</ele>
<time>2022-05-27T11:36:42Z</time>
</trkpt>
<trkpt lat="47.774822" lon="11.143918">
<ele>580.219</ele>
<time>2022-05-27T11:36:44Z</time>
</trkpt>
<trkpt lat="47.774769" lon="11.144049">
<ele>580.219</ele>
<time>2022-05-27T11:36:45Z</time>
</trkpt>
<trkpt lat="47.774742" lon="11.144118">
<ele>580.219</ele>
<time>2022-05-27T11:36:47Z</time>
</trkpt>
<trkpt lat="47.774689" lon="11.144257">
<ele>580.219</ele>
<time>2022-05-27T11:36:49Z</time>
</trkpt>
<trkpt lat="47.774632" lon="11.144406">
<ele>580.219</ele>
<time>2022-05-27T11:36:50Z</time>
</trkpt>
<trkpt lat="47.774601" lon="11.144475">
<ele>580.219</ele>
<time>2022-05-27T11:36:51Z</time>
</trkpt>
<trkpt lat="47.774574" lon="11.144543">
<ele>580.219</ele>
<time>2022-05-27T11:36:52Z</time>
</trkpt>
<trkpt lat="47.774548" lon="11.144613">
<ele>580.219</ele>
<time>2022-05-27T11:36:53Z</time>
</trkpt>
<trkpt lat="47.774521" lon="11.144687">
<ele>580.219</ele>
<time>2022-05-27T11:36:54Z</time>
</trkpt>
<trkpt lat="47.774494" lon="11.144758">
<ele>580.219</ele>
<time>2022-05-27T11:36:55Z</time>
</trkpt>
<trkpt lat="47.774464" lon="11.144835">
<ele>580.219</ele>
<time>2022-05-27T11:36:57Z</time>
</trkpt>
<trkpt lat="47.774406" lon="11.14499">
<ele>580.219</ele>
<time>2022-05-27T11:36:58Z</time>
</trkpt>
<trkpt lat="47.774384" lon="11.145064">
<ele>580.219</ele>
<time>2022-05-27T11:37:00Z</time>
</trkpt>
<trkpt lat="47.774323" lon="11.14522">
<ele>580.219</ele>
<time>2022-05-27T11:37:01Z</time>
</trkpt>
<trkpt lat="47.7743" lon="11.145297">
<ele>580.219</ele>
<time>2022-05-27T11:37:02Z</time>
</trkpt>
<trkpt lat="47.774269" lon="11.145374">
<ele>580.219</ele>
<time>2022-05-27T11:37:03Z</time>
</trkpt>
<trkpt lat="47.774242" lon="11.145448">
<ele>580.219</ele>
<time>2022-05-27T11:37:04Z</time>
</trkpt>
<trkpt lat="47.774212" lon="11.145521">
<ele>580.219</ele>
<time>2022-05-27T11:37:05Z</time>
</trkpt>
<trkpt lat="47.774185" lon="11.145595">
<ele>580.219</ele>
<time>2022-05-27T11:37:06Z</time>
</trkpt>
<trkpt lat="47.774158" lon="11.145667">
<ele>580.219</ele>
<time>2022-05-27T11:37:07Z</time>
</trkpt>
<trkpt lat="47.774136" lon="11.145739">
<ele>580.219</ele>
<time>2022-05-27T11:37:08Z</time>
</trkpt>
<trkpt lat="47.774109" lon="11.145812">
<ele>580.219</ele>
<time>2022-05-27T11:37:10Z</time>
</trkpt>
<trkpt lat="47.774059" lon="11.145957">
<ele>580.219</ele>
<time>2022-05-27T11:37:11Z</time>
</trkpt>
<trkpt lat="47.774036" lon="11.14603">
<ele>580.219</ele>
<time>2022-05-27T11:37:12Z</time>
</trkpt>
<trkpt lat="47.77401" lon="11.146102">
<ele>580.219</ele>
<time>2022-05-27T11:37:14Z</time>
</trkpt>
<trkpt lat="47.773964" lon="11.146237">
<ele>580.219</ele>
<time>2022-05-27T11:37:15Z</time>
</trkpt>
<trkpt lat="47.773937" lon="11.146302">
<ele>580.219</ele>
<time>2022-05-27T11:37:16Z</time>
</trkpt>
<trkpt lat="47.773911" lon="11.14637">
<ele>580.219</ele>
<time>2022-05-27T11:37:17Z</time>
</trkpt>
<trkpt lat="47.773888" lon="11.146437">
<ele>580.219</ele>
<time>2022-05-27T11:37:18Z</time>
</trkpt>
<trkpt lat="47.773861" lon="11.146506">
<ele>580.219</ele>
<time>2022-05-27T11:37:20Z</time>
</trkpt>
<trkpt lat="47.773808" lon="11.146642">
<ele>580.219</ele>
<time>2022-05-27T11:37:21Z</time>
</trkpt>
<trkpt lat="47.773781" lon="11.146708">
<ele>580.219</ele>
<time>2022-05-27T11:37:22Z</time>
</trkpt>
<trkpt lat="47.773754" lon="11.146775">
<ele>580.219</ele>
<time>2022-05-27T11:37:24Z</time>
</trkpt>
<trkpt lat="47.773727" lon="11.14684">
<ele>580.219</ele>
<time>2022-05-27T11:37:25Z</time>
</trkpt>
<trkpt lat="47.773674" lon="11.146974">
<ele>580.219</ele>
<time>2022-05-27T11:37:26Z</time>
</trkpt>
<trkpt lat="47.773647" lon="11.147037">
<ele>580.219</ele>
<time>2022-05-27T11:37:27Z</time>
</trkpt>
<trkpt lat="47.773621" lon="11.147095">
<ele>580.219</ele>
<time>2022-05-27T11:37:28Z</time>
</trkpt>
<trkpt lat="47.773602" lon="11.147153">
<ele>580.219</ele>
<time>2022-05-27T11:37:30Z</time>
</trkpt>
<trkpt lat="47.773579" lon="11.147215">
<ele>580.219</ele>
<time>2022-05-27T11:37:31Z</time>
</trkpt>
<trkpt lat="47.773525" lon="11.147338">
<ele>580.219</ele>
<time>2022-05-27T11:37:33Z</time>
</trkpt>
<trkpt lat="47.773479" lon="11.147453">
<ele>580.219</ele>
<time>2022-05-27T11:37:34Z</time>
</trkpt>
<trkpt lat="47.773453" lon="11.147509">
<ele>580.219</ele>
<time>2022-05-27T11:37:36Z</time>
</trkpt>
<trkpt lat="47.773415" lon="11.147614">
<ele>580.219</ele>
<time>2022-05-27T11:37:38Z</time>
</trkpt>
<trkpt lat="47.773365" lon="11.147721">
<ele>580.219</ele>
<time>2022-05-27T11:37:39Z</time>
</trkpt>
<trkpt lat="47.773346" lon="11.147778">
<ele>580.499</ele>
<time>2022-05-27T11:37:40Z</time>
</trkpt>
<trkpt lat="47.773319" lon="11.147835">
<ele>580.721</ele>
<time>2022-05-27T11:37:41Z</time>
</trkpt>
<trkpt lat="47.773296" lon="11.14789">
<ele>580.892</ele>
<time>2022-05-27T11:37:42Z</time>
</trkpt>
<trkpt lat="47.773273" lon="11.147949">
<ele>581.019</ele>
<time>2022-05-27T11:37:43Z</time>
</trkpt>
<trkpt lat="47.773251" lon="11.148008">
<ele>581.103</ele>
<time>2022-05-27T11:37:44Z</time>
</trkpt>
<trkpt lat="47.773224" lon="11.14807">
<ele>581.154</ele>
<time>2022-05-27T11:37:45Z</time>
</trkpt>
<trkpt lat="47.773201" lon="11.148131">
<ele>581.181</ele>
<time>2022-05-27T11:37:46Z</time>
</trkpt>
<trkpt lat="47.773178" lon="11.148189">
<ele>581.181</ele>
<time>2022-05-27T11:37:48Z</time>
</trkpt>
<trkpt lat="47.773144" lon="11.14828">
<ele>581.181</ele>
<time>2022-05-27T11:37:49Z</time>
</trkpt>
<trkpt lat="47.773125" lon="11.148324">
<ele>581.182</ele>
<time>2022-05-27T11:37:51Z</time>
</trkpt>
<trkpt lat="47.773083" lon="11.148403">
<ele>581.647</ele>
<time>2022-05-27T11:37:52Z</time>
</trkpt>
<trkpt lat="47.773067" lon="11.148437">
<ele>581.806</ele>
<time>2022-05-27T11:37:53Z</time>
</trkpt>
<trkpt lat="47.773056" lon="11.148469">
<ele>581.932</ele>
<time>2022-05-27T11:37:55Z</time>
</trkpt>
<trkpt lat="47.773037" lon="11.148505">
<ele>582.032</ele>
<time>2022-05-27T11:37:56Z</time>
</trkpt>
<trkpt lat="47.773022" lon="11.148544">
<ele>582.087</ele>
<time>2022-05-27T11:37:57Z</time>
</trkpt>
<trkpt lat="47.772987" lon="11.148625">
<ele>582.143</ele>
<time>2022-05-27T11:37:58Z</time>
</trkpt>
<trkpt lat="47.772972" lon="11.148665">
<ele>582.144</ele>
<time>2022-05-27T11:37:59Z</time>
</trkpt>
<trkpt lat="47.772961" lon="11.1487">
<ele>582.144</ele>
<time>2022-05-27T11:38:00Z</time>
</trkpt>
<trkpt lat="47.772942" lon="11.14874">
<ele>582.143</ele>
<time>2022-05-27T11:38:02Z</time>
</trkpt>
<trkpt lat="47.772911" lon="11.14882">
<ele>582.144</ele>
<time>2022-05-27T11:38:03Z</time>
</trkpt>
<trkpt lat="47.772896" lon="11.14886">
<ele>582.143</ele>
<time>2022-05-27T11:38:05Z</time>
</trkpt>
<trkpt lat="47.772884" lon="11.148896">
<ele>582.143</ele>
<time>2022-05-27T11:38:06Z</time>
</trkpt>
<trkpt lat="47.772881" lon="11.148932">
<ele>582.144</ele>
<time>2022-05-27T11:38:07Z</time>
</trkpt>
<trkpt lat="47.772881" lon="11.149003">
<ele>582.535</ele>
<time>2022-05-27T11:38:08Z</time>
</trkpt>
<trkpt lat="47.772873" lon="11.149047">
<ele>582.698</ele>
<time>2022-05-27T11:38:09Z</time>
</trkpt>
<trkpt lat="47.772865" lon="11.14909">
<ele>582.836</ele>
<time>2022-05-27T11:38:10Z</time>
</trkpt>
<trkpt lat="47.77285" lon="11.149133">
<ele>582.947</ele>
<time>2022-05-27T11:38:11Z</time>
</trkpt>
<trkpt lat="47.772831" lon="11.149177">
<ele>583.029</ele>
<time>2022-05-27T11:38:13Z</time>
</trkpt>
<trkpt lat="47.772797" lon="11.149253">
<ele>583.106</ele>
<time>2022-05-27T11:38:14Z</time>
</trkpt>
<trkpt lat="47.772781" lon="11.149285">
<ele>583.106</ele>
<time>2022-05-27T11:38:15Z</time>
</trkpt>
<trkpt lat="47.772766" lon="11.149318">
<ele>583.106</ele>
<time>2022-05-27T11:38:16Z</time>
</trkpt>
<trkpt lat="47.772751" lon="11.149346">
<ele>583.106</ele>
<time>2022-05-27T11:38:17Z</time>
</trkpt>
<trkpt lat="47.772739" lon="11.149374">
<ele>583.106</ele>
<time>2022-05-27T11:38:19Z</time>
</trkpt>
<trkpt lat="47.772728" lon="11.149402">
<ele>583.106</ele>
<time>2022-05-27T11:38:20Z</time>
</trkpt>
<trkpt lat="47.77272" lon="11.149428">
<ele>583.106</ele>
<time>2022-05-27T11:38:21Z</time>
</trkpt>
<trkpt lat="47.772697" lon="11.149488">
<ele>583.106</ele>
<time>2022-05-27T11:38:22Z</time>
</trkpt>
<trkpt lat="47.772682" lon="11.149515">
<ele>583.106</ele>
<time>2022-05-27T11:38:23Z</time>
</trkpt>
<trkpt lat="47.772678" lon="11.149529">
<ele>583.106</ele>
<time>2022-05-27T11:38:24Z</time>
</trkpt>
<trkpt lat="47.772675" lon="11.14953">
<ele>583.106</ele>
<time>2022-05-27T11:38:25Z</time>
</trkpt>
<trkpt lat="47.772675" lon="11.149533">
<ele>583.106</ele>
<time>2022-05-27T11:38:27Z</time>
</trkpt>
<trkpt lat="47.772671" lon="11.149535">
<ele>583.106</ele>
<time>2022-05-27T11:38:28Z</time>
</trkpt>
<trkpt lat="47.772648" lon="11.14957">
<ele>583.106</ele>
<time>2022-05-27T11:41:18Z</time>
</trkpt>
<trkpt lat="47.77264" lon="11.149584">
<ele>583.357</ele>
<time>2022-05-27T11:41:19Z</time>
</trkpt>
<trkpt lat="47.772636" lon="11.149591">
<ele>583.481</ele>
<time>2022-05-27T11:41:20Z</time>
</trkpt>
<trkpt lat="47.772633" lon="11.149603">
<ele>583.616</ele>
<time>2022-05-27T11:41:21Z</time>
</trkpt>
<trkpt lat="47.772621" lon="11.149611">
<ele>583.693</ele>
<time>2022-05-27T11:41:22Z</time>
</trkpt>
<trkpt lat="47.772614" lon="11.149617">
<ele>583.707</ele>
<time>2022-05-27T11:41:23Z</time>
</trkpt>
<trkpt lat="47.772606" lon="11.14962">
<ele>583.716</ele>
<time>2022-05-27T11:41:24Z</time>
</trkpt>
<trkpt lat="47.772602" lon="11.149625">
<ele>583.718</ele>
<time>2022-05-27T11:41:25Z</time>
</trkpt>
<trkpt lat="47.772602" lon="11.149623">
<ele>583.718</ele>
<time>2022-05-27T11:41:26Z</time>
</trkpt>
<trkpt lat="47.772598" lon="11.149623">
<ele>583.718</ele>
<time>2022-05-27T11:41:27Z</time>
</trkpt>
<trkpt lat="47.772594" lon="11.149623">
<ele>583.718</ele>
<time>2022-05-27T11:41:29Z</time>
</trkpt>
<trkpt lat="47.772583" lon="11.149603">
<ele>583.718</ele>
<time>2022-05-27T11:41:33Z</time>
</trkpt>
<trkpt lat="47.772591" lon="11.149558">
<ele>583.718</ele>
<time>2022-05-27T11:41:35Z</time>
</trkpt>
<trkpt lat="47.772591" lon="11.149518">
<ele>583.718</ele>
<time>2022-05-27T11:41:36Z</time>
</trkpt>
<trkpt lat="47.772594" lon="11.149479">
<ele>583.718</ele>
<time>2022-05-27T11:41:37Z</time>
</trkpt>
<trkpt lat="47.772575" lon="11.149382">
<ele>583.142</ele>
<time>2022-05-27T11:41:38Z</time>
</trkpt>
<trkpt lat="47.772552" lon="11.149334">
<ele>583.002</ele>
<time>2022-05-27T11:41:39Z</time>
</trkpt>
<trkpt lat="47.772518" lon="11.149286">
<ele>582.964</ele>
<time>2022-05-27T11:41:40Z</time>
</trkpt>
<trkpt lat="47.772491" lon="11.14924">
<ele>582.862</ele>
<time>2022-05-27T11:41:41Z</time>
</trkpt>
<trkpt lat="47.772457" lon="11.149196">
<ele>582.808</ele>
<time>2022-05-27T11:41:42Z</time>
</trkpt>
<trkpt lat="47.772427" lon="11.149152">
<ele>582.776</ele>
<time>2022-05-27T11:41:43Z</time>
</trkpt>
<trkpt lat="47.772392" lon="11.149115">
<ele>582.756</ele>
<time>2022-05-27T11:41:44Z</time>
</trkpt>
<trkpt lat="47.772362" lon="11.149078">
<ele>582.509</ele>
<time>2022-05-27T11:41:45Z</time>
</trkpt>
<trkpt lat="47.772327" lon="11.14905">
<ele>582.33</ele>
<time>2022-05-27T11:41:46Z</time>
</trkpt>
<trkpt lat="47.772293" lon="11.149024">
<ele>582.196</ele>
<time>2022-05-27T11:41:48Z</time>
</trkpt>
<trkpt lat="47.772224" lon="11.148968">
<ele>582.015</ele>
<time>2022-05-27T11:41:49Z</time>
</trkpt>
<trkpt lat="47.772186" lon="11.148933">
<ele>581.958</ele>
<time>2022-05-27T11:41:50Z</time>
</trkpt>
<trkpt lat="47.772152" lon="11.148898">
<ele>581.906</ele>
<time>2022-05-27T11:41:51Z</time>
</trkpt>
<trkpt lat="47.772114" lon="11.148865">
<ele>581.881</ele>
<time>2022-05-27T11:41:52Z</time>
</trkpt>
<trkpt lat="47.772076" lon="11.148827">
<ele>581.881</ele>
<time>2022-05-27T11:41:53Z</time>
</trkpt>
<trkpt lat="47.772038" lon="11.148788">
<ele>581.881</ele>
<time>2022-05-27T11:41:54Z</time>
</trkpt>
<trkpt lat="47.772007" lon="11.148749">
<ele>581.881</ele>
<time>2022-05-27T11:41:56Z</time>
</trkpt>
<trkpt lat="47.771965" lon="11.148708">
<ele>581.881</ele>
<time>2022-05-27T11:41:57Z</time>
</trkpt>
<trkpt lat="47.771885" lon="11.148625">
<ele>581.881</ele>
<time>2022-05-27T11:41:59Z</time>
</trkpt>
<trkpt lat="47.771843" lon="11.148583">
<ele>581.641</ele>
<time>2022-05-27T11:42:00Z</time>
</trkpt>
<trkpt lat="47.771763" lon="11.148505">
<ele>581.3</ele>
<time>2022-05-27T11:42:01Z</time>
</trkpt>
<trkpt lat="47.771721" lon="11.148479">
<ele>581.162</ele>
<time>2022-05-27T11:42:02Z</time>
</trkpt>
<trkpt lat="47.771675" lon="11.148469">
<ele>581.06</ele>
<time>2022-05-27T11:42:03Z</time>
</trkpt>
<trkpt lat="47.771629" lon="11.148479">
<ele>580.991</ele>
<time>2022-05-27T11:42:04Z</time>
</trkpt>
<trkpt lat="47.771591" lon="11.148505">
<ele>580.942</ele>
<time>2022-05-27T11:42:06Z</time>
</trkpt>
<trkpt lat="47.771515" lon="11.14859">
<ele>580.919</ele>
<time>2022-05-27T11:42:07Z</time>
</trkpt>
<trkpt lat="47.771484" lon="11.148641">
<ele>580.919</ele>
<time>2022-05-27T11:42:08Z</time>
</trkpt>
<trkpt lat="47.771454" lon="11.148691">
<ele>580.919</ele>
<time>2022-05-27T11:42:09Z</time>
</trkpt>
<trkpt lat="47.77142" lon="11.148744">
<ele>580.919</ele>
<time>2022-05-27T11:42:10Z</time>
</trkpt>
<trkpt lat="47.771389" lon="11.148796">
<ele>581.135</ele>
<time>2022-05-27T11:42:11Z</time>
</trkpt>
<trkpt lat="47.771358" lon="11.148852">
<ele>581.315</ele>
<time>2022-05-27T11:42:12Z</time>
</trkpt>
<trkpt lat="47.771328" lon="11.148907">
<ele>581.461</ele>
<time>2022-05-27T11:42:13Z</time>
</trkpt>
<trkpt lat="47.771297" lon="11.148961">
<ele>581.576</ele>
<time>2022-05-27T11:42:14Z</time>
</trkpt>
<trkpt lat="47.771267" lon="11.149015">
<ele>581.665</ele>
<time>2022-05-27T11:42:16Z</time>
</trkpt>
<trkpt lat="47.771236" lon="11.149068">
<ele>581.722</ele>
<time>2022-05-27T11:42:17Z</time>
</trkpt>
<trkpt lat="47.77121" lon="11.149118">
<ele>582.002</ele>
<time>2022-05-27T11:42:18Z</time>
</trkpt>
<trkpt lat="47.77116" lon="11.149215">
<ele>582.378</ele>
<time>2022-05-27T11:42:19Z</time>
</trkpt>
<trkpt lat="47.771137" lon="11.149265">
<ele>582.482</ele>
<time>2022-05-27T11:42:21Z</time>
</trkpt>
<trkpt lat="47.771107" lon="11.149318">
<ele>582.595</ele>
<time>2022-05-27T11:42:22Z</time>
</trkpt>
<trkpt lat="47.77108" lon="11.149367">
<ele>582.677</ele>
<time>2022-05-27T11:42:23Z</time>
</trkpt>
<trkpt lat="47.771053" lon="11.149418">
<ele>582.73</ele>
<time>2022-05-27T11:42:24Z</time>
</trkpt>
<trkpt lat="47.77103" lon="11.149468">
<ele>582.756</ele>
<time>2022-05-27T11:42:25Z</time>
</trkpt>
<trkpt lat="47.771004" lon="11.149523">
<ele>582.756</ele>
<time>2022-05-27T11:42:26Z</time>
</trkpt>
<trkpt lat="47.770973" lon="11.14958">
<ele>582.756</ele>
<time>2022-05-27T11:42:27Z</time>
</trkpt>
<trkpt lat="47.770908" lon="11.149689">
<ele>582.756</ele>
<time>2022-05-27T11:42:28Z</time>
</trkpt>
<trkpt lat="47.770874" lon="11.149745">
<ele>582.756</ele>
<time>2022-05-27T11:42:29Z</time>
</trkpt>
<trkpt lat="47.770844" lon="11.149799">
<ele>582.756</ele>
<time>2022-05-27T11:42:30Z</time>
</trkpt>
<trkpt lat="47.770813" lon="11.149858">
<ele>582.756</ele>
<time>2022-05-27T11:42:31Z</time>
</trkpt>
<trkpt lat="47.770779" lon="11.149915">
<ele>582.756</ele>
<time>2022-05-27T11:42:32Z</time>
</trkpt>
<trkpt lat="47.770744" lon="11.149968">
<ele>582.756</ele>
<time>2022-05-27T11:42:33Z</time>
</trkpt>
<trkpt lat="47.77071" lon="11.150023">
<ele>582.756</ele>
<time>2022-05-27T11:42:35Z</time>
</trkpt>
<trkpt lat="47.770679" lon="11.150084">
<ele>582.756</ele>
<time>2022-05-27T11:42:36Z</time>
</trkpt>
<trkpt lat="47.770603" lon="11.150208">
<ele>582.756</ele>
<time>2022-05-27T11:42:37Z</time>
</trkpt>
<trkpt lat="47.770565" lon="11.150267">
<ele>582.756</ele>
<time>2022-05-27T11:42:38Z</time>
</trkpt>
<trkpt lat="47.770527" lon="11.150325">
<ele>582.756</ele>
<time>2022-05-27T11:42:39Z</time>
</trkpt>
<trkpt lat="47.770489" lon="11.150384">
<ele>582.756</ele>
<time>2022-05-27T11:42:41Z</time>
</trkpt>
<trkpt lat="47.770451" lon="11.15044">
<ele>582.756</ele>
<time>2022-05-27T11:42:42Z</time>
</trkpt>
<trkpt lat="47.770386" lon="11.150557">
<ele>582.756</ele>
<time>2022-05-27T11:42:44Z</time>
</trkpt>
<trkpt lat="47.770351" lon="11.150617">
<ele>582.756</ele>
<time>2022-05-27T11:42:45Z</time>
</trkpt>
<trkpt lat="47.770317" lon="11.150675">
<ele>582.756</ele>
<time>2022-05-27T11:42:46Z</time>
</trkpt>
<trkpt lat="47.770279" lon="11.15073">
<ele>582.756</ele>
<time>2022-05-27T11:42:47Z</time>
</trkpt>
<trkpt lat="47.770245" lon="11.150788">
<ele>582.756</ele>
<time>2022-05-27T11:42:48Z</time>
</trkpt>
<trkpt lat="47.77021" lon="11.15085">
<ele>582.756</ele>
<time>2022-05-27T11:42:49Z</time>
</trkpt>
<trkpt lat="47.770142" lon="11.150965">
<ele>582.756</ele>
<time>2022-05-27T11:42:50Z</time>
</trkpt>
<trkpt lat="47.770103" lon="11.151021">
<ele>582.756</ele>
<time>2022-05-27T11:42:51Z</time>
</trkpt>
<trkpt lat="47.770069" lon="11.151077">
<ele>582.756</ele>
<time>2022-05-27T11:42:52Z</time>
</trkpt>
<trkpt lat="47.770039" lon="11.151128">
<ele>582.756</ele>
<time>2022-05-27T11:42:54Z</time>
</trkpt>
<trkpt lat="47.770004" lon="11.15118">
<ele>582.756</ele>
<time>2022-05-27T11:42:55Z</time>
</trkpt>
<trkpt lat="47.769978" lon="11.151234">
<ele>582.756</ele>
<time>2022-05-27T11:42:56Z</time>
</trkpt>
<trkpt lat="47.76992" lon="11.151328">
<ele>583.196</ele>
<time>2022-05-27T11:42:57Z</time>
</trkpt>
<trkpt lat="47.76989" lon="11.151373">
<ele>583.351</ele>
<time>2022-05-27T11:42:58Z</time>
</trkpt>
<trkpt lat="47.769863" lon="11.151421">
<ele>583.44</ele>
<time>2022-05-27T11:42:59Z</time>
</trkpt>
<trkpt lat="47.769829" lon="11.151468">
<ele>583.777</ele>
<time>2022-05-27T11:43:01Z</time>
</trkpt>
<trkpt lat="47.769798" lon="11.15152">
<ele>584.086</ele>
<time>2022-05-27T11:43:02Z</time>
</trkpt>
<trkpt lat="47.769768" lon="11.151571">
<ele>584.323</ele>
<time>2022-05-27T11:43:03Z</time>
</trkpt>
<trkpt lat="47.769703" lon="11.151676">
<ele>584.614</ele>
<time>2022-05-27T11:43:04Z</time>
</trkpt>
<trkpt lat="47.769672" lon="11.151722">
<ele>584.697</ele>
<time>2022-05-27T11:43:05Z</time>
</trkpt>
<trkpt lat="47.769646" lon="11.151769">
<ele>584.745</ele>
<time>2022-05-27T11:43:06Z</time>
</trkpt>
<trkpt lat="47.769619" lon="11.151812">
<ele>584.768</ele>
<time>2022-05-27T11:43:07Z</time>
</trkpt>
<trkpt lat="47.769588" lon="11.151853">
<ele>584.768</ele>
<time>2022-05-27T11:43:08Z</time>
</trkpt>
<trkpt lat="47.769558" lon="11.1519">
<ele>584.768</ele>
<time>2022-05-27T11:43:10Z</time>
</trkpt>
<trkpt lat="47.769489" lon="11.151991">
<ele>584.981</ele>
<time>2022-05-27T11:43:11Z</time>
</trkpt>
<trkpt lat="47.769451" lon="11.152037">
<ele>585.162</ele>
<time>2022-05-27T11:43:12Z</time>
</trkpt>
<trkpt lat="47.769421" lon="11.152083">
<ele>585.316</ele>
<time>2022-05-27T11:43:13Z</time>
</trkpt>
<trkpt lat="47.769382" lon="11.152137">
<ele>585.434</ele>
<time>2022-05-27T11:43:14Z</time>
</trkpt>
<trkpt lat="47.769344" lon="11.152192">
<ele>585.526</ele>
<time>2022-05-27T11:43:15Z</time>
</trkpt>
<trkpt lat="47.76931" lon="11.152245">
<ele>585.587</ele>
<time>2022-05-27T11:43:16Z</time>
</trkpt>
<trkpt lat="47.769272" lon="11.1523">
<ele>585.625</ele>
<time>2022-05-27T11:43:18Z</time>
</trkpt>
<trkpt lat="47.769241" lon="11.152351">
<ele>585.644</ele>
<time>2022-05-27T11:43:19Z</time>
</trkpt>
<trkpt lat="47.769173" lon="11.152456">
<ele>585.878</ele>
<time>2022-05-27T11:43:21Z</time>
</trkpt>
<trkpt lat="47.769138" lon="11.152509">
<ele>586.097</ele>
<time>2022-05-27T11:43:22Z</time>
</trkpt>
<trkpt lat="47.769104" lon="11.152555">
<ele>586.273</ele>
<time>2022-05-27T11:43:23Z</time>
</trkpt>
<trkpt lat="47.76907" lon="11.152607">
<ele>586.417</ele>
<time>2022-05-27T11:43:24Z</time>
</trkpt>
<trkpt lat="47.769035" lon="11.152657">
<ele>586.531</ele>
<time>2022-05-27T11:43:25Z</time>
</trkpt>
<trkpt lat="47.768997" lon="11.15271">
<ele>586.613</ele>
<time>2022-05-27T11:43:26Z</time>
</trkpt>
<trkpt lat="47.768959" lon="11.152758">
<ele>586.665</ele>
<time>2022-05-27T11:43:27Z</time>
</trkpt>
<trkpt lat="47.768887" lon="11.152848">
<ele>587.217</ele>
<time>2022-05-27T11:43:28Z</time>
</trkpt>
<trkpt lat="47.768848" lon="11.152891">
<ele>587.396</ele>
<time>2022-05-27T11:43:29Z</time>
</trkpt>
<trkpt lat="47.768818" lon="11.152929">
<ele>587.519</ele>
<time>2022-05-27T11:43:30Z</time>
</trkpt>
<trkpt lat="47.76878" lon="11.152978">
<ele>587.647</ele>
<time>2022-05-27T11:43:32Z</time>
</trkpt>
<trkpt lat="47.7687" lon="11.153076">
<ele>587.799</ele>
<time>2022-05-27T11:43:33Z</time>
</trkpt>
<trkpt lat="47.768658" lon="11.153129">
<ele>588.07</ele>
<time>2022-05-27T11:43:34Z</time>
</trkpt>
<trkpt lat="47.768623" lon="11.153176">
<ele>588.317</ele>
<time>2022-05-27T11:43:35Z</time>
</trkpt>
<trkpt lat="47.768589" lon="11.153229">
<ele>588.483</ele>
<time>2022-05-27T11:43:36Z</time>
</trkpt>
<trkpt lat="47.768551" lon="11.153279">
<ele>588.601</ele>
<time>2022-05-27T11:43:38Z</time>
</trkpt>
<trkpt lat="47.768478" lon="11.153385">
<ele>588.727</ele>
<time>2022-05-27T11:43:39Z</time>
</trkpt>
<trkpt lat="47.76844" lon="11.153439">
<ele>588.769</ele>
<time>2022-05-27T11:43:41Z</time>
</trkpt>
<trkpt lat="47.768372" lon="11.153535">
<ele>588.795</ele>
<time>2022-05-27T11:43:43Z</time>
</trkpt>
<trkpt lat="47.768299" lon="11.153628">
<ele>588.795</ele>
<time>2022-05-27T11:43:44Z</time>
</trkpt>
<trkpt lat="47.768265" lon="11.153679">
<ele>588.795</ele>
<time>2022-05-27T11:43:45Z</time>
</trkpt>
<trkpt lat="47.768227" lon="11.153728">
<ele>588.795</ele>
<time>2022-05-27T11:43:46Z</time>
</trkpt>
<trkpt lat="47.768192" lon="11.153778">
<ele>588.795</ele>
<time>2022-05-27T11:43:47Z</time>
</trkpt>
<trkpt lat="47.768158" lon="11.153829">
<ele>588.795</ele>
<time>2022-05-27T11:43:49Z</time>
</trkpt>
<trkpt lat="47.768124" lon="11.153882">
<ele>588.795</ele>
<time>2022-05-27T11:43:50Z</time>
</trkpt>
<trkpt lat="47.768047" lon="11.153983">
<ele>588.795</ele>
<time>2022-05-27T11:43:52Z</time>
</trkpt>
<trkpt lat="47.767975" lon="11.15409">
<ele>588.795</ele>
<time>2022-05-27T11:43:54Z</time>
</trkpt>
<trkpt lat="47.767941" lon="11.154148">
<ele>588.795</ele>
<time>2022-05-27T11:43:55Z</time>
</trkpt>
<trkpt lat="47.767906" lon="11.154205">
<ele>588.795</ele>
<time>2022-05-27T11:43:56Z</time>
</trkpt>
<trkpt lat="47.767838" lon="11.154323">
<ele>588.795</ele>
<time>2022-05-27T11:43:57Z</time>
</trkpt>
<trkpt lat="47.767803" lon="11.15438">
<ele>588.795</ele>
<time>2022-05-27T11:43:59Z</time>
</trkpt>
<trkpt lat="47.767769" lon="11.154438">
<ele>588.795</ele>
<time>2022-05-27T11:44:00Z</time>
</trkpt>
<trkpt lat="47.767696" lon="11.154562">
<ele>588.795</ele>
<time>2022-05-27T11:44:01Z</time>
</trkpt>
<trkpt lat="47.767662" lon="11.15462">
<ele>588.795</ele>
<time>2022-05-27T11:44:03Z</time>
</trkpt>
<trkpt lat="47.767597" lon="11.154743">
<ele>588.795</ele>
<time>2022-05-27T11:44:04Z</time>
</trkpt>
<trkpt lat="47.76757" lon="11.15481">
<ele>588.795</ele>
<time>2022-05-27T11:44:06Z</time>
</trkpt>
<trkpt lat="47.767525" lon="11.154941">
<ele>588.795</ele>
<time>2022-05-27T11:44:07Z</time>
</trkpt>
<trkpt lat="47.767506" lon="11.155005">
<ele>588.795</ele>
<time>2022-05-27T11:44:08Z</time>
</trkpt>
<trkpt lat="47.76749" lon="11.155068">
<ele>588.795</ele>
<time>2022-05-27T11:44:09Z</time>
</trkpt>
<trkpt lat="47.767483" lon="11.155131">
<ele>588.794</ele>
<time>2022-05-27T11:44:11Z</time>
</trkpt>
<trkpt lat="47.767456" lon="11.155259">
<ele>589.071</ele>
<time>2022-05-27T11:44:12Z</time>
</trkpt>
<trkpt lat="47.767452" lon="11.155327">
<ele>589.292</ele>
<time>2022-05-27T11:44:13Z</time>
</trkpt>
<trkpt lat="47.767445" lon="11.155394">
<ele>589.465</ele>
<time>2022-05-27T11:44:14Z</time>
</trkpt>
<trkpt lat="47.767437" lon="11.155457">
<ele>589.585</ele>
<time>2022-05-27T11:44:16Z</time>
</trkpt>
<trkpt lat="47.767429" lon="11.15559">
<ele>589.733</ele>
<time>2022-05-27T11:44:17Z</time>
</trkpt>
<trkpt lat="47.767426" lon="11.155657">
<ele>589.757</ele>
<time>2022-05-27T11:44:19Z</time>
</trkpt>
<trkpt lat="47.76741" lon="11.155777">
<ele>589.758</ele>
<time>2022-05-27T11:44:21Z</time>
</trkpt>
<trkpt lat="47.767399" lon="11.155825">
<ele>589.757</ele>
<time>2022-05-27T11:44:22Z</time>
</trkpt>
<trkpt lat="47.767384" lon="11.155915">
<ele>590.019</ele>
<time>2022-05-27T11:44:23Z</time>
</trkpt>
<trkpt lat="47.767376" lon="11.155954">
<ele>590.221</ele>
<time>2022-05-27T11:44:25Z</time>
</trkpt>
<trkpt lat="47.767357" lon="11.156032">
<ele>590.507</ele>
<time>2022-05-27T11:44:27Z</time>
</trkpt>
<trkpt lat="47.767345" lon="11.156089">
<ele>590.659</ele>
<time>2022-05-27T11:44:29Z</time>
</trkpt>
<trkpt lat="47.767342" lon="11.156122">
<ele>590.72</ele>
<time>2022-05-27T11:44:30Z</time>
</trkpt>
<trkpt lat="47.767342" lon="11.15613">
<ele>590.72</ele>
<time>2022-05-27T11:44:31Z</time>
</trkpt>
<trkpt lat="47.767342" lon="11.156138">
<ele>590.72</ele>
<time>2022-05-27T11:44:33Z</time>
</trkpt>
<trkpt lat="47.767342" lon="11.156148">
<ele>590.72</ele>
<time>2022-05-27T11:44:34Z</time>
</trkpt>
<trkpt lat="47.767326" lon="11.156219">
<ele>590.72</ele>
<time>2022-05-27T11:44:51Z</time>
</trkpt>
<trkpt lat="47.767319" lon="11.156245">
<ele>590.72</ele>
<time>2022-05-27T11:44:53Z</time>
</trkpt>
<trkpt lat="47.767307" lon="11.156319">
<ele>590.72</ele>
<time>2022-05-27T11:44:55Z</time>
</trkpt>
<trkpt lat="47.767307" lon="11.15636">
<ele>590.72</ele>
<time>2022-05-27T11:44:56Z</time>
</trkpt>
<trkpt lat="47.767292" lon="11.156405">
<ele>590.72</ele>
<time>2022-05-27T11:44:57Z</time>
</trkpt>
<trkpt lat="47.767281" lon="11.156446">
<ele>590.72</ele>
<time>2022-05-27T11:44:58Z</time>
</trkpt>
<trkpt lat="47.767254" lon="11.15652">
<ele>590.72</ele>
<time>2022-05-27T11:44:59Z</time>
</trkpt>
<trkpt lat="47.767239" lon="11.156558">
<ele>590.72</ele>
<time>2022-05-27T11:45:00Z</time>
</trkpt>
<trkpt lat="47.767223" lon="11.156596">
<ele>590.72</ele>
<time>2022-05-27T11:45:02Z</time>
</trkpt>
<trkpt lat="47.767193" lon="11.156658">
<ele>590.72</ele>
<time>2022-05-27T11:45:03Z</time>
</trkpt>
<trkpt lat="47.767181" lon="11.156693">
<ele>590.72</ele>
<time>2022-05-27T11:45:05Z</time>
</trkpt>
<trkpt lat="47.767166" lon="11.156728">
<ele>590.72</ele>
<time>2022-05-27T11:45:06Z</time>
</trkpt>
<trkpt lat="47.767128" lon="11.156808">
<ele>591.103</ele>
<time>2022-05-27T11:45:07Z</time>
</trkpt>
<trkpt lat="47.767109" lon="11.156856">
<ele>591.257</ele>
<time>2022-05-27T11:45:08Z</time>
</trkpt>
<trkpt lat="47.767086" lon="11.156901">
<ele>591.384</ele>
<time>2022-05-27T11:45:10Z</time>
</trkpt>
<trkpt lat="47.767044" lon="11.156999">
<ele>591.543</ele>
<time>2022-05-27T11:45:11Z</time>
</trkpt>
<trkpt lat="47.767021" lon="11.157043">
<ele>591.579</ele>
<time>2022-05-27T11:45:13Z</time>
</trkpt>
<trkpt lat="47.766975" lon="11.157128">
<ele>591.596</ele>
<time>2022-05-27T11:45:15Z</time>
</trkpt>
<trkpt lat="47.766953" lon="11.157168">
<ele>591.596</ele>
<time>2022-05-27T11:45:16Z</time>
</trkpt>
<trkpt lat="47.766899" lon="11.157258">
<ele>591.596</ele>
<time>2022-05-27T11:45:17Z</time>
</trkpt>
<trkpt lat="47.766872" lon="11.1573">
<ele>591.596</ele>
<time>2022-05-27T11:45:18Z</time>
</trkpt>
<trkpt lat="47.766853" lon="11.15734">
<ele>591.596</ele>
<time>2022-05-27T11:45:19Z</time>
</trkpt>
<trkpt lat="47.766827" lon="11.15738">
<ele>591.596</ele>
<time>2022-05-27T11:45:20Z</time>
</trkpt>
<trkpt lat="47.766804" lon="11.157413">
<ele>591.596</ele>
<time>2022-05-27T11:45:22Z</time>
</trkpt>
<trkpt lat="47.766777" lon="11.157449">
<ele>591.847</ele>
<time>2022-05-27T11:45:23Z</time>
</trkpt>
<trkpt lat="47.766724" lon="11.157526">
<ele>592.193</ele>
<time>2022-05-27T11:45:25Z</time>
</trkpt>
<trkpt lat="47.766659" lon="11.157601">
<ele>592.397</ele>
<time>2022-05-27T11:45:26Z</time>
</trkpt>
<trkpt lat="47.766624" lon="11.157633">
<ele>592.48</ele>
<time>2022-05-27T11:45:27Z</time>
</trkpt>
<trkpt lat="47.766586" lon="11.157668">
<ele>592.779</ele>
<time>2022-05-27T11:45:29Z</time>
</trkpt>
<trkpt lat="47.766521" lon="11.157733">
<ele>593.254</ele>
<time>2022-05-27T11:45:31Z</time>
</trkpt>
<trkpt lat="47.766457" lon="11.157795">
<ele>593.443</ele>
<time>2022-05-27T11:45:33Z</time>
</trkpt>
<trkpt lat="47.766384" lon="11.157851">
<ele>593.518</ele>
<time>2022-05-27T11:45:35Z</time>
</trkpt>
<trkpt lat="47.766342" lon="11.157907">
<ele>593.523</ele>
<time>2022-05-27T11:45:36Z</time>
</trkpt>
<trkpt lat="47.766266" lon="11.158023">
<ele>593.523</ele>
<time>2022-05-27T11:45:37Z</time>
</trkpt>
<trkpt lat="47.766228" lon="11.158087">
<ele>593.523</ele>
<time>2022-05-27T11:45:39Z</time>
</trkpt>
<trkpt lat="47.766155" lon="11.158218">
<ele>593.523</ele>
<time>2022-05-27T11:45:40Z</time>
</trkpt>
<trkpt lat="47.766125" lon="11.158282">
<ele>593.523</ele>
<time>2022-05-27T11:45:42Z</time>
</trkpt>
<trkpt lat="47.766102" lon="11.158349">
<ele>593.523</ele>
<time>2022-05-27T11:45:43Z</time>
</trkpt>
<trkpt lat="47.766064" lon="11.158482">
<ele>593.523</ele>
<time>2022-05-27T11:45:44Z</time>
</trkpt>
<trkpt lat="47.766045" lon="11.158536">
<ele>593.523</ele>
<time>2022-05-27T11:45:46Z</time>
</trkpt>
<trkpt lat="47.765995" lon="11.158648">
<ele>593.523</ele>
<time>2022-05-27T11:45:48Z</time>
</trkpt>
<trkpt lat="47.765953" lon="11.158745">
<ele>593.523</ele>
<time>2022-05-27T11:45:50Z</time>
</trkpt>
<trkpt lat="47.765923" lon="11.158767">
<ele>593.523</ele>
<time>2022-05-27T11:45:51Z</time>
</trkpt>
<trkpt lat="47.765854" lon="11.15878">
<ele>593.926</ele>
<time>2022-05-27T11:45:52Z</time>
</trkpt>
<trkpt lat="47.765812" lon="11.158792">
<ele>594.071</ele>
<time>2022-05-27T11:45:54Z</time>
</trkpt>
<trkpt lat="47.765724" lon="11.158816">
<ele>594.259</ele>
<time>2022-05-27T11:45:55Z</time>
</trkpt>
<trkpt lat="47.765678" lon="11.158835">
<ele>594.322</ele>
<time>2022-05-27T11:45:57Z</time>
</trkpt>
<trkpt lat="47.765587" lon="11.158872">
<ele>594.399</ele>
<time>2022-05-27T11:45:59Z</time>
</trkpt>
<trkpt lat="47.765549" lon="11.158875">
<ele>594.399</ele>
<time>2022-05-27T11:46:00Z</time>
</trkpt>
<trkpt lat="47.765461" lon="11.158905">
<ele>594.399</ele>
<time>2022-05-27T11:46:01Z</time>
</trkpt>
<trkpt lat="47.765411" lon="11.158919">
<ele>594.399</ele>
<time>2022-05-27T11:46:02Z</time>
</trkpt>
<trkpt lat="47.765366" lon="11.158934">
<ele>594.399</ele>
<time>2022-05-27T11:46:04Z</time>
</trkpt>
<trkpt lat="47.765285" lon="11.158974">
<ele>594.399</ele>
<time>2022-05-27T11:46:05Z</time>
</trkpt>
<trkpt lat="47.765247" lon="11.158988">
<ele>594.399</ele>
<time>2022-05-27T11:46:07Z</time>
</trkpt>
<trkpt lat="47.765171" lon="11.159028">
<ele>594.399</ele>
<time>2022-05-27T11:46:08Z</time>
</trkpt>
<trkpt lat="47.765129" lon="11.159053">
<ele>594.399</ele>
<time>2022-05-27T11:46:09Z</time>
</trkpt>
<trkpt lat="47.765087" lon="11.159075">
<ele>594.399</ele>
<time>2022-05-27T11:46:10Z</time>
</trkpt>
<trkpt lat="47.765049" lon="11.159099">
<ele>594.399</ele>
<time>2022-05-27T11:46:11Z</time>
</trkpt>
<trkpt lat="47.765007" lon="11.159122">
<ele>594.399</ele>
<time>2022-05-27T11:46:12Z</time>
</trkpt>
<trkpt lat="47.764961" lon="11.159154">
<ele>594.399</ele>
<time>2022-05-27T11:46:13Z</time>
</trkpt>
<trkpt lat="47.764912" lon="11.159184">
<ele>594.399</ele>
<time>2022-05-27T11:46:14Z</time>
</trkpt>
<trkpt lat="47.764866" lon="11.159215">
<ele>594.399</ele>
<time>2022-05-27T11:46:15Z</time>
</trkpt>
<trkpt lat="47.764816" lon="11.159255">
<ele>594.399</ele>
<time>2022-05-27T11:46:16Z</time>
</trkpt>
<trkpt lat="47.764774" lon="11.159286">
<ele>594.399</ele>
<time>2022-05-27T11:46:17Z</time>
</trkpt>
<trkpt lat="47.764725" lon="11.159315">
<ele>594.399</ele>
<time>2022-05-27T11:46:18Z</time>
</trkpt>
<trkpt lat="47.764679" lon="11.159342">
<ele>594.399</ele>
<time>2022-05-27T11:46:19Z</time>
</trkpt>
<trkpt lat="47.764629" lon="11.159369">
<ele>594.15</ele>
<time>2022-05-27T11:46:21Z</time>
</trkpt>
<trkpt lat="47.764523" lon="11.159438">
<ele>593.815</ele>
<time>2022-05-27T11:46:22Z</time>
</trkpt>
<trkpt lat="47.764473" lon="11.159472">
<ele>593.708</ele>
<time>2022-05-27T11:46:23Z</time>
</trkpt>
<trkpt lat="47.764416" lon="11.159508">
<ele>593.634</ele>
<time>2022-05-27T11:46:24Z</time>
</trkpt>
<trkpt lat="47.764362" lon="11.159539">
<ele>593.581</ele>
<time>2022-05-27T11:46:26Z</time>
</trkpt>
<trkpt lat="47.764263" lon="11.159595">
<ele>593.523</ele>
<time>2022-05-27T11:46:27Z</time>
</trkpt>
<trkpt lat="47.764214" lon="11.159625">
<ele>593.523</ele>
<time>2022-05-27T11:46:28Z</time>
</trkpt>
<trkpt lat="47.76416" lon="11.15965">
<ele>593.523</ele>
<time>2022-05-27T11:46:29Z</time>
</trkpt>
<trkpt lat="47.764107" lon="11.159678">
<ele>593.523</ele>
<time>2022-05-27T11:46:30Z</time>
</trkpt>
<trkpt lat="47.764061" lon="11.159707">
<ele>593.523</ele>
<time>2022-05-27T11:46:32Z</time>
</trkpt>
<trkpt lat="47.763962" lon="11.159763">
<ele>593.523</ele>
<time>2022-05-27T11:46:33Z</time>
</trkpt>
<trkpt lat="47.76392" lon="11.159788">
<ele>593.523</ele>
<time>2022-05-27T11:46:34Z</time>
</trkpt>
<trkpt lat="47.763878" lon="11.15981">
<ele>593.523</ele>
<time>2022-05-27T11:46:35Z</time>
</trkpt>
<trkpt lat="47.763836" lon="11.159828">
<ele>593.729</ele>
<time>2022-05-27T11:46:37Z</time>
</trkpt>
<trkpt lat="47.763767" lon="11.159862">
<ele>594.084</ele>
<time>2022-05-27T11:46:38Z</time>
</trkpt>
<trkpt lat="47.763729" lon="11.159879">
<ele>594.218</ele>
<time>2022-05-27T11:46:40Z</time>
</trkpt>
<trkpt lat="47.763653" lon="11.159921">
<ele>594.407</ele>
<time>2022-05-27T11:46:42Z</time>
</trkpt>
<trkpt lat="47.763577" lon="11.159971">
<ele>594.486</ele>
<time>2022-05-27T11:46:43Z</time>
</trkpt>
<trkpt lat="47.763538" lon="11.159998">
<ele>594.486</ele>
<time>2022-05-27T11:46:45Z</time>
</trkpt>
<trkpt lat="47.763466" lon="11.16004">
<ele>594.486</ele>
<time>2022-05-27T11:46:46Z</time>
</trkpt>
<trkpt lat="47.763432" lon="11.160053">
<ele>594.486</ele>
<time>2022-05-27T11:46:48Z</time>
</trkpt>
<trkpt lat="47.763363" lon="11.160076">
<ele>594.486</ele>
<time>2022-05-27T11:46:50Z</time>
</trkpt>
<trkpt lat="47.763302" lon="11.16011">
<ele>594.486</ele>
<time>2022-05-27T11:46:51Z</time>
</trkpt>
<trkpt lat="47.763279" lon="11.160129">
<ele>594.486</ele>
<time>2022-05-27T11:46:52Z</time>
</trkpt>
<trkpt lat="47.76326" lon="11.160143">
<ele>594.486</ele>
<time>2022-05-27T11:46:54Z</time>
</trkpt>
<trkpt lat="47.763237" lon="11.160187">
<ele>594.486</ele>
<time>2022-05-27T11:46:56Z</time>
</trkpt>
<trkpt lat="47.763218" lon="11.16022">
<ele>594.486</ele>
<time>2022-05-27T11:46:57Z</time>
</trkpt>
<trkpt lat="47.76318" lon="11.160305">
<ele>594.486</ele>
<time>2022-05-27T11:46:59Z</time>
</trkpt>
<trkpt lat="47.763149" lon="11.160405">
<ele>594.486</ele>
<time>2022-05-27T11:47:00Z</time>
</trkpt>
<trkpt lat="47.763138" lon="11.160453">
<ele>594.486</ele>
<time>2022-05-27T11:47:01Z</time>
</trkpt>
<trkpt lat="47.763126" lon="11.160497">
<ele>594.486</ele>
<time>2022-05-27T11:47:02Z</time>
</trkpt>
<trkpt lat="47.763115" lon="11.160543">
<ele>594.486</ele>
<time>2022-05-27T11:47:03Z</time>
</trkpt>
<trkpt lat="47.763107" lon="11.160595">
<ele>594.486</ele>
<time>2022-05-27T11:47:05Z</time>
</trkpt>
<trkpt lat="47.763088" lon="11.160689">
<ele>594.486</ele>
<time>2022-05-27T11:47:06Z</time>
</trkpt>
<trkpt lat="47.763084" lon="11.160733">
<ele>594.486</ele>
<time>2022-05-27T11:47:07Z</time>
</trkpt>
<trkpt lat="47.763073" lon="11.160771">
<ele>594.486</ele>
<time>2022-05-27T11:47:08Z</time>
</trkpt>
<trkpt lat="47.763062" lon="11.160805">
<ele>594.486</ele>
<time>2022-05-27T11:47:09Z</time>
</trkpt>
<trkpt lat="47.76305" lon="11.160827">
<ele>594.486</ele>
<time>2022-05-27T11:47:10Z</time>
</trkpt>
<trkpt lat="47.763031" lon="11.160838">
<ele>594.486</ele>
<time>2022-05-27T11:47:11Z</time>
</trkpt>
<trkpt lat="47.763016" lon="11.160847">
<ele>594.486</ele>
<time>2022-05-27T11:47:12Z</time>
</trkpt>
<trkpt lat="47.762997" lon="11.160851">
<ele>594.486</ele>
<time>2022-05-27T11:47:13Z</time>
</trkpt>
<trkpt lat="47.762978" lon="11.160851">
<ele>594.486</ele>
<time>2022-05-27T11:47:15Z</time>
</trkpt>
<trkpt lat="47.762924" lon="11.160845">
<ele>594.486</ele>
<time>2022-05-27T11:47:16Z</time>
</trkpt>
<trkpt lat="47.762897" lon="11.160834">
<ele>594.486</ele>
<time>2022-05-27T11:47:17Z</time>
</trkpt>
<trkpt lat="47.762863" lon="11.160818">
<ele>594.486</ele>
<time>2022-05-27T11:47:18Z</time>
</trkpt>
<trkpt lat="47.762829" lon="11.160796">
<ele>594.486</ele>
<time>2022-05-27T11:47:19Z</time>
</trkpt>
<trkpt lat="47.762787" lon="11.160769">
<ele>594.486</ele>
<time>2022-05-27T11:47:20Z</time>
</trkpt>
<trkpt lat="47.762745" lon="11.16075">
<ele>594.486</ele>
<time>2022-05-27T11:47:22Z</time>
</trkpt>
<trkpt lat="47.762703" lon="11.160747">
<ele>594.486</ele>
<time>2022-05-27T11:47:23Z</time>
</trkpt>
<trkpt lat="47.762615" lon="11.160763">
<ele>594.486</ele>
<time>2022-05-27T11:47:25Z</time>
</trkpt>
<trkpt lat="47.762524" lon="11.16076">
<ele>594.486</ele>
<time>2022-05-27T11:47:26Z</time>
</trkpt>
<trkpt lat="47.762482" lon="11.160758">
<ele>594.703</ele>
<time>2022-05-27T11:47:28Z</time>
</trkpt>
<trkpt lat="47.762398" lon="11.160758">
<ele>595.263</ele>
<time>2022-05-27T11:47:29Z</time>
</trkpt>
<trkpt lat="47.762356" lon="11.160763">
<ele>595.6</ele>
<time>2022-05-27T11:47:31Z</time>
</trkpt>
<trkpt lat="47.762272" lon="11.160786">
<ele>596.07</ele>
<time>2022-05-27T11:47:32Z</time>
</trkpt>
<trkpt lat="47.76223" lon="11.1608">
<ele>596.229</ele>
<time>2022-05-27T11:47:33Z</time>
</trkpt>
<trkpt lat="47.762188" lon="11.160813">
<ele>596.335</ele>
<time>2022-05-27T11:47:34Z</time>
</trkpt>
<trkpt lat="47.762146" lon="11.16083">
<ele>596.388</ele>
<time>2022-05-27T11:47:35Z</time>
</trkpt>
<trkpt lat="47.762104" lon="11.160845">
<ele>596.413</ele>
<time>2022-05-27T11:47:36Z</time>
</trkpt>
<trkpt lat="47.76207" lon="11.160859">
<ele>596.413</ele>
<time>2022-05-27T11:47:37Z</time>
</trkpt>
<trkpt lat="47.762028" lon="11.160873">
<ele>596.413</ele>
<time>2022-05-27T11:47:38Z</time>
</trkpt>
<trkpt lat="47.761986" lon="11.160889">
<ele>596.413</ele>
<time>2022-05-27T11:47:39Z</time>
</trkpt>
<trkpt lat="47.761948" lon="11.160903">
<ele>596.413</ele>
<time>2022-05-27T11:47:40Z</time>
</trkpt>
<trkpt lat="47.761909" lon="11.160924">
<ele>596.413</ele>
<time>2022-05-27T11:47:41Z</time>
</trkpt>
<trkpt lat="47.761875" lon="11.160938">
<ele>596.413</ele>
<time>2022-05-27T11:47:42Z</time>
</trkpt>
<trkpt lat="47.761833" lon="11.160955">
<ele>596.413</ele>
<time>2022-05-27T11:47:43Z</time>
</trkpt>
<trkpt lat="47.761791" lon="11.16097">
<ele>596.413</ele>
<time>2022-05-27T11:47:44Z</time>
</trkpt>
<trkpt lat="47.761745" lon="11.160987">
<ele>596.715</ele>
<time>2022-05-27T11:47:45Z</time>
</trkpt>
<trkpt lat="47.761707" lon="11.161008">
<ele>596.928</ele>
<time>2022-05-27T11:47:47Z</time>
</trkpt>
<trkpt lat="47.761627" lon="11.161052">
<ele>597.327</ele>
<time>2022-05-27T11:47:49Z</time>
</trkpt>
<trkpt lat="47.761547" lon="11.161098">
<ele>597.554</ele>
<time>2022-05-27T11:47:50Z</time>
</trkpt>
<trkpt lat="47.761505" lon="11.161121">
<ele>597.611</ele>
<time>2022-05-27T11:47:51Z</time>
</trkpt>
<trkpt lat="47.761459" lon="11.161152">
<ele>597.64</ele>
<time>2022-05-27T11:47:52Z</time>
</trkpt>
<trkpt lat="47.761417" lon="11.161183">
<ele>597.64</ele>
<time>2022-05-27T11:47:53Z</time>
</trkpt>
<trkpt lat="47.761364" lon="11.16121">
<ele>597.64</ele>
<time>2022-05-27T11:47:55Z</time>
</trkpt>
<trkpt lat="47.761269" lon="11.16126">
<ele>597.64</ele>
<time>2022-05-27T11:47:57Z</time>
</trkpt>
<trkpt lat="47.761227" lon="11.161288">
<ele>597.64</ele>
<time>2022-05-27T11:47:58Z</time>
</trkpt>
<trkpt lat="47.761131" lon="11.161342">
<ele>597.64</ele>
<time>2022-05-27T11:47:59Z</time>
</trkpt>
<trkpt lat="47.761086" lon="11.161373">
<ele>597.64</ele>
<time>2022-05-27T11:48:00Z</time>
</trkpt>
<trkpt lat="47.76104" lon="11.1614">
<ele>597.64</ele>
<time>2022-05-27T11:48:01Z</time>
</trkpt>
<trkpt lat="47.760998" lon="11.161425">
<ele>597.64</ele>
<time>2022-05-27T11:48:02Z</time>
</trkpt>
<trkpt lat="47.760956" lon="11.161448">
<ele>597.64</ele>
<time>2022-05-27T11:48:04Z</time>
</trkpt>
<trkpt lat="47.760864" lon="11.161498">
<ele>597.64</ele>
<time>2022-05-27T11:48:06Z</time>
</trkpt>
<trkpt lat="47.760769" lon="11.161551">
<ele>598.052</ele>
<time>2022-05-27T11:48:07Z</time>
</trkpt>
<trkpt lat="47.760727" lon="11.16158">
<ele>598.222</ele>
<time>2022-05-27T11:48:08Z</time>
</trkpt>
<trkpt lat="47.760677" lon="11.161607">
<ele>598.361</ele>
<time>2022-05-27T11:48:09Z</time>
</trkpt>
<trkpt lat="47.760639" lon="11.161634">
<ele>598.463</ele>
<time>2022-05-27T11:48:10Z</time>
</trkpt>
<trkpt lat="47.760597" lon="11.161663">
<ele>598.535</ele>
<time>2022-05-27T11:48:11Z</time>
</trkpt>
<trkpt lat="47.760555" lon="11.161691">
<ele>598.58</ele>
<time>2022-05-27T11:48:12Z</time>
</trkpt>
<trkpt lat="47.760521" lon="11.161714">
<ele>598.604</ele>
<time>2022-05-27T11:48:13Z</time>
</trkpt>
<trkpt lat="47.760487" lon="11.161727">
<ele>598.604</ele>
<time>2022-05-27T11:48:14Z</time>
</trkpt>
<trkpt lat="47.760456" lon="11.161731">
<ele>598.821</ele>
<time>2022-05-27T11:48:16Z</time>
</trkpt>
<trkpt lat="47.760422" lon="11.161723">
<ele>598.984</ele>
<time>2022-05-27T11:48:17Z</time>
</trkpt>
<trkpt lat="47.760353" lon="11.161722">
<ele>599.288</ele>
<time>2022-05-27T11:48:18Z</time>
</trkpt>
<trkpt lat="47.760315" lon="11.161725">
<ele>599.401</ele>
<time>2022-05-27T11:48:19Z</time>
</trkpt>
<trkpt lat="47.760281" lon="11.161735">
<ele>599.487</ele>
<time>2022-05-27T11:48:21Z</time>
</trkpt>
<trkpt lat="47.760201" lon="11.16176">
<ele>599.568</ele>
<time>2022-05-27T11:48:23Z</time>
</trkpt>
<trkpt lat="47.760159" lon="11.161763">
<ele>599.568</ele>
<time>2022-05-27T11:48:24Z</time>
</trkpt>
<trkpt lat="47.760067" lon="11.161768">
<ele>599.567</ele>
<time>2022-05-27T11:48:25Z</time>
</trkpt>
<trkpt lat="47.760021" lon="11.161781">
<ele>599.772</ele>
<time>2022-05-27T11:48:27Z</time>
</trkpt>
<trkpt lat="47.759979" lon="11.1618">
<ele>599.961</ele>
<time>2022-05-27T11:48:28Z</time>
</trkpt>
<trkpt lat="47.759937" lon="11.161817">
<ele>600.112</ele>
<time>2022-05-27T11:48:29Z</time>
</trkpt>
<trkpt lat="47.759853" lon="11.161857">
<ele>600.318</ele>
<time>2022-05-27T11:48:31Z</time>
</trkpt>
<trkpt lat="47.759766" lon="11.161897">
<ele>600.423</ele>
<time>2022-05-27T11:48:33Z</time>
</trkpt>
<trkpt lat="47.75967" lon="11.161923">
<ele>600.444</ele>
<time>2022-05-27T11:48:34Z</time>
</trkpt>
<trkpt lat="47.759624" lon="11.161937">
<ele>600.444</ele>
<time>2022-05-27T11:48:36Z</time>
</trkpt>
<trkpt lat="47.759529" lon="11.16196">
<ele>600.444</ele>
<time>2022-05-27T11:48:38Z</time>
</trkpt>
<trkpt lat="47.75943" lon="11.161983">
<ele>600.727</ele>
<time>2022-05-27T11:48:39Z</time>
</trkpt>
<trkpt lat="47.759384" lon="11.16199">
<ele>600.944</ele>
<time>2022-05-27T11:48:40Z</time>
</trkpt>
<trkpt lat="47.759335" lon="11.161997">
<ele>601.107</ele>
<time>2022-05-27T11:48:42Z</time>
</trkpt>
<trkpt lat="47.759289" lon="11.162004">
<ele>601.227</ele>
<time>2022-05-27T11:48:43Z</time>
</trkpt>
<trkpt lat="47.759193" lon="11.162011">
<ele>601.361</ele>
<time>2022-05-27T11:48:44Z</time>
</trkpt>
<trkpt lat="47.759144" lon="11.162015">
<ele>601.385</ele>
<time>2022-05-27T11:48:45Z</time>
</trkpt>
<trkpt lat="47.759098" lon="11.162015">
<ele>601.408</ele>
<time>2022-05-27T11:48:46Z</time>
</trkpt>
<trkpt lat="47.759048" lon="11.162011">
<ele>601.642</ele>
<time>2022-05-27T11:48:47Z</time>
</trkpt>
<trkpt lat="47.759003" lon="11.162005">
<ele>601.84</ele>
<time>2022-05-27T11:48:48Z</time>
</trkpt>
<trkpt lat="47.758953" lon="11.161999">
<ele>602.003</ele>
<time>2022-05-27T11:48:49Z</time>
</trkpt>
<trkpt lat="47.758911" lon="11.16199">
<ele>602.133</ele>
<time>2022-05-27T11:48:50Z</time>
</trkpt>
<trkpt lat="47.758865" lon="11.16198">
<ele>602.232</ele>
<time>2022-05-27T11:48:51Z</time>
</trkpt>
<trkpt lat="47.758816" lon="11.161972">
<ele>602.304</ele>
<time>2022-05-27T11:48:52Z</time>
</trkpt>
<trkpt lat="47.758778" lon="11.161962">
<ele>602.35</ele>
<time>2022-05-27T11:48:53Z</time>
</trkpt>
<trkpt lat="47.758732" lon="11.16195">
<ele>602.372</ele>
<time>2022-05-27T11:48:54Z</time>
</trkpt>
<trkpt lat="47.75869" lon="11.161939">
<ele>602.372</ele>
<time>2022-05-27T11:48:55Z</time>
</trkpt>
<trkpt lat="47.758652" lon="11.161923">
<ele>602.372</ele>
<time>2022-05-27T11:48:56Z</time>
</trkpt>
<trkpt lat="47.75861" lon="11.161906">
<ele>602.372</ele>
<time>2022-05-27T11:48:57Z</time>
</trkpt>
<trkpt lat="47.758572" lon="11.16189">
<ele>602.704</ele>
<time>2022-05-27T11:48:58Z</time>
</trkpt>
<trkpt lat="47.758526" lon="11.161875">
<ele>602.968</ele>
<time>2022-05-27T11:49:00Z</time>
</trkpt>
<trkpt lat="47.75845" lon="11.161839">
<ele>603.312</ele>
<time>2022-05-27T11:49:01Z</time>
</trkpt>
<trkpt lat="47.758404" lon="11.161823">
<ele>603.415</ele>
<time>2022-05-27T11:49:03Z</time>
</trkpt>
<trkpt lat="47.758316" lon="11.161787">
<ele>603.506</ele>
<time>2022-05-27T11:49:04Z</time>
</trkpt>
<trkpt lat="47.75827" lon="11.161768">
<ele>603.512</ele>
<time>2022-05-27T11:49:05Z</time>
</trkpt>
<trkpt lat="47.758224" lon="11.161747">
<ele>603.512</ele>
<time>2022-05-27T11:49:06Z</time>
</trkpt>
<trkpt lat="47.758183" lon="11.161731">
<ele>603.512</ele>
<time>2022-05-27T11:49:08Z</time>
</trkpt>
<trkpt lat="47.758137" lon="11.161712">
<ele>603.512</ele>
<time>2022-05-27T11:49:09Z</time>
</trkpt>
<trkpt lat="47.758049" lon="11.161678">
<ele>603.512</ele>
<time>2022-05-27T11:49:10Z</time>
</trkpt>
<trkpt lat="47.758007" lon="11.161658">
<ele>603.512</ele>
<time>2022-05-27T11:49:11Z</time>
</trkpt>
<trkpt lat="47.757965" lon="11.161638">
<ele>603.512</ele>
<time>2022-05-27T11:49:12Z</time>
</trkpt>
<trkpt lat="47.757923" lon="11.161618">
<ele>603.512</ele>
<time>2022-05-27T11:49:13Z</time>
</trkpt>
<trkpt lat="47.757881" lon="11.161596">
<ele>603.512</ele>
<time>2022-05-27T11:49:14Z</time>
</trkpt>
<trkpt lat="47.757839" lon="11.161575">
<ele>603.512</ele>
<time>2022-05-27T11:49:15Z</time>
</trkpt>
<trkpt lat="47.757801" lon="11.161555">
<ele>603.512</ele>
<time>2022-05-27T11:49:16Z</time>
</trkpt>
<trkpt lat="47.757759" lon="11.161536">
<ele>603.512</ele>
<time>2022-05-27T11:49:17Z</time>
</trkpt>
<trkpt lat="47.757717" lon="11.16152">
<ele>603.512</ele>
<time>2022-05-27T11:49:18Z</time>
</trkpt>
<trkpt lat="47.757671" lon="11.161503">
<ele>603.512</ele>
<time>2022-05-27T11:49:19Z</time>
</trkpt>
<trkpt lat="47.757629" lon="11.161487">
<ele>603.512</ele>
<time>2022-05-27T11:49:20Z</time>
</trkpt>
<trkpt lat="47.757584" lon="11.161469">
<ele>603.512</ele>
<time>2022-05-27T11:49:21Z</time>
</trkpt>
<trkpt lat="47.757538" lon="11.161452">
<ele>603.512</ele>
<time>2022-05-27T11:49:22Z</time>
</trkpt>
<trkpt lat="47.757484" lon="11.161435">
<ele>603.512</ele>
<time>2022-05-27T11:49:24Z</time>
</trkpt>
<trkpt lat="47.757389" lon="11.161398">
<ele>603.512</ele>
<time>2022-05-27T11:49:26Z</time>
</trkpt>
<trkpt lat="47.757339" lon="11.161382">
<ele>603.512</ele>
<time>2022-05-27T11:49:27Z</time>
</trkpt>
<trkpt lat="47.757286" lon="11.161365">
<ele>603.512</ele>
<time>2022-05-27T11:49:28Z</time>
</trkpt>
<trkpt lat="47.757236" lon="11.161347">
<ele>603.512</ele>
<time>2022-05-27T11:49:29Z</time>
</trkpt>
<trkpt lat="47.75713" lon="11.16131">
<ele>603.512</ele>
<time>2022-05-27T11:49:30Z</time>
</trkpt>
<trkpt lat="47.75708" lon="11.161291">
<ele>603.512</ele>
<time>2022-05-27T11:49:31Z</time>
</trkpt>
<trkpt lat="47.757023" lon="11.161274">
<ele>603.512</ele>
<time>2022-05-27T11:49:32Z</time>
</trkpt>
<trkpt lat="47.756969" lon="11.161259">
<ele>603.512</ele>
<time>2022-05-27T11:49:34Z</time>
</trkpt>
<trkpt lat="47.756855" lon="11.161226">
<ele>603.512</ele>
<time>2022-05-27T11:49:36Z</time>
</trkpt>
<trkpt lat="47.756741" lon="11.161195">
<ele>603.512</ele>
<time>2022-05-27T11:49:37Z</time>
</trkpt>
<trkpt lat="47.756683" lon="11.161176">
<ele>603.512</ele>
<time>2022-05-27T11:49:38Z</time>
</trkpt>
<trkpt lat="47.756626" lon="11.161146">
<ele>603.512</ele>
<time>2022-05-27T11:49:39Z</time>
</trkpt>
<trkpt lat="47.756573" lon="11.16111">
<ele>603.239</ele>
<time>2022-05-27T11:49:40Z</time>
</trkpt>
<trkpt lat="47.756527" lon="11.161067">
<ele>603.059</ele>
<time>2022-05-27T11:49:41Z</time>
</trkpt>
<trkpt lat="47.756477" lon="11.161022">
<ele>602.636</ele>
<time>2022-05-27T11:49:42Z</time>
</trkpt>
<trkpt lat="47.756428" lon="11.160972">
<ele>602.31</ele>
<time>2022-05-27T11:49:43Z</time>
</trkpt>
<trkpt lat="47.756371" lon="11.160916">
<ele>602.072</ele>
<time>2022-05-27T11:49:44Z</time>
</trkpt>
<trkpt lat="47.756321" lon="11.160865">
<ele>601.896</ele>
<time>2022-05-27T11:49:45Z</time>
</trkpt>
<trkpt lat="47.756268" lon="11.160811">
<ele>601.769</ele>
<time>2022-05-27T11:49:46Z</time>
</trkpt>
<trkpt lat="47.756222" lon="11.16076">
<ele>601.66</ele>
<time>2022-05-27T11:49:48Z</time>
</trkpt>
<trkpt lat="47.756172" lon="11.160712">
<ele>601.608</ele>
<time>2022-05-27T11:49:49Z</time>
</trkpt>
<trkpt lat="47.756077" lon="11.160619">
<ele>601.583</ele>
<time>2022-05-27T11:49:50Z</time>
</trkpt>
<trkpt lat="47.756039" lon="11.160572">
<ele>601.583</ele>
<time>2022-05-27T11:49:51Z</time>
</trkpt>
<trkpt lat="47.756001" lon="11.160523">
<ele>601.583</ele>
<time>2022-05-27T11:49:52Z</time>
</trkpt>
<trkpt lat="47.755966" lon="11.160477">
<ele>601.583</ele>
<time>2022-05-27T11:49:54Z</time>
</trkpt>
<trkpt lat="47.755905" lon="11.160374">
<ele>601.583</ele>
<time>2022-05-27T11:49:56Z</time>
</trkpt>
<trkpt lat="47.755852" lon="11.16026">
<ele>601.583</ele>
<time>2022-05-27T11:49:57Z</time>
</trkpt>
<trkpt lat="47.755821" lon="11.160203">
<ele>601.583</ele>
<time>2022-05-27T11:49:59Z</time>
</trkpt>
<trkpt lat="47.755753" lon="11.160096">
<ele>601.583</ele>
<time>2022-05-27T11:50:01Z</time>
</trkpt>
<trkpt lat="47.75568" lon="11.160008">
<ele>601.583</ele>
<time>2022-05-27T11:50:02Z</time>
</trkpt>
<trkpt lat="47.755642" lon="11.159958">
<ele>601.583</ele>
<time>2022-05-27T11:50:03Z</time>
</trkpt>
<trkpt lat="47.755604" lon="11.159908">
<ele>601.583</ele>
<time>2022-05-27T11:50:05Z</time>
</trkpt>
<trkpt lat="47.755531" lon="11.159824">
<ele>601.583</ele>
<time>2022-05-27T11:50:06Z</time>
</trkpt>
<trkpt lat="47.755493" lon="11.159784">
<ele>601.583</ele>
<time>2022-05-27T11:50:07Z</time>
</trkpt>
<trkpt lat="47.755455" lon="11.159749">
<ele>601.609</ele>
<time>2022-05-27T11:50:08Z</time>
</trkpt>
<trkpt lat="47.755421" lon="11.15971">
<ele>601.629</ele>
<time>2022-05-27T11:50:10Z</time>
</trkpt>
<trkpt lat="47.755333" lon="11.15964">
<ele>601.33</ele>
<time>2022-05-27T11:50:11Z</time>
</trkpt>
<trkpt lat="47.755291" lon="11.159607">
<ele>601.195</ele>
<time>2022-05-27T11:50:12Z</time>
</trkpt>
<trkpt lat="47.755253" lon="11.159574">
<ele>601.233</ele>
<time>2022-05-27T11:50:14Z</time>
</trkpt>
<trkpt lat="47.755211" lon="11.159539">
<ele>601.57</ele>
<time>2022-05-27T11:50:15Z</time>
</trkpt>
<trkpt lat="47.755131" lon="11.159467">
<ele>601.178</ele>
<time>2022-05-27T11:50:16Z</time>
</trkpt>
<trkpt lat="47.755096" lon="11.159432">
<ele>601.77</ele>
<time>2022-05-27T11:50:17Z</time>
</trkpt>
<trkpt lat="47.755054" lon="11.159391">
<ele>602.171</ele>
<time>2022-05-27T11:50:18Z</time>
</trkpt>
<trkpt lat="47.755013" lon="11.159353">
<ele>602.62</ele>
<time>2022-05-27T11:50:19Z</time>
</trkpt>
<trkpt lat="47.754967" lon="11.159319">
<ele>602.985</ele>
<time>2022-05-27T11:50:21Z</time>
</trkpt>
<trkpt lat="47.754887" lon="11.159245">
<ele>603.261</ele>
<time>2022-05-27T11:50:22Z</time>
</trkpt>
<trkpt lat="47.754841" lon="11.159213">
<ele>603.183</ele>
<time>2022-05-27T11:50:24Z</time>
</trkpt>
<trkpt lat="47.754761" lon="11.159156">
<ele>603.628</ele>
<time>2022-05-27T11:50:25Z</time>
</trkpt>
<trkpt lat="47.754719" lon="11.159124">
<ele>603.62</ele>
<time>2022-05-27T11:50:26Z</time>
</trkpt>
<trkpt lat="47.754677" lon="11.159095">
<ele>603.872</ele>
<time>2022-05-27T11:50:27Z</time>
</trkpt>
<trkpt lat="47.754639" lon="11.159065">
<ele>603.613</ele>
<time>2022-05-27T11:50:28Z</time>
</trkpt>
<trkpt lat="47.754601" lon="11.159035">
<ele>603.589</ele>
<time>2022-05-27T11:50:29Z</time>
</trkpt>
<trkpt lat="47.754559" lon="11.159003">
<ele>603.648</ele>
<time>2022-05-27T11:50:30Z</time>
</trkpt>
<trkpt lat="47.75452" lon="11.158974">
<ele>603.895</ele>
<time>2022-05-27T11:50:31Z</time>
</trkpt>
<trkpt lat="47.754478" lon="11.15894">
<ele>603.929</ele>
<time>2022-05-27T11:50:32Z</time>
</trkpt>
<trkpt lat="47.754444" lon="11.158909">
<ele>604.024</ele>
<time>2022-05-27T11:50:33Z</time>
</trkpt>
<trkpt lat="47.754406" lon="11.158878">
<ele>604.132</ele>
<time>2022-05-27T11:50:34Z</time>
</trkpt>
<trkpt lat="47.754364" lon="11.158846">
<ele>604.297</ele>
<time>2022-05-27T11:50:36Z</time>
</trkpt>
<trkpt lat="47.75428" lon="11.158783">
<ele>604.063</ele>
<time>2022-05-27T11:50:37Z</time>
</trkpt>
<trkpt lat="47.754234" lon="11.158753">
<ele>603.976</ele>
<time>2022-05-27T11:50:38Z</time>
</trkpt>
<trkpt lat="47.754189" lon="11.158724">
<ele>604.212</ele>
<time>2022-05-27T11:50:39Z</time>
</trkpt>
<trkpt lat="47.754147" lon="11.158695">
<ele>604.127</ele>
<time>2022-05-27T11:50:40Z</time>
</trkpt>
<trkpt lat="47.754105" lon="11.158669">
<ele>604.071</ele>
<time>2022-05-27T11:50:41Z</time>
</trkpt>
<trkpt lat="47.754063" lon="11.158645">
<ele>604.047</ele>
<time>2022-05-27T11:50:42Z</time>
</trkpt>
<trkpt lat="47.754021" lon="11.158624">
<ele>603.852</ele>
<time>2022-05-27T11:50:43Z</time>
</trkpt>
<trkpt lat="47.753983" lon="11.1586">
<ele>603.844</ele>
<time>2022-05-27T11:50:44Z</time>
</trkpt>
<trkpt lat="47.753941" lon="11.158578">
<ele>603.85</ele>
<time>2022-05-27T11:50:45Z</time>
</trkpt>
<trkpt lat="47.753899" lon="11.158559">
<ele>603.858</ele>
<time>2022-05-27T11:50:47Z</time>
</trkpt>
<trkpt lat="47.753826" lon="11.158517">
<ele>603.862</ele>
<time>2022-05-27T11:50:48Z</time>
</trkpt>
<trkpt lat="47.753788" lon="11.15849">
<ele>603.862</ele>
<time>2022-05-27T11:50:49Z</time>
</trkpt>
<trkpt lat="47.75375" lon="11.158459">
<ele>603.862</ele>
<time>2022-05-27T11:50:50Z</time>
</trkpt>
<trkpt lat="47.753716" lon="11.158428">
<ele>604.122</ele>
<time>2022-05-27T11:50:51Z</time>
</trkpt>
<trkpt lat="47.753677" lon="11.158397">
<ele>604.329</ele>
<time>2022-05-27T11:50:52Z</time>
</trkpt>
<trkpt lat="47.753647" lon="11.158361">
<ele>604.488</ele>
<time>2022-05-27T11:50:53Z</time>
</trkpt>
<trkpt lat="47.753613" lon="11.158323">
<ele>604.605</ele>
<time>2022-05-27T11:50:54Z</time>
</trkpt>
<trkpt lat="47.753578" lon="11.158282">
<ele>604.689</ele>
<time>2022-05-27T11:50:55Z</time>
</trkpt>
<trkpt lat="47.753544" lon="11.15824">
<ele>604.748</ele>
<time>2022-05-27T11:50:56Z</time>
</trkpt>
<trkpt lat="47.75351" lon="11.158198">
<ele>605.06</ele>
<time>2022-05-27T11:50:57Z</time>
</trkpt>
<trkpt lat="47.753479" lon="11.15816">
<ele>605.301</ele>
<time>2022-05-27T11:50:58Z</time>
</trkpt>
<trkpt lat="47.753441" lon="11.15813">
<ele>605.481</ele>
<time>2022-05-27T11:50:59Z</time>
</trkpt>
<trkpt lat="47.753403" lon="11.158113">
<ele>605.62</ele>
<time>2022-05-27T11:51:00Z</time>
</trkpt>
<trkpt lat="47.753365" lon="11.158102">
<ele>605.727</ele>
<time>2022-05-27T11:51:01Z</time>
</trkpt>
<trkpt lat="47.753323" lon="11.158102">
<ele>605.804</ele>
<time>2022-05-27T11:51:02Z</time>
</trkpt>
<trkpt lat="47.753281" lon="11.158107">
<ele>605.849</ele>
<time>2022-05-27T11:51:03Z</time>
</trkpt>
<trkpt lat="47.753239" lon="11.158114">
<ele>605.943</ele>
<time>2022-05-27T11:51:04Z</time>
</trkpt>
<trkpt lat="47.753204" lon="11.158125">
<ele>605.996</ele>
<time>2022-05-27T11:51:05Z</time>
</trkpt>
<trkpt lat="47.753162" lon="11.15813">
<ele>606.04</ele>
<time>2022-05-27T11:51:06Z</time>
</trkpt>
<trkpt lat="47.753124" lon="11.158129">
<ele>606.115</ele>
<time>2022-05-27T11:51:08Z</time>
</trkpt>
<trkpt lat="47.753052" lon="11.158113">
<ele>606.222</ele>
<time>2022-05-27T11:51:09Z</time>
</trkpt>
<trkpt lat="47.753017" lon="11.158107">
<ele>606.257</ele>
<time>2022-05-27T11:51:10Z</time>
</trkpt>
<trkpt lat="47.752975" lon="11.158109">
<ele>606.28</ele>
<time>2022-05-27T11:51:12Z</time>
</trkpt>
<trkpt lat="47.752884" lon="11.158111">
<ele>606.312</ele>
<time>2022-05-27T11:51:13Z</time>
</trkpt>
<trkpt lat="47.752838" lon="11.158096">
<ele>606.317</ele>
<time>2022-05-27T11:51:14Z</time>
</trkpt>
<trkpt lat="47.752792" lon="11.158072">
<ele>606.318</ele>
<time>2022-05-27T11:51:16Z</time>
</trkpt>
<trkpt lat="47.752747" lon="11.158043">
<ele>606.318</ele>
<time>2022-05-27T11:51:17Z</time>
</trkpt>
<trkpt lat="47.752701" lon="11.158008">
<ele>606.318</ele>
<time>2022-05-27T11:51:18Z</time>
</trkpt>
<trkpt lat="47.752659" lon="11.157964">
<ele>606.318</ele>
<time>2022-05-27T11:51:19Z</time>
</trkpt>
<trkpt lat="47.752613" lon="11.157918">
<ele>606.318</ele>
<time>2022-05-27T11:51:20Z</time>
</trkpt>
<trkpt lat="47.752522" lon="11.15783">
<ele>606.318</ele>
<time>2022-05-27T11:51:22Z</time>
</trkpt>
<trkpt lat="47.752422" lon="11.157742">
<ele>606.318</ele>
<time>2022-05-27T11:51:23Z</time>
</trkpt>
<trkpt lat="47.752369" lon="11.157698">
<ele>606.317</ele>
<time>2022-05-27T11:51:24Z</time>
</trkpt>
<trkpt lat="47.752319" lon="11.157654">
<ele>606.318</ele>
<time>2022-05-27T11:51:26Z</time>
</trkpt>
<trkpt lat="47.752213" lon="11.157561">
<ele>606.318</ele>
<time>2022-05-27T11:51:27Z</time>
</trkpt>
<trkpt lat="47.752163" lon="11.15752">
<ele>606.612</ele>
<time>2022-05-27T11:51:29Z</time>
</trkpt>
<trkpt lat="47.752064" lon="11.157432">
<ele>606.999</ele>
<time>2022-05-27T11:51:31Z</time>
</trkpt>
<trkpt lat="47.752014" lon="11.15739">
<ele>607.119</ele>
<time>2022-05-27T11:51:32Z</time>
</trkpt>
<trkpt lat="47.751968" lon="11.157353">
<ele>607.202</ele>
<time>2022-05-27T11:51:33Z</time>
</trkpt>
<trkpt lat="47.751926" lon="11.15732">
<ele>607.257</ele>
<time>2022-05-27T11:51:34Z</time>
</trkpt>
<trkpt lat="47.751884" lon="11.157285">
<ele>607.282</ele>
<time>2022-05-27T11:51:35Z</time>
</trkpt>
<trkpt lat="47.75185" lon="11.157247">
<ele>607.282</ele>
<time>2022-05-27T11:51:36Z</time>
</trkpt>
<trkpt lat="47.751785" lon="11.157157">
<ele>607.503</ele>
<time>2022-05-27T11:51:37Z</time>
</trkpt>
<trkpt lat="47.751755" lon="11.157104">
<ele>607.695</ele>
<time>2022-05-27T11:51:38Z</time>
</trkpt>
<trkpt lat="47.751724" lon="11.157052">
<ele>607.859</ele>
<time>2022-05-27T11:51:39Z</time>
</trkpt>
<trkpt lat="47.751698" lon="11.156994">
<ele>607.996</ele>
<time>2022-05-27T11:51:40Z</time>
</trkpt>
<trkpt lat="47.751671" lon="11.156937">
<ele>608.101</ele>
<time>2022-05-27T11:51:41Z</time>
</trkpt>
<trkpt lat="47.751644" lon="11.156883">
<ele>608.178</ele>
<time>2022-05-27T11:51:42Z</time>
</trkpt>
<trkpt lat="47.751617" lon="11.156826">
<ele>608.225</ele>
<time>2022-05-27T11:51:43Z</time>
</trkpt>
<trkpt lat="47.751595" lon="11.15677">
<ele>608.247</ele>
<time>2022-05-27T11:51:45Z</time>
</trkpt>
<trkpt lat="47.751545" lon="11.156661">
<ele>608.479</ele>
<time>2022-05-27T11:51:47Z</time>
</trkpt>
<trkpt lat="47.751499" lon="11.156553">
<ele>608.877</ele>
<time>2022-05-27T11:51:48Z</time>
</trkpt>
<trkpt lat="47.751472" lon="11.156499">
<ele>609.026</ele>
<time>2022-05-27T11:51:49Z</time>
</trkpt>
<trkpt lat="47.751442" lon="11.156442">
<ele>609.14</ele>
<time>2022-05-27T11:51:50Z</time>
</trkpt>
<trkpt lat="47.751411" lon="11.156384">
<ele>609.22</ele>
<time>2022-05-27T11:51:51Z</time>
</trkpt>
<trkpt lat="47.751381" lon="11.156328">
<ele>609.274</ele>
<time>2022-05-27T11:51:52Z</time>
</trkpt>
<trkpt lat="47.75135" lon="11.156271">
<ele>609.299</ele>
<time>2022-05-27T11:51:54Z</time>
</trkpt>
<trkpt lat="47.751293" lon="11.156166">
<ele>609.299</ele>
<time>2022-05-27T11:51:56Z</time>
</trkpt>
<trkpt lat="47.751232" lon="11.156063">
<ele>609.299</ele>
<time>2022-05-27T11:51:57Z</time>
</trkpt>
<trkpt lat="47.751202" lon="11.156015">
<ele>609.299</ele>
<time>2022-05-27T11:51:59Z</time>
</trkpt>
<trkpt lat="47.751171" lon="11.155963">
<ele>609.299</ele>
<time>2022-05-27T11:52:00Z</time>
</trkpt>
<trkpt lat="47.75111" lon="11.155858">
<ele>609.299</ele>
<time>2022-05-27T11:52:02Z</time>
</trkpt>
<trkpt lat="47.751045" lon="11.155748">
<ele>609.527</ele>
<time>2022-05-27T11:52:03Z</time>
</trkpt>
<trkpt lat="47.751015" lon="11.155695">
<ele>609.706</ele>
<time>2022-05-27T11:52:05Z</time>
</trkpt>
<trkpt lat="47.75095" lon="11.155586">
<ele>609.938</ele>
<time>2022-05-27T11:52:06Z</time>
</trkpt>
<trkpt lat="47.750923" lon="11.155534">
<ele>610.272</ele>
<time>2022-05-27T11:52:08Z</time>
</trkpt>
<trkpt lat="47.750889" lon="11.155479">
<ele>610.541</ele>
<time>2022-05-27T11:52:09Z</time>
</trkpt>
<trkpt lat="47.750835" lon="11.155374">
<ele>610.897</ele>
<time>2022-05-27T11:52:10Z</time>
</trkpt>
<trkpt lat="47.750809" lon="11.15532">
<ele>610.998</ele>
<time>2022-05-27T11:52:12Z</time>
</trkpt>
<trkpt lat="47.750782" lon="11.15527">
<ele>611.071</ele>
<time>2022-05-27T11:52:13Z</time>
</trkpt>
<trkpt lat="47.750748" lon="11.155224">
<ele>611.118</ele>
<time>2022-05-27T11:52:14Z</time>
</trkpt>
<trkpt lat="47.750721" lon="11.155177">
<ele>611.142</ele>
<time>2022-05-27T11:52:15Z</time>
</trkpt>
<trkpt lat="47.750648" lon="11.155097">
<ele>611.54</ele>
<time>2022-05-27T11:52:16Z</time>
</trkpt>
<trkpt lat="47.750614" lon="11.155053">
<ele>611.712</ele>
<time>2022-05-27T11:52:18Z</time>
</trkpt>
<trkpt lat="47.75058" lon="11.155014">
<ele>611.851</ele>
<time>2022-05-27T11:52:19Z</time>
</trkpt>
<trkpt lat="47.750515" lon="11.154925">
<ele>612.034</ele>
<time>2022-05-27T11:52:20Z</time>
</trkpt>
<trkpt lat="47.750481" lon="11.154883">
<ele>612.079</ele>
<time>2022-05-27T11:52:21Z</time>
</trkpt>
<trkpt lat="47.75045" lon="11.15484">
<ele>612.341</ele>
<time>2022-05-27T11:52:23Z</time>
</trkpt>
<trkpt lat="47.750416" lon="11.154795">
<ele>612.558</ele>
<time>2022-05-27T11:52:24Z</time>
</trkpt>
<trkpt lat="47.750359" lon="11.154705">
<ele>612.828</ele>
<time>2022-05-27T11:52:25Z</time>
</trkpt>
<trkpt lat="47.750324" lon="11.154662">
<ele>612.91</ele>
<time>2022-05-27T11:52:26Z</time>
</trkpt>
<trkpt lat="47.750298" lon="11.154618">
<ele>612.991</ele>
<time>2022-05-27T11:52:27Z</time>
</trkpt>
<trkpt lat="47.750267" lon="11.154573">
<ele>613.258</ele>
<time>2022-05-27T11:52:28Z</time>
</trkpt>
<trkpt lat="47.750237" lon="11.154527">
<ele>613.704</ele>
<time>2022-05-27T11:52:30Z</time>
</trkpt>
<trkpt lat="47.750206" lon="11.154482">
<ele>614.528</ele>
<time>2022-05-27T11:52:31Z</time>
</trkpt>
<trkpt lat="47.750141" lon="11.154387">
<ele>615.439</ele>
<time>2022-05-27T11:52:32Z</time>
</trkpt>
<trkpt lat="47.750103" lon="11.154346">
<ele>615.708</ele>
<time>2022-05-27T11:52:33Z</time>
</trkpt>
<trkpt lat="47.750065" lon="11.154306">
<ele>615.872</ele>
<time>2022-05-27T11:52:34Z</time>
</trkpt>
<trkpt lat="47.750027" lon="11.154268">
<ele>615.965</ele>
<time>2022-05-27T11:52:35Z</time>
</trkpt>
<trkpt lat="47.749989" lon="11.154232">
<ele>616.03</ele>
<time>2022-05-27T11:52:36Z</time>
</trkpt>
<trkpt lat="47.749947" lon="11.154195">
<ele>616.056</ele>
<time>2022-05-27T11:52:38Z</time>
</trkpt>
<trkpt lat="47.749863" lon="11.154128">
<ele>616.056</ele>
<time>2022-05-27T11:52:39Z</time>
</trkpt>
<trkpt lat="47.749817" lon="11.154099">
<ele>616.056</ele>
<time>2022-05-27T11:52:40Z</time>
</trkpt>
<trkpt lat="47.749779" lon="11.15407">
<ele>616.056</ele>
<time>2022-05-27T11:52:41Z</time>
</trkpt>
<trkpt lat="47.749737" lon="11.154041">
<ele>616.056</ele>
<time>2022-05-27T11:52:43Z</time>
</trkpt>
<trkpt lat="47.749653" lon="11.153985">
<ele>616.056</ele>
<time>2022-05-27T11:52:44Z</time>
</trkpt>
<trkpt lat="47.749611" lon="11.153958">
<ele>616.056</ele>
<time>2022-05-27T11:52:45Z</time>
</trkpt>
<trkpt lat="47.749569" lon="11.153931">
<ele>616.056</ele>
<time>2022-05-27T11:52:47Z</time>
</trkpt>
<trkpt lat="47.749485" lon="11.153872">
<ele>616.056</ele>
<time>2022-05-27T11:52:48Z</time>
</trkpt>
<trkpt lat="47.749439" lon="11.153841">
<ele>616.337</ele>
<time>2022-05-27T11:52:49Z</time>
</trkpt>
<trkpt lat="47.749393" lon="11.153811">
<ele>616.558</ele>
<time>2022-05-27T11:52:51Z</time>
</trkpt>
<trkpt lat="47.749302" lon="11.153753">
<ele>616.843</ele>
<time>2022-05-27T11:52:53Z</time>
</trkpt>
<trkpt lat="47.74921" lon="11.153693">
<ele>616.975</ele>
<time>2022-05-27T11:52:54Z</time>
</trkpt>
<trkpt lat="47.749165" lon="11.153665">
<ele>616.999</ele>
<time>2022-05-27T11:52:56Z</time>
</trkpt>
<trkpt lat="47.749077" lon="11.153612">
<ele>617.021</ele>
<time>2022-05-27T11:52:57Z</time>
</trkpt>
<trkpt lat="47.749031" lon="11.153587">
<ele>617.021</ele>
<time>2022-05-27T11:52:59Z</time>
</trkpt>
<trkpt lat="47.74894" lon="11.153535">
<ele>617.021</ele>
<time>2022-05-27T11:53:01Z</time>
</trkpt>
<trkpt lat="47.748898" lon="11.153508">
<ele>617.021</ele>
<time>2022-05-27T11:53:02Z</time>
</trkpt>
<trkpt lat="47.748806" lon="11.153453">
<ele>617.021</ele>
<time>2022-05-27T11:53:03Z</time>
</trkpt>
<trkpt lat="47.748764" lon="11.153426">
<ele>617.021</ele>
<time>2022-05-27T11:53:04Z</time>
</trkpt>
<trkpt lat="47.748718" lon="11.153397">
<ele>617.021</ele>
<time>2022-05-27T11:53:05Z</time>
</trkpt>
<trkpt lat="47.748676" lon="11.153363">
<ele>617.021</ele>
<time>2022-05-27T11:53:06Z</time>
</trkpt>
<trkpt lat="47.748634" lon="11.153328">
<ele>617.235</ele>
<time>2022-05-27T11:53:08Z</time>
</trkpt>
<trkpt lat="47.748592" lon="11.153294">
<ele>617.413</ele>
<time>2022-05-27T11:53:09Z</time>
</trkpt>
<trkpt lat="47.748505" lon="11.15322">
<ele>617.679</ele>
<time>2022-05-27T11:53:10Z</time>
</trkpt>
<trkpt lat="47.748463" lon="11.15318">
<ele>617.77</ele>
<time>2022-05-27T11:53:11Z</time>
</trkpt>
<trkpt lat="47.748421" lon="11.153138">
<ele>617.837</ele>
<time>2022-05-27T11:53:12Z</time>
</trkpt>
<trkpt lat="47.748379" lon="11.1531">
<ele>617.879</ele>
<time>2022-05-27T11:53:14Z</time>
</trkpt>
<trkpt lat="47.748337" lon="11.153064">
<ele>617.899</ele>
<time>2022-05-27T11:53:15Z</time>
</trkpt>
<trkpt lat="47.748245" lon="11.153002">
<ele>617.899</ele>
<time>2022-05-27T11:53:17Z</time>
</trkpt>
<trkpt lat="47.748199" lon="11.152977">
<ele>618.134</ele>
<time>2022-05-27T11:53:18Z</time>
</trkpt>
<trkpt lat="47.74815" lon="11.152957">
<ele>618.331</ele>
<time>2022-05-27T11:53:19Z</time>
</trkpt>
<trkpt lat="47.748055" lon="11.152915">
<ele>618.624</ele>
<time>2022-05-27T11:53:21Z</time>
</trkpt>
<trkpt lat="47.747959" lon="11.152868">
<ele>618.797</ele>
<time>2022-05-27T11:53:23Z</time>
</trkpt>
<trkpt lat="47.747879" lon="11.152806">
<ele>618.865</ele>
<time>2022-05-27T11:53:25Z</time>
</trkpt>
<trkpt lat="47.747795" lon="11.152726">
<ele>618.865</ele>
<time>2022-05-27T11:53:26Z</time>
</trkpt>
<trkpt lat="47.747757" lon="11.152683">
<ele>619.142</ele>
<time>2022-05-27T11:53:28Z</time>
</trkpt>
<trkpt lat="47.747719" lon="11.152637">
<ele>619.377</ele>
<time>2022-05-27T11:53:29Z</time>
</trkpt>
<trkpt lat="47.747681" lon="11.15259">
<ele>619.569</ele>
<time>2022-05-27T11:53:30Z</time>
</trkpt>
<trkpt lat="47.747608" lon="11.152498">
<ele>619.844</ele>
<time>2022-05-27T11:53:31Z</time>
</trkpt>
<trkpt lat="47.747574" lon="11.15245">
<ele>619.926</ele>
<time>2022-05-27T11:53:32Z</time>
</trkpt>
<trkpt lat="47.74754" lon="11.152404">
<ele>619.98</ele>
<time>2022-05-27T11:53:33Z</time>
</trkpt>
<trkpt lat="47.747505" lon="11.15236">
<ele>620.006</ele>
<time>2022-05-27T11:53:34Z</time>
</trkpt>
<trkpt lat="47.747467" lon="11.15232">
<ele>620.258</ele>
<time>2022-05-27T11:53:35Z</time>
</trkpt>
<trkpt lat="47.747433" lon="11.152284">
<ele>620.441</ele>
<time>2022-05-27T11:53:36Z</time>
</trkpt>
<trkpt lat="47.747395" lon="11.152248">
<ele>620.628</ele>
<time>2022-05-27T11:53:38Z</time>
</trkpt>
<trkpt lat="47.747356" lon="11.152217">
<ele>620.763</ele>
<time>2022-05-27T11:53:39Z</time>
</trkpt>
<trkpt lat="47.74728" lon="11.152164">
<ele>621.399</ele>
<time>2022-05-27T11:53:41Z</time>
</trkpt>
<trkpt lat="47.747238" lon="11.152146">
<ele>621.589</ele>
<time>2022-05-27T11:53:42Z</time>
</trkpt>
<trkpt lat="47.747166" lon="11.152108">
<ele>622.439</ele>
<time>2022-05-27T11:53:44Z</time>
</trkpt>
<trkpt lat="47.747082" lon="11.152064">
<ele>623.059</ele>
<time>2022-05-27T11:53:46Z</time>
</trkpt>
<trkpt lat="47.747044" lon="11.152045">
<ele>623.373</ele>
<time>2022-05-27T11:53:47Z</time>
</trkpt>
<trkpt lat="47.746979" lon="11.152001">
<ele>624.074</ele>
<time>2022-05-27T11:53:48Z</time>
</trkpt>
<trkpt lat="47.746944" lon="11.151983">
<ele>624.368</ele>
<time>2022-05-27T11:53:50Z</time>
</trkpt>
<trkpt lat="47.746906" lon="11.151967">
<ele>624.873</ele>
<time>2022-05-27T11:53:51Z</time>
</trkpt>
<trkpt lat="47.746841" lon="11.15193">
<ele>625.533</ele>
<time>2022-05-27T11:53:52Z</time>
</trkpt>
<trkpt lat="47.746811" lon="11.151919">
<ele>626.104</ele>
<time>2022-05-27T11:53:54Z</time>
</trkpt>
<trkpt lat="47.746735" lon="11.151901">
<ele>626.875</ele>
<time>2022-05-27T11:53:56Z</time>
</trkpt>
<trkpt lat="47.746696" lon="11.151895">
<ele>627.218</ele>
<time>2022-05-27T11:53:57Z</time>
</trkpt>
<trkpt lat="47.746658" lon="11.15188">
<ele>627.768</ele>
<time>2022-05-27T11:53:58Z</time>
</trkpt>
<trkpt lat="47.74662" lon="11.15186">
<ele>628.145</ele>
<time>2022-05-27T11:53:59Z</time>
</trkpt>
<trkpt lat="47.746544" lon="11.151827">
<ele>629.143</ele>
<time>2022-05-27T11:54:01Z</time>
</trkpt>
<trkpt lat="47.746464" lon="11.151785">
<ele>629.65</ele>
<time>2022-05-27T11:54:02Z</time>
</trkpt>
<trkpt lat="47.746426" lon="11.15176">
<ele>629.765</ele>
<time>2022-05-27T11:54:03Z</time>
</trkpt>
<trkpt lat="47.746391" lon="11.151733">
<ele>630.106</ele>
<time>2022-05-27T11:54:04Z</time>
</trkpt>
<trkpt lat="47.746353" lon="11.151711">
<ele>630.347</ele>
<time>2022-05-27T11:54:05Z</time>
</trkpt>
<trkpt lat="47.746323" lon="11.151689">
<ele>630.497</ele>
<time>2022-05-27T11:54:07Z</time>
</trkpt>
<trkpt lat="47.746254" lon="11.15167">
<ele>631.166</ele>
<time>2022-05-27T11:54:08Z</time>
</trkpt>
<trkpt lat="47.74622" lon="11.151672">
<ele>631.368</ele>
<time>2022-05-27T11:54:09Z</time>
</trkpt>
<trkpt lat="47.746185" lon="11.151674">
<ele>631.765</ele>
<time>2022-05-27T11:54:11Z</time>
</trkpt>
<trkpt lat="47.746143" lon="11.151664">
<ele>632.301</ele>
<time>2022-05-27T11:54:12Z</time>
</trkpt>
<trkpt lat="47.746128" lon="11.151649">
<ele>632.477</ele>
<time>2022-05-27T11:54:14Z</time>
</trkpt>
<trkpt lat="47.746086" lon="11.151615">
<ele>632.874</ele>
<time>2022-05-27T11:54:15Z</time>
</trkpt>
<trkpt lat="47.746067" lon="11.1516">
<ele>633.092</ele>
<time>2022-05-27T11:54:17Z</time>
</trkpt>
<trkpt lat="47.746033" lon="11.151578">
<ele>633.435</ele>
<time>2022-05-27T11:54:19Z</time>
</trkpt>
<trkpt lat="47.745998" lon="11.151551">
<ele>633.867</ele>
<time>2022-05-27T11:54:21Z</time>
</trkpt>
<trkpt lat="47.745979" lon="11.151545">
<ele>634.106</ele>
<time>2022-05-27T11:54:22Z</time>
</trkpt>
<trkpt lat="47.745926" lon="11.151515">
<ele>634.715</ele>
<time>2022-05-27T11:54:23Z</time>
</trkpt>
<trkpt lat="47.745899" lon="11.151495">
<ele>635.017</ele>
<time>2022-05-27T11:54:24Z</time>
</trkpt>
<trkpt lat="47.745876" lon="11.151471">
<ele>635.206</ele>
<time>2022-05-27T11:54:26Z</time>
</trkpt>
<trkpt lat="47.745831" lon="11.151427">
<ele>635.97</ele>
<time>2022-05-27T11:54:27Z</time>
</trkpt>
<trkpt lat="47.745804" lon="11.151408">
<ele>636.184</ele>
<time>2022-05-27T11:54:28Z</time>
</trkpt>
<trkpt lat="47.745773" lon="11.151385">
<ele>636.647</ele>
<time>2022-05-27T11:54:29Z</time>
</trkpt>
<trkpt lat="47.745739" lon="11.151361">
<ele>636.989</ele>
<time>2022-05-27T11:54:31Z</time>
</trkpt>
<trkpt lat="47.745647" lon="11.151314">
<ele>637.703</ele>
<time>2022-05-27T11:54:33Z</time>
</trkpt>
<trkpt lat="47.745548" lon="11.151263">
<ele>638.365</ele>
<time>2022-05-27T11:54:35Z</time>
</trkpt>
<trkpt lat="47.745464" lon="11.151234">
<ele>638.596</ele>
<time>2022-05-27T11:54:37Z</time>
</trkpt>
<trkpt lat="47.745415" lon="11.151228">
<ele>638.91</ele>
<time>2022-05-27T11:54:38Z</time>
</trkpt>
<trkpt lat="47.745312" lon="11.151217">
<ele>639.318</ele>
<time>2022-05-27T11:54:39Z</time>
</trkpt>
<trkpt lat="47.745266" lon="11.151218">
<ele>639.414</ele>
<time>2022-05-27T11:54:41Z</time>
</trkpt>
<trkpt lat="47.745171" lon="11.151228">
<ele>640.057</ele>
<time>2022-05-27T11:54:43Z</time>
</trkpt>
<trkpt lat="47.745132" lon="11.151237">
<ele>640.269</ele>
<time>2022-05-27T11:54:44Z</time>
</trkpt>
<trkpt lat="47.745056" lon="11.151217">
<ele>640.513</ele>
<time>2022-05-27T11:54:46Z</time>
</trkpt>
<trkpt lat="47.744976" lon="11.151217">
<ele>640.851</ele>
<time>2022-05-27T11:54:48Z</time>
</trkpt>
<trkpt lat="47.744888" lon="11.151226">
<ele>641.249</ele>
<time>2022-05-27T11:54:49Z</time>
</trkpt>
<trkpt lat="47.744843" lon="11.151228">
<ele>641.397</ele>
<time>2022-05-27T11:54:51Z</time>
</trkpt>
<trkpt lat="47.744755" lon="11.151232">
<ele>641.557</ele>
<time>2022-05-27T11:54:53Z</time>
</trkpt>
<trkpt lat="47.744675" lon="11.151249">
<ele>642.062</ele>
<time>2022-05-27T11:54:54Z</time>
</trkpt>
<trkpt lat="47.744633" lon="11.151254">
<ele>642.222</ele>
<time>2022-05-27T11:54:56Z</time>
</trkpt>
<trkpt lat="47.744598" lon="11.151258">
<ele>642.323</ele>
<time>2022-05-27T11:54:57Z</time>
</trkpt>
<trkpt lat="47.744537" lon="11.151261">
<ele>642.515</ele>
<time>2022-05-27T11:54:59Z</time>
</trkpt>
<trkpt lat="47.744469" lon="11.151277">
<ele>642.597</ele>
<time>2022-05-27T11:55:00Z</time>
</trkpt>
<trkpt lat="47.744434" lon="11.151289">
<ele>642.597</ele>
<time>2022-05-27T11:55:02Z</time>
</trkpt>
<trkpt lat="47.744362" lon="11.151312">
<ele>643.058</ele>
<time>2022-05-27T11:55:04Z</time>
</trkpt>
<trkpt lat="47.74427" lon="11.151352">
<ele>643.344</ele>
<time>2022-05-27T11:55:05Z</time>
</trkpt>
<trkpt lat="47.744225" lon="11.151373">
<ele>643.417</ele>
<time>2022-05-27T11:55:06Z</time>
</trkpt>
<trkpt lat="47.744179" lon="11.151379">
<ele>643.495</ele>
<time>2022-05-27T11:55:08Z</time>
</trkpt>
<trkpt lat="47.744137" lon="11.151387">
<ele>643.542</ele>
<time>2022-05-27T11:55:09Z</time>
</trkpt>
<trkpt lat="47.744041" lon="11.151412">
<ele>644.083</ele>
<time>2022-05-27T11:55:10Z</time>
</trkpt>
<trkpt lat="47.743996" lon="11.151417">
<ele>644.24</ele>
<time>2022-05-27T11:55:11Z</time>
</trkpt>
<trkpt lat="47.743946" lon="11.151421">
<ele>644.354</ele>
<time>2022-05-27T11:55:12Z</time>
</trkpt>
<trkpt lat="47.7439" lon="11.151423">
<ele>644.432</ele>
<time>2022-05-27T11:55:14Z</time>
</trkpt>
<trkpt lat="47.743858" lon="11.151427">
<ele>644.481</ele>
<time>2022-05-27T11:55:15Z</time>
</trkpt>
<trkpt lat="47.743771" lon="11.151435">
<ele>644.727</ele>
<time>2022-05-27T11:55:17Z</time>
</trkpt>
<trkpt lat="47.743687" lon="11.151443">
<ele>645.062</ele>
<time>2022-05-27T11:55:18Z</time>
</trkpt>
<trkpt lat="47.743641" lon="11.151445">
<ele>645.183</ele>
<time>2022-05-27T11:55:19Z</time>
</trkpt>
<trkpt lat="47.743599" lon="11.151448">
<ele>645.263</ele>
<time>2022-05-27T11:55:20Z</time>
</trkpt>
<trkpt lat="47.743553" lon="11.15145">
<ele>645.572</ele>
<time>2022-05-27T11:55:22Z</time>
</trkpt>
<trkpt lat="47.743519" lon="11.15145">
<ele>645.819</ele>
<time>2022-05-27T11:55:23Z</time>
</trkpt>
<trkpt lat="47.743439" lon="11.151452">
<ele>646.154</ele>
<time>2022-05-27T11:55:25Z</time>
</trkpt>
<trkpt lat="47.743397" lon="11.151455">
<ele>646.236</ele>
<time>2022-05-27T11:55:26Z</time>
</trkpt>
<trkpt lat="47.74332" lon="11.151461">
<ele>646.355</ele>
<time>2022-05-27T11:55:28Z</time>
</trkpt>
<trkpt lat="47.743282" lon="11.151461">
<ele>646.382</ele>
<time>2022-05-27T11:55:29Z</time>
</trkpt>
<trkpt lat="47.743206" lon="11.151459">
<ele>646.651</ele>
<time>2022-05-27T11:55:30Z</time>
</trkpt>
<trkpt lat="47.743168" lon="11.151459">
<ele>646.862</ele>
<time>2022-05-27T11:55:32Z</time>
</trkpt>
<trkpt lat="47.743092" lon="11.151457">
<ele>647.138</ele>
<time>2022-05-27T11:55:34Z</time>
</trkpt>
<trkpt lat="47.743015" lon="11.151459">
<ele>647.279</ele>
<time>2022-05-27T11:55:35Z</time>
</trkpt>
<trkpt lat="47.742977" lon="11.151459">
<ele>647.323</ele>
<time>2022-05-27T11:55:37Z</time>
</trkpt>
<trkpt lat="47.742897" lon="11.151462">
<ele>647.644</ele>
<time>2022-05-27T11:55:39Z</time>
</trkpt>
<trkpt lat="47.742817" lon="11.151475">
<ele>648.009</ele>
<time>2022-05-27T11:55:40Z</time>
</trkpt>
<trkpt lat="47.742775" lon="11.151482">
<ele>648.412</ele>
<time>2022-05-27T11:55:41Z</time>
</trkpt>
<trkpt lat="47.742737" lon="11.151486">
<ele>648.712</ele>
<time>2022-05-27T11:55:42Z</time>
</trkpt>
<trkpt lat="47.742699" lon="11.151494">
<ele>648.925</ele>
<time>2022-05-27T11:55:43Z</time>
</trkpt>
<trkpt lat="47.742661" lon="11.151505">
<ele>649.066</ele>
<time>2022-05-27T11:55:44Z</time>
</trkpt>
<trkpt lat="47.742622" lon="11.151515">
<ele>649.145</ele>
<time>2022-05-27T11:55:46Z</time>
</trkpt>
<trkpt lat="47.742546" lon="11.15153">
<ele>649.26</ele>
<time>2022-05-27T11:55:47Z</time>
</trkpt>
<trkpt lat="47.742512" lon="11.151535">
<ele>649.518</ele>
<time>2022-05-27T11:55:49Z</time>
</trkpt>
<trkpt lat="47.742477" lon="11.151538">
<ele>649.788</ele>
<time>2022-05-27T11:55:50Z</time>
</trkpt>
<trkpt lat="47.742409" lon="11.151545">
<ele>650.068</ele>
<time>2022-05-27T11:55:51Z</time>
</trkpt>
<trkpt lat="47.742374" lon="11.151548">
<ele>650.443</ele>
<time>2022-05-27T11:55:53Z</time>
</trkpt>
<trkpt lat="47.742302" lon="11.151555">
<ele>650.92</ele>
<time>2022-05-27T11:55:55Z</time>
</trkpt>
<trkpt lat="47.742264" lon="11.151562">
<ele>651.017</ele>
<time>2022-05-27T11:55:56Z</time>
</trkpt>
<trkpt lat="47.742195" lon="11.151566">
<ele>651.649</ele>
<time>2022-05-27T11:55:57Z</time>
</trkpt>
<trkpt lat="47.742157" lon="11.151568">
<ele>651.851</ele>
<time>2022-05-27T11:55:59Z</time>
</trkpt>
<trkpt lat="47.742088" lon="11.151575">
<ele>652.644</ele>
<time>2022-05-27T11:56:01Z</time>
</trkpt>
<trkpt lat="47.742016" lon="11.151578">
<ele>653.114</ele>
<time>2022-05-27T11:56:03Z</time>
</trkpt>
<trkpt lat="47.741978" lon="11.15158">
<ele>653.236</ele>
<time>2022-05-27T11:56:04Z</time>
</trkpt>
<trkpt lat="47.741901" lon="11.151584">
<ele>653.835</ele>
<time>2022-05-27T11:56:05Z</time>
</trkpt>
<trkpt lat="47.741863" lon="11.151587">
<ele>653.994</ele>
<time>2022-05-27T11:56:07Z</time>
</trkpt>
<trkpt lat="47.741791" lon="11.151595">
<ele>654.728</ele>
<time>2022-05-27T11:56:09Z</time>
</trkpt>
<trkpt lat="47.741711" lon="11.151602">
<ele>655.168</ele>
<time>2022-05-27T11:56:10Z</time>
</trkpt>
<trkpt lat="47.741673" lon="11.151605">
<ele>655.279</ele>
<time>2022-05-27T11:56:11Z</time>
</trkpt>
<trkpt lat="47.741638" lon="11.151608">
<ele>655.601</ele>
<time>2022-05-27T11:56:12Z</time>
</trkpt>
<trkpt lat="47.7416" lon="11.151613">
<ele>655.857</ele>
<time>2022-05-27T11:56:13Z</time>
</trkpt>
<trkpt lat="47.741562" lon="11.151616">
<ele>656.017</ele>
<time>2022-05-27T11:56:14Z</time>
</trkpt>
<trkpt lat="47.741524" lon="11.15162">
<ele>656.368</ele>
<time>2022-05-27T11:56:15Z</time>
</trkpt>
<trkpt lat="47.741486" lon="11.151624">
<ele>656.882</ele>
<time>2022-05-27T11:56:16Z</time>
</trkpt>
<trkpt lat="47.741444" lon="11.151625">
<ele>657.341</ele>
<time>2022-05-27T11:56:18Z</time>
</trkpt>
<trkpt lat="47.741371" lon="11.151632">
<ele>658.186</ele>
<time>2022-05-27T11:56:19Z</time>
</trkpt>
<trkpt lat="47.741337" lon="11.151633">
<ele>658.568</ele>
<time>2022-05-27T11:56:21Z</time>
</trkpt>
<trkpt lat="47.741261" lon="11.151633">
<ele>659.032</ele>
<time>2022-05-27T11:56:22Z</time>
</trkpt>
<trkpt lat="47.741222" lon="11.151635">
<ele>659.425</ele>
<time>2022-05-27T11:56:24Z</time>
</trkpt>
<trkpt lat="47.741184" lon="11.151635">
<ele>659.748</ele>
<time>2022-05-27T11:56:25Z</time>
</trkpt>
<trkpt lat="47.741116" lon="11.151639">
<ele>660.093</ele>
<time>2022-05-27T11:56:27Z</time>
</trkpt>
<trkpt lat="47.741043" lon="11.151641">
<ele>660.301</ele>
<time>2022-05-27T11:56:29Z</time>
</trkpt>
<trkpt lat="47.741009" lon="11.151643">
<ele>660.57</ele>
<time>2022-05-27T11:56:30Z</time>
</trkpt>
<trkpt lat="47.740936" lon="11.151647">
<ele>660.991</ele>
<time>2022-05-27T11:56:32Z</time>
</trkpt>
<trkpt lat="47.740868" lon="11.151649">
<ele>661.179</ele>
<time>2022-05-27T11:56:34Z</time>
</trkpt>
<trkpt lat="47.740799" lon="11.151649">
<ele>661.25</ele>
<time>2022-05-27T11:56:36Z</time>
</trkpt>
<trkpt lat="47.740723" lon="11.151651">
<ele>661.27</ele>
<time>2022-05-27T11:56:38Z</time>
</trkpt>
<trkpt lat="47.740643" lon="11.151655">
<ele>661.27</ele>
<time>2022-05-27T11:56:39Z</time>
</trkpt>
<trkpt lat="47.740597" lon="11.151658">
<ele>661.27</ele>
<time>2022-05-27T11:56:40Z</time>
</trkpt>
<trkpt lat="47.740555" lon="11.151664">
<ele>661.27</ele>
<time>2022-05-27T11:56:41Z</time>
</trkpt>
<trkpt lat="47.740509" lon="11.151667">
<ele>661.27</ele>
<time>2022-05-27T11:56:43Z</time>
</trkpt>
<trkpt lat="47.740421" lon="11.151676">
<ele>661.27</ele>
<time>2022-05-27T11:56:45Z</time>
</trkpt>
<trkpt lat="47.740372" lon="11.151678">
<ele>661.27</ele>
<time>2022-05-27T11:56:46Z</time>
</trkpt>
<trkpt lat="47.740273" lon="11.151683">
<ele>661.27</ele>
<time>2022-05-27T11:56:47Z</time>
</trkpt>
<trkpt lat="47.740219" lon="11.151689">
<ele>661.27</ele>
<time>2022-05-27T11:56:49Z</time>
</trkpt>
<trkpt lat="47.740101" lon="11.151702">
<ele>661.27</ele>
<time>2022-05-27T11:56:50Z</time>
</trkpt>
<trkpt lat="47.740047" lon="11.15171">
<ele>661.27</ele>
<time>2022-05-27T11:56:51Z</time>
</trkpt>
<trkpt lat="47.739994" lon="11.151718">
<ele>661.27</ele>
<time>2022-05-27T11:56:53Z</time>
</trkpt>
<trkpt lat="47.739887" lon="11.151735">
<ele>661.27</ele>
<time>2022-05-27T11:56:54Z</time>
</trkpt>
<trkpt lat="47.739838" lon="11.151743">
<ele>661.27</ele>
<time>2022-05-27T11:56:55Z</time>
</trkpt>
<trkpt lat="47.739784" lon="11.151752">
<ele>661.27</ele>
<time>2022-05-27T11:56:57Z</time>
</trkpt>
<trkpt lat="47.739693" lon="11.151765">
<ele>661.27</ele>
<time>2022-05-27T11:56:58Z</time>
</trkpt>
<trkpt lat="47.739647" lon="11.151772">
<ele>661.27</ele>
<time>2022-05-27T11:57:00Z</time>
</trkpt>
<trkpt lat="47.739555" lon="11.151772">
<ele>661.27</ele>
<time>2022-05-27T11:57:01Z</time>
</trkpt>
<trkpt lat="47.739513" lon="11.151772">
<ele>661.27</ele>
<time>2022-05-27T11:57:03Z</time>
</trkpt>
<trkpt lat="47.739429" lon="11.151765">
<ele>661.527</ele>
<time>2022-05-27T11:57:05Z</time>
</trkpt>
<trkpt lat="47.739346" lon="11.151752">
<ele>661.882</ele>
<time>2022-05-27T11:57:06Z</time>
</trkpt>
<trkpt lat="47.739304" lon="11.151743">
<ele>662.036</ele>
<time>2022-05-27T11:57:08Z</time>
</trkpt>
<trkpt lat="47.739262" lon="11.151737">
<ele>662.156</ele>
<time>2022-05-27T11:57:09Z</time>
</trkpt>
<trkpt lat="47.73922" lon="11.151729">
<ele>662.236</ele>
<time>2022-05-27T11:57:10Z</time>
</trkpt>
<trkpt lat="47.739143" lon="11.15171">
<ele>662.758</ele>
<time>2022-05-27T11:57:11Z</time>
</trkpt>
<trkpt lat="47.739109" lon="11.1517">
<ele>662.969</ele>
<time>2022-05-27T11:57:13Z</time>
</trkpt>
<trkpt lat="47.739033" lon="11.15168">
<ele>663.172</ele>
<time>2022-05-27T11:57:15Z</time>
</trkpt>
<trkpt lat="47.738991" lon="11.15167">
<ele>663.226</ele>
<time>2022-05-27T11:57:16Z</time>
</trkpt>
<trkpt lat="47.738914" lon="11.151645">
<ele>663.298</ele>
<time>2022-05-27T11:57:18Z</time>
</trkpt>
<trkpt lat="47.738842" lon="11.151618">
<ele>663.298</ele>
<time>2022-05-27T11:57:19Z</time>
</trkpt>
<trkpt lat="47.738808" lon="11.151605">
<ele>663.298</ele>
<time>2022-05-27T11:57:21Z</time>
</trkpt>
<trkpt lat="47.73877" lon="11.151588">
<ele>663.298</ele>
<time>2022-05-27T11:57:22Z</time>
</trkpt>
<trkpt lat="47.738735" lon="11.151569">
<ele>663.298</ele>
<time>2022-05-27T11:57:23Z</time>
</trkpt>
<trkpt lat="47.738655" lon="11.151532">
<ele>663.298</ele>
<time>2022-05-27T11:57:25Z</time>
</trkpt>
<trkpt lat="47.73856" lon="11.151511">
<ele>663.298</ele>
<time>2022-05-27T11:57:27Z</time>
</trkpt>
<trkpt lat="47.738461" lon="11.151515">
<ele>663.298</ele>
<time>2022-05-27T11:57:28Z</time>
</trkpt>
<trkpt lat="47.738403" lon="11.151517">
<ele>663.298</ele>
<time>2022-05-27T11:57:30Z</time>
</trkpt>
<trkpt lat="47.738293" lon="11.15153">
<ele>663.298</ele>
<time>2022-05-27T11:57:31Z</time>
</trkpt>
<trkpt lat="47.738239" lon="11.151532">
<ele>663.298</ele>
<time>2022-05-27T11:57:33Z</time>
</trkpt>
<trkpt lat="47.738132" lon="11.151536">
<ele>662.847</ele>
<time>2022-05-27T11:57:34Z</time>
</trkpt>
<trkpt lat="47.738079" lon="11.151542">
<ele>662.696</ele>
<time>2022-05-27T11:57:36Z</time>
</trkpt>
<trkpt lat="47.737988" lon="11.151566">
<ele>662.279</ele>
<time>2022-05-27T11:57:37Z</time>
</trkpt>
<trkpt lat="47.737953" lon="11.15158">
<ele>662.029</ele>
<time>2022-05-27T11:57:38Z</time>
</trkpt>
<trkpt lat="47.737915" lon="11.151605">
<ele>661.832</ele>
<time>2022-05-27T11:57:40Z</time>
</trkpt>
<trkpt lat="47.737827" lon="11.151667">
<ele>661.587</ele>
<time>2022-05-27T11:57:41Z</time>
</trkpt>
<trkpt lat="47.737785" lon="11.15168">
<ele>661.516</ele>
<time>2022-05-27T11:57:42Z</time>
</trkpt>
<trkpt lat="47.737751" lon="11.151687">
<ele>661.47</ele>
<time>2022-05-27T11:57:43Z</time>
</trkpt>
<trkpt lat="47.737713" lon="11.151695">
<ele>661.446</ele>
<time>2022-05-27T11:57:44Z</time>
</trkpt>
<trkpt lat="47.737671" lon="11.151706">
<ele>661.446</ele>
<time>2022-05-27T11:57:45Z</time>
</trkpt>
<trkpt lat="47.737633" lon="11.151718">
<ele>661.446</ele>
<time>2022-05-27T11:57:46Z</time>
</trkpt>
<trkpt lat="47.737595" lon="11.151729">
<ele>661.446</ele>
<time>2022-05-27T11:57:47Z</time>
</trkpt>
<trkpt lat="47.737556" lon="11.15174">
<ele>661.446</ele>
<time>2022-05-27T11:57:49Z</time>
</trkpt>
<trkpt lat="47.737507" lon="11.151752">
<ele>661.446</ele>
<time>2022-05-27T11:57:50Z</time>
</trkpt>
<trkpt lat="47.737408" lon="11.151785">
<ele>661.446</ele>
<time>2022-05-27T11:57:52Z</time>
</trkpt>
<trkpt lat="47.737358" lon="11.151805">
<ele>661.174</ele>
<time>2022-05-27T11:57:53Z</time>
</trkpt>
<trkpt lat="47.73724" lon="11.151848">
<ele>660.807</ele>
<time>2022-05-27T11:57:55Z</time>
</trkpt>
<trkpt lat="47.737125" lon="11.151885">
<ele>660.373</ele>
<time>2022-05-27T11:57:57Z</time>
</trkpt>
<trkpt lat="47.737068" lon="11.151898">
<ele>660.073</ele>
<time>2022-05-27T11:57:58Z</time>
</trkpt>
<trkpt lat="47.736954" lon="11.151909">
<ele>659.681</ele>
<time>2022-05-27T11:57:59Z</time>
</trkpt>
<trkpt lat="47.736897" lon="11.151907">
<ele>659.574</ele>
<time>2022-05-27T11:58:01Z</time>
</trkpt>
<trkpt lat="47.736771" lon="11.151901">
<ele>659.448</ele>
<time>2022-05-27T11:58:02Z</time>
</trkpt>
<trkpt lat="47.736706" lon="11.15191">
<ele>659.157</ele>
<time>2022-05-27T11:58:04Z</time>
</trkpt>
<trkpt lat="47.736576" lon="11.151932">
<ele>658.752</ele>
<time>2022-05-27T11:58:06Z</time>
</trkpt>
<trkpt lat="47.736446" lon="11.151961">
<ele>658.526</ele>
<time>2022-05-27T11:58:08Z</time>
</trkpt>
<trkpt lat="47.736382" lon="11.151985">
<ele>658.44</ele>
<time>2022-05-27T11:58:09Z</time>
</trkpt>
<trkpt lat="47.736279" lon="11.152072">
<ele>658.361</ele>
<time>2022-05-27T11:58:11Z</time>
</trkpt>
<trkpt lat="47.736187" lon="11.152205">
<ele>658.361</ele>
<time>2022-05-27T11:58:13Z</time>
</trkpt>
<trkpt lat="47.736111" lon="11.152351">
<ele>658.122</ele>
<time>2022-05-27T11:58:15Z</time>
</trkpt>
<trkpt lat="47.736038" lon="11.152489">
<ele>657.796</ele>
<time>2022-05-27T11:58:17Z</time>
</trkpt>
<trkpt lat="47.735973" lon="11.152615">
<ele>657.548</ele>
<time>2022-05-27T11:58:18Z</time>
</trkpt>
<trkpt lat="47.735939" lon="11.15267">
<ele>657.47</ele>
<time>2022-05-27T11:58:20Z</time>
</trkpt>
<trkpt lat="47.735905" lon="11.152725">
<ele>657.418</ele>
<time>2022-05-27T11:58:21Z</time>
</trkpt>
<trkpt lat="47.73584" lon="11.152821">
<ele>657.392</ele>
<time>2022-05-27T11:58:22Z</time>
</trkpt>
<trkpt lat="47.735806" lon="11.152864">
<ele>657.65</ele>
<time>2022-05-27T11:58:23Z</time>
</trkpt>
<trkpt lat="47.735764" lon="11.152912">
<ele>657.862</ele>
<time>2022-05-27T11:58:24Z</time>
</trkpt>
<trkpt lat="47.735729" lon="11.152957">
<ele>658.029</ele>
<time>2022-05-27T11:58:25Z</time>
</trkpt>
<trkpt lat="47.735691" lon="11.152998">
<ele>658.146</ele>
<time>2022-05-27T11:58:26Z</time>
</trkpt>
<trkpt lat="47.735653" lon="11.153042">
<ele>658.273</ele>
<time>2022-05-27T11:58:28Z</time>
</trkpt>
<trkpt lat="47.735573" lon="11.153127">
<ele>658.681</ele>
<time>2022-05-27T11:58:30Z</time>
</trkpt>
<trkpt lat="47.735493" lon="11.153216">
<ele>659.172</ele>
<time>2022-05-27T11:58:32Z</time>
</trkpt>
<trkpt lat="47.735455" lon="11.153263">
<ele>659.308</ele>
<time>2022-05-27T11:58:33Z</time>
</trkpt>
<trkpt lat="47.735374" lon="11.153357">
<ele>659.456</ele>
<time>2022-05-27T11:58:34Z</time>
</trkpt>
<trkpt lat="47.735336" lon="11.153401">
<ele>659.482</ele>
<time>2022-05-27T11:58:35Z</time>
</trkpt>
<trkpt lat="47.735298" lon="11.153449">
<ele>659.507</ele>
<time>2022-05-27T11:58:36Z</time>
</trkpt>
<trkpt lat="47.735256" lon="11.153495">
<ele>659.507</ele>
<time>2022-05-27T11:58:38Z</time>
</trkpt>
<trkpt lat="47.735176" lon="11.153593">
<ele>659.507</ele>
<time>2022-05-27T11:58:39Z</time>
</trkpt>
<trkpt lat="47.735146" lon="11.153637">
<ele>659.507</ele>
<time>2022-05-27T11:58:41Z</time>
</trkpt>
<trkpt lat="47.735077" lon="11.153724">
<ele>659.507</ele>
<time>2022-05-27T11:58:42Z</time>
</trkpt>
<trkpt lat="47.735043" lon="11.153767">
<ele>659.507</ele>
<time>2022-05-27T11:58:44Z</time>
</trkpt>
<trkpt lat="47.734966" lon="11.153853">
<ele>659.507</ele>
<time>2022-05-27T11:58:45Z</time>
</trkpt>
<trkpt lat="47.734928" lon="11.153893">
<ele>659.507</ele>
<time>2022-05-27T11:58:46Z</time>
</trkpt>
<trkpt lat="47.734894" lon="11.153936">
<ele>659.742</ele>
<time>2022-05-27T11:58:48Z</time>
</trkpt>
<trkpt lat="47.734856" lon="11.153976">
<ele>659.944</ele>
<time>2022-05-27T11:58:49Z</time>
</trkpt>
<trkpt lat="47.734787" lon="11.154063">
<ele>660.206</ele>
<time>2022-05-27T11:58:50Z</time>
</trkpt>
<trkpt lat="47.734749" lon="11.154105">
<ele>660.531</ele>
<time>2022-05-27T11:58:52Z</time>
</trkpt>
<trkpt lat="47.734715" lon="11.154148">
<ele>660.792</ele>
<time>2022-05-27T11:58:53Z</time>
</trkpt>
<trkpt lat="47.734638" lon="11.154226">
<ele>661.14</ele>
<time>2022-05-27T11:58:54Z</time>
</trkpt>
<trkpt lat="47.734596" lon="11.154265">
<ele>661.229</ele>
<time>2022-05-27T11:58:55Z</time>
</trkpt>
<trkpt lat="47.734558" lon="11.154304">
<ele>661.285</ele>
<time>2022-05-27T11:58:57Z</time>
</trkpt>
<trkpt lat="47.734482" lon="11.154382">
<ele>661.358</ele>
<time>2022-05-27T11:58:58Z</time>
</trkpt>
<trkpt lat="47.734444" lon="11.154425">
<ele>661.358</ele>
<time>2022-05-27T11:58:59Z</time>
</trkpt>
<trkpt lat="47.734406" lon="11.154469">
<ele>661.359</ele>
<time>2022-05-27T11:59:00Z</time>
</trkpt>
<trkpt lat="47.734367" lon="11.154515">
<ele>661.358</ele>
<time>2022-05-27T11:59:02Z</time>
</trkpt>
<trkpt lat="47.734329" lon="11.154555">
<ele>661.358</ele>
<time>2022-05-27T11:59:03Z</time>
</trkpt>
<trkpt lat="47.734253" lon="11.154633">
<ele>661.804</ele>
<time>2022-05-27T11:59:05Z</time>
</trkpt>
<trkpt lat="47.734173" lon="11.154705">
<ele>662.057</ele>
<time>2022-05-27T11:59:06Z</time>
</trkpt>
<trkpt lat="47.734135" lon="11.154743">
<ele>662.169</ele>
<time>2022-05-27T11:59:08Z</time>
</trkpt>
<trkpt lat="47.734055" lon="11.154813">
<ele>662.3</ele>
<time>2022-05-27T11:59:10Z</time>
</trkpt>
<trkpt lat="47.733971" lon="11.154883">
<ele>662.856</ele>
<time>2022-05-27T11:59:11Z</time>
</trkpt>
<trkpt lat="47.733932" lon="11.154917">
<ele>663.032</ele>
<time>2022-05-27T11:59:13Z</time>
</trkpt>
<trkpt lat="47.733891" lon="11.154951">
<ele>663.162</ele>
<time>2022-05-27T11:59:14Z</time>
</trkpt>
<trkpt lat="47.73381" lon="11.155028">
<ele>663.534</ele>
<time>2022-05-27T11:59:15Z</time>
</trkpt>
<trkpt lat="47.733776" lon="11.155064">
<ele>663.76</ele>
<time>2022-05-27T11:59:16Z</time>
</trkpt>
<trkpt lat="47.733738" lon="11.1551">
<ele>663.963</ele>
<time>2022-05-27T11:59:18Z</time>
</trkpt>
<trkpt lat="47.733662" lon="11.155182">
<ele>664.206</ele>
<time>2022-05-27T11:59:19Z</time>
</trkpt>
<trkpt lat="47.733627" lon="11.15523">
<ele>664.284</ele>
<time>2022-05-27T11:59:21Z</time>
</trkpt>
<trkpt lat="47.733562" lon="11.155324">
<ele>664.356</ele>
<time>2022-05-27T11:59:22Z</time>
</trkpt>
<trkpt lat="47.733528" lon="11.155366">
<ele>664.356</ele>
<time>2022-05-27T11:59:24Z</time>
</trkpt>
<trkpt lat="47.733452" lon="11.155458">
<ele>664.356</ele>
<time>2022-05-27T11:59:26Z</time>
</trkpt>
<trkpt lat="47.733368" lon="11.155529">
<ele>664.356</ele>
<time>2022-05-27T11:59:27Z</time>
</trkpt>
<trkpt lat="47.733318" lon="11.155553">
<ele>664.356</ele>
<time>2022-05-27T11:59:29Z</time>
</trkpt>
<trkpt lat="47.733223" lon="11.155601">
<ele>664.356</ele>
<time>2022-05-27T11:59:30Z</time>
</trkpt>
<trkpt lat="47.733173" lon="11.15562">
<ele>664.356</ele>
<time>2022-05-27T11:59:32Z</time>
</trkpt>
<trkpt lat="47.733063" lon="11.155653">
<ele>664.356</ele>
<time>2022-05-27T11:59:33Z</time>
</trkpt>
<trkpt lat="47.733009" lon="11.155674">
<ele>664.356</ele>
<time>2022-05-27T11:59:34Z</time>
</trkpt>
<trkpt lat="47.732956" lon="11.155697">
<ele>664.09</ele>
<time>2022-05-27T11:59:35Z</time>
</trkpt>
<trkpt lat="47.732899" lon="11.155722">
<ele>663.905</ele>
<time>2022-05-27T11:59:36Z</time>
</trkpt>
<trkpt lat="47.732845" lon="11.155748">
<ele>663.717</ele>
<time>2022-05-27T11:59:38Z</time>
</trkpt>
<trkpt lat="47.732731" lon="11.155795">
<ele>663.204</ele>
<time>2022-05-27T11:59:39Z</time>
</trkpt>
<trkpt lat="47.732674" lon="11.155816">
<ele>662.899</ele>
<time>2022-05-27T11:59:40Z</time>
</trkpt>
<trkpt lat="47.73262" lon="11.15584">
<ele>662.667</ele>
<time>2022-05-27T11:59:41Z</time>
</trkpt>
<trkpt lat="47.732559" lon="11.155862">
<ele>662.501</ele>
<time>2022-05-27T11:59:43Z</time>
</trkpt>
<trkpt lat="47.732437" lon="11.155907">
<ele>662.291</ele>
<time>2022-05-27T11:59:44Z</time>
</trkpt>
<trkpt lat="47.73238" lon="11.155931">
<ele>662.264</ele>
<time>2022-05-27T11:59:45Z</time>
</trkpt>
<trkpt lat="47.732323" lon="11.155956">
<ele>662.24</ele>
<time>2022-05-27T11:59:47Z</time>
</trkpt>
<trkpt lat="47.732269" lon="11.155978">
<ele>662.24</ele>
<time>2022-05-27T11:59:48Z</time>
</trkpt>
<trkpt lat="47.732151" lon="11.156025">
<ele>661.726</ele>
<time>2022-05-27T11:59:50Z</time>
</trkpt>
<trkpt lat="47.73204" lon="11.156074">
<ele>661.434</ele>
<time>2022-05-27T11:59:51Z</time>
</trkpt>
<trkpt lat="47.731979" lon="11.156094">
<ele>661.349</ele>
<time>2022-05-27T11:59:53Z</time>
</trkpt>
<trkpt lat="47.731857" lon="11.156101">
<ele>661.27</ele>
<time>2022-05-27T11:59:54Z</time>
</trkpt>
<trkpt lat="47.731796" lon="11.156085">
<ele>661.27</ele>
<time>2022-05-27T11:59:55Z</time>
</trkpt>
<trkpt lat="47.731739" lon="11.156057">
<ele>661.27</ele>
<time>2022-05-27T11:59:57Z</time>
</trkpt>
<trkpt lat="47.731686" lon="11.15602">
<ele>661.27</ele>
<time>2022-05-27T11:59:58Z</time>
</trkpt>
<trkpt lat="47.731567" lon="11.155945">
<ele>661.27</ele>
<time>2022-05-27T12:00:00Z</time>
</trkpt>
<trkpt lat="47.731441" lon="11.15586">
<ele>660.823</ele>
<time>2022-05-27T12:00:01Z</time>
</trkpt>
<trkpt lat="47.731373" lon="11.155825">
<ele>660.673</ele>
<time>2022-05-27T12:00:02Z</time>
</trkpt>
<trkpt lat="47.731304" lon="11.155802">
<ele>660.589</ele>
<time>2022-05-27T12:00:04Z</time>
</trkpt>
<trkpt lat="47.731155" lon="11.155795">
<ele>660.003</ele>
<time>2022-05-27T12:00:05Z</time>
</trkpt>
<trkpt lat="47.731083" lon="11.155802">
<ele>659.833</ele>
<time>2022-05-27T12:00:07Z</time>
</trkpt>
<trkpt lat="47.730938" lon="11.155825">
<ele>659.567</ele>
<time>2022-05-27T12:00:08Z</time>
</trkpt>
<trkpt lat="47.730873" lon="11.155838">
<ele>659.492</ele>
<time>2022-05-27T12:00:10Z</time>
</trkpt>
<trkpt lat="47.730743" lon="11.155891">
<ele>659.419</ele>
<time>2022-05-27T12:00:11Z</time>
</trkpt>
<trkpt lat="47.730679" lon="11.155927">
<ele>659.419</ele>
<time>2022-05-27T12:00:12Z</time>
</trkpt>
<trkpt lat="47.730618" lon="11.155961">
<ele>659.419</ele>
<time>2022-05-27T12:00:13Z</time>
</trkpt>
<trkpt lat="47.730556" lon="11.155994">
<ele>659.419</ele>
<time>2022-05-27T12:00:15Z</time>
</trkpt>
<trkpt lat="47.730438" lon="11.156061">
<ele>659.419</ele>
<time>2022-05-27T12:00:17Z</time>
</trkpt>
<trkpt lat="47.730381" lon="11.156095">
<ele>659.419</ele>
<time>2022-05-27T12:00:18Z</time>
</trkpt>
<trkpt lat="47.73032" lon="11.156127">
<ele>659.419</ele>
<time>2022-05-27T12:00:19Z</time>
</trkpt>
<trkpt lat="47.730209" lon="11.15619">
<ele>659.419</ele>
<time>2022-05-27T12:00:20Z</time>
</trkpt>
<trkpt lat="47.73016" lon="11.156217">
<ele>659.419</ele>
<time>2022-05-27T12:00:21Z</time>
</trkpt>
<trkpt lat="47.73011" lon="11.156238">
<ele>659.419</ele>
<time>2022-05-27T12:00:23Z</time>
</trkpt>
<trkpt lat="47.730015" lon="11.156273">
<ele>659.419</ele>
<time>2022-05-27T12:00:25Z</time>
</trkpt>
<trkpt lat="47.729965" lon="11.156292">
<ele>659.643</ele>
<time>2022-05-27T12:00:26Z</time>
</trkpt>
<trkpt lat="47.72987" lon="11.156328">
<ele>659.979</ele>
<time>2022-05-27T12:00:27Z</time>
</trkpt>
<trkpt lat="47.729828" lon="11.156352">
<ele>660.121</ele>
<time>2022-05-27T12:00:29Z</time>
</trkpt>
<trkpt lat="47.72974" lon="11.156397">
<ele>660.313</ele>
<time>2022-05-27T12:00:30Z</time>
</trkpt>
<trkpt lat="47.729698" lon="11.156415">
<ele>660.365</ele>
<time>2022-05-27T12:00:31Z</time>
</trkpt>
<trkpt lat="47.729656" lon="11.156432">
<ele>660.388</ele>
<time>2022-05-27T12:00:33Z</time>
</trkpt>
<trkpt lat="47.729614" lon="11.156448">
<ele>660.388</ele>
<time>2022-05-27T12:00:34Z</time>
</trkpt>
<trkpt lat="47.729568" lon="11.156464">
<ele>660.388</ele>
<time>2022-05-27T12:00:35Z</time>
</trkpt>
<trkpt lat="47.729465" lon="11.156482">
<ele>660.388</ele>
<time>2022-05-27T12:00:37Z</time>
</trkpt>
<trkpt lat="47.729404" lon="11.156495">
<ele>660.007</ele>
<time>2022-05-27T12:00:38Z</time>
</trkpt>
<trkpt lat="47.729279" lon="11.156522">
<ele>659.423</ele>
<time>2022-05-27T12:00:39Z</time>
</trkpt>
<trkpt lat="47.72921" lon="11.156542">
<ele>659.223</ele>
<time>2022-05-27T12:00:41Z</time>
</trkpt>
<trkpt lat="47.729057" lon="11.156579">
<ele>658.765</ele>
<time>2022-05-27T12:00:42Z</time>
</trkpt>
<trkpt lat="47.728973" lon="11.156607">
<ele>658.235</ele>
<time>2022-05-27T12:00:43Z</time>
</trkpt>
<trkpt lat="47.728889" lon="11.156635">
<ele>657.847</ele>
<time>2022-05-27T12:00:44Z</time>
</trkpt>
<trkpt lat="47.728806" lon="11.156667">
<ele>657.631</ele>
<time>2022-05-27T12:00:46Z</time>
</trkpt>
<trkpt lat="47.728634" lon="11.156721">
<ele>656.827</ele>
<time>2022-05-27T12:00:47Z</time>
</trkpt>
<trkpt lat="47.728546" lon="11.156734">
<ele>656.295</ele>
<time>2022-05-27T12:00:48Z</time>
</trkpt>
<trkpt lat="47.728455" lon="11.156736">
<ele>655.889</ele>
<time>2022-05-27T12:00:50Z</time>
</trkpt>
<trkpt lat="47.728283" lon="11.156702">
<ele>655.2</ele>
<time>2022-05-27T12:00:52Z</time>
</trkpt>
<trkpt lat="47.72813" lon="11.15667">
<ele>654.584</ele>
<time>2022-05-27T12:00:54Z</time>
</trkpt>
<trkpt lat="47.727993" lon="11.15668">
<ele>654.07</ele>
<time>2022-05-27T12:00:56Z</time>
</trkpt>
<trkpt lat="47.727867" lon="11.156712">
<ele>653.607</ele>
<time>2022-05-27T12:00:58Z</time>
</trkpt>
<trkpt lat="47.727734" lon="11.156712">
<ele>653.328</ele>
<time>2022-05-27T12:01:00Z</time>
</trkpt>
<trkpt lat="47.727673" lon="11.156688">
<ele>653.244</ele>
<time>2022-05-27T12:01:01Z</time>
</trkpt>
<trkpt lat="47.727573" lon="11.156609">
<ele>653.163</ele>
<time>2022-05-27T12:01:03Z</time>
</trkpt>
<trkpt lat="47.727501" lon="11.156535">
<ele>653.163</ele>
<time>2022-05-27T12:01:05Z</time>
</trkpt>
<trkpt lat="47.727432" lon="11.156485">
<ele>653.537</ele>
<time>2022-05-27T12:01:06Z</time>
</trkpt>
<trkpt lat="47.727402" lon="11.15646">
<ele>653.698</ele>
<time>2022-05-27T12:01:07Z</time>
</trkpt>
<trkpt lat="47.727371" lon="11.156433">
<ele>653.838</ele>
<time>2022-05-27T12:01:08Z</time>
</trkpt>
<trkpt lat="47.727337" lon="11.156402">
<ele>653.955</ele>
<time>2022-05-27T12:01:10Z</time>
</trkpt>
<trkpt lat="47.727257" lon="11.156337">
<ele>654.104</ele>
<time>2022-05-27T12:01:11Z</time>
</trkpt>
<trkpt lat="47.727203" lon="11.15631">
<ele>654.132</ele>
<time>2022-05-27T12:01:13Z</time>
</trkpt>
<trkpt lat="47.727089" lon="11.156271">
<ele>653.911</ele>
<time>2022-05-27T12:01:14Z</time>
</trkpt>
<trkpt lat="47.727032" lon="11.156255">
<ele>653.447</ele>
<time>2022-05-27T12:01:16Z</time>
</trkpt>
<trkpt lat="47.726971" lon="11.156245">
<ele>653.149</ele>
<time>2022-05-27T12:01:17Z</time>
</trkpt>
<trkpt lat="47.726833" lon="11.156215">
<ele>652.365</ele>
<time>2022-05-27T12:01:19Z</time>
</trkpt>
<trkpt lat="47.726688" lon="11.15617">
<ele>651.478</ele>
<time>2022-05-27T12:01:20Z</time>
</trkpt>
<trkpt lat="47.726608" lon="11.156157">
<ele>651.055</ele>
<time>2022-05-27T12:01:21Z</time>
</trkpt>
<trkpt lat="47.726524" lon="11.156141">
<ele>650.801</ele>
<time>2022-05-27T12:01:22Z</time>
</trkpt>
<trkpt lat="47.72644" lon="11.156122">
<ele>650.219</ele>
<time>2022-05-27T12:01:23Z</time>
</trkpt>
<trkpt lat="47.726357" lon="11.156095">
<ele>649.916</ele>
<time>2022-05-27T12:01:25Z</time>
</trkpt>
<trkpt lat="47.726189" lon="11.156034">
<ele>649.569</ele>
<time>2022-05-27T12:01:26Z</time>
</trkpt>
<trkpt lat="47.726109" lon="11.155998">
<ele>649.435</ele>
<time>2022-05-27T12:01:28Z</time>
</trkpt>
<trkpt lat="47.725948" lon="11.155911">
<ele>649.074</ele>
<time>2022-05-27T12:01:30Z</time>
</trkpt>
<trkpt lat="47.725872" lon="11.155873">
<ele>648.855</ele>
<time>2022-05-27T12:01:31Z</time>
</trkpt>
<trkpt lat="47.725727" lon="11.155837">
<ele>648.508</ele>
<time>2022-05-27T12:01:33Z</time>
</trkpt>
<trkpt lat="47.725594" lon="11.15587">
<ele>648.369</ele>
<time>2022-05-27T12:01:35Z</time>
</trkpt>
<trkpt lat="47.725536" lon="11.155896">
<ele>648.352</ele>
<time>2022-05-27T12:01:36Z</time>
</trkpt>
<trkpt lat="47.72543" lon="11.15596">
<ele>648.752</ele>
<time>2022-05-27T12:01:37Z</time>
</trkpt>
<trkpt lat="47.725376" lon="11.15599">
<ele>648.934</ele>
<time>2022-05-27T12:01:38Z</time>
</trkpt>
<trkpt lat="47.725327" lon="11.156022">
<ele>649.082</ele>
<time>2022-05-27T12:01:39Z</time>
</trkpt>
<trkpt lat="47.725281" lon="11.156047">
<ele>649.202</ele>
<time>2022-05-27T12:01:40Z</time>
</trkpt>
<trkpt lat="47.725239" lon="11.156068">
<ele>649.289</ele>
<time>2022-05-27T12:01:41Z</time>
</trkpt>
<trkpt lat="47.725197" lon="11.156089">
<ele>649.347</ele>
<time>2022-05-27T12:01:43Z</time>
</trkpt>
<trkpt lat="47.725155" lon="11.156114">
<ele>649.375</ele>
<time>2022-05-27T12:01:44Z</time>
</trkpt>
<trkpt lat="47.725109" lon="11.156138">
<ele>649.375</ele>
<time>2022-05-27T12:01:45Z</time>
</trkpt>
<trkpt lat="47.725037" lon="11.156175">
<ele>649.375</ele>
<time>2022-05-27T12:01:47Z</time>
</trkpt>
<trkpt lat="47.724957" lon="11.156221">
<ele>649.375</ele>
<time>2022-05-27T12:01:49Z</time>
</trkpt>
<trkpt lat="47.724876" lon="11.156263">
<ele>649.375</ele>
<time>2022-05-27T12:01:50Z</time>
</trkpt>
<trkpt lat="47.724834" lon="11.156285">
<ele>649.375</ele>
<time>2022-05-27T12:01:51Z</time>
</trkpt>
<trkpt lat="47.724789" lon="11.156313">
<ele>649.375</ele>
<time>2022-05-27T12:01:53Z</time>
</trkpt>
<trkpt lat="47.724701" lon="11.15637">
<ele>649.375</ele>
<time>2022-05-27T12:01:54Z</time>
</trkpt>
<trkpt lat="47.724651" lon="11.156397">
<ele>649.375</ele>
<time>2022-05-27T12:01:55Z</time>
</trkpt>
<trkpt lat="47.724606" lon="11.156426">
<ele>649.375</ele>
<time>2022-05-27T12:01:57Z</time>
</trkpt>
<trkpt lat="47.72456" lon="11.156453">
<ele>649.375</ele>
<time>2022-05-27T12:01:58Z</time>
</trkpt>
<trkpt lat="47.724472" lon="11.15651">
<ele>649.846</ele>
<time>2022-05-27T12:01:59Z</time>
</trkpt>
<trkpt lat="47.724426" lon="11.156539">
<ele>649.995</ele>
<time>2022-05-27T12:02:01Z</time>
</trkpt>
<trkpt lat="47.724339" lon="11.15659">
<ele>650.184</ele>
<time>2022-05-27T12:02:02Z</time>
</trkpt>
<trkpt lat="47.724297" lon="11.156615">
<ele>650.232</ele>
<time>2022-05-27T12:02:04Z</time>
</trkpt>
<trkpt lat="47.724258" lon="11.156637">
<ele>650.252</ele>
<time>2022-05-27T12:02:05Z</time>
</trkpt>
<trkpt lat="47.724178" lon="11.156672">
<ele>650.256</ele>
<time>2022-05-27T12:02:06Z</time>
</trkpt>
<trkpt lat="47.724133" lon="11.156693">
<ele>650.256</ele>
<time>2022-05-27T12:02:08Z</time>
</trkpt>
<trkpt lat="47.724052" lon="11.15674">
<ele>650.764</ele>
<time>2022-05-27T12:02:10Z</time>
</trkpt>
<trkpt lat="47.72401" lon="11.156765">
<ele>650.93</ele>
<time>2022-05-27T12:02:11Z</time>
</trkpt>
<trkpt lat="47.723927" lon="11.156818">
<ele>651.147</ele>
<time>2022-05-27T12:02:12Z</time>
</trkpt>
<trkpt lat="47.723885" lon="11.15684">
<ele>651.197</ele>
<time>2022-05-27T12:02:13Z</time>
</trkpt>
<trkpt lat="47.723839" lon="11.156865">
<ele>651.225</ele>
<time>2022-05-27T12:02:15Z</time>
</trkpt>
<trkpt lat="47.723743" lon="11.156923">
<ele>651.225</ele>
<time>2022-05-27T12:02:16Z</time>
</trkpt>
<trkpt lat="47.723701" lon="11.156954">
<ele>651.225</ele>
<time>2022-05-27T12:02:18Z</time>
</trkpt>
<trkpt lat="47.72361" lon="11.157006">
<ele>651.225</ele>
<time>2022-05-27T12:02:19Z</time>
</trkpt>
<trkpt lat="47.723568" lon="11.157032">
<ele>651.225</ele>
<time>2022-05-27T12:02:21Z</time>
</trkpt>
<trkpt lat="47.723518" lon="11.157062">
<ele>651.225</ele>
<time>2022-05-27T12:02:22Z</time>
</trkpt>
<trkpt lat="47.723427" lon="11.157124">
<ele>651.225</ele>
<time>2022-05-27T12:02:23Z</time>
</trkpt>
<trkpt lat="47.723381" lon="11.157155">
<ele>651.225</ele>
<time>2022-05-27T12:02:25Z</time>
</trkpt>
<trkpt lat="47.723339" lon="11.157185">
<ele>651.225</ele>
<time>2022-05-27T12:02:26Z</time>
</trkpt>
<trkpt lat="47.723293" lon="11.157216">
<ele>651.225</ele>
<time>2022-05-27T12:02:27Z</time>
</trkpt>
<trkpt lat="47.723209" lon="11.157278">
<ele>651.225</ele>
<time>2022-05-27T12:02:28Z</time>
</trkpt>
<trkpt lat="47.723167" lon="11.15731">
<ele>651.225</ele>
<time>2022-05-27T12:02:29Z</time>
</trkpt>
<trkpt lat="47.723129" lon="11.157338">
<ele>651.225</ele>
<time>2022-05-27T12:02:31Z</time>
</trkpt>
<trkpt lat="47.723087" lon="11.157371">
<ele>651.225</ele>
<time>2022-05-27T12:02:32Z</time>
</trkpt>
<trkpt lat="47.723045" lon="11.157407">
<ele>651.225</ele>
<time>2022-05-27T12:02:33Z</time>
</trkpt>
<trkpt lat="47.723003" lon="11.157445">
<ele>651.225</ele>
<time>2022-05-27T12:02:34Z</time>
</trkpt>
<trkpt lat="47.722954" lon="11.157485">
<ele>651.225</ele>
<time>2022-05-27T12:02:35Z</time>
</trkpt>
<trkpt lat="47.722858" lon="11.157572">
<ele>650.734</ele>
<time>2022-05-27T12:02:36Z</time>
</trkpt>
<trkpt lat="47.722809" lon="11.157615">
<ele>650.313</ele>
<time>2022-05-27T12:02:37Z</time>
</trkpt>
<trkpt lat="47.722759" lon="11.157652">
<ele>649.685</ele>
<time>2022-05-27T12:02:38Z</time>
</trkpt>
<trkpt lat="47.722717" lon="11.157675">
<ele>649.206</ele>
<time>2022-05-27T12:02:40Z</time>
</trkpt>
<trkpt lat="47.722633" lon="11.157668">
<ele>648.358</ele>
<time>2022-05-27T12:02:41Z</time>
</trkpt>
<trkpt lat="47.722603" lon="11.157631">
<ele>647.963</ele>
<time>2022-05-27T12:02:42Z</time>
</trkpt>
<trkpt lat="47.722584" lon="11.157587">
<ele>647.681</ele>
<time>2022-05-27T12:02:43Z</time>
</trkpt>
<trkpt lat="47.722565" lon="11.157532">
<ele>647.474</ele>
<time>2022-05-27T12:02:44Z</time>
</trkpt>
<trkpt lat="47.722553" lon="11.157467">
<ele>647.338</ele>
<time>2022-05-27T12:02:46Z</time>
</trkpt>
<trkpt lat="47.72253" lon="11.157347">
<ele>647.203</ele>
<time>2022-05-27T12:02:47Z</time>
</trkpt>
<trkpt lat="47.722523" lon="11.157291">
<ele>647.174</ele>
<time>2022-05-27T12:02:48Z</time>
</trkpt>
<trkpt lat="47.722507" lon="11.15724">
<ele>647.174</ele>
<time>2022-05-27T12:02:49Z</time>
</trkpt>
<trkpt lat="47.722492" lon="11.157187">
<ele>647.174</ele>
<time>2022-05-27T12:02:51Z</time>
</trkpt>
<trkpt lat="47.722439" lon="11.157103">
<ele>647.678</ele>
<time>2022-05-27T12:02:52Z</time>
</trkpt>
<trkpt lat="47.722404" lon="11.157075">
<ele>647.816</ele>
<time>2022-05-27T12:02:54Z</time>
</trkpt>
<trkpt lat="47.72237" lon="11.157057">
<ele>648.176</ele>
<time>2022-05-27T12:02:55Z</time>
</trkpt>
<trkpt lat="47.72229" lon="11.157067">
<ele>648.654</ele>
<time>2022-05-27T12:02:56Z</time>
</trkpt>
<trkpt lat="47.722252" lon="11.157088">
<ele>648.845</ele>
<time>2022-05-27T12:02:57Z</time>
</trkpt>
<trkpt lat="47.722206" lon="11.157113">
<ele>648.972</ele>
<time>2022-05-27T12:02:59Z</time>
</trkpt>
<trkpt lat="47.722126" lon="11.157159">
<ele>649.091</ele>
<time>2022-05-27T12:03:00Z</time>
</trkpt>
<trkpt lat="47.722088" lon="11.157182">
<ele>649.111</ele>
<time>2022-05-27T12:03:02Z</time>
</trkpt>
<trkpt lat="47.722008" lon="11.157225">
<ele>649.111</ele>
<time>2022-05-27T12:03:03Z</time>
</trkpt>
<trkpt lat="47.721973" lon="11.157247">
<ele>649.111</ele>
<time>2022-05-27T12:03:04Z</time>
</trkpt>
<trkpt lat="47.721928" lon="11.157272">
<ele>649.111</ele>
<time>2022-05-27T12:03:05Z</time>
</trkpt>
<trkpt lat="47.721886" lon="11.157297">
<ele>649.111</ele>
<time>2022-05-27T12:03:06Z</time>
</trkpt>
<trkpt lat="47.721844" lon="11.15732">
<ele>649.111</ele>
<time>2022-05-27T12:03:07Z</time>
</trkpt>
<trkpt lat="47.721809" lon="11.157346">
<ele>649.404</ele>
<time>2022-05-27T12:03:08Z</time>
</trkpt>
<trkpt lat="47.721764" lon="11.157372">
<ele>649.63</ele>
<time>2022-05-27T12:03:09Z</time>
</trkpt>
<trkpt lat="47.721718" lon="11.157396">
<ele>649.803</ele>
<time>2022-05-27T12:03:11Z</time>
</trkpt>
<trkpt lat="47.721638" lon="11.157444">
<ele>650</ele>
<time>2022-05-27T12:03:12Z</time>
</trkpt>
<trkpt lat="47.721588" lon="11.157467">
<ele>650.056</ele>
<time>2022-05-27T12:03:13Z</time>
</trkpt>
<trkpt lat="47.721546" lon="11.157486">
<ele>650.08</ele>
<time>2022-05-27T12:03:15Z</time>
</trkpt>
<trkpt lat="47.721451" lon="11.157516">
<ele>650.08</ele>
<time>2022-05-27T12:03:16Z</time>
</trkpt>
<trkpt lat="47.721409" lon="11.15753">
<ele>650.08</ele>
<time>2022-05-27T12:03:17Z</time>
</trkpt>
<trkpt lat="47.721359" lon="11.157552">
<ele>650.373</ele>
<time>2022-05-27T12:03:19Z</time>
</trkpt>
<trkpt lat="47.721272" lon="11.157605">
<ele>650.764</ele>
<time>2022-05-27T12:03:20Z</time>
</trkpt>
<trkpt lat="47.721226" lon="11.157635">
<ele>650.885</ele>
<time>2022-05-27T12:03:22Z</time>
</trkpt>
<trkpt lat="47.721191" lon="11.157663">
<ele>650.972</ele>
<time>2022-05-27T12:03:23Z</time>
</trkpt>
<trkpt lat="47.721104" lon="11.157723">
<ele>651.044</ele>
<time>2022-05-27T12:03:24Z</time>
</trkpt>
<trkpt lat="47.721066" lon="11.15775">
<ele>651.049</ele>
<time>2022-05-27T12:03:26Z</time>
</trkpt>
<trkpt lat="47.720989" lon="11.157802">
<ele>651.048</ele>
<time>2022-05-27T12:03:27Z</time>
</trkpt>
<trkpt lat="47.720947" lon="11.157827">
<ele>651.048</ele>
<time>2022-05-27T12:03:28Z</time>
</trkpt>
<trkpt lat="47.720901" lon="11.15785">
<ele>651.049</ele>
<time>2022-05-27T12:03:30Z</time>
</trkpt>
<trkpt lat="47.720821" lon="11.157884">
<ele>651.048</ele>
<time>2022-05-27T12:03:31Z</time>
</trkpt>
<trkpt lat="47.720779" lon="11.157905">
<ele>651.049</ele>
<time>2022-05-27T12:03:32Z</time>
</trkpt>
<trkpt lat="47.720737" lon="11.15793">
<ele>651.048</ele>
<time>2022-05-27T12:03:34Z</time>
</trkpt>
<trkpt lat="47.720661" lon="11.157973">
<ele>651.049</ele>
<time>2022-05-27T12:03:35Z</time>
</trkpt>
<trkpt lat="47.720631" lon="11.157993">
<ele>651.048</ele>
<time>2022-05-27T12:03:36Z</time>
</trkpt>
<trkpt lat="47.7206" lon="11.15801">
<ele>651.048</ele>
<time>2022-05-27T12:03:37Z</time>
</trkpt>
<trkpt lat="47.72057" lon="11.158029">
<ele>651.048</ele>
<time>2022-05-27T12:03:39Z</time>
</trkpt>
<trkpt lat="47.720539" lon="11.158045">
<ele>651.048</ele>
<time>2022-05-27T12:03:40Z</time>
</trkpt>
<trkpt lat="47.720474" lon="11.158088">
<ele>651.472</ele>
<time>2022-05-27T12:03:42Z</time>
</trkpt>
<trkpt lat="47.72044" lon="11.158113">
<ele>651.621</ele>
<time>2022-05-27T12:03:43Z</time>
</trkpt>
<trkpt lat="47.720364" lon="11.158152">
<ele>651.818</ele>
<time>2022-05-27T12:03:44Z</time>
</trkpt>
<trkpt lat="47.720325" lon="11.15817">
<ele>651.871</ele>
<time>2022-05-27T12:03:45Z</time>
</trkpt>
<trkpt lat="47.720287" lon="11.15819">
<ele>651.907</ele>
<time>2022-05-27T12:03:46Z</time>
</trkpt>
<trkpt lat="47.720245" lon="11.158214">
<ele>651.93</ele>
<time>2022-05-27T12:03:48Z</time>
</trkpt>
<trkpt lat="47.720211" lon="11.158237">
<ele>651.929</ele>
<time>2022-05-27T12:03:49Z</time>
</trkpt>
<trkpt lat="47.720139" lon="11.158276">
<ele>651.93</ele>
<time>2022-05-27T12:03:50Z</time>
</trkpt>
<trkpt lat="47.7201" lon="11.158293">
<ele>651.93</ele>
<time>2022-05-27T12:03:51Z</time>
</trkpt>
<trkpt lat="47.720066" lon="11.158316">
<ele>651.929</ele>
<time>2022-05-27T12:03:52Z</time>
</trkpt>
<trkpt lat="47.720028" lon="11.158339">
<ele>651.93</ele>
<time>2022-05-27T12:03:53Z</time>
</trkpt>
<trkpt lat="47.71999" lon="11.158361">
<ele>651.929</ele>
<time>2022-05-27T12:03:54Z</time>
</trkpt>
<trkpt lat="47.719952" lon="11.158383">
<ele>651.93</ele>
<time>2022-05-27T12:03:55Z</time>
</trkpt>
<trkpt lat="47.719913" lon="11.158406">
<ele>651.93</ele>
<time>2022-05-27T12:03:57Z</time>
</trkpt>
<trkpt lat="47.719837" lon="11.158452">
<ele>651.93</ele>
<time>2022-05-27T12:03:58Z</time>
</trkpt>
<trkpt lat="47.719799" lon="11.158479">
<ele>651.93</ele>
<time>2022-05-27T12:03:59Z</time>
</trkpt>
<trkpt lat="47.719761" lon="11.158502">
<ele>651.929</ele>
<time>2022-05-27T12:04:00Z</time>
</trkpt>
<trkpt lat="47.719723" lon="11.158527">
<ele>651.93</ele>
<time>2022-05-27T12:04:01Z</time>
</trkpt>
<trkpt lat="47.719677" lon="11.158552">
<ele>651.929</ele>
<time>2022-05-27T12:04:02Z</time>
</trkpt>
<trkpt lat="47.719631" lon="11.15858">
<ele>651.929</ele>
<time>2022-05-27T12:04:04Z</time>
</trkpt>
<trkpt lat="47.719555" lon="11.158634">
<ele>651.93</ele>
<time>2022-05-27T12:04:05Z</time>
</trkpt>
<trkpt lat="47.719513" lon="11.158655">
<ele>651.93</ele>
<time>2022-05-27T12:04:06Z</time>
</trkpt>
<trkpt lat="47.719471" lon="11.158673">
<ele>651.929</ele>
<time>2022-05-27T12:04:08Z</time>
</trkpt>
<trkpt lat="47.719398" lon="11.158683">
<ele>651.929</ele>
<time>2022-05-27T12:04:09Z</time>
</trkpt>
<trkpt lat="47.719364" lon="11.158671">
<ele>651.93</ele>
<time>2022-05-27T12:04:10Z</time>
</trkpt>
<trkpt lat="47.71933" lon="11.158653">
<ele>651.93</ele>
<time>2022-05-27T12:04:12Z</time>
</trkpt>
<trkpt lat="47.719261" lon="11.158593">
<ele>652.374</ele>
<time>2022-05-27T12:04:13Z</time>
</trkpt>
<trkpt lat="47.719227" lon="11.158564">
<ele>652.53</ele>
<time>2022-05-27T12:04:14Z</time>
</trkpt>
<trkpt lat="47.719193" lon="11.158533">
<ele>652.652</ele>
<time>2022-05-27T12:04:16Z</time>
</trkpt>
<trkpt lat="47.719162" lon="11.158502">
<ele>652.737</ele>
<time>2022-05-27T12:04:17Z</time>
</trkpt>
<trkpt lat="47.719097" lon="11.158461">
<ele>652.873</ele>
<time>2022-05-27T12:04:18Z</time>
</trkpt>
<trkpt lat="47.719063" lon="11.158446">
<ele>652.898</ele>
<time>2022-05-27T12:04:20Z</time>
</trkpt>
<trkpt lat="47.719013" lon="11.158408">
<ele>652.898</ele>
<time>2022-05-27T12:04:21Z</time>
</trkpt>
<trkpt lat="47.718987" lon="11.158383">
<ele>652.898</ele>
<time>2022-05-27T12:04:23Z</time>
</trkpt>
<trkpt lat="47.718941" lon="11.158319">
<ele>653.131</ele>
<time>2022-05-27T12:04:24Z</time>
</trkpt>
<trkpt lat="47.71891" lon="11.158286">
<ele>653.326</ele>
<time>2022-05-27T12:04:25Z</time>
</trkpt>
<trkpt lat="47.71888" lon="11.158255">
<ele>653.464</ele>
<time>2022-05-27T12:04:26Z</time>
</trkpt>
<trkpt lat="47.718845" lon="11.158221">
<ele>653.614</ele>
<time>2022-05-27T12:04:27Z</time>
</trkpt>
<trkpt lat="47.718815" lon="11.158183">
<ele>653.729</ele>
<time>2022-05-27T12:04:29Z</time>
</trkpt>
<trkpt lat="47.718781" lon="11.158145">
<ele>653.8</ele>
<time>2022-05-27T12:04:30Z</time>
</trkpt>
<trkpt lat="47.718716" lon="11.158067">
<ele>653.867</ele>
<time>2022-05-27T12:04:31Z</time>
</trkpt>
<trkpt lat="47.718681" lon="11.158025">
<ele>653.867</ele>
<time>2022-05-27T12:04:33Z</time>
</trkpt>
<trkpt lat="47.71862" lon="11.157943">
<ele>653.867</ele>
<time>2022-05-27T12:04:35Z</time>
</trkpt>
<trkpt lat="47.718559" lon="11.157859">
<ele>653.867</ele>
<time>2022-05-27T12:04:36Z</time>
</trkpt>
<trkpt lat="47.718529" lon="11.157817">
<ele>653.867</ele>
<time>2022-05-27T12:04:37Z</time>
</trkpt>
<trkpt lat="47.718502" lon="11.157775">
<ele>653.867</ele>
<time>2022-05-27T12:04:38Z</time>
</trkpt>
<trkpt lat="47.718479" lon="11.157735">
<ele>653.867</ele>
<time>2022-05-27T12:04:40Z</time>
</trkpt>
<trkpt lat="47.718426" lon="11.157656">
<ele>653.867</ele>
<time>2022-05-27T12:04:42Z</time>
</trkpt>
<trkpt lat="47.71838" lon="11.157587">
<ele>653.867</ele>
<time>2022-05-27T12:04:44Z</time>
</trkpt>
<trkpt lat="47.71833" lon="11.157525">
<ele>654.322</ele>
<time>2022-05-27T12:04:45Z</time>
</trkpt>
<trkpt lat="47.718307" lon="11.157486">
<ele>654.472</ele>
<time>2022-05-27T12:04:47Z</time>
</trkpt>
<trkpt lat="47.718266" lon="11.157415">
<ele>654.748</ele>
<time>2022-05-27T12:04:49Z</time>
</trkpt>
<trkpt lat="47.71822" lon="11.157342">
<ele>654.894</ele>
<time>2022-05-27T12:04:50Z</time>
</trkpt>
<trkpt lat="47.718197" lon="11.157302">
<ele>655.184</ele>
<time>2022-05-27T12:04:51Z</time>
</trkpt>
<trkpt lat="47.718178" lon="11.157267">
<ele>655.436</ele>
<time>2022-05-27T12:04:52Z</time>
</trkpt>
<trkpt lat="47.718155" lon="11.157235">
<ele>655.613</ele>
<time>2022-05-27T12:04:53Z</time>
</trkpt>
<trkpt lat="47.718124" lon="11.1572">
<ele>655.732</ele>
<time>2022-05-27T12:04:55Z</time>
</trkpt>
<trkpt lat="47.718067" lon="11.157126">
<ele>655.895</ele>
<time>2022-05-27T12:04:57Z</time>
</trkpt>
<trkpt lat="47.71801" lon="11.157043">
<ele>656.206</ele>
<time>2022-05-27T12:04:58Z</time>
</trkpt>
<trkpt lat="47.717987" lon="11.157003">
<ele>656.465</ele>
<time>2022-05-27T12:04:59Z</time>
</trkpt>
<trkpt lat="47.717957" lon="11.156964">
<ele>656.616</ele>
<time>2022-05-27T12:05:00Z</time>
</trkpt>
<trkpt lat="47.71793" lon="11.156929">
<ele>656.721</ele>
<time>2022-05-27T12:05:01Z</time>
</trkpt>
<trkpt lat="47.717899" lon="11.156894">
<ele>656.79</ele>
<time>2022-05-27T12:05:03Z</time>
</trkpt>
<trkpt lat="47.717838" lon="11.156826">
<ele>656.857</ele>
<time>2022-05-27T12:05:04Z</time>
</trkpt>
<trkpt lat="47.717812" lon="11.156792">
<ele>657.116</ele>
<time>2022-05-27T12:05:06Z</time>
</trkpt>
<trkpt lat="47.717789" lon="11.156758">
<ele>657.298</ele>
<time>2022-05-27T12:05:07Z</time>
</trkpt>
<trkpt lat="47.717731" lon="11.156688">
<ele>657.62</ele>
<time>2022-05-27T12:05:08Z</time>
</trkpt>
<trkpt lat="47.717705" lon="11.156654">
<ele>658.021</ele>
<time>2022-05-27T12:05:10Z</time>
</trkpt>
<trkpt lat="47.717682" lon="11.156621">
<ele>658.342</ele>
<time>2022-05-27T12:05:11Z</time>
</trkpt>
<trkpt lat="47.717636" lon="11.156556">
<ele>658.777</ele>
<time>2022-05-27T12:05:12Z</time>
</trkpt>
<trkpt lat="47.717609" lon="11.15652">
<ele>658.946</ele>
<time>2022-05-27T12:05:13Z</time>
</trkpt>
<trkpt lat="47.717587" lon="11.156485">
<ele>659.009</ele>
<time>2022-05-27T12:05:15Z</time>
</trkpt>
<trkpt lat="47.717567" lon="11.156448">
<ele>659.038</ele>
<time>2022-05-27T12:05:16Z</time>
</trkpt>
<trkpt lat="47.717518" lon="11.156376">
<ele>659.066</ele>
<time>2022-05-27T12:05:17Z</time>
</trkpt>
<trkpt lat="47.717499" lon="11.156342">
<ele>659.381</ele>
<time>2022-05-27T12:05:18Z</time>
</trkpt>
<trkpt lat="47.717476" lon="11.156304">
<ele>659.623</ele>
<time>2022-05-27T12:05:20Z</time>
</trkpt>
<trkpt lat="47.717453" lon="11.156268">
<ele>659.806</ele>
<time>2022-05-27T12:05:21Z</time>
</trkpt>
<trkpt lat="47.717415" lon="11.156185">
<ele>660.04</ele>
<time>2022-05-27T12:05:22Z</time>
</trkpt>
<trkpt lat="47.7174" lon="11.156143">
<ele>660.098</ele>
<time>2022-05-27T12:05:23Z</time>
</trkpt>
<trkpt lat="47.717377" lon="11.156099">
<ele>660.117</ele>
<time>2022-05-27T12:05:25Z</time>
</trkpt>
<trkpt lat="47.717342" lon="11.156015">
<ele>660.124</ele>
<time>2022-05-27T12:05:26Z</time>
</trkpt>
<trkpt lat="47.717323" lon="11.155972">
<ele>660.124</ele>
<time>2022-05-27T12:05:27Z</time>
</trkpt>
<trkpt lat="47.717308" lon="11.155928">
<ele>660.124</ele>
<time>2022-05-27T12:05:29Z</time>
</trkpt>
<trkpt lat="47.717289" lon="11.155887">
<ele>660.124</ele>
<time>2022-05-27T12:05:30Z</time>
</trkpt>
<trkpt lat="47.71727" lon="11.155842">
<ele>660.124</ele>
<time>2022-05-27T12:05:31Z</time>
</trkpt>
<trkpt lat="47.717251" lon="11.155797">
<ele>660.124</ele>
<time>2022-05-27T12:05:32Z</time>
</trkpt>
<trkpt lat="47.717224" lon="11.155705">
<ele>660.124</ele>
<time>2022-05-27T12:05:34Z</time>
</trkpt>
<trkpt lat="47.717197" lon="11.155608">
<ele>660.124</ele>
<time>2022-05-27T12:05:35Z</time>
</trkpt>
<trkpt lat="47.717182" lon="11.15556">
<ele>660.124</ele>
<time>2022-05-27T12:05:37Z</time>
</trkpt>
<trkpt lat="47.717167" lon="11.15551">
<ele>660.124</ele>
<time>2022-05-27T12:05:38Z</time>
</trkpt>
<trkpt lat="47.717133" lon="11.155403">
<ele>660.124</ele>
<time>2022-05-27T12:05:40Z</time>
</trkpt>
<trkpt lat="47.717113" lon="11.155347">
<ele>660.124</ele>
<time>2022-05-27T12:05:41Z</time>
</trkpt>
<trkpt lat="47.717098" lon="11.155289">
<ele>660.124</ele>
<time>2022-05-27T12:05:42Z</time>
</trkpt>
<trkpt lat="47.71706" lon="11.155169">
<ele>660.124</ele>
<time>2022-05-27T12:05:44Z</time>
</trkpt>
<trkpt lat="47.717022" lon="11.155042">
<ele>660.124</ele>
<time>2022-05-27T12:05:45Z</time>
</trkpt>
<trkpt lat="47.717007" lon="11.154982">
<ele>660.124</ele>
<time>2022-05-27T12:05:46Z</time>
</trkpt>
<trkpt lat="47.716984" lon="11.154918">
<ele>660.124</ele>
<time>2022-05-27T12:05:47Z</time>
</trkpt>
<trkpt lat="47.716965" lon="11.154846">
<ele>660.124</ele>
<time>2022-05-27T12:05:48Z</time>
</trkpt>
<trkpt lat="47.716946" lon="11.154771">
<ele>660.124</ele>
<time>2022-05-27T12:05:49Z</time>
</trkpt>
<trkpt lat="47.716919" lon="11.154697">
<ele>660.124</ele>
<time>2022-05-27T12:05:50Z</time>
</trkpt>
<trkpt lat="47.716892" lon="11.154624">
<ele>660.124</ele>
<time>2022-05-27T12:05:52Z</time>
</trkpt>
<trkpt lat="47.716839" lon="11.154478">
<ele>660.124</ele>
<time>2022-05-27T12:05:53Z</time>
</trkpt>
<trkpt lat="47.716816" lon="11.154404">
<ele>660.124</ele>
<time>2022-05-27T12:05:54Z</time>
</trkpt>
<trkpt lat="47.716793" lon="11.15433">
<ele>660.124</ele>
<time>2022-05-27T12:05:56Z</time>
</trkpt>
<trkpt lat="47.716747" lon="11.154183">
<ele>660.124</ele>
<time>2022-05-27T12:05:57Z</time>
</trkpt>
<trkpt lat="47.716724" lon="11.15411">
<ele>660.124</ele>
<time>2022-05-27T12:05:58Z</time>
</trkpt>
<trkpt lat="47.716705" lon="11.154036">
<ele>659.847</ele>
<time>2022-05-27T12:05:59Z</time>
</trkpt>
<trkpt lat="47.716686" lon="11.153962">
<ele>659.628</ele>
<time>2022-05-27T12:06:00Z</time>
</trkpt>
<trkpt lat="47.716663" lon="11.153891">
<ele>659.462</ele>
<time>2022-05-27T12:06:02Z</time>
</trkpt>
<trkpt lat="47.716629" lon="11.153755">
<ele>659.255</ele>
<time>2022-05-27T12:06:03Z</time>
</trkpt>
<trkpt lat="47.716618" lon="11.153693">
<ele>659.207</ele>
<time>2022-05-27T12:06:04Z</time>
</trkpt>
<trkpt lat="47.716606" lon="11.153629">
<ele>659.178</ele>
<time>2022-05-27T12:06:05Z</time>
</trkpt>
<trkpt lat="47.716595" lon="11.153566">
<ele>659.155</ele>
<time>2022-05-27T12:06:06Z</time>
</trkpt>
<trkpt lat="47.716579" lon="11.153508">
<ele>659.155</ele>
<time>2022-05-27T12:06:07Z</time>
</trkpt>
<trkpt lat="47.716568" lon="11.153449">
<ele>659.155</ele>
<time>2022-05-27T12:06:08Z</time>
</trkpt>
<trkpt lat="47.71656" lon="11.15339">
<ele>659.155</ele>
<time>2022-05-27T12:06:09Z</time>
</trkpt>
<trkpt lat="47.716549" lon="11.15333">
<ele>659.155</ele>
<time>2022-05-27T12:06:11Z</time>
</trkpt>
<trkpt lat="47.716537" lon="11.153272">
<ele>659.155</ele>
<time>2022-05-27T12:06:12Z</time>
</trkpt>
<trkpt lat="47.71653" lon="11.153218">
<ele>659.155</ele>
<time>2022-05-27T12:06:13Z</time>
</trkpt>
<trkpt lat="47.716515" lon="11.153164">
<ele>659.155</ele>
<time>2022-05-27T12:06:14Z</time>
</trkpt>
<trkpt lat="47.716484" lon="11.153051">
<ele>659.155</ele>
<time>2022-05-27T12:06:15Z</time>
</trkpt>
<trkpt lat="47.716473" lon="11.152996">
<ele>659.155</ele>
<time>2022-05-27T12:06:16Z</time>
</trkpt>
<trkpt lat="47.716457" lon="11.152942">
<ele>659.155</ele>
<time>2022-05-27T12:06:17Z</time>
</trkpt>
<trkpt lat="47.716442" lon="11.15289">
<ele>659.155</ele>
<time>2022-05-27T12:06:18Z</time>
</trkpt>
<trkpt lat="47.716431" lon="11.152837">
<ele>659.155</ele>
<time>2022-05-27T12:06:19Z</time>
</trkpt>
<trkpt lat="47.716415" lon="11.152781">
<ele>659.155</ele>
<time>2022-05-27T12:06:20Z</time>
</trkpt>
<trkpt lat="47.716408" lon="11.152723">
<ele>659.155</ele>
<time>2022-05-27T12:06:21Z</time>
</trkpt>
<trkpt lat="47.7164" lon="11.15267">
<ele>659.155</ele>
<time>2022-05-27T12:06:22Z</time>
</trkpt>
<trkpt lat="47.716393" lon="11.152617">
<ele>659.155</ele>
<time>2022-05-27T12:06:23Z</time>
</trkpt>
<trkpt lat="47.716377" lon="11.15256">
<ele>659.155</ele>
<time>2022-05-27T12:06:24Z</time>
</trkpt>
<trkpt lat="47.716366" lon="11.152504">
<ele>659.155</ele>
<time>2022-05-27T12:06:25Z</time>
</trkpt>
<trkpt lat="47.716354" lon="11.152447">
<ele>659.155</ele>
<time>2022-05-27T12:06:27Z</time>
</trkpt>
<trkpt lat="47.716328" lon="11.152338">
<ele>659.155</ele>
<time>2022-05-27T12:06:29Z</time>
</trkpt>
<trkpt lat="47.716309" lon="11.152285">
<ele>658.897</ele>
<time>2022-05-27T12:06:30Z</time>
</trkpt>
<trkpt lat="47.716293" lon="11.152228">
<ele>658.699</ele>
<time>2022-05-27T12:06:31Z</time>
</trkpt>
<trkpt lat="47.716255" lon="11.152102">
<ele>658.442</ele>
<time>2022-05-27T12:06:33Z</time>
</trkpt>
<trkpt lat="47.716236" lon="11.152037">
<ele>658.365</ele>
<time>2022-05-27T12:06:34Z</time>
</trkpt>
<trkpt lat="47.716198" lon="11.151905">
<ele>658.047</ele>
<time>2022-05-27T12:06:35Z</time>
</trkpt>
<trkpt lat="47.716179" lon="11.151838">
<ele>657.855</ele>
<time>2022-05-27T12:06:36Z</time>
</trkpt>
<trkpt lat="47.716164" lon="11.151772">
<ele>657.683</ele>
<time>2022-05-27T12:06:37Z</time>
</trkpt>
<trkpt lat="47.716145" lon="11.151698">
<ele>657.55</ele>
<time>2022-05-27T12:06:38Z</time>
</trkpt>
<trkpt lat="47.716129" lon="11.151624">
<ele>657.462</ele>
<time>2022-05-27T12:06:40Z</time>
</trkpt>
<trkpt lat="47.716103" lon="11.151478">
<ele>656.888</ele>
<time>2022-05-27T12:06:41Z</time>
</trkpt>
<trkpt lat="47.716084" lon="11.151415">
<ele>656.7</ele>
<time>2022-05-27T12:06:43Z</time>
</trkpt>
<trkpt lat="47.716068" lon="11.151352">
<ele>656.558</ele>
<time>2022-05-27T12:06:44Z</time>
</trkpt>
<trkpt lat="47.716045" lon="11.151283">
<ele>656.254</ele>
<time>2022-05-27T12:06:45Z</time>
</trkpt>
<trkpt lat="47.716003" lon="11.15114">
<ele>655.855</ele>
<time>2022-05-27T12:06:46Z</time>
</trkpt>
<trkpt lat="47.715977" lon="11.151069">
<ele>655.458</ele>
<time>2022-05-27T12:06:47Z</time>
</trkpt>
<trkpt lat="47.715939" lon="11.151">
<ele>655.151</ele>
<time>2022-05-27T12:06:48Z</time>
</trkpt>
<trkpt lat="47.715893" lon="11.150939">
<ele>654.903</ele>
<time>2022-05-27T12:06:49Z</time>
</trkpt>
<trkpt lat="47.715843" lon="11.150902">
<ele>654.728</ele>
<time>2022-05-27T12:06:50Z</time>
</trkpt>
<trkpt lat="47.715786" lon="11.150887">
<ele>654.635</ele>
<time>2022-05-27T12:06:51Z</time>
</trkpt>
<trkpt lat="47.715729" lon="11.150887">
<ele>654.316</ele>
<time>2022-05-27T12:06:53Z</time>
</trkpt>
<trkpt lat="47.715672" lon="11.150897">
<ele>654.069</ele>
<time>2022-05-27T12:06:54Z</time>
</trkpt>
<trkpt lat="47.715614" lon="11.150913">
<ele>653.883</ele>
<time>2022-05-27T12:06:55Z</time>
</trkpt>
<trkpt lat="47.715565" lon="11.150933">
<ele>653.784</ele>
<time>2022-05-27T12:06:56Z</time>
</trkpt>
<trkpt lat="47.715469" lon="11.15098">
<ele>653.221</ele>
<time>2022-05-27T12:06:57Z</time>
</trkpt>
<trkpt lat="47.715424" lon="11.150997">
<ele>653.012</ele>
<time>2022-05-27T12:06:58Z</time>
</trkpt>
<trkpt lat="47.715378" lon="11.151016">
<ele>652.871</ele>
<time>2022-05-27T12:06:59Z</time>
</trkpt>
<trkpt lat="47.715321" lon="11.151035">
<ele>652.776</ele>
<time>2022-05-27T12:07:00Z</time>
</trkpt>
<trkpt lat="47.715267" lon="11.15105">
<ele>652.705</ele>
<time>2022-05-27T12:07:01Z</time>
</trkpt>
<trkpt lat="47.71521" lon="11.151063">
<ele>652.656</ele>
<time>2022-05-27T12:07:02Z</time>
</trkpt>
<trkpt lat="47.715149" lon="11.151077">
<ele>652.634</ele>
<time>2022-05-27T12:07:03Z</time>
</trkpt>
<trkpt lat="47.715084" lon="11.151092">
<ele>652.379</ele>
<time>2022-05-27T12:07:04Z</time>
</trkpt>
<trkpt lat="47.715019" lon="11.151105">
<ele>652.179</ele>
<time>2022-05-27T12:07:05Z</time>
</trkpt>
<trkpt lat="47.714954" lon="11.151114">
<ele>652.046</ele>
<time>2022-05-27T12:07:06Z</time>
</trkpt>
<trkpt lat="47.71489" lon="11.151119">
<ele>651.909</ele>
<time>2022-05-27T12:07:07Z</time>
</trkpt>
<trkpt lat="47.714832" lon="11.151118">
<ele>651.817</ele>
<time>2022-05-27T12:07:08Z</time>
</trkpt>
<trkpt lat="47.714771" lon="11.151119">
<ele>651.48</ele>
<time>2022-05-27T12:07:09Z</time>
</trkpt>
<trkpt lat="47.71471" lon="11.151125">
<ele>651.217</ele>
<time>2022-05-27T12:07:10Z</time>
</trkpt>
<trkpt lat="47.714642" lon="11.151135">
<ele>651.02</ele>
<time>2022-05-27T12:07:11Z</time>
</trkpt>
<trkpt lat="47.714573" lon="11.151152">
<ele>650.842</ele>
<time>2022-05-27T12:07:12Z</time>
</trkpt>
<trkpt lat="47.714508" lon="11.151161">
<ele>650.487</ele>
<time>2022-05-27T12:07:13Z</time>
</trkpt>
<trkpt lat="47.714443" lon="11.15118">
<ele>650.254</ele>
<time>2022-05-27T12:07:15Z</time>
</trkpt>
<trkpt lat="47.714378" lon="11.151198">
<ele>649.788</ele>
<time>2022-05-27T12:07:16Z</time>
</trkpt>
<trkpt lat="47.714256" lon="11.151238">
<ele>649.169</ele>
<time>2022-05-27T12:07:17Z</time>
</trkpt>
<trkpt lat="47.714214" lon="11.151247">
<ele>648.743</ele>
<time>2022-05-27T12:07:18Z</time>
</trkpt>
<trkpt lat="47.714169" lon="11.151252">
<ele>648.412</ele>
<time>2022-05-27T12:07:19Z</time>
</trkpt>
<trkpt lat="47.714134" lon="11.151252">
<ele>648.158</ele>
<time>2022-05-27T12:07:21Z</time>
</trkpt>
<trkpt lat="47.714077" lon="11.151221">
<ele>647.87</ele>
<time>2022-05-27T12:07:23Z</time>
</trkpt>
<trkpt lat="47.714039" lon="11.151165">
<ele>647.246</ele>
<time>2022-05-27T12:07:24Z</time>
</trkpt>
<trkpt lat="47.714027" lon="11.151128">
<ele>647.062</ele>
<time>2022-05-27T12:07:25Z</time>
</trkpt>
<trkpt lat="47.714016" lon="11.151083">
<ele>646.916</ele>
<time>2022-05-27T12:07:27Z</time>
</trkpt>
<trkpt lat="47.713985" lon="11.150975">
<ele>646.656</ele>
<time>2022-05-27T12:07:29Z</time>
</trkpt>
<trkpt lat="47.713951" lon="11.150826">
<ele>646.558</ele>
<time>2022-05-27T12:07:30Z</time>
</trkpt>
<trkpt lat="47.713921" lon="11.150746">
<ele>646.276</ele>
<time>2022-05-27T12:07:31Z</time>
</trkpt>
<trkpt lat="47.71389" lon="11.150655">
<ele>646.113</ele>
<time>2022-05-27T12:07:32Z</time>
</trkpt>
<trkpt lat="47.713875" lon="11.150558">
<ele>645.659</ele>
<time>2022-05-27T12:07:33Z</time>
</trkpt>
<trkpt lat="47.713867" lon="11.150459">
<ele>645.413</ele>
<time>2022-05-27T12:07:34Z</time>
</trkpt>
<trkpt lat="47.713863" lon="11.150372">
<ele>644.887</ele>
<time>2022-05-27T12:07:36Z</time>
</trkpt>
<trkpt lat="47.713879" lon="11.150204">
<ele>644.016</ele>
<time>2022-05-27T12:07:37Z</time>
</trkpt>
<trkpt lat="47.713886" lon="11.150117">
<ele>643.646</ele>
<time>2022-05-27T12:07:38Z</time>
</trkpt>
<trkpt lat="47.71389" lon="11.150028">
<ele>643.086</ele>
<time>2022-05-27T12:07:39Z</time>
</trkpt>
<trkpt lat="47.713894" lon="11.149937">
<ele>642.696</ele>
<time>2022-05-27T12:07:40Z</time>
</trkpt>
<trkpt lat="47.713902" lon="11.149847">
<ele>642.106</ele>
<time>2022-05-27T12:07:41Z</time>
</trkpt>
<trkpt lat="47.713917" lon="11.149758">
<ele>641.692</ele>
<time>2022-05-27T12:07:42Z</time>
</trkpt>
<trkpt lat="47.713928" lon="11.149669">
<ele>641.091</ele>
<time>2022-05-27T12:07:44Z</time>
</trkpt>
<trkpt lat="47.713974" lon="11.1495">
<ele>640.09</ele>
<time>2022-05-27T12:07:45Z</time>
</trkpt>
<trkpt lat="47.714005" lon="11.14942">
<ele>639.685</ele>
<time>2022-05-27T12:07:46Z</time>
</trkpt>
<trkpt lat="47.714027" lon="11.149317">
<ele>639.352</ele>
<time>2022-05-27T12:07:47Z</time>
</trkpt>
<trkpt lat="47.714039" lon="11.149187">
<ele>638.86</ele>
<time>2022-05-27T12:07:48Z</time>
</trkpt>
<trkpt lat="47.714027" lon="11.149089">
<ele>638.501</ele>
<time>2022-05-27T12:07:49Z</time>
</trkpt>
<trkpt lat="47.714005" lon="11.148993">
<ele>638.244</ele>
<time>2022-05-27T12:07:50Z</time>
</trkpt>
<trkpt lat="47.713974" lon="11.148913">
<ele>638.076</ele>
<time>2022-05-27T12:07:51Z</time>
</trkpt>
<trkpt lat="47.713947" lon="11.148846">
<ele>637.963</ele>
<time>2022-05-27T12:07:52Z</time>
</trkpt>
<trkpt lat="47.713921" lon="11.148787">
<ele>637.869</ele>
<time>2022-05-27T12:07:53Z</time>
</trkpt>
<trkpt lat="47.71389" lon="11.148733">
<ele>637.849</ele>
<time>2022-05-27T12:07:54Z</time>
</trkpt>
<trkpt lat="47.71386" lon="11.148686">
<ele>637.846</ele>
<time>2022-05-27T12:07:55Z</time>
</trkpt>
<trkpt lat="47.713825" lon="11.148643">
<ele>637.846</ele>
<time>2022-05-27T12:07:56Z</time>
</trkpt>
<trkpt lat="47.713791" lon="11.148602">
<ele>637.846</ele>
<time>2022-05-27T12:07:57Z</time>
</trkpt>
<trkpt lat="47.713749" lon="11.148568">
<ele>637.846</ele>
<time>2022-05-27T12:07:58Z</time>
</trkpt>
<trkpt lat="47.713699" lon="11.148541">
<ele>637.846</ele>
<time>2022-05-27T12:07:59Z</time>
</trkpt>
<trkpt lat="47.713657" lon="11.14851">
<ele>637.846</ele>
<time>2022-05-27T12:08:00Z</time>
</trkpt>
<trkpt lat="47.713608" lon="11.14849">
<ele>637.846</ele>
<time>2022-05-27T12:08:02Z</time>
</trkpt>
<trkpt lat="47.713562" lon="11.148473">
<ele>637.846</ele>
<time>2022-05-27T12:08:03Z</time>
</trkpt>
<trkpt lat="47.71347" lon="11.148465">
<ele>637.846</ele>
<time>2022-05-27T12:08:04Z</time>
</trkpt>
<trkpt lat="47.713428" lon="11.148469">
<ele>637.846</ele>
<time>2022-05-27T12:08:06Z</time>
</trkpt>
<trkpt lat="47.713383" lon="11.148473">
<ele>638.039</ele>
<time>2022-05-27T12:08:07Z</time>
</trkpt>
<trkpt lat="47.713333" lon="11.148487">
<ele>638.207</ele>
<time>2022-05-27T12:08:08Z</time>
</trkpt>
<trkpt lat="47.713242" lon="11.148525">
<ele>638.963</ele>
<time>2022-05-27T12:08:10Z</time>
</trkpt>
<trkpt lat="47.713203" lon="11.148553">
<ele>639.245</ele>
<time>2022-05-27T12:08:11Z</time>
</trkpt>
<trkpt lat="47.713127" lon="11.14861">
<ele>639.608</ele>
<time>2022-05-27T12:08:12Z</time>
</trkpt>
<trkpt lat="47.713093" lon="11.148639">
<ele>639.697</ele>
<time>2022-05-27T12:08:13Z</time>
</trkpt>
<trkpt lat="47.713062" lon="11.148668">
<ele>640.056</ele>
<time>2022-05-27T12:08:14Z</time>
</trkpt>
<trkpt lat="47.713028" lon="11.148699">
<ele>640.271</ele>
<time>2022-05-27T12:08:15Z</time>
</trkpt>
<trkpt lat="47.712994" lon="11.148731">
<ele>640.428</ele>
<time>2022-05-27T12:08:16Z</time>
</trkpt>
<trkpt lat="47.712959" lon="11.148764">
<ele>640.603</ele>
<time>2022-05-27T12:08:17Z</time>
</trkpt>
<trkpt lat="47.712925" lon="11.148795">
<ele>640.733</ele>
<time>2022-05-27T12:08:18Z</time>
</trkpt>
<trkpt lat="47.712894" lon="11.148833">
<ele>640.833</ele>
<time>2022-05-27T12:08:20Z</time>
</trkpt>
<trkpt lat="47.71283" lon="11.148915">
<ele>640.926</ele>
<time>2022-05-27T12:08:22Z</time>
</trkpt>
<trkpt lat="47.712761" lon="11.148998">
<ele>640.926</ele>
<time>2022-05-27T12:08:23Z</time>
</trkpt>
<trkpt lat="47.712723" lon="11.149041">
<ele>640.925</ele>
<time>2022-05-27T12:08:24Z</time>
</trkpt>
<trkpt lat="47.712685" lon="11.149078">
<ele>640.926</ele>
<time>2022-05-27T12:08:25Z</time>
</trkpt>
<trkpt lat="47.71265" lon="11.149098">
<ele>641.166</ele>
<time>2022-05-27T12:08:27Z</time>
</trkpt>
<trkpt lat="47.712578" lon="11.149108">
<ele>641.561</ele>
<time>2022-05-27T12:08:28Z</time>
</trkpt>
<trkpt lat="47.71254" lon="11.149096">
<ele>641.704</ele>
<time>2022-05-27T12:08:29Z</time>
</trkpt>
<trkpt lat="47.712505" lon="11.149075">
<ele>641.813</ele>
<time>2022-05-27T12:08:30Z</time>
</trkpt>
<trkpt lat="47.712471" lon="11.149045">
<ele>641.896</ele>
<time>2022-05-27T12:08:32Z</time>
</trkpt>
<trkpt lat="47.71244" lon="11.149015">
<ele>641.952</ele>
<time>2022-05-27T12:08:33Z</time>
</trkpt>
<trkpt lat="47.712414" lon="11.148984">
<ele>641.981</ele>
<time>2022-05-27T12:08:34Z</time>
</trkpt>
<trkpt lat="47.712353" lon="11.148932">
<ele>642.411</ele>
<time>2022-05-27T12:08:35Z</time>
</trkpt>
<trkpt lat="47.712322" lon="11.148903">
<ele>642.54</ele>
<time>2022-05-27T12:08:36Z</time>
</trkpt>
<trkpt lat="47.712292" lon="11.148875">
<ele>642.68</ele>
<time>2022-05-27T12:08:37Z</time>
</trkpt>
<trkpt lat="47.712261" lon="11.14885">
<ele>642.783</ele>
<time>2022-05-27T12:08:39Z</time>
</trkpt>
<trkpt lat="47.712196" lon="11.148821">
<ele>643.35</ele>
<time>2022-05-27T12:08:40Z</time>
</trkpt>
<trkpt lat="47.712162" lon="11.148817">
<ele>643.537</ele>
<time>2022-05-27T12:08:41Z</time>
</trkpt>
<trkpt lat="47.712132" lon="11.148815">
<ele>643.724</ele>
<time>2022-05-27T12:08:43Z</time>
</trkpt>
<trkpt lat="47.71207" lon="11.148821">
<ele>643.861</ele>
<time>2022-05-27T12:08:44Z</time>
</trkpt>
<trkpt lat="47.712036" lon="11.148823">
<ele>643.893</ele>
<time>2022-05-27T12:08:46Z</time>
</trkpt>
<trkpt lat="47.711979" lon="11.148807">
<ele>643.917</ele>
<time>2022-05-27T12:08:47Z</time>
</trkpt>
<trkpt lat="47.711952" lon="11.148785">
<ele>643.917</ele>
<time>2022-05-27T12:08:48Z</time>
</trkpt>
<trkpt lat="47.711922" lon="11.148756">
<ele>643.917</ele>
<time>2022-05-27T12:08:50Z</time>
</trkpt>
<trkpt lat="47.711868" lon="11.148693">
<ele>643.917</ele>
<time>2022-05-27T12:08:51Z</time>
</trkpt>
<trkpt lat="47.711842" lon="11.148657">
<ele>643.917</ele>
<time>2022-05-27T12:08:52Z</time>
</trkpt>
<trkpt lat="47.711815" lon="11.148617">
<ele>643.917</ele>
<time>2022-05-27T12:08:53Z</time>
</trkpt>
<trkpt lat="47.711792" lon="11.148577">
<ele>644.171</ele>
<time>2022-05-27T12:08:54Z</time>
</trkpt>
<trkpt lat="47.711765" lon="11.148534">
<ele>644.365</ele>
<time>2022-05-27T12:08:55Z</time>
</trkpt>
<trkpt lat="47.711735" lon="11.14849">
<ele>644.49</ele>
<time>2022-05-27T12:08:56Z</time>
</trkpt>
<trkpt lat="47.711708" lon="11.148443">
<ele>644.63</ele>
<time>2022-05-27T12:08:58Z</time>
</trkpt>
<trkpt lat="47.711643" lon="11.148358">
<ele>644.818</ele>
<time>2022-05-27T12:08:59Z</time>
</trkpt>
<trkpt lat="47.711609" lon="11.148324">
<ele>644.864</ele>
<time>2022-05-27T12:09:00Z</time>
</trkpt>
<trkpt lat="47.711575" lon="11.148298">
<ele>644.69</ele>
<time>2022-05-27T12:09:01Z</time>
</trkpt>
<trkpt lat="47.711533" lon="11.148293">
<ele>644.65</ele>
<time>2022-05-27T12:09:03Z</time>
</trkpt>
<trkpt lat="47.711437" lon="11.148305">
<ele>644.33</ele>
<time>2022-05-27T12:09:04Z</time>
</trkpt>
<trkpt lat="47.711384" lon="11.148314">
<ele>644.223</ele>
<time>2022-05-27T12:09:05Z</time>
</trkpt>
<trkpt lat="47.711338" lon="11.14832">
<ele>644.15</ele>
<time>2022-05-27T12:09:06Z</time>
</trkpt>
<trkpt lat="47.711292" lon="11.148322">
<ele>644.102</ele>
<time>2022-05-27T12:09:07Z</time>
</trkpt>
<trkpt lat="47.711254" lon="11.14832">
<ele>644.303</ele>
<time>2022-05-27T12:09:08Z</time>
</trkpt>
<trkpt lat="47.71122" lon="11.148315">
<ele>644.475</ele>
<time>2022-05-27T12:09:09Z</time>
</trkpt>
<trkpt lat="47.711182" lon="11.148308">
<ele>644.618</ele>
<time>2022-05-27T12:09:10Z</time>
</trkpt>
<trkpt lat="47.711147" lon="11.148301">
<ele>644.726</ele>
<time>2022-05-27T12:09:11Z</time>
</trkpt>
<trkpt lat="47.711109" lon="11.148291">
<ele>644.805</ele>
<time>2022-05-27T12:09:12Z</time>
</trkpt>
<trkpt lat="47.711067" lon="11.148278">
<ele>644.859</ele>
<time>2022-05-27T12:09:13Z</time>
</trkpt>
<trkpt lat="47.711021" lon="11.148263">
<ele>644.886</ele>
<time>2022-05-27T12:09:14Z</time>
</trkpt>
<trkpt lat="47.710979" lon="11.148253">
<ele>644.886</ele>
<time>2022-05-27T12:09:15Z</time>
</trkpt>
<trkpt lat="47.710934" lon="11.148243">
<ele>644.886</ele>
<time>2022-05-27T12:09:17Z</time>
</trkpt>
<trkpt lat="47.710835" lon="11.148222">
<ele>644.886</ele>
<time>2022-05-27T12:09:18Z</time>
</trkpt>
<trkpt lat="47.710789" lon="11.14821">
<ele>644.886</ele>
<time>2022-05-27T12:09:19Z</time>
</trkpt>
<trkpt lat="47.710735" lon="11.148198">
<ele>645.17</ele>
<time>2022-05-27T12:09:20Z</time>
</trkpt>
<trkpt lat="47.71069" lon="11.14819">
<ele>645.382</ele>
<time>2022-05-27T12:09:22Z</time>
</trkpt>
<trkpt lat="47.710594" lon="11.148184">
<ele>645.656</ele>
<time>2022-05-27T12:09:23Z</time>
</trkpt>
<trkpt lat="47.710552" lon="11.148178">
<ele>645.735</ele>
<time>2022-05-27T12:09:24Z</time>
</trkpt>
<trkpt lat="47.710506" lon="11.148177">
<ele>645.784</ele>
<time>2022-05-27T12:09:26Z</time>
</trkpt>
<trkpt lat="47.710415" lon="11.148185">
<ele>645.854</ele>
<time>2022-05-27T12:09:27Z</time>
</trkpt>
<trkpt lat="47.710365" lon="11.14819">
<ele>645.854</ele>
<time>2022-05-27T12:09:28Z</time>
</trkpt>
<trkpt lat="47.710323" lon="11.1482">
<ele>645.854</ele>
<time>2022-05-27T12:09:29Z</time>
</trkpt>
<trkpt lat="47.710274" lon="11.148211">
<ele>645.854</ele>
<time>2022-05-27T12:09:30Z</time>
</trkpt>
<trkpt lat="47.710232" lon="11.148218">
<ele>645.854</ele>
<time>2022-05-27T12:09:31Z</time>
</trkpt>
<trkpt lat="47.710186" lon="11.148226">
<ele>645.854</ele>
<time>2022-05-27T12:09:32Z</time>
</trkpt>
<trkpt lat="47.71014" lon="11.148228">
<ele>645.854</ele>
<time>2022-05-27T12:09:33Z</time>
</trkpt>
<trkpt lat="47.710102" lon="11.148232">
<ele>645.854</ele>
<time>2022-05-27T12:09:34Z</time>
</trkpt>
<trkpt lat="47.710064" lon="11.148233">
<ele>645.854</ele>
<time>2022-05-27T12:09:35Z</time>
</trkpt>
<trkpt lat="47.710022" lon="11.148238">
<ele>645.854</ele>
<time>2022-05-27T12:09:36Z</time>
</trkpt>
<trkpt lat="47.70998" lon="11.148249">
<ele>645.854</ele>
<time>2022-05-27T12:09:38Z</time>
</trkpt>
<trkpt lat="47.709938" lon="11.148258">
<ele>645.854</ele>
<time>2022-05-27T12:09:39Z</time>
</trkpt>
<trkpt lat="47.709846" lon="11.148278">
<ele>645.854</ele>
<time>2022-05-27T12:09:40Z</time>
</trkpt>
<trkpt lat="47.709805" lon="11.148292">
<ele>645.854</ele>
<time>2022-05-27T12:09:42Z</time>
</trkpt>
<trkpt lat="47.709721" lon="11.148315">
<ele>646.104</ele>
<time>2022-05-27T12:09:43Z</time>
</trkpt>
<trkpt lat="47.709679" lon="11.148322">
<ele>646.297</ele>
<time>2022-05-27T12:09:44Z</time>
</trkpt>
<trkpt lat="47.709633" lon="11.148331">
<ele>646.447</ele>
<time>2022-05-27T12:09:45Z</time>
</trkpt>
<trkpt lat="47.709583" lon="11.14834">
<ele>646.551</ele>
<time>2022-05-27T12:09:46Z</time>
</trkpt>
<trkpt lat="47.709538" lon="11.148354">
<ele>646.606</ele>
<time>2022-05-27T12:09:47Z</time>
</trkpt>
<trkpt lat="47.709488" lon="11.148366">
<ele>646.422</ele>
<time>2022-05-27T12:09:48Z</time>
</trkpt>
<trkpt lat="47.709442" lon="11.14838">
<ele>646.262</ele>
<time>2022-05-27T12:09:49Z</time>
</trkpt>
<trkpt lat="47.709393" lon="11.148397">
<ele>646.123</ele>
<time>2022-05-27T12:09:50Z</time>
</trkpt>
<trkpt lat="47.709354" lon="11.14841">
<ele>646.01</ele>
<time>2022-05-27T12:09:51Z</time>
</trkpt>
<trkpt lat="47.709305" lon="11.14842">
<ele>645.93</ele>
<time>2022-05-27T12:09:52Z</time>
</trkpt>
<trkpt lat="47.709259" lon="11.148432">
<ele>645.881</ele>
<time>2022-05-27T12:09:53Z</time>
</trkpt>
<trkpt lat="47.709217" lon="11.148441">
<ele>645.859</ele>
<time>2022-05-27T12:09:54Z</time>
</trkpt>
<trkpt lat="47.709164" lon="11.148454">
<ele>645.642</ele>
<time>2022-05-27T12:09:55Z</time>
</trkpt>
<trkpt lat="47.709114" lon="11.148467">
<ele>645.491</ele>
<time>2022-05-27T12:09:56Z</time>
</trkpt>
<trkpt lat="47.709057" lon="11.14849">
<ele>645.327</ele>
<time>2022-05-27T12:09:57Z</time>
</trkpt>
<trkpt lat="47.709" lon="11.148508">
<ele>645.196</ele>
<time>2022-05-27T12:09:58Z</time>
</trkpt>
<trkpt lat="47.708946" lon="11.14853">
<ele>645.099</ele>
<time>2022-05-27T12:09:59Z</time>
</trkpt>
<trkpt lat="47.708889" lon="11.148557">
<ele>645.041</ele>
<time>2022-05-27T12:10:01Z</time>
</trkpt>
<trkpt lat="47.708832" lon="11.148582">
<ele>644.746</ele>
<time>2022-05-27T12:10:02Z</time>
</trkpt>
<trkpt lat="47.708725" lon="11.148637">
<ele>644.34</ele>
<time>2022-05-27T12:10:04Z</time>
</trkpt>
<trkpt lat="47.708618" lon="11.148672">
<ele>644.147</ele>
<time>2022-05-27T12:10:05Z</time>
</trkpt>
<trkpt lat="47.708569" lon="11.148691">
<ele>644.083</ele>
<time>2022-05-27T12:10:06Z</time>
</trkpt>
<trkpt lat="47.708523" lon="11.148706">
<ele>644.031</ele>
<time>2022-05-27T12:10:08Z</time>
</trkpt>
<trkpt lat="47.708435" lon="11.14873">
<ele>644.005</ele>
<time>2022-05-27T12:10:09Z</time>
</trkpt>
<trkpt lat="47.708397" lon="11.148746">
<ele>644.005</ele>
<time>2022-05-27T12:10:10Z</time>
</trkpt>
<trkpt lat="47.708351" lon="11.148756">
<ele>644.005</ele>
<time>2022-05-27T12:10:11Z</time>
</trkpt>
<trkpt lat="47.708313" lon="11.148767">
<ele>644.005</ele>
<time>2022-05-27T12:10:12Z</time>
</trkpt>
<trkpt lat="47.708267" lon="11.148777">
<ele>644.005</ele>
<time>2022-05-27T12:10:13Z</time>
</trkpt>
<trkpt lat="47.708221" lon="11.148789">
<ele>644.005</ele>
<time>2022-05-27T12:10:14Z</time>
</trkpt>
<trkpt lat="47.708179" lon="11.148802">
<ele>644.005</ele>
<time>2022-05-27T12:10:16Z</time>
</trkpt>
<trkpt lat="47.708088" lon="11.148829">
<ele>644.005</ele>
<time>2022-05-27T12:10:17Z</time>
</trkpt>
<trkpt lat="47.708046" lon="11.14884">
<ele>644.005</ele>
<time>2022-05-27T12:10:18Z</time>
</trkpt>
<trkpt lat="47.707996" lon="11.148853">
<ele>644.005</ele>
<time>2022-05-27T12:10:19Z</time>
</trkpt>
<trkpt lat="47.707951" lon="11.148863">
<ele>644.005</ele>
<time>2022-05-27T12:10:20Z</time>
</trkpt>
<trkpt lat="47.707901" lon="11.148877">
<ele>644.005</ele>
<time>2022-05-27T12:10:21Z</time>
</trkpt>
<trkpt lat="47.707855" lon="11.148891">
<ele>644.005</ele>
<time>2022-05-27T12:10:22Z</time>
</trkpt>
<trkpt lat="47.707802" lon="11.148905">
<ele>644.005</ele>
<time>2022-05-27T12:10:23Z</time>
</trkpt>
<trkpt lat="47.70776" lon="11.148915">
<ele>644.005</ele>
<time>2022-05-27T12:10:24Z</time>
</trkpt>
<trkpt lat="47.707706" lon="11.148922">
<ele>644.005</ele>
<time>2022-05-27T12:10:25Z</time>
</trkpt>
<trkpt lat="47.707661" lon="11.14893">
<ele>644.005</ele>
<time>2022-05-27T12:10:27Z</time>
</trkpt>
<trkpt lat="47.707577" lon="11.148942">
<ele>644.005</ele>
<time>2022-05-27T12:10:28Z</time>
</trkpt>
<trkpt lat="47.707535" lon="11.148949">
<ele>644.005</ele>
<time>2022-05-27T12:10:29Z</time>
</trkpt>
<trkpt lat="47.707497" lon="11.148955">
<ele>644.005</ele>
<time>2022-05-27T12:10:30Z</time>
</trkpt>
<trkpt lat="47.707455" lon="11.148963">
<ele>644.005</ele>
<time>2022-05-27T12:10:31Z</time>
</trkpt>
<trkpt lat="47.707413" lon="11.14897">
<ele>644.005</ele>
<time>2022-05-27T12:10:32Z</time>
</trkpt>
<trkpt lat="47.707371" lon="11.148976">
<ele>644.005</ele>
<time>2022-05-27T12:10:34Z</time>
</trkpt>
<trkpt lat="47.707336" lon="11.148984">
<ele>644.005</ele>
<time>2022-05-27T12:10:35Z</time>
</trkpt>
<trkpt lat="47.707264" lon="11.148994">
<ele>644.005</ele>
<time>2022-05-27T12:10:36Z</time>
</trkpt>
<trkpt lat="47.707222" lon="11.149001">
<ele>644.005</ele>
<time>2022-05-27T12:10:38Z</time>
</trkpt>
<trkpt lat="47.707157" lon="11.149012">
<ele>644.005</ele>
<time>2022-05-27T12:10:39Z</time>
</trkpt>
<trkpt lat="47.70713" lon="11.149014">
<ele>644.005</ele>
<time>2022-05-27T12:10:40Z</time>
</trkpt>
<trkpt lat="47.7071" lon="11.149015">
<ele>644.005</ele>
<time>2022-05-27T12:10:41Z</time>
</trkpt>
<trkpt lat="47.707069" lon="11.149024">
<ele>644.005</ele>
<time>2022-05-27T12:10:42Z</time>
</trkpt>
<trkpt lat="47.707035" lon="11.149028">
<ele>644.005</ele>
<time>2022-05-27T12:10:43Z</time>
</trkpt>
<trkpt lat="47.707005" lon="11.149035">
<ele>644.005</ele>
<time>2022-05-27T12:10:44Z</time>
</trkpt>
<trkpt lat="47.706974" lon="11.149035">
<ele>644.005</ele>
<time>2022-05-27T12:10:45Z</time>
</trkpt>
<trkpt lat="47.706944" lon="11.149033">
<ele>644.005</ele>
<time>2022-05-27T12:10:46Z</time>
</trkpt>
<trkpt lat="47.706917" lon="11.149032">
<ele>644.005</ele>
<time>2022-05-27T12:10:47Z</time>
</trkpt>
<trkpt lat="47.706898" lon="11.149028">
<ele>644.005</ele>
<time>2022-05-27T12:10:48Z</time>
</trkpt>
<trkpt lat="47.706882" lon="11.149028">
<ele>644.005</ele>
<time>2022-05-27T12:10:49Z</time>
</trkpt>
<trkpt lat="47.706882" lon="11.149024">
<ele>644.005</ele>
<time>2022-05-27T12:10:50Z</time>
</trkpt>
<trkpt lat="47.706879" lon="11.149022">
<ele>644.005</ele>
<time>2022-05-27T12:10:53Z</time>
</trkpt>
<trkpt lat="47.70686" lon="11.149057">
<ele>644.005</ele>
<time>2022-05-27T12:13:18Z</time>
</trkpt>
<trkpt lat="47.706848" lon="11.14906">
<ele>644.064</ele>
<time>2022-05-27T12:13:19Z</time>
</trkpt>
<trkpt lat="47.706837" lon="11.149063">
<ele>644.114</ele>
<time>2022-05-27T12:13:21Z</time>
</trkpt>
<trkpt lat="47.706795" lon="11.149072">
<ele>644.2</ele>
<time>2022-05-27T12:13:23Z</time>
</trkpt>
<trkpt lat="47.706741" lon="11.14908">
<ele>644.264</ele>
<time>2022-05-27T12:13:24Z</time>
</trkpt>
<trkpt lat="47.706711" lon="11.149085">
<ele>644.268</ele>
<time>2022-05-27T12:13:25Z</time>
</trkpt>
<trkpt lat="47.706673" lon="11.149089">
<ele>644.27</ele>
<time>2022-05-27T12:13:26Z</time>
</trkpt>
<trkpt lat="47.706635" lon="11.149092">
<ele>644.27</ele>
<time>2022-05-27T12:13:27Z</time>
</trkpt>
<trkpt lat="47.706596" lon="11.149094">
<ele>644.27</ele>
<time>2022-05-27T12:13:28Z</time>
</trkpt>
<trkpt lat="47.706558" lon="11.149096">
<ele>644.27</ele>
<time>2022-05-27T12:13:30Z</time>
</trkpt>
<trkpt lat="47.706486" lon="11.149099">
<ele>644.27</ele>
<time>2022-05-27T12:13:31Z</time>
</trkpt>
<trkpt lat="47.706444" lon="11.149101">
<ele>644.27</ele>
<time>2022-05-27T12:13:32Z</time>
</trkpt>
<trkpt lat="47.706402" lon="11.149103">
<ele>644.27</ele>
<time>2022-05-27T12:13:34Z</time>
</trkpt>
<trkpt lat="47.706322" lon="11.149112">
<ele>644.27</ele>
<time>2022-05-27T12:13:35Z</time>
</trkpt>
<trkpt lat="47.70628" lon="11.149118">
<ele>644.269</ele>
<time>2022-05-27T12:13:36Z</time>
</trkpt>
<trkpt lat="47.706238" lon="11.149131">
<ele>644.27</ele>
<time>2022-05-27T12:13:37Z</time>
</trkpt>
<trkpt lat="47.7062" lon="11.149141">
<ele>644.269</ele>
<time>2022-05-27T12:13:38Z</time>
</trkpt>
<trkpt lat="47.706161" lon="11.149148">
<ele>644.27</ele>
<time>2022-05-27T12:13:39Z</time>
</trkpt>
<trkpt lat="47.70612" lon="11.14915">
<ele>644.27</ele>
<time>2022-05-27T12:13:40Z</time>
</trkpt>
<trkpt lat="47.706078" lon="11.149148">
<ele>644.27</ele>
<time>2022-05-27T12:13:41Z</time>
</trkpt>
<trkpt lat="47.706032" lon="11.149148">
<ele>644.27</ele>
<time>2022-05-27T12:13:42Z</time>
</trkpt>
<trkpt lat="47.705994" lon="11.149148">
<ele>644.27</ele>
<time>2022-05-27T12:13:43Z</time>
</trkpt>
<trkpt lat="47.705948" lon="11.149143">
<ele>644.27</ele>
<time>2022-05-27T12:13:44Z</time>
</trkpt>
<trkpt lat="47.705902" lon="11.149135">
<ele>644.27</ele>
<time>2022-05-27T12:13:45Z</time>
</trkpt>
<trkpt lat="47.705864" lon="11.149123">
<ele>644.269</ele>
<time>2022-05-27T12:13:47Z</time>
</trkpt>
<trkpt lat="47.705826" lon="11.149108">
<ele>644.532</ele>
<time>2022-05-27T12:13:48Z</time>
</trkpt>
<trkpt lat="47.705746" lon="11.149085">
<ele>644.891</ele>
<time>2022-05-27T12:13:50Z</time>
</trkpt>
<trkpt lat="47.705662" lon="11.149074">
<ele>645.091</ele>
<time>2022-05-27T12:13:52Z</time>
</trkpt>
<trkpt lat="47.70557" lon="11.149075">
<ele>645.21</ele>
<time>2022-05-27T12:13:53Z</time>
</trkpt>
<trkpt lat="47.705524" lon="11.14908">
<ele>645.238</ele>
<time>2022-05-27T12:13:54Z</time>
</trkpt>
<trkpt lat="47.705475" lon="11.149085">
<ele>645.238</ele>
<time>2022-05-27T12:13:55Z</time>
</trkpt>
<trkpt lat="47.705425" lon="11.149092">
<ele>645.238</ele>
<time>2022-05-27T12:13:56Z</time>
</trkpt>
<trkpt lat="47.705376" lon="11.149097">
<ele>645.238</ele>
<time>2022-05-27T12:13:58Z</time>
</trkpt>
<trkpt lat="47.70528" lon="11.14911">
<ele>645.238</ele>
<time>2022-05-27T12:13:59Z</time>
</trkpt>
<trkpt lat="47.705242" lon="11.149115">
<ele>645.238</ele>
<time>2022-05-27T12:14:00Z</time>
</trkpt>
<trkpt lat="47.705196" lon="11.149118">
<ele>645.238</ele>
<time>2022-05-27T12:14:01Z</time>
</trkpt>
<trkpt lat="47.705154" lon="11.14912">
<ele>645.238</ele>
<time>2022-05-27T12:14:02Z</time>
</trkpt>
<trkpt lat="47.705116" lon="11.149123">
<ele>645.238</ele>
<time>2022-05-27T12:14:04Z</time>
</trkpt>
<trkpt lat="47.70504" lon="11.149132">
<ele>645.237</ele>
<time>2022-05-27T12:14:05Z</time>
</trkpt>
<trkpt lat="47.704994" lon="11.149137">
<ele>645.238</ele>
<time>2022-05-27T12:14:06Z</time>
</trkpt>
<trkpt lat="47.704956" lon="11.149143">
<ele>645.238</ele>
<time>2022-05-27T12:14:08Z</time>
</trkpt>
<trkpt lat="47.704872" lon="11.149158">
<ele>645.238</ele>
<time>2022-05-27T12:14:10Z</time>
</trkpt>
<trkpt lat="47.704784" lon="11.149177">
<ele>645.238</ele>
<time>2022-05-27T12:14:11Z</time>
</trkpt>
<trkpt lat="47.704742" lon="11.149188">
<ele>645.238</ele>
<time>2022-05-27T12:14:12Z</time>
</trkpt>
<trkpt lat="47.7047" lon="11.1492">
<ele>645.238</ele>
<time>2022-05-27T12:14:13Z</time>
</trkpt>
<trkpt lat="47.704659" lon="11.149213">
<ele>645.238</ele>
<time>2022-05-27T12:14:15Z</time>
</trkpt>
<trkpt lat="47.704575" lon="11.149241">
<ele>645.238</ele>
<time>2022-05-27T12:14:17Z</time>
</trkpt>
<trkpt lat="47.704494" lon="11.149277">
<ele>645.238</ele>
<time>2022-05-27T12:14:18Z</time>
</trkpt>
<trkpt lat="47.704449" lon="11.149295">
<ele>645.238</ele>
<time>2022-05-27T12:14:20Z</time>
</trkpt>
<trkpt lat="47.704361" lon="11.149339">
<ele>645.676</ele>
<time>2022-05-27T12:14:21Z</time>
</trkpt>
<trkpt lat="47.704319" lon="11.149362">
<ele>645.807</ele>
<time>2022-05-27T12:14:23Z</time>
</trkpt>
<trkpt lat="47.704231" lon="11.149408">
<ele>646.057</ele>
<time>2022-05-27T12:14:24Z</time>
</trkpt>
<trkpt lat="47.704189" lon="11.149432">
<ele>646.134</ele>
<time>2022-05-27T12:14:25Z</time>
</trkpt>
<trkpt lat="47.704147" lon="11.149455">
<ele>646.183</ele>
<time>2022-05-27T12:14:26Z</time>
</trkpt>
<trkpt lat="47.704105" lon="11.149475">
<ele>646.206</ele>
<time>2022-05-27T12:14:27Z</time>
</trkpt>
<trkpt lat="47.704067" lon="11.149493">
<ele>646.206</ele>
<time>2022-05-27T12:14:28Z</time>
</trkpt>
<trkpt lat="47.704025" lon="11.149507">
<ele>646.206</ele>
<time>2022-05-27T12:14:29Z</time>
</trkpt>
<trkpt lat="47.703983" lon="11.14952">
<ele>646.206</ele>
<time>2022-05-27T12:14:30Z</time>
</trkpt>
<trkpt lat="47.703945" lon="11.149529">
<ele>646.206</ele>
<time>2022-05-27T12:14:31Z</time>
</trkpt>
<trkpt lat="47.703903" lon="11.149537">
<ele>646.206</ele>
<time>2022-05-27T12:14:32Z</time>
</trkpt>
<trkpt lat="47.703861" lon="11.149544">
<ele>646.206</ele>
<time>2022-05-27T12:14:33Z</time>
</trkpt>
<trkpt lat="47.703815" lon="11.149549">
<ele>646.206</ele>
<time>2022-05-27T12:14:34Z</time>
</trkpt>
<trkpt lat="47.703773" lon="11.149556">
<ele>646.206</ele>
<time>2022-05-27T12:14:35Z</time>
</trkpt>
<trkpt lat="47.703728" lon="11.149571">
<ele>646.206</ele>
<time>2022-05-27T12:14:36Z</time>
</trkpt>
<trkpt lat="47.703682" lon="11.149602">
<ele>646.206</ele>
<time>2022-05-27T12:14:37Z</time>
</trkpt>
<trkpt lat="47.703644" lon="11.149644">
<ele>646.447</ele>
<time>2022-05-27T12:14:39Z</time>
</trkpt>
<trkpt lat="47.703583" lon="11.149766">
<ele>646.775</ele>
<time>2022-05-27T12:14:40Z</time>
</trkpt>
<trkpt lat="47.70356" lon="11.149839">
<ele>646.878</ele>
<time>2022-05-27T12:14:41Z</time>
</trkpt>
<trkpt lat="47.703541" lon="11.149915">
<ele>646.949</ele>
<time>2022-05-27T12:14:42Z</time>
</trkpt>
<trkpt lat="47.703522" lon="11.149988">
<ele>647.33</ele>
<time>2022-05-27T12:14:43Z</time>
</trkpt>
<trkpt lat="47.703491" lon="11.150057">
<ele>647.589</ele>
<time>2022-05-27T12:14:44Z</time>
</trkpt>
<trkpt lat="47.703457" lon="11.150115">
<ele>648.155</ele>
<time>2022-05-27T12:14:45Z</time>
</trkpt>
<trkpt lat="47.703423" lon="11.150157">
<ele>648.594</ele>
<time>2022-05-27T12:14:47Z</time>
</trkpt>
<trkpt lat="47.703358" lon="11.15021">
<ele>649.159</ele>
<time>2022-05-27T12:14:49Z</time>
</trkpt>
<trkpt lat="47.703293" lon="11.150249">
<ele>649.966</ele>
<time>2022-05-27T12:14:50Z</time>
</trkpt>
<trkpt lat="47.703255" lon="11.150269">
<ele>650.183</ele>
<time>2022-05-27T12:14:51Z</time>
</trkpt>
<trkpt lat="47.703224" lon="11.150283">
<ele>650.592</ele>
<time>2022-05-27T12:14:52Z</time>
</trkpt>
<trkpt lat="47.70319" lon="11.150298">
<ele>650.937</ele>
<time>2022-05-27T12:14:53Z</time>
</trkpt>
<trkpt lat="47.703159" lon="11.150311">
<ele>651.201</ele>
<time>2022-05-27T12:14:54Z</time>
</trkpt>
<trkpt lat="47.703129" lon="11.150316">
<ele>651.694</ele>
<time>2022-05-27T12:14:55Z</time>
</trkpt>
<trkpt lat="47.703102" lon="11.150323">
<ele>652.071</ele>
<time>2022-05-27T12:14:56Z</time>
</trkpt>
<trkpt lat="47.703075" lon="11.150329">
<ele>652.351</ele>
<time>2022-05-27T12:14:57Z</time>
</trkpt>
<trkpt lat="47.703049" lon="11.15033">
<ele>652.56</ele>
<time>2022-05-27T12:14:59Z</time>
</trkpt>
<trkpt lat="47.702995" lon="11.150325">
<ele>652.835</ele>
<time>2022-05-27T12:15:00Z</time>
</trkpt>
<trkpt lat="47.702965" lon="11.150318">
<ele>652.861</ele>
<time>2022-05-27T12:15:01Z</time>
</trkpt>
<trkpt lat="47.702934" lon="11.150313">
<ele>653.112</ele>
<time>2022-05-27T12:15:02Z</time>
</trkpt>
<trkpt lat="47.702904" lon="11.150307">
<ele>653.321</ele>
<time>2022-05-27T12:15:03Z</time>
</trkpt>
<trkpt lat="47.702877" lon="11.1503">
<ele>653.492</ele>
<time>2022-05-27T12:15:04Z</time>
</trkpt>
<trkpt lat="47.702847" lon="11.150293">
<ele>653.626</ele>
<time>2022-05-27T12:15:05Z</time>
</trkpt>
<trkpt lat="47.702816" lon="11.15029">
<ele>653.727</ele>
<time>2022-05-27T12:15:06Z</time>
</trkpt>
<trkpt lat="47.702778" lon="11.150285">
<ele>653.799</ele>
<time>2022-05-27T12:15:07Z</time>
</trkpt>
<trkpt lat="47.702744" lon="11.150285">
<ele>653.845</ele>
<time>2022-05-27T12:15:08Z</time>
</trkpt>
<trkpt lat="47.702709" lon="11.150287">
<ele>653.867</ele>
<time>2022-05-27T12:15:09Z</time>
</trkpt>
<trkpt lat="47.702671" lon="11.150288">
<ele>653.867</ele>
<time>2022-05-27T12:15:11Z</time>
</trkpt>
<trkpt lat="47.702606" lon="11.150295">
<ele>653.867</ele>
<time>2022-05-27T12:15:12Z</time>
</trkpt>
<trkpt lat="47.702568" lon="11.150304">
<ele>653.867</ele>
<time>2022-05-27T12:15:13Z</time>
</trkpt>
<trkpt lat="47.702538" lon="11.150315">
<ele>653.867</ele>
<time>2022-05-27T12:15:14Z</time>
</trkpt>
<trkpt lat="47.702503" lon="11.150331">
<ele>653.867</ele>
<time>2022-05-27T12:15:15Z</time>
</trkpt>
<trkpt lat="47.702469" lon="11.150352">
<ele>653.867</ele>
<time>2022-05-27T12:15:16Z</time>
</trkpt>
<trkpt lat="47.702438" lon="11.150375">
<ele>653.867</ele>
<time>2022-05-27T12:15:17Z</time>
</trkpt>
<trkpt lat="47.702408" lon="11.150396">
<ele>653.867</ele>
<time>2022-05-27T12:15:19Z</time>
</trkpt>
<trkpt lat="47.702343" lon="11.150434">
<ele>653.867</ele>
<time>2022-05-27T12:15:20Z</time>
</trkpt>
<trkpt lat="47.702312" lon="11.150449">
<ele>653.867</ele>
<time>2022-05-27T12:15:21Z</time>
</trkpt>
<trkpt lat="47.702282" lon="11.150455">
<ele>653.867</ele>
<time>2022-05-27T12:15:22Z</time>
</trkpt>
<trkpt lat="47.702248" lon="11.150458">
<ele>653.867</ele>
<time>2022-05-27T12:15:23Z</time>
</trkpt>
<trkpt lat="47.702213" lon="11.150458">
<ele>653.867</ele>
<time>2022-05-27T12:15:24Z</time>
</trkpt>
<trkpt lat="47.702175" lon="11.150458">
<ele>653.586</ele>
<time>2022-05-27T12:15:25Z</time>
</trkpt>
<trkpt lat="47.702137" lon="11.150455">
<ele>653.365</ele>
<time>2022-05-27T12:15:26Z</time>
</trkpt>
<trkpt lat="47.702099" lon="11.150451">
<ele>653.201</ele>
<time>2022-05-27T12:15:27Z</time>
</trkpt>
<trkpt lat="47.702061" lon="11.150443">
<ele>653.072</ele>
<time>2022-05-27T12:15:29Z</time>
</trkpt>
<trkpt lat="47.701977" lon="11.150436">
<ele>652.957</ele>
<time>2022-05-27T12:15:30Z</time>
</trkpt>
<trkpt lat="47.701931" lon="11.150434">
<ele>652.676</ele>
<time>2022-05-27T12:15:31Z</time>
</trkpt>
<trkpt lat="47.701885" lon="11.150434">
<ele>652.482</ele>
<time>2022-05-27T12:15:33Z</time>
</trkpt>
<trkpt lat="47.701786" lon="11.150436">
<ele>652.185</ele>
<time>2022-05-27T12:15:34Z</time>
</trkpt>
<trkpt lat="47.701736" lon="11.150442">
<ele>651.85</ele>
<time>2022-05-27T12:15:35Z</time>
</trkpt>
<trkpt lat="47.701687" lon="11.15044">
<ele>651.59</ele>
<time>2022-05-27T12:15:36Z</time>
</trkpt>
<trkpt lat="47.701637" lon="11.150436">
<ele>651.395</ele>
<time>2022-05-27T12:15:37Z</time>
</trkpt>
<trkpt lat="47.70158" lon="11.150427">
<ele>651.282</ele>
<time>2022-05-27T12:15:38Z</time>
</trkpt>
<trkpt lat="47.701523" lon="11.150415">
<ele>650.862</ele>
<time>2022-05-27T12:15:39Z</time>
</trkpt>
<trkpt lat="47.701462" lon="11.150403">
<ele>650.592</ele>
<time>2022-05-27T12:15:40Z</time>
</trkpt>
<trkpt lat="47.701401" lon="11.150393">
<ele>650.443</ele>
<time>2022-05-27T12:15:41Z</time>
</trkpt>
<trkpt lat="47.701336" lon="11.150386">
<ele>650.046</ele>
<time>2022-05-27T12:15:42Z</time>
</trkpt>
<trkpt lat="47.701271" lon="11.150375">
<ele>649.735</ele>
<time>2022-05-27T12:15:43Z</time>
</trkpt>
<trkpt lat="47.70121" lon="11.150363">
<ele>649.225</ele>
<time>2022-05-27T12:15:45Z</time>
</trkpt>
<trkpt lat="47.701088" lon="11.150337">
<ele>648.604</ele>
<time>2022-05-27T12:15:46Z</time>
</trkpt>
<trkpt lat="47.701027" lon="11.150321">
<ele>648.175</ele>
<time>2022-05-27T12:15:47Z</time>
</trkpt>
<trkpt lat="47.70097" lon="11.150305">
<ele>647.841</ele>
<time>2022-05-27T12:15:48Z</time>
</trkpt>
<trkpt lat="47.700912" lon="11.150285">
<ele>647.592</ele>
<time>2022-05-27T12:15:49Z</time>
</trkpt>
<trkpt lat="47.700855" lon="11.150265">
<ele>647.381</ele>
<time>2022-05-27T12:15:50Z</time>
</trkpt>
<trkpt lat="47.700802" lon="11.150242">
<ele>647.307</ele>
<time>2022-05-27T12:15:51Z</time>
</trkpt>
<trkpt lat="47.700748" lon="11.150218">
<ele>647.249</ele>
<time>2022-05-27T12:15:52Z</time>
</trkpt>
<trkpt lat="47.700699" lon="11.150193">
<ele>647.199</ele>
<time>2022-05-27T12:15:53Z</time>
</trkpt>
<trkpt lat="47.700653" lon="11.150168">
<ele>647.174</ele>
<time>2022-05-27T12:15:54Z</time>
</trkpt>
<trkpt lat="47.700611" lon="11.150141">
<ele>647.174</ele>
<time>2022-05-27T12:15:55Z</time>
</trkpt>
<trkpt lat="47.700565" lon="11.150115">
<ele>647.174</ele>
<time>2022-05-27T12:15:56Z</time>
</trkpt>
<trkpt lat="47.700527" lon="11.15009">
<ele>646.901</ele>
<time>2022-05-27T12:15:57Z</time>
</trkpt>
<trkpt lat="47.700489" lon="11.150064">
<ele>646.681</ele>
<time>2022-05-27T12:15:58Z</time>
</trkpt>
<trkpt lat="47.700455" lon="11.150034">
<ele>646.508</ele>
<time>2022-05-27T12:15:59Z</time>
</trkpt>
<trkpt lat="47.70042" lon="11.150002">
<ele>646.379</ele>
<time>2022-05-27T12:16:00Z</time>
</trkpt>
<trkpt lat="47.70039" lon="11.149971">
<ele>646.286</ele>
<time>2022-05-27T12:16:01Z</time>
</trkpt>
<trkpt lat="47.700356" lon="11.149943">
<ele>646.212</ele>
<time>2022-05-27T12:16:02Z</time>
</trkpt>
<trkpt lat="47.700325" lon="11.149913">
<ele>646.149</ele>
<time>2022-05-27T12:16:03Z</time>
</trkpt>
<trkpt lat="47.700298" lon="11.149883">
<ele>646.118</ele>
<time>2022-05-27T12:16:04Z</time>
</trkpt>
<trkpt lat="47.700275" lon="11.149854">
<ele>646.118</ele>
<time>2022-05-27T12:16:05Z</time>
</trkpt>
<trkpt lat="47.700245" lon="11.149816">
<ele>646.118</ele>
<time>2022-05-27T12:16:06Z</time>
</trkpt>
<trkpt lat="47.700211" lon="11.149776">
<ele>646.118</ele>
<time>2022-05-27T12:16:08Z</time>
</trkpt>
<trkpt lat="47.70018" lon="11.14973">
<ele>645.761</ele>
<time>2022-05-27T12:16:09Z</time>
</trkpt>
<trkpt lat="47.7001" lon="11.149628">
<ele>645.254</ele>
<time>2022-05-27T12:16:10Z</time>
</trkpt>
<trkpt lat="47.700058" lon="11.149575">
<ele>645.088</ele>
<time>2022-05-27T12:16:11Z</time>
</trkpt>
<trkpt lat="47.700016" lon="11.149525">
<ele>644.986</ele>
<time>2022-05-27T12:16:13Z</time>
</trkpt>
<trkpt lat="47.69997" lon="11.149481">
<ele>644.649</ele>
<time>2022-05-27T12:16:14Z</time>
</trkpt>
<trkpt lat="47.699898" lon="11.149388">
<ele>644.24</ele>
<time>2022-05-27T12:16:15Z</time>
</trkpt>
<trkpt lat="47.699863" lon="11.149342">
<ele>644.13</ele>
<time>2022-05-27T12:16:16Z</time>
</trkpt>
<trkpt lat="47.699837" lon="11.149295">
<ele>644.047</ele>
<time>2022-05-27T12:16:18Z</time>
</trkpt>
<trkpt lat="47.699776" lon="11.149192">
<ele>643.72</ele>
<time>2022-05-27T12:16:19Z</time>
</trkpt>
<trkpt lat="47.699749" lon="11.149133">
<ele>643.499</ele>
<time>2022-05-27T12:16:20Z</time>
</trkpt>
<trkpt lat="47.699718" lon="11.14907">
<ele>643.332</ele>
<time>2022-05-27T12:16:21Z</time>
</trkpt>
<trkpt lat="47.699688" lon="11.149003">
<ele>643.224</ele>
<time>2022-05-27T12:16:22Z</time>
</trkpt>
<trkpt lat="47.69965" lon="11.148932">
<ele>643.11</ele>
<time>2022-05-27T12:16:23Z</time>
</trkpt>
<trkpt lat="47.699615" lon="11.148854">
<ele>642.746</ele>
<time>2022-05-27T12:16:24Z</time>
</trkpt>
<trkpt lat="47.699581" lon="11.148779">
<ele>642.467</ele>
<time>2022-05-27T12:16:26Z</time>
</trkpt>
<trkpt lat="47.69952" lon="11.148628">
<ele>641.769</ele>
<time>2022-05-27T12:16:27Z</time>
</trkpt>
<trkpt lat="47.699493" lon="11.148555">
<ele>641.456</ele>
<time>2022-05-27T12:16:28Z</time>
</trkpt>
<trkpt lat="47.699467" lon="11.148487">
<ele>641.237</ele>
<time>2022-05-27T12:16:30Z</time>
</trkpt>
<trkpt lat="47.699406" lon="11.148356">
<ele>641.204</ele>
<time>2022-05-27T12:16:31Z</time>
</trkpt>
<trkpt lat="47.699371" lon="11.148295">
<ele>641.3</ele>
<time>2022-05-27T12:16:32Z</time>
</trkpt>
<trkpt lat="47.699337" lon="11.148236">
<ele>641.395</ele>
<time>2022-05-27T12:16:34Z</time>
</trkpt>
<trkpt lat="47.699268" lon="11.148133">
<ele>641.55</ele>
<time>2022-05-27T12:16:35Z</time>
</trkpt>
<trkpt lat="47.69923" lon="11.148086">
<ele>641.655</ele>
<time>2022-05-27T12:16:36Z</time>
</trkpt>
<trkpt lat="47.6992" lon="11.148042">
<ele>641.732</ele>
<time>2022-05-27T12:16:37Z</time>
</trkpt>
<trkpt lat="47.699165" lon="11.148">
<ele>641.781</ele>
<time>2022-05-27T12:16:38Z</time>
</trkpt>
<trkpt lat="47.699142" lon="11.147964">
<ele>641.8</ele>
<time>2022-05-27T12:16:40Z</time>
</trkpt>
<trkpt lat="47.699093" lon="11.147893">
<ele>641.399</ele>
<time>2022-05-27T12:16:41Z</time>
</trkpt>
<trkpt lat="47.69907" lon="11.147863">
<ele>641.264</ele>
<time>2022-05-27T12:16:42Z</time>
</trkpt>
<trkpt lat="47.699051" lon="11.147834">
<ele>641.126</ele>
<time>2022-05-27T12:16:43Z</time>
</trkpt>
<trkpt lat="47.699032" lon="11.147809">
<ele>641.015</ele>
<time>2022-05-27T12:16:45Z</time>
</trkpt>
<trkpt lat="47.699001" lon="11.147761">
<ele>640.868</ele>
<time>2022-05-27T12:16:46Z</time>
</trkpt>
<trkpt lat="47.69899" lon="11.147732">
<ele>640.837</ele>
<time>2022-05-27T12:16:48Z</time>
</trkpt>
<trkpt lat="47.698986" lon="11.147667">
<ele>640.837</ele>
<time>2022-05-27T12:16:50Z</time>
</trkpt>
<trkpt lat="47.69899" lon="11.147634">
<ele>640.837</ele>
<time>2022-05-27T12:16:51Z</time>
</trkpt>
<trkpt lat="47.69899" lon="11.147598">
<ele>640.837</ele>
<time>2022-05-27T12:16:52Z</time>
</trkpt>
<trkpt lat="47.69899" lon="11.147557">
<ele>640.837</ele>
<time>2022-05-27T12:16:53Z</time>
</trkpt>
<trkpt lat="47.698997" lon="11.14747">
<ele>640.838</ele>
<time>2022-05-27T12:16:54Z</time>
</trkpt>
<trkpt lat="47.699005" lon="11.147428">
<ele>640.838</ele>
<time>2022-05-27T12:16:56Z</time>
</trkpt>
<trkpt lat="47.69902" lon="11.147348">
<ele>640.837</ele>
<time>2022-05-27T12:16:58Z</time>
</trkpt>
<trkpt lat="47.699024" lon="11.14731">
<ele>640.837</ele>
<time>2022-05-27T12:16:59Z</time>
</trkpt>
<trkpt lat="47.699047" lon="11.147202">
<ele>640.837</ele>
<time>2022-05-27T12:17:00Z</time>
</trkpt>
<trkpt lat="47.699055" lon="11.147148">
<ele>640.838</ele>
<time>2022-05-27T12:17:02Z</time>
</trkpt>
<trkpt lat="47.699066" lon="11.147097">
<ele>640.837</ele>
<time>2022-05-27T12:17:03Z</time>
</trkpt>
<trkpt lat="47.699078" lon="11.147044">
<ele>640.838</ele>
<time>2022-05-27T12:17:04Z</time>
</trkpt>
<trkpt lat="47.699108" lon="11.146929">
<ele>640.837</ele>
<time>2022-05-27T12:17:05Z</time>
</trkpt>
<trkpt lat="47.69912" lon="11.146865">
<ele>640.837</ele>
<time>2022-05-27T12:17:06Z</time>
</trkpt>
<trkpt lat="47.69912" lon="11.146797">
<ele>640.838</ele>
<time>2022-05-27T12:17:07Z</time>
</trkpt>
<trkpt lat="47.699127" lon="11.146733">
<ele>640.837</ele>
<time>2022-05-27T12:17:09Z</time>
</trkpt>
<trkpt lat="47.699123" lon="11.146606">
<ele>640.837</ele>
<time>2022-05-27T12:17:10Z</time>
</trkpt>
<trkpt lat="47.699116" lon="11.146545">
<ele>640.837</ele>
<time>2022-05-27T12:17:11Z</time>
</trkpt>
<trkpt lat="47.699108" lon="11.146483">
<ele>640.837</ele>
<time>2022-05-27T12:17:12Z</time>
</trkpt>
<trkpt lat="47.699093" lon="11.146423">
<ele>640.837</ele>
<time>2022-05-27T12:17:13Z</time>
</trkpt>
<trkpt lat="47.699078" lon="11.146365">
<ele>640.838</ele>
<time>2022-05-27T12:17:14Z</time>
</trkpt>
<trkpt lat="47.699055" lon="11.146311">
<ele>640.535</ele>
<time>2022-05-27T12:17:15Z</time>
</trkpt>
<trkpt lat="47.699036" lon="11.146256">
<ele>640.295</ele>
<time>2022-05-27T12:17:16Z</time>
</trkpt>
<trkpt lat="47.699013" lon="11.146205">
<ele>640.115</ele>
<time>2022-05-27T12:17:17Z</time>
</trkpt>
<trkpt lat="47.69899" lon="11.146156">
<ele>639.981</ele>
<time>2022-05-27T12:17:18Z</time>
</trkpt>
<trkpt lat="47.698956" lon="11.14611">
<ele>639.89</ele>
<time>2022-05-27T12:17:19Z</time>
</trkpt>
<trkpt lat="47.698936" lon="11.146067">
<ele>639.833</ele>
<time>2022-05-27T12:17:20Z</time>
</trkpt>
<trkpt lat="47.698925" lon="11.146034">
<ele>639.807</ele>
<time>2022-05-27T12:17:21Z</time>
</trkpt>
<trkpt lat="47.69891" lon="11.145995">
<ele>639.782</ele>
<time>2022-05-27T12:17:23Z</time>
</trkpt>
<trkpt lat="47.698891" lon="11.145884">
<ele>639.782</ele>
<time>2022-05-27T12:17:24Z</time>
</trkpt>
<trkpt lat="47.698883" lon="11.145822">
<ele>639.782</ele>
<time>2022-05-27T12:17:25Z</time>
</trkpt>
<trkpt lat="47.698868" lon="11.145764">
<ele>639.782</ele>
<time>2022-05-27T12:17:26Z</time>
</trkpt>
<trkpt lat="47.698856" lon="11.145707">
<ele>639.782</ele>
<time>2022-05-27T12:17:27Z</time>
</trkpt>
<trkpt lat="47.698837" lon="11.145653">
<ele>639.782</ele>
<time>2022-05-27T12:17:28Z</time>
</trkpt>
<trkpt lat="47.698814" lon="11.145601">
<ele>639.782</ele>
<time>2022-05-27T12:17:30Z</time>
</trkpt>
<trkpt lat="47.698761" lon="11.145502">
<ele>639.782</ele>
<time>2022-05-27T12:17:31Z</time>
</trkpt>
<trkpt lat="47.698742" lon="11.14545">
<ele>639.782</ele>
<time>2022-05-27T12:17:33Z</time>
</trkpt>
<trkpt lat="47.698704" lon="11.145343">
<ele>639.782</ele>
<time>2022-05-27T12:17:35Z</time>
</trkpt>
<trkpt lat="47.698685" lon="11.145288">
<ele>639.782</ele>
<time>2022-05-27T12:17:36Z</time>
</trkpt>
<trkpt lat="47.698647" lon="11.145185">
<ele>639.782</ele>
<time>2022-05-27T12:17:37Z</time>
</trkpt>
<trkpt lat="47.698631" lon="11.145135">
<ele>639.782</ele>
<time>2022-05-27T12:17:38Z</time>
</trkpt>
<trkpt lat="47.698612" lon="11.145083">
<ele>639.782</ele>
<time>2022-05-27T12:17:39Z</time>
</trkpt>
<trkpt lat="47.698593" lon="11.145035">
<ele>639.782</ele>
<time>2022-05-27T12:17:40Z</time>
</trkpt>
<trkpt lat="47.698574" lon="11.144989">
<ele>639.782</ele>
<time>2022-05-27T12:17:42Z</time>
</trkpt>
<trkpt lat="47.698555" lon="11.144938">
<ele>639.782</ele>
<time>2022-05-27T12:17:43Z</time>
</trkpt>
<trkpt lat="47.698517" lon="11.14484">
<ele>639.782</ele>
<time>2022-05-27T12:17:44Z</time>
</trkpt>
<trkpt lat="47.698498" lon="11.144794">
<ele>639.782</ele>
<time>2022-05-27T12:17:45Z</time>
</trkpt>
<trkpt lat="47.698479" lon="11.144744">
<ele>639.782</ele>
<time>2022-05-27T12:17:47Z</time>
</trkpt>
<trkpt lat="47.698444" lon="11.144637">
<ele>639.782</ele>
<time>2022-05-27T12:17:48Z</time>
</trkpt>
<trkpt lat="47.698433" lon="11.144582">
<ele>639.782</ele>
<time>2022-05-27T12:17:49Z</time>
</trkpt>
<trkpt lat="47.698418" lon="11.144524">
<ele>639.782</ele>
<time>2022-05-27T12:17:50Z</time>
</trkpt>
<trkpt lat="47.698402" lon="11.144465">
<ele>639.782</ele>
<time>2022-05-27T12:17:51Z</time>
</trkpt>
<trkpt lat="47.698399" lon="11.144408">
<ele>639.782</ele>
<time>2022-05-27T12:17:53Z</time>
</trkpt>
<trkpt lat="47.698376" lon="11.144287">
<ele>639.782</ele>
<time>2022-05-27T12:17:54Z</time>
</trkpt>
<trkpt lat="47.698368" lon="11.144226">
<ele>639.782</ele>
<time>2022-05-27T12:17:56Z</time>
</trkpt>
<trkpt lat="47.698345" lon="11.14411">
<ele>639.782</ele>
<time>2022-05-27T12:17:58Z</time>
</trkpt>
<trkpt lat="47.698341" lon="11.144052">
<ele>639.782</ele>
<time>2022-05-27T12:17:59Z</time>
</trkpt>
<trkpt lat="47.698345" lon="11.143931">
<ele>639.782</ele>
<time>2022-05-27T12:18:01Z</time>
</trkpt>
<trkpt lat="47.698349" lon="11.143876">
<ele>639.782</ele>
<time>2022-05-27T12:18:02Z</time>
</trkpt>
<trkpt lat="47.698349" lon="11.143765">
<ele>639.782</ele>
<time>2022-05-27T12:18:03Z</time>
</trkpt>
<trkpt lat="47.698349" lon="11.143708">
<ele>639.782</ele>
<time>2022-05-27T12:18:04Z</time>
</trkpt>
<trkpt lat="47.698353" lon="11.143654">
<ele>639.782</ele>
<time>2022-05-27T12:18:05Z</time>
</trkpt>
<trkpt lat="47.698357" lon="11.143603">
<ele>639.782</ele>
<time>2022-05-27T12:18:06Z</time>
</trkpt>
<trkpt lat="47.698357" lon="11.14355">
<ele>639.782</ele>
<time>2022-05-27T12:18:07Z</time>
</trkpt>
<trkpt lat="47.698353" lon="11.143498">
<ele>639.782</ele>
<time>2022-05-27T12:18:08Z</time>
</trkpt>
<trkpt lat="47.698345" lon="11.143447">
<ele>639.782</ele>
<time>2022-05-27T12:18:09Z</time>
</trkpt>
<trkpt lat="47.698341" lon="11.1434">
<ele>639.782</ele>
<time>2022-05-27T12:18:10Z</time>
</trkpt>
<trkpt lat="47.698338" lon="11.143353">
<ele>639.782</ele>
<time>2022-05-27T12:18:11Z</time>
</trkpt>
<trkpt lat="47.698338" lon="11.143307">
<ele>639.782</ele>
<time>2022-05-27T12:18:12Z</time>
</trkpt>
<trkpt lat="47.698338" lon="11.143256">
<ele>639.782</ele>
<time>2022-05-27T12:18:14Z</time>
</trkpt>
<trkpt lat="47.698338" lon="11.143206">
<ele>639.782</ele>
<time>2022-05-27T12:18:15Z</time>
</trkpt>
<trkpt lat="47.698338" lon="11.143151">
<ele>639.782</ele>
<time>2022-05-27T12:18:16Z</time>
</trkpt>
<trkpt lat="47.698334" lon="11.143102">
<ele>639.782</ele>
<time>2022-05-27T12:18:17Z</time>
</trkpt>
<trkpt lat="47.69833" lon="11.143055">
<ele>639.782</ele>
<time>2022-05-27T12:18:18Z</time>
</trkpt>
<trkpt lat="47.698315" lon="11.142948">
<ele>639.782</ele>
<time>2022-05-27T12:18:19Z</time>
</trkpt>
<trkpt lat="47.698307" lon="11.142897">
<ele>639.782</ele>
<time>2022-05-27T12:18:20Z</time>
</trkpt>
<trkpt lat="47.698299" lon="11.142843">
<ele>639.782</ele>
<time>2022-05-27T12:18:22Z</time>
</trkpt>
<trkpt lat="47.69828" lon="11.142733">
<ele>639.782</ele>
<time>2022-05-27T12:18:24Z</time>
</trkpt>
<trkpt lat="47.698254" lon="11.142645">
<ele>639.782</ele>
<time>2022-05-27T12:18:25Z</time>
</trkpt>
<trkpt lat="47.698238" lon="11.1426">
<ele>639.782</ele>
<time>2022-05-27T12:18:27Z</time>
</trkpt>
<trkpt lat="47.698231" lon="11.142552">
<ele>639.782</ele>
<time>2022-05-27T12:18:28Z</time>
</trkpt>
<trkpt lat="47.698212" lon="11.142449">
<ele>639.782</ele>
<time>2022-05-27T12:18:29Z</time>
</trkpt>
<trkpt lat="47.698204" lon="11.1424">
<ele>639.782</ele>
<time>2022-05-27T12:18:31Z</time>
</trkpt>
<trkpt lat="47.698193" lon="11.142301">
<ele>639.782</ele>
<time>2022-05-27T12:18:33Z</time>
</trkpt>
<trkpt lat="47.698185" lon="11.142252">
<ele>639.782</ele>
<time>2022-05-27T12:18:34Z</time>
</trkpt>
<trkpt lat="47.698154" lon="11.142162">
<ele>639.782</ele>
<time>2022-05-27T12:18:36Z</time>
</trkpt>
<trkpt lat="47.698109" lon="11.142089">
<ele>639.782</ele>
<time>2022-05-27T12:18:37Z</time>
</trkpt>
<trkpt lat="47.698086" lon="11.14205">
<ele>639.782</ele>
<time>2022-05-27T12:18:39Z</time>
</trkpt>
<trkpt lat="47.698055" lon="11.141962">
<ele>639.782</ele>
<time>2022-05-27T12:18:41Z</time>
</trkpt>
<trkpt lat="47.69804" lon="11.14186">
<ele>639.782</ele>
<time>2022-05-27T12:18:42Z</time>
</trkpt>
<trkpt lat="47.698036" lon="11.141815">
<ele>639.782</ele>
<time>2022-05-27T12:18:44Z</time>
</trkpt>
<trkpt lat="47.698032" lon="11.141768">
<ele>639.782</ele>
<time>2022-05-27T12:18:45Z</time>
</trkpt>
<trkpt lat="47.698013" lon="11.141679">
<ele>639.782</ele>
<time>2022-05-27T12:18:46Z</time>
</trkpt>
<trkpt lat="47.697998" lon="11.141632">
<ele>639.782</ele>
<time>2022-05-27T12:18:48Z</time>
</trkpt>
<trkpt lat="47.697964" lon="11.141541">
<ele>639.782</ele>
<time>2022-05-27T12:18:49Z</time>
</trkpt>
<trkpt lat="47.697945" lon="11.141499">
<ele>639.782</ele>
<time>2022-05-27T12:18:50Z</time>
</trkpt>
<trkpt lat="47.697933" lon="11.141457">
<ele>639.782</ele>
<time>2022-05-27T12:18:51Z</time>
</trkpt>
<trkpt lat="47.697914" lon="11.141415">
<ele>639.782</ele>
<time>2022-05-27T12:18:52Z</time>
</trkpt>
<trkpt lat="47.697903" lon="11.141376">
<ele>639.782</ele>
<time>2022-05-27T12:18:53Z</time>
</trkpt>
<trkpt lat="47.697887" lon="11.141341">
<ele>639.782</ele>
<time>2022-05-27T12:18:54Z</time>
</trkpt>
<trkpt lat="47.697876" lon="11.141306">
<ele>639.782</ele>
<time>2022-05-27T12:18:55Z</time>
</trkpt>
<trkpt lat="47.697857" lon="11.14127">
<ele>639.782</ele>
<time>2022-05-27T12:18:56Z</time>
</trkpt>
<trkpt lat="47.697845" lon="11.141232">
<ele>639.782</ele>
<time>2022-05-27T12:18:57Z</time>
</trkpt>
<trkpt lat="47.697834" lon="11.141198">
<ele>639.782</ele>
<time>2022-05-27T12:18:58Z</time>
</trkpt>
<trkpt lat="47.697815" lon="11.141163">
<ele>639.782</ele>
<time>2022-05-27T12:18:59Z</time>
</trkpt>
<trkpt lat="47.697807" lon="11.141133">
<ele>640.017</ele>
<time>2022-05-27T12:19:00Z</time>
</trkpt>
<trkpt lat="47.697792" lon="11.141107">
<ele>640.205</ele>
<time>2022-05-27T12:19:01Z</time>
</trkpt>
<trkpt lat="47.697784" lon="11.14108">
<ele>640.34</ele>
<time>2022-05-27T12:19:03Z</time>
</trkpt>
<trkpt lat="47.697765" lon="11.141015">
<ele>640.584</ele>
<time>2022-05-27T12:19:04Z</time>
</trkpt>
<trkpt lat="47.697754" lon="11.140985">
<ele>640.668</ele>
<time>2022-05-27T12:19:05Z</time>
</trkpt>
<trkpt lat="47.69775" lon="11.140958">
<ele>640.725</ele>
<time>2022-05-27T12:19:06Z</time>
</trkpt>
<trkpt lat="47.697746" lon="11.140945">
<ele>640.749</ele>
<time>2022-05-27T12:19:07Z</time>
</trkpt>
<trkpt lat="47.697739" lon="11.140931">
<ele>640.749</ele>
<time>2022-05-27T12:19:08Z</time>
</trkpt>
<trkpt lat="47.697735" lon="11.140917">
<ele>640.749</ele>
<time>2022-05-27T12:19:09Z</time>
</trkpt>
<trkpt lat="47.697742" lon="11.140897">
<ele>640.749</ele>
<time>2022-05-27T12:19:10Z</time>
</trkpt>
<trkpt lat="47.69775" lon="11.140884">
<ele>640.749</ele>
<time>2022-05-27T12:19:11Z</time>
</trkpt>
<trkpt lat="47.697762" lon="11.140874">
<ele>640.749</ele>
<time>2022-05-27T12:19:13Z</time>
</trkpt>
<trkpt lat="47.697792" lon="11.14085">
<ele>640.749</ele>
<time>2022-05-27T12:19:14Z</time>
</trkpt>
<trkpt lat="47.697807" lon="11.140837">
<ele>640.749</ele>
<time>2022-05-27T12:19:15Z</time>
</trkpt>
<trkpt lat="47.697823" lon="11.140821">
<ele>640.749</ele>
<time>2022-05-27T12:19:16Z</time>
</trkpt>
<trkpt lat="47.697842" lon="11.14081">
<ele>640.749</ele>
<time>2022-05-27T12:19:17Z</time>
</trkpt>
<trkpt lat="47.697861" lon="11.140797">
<ele>640.749</ele>
<time>2022-05-27T12:19:19Z</time>
</trkpt>
<trkpt lat="47.697899" lon="11.140757">
<ele>640.749</ele>
<time>2022-05-27T12:19:21Z</time>
</trkpt>
<trkpt lat="47.697926" lon="11.140721">
<ele>640.749</ele>
<time>2022-05-27T12:19:22Z</time>
</trkpt>
<trkpt lat="47.697945" lon="11.14071">
<ele>640.749</ele>
<time>2022-05-27T12:19:23Z</time>
</trkpt>
<trkpt lat="47.697956" lon="11.140698">
<ele>640.75</ele>
<time>2022-05-27T12:19:24Z</time>
</trkpt>
<trkpt lat="47.697975" lon="11.140685">
<ele>640.749</ele>
<time>2022-05-27T12:19:26Z</time>
</trkpt>
<trkpt lat="47.698009" lon="11.140655">
<ele>640.749</ele>
<time>2022-05-27T12:19:27Z</time>
</trkpt>
<trkpt lat="47.698017" lon="11.140635">
<ele>640.749</ele>
<time>2022-05-27T12:19:29Z</time>
</trkpt>
<trkpt lat="47.698025" lon="11.140615">
<ele>640.749</ele>
<time>2022-05-27T12:19:30Z</time>
</trkpt>
<trkpt lat="47.698032" lon="11.140602">
<ele>640.749</ele>
<time>2022-05-27T12:19:31Z</time>
</trkpt>
<trkpt lat="47.698044" lon="11.140578">
<ele>640.749</ele>
<time>2022-05-27T12:19:32Z</time>
</trkpt>
<trkpt lat="47.698063" lon="11.140564">
<ele>640.749</ele>
<time>2022-05-27T12:19:33Z</time>
</trkpt>
<trkpt lat="47.698078" lon="11.140553">
<ele>640.749</ele>
<time>2022-05-27T12:19:35Z</time>
</trkpt>
<trkpt lat="47.698109" lon="11.140534">
<ele>640.749</ele>
<time>2022-05-27T12:19:36Z</time>
</trkpt>
<trkpt lat="47.698135" lon="11.140524">
<ele>640.749</ele>
<time>2022-05-27T12:19:37Z</time>
</trkpt>
<trkpt lat="47.698158" lon="11.140505">
<ele>640.749</ele>
<time>2022-05-27T12:19:39Z</time>
</trkpt>
<trkpt lat="47.698177" lon="11.140487">
<ele>640.75</ele>
<time>2022-05-27T12:19:40Z</time>
</trkpt>
<trkpt lat="47.698208" lon="11.140468">
<ele>640.749</ele>
<time>2022-05-27T12:19:41Z</time>
</trkpt>
<trkpt lat="47.698254" lon="11.140438">
<ele>640.749</ele>
<time>2022-05-27T12:19:42Z</time>
</trkpt>
<trkpt lat="47.698273" lon="11.140431">
<ele>640.749</ele>
<time>2022-05-27T12:19:43Z</time>
</trkpt>
<trkpt lat="47.698288" lon="11.140422">
<ele>640.749</ele>
<time>2022-05-27T12:19:44Z</time>
</trkpt>
<trkpt lat="47.698303" lon="11.140409">
<ele>640.749</ele>
<time>2022-05-27T12:19:45Z</time>
</trkpt>
<trkpt lat="47.698322" lon="11.14039">
<ele>640.749</ele>
<time>2022-05-27T12:19:46Z</time>
</trkpt>
<trkpt lat="47.698345" lon="11.140361">
<ele>640.749</ele>
<time>2022-05-27T12:19:47Z</time>
</trkpt>
<trkpt lat="47.698372" lon="11.140331">
<ele>640.749</ele>
<time>2022-05-27T12:19:48Z</time>
</trkpt>
<trkpt lat="47.698399" lon="11.140305">
<ele>640.749</ele>
<time>2022-05-27T12:19:49Z</time>
</trkpt>
<trkpt lat="47.698418" lon="11.140285">
<ele>640.749</ele>
<time>2022-05-27T12:19:50Z</time>
</trkpt>
<trkpt lat="47.698441" lon="11.140266">
<ele>640.749</ele>
<time>2022-05-27T12:19:52Z</time>
</trkpt>
<trkpt lat="47.698494" lon="11.140222">
<ele>641.184</ele>
<time>2022-05-27T12:19:54Z</time>
</trkpt>
<trkpt lat="47.698544" lon="11.140175">
<ele>641.461</ele>
<time>2022-05-27T12:19:56Z</time>
</trkpt>
<trkpt lat="47.698586" lon="11.14015">
<ele>641.643</ele>
<time>2022-05-27T12:19:57Z</time>
</trkpt>
<trkpt lat="47.698601" lon="11.140139">
<ele>641.696</ele>
<time>2022-05-27T12:19:58Z</time>
</trkpt>
<trkpt lat="47.698616" lon="11.140124">
<ele>641.717</ele>
<time>2022-05-27T12:20:00Z</time>
</trkpt>
<trkpt lat="47.698635" lon="11.140105">
<ele>641.717</ele>
<time>2022-05-27T12:20:01Z</time>
</trkpt>
<trkpt lat="47.698669" lon="11.140068">
<ele>641.717</ele>
<time>2022-05-27T12:20:02Z</time>
</trkpt>
<trkpt lat="47.698696" lon="11.140043">
<ele>641.717</ele>
<time>2022-05-27T12:20:03Z</time>
</trkpt>
<trkpt lat="47.698708" lon="11.140017">
<ele>641.717</ele>
<time>2022-05-27T12:20:04Z</time>
</trkpt>
<trkpt lat="47.698715" lon="11.139992">
<ele>641.717</ele>
<time>2022-05-27T12:20:05Z</time>
</trkpt>
<trkpt lat="47.698723" lon="11.139963">
<ele>641.717</ele>
<time>2022-05-27T12:20:07Z</time>
</trkpt>
<trkpt lat="47.698742" lon="11.139908">
<ele>641.717</ele>
<time>2022-05-27T12:20:08Z</time>
</trkpt>
<trkpt lat="47.698761" lon="11.139883">
<ele>641.717</ele>
<time>2022-05-27T12:20:09Z</time>
</trkpt>
<trkpt lat="47.69878" lon="11.139856">
<ele>641.717</ele>
<time>2022-05-27T12:20:10Z</time>
</trkpt>
<trkpt lat="47.698803" lon="11.139825">
<ele>641.695</ele>
<time>2022-05-27T12:20:11Z</time>
</trkpt>
<trkpt lat="47.698826" lon="11.139798">
<ele>641.679</ele>
<time>2022-05-27T12:20:12Z</time>
</trkpt>
<trkpt lat="47.698853" lon="11.139769">
<ele>641.662</ele>
<time>2022-05-27T12:20:14Z</time>
</trkpt>
<trkpt lat="47.698875" lon="11.139736">
<ele>641.649</ele>
<time>2022-05-27T12:20:15Z</time>
</trkpt>
<trkpt lat="47.698902" lon="11.139705">
<ele>641.64</ele>
<time>2022-05-27T12:20:16Z</time>
</trkpt>
<trkpt lat="47.698971" lon="11.139631">
<ele>641.631</ele>
<time>2022-05-27T12:20:18Z</time>
</trkpt>
<trkpt lat="47.699013" lon="11.13959">
<ele>641.629</ele>
<time>2022-05-27T12:20:19Z</time>
</trkpt>
<trkpt lat="47.699085" lon="11.139508">
<ele>641.629</ele>
<time>2022-05-27T12:20:20Z</time>
</trkpt>
<trkpt lat="47.69912" lon="11.139468">
<ele>641.629</ele>
<time>2022-05-27T12:20:21Z</time>
</trkpt>
<trkpt lat="47.699154" lon="11.139435">
<ele>641.629</ele>
<time>2022-05-27T12:20:22Z</time>
</trkpt>
<trkpt lat="47.699184" lon="11.139405">
<ele>641.629</ele>
<time>2022-05-27T12:20:24Z</time>
</trkpt>
<trkpt lat="47.699249" lon="11.139349">
<ele>641.629</ele>
<time>2022-05-27T12:20:26Z</time>
</trkpt>
<trkpt lat="47.699329" lon="11.139277">
<ele>641.629</ele>
<time>2022-05-27T12:20:27Z</time>
</trkpt>
<trkpt lat="47.699364" lon="11.13925">
<ele>641.629</ele>
<time>2022-05-27T12:20:28Z</time>
</trkpt>
<trkpt lat="47.699394" lon="11.13922">
<ele>641.629</ele>
<time>2022-05-27T12:20:29Z</time>
</trkpt>
<trkpt lat="47.699425" lon="11.139187">
<ele>641.872</ele>
<time>2022-05-27T12:20:30Z</time>
</trkpt>
<trkpt lat="47.699451" lon="11.139165">
<ele>642.063</ele>
<time>2022-05-27T12:20:31Z</time>
</trkpt>
<trkpt lat="47.699482" lon="11.139138">
<ele>642.193</ele>
<time>2022-05-27T12:20:32Z</time>
</trkpt>
<trkpt lat="47.699512" lon="11.139106">
<ele>642.329</ele>
<time>2022-05-27T12:20:33Z</time>
</trkpt>
<trkpt lat="47.699551" lon="11.139073">
<ele>642.429</ele>
<time>2022-05-27T12:20:34Z</time>
</trkpt>
<trkpt lat="47.699589" lon="11.139037">
<ele>642.513</ele>
<time>2022-05-27T12:20:36Z</time>
</trkpt>
<trkpt lat="47.699623" lon="11.139003">
<ele>642.572</ele>
<time>2022-05-27T12:20:37Z</time>
</trkpt>
<trkpt lat="47.699688" lon="11.138928">
<ele>642.597</ele>
<time>2022-05-27T12:20:39Z</time>
</trkpt>
<trkpt lat="47.699718" lon="11.138895">
<ele>642.597</ele>
<time>2022-05-27T12:20:40Z</time>
</trkpt>
<trkpt lat="47.699753" lon="11.138857">
<ele>642.597</ele>
<time>2022-05-27T12:20:41Z</time>
</trkpt>
<trkpt lat="47.699783" lon="11.138815">
<ele>642.597</ele>
<time>2022-05-27T12:20:42Z</time>
</trkpt>
<trkpt lat="47.699848" lon="11.138735">
<ele>642.597</ele>
<time>2022-05-27T12:20:43Z</time>
</trkpt>
<trkpt lat="47.699875" lon="11.13869">
<ele>642.891</ele>
<time>2022-05-27T12:20:44Z</time>
</trkpt>
<trkpt lat="47.699902" lon="11.138638">
<ele>643.114</ele>
<time>2022-05-27T12:20:46Z</time>
</trkpt>
<trkpt lat="47.699963" lon="11.138549">
<ele>643.401</ele>
<time>2022-05-27T12:20:48Z</time>
</trkpt>
<trkpt lat="47.700016" lon="11.138462">
<ele>643.536</ele>
<time>2022-05-27T12:20:49Z</time>
</trkpt>
<trkpt lat="47.700043" lon="11.138414">
<ele>643.56</ele>
<time>2022-05-27T12:20:51Z</time>
</trkpt>
<trkpt lat="47.700096" lon="11.138323">
<ele>643.565</ele>
<time>2022-05-27T12:20:53Z</time>
</trkpt>
<trkpt lat="47.70015" lon="11.138232">
<ele>643.565</ele>
<time>2022-05-27T12:20:54Z</time>
</trkpt>
<trkpt lat="47.700176" lon="11.13819">
<ele>643.565</ele>
<time>2022-05-27T12:20:56Z</time>
</trkpt>
<trkpt lat="47.700237" lon="11.138102">
<ele>643.83</ele>
<time>2022-05-27T12:20:57Z</time>
</trkpt>
<trkpt lat="47.700264" lon="11.138059">
<ele>644.037</ele>
<time>2022-05-27T12:20:58Z</time>
</trkpt>
<trkpt lat="47.700291" lon="11.138019">
<ele>644.194</ele>
<time>2022-05-27T12:21:00Z</time>
</trkpt>
<trkpt lat="47.700348" lon="11.137928">
<ele>644.391</ele>
<time>2022-05-27T12:21:01Z</time>
</trkpt>
<trkpt lat="47.700375" lon="11.137882">
<ele>644.453</ele>
<time>2022-05-27T12:21:02Z</time>
</trkpt>
<trkpt lat="47.700397" lon="11.137834">
<ele>644.508</ele>
<time>2022-05-27T12:21:04Z</time>
</trkpt>
<trkpt lat="47.700447" lon="11.137742">
<ele>644.533</ele>
<time>2022-05-27T12:21:05Z</time>
</trkpt>
<trkpt lat="47.700474" lon="11.137696">
<ele>644.533</ele>
<time>2022-05-27T12:21:07Z</time>
</trkpt>
<trkpt lat="47.70052" lon="11.137623">
<ele>644.533</ele>
<time>2022-05-27T12:21:09Z</time>
</trkpt>
<trkpt lat="47.700558" lon="11.137547">
<ele>644.533</ele>
<time>2022-05-27T12:21:10Z</time>
</trkpt>
<trkpt lat="47.700584" lon="11.137509">
<ele>644.533</ele>
<time>2022-05-27T12:21:12Z</time>
</trkpt>
<trkpt lat="47.700634" lon="11.13743">
<ele>644.906</ele>
<time>2022-05-27T12:21:13Z</time>
</trkpt>
<trkpt lat="47.700661" lon="11.137386">
<ele>645.062</ele>
<time>2022-05-27T12:21:14Z</time>
</trkpt>
<trkpt lat="47.700684" lon="11.137341">
<ele>645.193</ele>
<time>2022-05-27T12:21:16Z</time>
</trkpt>
<trkpt lat="47.700741" lon="11.137259">
<ele>645.355</ele>
<time>2022-05-27T12:21:17Z</time>
</trkpt>
<trkpt lat="47.700768" lon="11.137218">
<ele>645.395</ele>
<time>2022-05-27T12:21:19Z</time>
</trkpt>
<trkpt lat="47.70079" lon="11.137174">
<ele>645.414</ele>
<time>2022-05-27T12:21:20Z</time>
</trkpt>
<trkpt lat="47.700848" lon="11.137078">
<ele>645.414</ele>
<time>2022-05-27T12:21:22Z</time>
</trkpt>
<trkpt lat="47.700874" lon="11.137033">
<ele>645.414</ele>
<time>2022-05-27T12:21:23Z</time>
</trkpt>
<trkpt lat="47.700928" lon="11.136938">
<ele>645.414</ele>
<time>2022-05-27T12:21:24Z</time>
</trkpt>
<trkpt lat="47.700954" lon="11.136885">
<ele>645.414</ele>
<time>2022-05-27T12:21:25Z</time>
</trkpt>
<trkpt lat="47.700985" lon="11.136835">
<ele>645.414</ele>
<time>2022-05-27T12:21:26Z</time>
</trkpt>
<trkpt lat="47.701012" lon="11.136786">
<ele>645.414</ele>
<time>2022-05-27T12:21:27Z</time>
</trkpt>
<trkpt lat="47.701042" lon="11.136735">
<ele>645.414</ele>
<time>2022-05-27T12:21:28Z</time>
</trkpt>
<trkpt lat="47.701069" lon="11.136688">
<ele>645.414</ele>
<time>2022-05-27T12:21:30Z</time>
</trkpt>
<trkpt lat="47.701111" lon="11.136603">
<ele>645.414</ele>
<time>2022-05-27T12:21:32Z</time>
</trkpt>
<trkpt lat="47.701157" lon="11.136517">
<ele>645.817</ele>
<time>2022-05-27T12:21:33Z</time>
</trkpt>
<trkpt lat="47.701176" lon="11.136477">
<ele>645.982</ele>
<time>2022-05-27T12:21:34Z</time>
</trkpt>
<trkpt lat="47.701199" lon="11.136433">
<ele>646.117</ele>
<time>2022-05-27T12:21:36Z</time>
</trkpt>
<trkpt lat="47.701248" lon="11.136349">
<ele>646.305</ele>
<time>2022-05-27T12:21:38Z</time>
</trkpt>
<trkpt lat="47.701305" lon="11.136261">
<ele>646.382</ele>
<time>2022-05-27T12:21:39Z</time>
</trkpt>
<trkpt lat="47.701332" lon="11.13622">
<ele>646.382</ele>
<time>2022-05-27T12:21:40Z</time>
</trkpt>
<trkpt lat="47.701359" lon="11.136177">
<ele>646.382</ele>
<time>2022-05-27T12:21:42Z</time>
</trkpt>
<trkpt lat="47.701408" lon="11.136086">
<ele>646.382</ele>
<time>2022-05-27T12:21:43Z</time>
</trkpt>
<trkpt lat="47.701435" lon="11.136045">
<ele>646.669</ele>
<time>2022-05-27T12:21:44Z</time>
</trkpt>
<trkpt lat="47.701466" lon="11.135997">
<ele>646.892</ele>
<time>2022-05-27T12:21:45Z</time>
</trkpt>
<trkpt lat="47.701492" lon="11.135946">
<ele>647.06</ele>
<time>2022-05-27T12:21:46Z</time>
</trkpt>
<trkpt lat="47.701519" lon="11.135899">
<ele>647.19</ele>
<time>2022-05-27T12:21:47Z</time>
</trkpt>
<trkpt lat="47.70155" lon="11.13585">
<ele>647.259</ele>
<time>2022-05-27T12:21:49Z</time>
</trkpt>
<trkpt lat="47.701603" lon="11.135762">
<ele>647.8</ele>
<time>2022-05-27T12:21:50Z</time>
</trkpt>
<trkpt lat="47.701633" lon="11.135715">
<ele>647.952</ele>
<time>2022-05-27T12:21:51Z</time>
</trkpt>
<trkpt lat="47.70166" lon="11.135674">
<ele>648.054</ele>
<time>2022-05-27T12:21:52Z</time>
</trkpt>
<trkpt lat="47.701687" lon="11.13563">
<ele>648.155</ele>
<time>2022-05-27T12:21:54Z</time>
</trkpt>
<trkpt lat="47.701736" lon="11.135547">
<ele>648.678</ele>
<time>2022-05-27T12:21:56Z</time>
</trkpt>
<trkpt lat="47.701763" lon="11.135507">
<ele>648.853</ele>
<time>2022-05-27T12:21:57Z</time>
</trkpt>
<trkpt lat="47.70182" lon="11.13543">
<ele>649.126</ele>
<time>2022-05-27T12:21:58Z</time>
</trkpt>
<trkpt lat="47.701847" lon="11.135398">
<ele>649.175</ele>
<time>2022-05-27T12:21:59Z</time>
</trkpt>
<trkpt lat="47.701874" lon="11.135368">
<ele>649.199</ele>
<time>2022-05-27T12:22:00Z</time>
</trkpt>
<trkpt lat="47.701904" lon="11.135342">
<ele>649.199</ele>
<time>2022-05-27T12:22:01Z</time>
</trkpt>
<trkpt lat="47.701931" lon="11.13532">
<ele>649.41</ele>
<time>2022-05-27T12:22:02Z</time>
</trkpt>
<trkpt lat="47.701965" lon="11.1353">
<ele>649.611</ele>
<time>2022-05-27T12:22:03Z</time>
</trkpt>
<trkpt lat="47.702003" lon="11.135282">
<ele>649.778</ele>
<time>2022-05-27T12:22:04Z</time>
</trkpt>
<trkpt lat="47.702045" lon="11.135265">
<ele>649.917</ele>
<time>2022-05-27T12:22:05Z</time>
</trkpt>
<trkpt lat="47.702087" lon="11.13525">
<ele>650.025</ele>
<time>2022-05-27T12:22:06Z</time>
</trkpt>
<trkpt lat="47.702129" lon="11.135237">
<ele>650.101</ele>
<time>2022-05-27T12:22:07Z</time>
</trkpt>
<trkpt lat="47.702171" lon="11.135228">
<ele>650.147</ele>
<time>2022-05-27T12:22:09Z</time>
</trkpt>
<trkpt lat="47.702255" lon="11.135213">
<ele>650.168</ele>
<time>2022-05-27T12:22:10Z</time>
</trkpt>
<trkpt lat="47.702297" lon="11.135207">
<ele>650.168</ele>
<time>2022-05-27T12:22:11Z</time>
</trkpt>
<trkpt lat="47.702343" lon="11.135197">
<ele>650.385</ele>
<time>2022-05-27T12:22:12Z</time>
</trkpt>
<trkpt lat="47.702381" lon="11.135188">
<ele>650.589</ele>
<time>2022-05-27T12:22:13Z</time>
</trkpt>
<trkpt lat="47.702423" lon="11.13518">
<ele>650.753</ele>
<time>2022-05-27T12:22:14Z</time>
</trkpt>
<trkpt lat="47.702465" lon="11.13517">
<ele>650.886</ele>
<time>2022-05-27T12:22:15Z</time>
</trkpt>
<trkpt lat="47.702503" lon="11.13516">
<ele>650.99</ele>
<time>2022-05-27T12:22:17Z</time>
</trkpt>
<trkpt lat="47.702541" lon="11.13515">
<ele>651.066</ele>
<time>2022-05-27T12:22:18Z</time>
</trkpt>
<trkpt lat="47.702579" lon="11.135139">
<ele>651.114</ele>
<time>2022-05-27T12:22:19Z</time>
</trkpt>
<trkpt lat="47.702663" lon="11.135106">
<ele>651.137</ele>
<time>2022-05-27T12:22:21Z</time>
</trkpt>
<trkpt lat="47.702744" lon="11.135072">
<ele>651.334</ele>
<time>2022-05-27T12:22:22Z</time>
</trkpt>
<trkpt lat="47.702782" lon="11.135052">
<ele>651.522</ele>
<time>2022-05-27T12:22:23Z</time>
</trkpt>
<trkpt lat="47.702824" lon="11.135031">
<ele>651.673</ele>
<time>2022-05-27T12:22:25Z</time>
</trkpt>
<trkpt lat="47.7029" lon="11.134989">
<ele>651.885</ele>
<time>2022-05-27T12:22:27Z</time>
</trkpt>
<trkpt lat="47.702934" lon="11.134965">
<ele>651.952</ele>
<time>2022-05-27T12:22:28Z</time>
</trkpt>
<trkpt lat="47.703018" lon="11.134918">
<ele>652.018</ele>
<time>2022-05-27T12:22:29Z</time>
</trkpt>
<trkpt lat="47.70306" lon="11.134896">
<ele>652.018</ele>
<time>2022-05-27T12:22:30Z</time>
</trkpt>
<trkpt lat="47.703102" lon="11.134876">
<ele>652.018</ele>
<time>2022-05-27T12:22:31Z</time>
</trkpt>
<trkpt lat="47.703144" lon="11.134859">
<ele>652.018</ele>
<time>2022-05-27T12:22:32Z</time>
</trkpt>
<trkpt lat="47.70319" lon="11.13484">
<ele>652.018</ele>
<time>2022-05-27T12:22:33Z</time>
</trkpt>
<trkpt lat="47.703236" lon="11.134824">
<ele>652.018</ele>
<time>2022-05-27T12:22:34Z</time>
</trkpt>
<trkpt lat="47.703281" lon="11.134807">
<ele>652.018</ele>
<time>2022-05-27T12:22:35Z</time>
</trkpt>
<trkpt lat="47.703327" lon="11.134793">
<ele>652.018</ele>
<time>2022-05-27T12:22:36Z</time>
</trkpt>
<trkpt lat="47.703377" lon="11.134782">
<ele>652.018</ele>
<time>2022-05-27T12:22:37Z</time>
</trkpt>
<trkpt lat="47.703423" lon="11.134768">
<ele>652.018</ele>
<time>2022-05-27T12:22:39Z</time>
</trkpt>
<trkpt lat="47.703468" lon="11.134755">
<ele>652.018</ele>
<time>2022-05-27T12:22:40Z</time>
</trkpt>
<trkpt lat="47.703518" lon="11.134744">
<ele>652.018</ele>
<time>2022-05-27T12:22:41Z</time>
</trkpt>
<trkpt lat="47.703606" lon="11.134713">
<ele>652.018</ele>
<time>2022-05-27T12:22:42Z</time>
</trkpt>
<trkpt lat="47.703648" lon="11.1347">
<ele>652.018</ele>
<time>2022-05-27T12:22:43Z</time>
</trkpt>
<trkpt lat="47.70369" lon="11.134686">
<ele>652.018</ele>
<time>2022-05-27T12:22:44Z</time>
</trkpt>
<trkpt lat="47.703732" lon="11.134672">
<ele>652.018</ele>
<time>2022-05-27T12:22:45Z</time>
</trkpt>
<trkpt lat="47.70377" lon="11.134656">
<ele>652.018</ele>
<time>2022-05-27T12:22:46Z</time>
</trkpt>
<trkpt lat="47.703812" lon="11.13464">
<ele>652.018</ele>
<time>2022-05-27T12:22:47Z</time>
</trkpt>
<trkpt lat="47.70385" lon="11.134618">
<ele>652.018</ele>
<time>2022-05-27T12:22:48Z</time>
</trkpt>
<trkpt lat="47.703896" lon="11.134597">
<ele>652.018</ele>
<time>2022-05-27T12:22:49Z</time>
</trkpt>
<trkpt lat="47.703941" lon="11.134577">
<ele>652.018</ele>
<time>2022-05-27T12:22:51Z</time>
</trkpt>
<trkpt lat="47.704025" lon="11.134532">
<ele>652.018</ele>
<time>2022-05-27T12:22:52Z</time>
</trkpt>
<trkpt lat="47.704075" lon="11.134509">
<ele>652.018</ele>
<time>2022-05-27T12:22:53Z</time>
</trkpt>
<trkpt lat="47.704117" lon="11.134484">
<ele>652.018</ele>
<time>2022-05-27T12:22:54Z</time>
</trkpt>
<trkpt lat="47.704163" lon="11.134461">
<ele>652.018</ele>
<time>2022-05-27T12:22:55Z</time>
</trkpt>
<trkpt lat="47.704205" lon="11.134437">
<ele>652.018</ele>
<time>2022-05-27T12:22:57Z</time>
</trkpt>
<trkpt lat="47.704304" lon="11.134388">
<ele>652.018</ele>
<time>2022-05-27T12:22:58Z</time>
</trkpt>
<trkpt lat="47.70435" lon="11.134363">
<ele>652.018</ele>
<time>2022-05-27T12:22:59Z</time>
</trkpt>
<trkpt lat="47.704399" lon="11.134341">
<ele>652.018</ele>
<time>2022-05-27T12:23:01Z</time>
</trkpt>
<trkpt lat="47.704498" lon="11.134304">
<ele>652.018</ele>
<time>2022-05-27T12:23:02Z</time>
</trkpt>
<trkpt lat="47.704552" lon="11.134285">
<ele>652.018</ele>
<time>2022-05-27T12:23:03Z</time>
</trkpt>
<trkpt lat="47.704601" lon="11.13427">
<ele>652.018</ele>
<time>2022-05-27T12:23:04Z</time>
</trkpt>
<trkpt lat="47.704655" lon="11.134255">
<ele>652.018</ele>
<time>2022-05-27T12:23:05Z</time>
</trkpt>
<trkpt lat="47.7047" lon="11.13424">
<ele>652.018</ele>
<time>2022-05-27T12:23:06Z</time>
</trkpt>
<trkpt lat="47.704746" lon="11.134224">
<ele>652.018</ele>
<time>2022-05-27T12:23:08Z</time>
</trkpt>
<trkpt lat="47.704792" lon="11.13421">
<ele>652.018</ele>
<time>2022-05-27T12:23:09Z</time>
</trkpt>
<trkpt lat="47.704887" lon="11.13418">
<ele>652.018</ele>
<time>2022-05-27T12:23:10Z</time>
</trkpt>
<trkpt lat="47.704929" lon="11.134164">
<ele>652.018</ele>
<time>2022-05-27T12:23:12Z</time>
</trkpt>
<trkpt lat="47.705025" lon="11.134126">
<ele>652.018</ele>
<time>2022-05-27T12:23:13Z</time>
</trkpt>
<trkpt lat="47.705074" lon="11.134109">
<ele>652.018</ele>
<time>2022-05-27T12:23:14Z</time>
</trkpt>
<trkpt lat="47.705124" lon="11.134092">
<ele>652.018</ele>
<time>2022-05-27T12:23:15Z</time>
</trkpt>
<trkpt lat="47.705173" lon="11.134071">
<ele>652.018</ele>
<time>2022-05-27T12:23:16Z</time>
</trkpt>
<trkpt lat="47.705223" lon="11.134052">
<ele>652.018</ele>
<time>2022-05-27T12:23:17Z</time>
</trkpt>
<trkpt lat="47.705276" lon="11.134033">
<ele>652.018</ele>
<time>2022-05-27T12:23:19Z</time>
</trkpt>
<trkpt lat="47.705379" lon="11.133993">
<ele>651.608</ele>
<time>2022-05-27T12:23:20Z</time>
</trkpt>
<trkpt lat="47.705433" lon="11.133971">
<ele>651.469</ele>
<time>2022-05-27T12:23:21Z</time>
</trkpt>
<trkpt lat="47.705482" lon="11.133952">
<ele>651.375</ele>
<time>2022-05-27T12:23:22Z</time>
</trkpt>
<trkpt lat="47.70554" lon="11.133931">
<ele>651.277</ele>
<time>2022-05-27T12:23:23Z</time>
</trkpt>
<trkpt lat="47.705589" lon="11.133912">
<ele>651.205</ele>
<time>2022-05-27T12:23:24Z</time>
</trkpt>
<trkpt lat="47.705639" lon="11.133891">
<ele>651.159</ele>
<time>2022-05-27T12:23:25Z</time>
</trkpt>
<trkpt lat="47.705692" lon="11.133873">
<ele>651.137</ele>
<time>2022-05-27T12:23:27Z</time>
</trkpt>
<trkpt lat="47.705799" lon="11.133839">
<ele>651.137</ele>
<time>2022-05-27T12:23:29Z</time>
</trkpt>
<trkpt lat="47.705898" lon="11.133805">
<ele>651.137</ele>
<time>2022-05-27T12:23:30Z</time>
</trkpt>
<trkpt lat="47.705944" lon="11.133786">
<ele>651.136</ele>
<time>2022-05-27T12:23:31Z</time>
</trkpt>
<trkpt lat="47.705997" lon="11.133768">
<ele>651.137</ele>
<time>2022-05-27T12:23:32Z</time>
</trkpt>
<trkpt lat="47.706047" lon="11.13375">
<ele>651.137</ele>
<time>2022-05-27T12:23:33Z</time>
</trkpt>
<trkpt lat="47.706097" lon="11.133732">
<ele>651.137</ele>
<time>2022-05-27T12:23:34Z</time>
</trkpt>
<trkpt lat="47.706146" lon="11.133715">
<ele>651.137</ele>
<time>2022-05-27T12:23:35Z</time>
</trkpt>
<trkpt lat="47.706196" lon="11.133702">
<ele>651.137</ele>
<time>2022-05-27T12:23:36Z</time>
</trkpt>
<trkpt lat="47.706245" lon="11.133686">
<ele>651.137</ele>
<time>2022-05-27T12:23:37Z</time>
</trkpt>
<trkpt lat="47.706291" lon="11.13367">
<ele>651.137</ele>
<time>2022-05-27T12:23:38Z</time>
</trkpt>
<trkpt lat="47.706333" lon="11.133648">
<ele>651.137</ele>
<time>2022-05-27T12:23:40Z</time>
</trkpt>
<trkpt lat="47.706417" lon="11.133605">
<ele>651.137</ele>
<time>2022-05-27T12:23:41Z</time>
</trkpt>
<trkpt lat="47.706451" lon="11.13358">
<ele>651.137</ele>
<time>2022-05-27T12:23:42Z</time>
</trkpt>
<trkpt lat="47.706482" lon="11.133555">
<ele>651.137</ele>
<time>2022-05-27T12:23:43Z</time>
</trkpt>
<trkpt lat="47.706512" lon="11.133531">
<ele>651.137</ele>
<time>2022-05-27T12:23:44Z</time>
</trkpt>
<trkpt lat="47.706539" lon="11.133505">
<ele>651.137</ele>
<time>2022-05-27T12:23:46Z</time>
</trkpt>
<trkpt lat="47.706589" lon="11.133458">
<ele>651.137</ele>
<time>2022-05-27T12:23:48Z</time>
</trkpt>
<trkpt lat="47.706635" lon="11.133415">
<ele>651.137</ele>
<time>2022-05-27T12:23:50Z</time>
</trkpt>
<trkpt lat="47.706654" lon="11.133347">
<ele>651.137</ele>
<time>2022-05-27T12:23:51Z</time>
</trkpt>
<trkpt lat="47.70665" lon="11.133313">
<ele>651.137</ele>
<time>2022-05-27T12:23:53Z</time>
</trkpt>
<trkpt lat="47.706615" lon="11.133275">
<ele>651.383</ele>
<time>2022-05-27T12:23:54Z</time>
</trkpt>
<trkpt lat="47.706585" lon="11.133257">
<ele>651.592</ele>
<time>2022-05-27T12:23:55Z</time>
</trkpt>
<trkpt lat="47.706558" lon="11.133238">
<ele>651.75</ele>
<time>2022-05-27T12:23:57Z</time>
</trkpt>
<trkpt lat="47.706528" lon="11.133219">
<ele>651.869</ele>
<time>2022-05-27T12:23:58Z</time>
</trkpt>
<trkpt lat="47.706467" lon="11.133181">
<ele>651.997</ele>
<time>2022-05-27T12:23:59Z</time>
</trkpt>
<trkpt lat="47.706432" lon="11.133163">
<ele>652.018</ele>
<time>2022-05-27T12:24:00Z</time>
</trkpt>
<trkpt lat="47.706402" lon="11.133147">
<ele>652.018</ele>
<time>2022-05-27T12:24:02Z</time>
</trkpt>
<trkpt lat="47.706337" lon="11.133107">
<ele>652.018</ele>
<time>2022-05-27T12:24:04Z</time>
</trkpt>
<trkpt lat="47.706264" lon="11.133068">
<ele>652.304</ele>
<time>2022-05-27T12:24:05Z</time>
</trkpt>
<trkpt lat="47.706226" lon="11.13305">
<ele>652.523</ele>
<time>2022-05-27T12:24:06Z</time>
</trkpt>
<trkpt lat="47.706192" lon="11.13303">
<ele>652.687</ele>
<time>2022-05-27T12:24:08Z</time>
</trkpt>
<trkpt lat="47.70612" lon="11.132992">
<ele>652.873</ele>
<time>2022-05-27T12:24:09Z</time>
</trkpt>
<trkpt lat="47.706085" lon="11.132972">
<ele>653.22</ele>
<time>2022-05-27T12:24:10Z</time>
</trkpt>
<trkpt lat="47.706051" lon="11.132952">
<ele>653.48</ele>
<time>2022-05-27T12:24:11Z</time>
</trkpt>
<trkpt lat="47.70602" lon="11.13293">
<ele>653.654</ele>
<time>2022-05-27T12:24:12Z</time>
</trkpt>
<trkpt lat="47.705986" lon="11.132907">
<ele>653.809</ele>
<time>2022-05-27T12:24:14Z</time>
</trkpt>
<trkpt lat="47.705925" lon="11.132863">
<ele>654.463</ele>
<time>2022-05-27T12:24:15Z</time>
</trkpt>
<trkpt lat="47.705898" lon="11.13284">
<ele>654.657</ele>
<time>2022-05-27T12:24:16Z</time>
</trkpt>
<trkpt lat="47.705868" lon="11.132818">
<ele>655.078</ele>
<time>2022-05-27T12:24:17Z</time>
</trkpt>
<trkpt lat="47.705841" lon="11.132795">
<ele>655.499</ele>
<time>2022-05-27T12:24:18Z</time>
</trkpt>
<trkpt lat="47.705814" lon="11.132772">
<ele>655.745</ele>
<time>2022-05-27T12:24:19Z</time>
</trkpt>
<trkpt lat="47.705788" lon="11.132745">
<ele>655.902</ele>
<time>2022-05-27T12:24:20Z</time>
</trkpt>
<trkpt lat="47.705757" lon="11.132716">
<ele>655.993</ele>
<time>2022-05-27T12:24:21Z</time>
</trkpt>
<trkpt lat="47.70573" lon="11.132685">
<ele>656.065</ele>
<time>2022-05-27T12:24:23Z</time>
</trkpt>
<trkpt lat="47.705666" lon="11.132622">
<ele>656.158</ele>
<time>2022-05-27T12:24:24Z</time>
</trkpt>
<trkpt lat="47.705631" lon="11.132588">
<ele>656.158</ele>
<time>2022-05-27T12:24:25Z</time>
</trkpt>
<trkpt lat="47.705597" lon="11.132552">
<ele>656.158</ele>
<time>2022-05-27T12:24:26Z</time>
</trkpt>
<trkpt lat="47.705563" lon="11.132515">
<ele>656.158</ele>
<time>2022-05-27T12:24:27Z</time>
</trkpt>
<trkpt lat="47.705528" lon="11.132477">
<ele>656.158</ele>
<time>2022-05-27T12:24:28Z</time>
</trkpt>
<trkpt lat="47.705494" lon="11.13244">
<ele>656.158</ele>
<time>2022-05-27T12:24:29Z</time>
</trkpt>
<trkpt lat="47.705463" lon="11.132405">
<ele>656.158</ele>
<time>2022-05-27T12:24:30Z</time>
</trkpt>
<trkpt lat="47.705433" lon="11.132365">
<ele>656.158</ele>
<time>2022-05-27T12:24:32Z</time>
</trkpt>
<trkpt lat="47.705402" lon="11.132321">
<ele>656.158</ele>
<time>2022-05-27T12:24:33Z</time>
</trkpt>
<trkpt lat="47.705338" lon="11.132234">
<ele>656.591</ele>
<time>2022-05-27T12:24:34Z</time>
</trkpt>
<trkpt lat="47.705307" lon="11.132186">
<ele>656.757</ele>
<time>2022-05-27T12:24:35Z</time>
</trkpt>
<trkpt lat="47.705269" lon="11.132142">
<ele>656.889</ele>
<time>2022-05-27T12:24:36Z</time>
</trkpt>
<trkpt lat="47.705227" lon="11.132098">
<ele>656.951</ele>
<time>2022-05-27T12:24:37Z</time>
</trkpt>
<trkpt lat="47.705189" lon="11.132056">
<ele>656.752</ele>
<time>2022-05-27T12:24:38Z</time>
</trkpt>
<trkpt lat="47.705151" lon="11.132015">
<ele>656.588</ele>
<time>2022-05-27T12:24:39Z</time>
</trkpt>
<trkpt lat="47.705116" lon="11.131976">
<ele>656.446</ele>
<time>2022-05-27T12:24:40Z</time>
</trkpt>
<trkpt lat="47.705078" lon="11.131942">
<ele>656.325</ele>
<time>2022-05-27T12:24:41Z</time>
</trkpt>
<trkpt lat="47.70504" lon="11.131908">
<ele>656.414</ele>
<time>2022-05-27T12:24:42Z</time>
</trkpt>
<trkpt lat="47.705002" lon="11.131876">
<ele>656.497</ele>
<time>2022-05-27T12:24:43Z</time>
</trkpt>
<trkpt lat="47.704964" lon="11.131845">
<ele>656.579</ele>
<time>2022-05-27T12:24:44Z</time>
</trkpt>
<trkpt lat="47.704922" lon="11.131813">
<ele>656.663</ele>
<time>2022-05-27T12:24:45Z</time>
</trkpt>
<trkpt lat="47.704884" lon="11.13178">
<ele>656.724</ele>
<time>2022-05-27T12:24:46Z</time>
</trkpt>
<trkpt lat="47.704842" lon="11.131748">
<ele>656.819</ele>
<time>2022-05-27T12:24:47Z</time>
</trkpt>
<trkpt lat="47.704796" lon="11.131721">
<ele>656.889</ele>
<time>2022-05-27T12:24:48Z</time>
</trkpt>
<trkpt lat="47.704754" lon="11.131695">
<ele>656.931</ele>
<time>2022-05-27T12:24:49Z</time>
</trkpt>
<trkpt lat="47.704708" lon="11.13167">
<ele>656.951</ele>
<time>2022-05-27T12:24:50Z</time>
</trkpt>
<trkpt lat="47.704666" lon="11.131645">
<ele>656.951</ele>
<time>2022-05-27T12:24:51Z</time>
</trkpt>
<trkpt lat="47.704628" lon="11.13162">
<ele>656.951</ele>
<time>2022-05-27T12:24:52Z</time>
</trkpt>
<trkpt lat="47.704582" lon="11.131597">
<ele>656.951</ele>
<time>2022-05-27T12:24:53Z</time>
</trkpt>
<trkpt lat="47.704544" lon="11.131574">
<ele>656.951</ele>
<time>2022-05-27T12:24:54Z</time>
</trkpt>
<trkpt lat="47.704502" lon="11.131551">
<ele>656.951</ele>
<time>2022-05-27T12:24:55Z</time>
</trkpt>
<trkpt lat="47.704464" lon="11.131525">
<ele>657.243</ele>
<time>2022-05-27T12:24:56Z</time>
</trkpt>
<trkpt lat="47.704426" lon="11.1315">
<ele>657.472</ele>
<time>2022-05-27T12:24:58Z</time>
</trkpt>
<trkpt lat="47.704384" lon="11.131475">
<ele>657.651</ele>
<time>2022-05-27T12:24:59Z</time>
</trkpt>
<trkpt lat="47.704346" lon="11.131452">
<ele>657.783</ele>
<time>2022-05-27T12:25:00Z</time>
</trkpt>
<trkpt lat="47.704266" lon="11.1314">
<ele>658.157</ele>
<time>2022-05-27T12:25:01Z</time>
</trkpt>
<trkpt lat="47.704224" lon="11.131379">
<ele>658.383</ele>
<time>2022-05-27T12:25:02Z</time>
</trkpt>
<trkpt lat="47.704182" lon="11.131354">
<ele>658.586</ele>
<time>2022-05-27T12:25:03Z</time>
</trkpt>
<trkpt lat="47.70414" lon="11.131331">
<ele>658.725</ele>
<time>2022-05-27T12:25:04Z</time>
</trkpt>
<trkpt lat="47.704098" lon="11.131307">
<ele>658.831</ele>
<time>2022-05-27T12:25:05Z</time>
</trkpt>
<trkpt lat="47.704056" lon="11.131282">
<ele>658.908</ele>
<time>2022-05-27T12:25:07Z</time>
</trkpt>
<trkpt lat="47.703972" lon="11.131228">
<ele>658.978</ele>
<time>2022-05-27T12:25:08Z</time>
</trkpt>
<trkpt lat="47.703934" lon="11.131207">
<ele>658.978</ele>
<time>2022-05-27T12:25:09Z</time>
</trkpt>
<trkpt lat="47.703899" lon="11.131185">
<ele>658.978</ele>
<time>2022-05-27T12:25:10Z</time>
</trkpt>
<trkpt lat="47.703869" lon="11.131167">
<ele>658.978</ele>
<time>2022-05-27T12:25:11Z</time>
</trkpt>
<trkpt lat="47.703835" lon="11.131148">
<ele>658.978</ele>
<time>2022-05-27T12:25:12Z</time>
</trkpt>
<trkpt lat="47.7038" lon="11.131128">
<ele>658.978</ele>
<time>2022-05-27T12:25:14Z</time>
</trkpt>
<trkpt lat="47.703758" lon="11.131111">
<ele>658.978</ele>
<time>2022-05-27T12:25:15Z</time>
</trkpt>
<trkpt lat="47.703716" lon="11.131095">
<ele>658.704</ele>
<time>2022-05-27T12:25:16Z</time>
</trkpt>
<trkpt lat="47.703663" lon="11.131077">
<ele>658.477</ele>
<time>2022-05-27T12:25:17Z</time>
</trkpt>
<trkpt lat="47.703552" lon="11.131037">
<ele>657.911</ele>
<time>2022-05-27T12:25:18Z</time>
</trkpt>
<trkpt lat="47.703499" lon="11.131012">
<ele>657.607</ele>
<time>2022-05-27T12:25:20Z</time>
</trkpt>
<trkpt lat="47.703384" lon="11.130966">
<ele>657.267</ele>
<time>2022-05-27T12:25:21Z</time>
</trkpt>
<trkpt lat="47.703323" lon="11.130943">
<ele>657.181</ele>
<time>2022-05-27T12:25:22Z</time>
</trkpt>
<trkpt lat="47.703266" lon="11.130917">
<ele>657.109</ele>
<time>2022-05-27T12:25:23Z</time>
</trkpt>
<trkpt lat="47.703209" lon="11.130892">
<ele>657.062</ele>
<time>2022-05-27T12:25:24Z</time>
</trkpt>
<trkpt lat="47.703156" lon="11.130861">
<ele>657.039</ele>
<time>2022-05-27T12:25:26Z</time>
</trkpt>
<trkpt lat="47.703053" lon="11.130796">
<ele>657.039</ele>
<time>2022-05-27T12:25:28Z</time>
</trkpt>
<trkpt lat="47.702965" lon="11.13073">
<ele>657.278</ele>
<time>2022-05-27T12:25:29Z</time>
</trkpt>
<trkpt lat="47.702927" lon="11.130696">
<ele>657.467</ele>
<time>2022-05-27T12:25:30Z</time>
</trkpt>
<trkpt lat="47.702888" lon="11.130665">
<ele>657.591</ele>
<time>2022-05-27T12:25:31Z</time>
</trkpt>
<trkpt lat="47.702847" lon="11.130633">
<ele>657.948</ele>
<time>2022-05-27T12:25:33Z</time>
</trkpt>
<trkpt lat="47.70277" lon="11.13057">
<ele>658.544</ele>
<time>2022-05-27T12:25:34Z</time>
</trkpt>
<trkpt lat="47.702732" lon="11.13054">
<ele>658.751</ele>
<time>2022-05-27T12:25:35Z</time>
</trkpt>
<trkpt lat="47.70269" lon="11.13051">
<ele>658.9</ele>
<time>2022-05-27T12:25:36Z</time>
</trkpt>
<trkpt lat="47.702644" lon="11.130476">
<ele>658.986</ele>
<time>2022-05-27T12:25:37Z</time>
</trkpt>
<trkpt lat="47.702606" lon="11.130442">
<ele>659.04</ele>
<time>2022-05-27T12:25:38Z</time>
</trkpt>
<trkpt lat="47.702564" lon="11.130406">
<ele>659.066</ele>
<time>2022-05-27T12:25:40Z</time>
</trkpt>
<trkpt lat="47.702518" lon="11.130373">
<ele>659.066</ele>
<time>2022-05-27T12:25:41Z</time>
</trkpt>
<trkpt lat="47.702423" lon="11.130301">
<ele>658.825</ele>
<time>2022-05-27T12:25:42Z</time>
</trkpt>
<trkpt lat="47.702377" lon="11.130257">
<ele>658.597</ele>
<time>2022-05-27T12:25:43Z</time>
</trkpt>
<trkpt lat="47.70232" lon="11.130212">
<ele>658.438</ele>
<time>2022-05-27T12:25:44Z</time>
</trkpt>
<trkpt lat="47.702267" lon="11.130166">
<ele>658.055</ele>
<time>2022-05-27T12:25:45Z</time>
</trkpt>
<trkpt lat="47.702209" lon="11.130116">
<ele>657.747</ele>
<time>2022-05-27T12:25:46Z</time>
</trkpt>
<trkpt lat="47.702152" lon="11.130059">
<ele>657.556</ele>
<time>2022-05-27T12:25:47Z</time>
</trkpt>
<trkpt lat="47.702095" lon="11.129998">
<ele>657.121</ele>
<time>2022-05-27T12:25:48Z</time>
</trkpt>
<trkpt lat="47.702042" lon="11.12993">
<ele>656.796</ele>
<time>2022-05-27T12:25:49Z</time>
</trkpt>
<trkpt lat="47.701988" lon="11.129858">
<ele>656.538</ele>
<time>2022-05-27T12:25:50Z</time>
</trkpt>
<trkpt lat="47.701942" lon="11.12979">
<ele>656.407</ele>
<time>2022-05-27T12:25:51Z</time>
</trkpt>
<trkpt lat="47.7019" lon="11.129722">
<ele>656.312</ele>
<time>2022-05-27T12:25:52Z</time>
</trkpt>
<trkpt lat="47.701859" lon="11.129655">
<ele>656.234</ele>
<time>2022-05-27T12:25:53Z</time>
</trkpt>
<trkpt lat="47.701817" lon="11.12959">
<ele>656.183</ele>
<time>2022-05-27T12:25:54Z</time>
</trkpt>
<trkpt lat="47.701775" lon="11.129525">
<ele>656.158</ele>
<time>2022-05-27T12:25:55Z</time>
</trkpt>
<trkpt lat="47.701729" lon="11.129465">
<ele>656.158</ele>
<time>2022-05-27T12:25:57Z</time>
</trkpt>
<trkpt lat="47.701687" lon="11.12941">
<ele>656.158</ele>
<time>2022-05-27T12:25:58Z</time>
</trkpt>
<trkpt lat="47.701641" lon="11.129357">
<ele>656.158</ele>
<time>2022-05-27T12:25:59Z</time>
</trkpt>
<trkpt lat="47.701595" lon="11.129305">
<ele>656.158</ele>
<time>2022-05-27T12:26:00Z</time>
</trkpt>
<trkpt lat="47.70155" lon="11.129257">
<ele>656.158</ele>
<time>2022-05-27T12:26:01Z</time>
</trkpt>
<trkpt lat="47.701458" lon="11.129177">
<ele>656.158</ele>
<time>2022-05-27T12:26:02Z</time>
</trkpt>
<trkpt lat="47.701408" lon="11.12914">
<ele>656.158</ele>
<time>2022-05-27T12:26:03Z</time>
</trkpt>
<trkpt lat="47.701359" lon="11.129106">
<ele>656.158</ele>
<time>2022-05-27T12:26:04Z</time>
</trkpt>
<trkpt lat="47.701305" lon="11.129073">
<ele>655.829</ele>
<time>2022-05-27T12:26:05Z</time>
</trkpt>
<trkpt lat="47.701252" lon="11.129045">
<ele>655.571</ele>
<time>2022-05-27T12:26:06Z</time>
</trkpt>
<trkpt lat="47.701195" lon="11.129024">
<ele>655.373</ele>
<time>2022-05-27T12:26:08Z</time>
</trkpt>
<trkpt lat="47.701138" lon="11.129008">
<ele>655.232</ele>
<time>2022-05-27T12:26:09Z</time>
</trkpt>
<trkpt lat="47.701015" lon="11.128999">
<ele>655.066</ele>
<time>2022-05-27T12:26:10Z</time>
</trkpt>
<trkpt lat="47.700962" lon="11.129007">
<ele>655.038</ele>
<time>2022-05-27T12:26:11Z</time>
</trkpt>
<trkpt lat="47.700912" lon="11.12902">
<ele>655.013</ele>
<time>2022-05-27T12:26:13Z</time>
</trkpt>
<trkpt lat="47.700809" lon="11.129042">
<ele>654.73</ele>
<time>2022-05-27T12:26:15Z</time>
</trkpt>
<trkpt lat="47.700714" lon="11.129058">
<ele>654.344</ele>
<time>2022-05-27T12:26:16Z</time>
</trkpt>
<trkpt lat="47.700661" lon="11.12906">
<ele>654.217</ele>
<time>2022-05-27T12:26:17Z</time>
</trkpt>
<trkpt lat="47.700607" lon="11.129055">
<ele>654.13</ele>
<time>2022-05-27T12:26:18Z</time>
</trkpt>
<trkpt lat="47.70055" lon="11.129042">
<ele>654.079</ele>
<time>2022-05-27T12:26:19Z</time>
</trkpt>
<trkpt lat="47.700493" lon="11.129014">
<ele>653.802</ele>
<time>2022-05-27T12:26:20Z</time>
</trkpt>
<trkpt lat="47.700436" lon="11.128979">
<ele>653.632</ele>
<time>2022-05-27T12:26:21Z</time>
</trkpt>
<trkpt lat="47.700382" lon="11.128935">
<ele>653.257</ele>
<time>2022-05-27T12:26:22Z</time>
</trkpt>
<trkpt lat="47.700325" lon="11.128893">
<ele>652.917</ele>
<time>2022-05-27T12:26:23Z</time>
</trkpt>
<trkpt lat="47.700275" lon="11.12885">
<ele>652.666</ele>
<time>2022-05-27T12:26:25Z</time>
</trkpt>
<trkpt lat="47.700172" lon="11.12876">
<ele>652.343</ele>
<time>2022-05-27T12:26:26Z</time>
</trkpt>
<trkpt lat="47.700115" lon="11.128718">
<ele>652.256</ele>
<time>2022-05-27T12:26:27Z</time>
</trkpt>
<trkpt lat="47.700066" lon="11.128674">
<ele>652.214</ele>
<time>2022-05-27T12:26:28Z</time>
</trkpt>
<trkpt lat="47.700008" lon="11.128629">
<ele>652.193</ele>
<time>2022-05-27T12:26:29Z</time>
</trkpt>
<trkpt lat="47.699955" lon="11.128589">
<ele>652.193</ele>
<time>2022-05-27T12:26:30Z</time>
</trkpt>
<trkpt lat="47.699902" lon="11.128542">
<ele>652.193</ele>
<time>2022-05-27T12:26:32Z</time>
</trkpt>
<trkpt lat="47.699848" lon="11.128502">
<ele>652.193</ele>
<time>2022-05-27T12:26:33Z</time>
</trkpt>
<trkpt lat="47.699738" lon="11.12841">
<ele>651.903</ele>
<time>2022-05-27T12:26:34Z</time>
</trkpt>
<trkpt lat="47.699677" lon="11.128365">
<ele>651.68</ele>
<time>2022-05-27T12:26:35Z</time>
</trkpt>
<trkpt lat="47.699623" lon="11.12832">
<ele>651.511</ele>
<time>2022-05-27T12:26:36Z</time>
</trkpt>
<trkpt lat="47.69957" lon="11.12827">
<ele>651.385</ele>
<time>2022-05-27T12:26:37Z</time>
</trkpt>
<trkpt lat="47.699512" lon="11.128225">
<ele>651.3</ele>
<time>2022-05-27T12:26:38Z</time>
</trkpt>
<trkpt lat="47.699459" lon="11.128178">
<ele>651.251</ele>
<time>2022-05-27T12:26:39Z</time>
</trkpt>
<trkpt lat="47.699402" lon="11.128132">
<ele>651.228</ele>
<time>2022-05-27T12:26:40Z</time>
</trkpt>
<trkpt lat="47.699345" lon="11.128088">
<ele>651.225</ele>
<time>2022-05-27T12:26:41Z</time>
</trkpt>
<trkpt lat="47.699284" lon="11.128045">
<ele>651.225</ele>
<time>2022-05-27T12:26:42Z</time>
</trkpt>
<trkpt lat="47.699226" lon="11.128">
<ele>651.225</ele>
<time>2022-05-27T12:26:43Z</time>
</trkpt>
<trkpt lat="47.699173" lon="11.127956">
<ele>651.225</ele>
<time>2022-05-27T12:26:44Z</time>
</trkpt>
<trkpt lat="47.699116" lon="11.127918">
<ele>651.225</ele>
<time>2022-05-27T12:26:45Z</time>
</trkpt>
<trkpt lat="47.699059" lon="11.127878">
<ele>651.225</ele>
<time>2022-05-27T12:26:46Z</time>
</trkpt>
<trkpt lat="47.699005" lon="11.127842">
<ele>651.225</ele>
<time>2022-05-27T12:26:47Z</time>
</trkpt>
<trkpt lat="47.698956" lon="11.127803">
<ele>651.225</ele>
<time>2022-05-27T12:26:48Z</time>
</trkpt>
<trkpt lat="47.69891" lon="11.127767">
<ele>651.225</ele>
<time>2022-05-27T12:26:50Z</time>
</trkpt>
<trkpt lat="47.698814" lon="11.12769">
<ele>651.225</ele>
<time>2022-05-27T12:26:51Z</time>
</trkpt>
<trkpt lat="47.698761" lon="11.12765">
<ele>651.225</ele>
<time>2022-05-27T12:26:52Z</time>
</trkpt>
<trkpt lat="47.698708" lon="11.127605">
<ele>651.225</ele>
<time>2022-05-27T12:26:53Z</time>
</trkpt>
<trkpt lat="47.69865" lon="11.127563">
<ele>651.225</ele>
<time>2022-05-27T12:26:54Z</time>
</trkpt>
<trkpt lat="47.698593" lon="11.127526">
<ele>651.225</ele>
<time>2022-05-27T12:26:55Z</time>
</trkpt>
<trkpt lat="47.69854" lon="11.12749">
<ele>651.225</ele>
<time>2022-05-27T12:26:57Z</time>
</trkpt>
<trkpt lat="47.698433" lon="11.127415">
<ele>651.225</ele>
<time>2022-05-27T12:26:58Z</time>
</trkpt>
<trkpt lat="47.698372" lon="11.127378">
<ele>651.225</ele>
<time>2022-05-27T12:26:59Z</time>
</trkpt>
<trkpt lat="47.698322" lon="11.127343">
<ele>650.962</ele>
<time>2022-05-27T12:27:01Z</time>
</trkpt>
<trkpt lat="47.698265" lon="11.127308">
<ele>650.754</ele>
<time>2022-05-27T12:27:02Z</time>
</trkpt>
<trkpt lat="47.698208" lon="11.127271">
<ele>650.611</ele>
<time>2022-05-27T12:27:03Z</time>
</trkpt>
<trkpt lat="47.698154" lon="11.127232">
<ele>650.455</ele>
<time>2022-05-27T12:27:04Z</time>
</trkpt>
<trkpt lat="47.698097" lon="11.127197">
<ele>650.333</ele>
<time>2022-05-27T12:27:05Z</time>
</trkpt>
<trkpt lat="47.698044" lon="11.127166">
<ele>650.249</ele>
<time>2022-05-27T12:27:06Z</time>
</trkpt>
<trkpt lat="47.697987" lon="11.127136">
<ele>650.195</ele>
<time>2022-05-27T12:27:07Z</time>
</trkpt>
<trkpt lat="47.697941" lon="11.127107">
<ele>650.168</ele>
<time>2022-05-27T12:27:08Z</time>
</trkpt>
<trkpt lat="47.697884" lon="11.127075">
<ele>650.168</ele>
<time>2022-05-27T12:27:09Z</time>
</trkpt>
<trkpt lat="47.697834" lon="11.12704">
<ele>650.168</ele>
<time>2022-05-27T12:27:10Z</time>
</trkpt>
<trkpt lat="47.697723" lon="11.126973">
<ele>650.168</ele>
<time>2022-05-27T12:27:11Z</time>
</trkpt>
<trkpt lat="47.69767" lon="11.126938">
<ele>650.168</ele>
<time>2022-05-27T12:27:12Z</time>
</trkpt>
<trkpt lat="47.697617" lon="11.126898">
<ele>650.168</ele>
<time>2022-05-27T12:27:13Z</time>
</trkpt>
<trkpt lat="47.697567" lon="11.126863">
<ele>650.168</ele>
<time>2022-05-27T12:27:14Z</time>
</trkpt>
<trkpt lat="47.697517" lon="11.126833">
<ele>650.168</ele>
<time>2022-05-27T12:27:15Z</time>
</trkpt>
<trkpt lat="47.697468" lon="11.126797">
<ele>650.168</ele>
<time>2022-05-27T12:27:16Z</time>
</trkpt>
<trkpt lat="47.697414" lon="11.126765">
<ele>650.168</ele>
<time>2022-05-27T12:27:17Z</time>
</trkpt>
<trkpt lat="47.697357" lon="11.126735">
<ele>650.168</ele>
<time>2022-05-27T12:27:18Z</time>
</trkpt>
<trkpt lat="47.697308" lon="11.126692">
<ele>649.922</ele>
<time>2022-05-27T12:27:19Z</time>
</trkpt>
<trkpt lat="47.697258" lon="11.126646">
<ele>649.725</ele>
<time>2022-05-27T12:27:20Z</time>
</trkpt>
<trkpt lat="47.697197" lon="11.126607">
<ele>649.568</ele>
<time>2022-05-27T12:27:22Z</time>
</trkpt>
<trkpt lat="47.697147" lon="11.126571">
<ele>649.461</ele>
<time>2022-05-27T12:27:23Z</time>
</trkpt>
<trkpt lat="47.697041" lon="11.126487">
<ele>649.273</ele>
<time>2022-05-27T12:27:24Z</time>
</trkpt>
<trkpt lat="47.696991" lon="11.126441">
<ele>649.224</ele>
<time>2022-05-27T12:27:25Z</time>
</trkpt>
<trkpt lat="47.696938" lon="11.126395">
<ele>649.2</ele>
<time>2022-05-27T12:27:26Z</time>
</trkpt>
<trkpt lat="47.696884" lon="11.126348">
<ele>649.199</ele>
<time>2022-05-27T12:27:27Z</time>
</trkpt>
<trkpt lat="47.696827" lon="11.126302">
<ele>649.199</ele>
<time>2022-05-27T12:27:28Z</time>
</trkpt>
<trkpt lat="47.696774" lon="11.126255">
<ele>649.199</ele>
<time>2022-05-27T12:27:29Z</time>
</trkpt>
<trkpt lat="47.69672" lon="11.126206">
<ele>649.2</ele>
<time>2022-05-27T12:27:30Z</time>
</trkpt>
<trkpt lat="47.696667" lon="11.126162">
<ele>649.199</ele>
<time>2022-05-27T12:27:31Z</time>
</trkpt>
<trkpt lat="47.696617" lon="11.126119">
<ele>649.199</ele>
<time>2022-05-27T12:27:32Z</time>
</trkpt>
<trkpt lat="47.696571" lon="11.12607">
<ele>649.2</ele>
<time>2022-05-27T12:27:33Z</time>
</trkpt>
<trkpt lat="47.696522" lon="11.126023">
<ele>649.199</ele>
<time>2022-05-27T12:27:34Z</time>
</trkpt>
<trkpt lat="47.69648" lon="11.125977">
<ele>649.199</ele>
<time>2022-05-27T12:27:35Z</time>
</trkpt>
<trkpt lat="47.69643" lon="11.12593">
<ele>649.2</ele>
<time>2022-05-27T12:27:37Z</time>
</trkpt>
<trkpt lat="47.696331" lon="11.125837">
<ele>649.2</ele>
<time>2022-05-27T12:27:38Z</time>
</trkpt>
<trkpt lat="47.696281" lon="11.125792">
<ele>649.199</ele>
<time>2022-05-27T12:27:39Z</time>
</trkpt>
<trkpt lat="47.696236" lon="11.12575">
<ele>649.199</ele>
<time>2022-05-27T12:27:40Z</time>
</trkpt>
<trkpt lat="47.696186" lon="11.12571">
<ele>649.199</ele>
<time>2022-05-27T12:27:41Z</time>
</trkpt>
<trkpt lat="47.69614" lon="11.12567">
<ele>649.199</ele>
<time>2022-05-27T12:27:42Z</time>
</trkpt>
<trkpt lat="47.696087" lon="11.12563">
<ele>649.2</ele>
<time>2022-05-27T12:27:43Z</time>
</trkpt>
<trkpt lat="47.696041" lon="11.125585">
<ele>649.199</ele>
<time>2022-05-27T12:27:44Z</time>
</trkpt>
<trkpt lat="47.695992" lon="11.12554">
<ele>649.199</ele>
<time>2022-05-27T12:27:45Z</time>
</trkpt>
<trkpt lat="47.695942" lon="11.125495">
<ele>649.2</ele>
<time>2022-05-27T12:27:47Z</time>
</trkpt>
<trkpt lat="47.695847" lon="11.125395">
<ele>649.199</ele>
<time>2022-05-27T12:27:48Z</time>
</trkpt>
<trkpt lat="47.695797" lon="11.125345">
<ele>649.199</ele>
<time>2022-05-27T12:27:49Z</time>
</trkpt>
<trkpt lat="47.695751" lon="11.125295">
<ele>649.199</ele>
<time>2022-05-27T12:27:50Z</time>
</trkpt>
<trkpt lat="47.695698" lon="11.125249">
<ele>649.199</ele>
<time>2022-05-27T12:27:51Z</time>
</trkpt>
<trkpt lat="47.695652" lon="11.125201">
<ele>649.2</ele>
<time>2022-05-27T12:27:52Z</time>
</trkpt>
<trkpt lat="47.695599" lon="11.125154">
<ele>649.199</ele>
<time>2022-05-27T12:27:53Z</time>
</trkpt>
<trkpt lat="47.695549" lon="11.125109">
<ele>649.199</ele>
<time>2022-05-27T12:27:55Z</time>
</trkpt>
<trkpt lat="47.695454" lon="11.125014">
<ele>649.199</ele>
<time>2022-05-27T12:27:57Z</time>
</trkpt>
<trkpt lat="47.695362" lon="11.124925">
<ele>649.2</ele>
<time>2022-05-27T12:27:58Z</time>
</trkpt>
<trkpt lat="47.695312" lon="11.124882">
<ele>649.199</ele>
<time>2022-05-27T12:28:00Z</time>
</trkpt>
<trkpt lat="47.695229" lon="11.124794">
<ele>649.199</ele>
<time>2022-05-27T12:28:01Z</time>
</trkpt>
<trkpt lat="47.695175" lon="11.124748">
<ele>649.199</ele>
<time>2022-05-27T12:28:03Z</time>
</trkpt>
<trkpt lat="47.695076" lon="11.124672">
<ele>649.2</ele>
<time>2022-05-27T12:28:04Z</time>
</trkpt>
<trkpt lat="47.695023" lon="11.124637">
<ele>649.199</ele>
<time>2022-05-27T12:28:05Z</time>
</trkpt>
<trkpt lat="47.694977" lon="11.124595">
<ele>649.2</ele>
<time>2022-05-27T12:28:07Z</time>
</trkpt>
<trkpt lat="47.694881" lon="11.124496">
<ele>649.2</ele>
<time>2022-05-27T12:28:08Z</time>
</trkpt>
<trkpt lat="47.694839" lon="11.124442">
<ele>649.199</ele>
<time>2022-05-27T12:28:09Z</time>
</trkpt>
<trkpt lat="47.694794" lon="11.124394">
<ele>648.981</ele>
<time>2022-05-27T12:28:10Z</time>
</trkpt>
<trkpt lat="47.694752" lon="11.12435">
<ele>648.808</ele>
<time>2022-05-27T12:28:11Z</time>
</trkpt>
<trkpt lat="47.694702" lon="11.124307">
<ele>648.688</ele>
<time>2022-05-27T12:28:12Z</time>
</trkpt>
<trkpt lat="47.694653" lon="11.124262">
<ele>648.559</ele>
<time>2022-05-27T12:28:13Z</time>
</trkpt>
<trkpt lat="47.694607" lon="11.124215">
<ele>648.46</ele>
<time>2022-05-27T12:28:14Z</time>
</trkpt>
<trkpt lat="47.694557" lon="11.124168">
<ele>648.389</ele>
<time>2022-05-27T12:28:15Z</time>
</trkpt>
<trkpt lat="47.694511" lon="11.124124">
<ele>648.341</ele>
<time>2022-05-27T12:28:16Z</time>
</trkpt>
<trkpt lat="47.694462" lon="11.124082">
<ele>648.319</ele>
<time>2022-05-27T12:28:17Z</time>
</trkpt>
<trkpt lat="47.69442" lon="11.124036">
<ele>648.319</ele>
<time>2022-05-27T12:28:18Z</time>
</trkpt>
<trkpt lat="47.694374" lon="11.123992">
<ele>648.319</ele>
<time>2022-05-27T12:28:20Z</time>
</trkpt>
<trkpt lat="47.694286" lon="11.123901">
<ele>648.319</ele>
<time>2022-05-27T12:28:21Z</time>
</trkpt>
<trkpt lat="47.694244" lon="11.123858">
<ele>648.319</ele>
<time>2022-05-27T12:28:22Z</time>
</trkpt>
<trkpt lat="47.694199" lon="11.123816">
<ele>648.319</ele>
<time>2022-05-27T12:28:24Z</time>
</trkpt>
<trkpt lat="47.694153" lon="11.12377">
<ele>648.319</ele>
<time>2022-05-27T12:28:25Z</time>
</trkpt>
<trkpt lat="47.694107" lon="11.123726">
<ele>647.987</ele>
<time>2022-05-27T12:28:26Z</time>
</trkpt>
<trkpt lat="47.694057" lon="11.12368">
<ele>647.73</ele>
<time>2022-05-27T12:28:27Z</time>
</trkpt>
<trkpt lat="47.69397" lon="11.123584">
<ele>647.39</ele>
<time>2022-05-27T12:28:29Z</time>
</trkpt>
<trkpt lat="47.693882" lon="11.123504">
<ele>647.231</ele>
<time>2022-05-27T12:28:30Z</time>
</trkpt>
<trkpt lat="47.693836" lon="11.123464">
<ele>647.199</ele>
<time>2022-05-27T12:28:31Z</time>
</trkpt>
<trkpt lat="47.693794" lon="11.123424">
<ele>647.174</ele>
<time>2022-05-27T12:28:32Z</time>
</trkpt>
<trkpt lat="47.693748" lon="11.123386">
<ele>647.174</ele>
<time>2022-05-27T12:28:33Z</time>
</trkpt>
<trkpt lat="47.693699" lon="11.123355">
<ele>647.174</ele>
<time>2022-05-27T12:28:34Z</time>
</trkpt>
<trkpt lat="47.693645" lon="11.123323">
<ele>647.174</ele>
<time>2022-05-27T12:28:35Z</time>
</trkpt>
<trkpt lat="47.6936" lon="11.123288">
<ele>647.174</ele>
<time>2022-05-27T12:28:36Z</time>
</trkpt>
<trkpt lat="47.693546" lon="11.123255">
<ele>647.174</ele>
<time>2022-05-27T12:28:37Z</time>
</trkpt>
<trkpt lat="47.693501" lon="11.123223">
<ele>647.174</ele>
<time>2022-05-27T12:28:39Z</time>
</trkpt>
<trkpt lat="47.693447" lon="11.123194">
<ele>647.174</ele>
<time>2022-05-27T12:28:40Z</time>
</trkpt>
<trkpt lat="47.693348" lon="11.123145">
<ele>647.174</ele>
<time>2022-05-27T12:28:42Z</time>
</trkpt>
<trkpt lat="47.693253" lon="11.123096">
<ele>647.174</ele>
<time>2022-05-27T12:28:43Z</time>
</trkpt>
<trkpt lat="47.693199" lon="11.123072">
<ele>647.174</ele>
<time>2022-05-27T12:28:44Z</time>
</trkpt>
<trkpt lat="47.69315" lon="11.12305">
<ele>647.174</ele>
<time>2022-05-27T12:28:45Z</time>
</trkpt>
<trkpt lat="47.6931" lon="11.123034">
<ele>647.174</ele>
<time>2022-05-27T12:28:46Z</time>
</trkpt>
<trkpt lat="47.69305" lon="11.123028">
<ele>647.174</ele>
<time>2022-05-27T12:28:47Z</time>
</trkpt>
<trkpt lat="47.692993" lon="11.12303">
<ele>647.174</ele>
<time>2022-05-27T12:28:48Z</time>
</trkpt>
<trkpt lat="47.692936" lon="11.12304">
<ele>646.923</ele>
<time>2022-05-27T12:28:49Z</time>
</trkpt>
<trkpt lat="47.692875" lon="11.123058">
<ele>646.725</ele>
<time>2022-05-27T12:28:51Z</time>
</trkpt>
<trkpt lat="47.692814" lon="11.123083">
<ele>646.57</ele>
<time>2022-05-27T12:28:52Z</time>
</trkpt>
<trkpt lat="47.692757" lon="11.123112">
<ele>646.468</ele>
<time>2022-05-27T12:28:53Z</time>
</trkpt>
<trkpt lat="47.692696" lon="11.123145">
<ele>646.353</ele>
<time>2022-05-27T12:28:54Z</time>
</trkpt>
<trkpt lat="47.692638" lon="11.12318">
<ele>646.274</ele>
<time>2022-05-27T12:28:55Z</time>
</trkpt>
<trkpt lat="47.692585" lon="11.123213">
<ele>646.228</ele>
<time>2022-05-27T12:28:56Z</time>
</trkpt>
<trkpt lat="47.692478" lon="11.123269">
<ele>646.206</ele>
<time>2022-05-27T12:28:57Z</time>
</trkpt>
<trkpt lat="47.692425" lon="11.12329">
<ele>646.206</ele>
<time>2022-05-27T12:28:59Z</time>
</trkpt>
<trkpt lat="47.692368" lon="11.12331">
<ele>646.206</ele>
<time>2022-05-27T12:29:00Z</time>
</trkpt>
<trkpt lat="47.692253" lon="11.123346">
<ele>645.778</ele>
<time>2022-05-27T12:29:01Z</time>
</trkpt>
<trkpt lat="47.6922" lon="11.123367">
<ele>645.643</ele>
<time>2022-05-27T12:29:02Z</time>
</trkpt>
<trkpt lat="47.692142" lon="11.123384">
<ele>645.5</ele>
<time>2022-05-27T12:29:03Z</time>
</trkpt>
<trkpt lat="47.692093" lon="11.123402">
<ele>645.39</ele>
<time>2022-05-27T12:29:04Z</time>
</trkpt>
<trkpt lat="47.692043" lon="11.123425">
<ele>645.312</ele>
<time>2022-05-27T12:29:05Z</time>
</trkpt>
<trkpt lat="47.691998" lon="11.123453">
<ele>645.262</ele>
<time>2022-05-27T12:29:06Z</time>
</trkpt>
<trkpt lat="47.691952" lon="11.123487">
<ele>645.238</ele>
<time>2022-05-27T12:29:07Z</time>
</trkpt>
<trkpt lat="47.691914" lon="11.123523">
<ele>645.238</ele>
<time>2022-05-27T12:29:08Z</time>
</trkpt>
<trkpt lat="47.691872" lon="11.123563">
<ele>645.238</ele>
<time>2022-05-27T12:29:10Z</time>
</trkpt>
<trkpt lat="47.691799" lon="11.123652">
<ele>645.238</ele>
<time>2022-05-27T12:29:12Z</time>
</trkpt>
<trkpt lat="47.691719" lon="11.123751">
<ele>645.238</ele>
<time>2022-05-27T12:29:14Z</time>
</trkpt>
<trkpt lat="47.69162" lon="11.123848">
<ele>645.238</ele>
<time>2022-05-27T12:29:16Z</time>
</trkpt>
<trkpt lat="47.691513" lon="11.123931">
<ele>645.238</ele>
<time>2022-05-27T12:29:17Z</time>
</trkpt>
<trkpt lat="47.69146" lon="11.12397">
<ele>645.238</ele>
<time>2022-05-27T12:29:19Z</time>
</trkpt>
<trkpt lat="47.69141" lon="11.124006">
<ele>645.238</ele>
<time>2022-05-27T12:29:20Z</time>
</trkpt>
<trkpt lat="47.691303" lon="11.124073">
<ele>645.238</ele>
<time>2022-05-27T12:29:21Z</time>
</trkpt>
<trkpt lat="47.691254" lon="11.124102">
<ele>645.025</ele>
<time>2022-05-27T12:29:23Z</time>
</trkpt>
<trkpt lat="47.691151" lon="11.124157">
<ele>644.658</ele>
<time>2022-05-27T12:29:24Z</time>
</trkpt>
<trkpt lat="47.691101" lon="11.124185">
<ele>644.524</ele>
<time>2022-05-27T12:29:25Z</time>
</trkpt>
<trkpt lat="47.691059" lon="11.124218">
<ele>644.419</ele>
<time>2022-05-27T12:29:26Z</time>
</trkpt>
<trkpt lat="47.69101" lon="11.124255">
<ele>644.343</ele>
<time>2022-05-27T12:29:27Z</time>
</trkpt>
<trkpt lat="47.690968" lon="11.124296">
<ele>644.293</ele>
<time>2022-05-27T12:29:28Z</time>
</trkpt>
<trkpt lat="47.690926" lon="11.124347">
<ele>644.27</ele>
<time>2022-05-27T12:29:29Z</time>
</trkpt>
<trkpt lat="47.690891" lon="11.124402">
<ele>644.269</ele>
<time>2022-05-27T12:29:30Z</time>
</trkpt>
<trkpt lat="47.690861" lon="11.124461">
<ele>644.269</ele>
<time>2022-05-27T12:29:31Z</time>
</trkpt>
<trkpt lat="47.690834" lon="11.124528">
<ele>644.269</ele>
<time>2022-05-27T12:29:32Z</time>
</trkpt>
<trkpt lat="47.690811" lon="11.124597">
<ele>644.27</ele>
<time>2022-05-27T12:29:33Z</time>
</trkpt>
<trkpt lat="47.690792" lon="11.124672">
<ele>644.27</ele>
<time>2022-05-27T12:29:34Z</time>
</trkpt>
<trkpt lat="47.690773" lon="11.124748">
<ele>644.27</ele>
<time>2022-05-27T12:29:35Z</time>
</trkpt>
<trkpt lat="47.690754" lon="11.124828">
<ele>644.27</ele>
<time>2022-05-27T12:29:37Z</time>
</trkpt>
<trkpt lat="47.690712" lon="11.124995">
<ele>644.269</ele>
<time>2022-05-27T12:29:39Z</time>
</trkpt>
<trkpt lat="47.690655" lon="11.125153">
<ele>644.269</ele>
<time>2022-05-27T12:29:40Z</time>
</trkpt>
<trkpt lat="47.690617" lon="11.125223">
<ele>644.269</ele>
<time>2022-05-27T12:29:42Z</time>
</trkpt>
<trkpt lat="47.690525" lon="11.125352">
<ele>644.269</ele>
<time>2022-05-27T12:29:44Z</time>
</trkpt>
<trkpt lat="47.690437" lon="11.125479">
<ele>644.269</ele>
<time>2022-05-27T12:29:46Z</time>
</trkpt>
<trkpt lat="47.690361" lon="11.125625">
<ele>644.27</ele>
<time>2022-05-27T12:29:48Z</time>
</trkpt>
<trkpt lat="47.690292" lon="11.125788">
<ele>644.27</ele>
<time>2022-05-27T12:29:49Z</time>
</trkpt>
<trkpt lat="47.690254" lon="11.12587">
<ele>644.27</ele>
<time>2022-05-27T12:29:50Z</time>
</trkpt>
<trkpt lat="47.69022" lon="11.125949">
<ele>644.269</ele>
<time>2022-05-27T12:29:51Z</time>
</trkpt>
<trkpt lat="47.690178" lon="11.126024">
<ele>644.27</ele>
<time>2022-05-27T12:29:52Z</time>
</trkpt>
<trkpt lat="47.690136" lon="11.126097">
<ele>644.27</ele>
<time>2022-05-27T12:29:53Z</time>
</trkpt>
<trkpt lat="47.690094" lon="11.126164">
<ele>644.27</ele>
<time>2022-05-27T12:29:54Z</time>
</trkpt>
<trkpt lat="47.690052" lon="11.126229">
<ele>644.27</ele>
<time>2022-05-27T12:29:55Z</time>
</trkpt>
<trkpt lat="47.689999" lon="11.126284">
<ele>644.27</ele>
<time>2022-05-27T12:29:56Z</time>
</trkpt>
<trkpt lat="47.689945" lon="11.126322">
<ele>644.269</ele>
<time>2022-05-27T12:29:58Z</time>
</trkpt>
<trkpt lat="47.689831" lon="11.126373">
<ele>644.27</ele>
<time>2022-05-27T12:29:59Z</time>
</trkpt>
<trkpt lat="47.689774" lon="11.126391">
<ele>644.27</ele>
<time>2022-05-27T12:30:00Z</time>
</trkpt>
<trkpt lat="47.68972" lon="11.126407">
<ele>644.269</ele>
<time>2022-05-27T12:30:01Z</time>
</trkpt>
<trkpt lat="47.689663" lon="11.12642">
<ele>644.27</ele>
<time>2022-05-27T12:30:02Z</time>
</trkpt>
<trkpt lat="47.689606" lon="11.126435">
<ele>644.27</ele>
<time>2022-05-27T12:30:03Z</time>
</trkpt>
<trkpt lat="47.689556" lon="11.126455">
<ele>644.012</ele>
<time>2022-05-27T12:30:05Z</time>
</trkpt>
<trkpt lat="47.689503" lon="11.126476">
<ele>643.808</ele>
<time>2022-05-27T12:30:06Z</time>
</trkpt>
<trkpt lat="47.689404" lon="11.126543">
<ele>643.54</ele>
<time>2022-05-27T12:30:07Z</time>
</trkpt>
<trkpt lat="47.689362" lon="11.126579">
<ele>643.461</ele>
<time>2022-05-27T12:30:08Z</time>
</trkpt>
<trkpt lat="47.689316" lon="11.126621">
<ele>643.412</ele>
<time>2022-05-27T12:30:09Z</time>
</trkpt>
<trkpt lat="47.689274" lon="11.126658">
<ele>643.392</ele>
<time>2022-05-27T12:30:10Z</time>
</trkpt>
<trkpt lat="47.689228" lon="11.126688">
<ele>643.389</ele>
<time>2022-05-27T12:30:11Z</time>
</trkpt>
<trkpt lat="47.689178" lon="11.12671">
<ele>643.389</ele>
<time>2022-05-27T12:30:12Z</time>
</trkpt>
<trkpt lat="47.689129" lon="11.126726">
<ele>643.389</ele>
<time>2022-05-27T12:30:13Z</time>
</trkpt>
<trkpt lat="47.689079" lon="11.126743">
<ele>643.389</ele>
<time>2022-05-27T12:30:14Z</time>
</trkpt>
<trkpt lat="47.689034" lon="11.126757">
<ele>643.389</ele>
<time>2022-05-27T12:30:15Z</time>
</trkpt>
<trkpt lat="47.688984" lon="11.126768">
<ele>643.389</ele>
<time>2022-05-27T12:30:16Z</time>
</trkpt>
<trkpt lat="47.688942" lon="11.126786">
<ele>643.389</ele>
<time>2022-05-27T12:30:17Z</time>
</trkpt>
<trkpt lat="47.688896" lon="11.12681">
<ele>643.389</ele>
<time>2022-05-27T12:30:18Z</time>
</trkpt>
<trkpt lat="47.68885" lon="11.126842">
<ele>643.389</ele>
<time>2022-05-27T12:30:19Z</time>
</trkpt>
<trkpt lat="47.688812" lon="11.126875">
<ele>643.389</ele>
<time>2022-05-27T12:30:20Z</time>
</trkpt>
<trkpt lat="47.688774" lon="11.126904">
<ele>643.389</ele>
<time>2022-05-27T12:30:21Z</time>
</trkpt>
<trkpt lat="47.688732" lon="11.126928">
<ele>643.389</ele>
<time>2022-05-27T12:30:23Z</time>
</trkpt>
<trkpt lat="47.688644" lon="11.12695">
<ele>643.646</ele>
<time>2022-05-27T12:30:24Z</time>
</trkpt>
<trkpt lat="47.688602" lon="11.126948">
<ele>643.848</ele>
<time>2022-05-27T12:30:25Z</time>
</trkpt>
<trkpt lat="47.688557" lon="11.126944">
<ele>643.999</ele>
<time>2022-05-27T12:30:26Z</time>
</trkpt>
<trkpt lat="47.688515" lon="11.126933">
<ele>644.114</ele>
<time>2022-05-27T12:30:27Z</time>
</trkpt>
<trkpt lat="47.688477" lon="11.126917">
<ele>644.194</ele>
<time>2022-05-27T12:30:28Z</time>
</trkpt>
<trkpt lat="47.688435" lon="11.126893">
<ele>644.243</ele>
<time>2022-05-27T12:30:29Z</time>
</trkpt>
<trkpt lat="47.6884" lon="11.126866">
<ele>644.265</ele>
<time>2022-05-27T12:30:30Z</time>
</trkpt>
<trkpt lat="47.688362" lon="11.126835">
<ele>644.27</ele>
<time>2022-05-27T12:30:31Z</time>
</trkpt>
<trkpt lat="47.688328" lon="11.126797">
<ele>644.269</ele>
<time>2022-05-27T12:30:32Z</time>
</trkpt>
<trkpt lat="47.68829" lon="11.126757">
<ele>644.27</ele>
<time>2022-05-27T12:30:33Z</time>
</trkpt>
<trkpt lat="47.688251" lon="11.126716">
<ele>644.27</ele>
<time>2022-05-27T12:30:35Z</time>
</trkpt>
<trkpt lat="47.688168" lon="11.126627">
<ele>644.269</ele>
<time>2022-05-27T12:30:36Z</time>
</trkpt>
<trkpt lat="47.688129" lon="11.126588">
<ele>644.27</ele>
<time>2022-05-27T12:30:37Z</time>
</trkpt>
<trkpt lat="47.688087" lon="11.126548">
<ele>644.27</ele>
<time>2022-05-27T12:30:38Z</time>
</trkpt>
<trkpt lat="47.688046" lon="11.126513">
<ele>644.27</ele>
<time>2022-05-27T12:30:39Z</time>
</trkpt>
<trkpt lat="47.688004" lon="11.126478">
<ele>644.27</ele>
<time>2022-05-27T12:30:41Z</time>
</trkpt>
<trkpt lat="47.687954" lon="11.126449">
<ele>644.27</ele>
<time>2022-05-27T12:30:42Z</time>
</trkpt>
<trkpt lat="47.687859" lon="11.126405">
<ele>644.269</ele>
<time>2022-05-27T12:30:43Z</time>
</trkpt>
<trkpt lat="47.687805" lon="11.126391">
<ele>644.269</ele>
<time>2022-05-27T12:30:44Z</time>
</trkpt>
<trkpt lat="47.687752" lon="11.126385">
<ele>644.269</ele>
<time>2022-05-27T12:30:45Z</time>
</trkpt>
<trkpt lat="47.687698" lon="11.126383">
<ele>644.27</ele>
<time>2022-05-27T12:30:46Z</time>
</trkpt>
<trkpt lat="47.687641" lon="11.126385">
<ele>644.27</ele>
<time>2022-05-27T12:30:47Z</time>
</trkpt>
<trkpt lat="47.687584" lon="11.126387">
<ele>644.27</ele>
<time>2022-05-27T12:30:48Z</time>
</trkpt>
<trkpt lat="47.687531" lon="11.126389">
<ele>644.27</ele>
<time>2022-05-27T12:30:50Z</time>
</trkpt>
<trkpt lat="47.687477" lon="11.12639">
<ele>644.025</ele>
<time>2022-05-27T12:30:51Z</time>
</trkpt>
<trkpt lat="47.68737" lon="11.12641">
<ele>643.701</ele>
<time>2022-05-27T12:30:52Z</time>
</trkpt>
<trkpt lat="47.687317" lon="11.126432">
<ele>643.562</ele>
<time>2022-05-27T12:30:53Z</time>
</trkpt>
<trkpt lat="47.687267" lon="11.126455">
<ele>643.455</ele>
<time>2022-05-27T12:30:54Z</time>
</trkpt>
<trkpt lat="47.687222" lon="11.126476">
<ele>643.377</ele>
<time>2022-05-27T12:30:55Z</time>
</trkpt>
<trkpt lat="47.687172" lon="11.126498">
<ele>643.325</ele>
<time>2022-05-27T12:30:56Z</time>
</trkpt>
<trkpt lat="47.687122" lon="11.126518">
<ele>643.301</ele>
<time>2022-05-27T12:30:57Z</time>
</trkpt>
<trkpt lat="47.68708" lon="11.126535">
<ele>643.301</ele>
<time>2022-05-27T12:30:59Z</time>
</trkpt>
<trkpt lat="47.686989" lon="11.126552">
<ele>643.301</ele>
<time>2022-05-27T12:31:00Z</time>
</trkpt>
<trkpt lat="47.686943" lon="11.126548">
<ele>643.301</ele>
<time>2022-05-27T12:31:01Z</time>
</trkpt>
<trkpt lat="47.686897" lon="11.126537">
<ele>643.301</ele>
<time>2022-05-27T12:31:02Z</time>
</trkpt>
<trkpt lat="47.686855" lon="11.126518">
<ele>643.301</ele>
<time>2022-05-27T12:31:04Z</time>
</trkpt>
<trkpt lat="47.686771" lon="11.126458">
<ele>643.301</ele>
<time>2022-05-27T12:31:05Z</time>
</trkpt>
<trkpt lat="47.686729" lon="11.126429">
<ele>643.301</ele>
<time>2022-05-27T12:31:06Z</time>
</trkpt>
<trkpt lat="47.686684" lon="11.126397">
<ele>643.301</ele>
<time>2022-05-27T12:31:07Z</time>
</trkpt>
<trkpt lat="47.686638" lon="11.126367">
<ele>643.301</ele>
<time>2022-05-27T12:31:08Z</time>
</trkpt>
<trkpt lat="47.686592" lon="11.126336">
<ele>643.301</ele>
<time>2022-05-27T12:31:09Z</time>
</trkpt>
<trkpt lat="47.686539" lon="11.126308">
<ele>643.301</ele>
<time>2022-05-27T12:31:11Z</time>
</trkpt>
<trkpt lat="47.686493" lon="11.12628">
<ele>643.301</ele>
<time>2022-05-27T12:31:12Z</time>
</trkpt>
<trkpt lat="47.686405" lon="11.126213">
<ele>643.301</ele>
<time>2022-05-27T12:31:13Z</time>
</trkpt>
<trkpt lat="47.686371" lon="11.126171">
<ele>643.301</ele>
<time>2022-05-27T12:31:14Z</time>
</trkpt>
<trkpt lat="47.686352" lon="11.126126">
<ele>643.301</ele>
<time>2022-05-27T12:31:15Z</time>
</trkpt>
<trkpt lat="47.686344" lon="11.126081">
<ele>643.301</ele>
<time>2022-05-27T12:31:17Z</time>
</trkpt>
<trkpt lat="47.686352" lon="11.126003">
<ele>643.546</ele>
<time>2022-05-27T12:31:18Z</time>
</trkpt>
<trkpt lat="47.686359" lon="11.125959">
<ele>643.747</ele>
<time>2022-05-27T12:31:20Z</time>
</trkpt>
<trkpt lat="47.686356" lon="11.125874">
<ele>644.046</ele>
<time>2022-05-27T12:31:21Z</time>
</trkpt>
<trkpt lat="47.686344" lon="11.125821">
<ele>643.988</ele>
<time>2022-05-27T12:31:22Z</time>
</trkpt>
<trkpt lat="47.686321" lon="11.125772">
<ele>643.912</ele>
<time>2022-05-27T12:31:23Z</time>
</trkpt>
<trkpt lat="47.686291" lon="11.125725">
<ele>643.822</ele>
<time>2022-05-27T12:31:24Z</time>
</trkpt>
<trkpt lat="47.68626" lon="11.125678">
<ele>643.731</ele>
<time>2022-05-27T12:31:26Z</time>
</trkpt>
<trkpt lat="47.686207" lon="11.125569">
<ele>643.585</ele>
<time>2022-05-27T12:31:27Z</time>
</trkpt>
<trkpt lat="47.686188" lon="11.125511">
<ele>643.527</ele>
<time>2022-05-27T12:31:28Z</time>
</trkpt>
<trkpt lat="47.686169" lon="11.125446">
<ele>643.492</ele>
<time>2022-05-27T12:31:29Z</time>
</trkpt>
<trkpt lat="47.68615" lon="11.125377">
<ele>643.477</ele>
<time>2022-05-27T12:31:31Z</time>
</trkpt>
<trkpt lat="47.686131" lon="11.125237">
<ele>643.477</ele>
<time>2022-05-27T12:31:33Z</time>
</trkpt>
<trkpt lat="47.686104" lon="11.125092">
<ele>643.477</ele>
<time>2022-05-27T12:31:34Z</time>
</trkpt>
<trkpt lat="47.686089" lon="11.125018">
<ele>643.477</ele>
<time>2022-05-27T12:31:35Z</time>
</trkpt>
<trkpt lat="47.686077" lon="11.124945">
<ele>643.477</ele>
<time>2022-05-27T12:31:36Z</time>
</trkpt>
<trkpt lat="47.686062" lon="11.124871">
<ele>643.477</ele>
<time>2022-05-27T12:31:37Z</time>
</trkpt>
<trkpt lat="47.686047" lon="11.124795">
<ele>643.477</ele>
<time>2022-05-27T12:31:38Z</time>
</trkpt>
<trkpt lat="47.686031" lon="11.124717">
<ele>643.477</ele>
<time>2022-05-27T12:31:39Z</time>
</trkpt>
<trkpt lat="47.686012" lon="11.124637">
<ele>643.477</ele>
<time>2022-05-27T12:31:40Z</time>
</trkpt>
<trkpt lat="47.686005" lon="11.124559">
<ele>643.477</ele>
<time>2022-05-27T12:31:41Z</time>
</trkpt>
<trkpt lat="47.685989" lon="11.124487">
<ele>643.259</ele>
<time>2022-05-27T12:31:42Z</time>
</trkpt>
<trkpt lat="47.685982" lon="11.124413">
<ele>643.056</ele>
<time>2022-05-27T12:31:43Z</time>
</trkpt>
<trkpt lat="47.68597" lon="11.124347">
<ele>642.891</ele>
<time>2022-05-27T12:31:45Z</time>
</trkpt>
<trkpt lat="47.685944" lon="11.124222">
<ele>642.661</ele>
<time>2022-05-27T12:31:46Z</time>
</trkpt>
<trkpt lat="47.685921" lon="11.12417">
<ele>642.586</ele>
<time>2022-05-27T12:31:47Z</time>
</trkpt>
<trkpt lat="47.685902" lon="11.124135">
<ele>642.535</ele>
<time>2022-05-27T12:31:48Z</time>
</trkpt>
<trkpt lat="47.685883" lon="11.124108">
<ele>642.509</ele>
<time>2022-05-27T12:31:49Z</time>
</trkpt>
<trkpt lat="47.685848" lon="11.12409">
<ele>642.509</ele>
<time>2022-05-27T12:31:51Z</time>
</trkpt>
<trkpt lat="47.685787" lon="11.124043">
<ele>642.509</ele>
<time>2022-05-27T12:31:52Z</time>
</trkpt>
<trkpt lat="47.685768" lon="11.124019">
<ele>642.509</ele>
<time>2022-05-27T12:31:53Z</time>
</trkpt>
<trkpt lat="47.685749" lon="11.123992">
<ele>642.509</ele>
<time>2022-05-27T12:31:54Z</time>
</trkpt>
<trkpt lat="47.685722" lon="11.123962">
<ele>642.509</ele>
<time>2022-05-27T12:31:55Z</time>
</trkpt>
<trkpt lat="47.685699" lon="11.123929">
<ele>642.509</ele>
<time>2022-05-27T12:31:57Z</time>
</trkpt>
<trkpt lat="47.685673" lon="11.123892">
<ele>642.509</ele>
<time>2022-05-27T12:31:58Z</time>
</trkpt>
<trkpt lat="47.685616" lon="11.123818">
<ele>642.509</ele>
<time>2022-05-27T12:32:00Z</time>
</trkpt>
<trkpt lat="47.685551" lon="11.123757">
<ele>642.509</ele>
<time>2022-05-27T12:32:02Z</time>
</trkpt>
<trkpt lat="47.68552" lon="11.123725">
<ele>642.509</ele>
<time>2022-05-27T12:32:03Z</time>
</trkpt>
<trkpt lat="47.685463" lon="11.123651">
<ele>642.509</ele>
<time>2022-05-27T12:32:05Z</time>
</trkpt>
<trkpt lat="47.685436" lon="11.123615">
<ele>642.509</ele>
<time>2022-05-27T12:32:06Z</time>
</trkpt>
<trkpt lat="47.685417" lon="11.123577">
<ele>642.509</ele>
<time>2022-05-27T12:32:07Z</time>
</trkpt>
<trkpt lat="47.685394" lon="11.123537">
<ele>642.509</ele>
<time>2022-05-27T12:32:08Z</time>
</trkpt>
<trkpt lat="47.68536" lon="11.123453">
<ele>642.509</ele>
<time>2022-05-27T12:32:09Z</time>
</trkpt>
<trkpt lat="47.685337" lon="11.123409">
<ele>642.509</ele>
<time>2022-05-27T12:32:10Z</time>
</trkpt>
<trkpt lat="47.685314" lon="11.123374">
<ele>642.509</ele>
<time>2022-05-27T12:32:11Z</time>
</trkpt>
<trkpt lat="47.685287" lon="11.123343">
<ele>642.509</ele>
<time>2022-05-27T12:32:12Z</time>
</trkpt>
<trkpt lat="47.685265" lon="11.123319">
<ele>642.509</ele>
<time>2022-05-27T12:32:13Z</time>
</trkpt>
<trkpt lat="47.685234" lon="11.123292">
<ele>642.509</ele>
<time>2022-05-27T12:32:14Z</time>
</trkpt>
<trkpt lat="47.685211" lon="11.123265">
<ele>642.509</ele>
<time>2022-05-27T12:32:15Z</time>
</trkpt>
<trkpt lat="47.685184" lon="11.123238">
<ele>642.509</ele>
<time>2022-05-27T12:32:17Z</time>
</trkpt>
<trkpt lat="47.685131" lon="11.123183">
<ele>642.509</ele>
<time>2022-05-27T12:32:18Z</time>
</trkpt>
<trkpt lat="47.685101" lon="11.123157">
<ele>642.509</ele>
<time>2022-05-27T12:32:19Z</time>
</trkpt>
<trkpt lat="47.68507" lon="11.123131">
<ele>642.509</ele>
<time>2022-05-27T12:32:20Z</time>
</trkpt>
<trkpt lat="47.68504" lon="11.123107">
<ele>642.509</ele>
<time>2022-05-27T12:32:22Z</time>
</trkpt>
<trkpt lat="47.685005" lon="11.123085">
<ele>642.509</ele>
<time>2022-05-27T12:32:23Z</time>
</trkpt>
<trkpt lat="47.68494" lon="11.123043">
<ele>642.509</ele>
<time>2022-05-27T12:32:24Z</time>
</trkpt>
<trkpt lat="47.684906" lon="11.123024">
<ele>642.509</ele>
<time>2022-05-27T12:32:25Z</time>
</trkpt>
<trkpt lat="47.684872" lon="11.123007">
<ele>642.509</ele>
<time>2022-05-27T12:32:26Z</time>
</trkpt>
<trkpt lat="47.684837" lon="11.122989">
<ele>642.509</ele>
<time>2022-05-27T12:32:27Z</time>
</trkpt>
<trkpt lat="47.684799" lon="11.12297">
<ele>642.509</ele>
<time>2022-05-27T12:32:28Z</time>
</trkpt>
<trkpt lat="47.684761" lon="11.122957">
<ele>642.509</ele>
<time>2022-05-27T12:32:29Z</time>
</trkpt>
<trkpt lat="47.684723" lon="11.122949">
<ele>642.509</ele>
<time>2022-05-27T12:32:31Z</time>
</trkpt>
<trkpt lat="47.684681" lon="11.122945">
<ele>642.509</ele>
<time>2022-05-27T12:32:32Z</time>
</trkpt>
<trkpt lat="47.684643" lon="11.122949">
<ele>642.509</ele>
<time>2022-05-27T12:32:33Z</time>
</trkpt>
<trkpt lat="47.68457" lon="11.122978">
<ele>642.509</ele>
<time>2022-05-27T12:32:34Z</time>
</trkpt>
<trkpt lat="47.684536" lon="11.122993">
<ele>642.509</ele>
<time>2022-05-27T12:32:35Z</time>
</trkpt>
<trkpt lat="47.684502" lon="11.123012">
<ele>642.509</ele>
<time>2022-05-27T12:32:37Z</time>
</trkpt>
<trkpt lat="47.684418" lon="11.123066">
<ele>642.769</ele>
<time>2022-05-27T12:32:39Z</time>
</trkpt>
<trkpt lat="47.684376" lon="11.123092">
<ele>642.975</ele>
<time>2022-05-27T12:32:40Z</time>
</trkpt>
<trkpt lat="47.684326" lon="11.123105">
<ele>643.098</ele>
<time>2022-05-27T12:32:41Z</time>
</trkpt>
<trkpt lat="47.68428" lon="11.123105">
<ele>643.468</ele>
<time>2022-05-27T12:32:42Z</time>
</trkpt>
<trkpt lat="47.684193" lon="11.123058">
<ele>644.507</ele>
<time>2022-05-27T12:32:43Z</time>
</trkpt>
<trkpt lat="47.684158" lon="11.123015">
<ele>644.854</ele>
<time>2022-05-27T12:32:44Z</time>
</trkpt>
<trkpt lat="47.684128" lon="11.122973">
<ele>645.098</ele>
<time>2022-05-27T12:32:45Z</time>
</trkpt>
<trkpt lat="47.684109" lon="11.122922">
<ele>645.274</ele>
<time>2022-05-27T12:32:46Z</time>
</trkpt>
<trkpt lat="47.68409" lon="11.12287">
<ele>645.389</ele>
<time>2022-05-27T12:32:47Z</time>
</trkpt>
<trkpt lat="47.684063" lon="11.122818">
<ele>645.721</ele>
<time>2022-05-27T12:32:48Z</time>
</trkpt>
<trkpt lat="47.684032" lon="11.122766">
<ele>645.96</ele>
<time>2022-05-27T12:32:49Z</time>
</trkpt>
<trkpt lat="47.68401" lon="11.12272">
<ele>646.157</ele>
<time>2022-05-27T12:32:50Z</time>
</trkpt>
<trkpt lat="47.683983" lon="11.122677">
<ele>646.292</ele>
<time>2022-05-27T12:32:52Z</time>
</trkpt>
<trkpt lat="47.683937" lon="11.122615">
<ele>646.72</ele>
<time>2022-05-27T12:32:53Z</time>
</trkpt>
<trkpt lat="47.683914" lon="11.122599">
<ele>646.98</ele>
<time>2022-05-27T12:32:54Z</time>
</trkpt>
<trkpt lat="47.683895" lon="11.122593">
<ele>647.176</ele>
<time>2022-05-27T12:32:55Z</time>
</trkpt>
<trkpt lat="47.683868" lon="11.122592">
<ele>647.312</ele>
<time>2022-05-27T12:32:56Z</time>
</trkpt>
<trkpt lat="47.683849" lon="11.122597">
<ele>647.408</ele>
<time>2022-05-27T12:32:58Z</time>
</trkpt>
<trkpt lat="47.68383" lon="11.122605">
<ele>647.711</ele>
<time>2022-05-27T12:32:59Z</time>
</trkpt>
<trkpt lat="47.683792" lon="11.122613">
<ele>648.172</ele>
<time>2022-05-27T12:33:00Z</time>
</trkpt>
<trkpt lat="47.683773" lon="11.122617">
<ele>648.314</ele>
<time>2022-05-27T12:33:01Z</time>
</trkpt>
<trkpt lat="47.683754" lon="11.122625">
<ele>648.406</ele>
<time>2022-05-27T12:33:02Z</time>
</trkpt>
<trkpt lat="47.683731" lon="11.122635">
<ele>648.73</ele>
<time>2022-05-27T12:33:03Z</time>
</trkpt>
<trkpt lat="47.683708" lon="11.122648">
<ele>648.988</ele>
<time>2022-05-27T12:33:04Z</time>
</trkpt>
<trkpt lat="47.683685" lon="11.122662">
<ele>649.193</ele>
<time>2022-05-27T12:33:05Z</time>
</trkpt>
<trkpt lat="47.683662" lon="11.122668">
<ele>649.322</ele>
<time>2022-05-27T12:33:06Z</time>
</trkpt>
<trkpt lat="47.683632" lon="11.122679">
<ele>649.398</ele>
<time>2022-05-27T12:33:07Z</time>
</trkpt>
<trkpt lat="47.683601" lon="11.122691">
<ele>649.75</ele>
<time>2022-05-27T12:33:08Z</time>
</trkpt>
<trkpt lat="47.683571" lon="11.122702">
<ele>650.005</ele>
<time>2022-05-27T12:33:10Z</time>
</trkpt>
<trkpt lat="47.68354" lon="11.122712">
<ele>650.178</ele>
<time>2022-05-27T12:33:11Z</time>
</trkpt>
<trkpt lat="47.683475" lon="11.122728">
<ele>650.371</ele>
<time>2022-05-27T12:33:12Z</time>
</trkpt>
<trkpt lat="47.683445" lon="11.122732">
<ele>650.449</ele>
<time>2022-05-27T12:33:13Z</time>
</trkpt>
<trkpt lat="47.683414" lon="11.122732">
<ele>650.497</ele>
<time>2022-05-27T12:33:14Z</time>
</trkpt>
<trkpt lat="47.683392" lon="11.122732">
<ele>650.754</ele>
<time>2022-05-27T12:33:15Z</time>
</trkpt>
<trkpt lat="47.683365" lon="11.122732">
<ele>651.012</ele>
<time>2022-05-27T12:33:16Z</time>
</trkpt>
<trkpt lat="47.683338" lon="11.122739">
<ele>651.176</ele>
<time>2022-05-27T12:33:17Z</time>
</trkpt>
<trkpt lat="47.683308" lon="11.122749">
<ele>651.291</ele>
<time>2022-05-27T12:33:18Z</time>
</trkpt>
<trkpt lat="47.683277" lon="11.12276">
<ele>651.378</ele>
<time>2022-05-27T12:33:19Z</time>
</trkpt>
<trkpt lat="47.68325" lon="11.122773">
<ele>651.431</ele>
<time>2022-05-27T12:33:21Z</time>
</trkpt>
<trkpt lat="47.683189" lon="11.122804">
<ele>651.489</ele>
<time>2022-05-27T12:33:22Z</time>
</trkpt>
<trkpt lat="47.683159" lon="11.122815">
<ele>651.489</ele>
<time>2022-05-27T12:33:23Z</time>
</trkpt>
<trkpt lat="47.683128" lon="11.122831">
<ele>651.489</ele>
<time>2022-05-27T12:33:24Z</time>
</trkpt>
<trkpt lat="47.683094" lon="11.122852">
<ele>651.489</ele>
<time>2022-05-27T12:33:25Z</time>
</trkpt>
<trkpt lat="47.683067" lon="11.122878">
<ele>651.489</ele>
<time>2022-05-27T12:33:26Z</time>
</trkpt>
<trkpt lat="47.683041" lon="11.1229">
<ele>651.489</ele>
<time>2022-05-27T12:33:27Z</time>
</trkpt>
<trkpt lat="47.683014" lon="11.122931">
<ele>651.489</ele>
<time>2022-05-27T12:33:29Z</time>
</trkpt>
<trkpt lat="47.682968" lon="11.122991">
<ele>651.489</ele>
<time>2022-05-27T12:33:30Z</time>
</trkpt>
<trkpt lat="47.682949" lon="11.123018">
<ele>651.489</ele>
<time>2022-05-27T12:33:31Z</time>
</trkpt>
<trkpt lat="47.682926" lon="11.123055">
<ele>651.489</ele>
<time>2022-05-27T12:33:32Z</time>
</trkpt>
<trkpt lat="47.682907" lon="11.123087">
<ele>651.489</ele>
<time>2022-05-27T12:33:33Z</time>
</trkpt>
<trkpt lat="47.682888" lon="11.123118">
<ele>651.489</ele>
<time>2022-05-27T12:33:34Z</time>
</trkpt>
<trkpt lat="47.682869" lon="11.12316">
<ele>651.489</ele>
<time>2022-05-27T12:33:36Z</time>
</trkpt>
<trkpt lat="47.682838" lon="11.12325">
<ele>651.489</ele>
<time>2022-05-27T12:33:37Z</time>
</trkpt>
<trkpt lat="47.682819" lon="11.123305">
<ele>651.489</ele>
<time>2022-05-27T12:33:38Z</time>
</trkpt>
<trkpt lat="47.682804" lon="11.123359">
<ele>651.489</ele>
<time>2022-05-27T12:33:39Z</time>
</trkpt>
<trkpt lat="47.682785" lon="11.123409">
<ele>651.489</ele>
<time>2022-05-27T12:33:40Z</time>
</trkpt>
<trkpt lat="47.682762" lon="11.123464">
<ele>651.489</ele>
<time>2022-05-27T12:33:41Z</time>
</trkpt>
<trkpt lat="47.682743" lon="11.12351">
<ele>651.489</ele>
<time>2022-05-27T12:33:43Z</time>
</trkpt>
<trkpt lat="47.682709" lon="11.1236">
<ele>651.489</ele>
<time>2022-05-27T12:33:44Z</time>
</trkpt>
<trkpt lat="47.68269" lon="11.123635">
<ele>651.489</ele>
<time>2022-05-27T12:33:46Z</time>
</trkpt>
<trkpt lat="47.682671" lon="11.123672">
<ele>651.489</ele>
<time>2022-05-27T12:33:47Z</time>
</trkpt>
<trkpt lat="47.68264" lon="11.123752">
<ele>651.489</ele>
<time>2022-05-27T12:33:48Z</time>
</trkpt>
<trkpt lat="47.682625" lon="11.123791">
<ele>651.489</ele>
<time>2022-05-27T12:33:50Z</time>
</trkpt>
<trkpt lat="47.682583" lon="11.123878">
<ele>651.489</ele>
<time>2022-05-27T12:33:51Z</time>
</trkpt>
<trkpt lat="47.682564" lon="11.123923">
<ele>651.489</ele>
<time>2022-05-27T12:33:52Z</time>
</trkpt>
<trkpt lat="47.682541" lon="11.123977">
<ele>651.489</ele>
<time>2022-05-27T12:33:53Z</time>
</trkpt>
<trkpt lat="47.682518" lon="11.124025">
<ele>651.489</ele>
<time>2022-05-27T12:33:55Z</time>
</trkpt>
<trkpt lat="47.682476" lon="11.124111">
<ele>651.489</ele>
<time>2022-05-27T12:33:57Z</time>
</trkpt>
<trkpt lat="47.682446" lon="11.124224">
<ele>651.489</ele>
<time>2022-05-27T12:33:59Z</time>
</trkpt>
<trkpt lat="47.682434" lon="11.12427">
<ele>651.489</ele>
<time>2022-05-27T12:34:00Z</time>
</trkpt>
<trkpt lat="47.682419" lon="11.12435">
<ele>651.489</ele>
<time>2022-05-27T12:34:01Z</time>
</trkpt>
<trkpt lat="47.682411" lon="11.124384">
<ele>651.489</ele>
<time>2022-05-27T12:34:03Z</time>
</trkpt>
<trkpt lat="47.682396" lon="11.124465">
<ele>651.489</ele>
<time>2022-05-27T12:34:04Z</time>
</trkpt>
<trkpt lat="47.682392" lon="11.124501">
<ele>651.489</ele>
<time>2022-05-27T12:34:05Z</time>
</trkpt>
<trkpt lat="47.682392" lon="11.124533">
<ele>651.489</ele>
<time>2022-05-27T12:34:07Z</time>
</trkpt>
<trkpt lat="47.682388" lon="11.124605">
<ele>651.489</ele>
<time>2022-05-27T12:34:08Z</time>
</trkpt>
<trkpt lat="47.682377" lon="11.124641">
<ele>651.489</ele>
<time>2022-05-27T12:34:10Z</time>
</trkpt>
<trkpt lat="47.682343" lon="11.124704">
<ele>651.274</ele>
<time>2022-05-27T12:34:11Z</time>
</trkpt>
<trkpt lat="47.68232" lon="11.124733">
<ele>651.127</ele>
<time>2022-05-27T12:34:12Z</time>
</trkpt>
<trkpt lat="47.682293" lon="11.124761">
<ele>650.951</ele>
<time>2022-05-27T12:34:13Z</time>
</trkpt>
<trkpt lat="47.682266" lon="11.124782">
<ele>650.821</ele>
<time>2022-05-27T12:34:14Z</time>
</trkpt>
<trkpt lat="47.682232" lon="11.124808">
<ele>650.745</ele>
<time>2022-05-27T12:34:15Z</time>
</trkpt>
<trkpt lat="47.682194" lon="11.12483">
<ele>650.388</ele>
<time>2022-05-27T12:34:16Z</time>
</trkpt>
<trkpt lat="47.682156" lon="11.124845">
<ele>650.123</ele>
<time>2022-05-27T12:34:17Z</time>
</trkpt>
<trkpt lat="47.682129" lon="11.124862">
<ele>649.925</ele>
<time>2022-05-27T12:34:18Z</time>
</trkpt>
<trkpt lat="47.682087" lon="11.124884">
<ele>649.757</ele>
<time>2022-05-27T12:34:19Z</time>
</trkpt>
<trkpt lat="47.682037" lon="11.124915">
<ele>649.676</ele>
<time>2022-05-27T12:34:20Z</time>
</trkpt>
<trkpt lat="47.681984" lon="11.124943">
<ele>649.617</ele>
<time>2022-05-27T12:34:21Z</time>
</trkpt>
<trkpt lat="47.681934" lon="11.12498">
<ele>649.577</ele>
<time>2022-05-27T12:34:22Z</time>
</trkpt>
<trkpt lat="47.681873" lon="11.125014">
<ele>649.552</ele>
<time>2022-05-27T12:34:23Z</time>
</trkpt>
<trkpt lat="47.68182" lon="11.125058">
<ele>649.551</ele>
<time>2022-05-27T12:34:24Z</time>
</trkpt>
<trkpt lat="47.681767" lon="11.125107">
<ele>649.552</ele>
<time>2022-05-27T12:34:25Z</time>
</trkpt>
<trkpt lat="47.681709" lon="11.125149">
<ele>649.552</ele>
<time>2022-05-27T12:34:26Z</time>
</trkpt>
<trkpt lat="47.681652" lon="11.125182">
<ele>649.552</ele>
<time>2022-05-27T12:34:27Z</time>
</trkpt>
<trkpt lat="47.681602" lon="11.125201">
<ele>649.551</ele>
<time>2022-05-27T12:34:29Z</time>
</trkpt>
<trkpt lat="47.681511" lon="11.125218">
<ele>649.552</ele>
<time>2022-05-27T12:34:31Z</time>
</trkpt>
<trkpt lat="47.681419" lon="11.12523">
<ele>649.552</ele>
<time>2022-05-27T12:34:32Z</time>
</trkpt>
<trkpt lat="47.681374" lon="11.125247">
<ele>649.552</ele>
<time>2022-05-27T12:34:33Z</time>
</trkpt>
<trkpt lat="47.681324" lon="11.125266">
<ele>649.552</ele>
<time>2022-05-27T12:34:34Z</time>
</trkpt>
<trkpt lat="47.681278" lon="11.125285">
<ele>649.551</ele>
<time>2022-05-27T12:34:35Z</time>
</trkpt>
<trkpt lat="47.681232" lon="11.125297">
<ele>649.552</ele>
<time>2022-05-27T12:34:36Z</time>
</trkpt>
<trkpt lat="47.681187" lon="11.125303">
<ele>649.552</ele>
<time>2022-05-27T12:34:38Z</time>
</trkpt>
<trkpt lat="47.681103" lon="11.125314">
<ele>649.552</ele>
<time>2022-05-27T12:34:39Z</time>
</trkpt>
<trkpt lat="47.681061" lon="11.125322">
<ele>649.552</ele>
<time>2022-05-27T12:34:40Z</time>
</trkpt>
<trkpt lat="47.681026" lon="11.125332">
<ele>649.552</ele>
<time>2022-05-27T12:34:42Z</time>
</trkpt>
<trkpt lat="47.680958" lon="11.125361">
<ele>649.552</ele>
<time>2022-05-27T12:34:44Z</time>
</trkpt>
<trkpt lat="47.680927" lon="11.125383">
<ele>649.552</ele>
<time>2022-05-27T12:34:45Z</time>
</trkpt>
<trkpt lat="47.680901" lon="11.125403">
<ele>649.552</ele>
<time>2022-05-27T12:34:46Z</time>
</trkpt>
<trkpt lat="47.680855" lon="11.125446">
<ele>649.552</ele>
<time>2022-05-27T12:34:47Z</time>
</trkpt>
<trkpt lat="47.680832" lon="11.125471">
<ele>649.551</ele>
<time>2022-05-27T12:34:48Z</time>
</trkpt>
<trkpt lat="47.680813" lon="11.125503">
<ele>649.552</ele>
<time>2022-05-27T12:34:50Z</time>
</trkpt>
<trkpt lat="47.680767" lon="11.125573">
<ele>649.552</ele>
<time>2022-05-27T12:34:51Z</time>
</trkpt>
<trkpt lat="47.68074" lon="11.125603">
<ele>649.333</ele>
<time>2022-05-27T12:34:52Z</time>
</trkpt>
<trkpt lat="47.680714" lon="11.12563">
<ele>649.118</ele>
<time>2022-05-27T12:34:54Z</time>
</trkpt>
<trkpt lat="47.68066" lon="11.125674">
<ele>648.818</ele>
<time>2022-05-27T12:34:55Z</time>
</trkpt>
<trkpt lat="47.680626" lon="11.125691">
<ele>648.719</ele>
<time>2022-05-27T12:34:57Z</time>
</trkpt>
<trkpt lat="47.680565" lon="11.125723">
<ele>648.604</ele>
<time>2022-05-27T12:34:59Z</time>
</trkpt>
<trkpt lat="47.680534" lon="11.125733">
<ele>648.583</ele>
<time>2022-05-27T12:35:00Z</time>
</trkpt>
<trkpt lat="47.680454" lon="11.125762">
<ele>648.583</ele>
<time>2022-05-27T12:35:01Z</time>
</trkpt>
<trkpt lat="47.680405" lon="11.125778">
<ele>648.378</ele>
<time>2022-05-27T12:35:02Z</time>
</trkpt>
<trkpt lat="47.680363" lon="11.1258">
<ele>648.178</ele>
<time>2022-05-27T12:35:03Z</time>
</trkpt>
<trkpt lat="47.680325" lon="11.125818">
<ele>648.023</ele>
<time>2022-05-27T12:35:04Z</time>
</trkpt>
<trkpt lat="47.680286" lon="11.125829">
<ele>647.902</ele>
<time>2022-05-27T12:35:05Z</time>
</trkpt>
<trkpt lat="47.680252" lon="11.125844">
<ele>647.815</ele>
<time>2022-05-27T12:35:06Z</time>
</trkpt>
<trkpt lat="47.68021" lon="11.125852">
<ele>647.753</ele>
<time>2022-05-27T12:35:07Z</time>
</trkpt>
<trkpt lat="47.68018" lon="11.125861">
<ele>647.721</ele>
<time>2022-05-27T12:35:08Z</time>
</trkpt>
<trkpt lat="47.680149" lon="11.12587">
<ele>647.465</ele>
<time>2022-05-27T12:35:10Z</time>
</trkpt>
<trkpt lat="47.680119" lon="11.125886">
<ele>647.243</ele>
<time>2022-05-27T12:35:11Z</time>
</trkpt>
<trkpt lat="47.680065" lon="11.125903">
<ele>646.955</ele>
<time>2022-05-27T12:35:12Z</time>
</trkpt>
<trkpt lat="47.680035" lon="11.125907">
<ele>646.831</ele>
<time>2022-05-27T12:35:14Z</time>
</trkpt>
<trkpt lat="47.679951" lon="11.125895">
<ele>646.418</ele>
<time>2022-05-27T12:35:15Z</time>
</trkpt>
<trkpt lat="47.679897" lon="11.125878">
<ele>646.143</ele>
<time>2022-05-27T12:35:16Z</time>
</trkpt>
<trkpt lat="47.67984" lon="11.125852">
<ele>645.889</ele>
<time>2022-05-27T12:35:17Z</time>
</trkpt>
<trkpt lat="47.679783" lon="11.125829">
<ele>645.76</ele>
<time>2022-05-27T12:35:18Z</time>
</trkpt>
<trkpt lat="47.679722" lon="11.1258">
<ele>645.673</ele>
<time>2022-05-27T12:35:20Z</time>
</trkpt>
<trkpt lat="47.679661" lon="11.125781">
<ele>645.628</ele>
<time>2022-05-27T12:35:21Z</time>
</trkpt>
<trkpt lat="47.679539" lon="11.125748">
<ele>645.589</ele>
<time>2022-05-27T12:35:22Z</time>
</trkpt>
<trkpt lat="47.679485" lon="11.125729">
<ele>645.589</ele>
<time>2022-05-27T12:35:23Z</time>
</trkpt>
<trkpt lat="47.679432" lon="11.125707">
<ele>645.589</ele>
<time>2022-05-27T12:35:24Z</time>
</trkpt>
<trkpt lat="47.679382" lon="11.125689">
<ele>645.59</ele>
<time>2022-05-27T12:35:25Z</time>
</trkpt>
<trkpt lat="47.679329" lon="11.125672">
<ele>645.59</ele>
<time>2022-05-27T12:35:26Z</time>
</trkpt>
<trkpt lat="47.679283" lon="11.125657">
<ele>645.819</ele>
<time>2022-05-27T12:35:27Z</time>
</trkpt>
<trkpt lat="47.679237" lon="11.12564">
<ele>646.001</ele>
<time>2022-05-27T12:35:28Z</time>
</trkpt>
<trkpt lat="47.679195" lon="11.125627">
<ele>646.142</ele>
<time>2022-05-27T12:35:29Z</time>
</trkpt>
<trkpt lat="47.679153" lon="11.125622">
<ele>646.253</ele>
<time>2022-05-27T12:35:30Z</time>
</trkpt>
<trkpt lat="47.679111" lon="11.125637">
<ele>646.33</ele>
<time>2022-05-27T12:35:32Z</time>
</trkpt>
<trkpt lat="47.679035" lon="11.125698">
<ele>646.444</ele>
<time>2022-05-27T12:35:33Z</time>
</trkpt>
<trkpt lat="47.679005" lon="11.125737">
<ele>646.47</ele>
<time>2022-05-27T12:35:35Z</time>
</trkpt>
<trkpt lat="47.678967" lon="11.12578">
<ele>646.47</ele>
<time>2022-05-27T12:35:36Z</time>
</trkpt>
<trkpt lat="47.678902" lon="11.125872">
<ele>646.47</ele>
<time>2022-05-27T12:35:38Z</time>
</trkpt>
<trkpt lat="47.678841" lon="11.12597">
<ele>646.47</ele>
<time>2022-05-27T12:35:40Z</time>
</trkpt>
<trkpt lat="47.678776" lon="11.12607">
<ele>646.47</ele>
<time>2022-05-27T12:35:42Z</time>
</trkpt>
<trkpt lat="47.678719" lon="11.126182">
<ele>646.47</ele>
<time>2022-05-27T12:35:43Z</time>
</trkpt>
<trkpt lat="47.678692" lon="11.12624">
<ele>646.47</ele>
<time>2022-05-27T12:35:45Z</time>
</trkpt>
<trkpt lat="47.678665" lon="11.126303">
<ele>646.47</ele>
<time>2022-05-27T12:35:46Z</time>
</trkpt>
<trkpt lat="47.678612" lon="11.126424">
<ele>646.47</ele>
<time>2022-05-27T12:35:48Z</time>
</trkpt>
<trkpt lat="47.678593" lon="11.126481">
<ele>646.47</ele>
<time>2022-05-27T12:35:49Z</time>
</trkpt>
<trkpt lat="47.678551" lon="11.126587">
<ele>646.47</ele>
<time>2022-05-27T12:35:50Z</time>
</trkpt>
<trkpt lat="47.678532" lon="11.126634">
<ele>646.47</ele>
<time>2022-05-27T12:35:51Z</time>
</trkpt>
<trkpt lat="47.678516" lon="11.126677">
<ele>646.675</ele>
<time>2022-05-27T12:35:53Z</time>
</trkpt>
<trkpt lat="47.678482" lon="11.126757">
<ele>647.028</ele>
<time>2022-05-27T12:35:54Z</time>
</trkpt>
<trkpt lat="47.678467" lon="11.126793">
<ele>647.163</ele>
<time>2022-05-27T12:35:55Z</time>
</trkpt>
<trkpt lat="47.678455" lon="11.126822">
<ele>647.272</ele>
<time>2022-05-27T12:35:57Z</time>
</trkpt>
<trkpt lat="47.678429" lon="11.126868">
<ele>647.411</ele>
<time>2022-05-27T12:35:58Z</time>
</trkpt>
<trkpt lat="47.678417" lon="11.126884">
<ele>647.438</ele>
<time>2022-05-27T12:36:00Z</time>
</trkpt>
<trkpt lat="47.678413" lon="11.126895">
<ele>647.438</ele>
<time>2022-05-27T12:36:01Z</time>
</trkpt>
<trkpt lat="47.67841" lon="11.1269">
<ele>647.438</ele>
<time>2022-05-27T12:36:02Z</time>
</trkpt>
<trkpt lat="47.678402" lon="11.126902">
<ele>647.439</ele>
<time>2022-05-27T12:36:04Z</time>
</trkpt>
<trkpt lat="47.678391" lon="11.126917">
<ele>647.438</ele>
<time>2022-05-27T12:36:27Z</time>
</trkpt>
<trkpt lat="47.678391" lon="11.126919">
<ele>647.438</ele>
<time>2022-05-27T12:36:28Z</time>
</trkpt>
<trkpt lat="47.678391" lon="11.126922">
<ele>647.438</ele>
<time>2022-05-27T12:36:29Z</time>
</trkpt>
<trkpt lat="47.67841" lon="11.126928">
<ele>647.438</ele>
<time>2022-05-27T12:38:19Z</time>
</trkpt>
<trkpt lat="47.678406" lon="11.126955">
<ele>647.438</ele>
<time>2022-05-27T12:38:20Z</time>
</trkpt>
<trkpt lat="47.678387" lon="11.127022">
<ele>647.438</ele>
<time>2022-05-27T12:38:21Z</time>
</trkpt>
<trkpt lat="47.678371" lon="11.127057">
<ele>647.438</ele>
<time>2022-05-27T12:38:22Z</time>
</trkpt>
<trkpt lat="47.678356" lon="11.127095">
<ele>647.438</ele>
<time>2022-05-27T12:38:24Z</time>
</trkpt>
<trkpt lat="47.678337" lon="11.127164">
<ele>647.438</ele>
<time>2022-05-27T12:38:25Z</time>
</trkpt>
<trkpt lat="47.678326" lon="11.127198">
<ele>647.438</ele>
<time>2022-05-27T12:38:27Z</time>
</trkpt>
<trkpt lat="47.67831" lon="11.127269">
<ele>647.438</ele>
<time>2022-05-27T12:38:29Z</time>
</trkpt>
<trkpt lat="47.678291" lon="11.127336">
<ele>647.438</ele>
<time>2022-05-27T12:38:30Z</time>
</trkpt>
<trkpt lat="47.678288" lon="11.127374">
<ele>647.439</ele>
<time>2022-05-27T12:38:32Z</time>
</trkpt>
<trkpt lat="47.678276" lon="11.127412">
<ele>647.438</ele>
<time>2022-05-27T12:38:33Z</time>
</trkpt>
<trkpt lat="47.678268" lon="11.127455">
<ele>647.439</ele>
<time>2022-05-27T12:38:34Z</time>
</trkpt>
<trkpt lat="47.678257" lon="11.127557">
<ele>647.438</ele>
<time>2022-05-27T12:38:36Z</time>
</trkpt>
<trkpt lat="47.678253" lon="11.12761">
<ele>647.438</ele>
<time>2022-05-27T12:38:37Z</time>
</trkpt>
<trkpt lat="47.678253" lon="11.127705">
<ele>647.438</ele>
<time>2022-05-27T12:38:38Z</time>
</trkpt>
<trkpt lat="47.678249" lon="11.127752">
<ele>647.438</ele>
<time>2022-05-27T12:38:40Z</time>
</trkpt>
<trkpt lat="47.678249" lon="11.127796">
<ele>647.438</ele>
<time>2022-05-27T12:38:41Z</time>
</trkpt>
<trkpt lat="47.678249" lon="11.127887">
<ele>647.438</ele>
<time>2022-05-27T12:38:42Z</time>
</trkpt>
<trkpt lat="47.678246" lon="11.127938">
<ele>647.438</ele>
<time>2022-05-27T12:38:43Z</time>
</trkpt>
<trkpt lat="47.678246" lon="11.127992">
<ele>647.438</ele>
<time>2022-05-27T12:38:44Z</time>
</trkpt>
<trkpt lat="47.67823" lon="11.128045">
<ele>647.728</ele>
<time>2022-05-27T12:38:46Z</time>
</trkpt>
<trkpt lat="47.678223" lon="11.128098">
<ele>647.953</ele>
<time>2022-05-27T12:38:47Z</time>
</trkpt>
<trkpt lat="47.678204" lon="11.128201">
<ele>648.239</ele>
<time>2022-05-27T12:38:49Z</time>
</trkpt>
<trkpt lat="47.678207" lon="11.128302">
<ele>648.361</ele>
<time>2022-05-27T12:38:50Z</time>
</trkpt>
<trkpt lat="47.678207" lon="11.128355">
<ele>648.385</ele>
<time>2022-05-27T12:38:51Z</time>
</trkpt>
<trkpt lat="47.678204" lon="11.128407">
<ele>648.407</ele>
<time>2022-05-27T12:38:53Z</time>
</trkpt>
<trkpt lat="47.6782" lon="11.128462">
<ele>648.407</ele>
<time>2022-05-27T12:38:54Z</time>
</trkpt>
<trkpt lat="47.678204" lon="11.12852">
<ele>648.407</ele>
<time>2022-05-27T12:38:55Z</time>
</trkpt>
<trkpt lat="47.678192" lon="11.128649">
<ele>648.407</ele>
<time>2022-05-27T12:38:56Z</time>
</trkpt>
<trkpt lat="47.678185" lon="11.12871">
<ele>648.407</ele>
<time>2022-05-27T12:38:57Z</time>
</trkpt>
<trkpt lat="47.678169" lon="11.128771">
<ele>648.407</ele>
<time>2022-05-27T12:38:58Z</time>
</trkpt>
<trkpt lat="47.678162" lon="11.128832">
<ele>648.407</ele>
<time>2022-05-27T12:38:59Z</time>
</trkpt>
<trkpt lat="47.678158" lon="11.128892">
<ele>648.407</ele>
<time>2022-05-27T12:39:00Z</time>
</trkpt>
<trkpt lat="47.678158" lon="11.128953">
<ele>648.407</ele>
<time>2022-05-27T12:39:01Z</time>
</trkpt>
<trkpt lat="47.678158" lon="11.129016">
<ele>648.407</ele>
<time>2022-05-27T12:39:03Z</time>
</trkpt>
<trkpt lat="47.678158" lon="11.12914">
<ele>648.407</ele>
<time>2022-05-27T12:39:04Z</time>
</trkpt>
<trkpt lat="47.678162" lon="11.129195">
<ele>648.407</ele>
<time>2022-05-27T12:39:06Z</time>
</trkpt>
<trkpt lat="47.678154" lon="11.129307">
<ele>648.407</ele>
<time>2022-05-27T12:39:07Z</time>
</trkpt>
<trkpt lat="47.678158" lon="11.129361">
<ele>648.407</ele>
<time>2022-05-27T12:39:08Z</time>
</trkpt>
<trkpt lat="47.678158" lon="11.129418">
<ele>648.407</ele>
<time>2022-05-27T12:39:09Z</time>
</trkpt>
<trkpt lat="47.678158" lon="11.129473">
<ele>648.407</ele>
<time>2022-05-27T12:39:10Z</time>
</trkpt>
<trkpt lat="47.678162" lon="11.129534">
<ele>648.407</ele>
<time>2022-05-27T12:39:11Z</time>
</trkpt>
<trkpt lat="47.678165" lon="11.129597">
<ele>648.407</ele>
<time>2022-05-27T12:39:12Z</time>
</trkpt>
<trkpt lat="47.678165" lon="11.129665">
<ele>648.407</ele>
<time>2022-05-27T12:39:13Z</time>
</trkpt>
<trkpt lat="47.678162" lon="11.129737">
<ele>648.407</ele>
<time>2022-05-27T12:39:14Z</time>
</trkpt>
<trkpt lat="47.678165" lon="11.129808">
<ele>648.407</ele>
<time>2022-05-27T12:39:16Z</time>
</trkpt>
<trkpt lat="47.678173" lon="11.12996">
<ele>648.128</ele>
<time>2022-05-27T12:39:18Z</time>
</trkpt>
<trkpt lat="47.678165" lon="11.130033">
<ele>647.918</ele>
<time>2022-05-27T12:39:19Z</time>
</trkpt>
<trkpt lat="47.67815" lon="11.130178">
<ele>647.656</ele>
<time>2022-05-27T12:39:20Z</time>
</trkpt>
<trkpt lat="47.678139" lon="11.13025">
<ele>647.575</ele>
<time>2022-05-27T12:39:22Z</time>
</trkpt>
<trkpt lat="47.678127" lon="11.13032">
<ele>647.517</ele>
<time>2022-05-27T12:39:23Z</time>
</trkpt>
<trkpt lat="47.678123" lon="11.13039">
<ele>647.464</ele>
<time>2022-05-27T12:39:24Z</time>
</trkpt>
<trkpt lat="47.678123" lon="11.130462">
<ele>647.438</ele>
<time>2022-05-27T12:39:25Z</time>
</trkpt>
<trkpt lat="47.67812" lon="11.130605">
<ele>647.438</ele>
<time>2022-05-27T12:39:27Z</time>
</trkpt>
<trkpt lat="47.678116" lon="11.130678">
<ele>647.438</ele>
<time>2022-05-27T12:39:28Z</time>
</trkpt>
<trkpt lat="47.678101" lon="11.13082">
<ele>647.438</ele>
<time>2022-05-27T12:39:29Z</time>
</trkpt>
<trkpt lat="47.678101" lon="11.130892">
<ele>647.438</ele>
<time>2022-05-27T12:39:30Z</time>
</trkpt>
<trkpt lat="47.678101" lon="11.130962">
<ele>647.438</ele>
<time>2022-05-27T12:39:31Z</time>
</trkpt>
<trkpt lat="47.678097" lon="11.131032">
<ele>647.438</ele>
<time>2022-05-27T12:39:32Z</time>
</trkpt>
<trkpt lat="47.678093" lon="11.131103">
<ele>647.438</ele>
<time>2022-05-27T12:39:33Z</time>
</trkpt>
<trkpt lat="47.678093" lon="11.131173">
<ele>647.438</ele>
<time>2022-05-27T12:39:35Z</time>
</trkpt>
<trkpt lat="47.678089" lon="11.131313">
<ele>647.438</ele>
<time>2022-05-27T12:39:37Z</time>
</trkpt>
<trkpt lat="47.678085" lon="11.131458">
<ele>647.438</ele>
<time>2022-05-27T12:39:38Z</time>
</trkpt>
<trkpt lat="47.678078" lon="11.13153">
<ele>647.438</ele>
<time>2022-05-27T12:39:39Z</time>
</trkpt>
<trkpt lat="47.67807" lon="11.131599">
<ele>647.438</ele>
<time>2022-05-27T12:39:41Z</time>
</trkpt>
<trkpt lat="47.678059" lon="11.131737">
<ele>647.438</ele>
<time>2022-05-27T12:39:43Z</time>
</trkpt>
<trkpt lat="47.678059" lon="11.131868">
<ele>647.438</ele>
<time>2022-05-27T12:39:44Z</time>
</trkpt>
<trkpt lat="47.678059" lon="11.131932">
<ele>647.438</ele>
<time>2022-05-27T12:39:46Z</time>
</trkpt>
<trkpt lat="47.678062" lon="11.132056">
<ele>647.438</ele>
<time>2022-05-27T12:39:47Z</time>
</trkpt>
<trkpt lat="47.678074" lon="11.132127">
<ele>647.438</ele>
<time>2022-05-27T12:39:48Z</time>
</trkpt>
<trkpt lat="47.678082" lon="11.132196">
<ele>647.438</ele>
<time>2022-05-27T12:39:50Z</time>
</trkpt>
<trkpt lat="47.678082" lon="11.132258">
<ele>647.438</ele>
<time>2022-05-27T12:39:51Z</time>
</trkpt>
<trkpt lat="47.678093" lon="11.132361">
<ele>647.438</ele>
<time>2022-05-27T12:39:53Z</time>
</trkpt>
<trkpt lat="47.67812" lon="11.132447">
<ele>647.438</ele>
<time>2022-05-27T12:39:54Z</time>
</trkpt>
<trkpt lat="47.678123" lon="11.132482">
<ele>647.438</ele>
<time>2022-05-27T12:39:56Z</time>
</trkpt>
<trkpt lat="47.678135" lon="11.13254">
<ele>647.438</ele>
<time>2022-05-27T12:39:57Z</time>
</trkpt>
<trkpt lat="47.678143" lon="11.132577">
<ele>647.438</ele>
<time>2022-05-27T12:39:58Z</time>
</trkpt>
<trkpt lat="47.678158" lon="11.132613">
<ele>647.438</ele>
<time>2022-05-27T12:40:00Z</time>
</trkpt>
<trkpt lat="47.678169" lon="11.132648">
<ele>647.438</ele>
<time>2022-05-27T12:40:01Z</time>
</trkpt>
<trkpt lat="47.678177" lon="11.132676">
<ele>647.438</ele>
<time>2022-05-27T12:40:02Z</time>
</trkpt>
<trkpt lat="47.678192" lon="11.132737">
<ele>647.438</ele>
<time>2022-05-27T12:40:03Z</time>
</trkpt>
<trkpt lat="47.678207" lon="11.132756">
<ele>647.438</ele>
<time>2022-05-27T12:40:04Z</time>
</trkpt>
<trkpt lat="47.678211" lon="11.13278">
<ele>647.438</ele>
<time>2022-05-27T12:40:05Z</time>
</trkpt>
<trkpt lat="47.678215" lon="11.132816">
<ele>647.438</ele>
<time>2022-05-27T12:40:06Z</time>
</trkpt>
<trkpt lat="47.678223" lon="11.132869">
<ele>647.438</ele>
<time>2022-05-27T12:40:08Z</time>
</trkpt>
<trkpt lat="47.67823" lon="11.132919">
<ele>647.439</ele>
<time>2022-05-27T12:40:09Z</time>
</trkpt>
<trkpt lat="47.678253" lon="11.133016">
<ele>647.438</ele>
<time>2022-05-27T12:40:10Z</time>
</trkpt>
<trkpt lat="47.678268" lon="11.13311">
<ele>647.137</ele>
<time>2022-05-27T12:40:11Z</time>
</trkpt>
<trkpt lat="47.678272" lon="11.133191">
<ele>646.974</ele>
<time>2022-05-27T12:40:12Z</time>
</trkpt>
<trkpt lat="47.678276" lon="11.133257">
<ele>646.795</ele>
<time>2022-05-27T12:40:14Z</time>
</trkpt>
<trkpt lat="47.678284" lon="11.133319">
<ele>646.684</ele>
<time>2022-05-27T12:40:15Z</time>
</trkpt>
<trkpt lat="47.678288" lon="11.133365">
<ele>646.599</ele>
<time>2022-05-27T12:40:16Z</time>
</trkpt>
<trkpt lat="47.678303" lon="11.13344">
<ele>646.488</ele>
<time>2022-05-27T12:40:17Z</time>
</trkpt>
<trkpt lat="47.678314" lon="11.133466">
<ele>646.47</ele>
<time>2022-05-27T12:40:18Z</time>
</trkpt>
<trkpt lat="47.678326" lon="11.133489">
<ele>646.47</ele>
<time>2022-05-27T12:40:19Z</time>
</trkpt>
<trkpt lat="47.678345" lon="11.133516">
<ele>646.47</ele>
<time>2022-05-27T12:40:20Z</time>
</trkpt>
<trkpt lat="47.678352" lon="11.133565">
<ele>646.47</ele>
<time>2022-05-27T12:40:21Z</time>
</trkpt>
<trkpt lat="47.678352" lon="11.13363">
<ele>646.47</ele>
<time>2022-05-27T12:40:23Z</time>
</trkpt>
<trkpt lat="47.678326" lon="11.133779">
<ele>646.153</ele>
<time>2022-05-27T12:40:24Z</time>
</trkpt>
<trkpt lat="47.67831" lon="11.13385">
<ele>645.921</ele>
<time>2022-05-27T12:40:25Z</time>
</trkpt>
<trkpt lat="47.678307" lon="11.133905">
<ele>645.775</ele>
<time>2022-05-27T12:40:26Z</time>
</trkpt>
<trkpt lat="47.67831" lon="11.13396">
<ele>645.688</ele>
<time>2022-05-27T12:40:28Z</time>
</trkpt>
<trkpt lat="47.678291" lon="11.13409">
<ele>645.611</ele>
<time>2022-05-27T12:40:29Z</time>
</trkpt>
<trkpt lat="47.67828" lon="11.134165">
<ele>645.593</ele>
<time>2022-05-27T12:40:31Z</time>
</trkpt>
<trkpt lat="47.678268" lon="11.134236">
<ele>645.589</ele>
<time>2022-05-27T12:40:32Z</time>
</trkpt>
<trkpt lat="47.678242" lon="11.134388">
<ele>645.589</ele>
<time>2022-05-27T12:40:33Z</time>
</trkpt>
<trkpt lat="47.678234" lon="11.134468">
<ele>645.589</ele>
<time>2022-05-27T12:40:34Z</time>
</trkpt>
<trkpt lat="47.678223" lon="11.134558">
<ele>645.589</ele>
<time>2022-05-27T12:40:35Z</time>
</trkpt>
<trkpt lat="47.678223" lon="11.134633">
<ele>645.589</ele>
<time>2022-05-27T12:40:36Z</time>
</trkpt>
<trkpt lat="47.678207" lon="11.134715">
<ele>645.589</ele>
<time>2022-05-27T12:40:37Z</time>
</trkpt>
<trkpt lat="47.678192" lon="11.134796">
<ele>645.589</ele>
<time>2022-05-27T12:40:38Z</time>
</trkpt>
<trkpt lat="47.678185" lon="11.134873">
<ele>645.589</ele>
<time>2022-05-27T12:40:39Z</time>
</trkpt>
<trkpt lat="47.678181" lon="11.134945">
<ele>645.329</ele>
<time>2022-05-27T12:40:41Z</time>
</trkpt>
<trkpt lat="47.678158" lon="11.135094">
<ele>644.98</ele>
<time>2022-05-27T12:40:42Z</time>
</trkpt>
<trkpt lat="47.678154" lon="11.135167">
<ele>644.829</ele>
<time>2022-05-27T12:40:43Z</time>
</trkpt>
<trkpt lat="47.67815" lon="11.135241">
<ele>644.703</ele>
<time>2022-05-27T12:40:45Z</time>
</trkpt>
<trkpt lat="47.678139" lon="11.135391">
<ele>644.562</ele>
<time>2022-05-27T12:40:47Z</time>
</trkpt>
<trkpt lat="47.678131" lon="11.13554">
<ele>644.533</ele>
<time>2022-05-27T12:40:48Z</time>
</trkpt>
<trkpt lat="47.678123" lon="11.135613">
<ele>644.533</ele>
<time>2022-05-27T12:40:50Z</time>
</trkpt>
<trkpt lat="47.678108" lon="11.13576">
<ele>644.533</ele>
<time>2022-05-27T12:40:51Z</time>
</trkpt>
<trkpt lat="47.678101" lon="11.135832">
<ele>644.533</ele>
<time>2022-05-27T12:40:52Z</time>
</trkpt>
<trkpt lat="47.678093" lon="11.135903">
<ele>644.279</ele>
<time>2022-05-27T12:40:53Z</time>
</trkpt>
<trkpt lat="47.678089" lon="11.135978">
<ele>644.063</ele>
<time>2022-05-27T12:40:54Z</time>
</trkpt>
<trkpt lat="47.678089" lon="11.136053">
<ele>643.885</ele>
<time>2022-05-27T12:40:55Z</time>
</trkpt>
<trkpt lat="47.678085" lon="11.136123">
<ele>643.743</ele>
<time>2022-05-27T12:40:57Z</time>
</trkpt>
<trkpt lat="47.678066" lon="11.13626">
<ele>643.554</ele>
<time>2022-05-27T12:40:58Z</time>
</trkpt>
<trkpt lat="47.678059" lon="11.136328">
<ele>643.502</ele>
<time>2022-05-27T12:40:59Z</time>
</trkpt>
<trkpt lat="47.678055" lon="11.136393">
<ele>643.477</ele>
<time>2022-05-27T12:41:01Z</time>
</trkpt>
<trkpt lat="47.678036" lon="11.136525">
<ele>643.477</ele>
<time>2022-05-27T12:41:02Z</time>
</trkpt>
<trkpt lat="47.678028" lon="11.136587">
<ele>643.477</ele>
<time>2022-05-27T12:41:03Z</time>
</trkpt>
<trkpt lat="47.678024" lon="11.136655">
<ele>643.477</ele>
<time>2022-05-27T12:41:05Z</time>
</trkpt>
<trkpt lat="47.67802" lon="11.136726">
<ele>643.477</ele>
<time>2022-05-27T12:41:06Z</time>
</trkpt>
<trkpt lat="47.677994" lon="11.136885">
<ele>643.18</ele>
<time>2022-05-27T12:41:07Z</time>
</trkpt>
<trkpt lat="47.677982" lon="11.136963">
<ele>642.948</ele>
<time>2022-05-27T12:41:08Z</time>
</trkpt>
<trkpt lat="47.677975" lon="11.137042">
<ele>642.776</ele>
<time>2022-05-27T12:41:09Z</time>
</trkpt>
<trkpt lat="47.677959" lon="11.13712">
<ele>642.651</ele>
<time>2022-05-27T12:41:10Z</time>
</trkpt>
<trkpt lat="47.677944" lon="11.137198">
<ele>642.559</ele>
<time>2022-05-27T12:41:12Z</time>
</trkpt>
<trkpt lat="47.677933" lon="11.137352">
<ele>642.447</ele>
<time>2022-05-27T12:41:13Z</time>
</trkpt>
<trkpt lat="47.677929" lon="11.137428">
<ele>642.421</ele>
<time>2022-05-27T12:41:14Z</time>
</trkpt>
<trkpt lat="47.677914" lon="11.137502">
<ele>642.421</ele>
<time>2022-05-27T12:41:15Z</time>
</trkpt>
<trkpt lat="47.677906" lon="11.137575">
<ele>642.421</ele>
<time>2022-05-27T12:41:17Z</time>
</trkpt>
<trkpt lat="47.677898" lon="11.137648">
<ele>642.421</ele>
<time>2022-05-27T12:41:18Z</time>
</trkpt>
<trkpt lat="47.677864" lon="11.137788">
<ele>642.421</ele>
<time>2022-05-27T12:41:19Z</time>
</trkpt>
<trkpt lat="47.677849" lon="11.137859">
<ele>642.421</ele>
<time>2022-05-27T12:41:20Z</time>
</trkpt>
<trkpt lat="47.677845" lon="11.137933">
<ele>642.421</ele>
<time>2022-05-27T12:41:21Z</time>
</trkpt>
<trkpt lat="47.677841" lon="11.138006">
<ele>642.421</ele>
<time>2022-05-27T12:41:22Z</time>
</trkpt>
<trkpt lat="47.677834" lon="11.138077">
<ele>642.421</ele>
<time>2022-05-27T12:41:23Z</time>
</trkpt>
<trkpt lat="47.67783" lon="11.13815">
<ele>642.421</ele>
<time>2022-05-27T12:41:24Z</time>
</trkpt>
<trkpt lat="47.677822" lon="11.138226">
<ele>642.421</ele>
<time>2022-05-27T12:41:25Z</time>
</trkpt>
<trkpt lat="47.677811" lon="11.138299">
<ele>642.421</ele>
<time>2022-05-27T12:41:27Z</time>
</trkpt>
<trkpt lat="47.677803" lon="11.138444">
<ele>642.421</ele>
<time>2022-05-27T12:41:29Z</time>
</trkpt>
<trkpt lat="47.677799" lon="11.138577">
<ele>642.421</ele>
<time>2022-05-27T12:41:31Z</time>
</trkpt>
<trkpt lat="47.677795" lon="11.1387">
<ele>642.421</ele>
<time>2022-05-27T12:41:32Z</time>
</trkpt>
<trkpt lat="47.677784" lon="11.138764">
<ele>642.421</ele>
<time>2022-05-27T12:41:33Z</time>
</trkpt>
<trkpt lat="47.677784" lon="11.138829">
<ele>642.421</ele>
<time>2022-05-27T12:41:35Z</time>
</trkpt>
<trkpt lat="47.677773" lon="11.138962">
<ele>642.421</ele>
<time>2022-05-27T12:41:36Z</time>
</trkpt>
<trkpt lat="47.677776" lon="11.13902">
<ele>642.421</ele>
<time>2022-05-27T12:41:37Z</time>
</trkpt>
<trkpt lat="47.677773" lon="11.139076">
<ele>642.421</ele>
<time>2022-05-27T12:41:39Z</time>
</trkpt>
<trkpt lat="47.677769" lon="11.139203">
<ele>642.421</ele>
<time>2022-05-27T12:41:40Z</time>
</trkpt>
<trkpt lat="47.677765" lon="11.139261">
<ele>642.421</ele>
<time>2022-05-27T12:41:42Z</time>
</trkpt>
<trkpt lat="47.677769" lon="11.13939">
<ele>642.421</ele>
<time>2022-05-27T12:41:44Z</time>
</trkpt>
<trkpt lat="47.677773" lon="11.139517">
<ele>642.421</ele>
<time>2022-05-27T12:41:46Z</time>
</trkpt>
<trkpt lat="47.677792" lon="11.139659">
<ele>642.421</ele>
<time>2022-05-27T12:41:47Z</time>
</trkpt>
<trkpt lat="47.677792" lon="11.139722">
<ele>642.421</ele>
<time>2022-05-27T12:41:49Z</time>
</trkpt>
<trkpt lat="47.677773" lon="11.139841">
<ele>642.421</ele>
<time>2022-05-27T12:41:51Z</time>
</trkpt>
<trkpt lat="47.677776" lon="11.139946">
<ele>642.421</ele>
<time>2022-05-27T12:41:52Z</time>
</trkpt>
<trkpt lat="47.677784" lon="11.13999">
<ele>642.421</ele>
<time>2022-05-27T12:41:53Z</time>
</trkpt>
<trkpt lat="47.677799" lon="11.140048">
<ele>642.421</ele>
<time>2022-05-27T12:41:55Z</time>
</trkpt>
<trkpt lat="47.677811" lon="11.140177">
<ele>642.421</ele>
<time>2022-05-27T12:41:56Z</time>
</trkpt>
<trkpt lat="47.677803" lon="11.140237">
<ele>642.421</ele>
<time>2022-05-27T12:41:57Z</time>
</trkpt>
<trkpt lat="47.677792" lon="11.1403">
<ele>642.421</ele>
<time>2022-05-27T12:41:59Z</time>
</trkpt>
<trkpt lat="47.677753" lon="11.140442">
<ele>642.421</ele>
<time>2022-05-27T12:42:00Z</time>
</trkpt>
<trkpt lat="47.677742" lon="11.140503">
<ele>642.421</ele>
<time>2022-05-27T12:42:01Z</time>
</trkpt>
<trkpt lat="47.677734" lon="11.140562">
<ele>642.421</ele>
<time>2022-05-27T12:42:02Z</time>
</trkpt>
<trkpt lat="47.677734" lon="11.140627">
<ele>642.421</ele>
<time>2022-05-27T12:42:03Z</time>
</trkpt>
<trkpt lat="47.677734" lon="11.140685">
<ele>642.421</ele>
<time>2022-05-27T12:42:05Z</time>
</trkpt>
<trkpt lat="47.67775" lon="11.140812">
<ele>642.421</ele>
<time>2022-05-27T12:42:07Z</time>
</trkpt>
<trkpt lat="47.677753" lon="11.140884">
<ele>642.421</ele>
<time>2022-05-27T12:42:08Z</time>
</trkpt>
<trkpt lat="47.677753" lon="11.140952">
<ele>642.421</ele>
<time>2022-05-27T12:42:09Z</time>
</trkpt>
<trkpt lat="47.677746" lon="11.14101">
<ele>642.421</ele>
<time>2022-05-27T12:42:10Z</time>
</trkpt>
<trkpt lat="47.677734" lon="11.141143">
<ele>642.421</ele>
<time>2022-05-27T12:42:11Z</time>
</trkpt>
<trkpt lat="47.677719" lon="11.141212">
<ele>642.421</ele>
<time>2022-05-27T12:42:13Z</time>
</trkpt>
<trkpt lat="47.677692" lon="11.141327">
<ele>642.421</ele>
<time>2022-05-27T12:42:14Z</time>
</trkpt>
<trkpt lat="47.677677" lon="11.141379">
<ele>642.421</ele>
<time>2022-05-27T12:42:15Z</time>
</trkpt>
<trkpt lat="47.677673" lon="11.141436">
<ele>642.421</ele>
<time>2022-05-27T12:42:16Z</time>
</trkpt>
<trkpt lat="47.677677" lon="11.141497">
<ele>642.421</ele>
<time>2022-05-27T12:42:17Z</time>
</trkpt>
<trkpt lat="47.677677" lon="11.14156">
<ele>642.421</ele>
<time>2022-05-27T12:42:19Z</time>
</trkpt>
<trkpt lat="47.677685" lon="11.141677">
<ele>642.421</ele>
<time>2022-05-27T12:42:20Z</time>
</trkpt>
<trkpt lat="47.677692" lon="11.141725">
<ele>642.421</ele>
<time>2022-05-27T12:42:21Z</time>
</trkpt>
<trkpt lat="47.6777" lon="11.141786">
<ele>642.421</ele>
<time>2022-05-27T12:42:22Z</time>
</trkpt>
<trkpt lat="47.677692" lon="11.14185">
<ele>642.421</ele>
<time>2022-05-27T12:42:24Z</time>
</trkpt>
<trkpt lat="47.677689" lon="11.141927">
<ele>642.421</ele>
<time>2022-05-27T12:42:25Z</time>
</trkpt>
<trkpt lat="47.677696" lon="11.141973">
<ele>642.421</ele>
<time>2022-05-27T12:42:27Z</time>
</trkpt>
<trkpt lat="47.677696" lon="11.142072">
<ele>642.874</ele>
<time>2022-05-27T12:42:28Z</time>
</trkpt>
<trkpt lat="47.677685" lon="11.142137">
<ele>643.037</ele>
<time>2022-05-27T12:42:29Z</time>
</trkpt>
<trkpt lat="47.677681" lon="11.142202">
<ele>643.153</ele>
<time>2022-05-27T12:42:30Z</time>
</trkpt>
<trkpt lat="47.677681" lon="11.142267">
<ele>643.243</ele>
<time>2022-05-27T12:42:31Z</time>
</trkpt>
<trkpt lat="47.677677" lon="11.142335">
<ele>643.319</ele>
<time>2022-05-27T12:42:32Z</time>
</trkpt>
<trkpt lat="47.677685" lon="11.142388">
<ele>643.37</ele>
<time>2022-05-27T12:42:33Z</time>
</trkpt>
<trkpt lat="47.677681" lon="11.142448">
<ele>643.389</ele>
<time>2022-05-27T12:42:35Z</time>
</trkpt>
<trkpt lat="47.67767" lon="11.142578">
<ele>643.389</ele>
<time>2022-05-27T12:42:37Z</time>
</trkpt>
<trkpt lat="47.677658" lon="11.142634">
<ele>643.389</ele>
<time>2022-05-27T12:42:38Z</time>
</trkpt>
<trkpt lat="47.677643" lon="11.142701">
<ele>643.389</ele>
<time>2022-05-27T12:42:39Z</time>
</trkpt>
<trkpt lat="47.677605" lon="11.142845">
<ele>643.389</ele>
<time>2022-05-27T12:42:41Z</time>
</trkpt>
<trkpt lat="47.677593" lon="11.142912">
<ele>643.389</ele>
<time>2022-05-27T12:42:42Z</time>
</trkpt>
<trkpt lat="47.67757" lon="11.143046">
<ele>643.389</ele>
<time>2022-05-27T12:42:43Z</time>
</trkpt>
<trkpt lat="47.67757" lon="11.143113">
<ele>643.389</ele>
<time>2022-05-27T12:42:45Z</time>
</trkpt>
<trkpt lat="47.67757" lon="11.143233">
<ele>643.389</ele>
<time>2022-05-27T12:42:46Z</time>
</trkpt>
<trkpt lat="47.677559" lon="11.143287">
<ele>643.389</ele>
<time>2022-05-27T12:42:47Z</time>
</trkpt>
<trkpt lat="47.677555" lon="11.143335">
<ele>643.389</ele>
<time>2022-05-27T12:42:48Z</time>
</trkpt>
<trkpt lat="47.677559" lon="11.14339">
<ele>643.389</ele>
<time>2022-05-27T12:42:49Z</time>
</trkpt>
<trkpt lat="47.677563" lon="11.143447">
<ele>643.389</ele>
<time>2022-05-27T12:42:50Z</time>
</trkpt>
<trkpt lat="47.677567" lon="11.143505">
<ele>643.389</ele>
<time>2022-05-27T12:42:52Z</time>
</trkpt>
<trkpt lat="47.677567" lon="11.143638">
<ele>643.389</ele>
<time>2022-05-27T12:42:54Z</time>
</trkpt>
<trkpt lat="47.677582" lon="11.14378">
<ele>643.389</ele>
<time>2022-05-27T12:42:55Z</time>
</trkpt>
<trkpt lat="47.677593" lon="11.143858">
<ele>643.066</ele>
<time>2022-05-27T12:42:57Z</time>
</trkpt>
<trkpt lat="47.677612" lon="11.144005">
<ele>642.66</ele>
<time>2022-05-27T12:42:58Z</time>
</trkpt>
<trkpt lat="47.677624" lon="11.144075">
<ele>642.542</ele>
<time>2022-05-27T12:42:59Z</time>
</trkpt>
<trkpt lat="47.677639" lon="11.144128">
<ele>642.456</ele>
<time>2022-05-27T12:43:01Z</time>
</trkpt>
<trkpt lat="47.677666" lon="11.144233">
<ele>642.359</ele>
<time>2022-05-27T12:43:02Z</time>
</trkpt>
<trkpt lat="47.677643" lon="11.144319">
<ele>642.333</ele>
<time>2022-05-27T12:43:04Z</time>
</trkpt>
<trkpt lat="47.677635" lon="11.144438">
<ele>642.333</ele>
<time>2022-05-27T12:43:06Z</time>
</trkpt>
<trkpt lat="47.67762" lon="11.144576">
<ele>642.333</ele>
<time>2022-05-27T12:43:08Z</time>
</trkpt>
<trkpt lat="47.677612" lon="11.144713">
<ele>642.333</ele>
<time>2022-05-27T12:43:09Z</time>
</trkpt>
<trkpt lat="47.677616" lon="11.144777">
<ele>642.333</ele>
<time>2022-05-27T12:43:11Z</time>
</trkpt>
<trkpt lat="47.677616" lon="11.144895">
<ele>642.333</ele>
<time>2022-05-27T12:43:12Z</time>
</trkpt>
<trkpt lat="47.677628" lon="11.144961">
<ele>642.333</ele>
<time>2022-05-27T12:43:13Z</time>
</trkpt>
<trkpt lat="47.677631" lon="11.145023">
<ele>642.333</ele>
<time>2022-05-27T12:43:14Z</time>
</trkpt>
<trkpt lat="47.677631" lon="11.145094">
<ele>642.333</ele>
<time>2022-05-27T12:43:16Z</time>
</trkpt>
<trkpt lat="47.677635" lon="11.145226">
<ele>642.333</ele>
<time>2022-05-27T12:43:18Z</time>
</trkpt>
<trkpt lat="47.677631" lon="11.145299">
<ele>642.333</ele>
<time>2022-05-27T12:43:19Z</time>
</trkpt>
<trkpt lat="47.677624" lon="11.145365">
<ele>642.333</ele>
<time>2022-05-27T12:43:20Z</time>
</trkpt>
<trkpt lat="47.677616" lon="11.145423">
<ele>642.333</ele>
<time>2022-05-27T12:43:21Z</time>
</trkpt>
<trkpt lat="47.677612" lon="11.145483">
<ele>642.333</ele>
<time>2022-05-27T12:43:22Z</time>
</trkpt>
<trkpt lat="47.67762" lon="11.14555">
<ele>642.333</ele>
<time>2022-05-27T12:43:23Z</time>
</trkpt>
<trkpt lat="47.677631" lon="11.145668">
<ele>642.333</ele>
<time>2022-05-27T12:43:25Z</time>
</trkpt>
<trkpt lat="47.677628" lon="11.145808">
<ele>642.333</ele>
<time>2022-05-27T12:43:26Z</time>
</trkpt>
<trkpt lat="47.677639" lon="11.145875">
<ele>642.333</ele>
<time>2022-05-27T12:43:28Z</time>
</trkpt>
<trkpt lat="47.67765" lon="11.146008">
<ele>642.333</ele>
<time>2022-05-27T12:43:29Z</time>
</trkpt>
<trkpt lat="47.67765" lon="11.14607">
<ele>642.553</ele>
<time>2022-05-27T12:43:31Z</time>
</trkpt>
<trkpt lat="47.67765" lon="11.146204">
<ele>642.846</ele>
<time>2022-05-27T12:43:33Z</time>
</trkpt>
<trkpt lat="47.677647" lon="11.146338">
<ele>643.071</ele>
<time>2022-05-27T12:43:35Z</time>
</trkpt>
<trkpt lat="47.677654" lon="11.146403">
<ele>643.143</ele>
<time>2022-05-27T12:43:36Z</time>
</trkpt>
<trkpt lat="47.677662" lon="11.146461">
<ele>643.191</ele>
<time>2022-05-27T12:43:37Z</time>
</trkpt>
<trkpt lat="47.677662" lon="11.146521">
<ele>643.213</ele>
<time>2022-05-27T12:43:38Z</time>
</trkpt>
<trkpt lat="47.677677" lon="11.146644">
<ele>643.213</ele>
<time>2022-05-27T12:43:39Z</time>
</trkpt>
<trkpt lat="47.677689" lon="11.14671">
<ele>643.213</ele>
<time>2022-05-27T12:43:40Z</time>
</trkpt>
<trkpt lat="47.6777" lon="11.146764">
<ele>643.213</ele>
<time>2022-05-27T12:43:41Z</time>
</trkpt>
<trkpt lat="47.677727" lon="11.146831">
<ele>643.213</ele>
<time>2022-05-27T12:43:42Z</time>
</trkpt>
<trkpt lat="47.677734" lon="11.146881">
<ele>643.213</ele>
<time>2022-05-27T12:43:44Z</time>
</trkpt>
<trkpt lat="47.677761" lon="11.146988">
<ele>643.213</ele>
<time>2022-05-27T12:43:45Z</time>
</trkpt>
<trkpt lat="47.677776" lon="11.147038">
<ele>643.213</ele>
<time>2022-05-27T12:43:47Z</time>
</trkpt>
<trkpt lat="47.677822" lon="11.147153">
<ele>643.213</ele>
<time>2022-05-27T12:43:48Z</time>
</trkpt>
<trkpt lat="47.677849" lon="11.147212">
<ele>643.213</ele>
<time>2022-05-27T12:43:50Z</time>
</trkpt>
<trkpt lat="47.677872" lon="11.147319">
<ele>643.213</ele>
<time>2022-05-27T12:43:51Z</time>
</trkpt>
<trkpt lat="47.677879" lon="11.14737">
<ele>643.213</ele>
<time>2022-05-27T12:43:53Z</time>
</trkpt>
<trkpt lat="47.677895" lon="11.14748">
<ele>643.213</ele>
<time>2022-05-27T12:43:54Z</time>
</trkpt>
<trkpt lat="47.677895" lon="11.147531">
<ele>643.213</ele>
<time>2022-05-27T12:43:55Z</time>
</trkpt>
<trkpt lat="47.677895" lon="11.147582">
<ele>643.213</ele>
<time>2022-05-27T12:43:57Z</time>
</trkpt>
<trkpt lat="47.677895" lon="11.147634">
<ele>643.213</ele>
<time>2022-05-27T12:43:58Z</time>
</trkpt>
<trkpt lat="47.677879" lon="11.147739">
<ele>643.213</ele>
<time>2022-05-27T12:43:59Z</time>
</trkpt>
<trkpt lat="47.677876" lon="11.147805">
<ele>643.213</ele>
<time>2022-05-27T12:44:01Z</time>
</trkpt>
<trkpt lat="47.677864" lon="11.147893">
<ele>643.213</ele>
<time>2022-05-27T12:44:02Z</time>
</trkpt>
<trkpt lat="47.677853" lon="11.148068">
<ele>643.214</ele>
<time>2022-05-27T12:44:03Z</time>
</trkpt>
<trkpt lat="47.677845" lon="11.148145">
<ele>642.91</ele>
<time>2022-05-27T12:44:05Z</time>
</trkpt>
<trkpt lat="47.67783" lon="11.148285">
<ele>642.559</ele>
<time>2022-05-27T12:44:06Z</time>
</trkpt>
<trkpt lat="47.677818" lon="11.148354">
<ele>642.467</ele>
<time>2022-05-27T12:44:07Z</time>
</trkpt>
<trkpt lat="47.677807" lon="11.14842">
<ele>642.402</ele>
<time>2022-05-27T12:44:08Z</time>
</trkpt>
<trkpt lat="47.677799" lon="11.148479">
<ele>642.358</ele>
<time>2022-05-27T12:44:09Z</time>
</trkpt>
<trkpt lat="47.677795" lon="11.148539">
<ele>642.337</ele>
<time>2022-05-27T12:44:10Z</time>
</trkpt>
<trkpt lat="47.677788" lon="11.148593">
<ele>642.333</ele>
<time>2022-05-27T12:44:11Z</time>
</trkpt>
<trkpt lat="47.677784" lon="11.148653">
<ele>642.333</ele>
<time>2022-05-27T12:44:12Z</time>
</trkpt>
<trkpt lat="47.677784" lon="11.148714">
<ele>642.333</ele>
<time>2022-05-27T12:44:13Z</time>
</trkpt>
<trkpt lat="47.677788" lon="11.148768">
<ele>642.333</ele>
<time>2022-05-27T12:44:14Z</time>
</trkpt>
<trkpt lat="47.677795" lon="11.148825">
<ele>642.333</ele>
<time>2022-05-27T12:44:15Z</time>
</trkpt>
<trkpt lat="47.677799" lon="11.148886">
<ele>642.333</ele>
<time>2022-05-27T12:44:17Z</time>
</trkpt>
<trkpt lat="47.677788" lon="11.149014">
<ele>642.333</ele>
<time>2022-05-27T12:44:19Z</time>
</trkpt>
<trkpt lat="47.677795" lon="11.149125">
<ele>642.333</ele>
<time>2022-05-27T12:44:21Z</time>
</trkpt>
<trkpt lat="47.677811" lon="11.149173">
<ele>642.333</ele>
<time>2022-05-27T12:44:22Z</time>
</trkpt>
<trkpt lat="47.677814" lon="11.14923">
<ele>642.333</ele>
<time>2022-05-27T12:44:23Z</time>
</trkpt>
<trkpt lat="47.677818" lon="11.149364">
<ele>642.333</ele>
<time>2022-05-27T12:44:25Z</time>
</trkpt>
<trkpt lat="47.677822" lon="11.149489">
<ele>642.333</ele>
<time>2022-05-27T12:44:26Z</time>
</trkpt>
<trkpt lat="47.677811" lon="11.149556">
<ele>642.333</ele>
<time>2022-05-27T12:44:28Z</time>
</trkpt>
<trkpt lat="47.677822" lon="11.14969">
<ele>642.333</ele>
<time>2022-05-27T12:44:30Z</time>
</trkpt>
<trkpt lat="47.677807" lon="11.149841">
<ele>642.333</ele>
<time>2022-05-27T12:44:31Z</time>
</trkpt>
<trkpt lat="47.677803" lon="11.149912">
<ele>642.333</ele>
<time>2022-05-27T12:44:32Z</time>
</trkpt>
<trkpt lat="47.677803" lon="11.149971">
<ele>642.333</ele>
<time>2022-05-27T12:44:34Z</time>
</trkpt>
<trkpt lat="47.677788" lon="11.150101">
<ele>642.333</ele>
<time>2022-05-27T12:44:35Z</time>
</trkpt>
<trkpt lat="47.677776" lon="11.150166">
<ele>642.333</ele>
<time>2022-05-27T12:44:36Z</time>
</trkpt>
<trkpt lat="47.677773" lon="11.150229">
<ele>642.333</ele>
<time>2022-05-27T12:44:38Z</time>
</trkpt>
<trkpt lat="47.677757" lon="11.150295">
<ele>642.333</ele>
<time>2022-05-27T12:44:39Z</time>
</trkpt>
<trkpt lat="47.677746" lon="11.150423">
<ele>642.333</ele>
<time>2022-05-27T12:44:40Z</time>
</trkpt>
<trkpt lat="47.677753" lon="11.150487">
<ele>642.333</ele>
<time>2022-05-27T12:44:41Z</time>
</trkpt>
<trkpt lat="47.677761" lon="11.15055">
<ele>642.333</ele>
<time>2022-05-27T12:44:43Z</time>
</trkpt>
<trkpt lat="47.677757" lon="11.150683">
<ele>642.333</ele>
<time>2022-05-27T12:44:45Z</time>
</trkpt>
<trkpt lat="47.677727" lon="11.150832">
<ele>642.333</ele>
<time>2022-05-27T12:44:46Z</time>
</trkpt>
<trkpt lat="47.677719" lon="11.150909">
<ele>642.333</ele>
<time>2022-05-27T12:44:47Z</time>
</trkpt>
<trkpt lat="47.677711" lon="11.150965">
<ele>642.333</ele>
<time>2022-05-27T12:44:48Z</time>
</trkpt>
<trkpt lat="47.677704" lon="11.151025">
<ele>642.333</ele>
<time>2022-05-27T12:44:49Z</time>
</trkpt>
<trkpt lat="47.677696" lon="11.151092">
<ele>642.333</ele>
<time>2022-05-27T12:44:50Z</time>
</trkpt>
<trkpt lat="47.677689" lon="11.151156">
<ele>642.333</ele>
<time>2022-05-27T12:44:51Z</time>
</trkpt>
<trkpt lat="47.67767" lon="11.151225">
<ele>642.333</ele>
<time>2022-05-27T12:44:53Z</time>
</trkpt>
<trkpt lat="47.677639" lon="11.15135">
<ele>642.333</ele>
<time>2022-05-27T12:44:55Z</time>
</trkpt>
<trkpt lat="47.677658" lon="11.151412">
<ele>642.333</ele>
<time>2022-05-27T12:44:56Z</time>
</trkpt>
<trkpt lat="47.677658" lon="11.151468">
<ele>642.333</ele>
<time>2022-05-27T12:44:57Z</time>
</trkpt>
<trkpt lat="47.677643" lon="11.151532">
<ele>642.333</ele>
<time>2022-05-27T12:44:58Z</time>
</trkpt>
<trkpt lat="47.677631" lon="11.151593">
<ele>642.333</ele>
<time>2022-05-27T12:44:59Z</time>
</trkpt>
<trkpt lat="47.67762" lon="11.151723">
<ele>642.333</ele>
<time>2022-05-27T12:45:00Z</time>
</trkpt>
<trkpt lat="47.677605" lon="11.151783">
<ele>642.333</ele>
<time>2022-05-27T12:45:02Z</time>
</trkpt>
<trkpt lat="47.677608" lon="11.151903">
<ele>642.333</ele>
<time>2022-05-27T12:45:03Z</time>
</trkpt>
<trkpt lat="47.677624" lon="11.151963">
<ele>642.333</ele>
<time>2022-05-27T12:45:05Z</time>
</trkpt>
<trkpt lat="47.677643" lon="11.152093">
<ele>642.333</ele>
<time>2022-05-27T12:45:06Z</time>
</trkpt>
<trkpt lat="47.677635" lon="11.152166">
<ele>642.333</ele>
<time>2022-05-27T12:45:07Z</time>
</trkpt>
<trkpt lat="47.677631" lon="11.152215">
<ele>642.333</ele>
<time>2022-05-27T12:45:08Z</time>
</trkpt>
<trkpt lat="47.677628" lon="11.152268">
<ele>642.333</ele>
<time>2022-05-27T12:45:10Z</time>
</trkpt>
<trkpt lat="47.677628" lon="11.152322">
<ele>642.333</ele>
<time>2022-05-27T12:45:11Z</time>
</trkpt>
<trkpt lat="47.677616" lon="11.152376">
<ele>642.333</ele>
<time>2022-05-27T12:45:12Z</time>
</trkpt>
<trkpt lat="47.677608" lon="11.152435">
<ele>642.333</ele>
<time>2022-05-27T12:45:13Z</time>
</trkpt>
<trkpt lat="47.677608" lon="11.152611">
<ele>642.333</ele>
<time>2022-05-27T12:45:15Z</time>
</trkpt>
<trkpt lat="47.677612" lon="11.152812">
<ele>642.841</ele>
<time>2022-05-27T12:45:16Z</time>
</trkpt>
<trkpt lat="47.677608" lon="11.152898">
<ele>642.982</ele>
<time>2022-05-27T12:45:18Z</time>
</trkpt>
<trkpt lat="47.677608" lon="11.153066">
<ele>643.14</ele>
<time>2022-05-27T12:45:19Z</time>
</trkpt>
<trkpt lat="47.677601" lon="11.153132">
<ele>643.176</ele>
<time>2022-05-27T12:45:21Z</time>
</trkpt>
<trkpt lat="47.677567" lon="11.153283">
<ele>643.213</ele>
<time>2022-05-27T12:45:22Z</time>
</trkpt>
<trkpt lat="47.677551" lon="11.15336">
<ele>643.213</ele>
<time>2022-05-27T12:45:23Z</time>
</trkpt>
<trkpt lat="47.677536" lon="11.153434">
<ele>643.213</ele>
<time>2022-05-27T12:45:25Z</time>
</trkpt>
<trkpt lat="47.677532" lon="11.153587">
<ele>643.213</ele>
<time>2022-05-27T12:45:26Z</time>
</trkpt>
<trkpt lat="47.677532" lon="11.153654">
<ele>642.972</ele>
<time>2022-05-27T12:45:27Z</time>
</trkpt>
<trkpt lat="47.677525" lon="11.153728">
<ele>642.786</ele>
<time>2022-05-27T12:45:29Z</time>
</trkpt>
<trkpt lat="47.677536" lon="11.153885">
<ele>642.54</ele>
<time>2022-05-27T12:45:30Z</time>
</trkpt>
<trkpt lat="47.677567" lon="11.153956">
<ele>642.463</ele>
<time>2022-05-27T12:45:31Z</time>
</trkpt>
<trkpt lat="47.677605" lon="11.154029">
<ele>642.405</ele>
<time>2022-05-27T12:45:32Z</time>
</trkpt>
<trkpt lat="47.677624" lon="11.154107">
<ele>642.356</ele>
<time>2022-05-27T12:45:33Z</time>
</trkpt>
<trkpt lat="47.677639" lon="11.154192">
<ele>642.333</ele>
<time>2022-05-27T12:45:34Z</time>
</trkpt>
<trkpt lat="47.677654" lon="11.154279">
<ele>642.333</ele>
<time>2022-05-27T12:45:35Z</time>
</trkpt>
<trkpt lat="47.677658" lon="11.154422">
<ele>642.333</ele>
<time>2022-05-27T12:45:38Z</time>
</trkpt>
<trkpt lat="47.677647" lon="11.154562">
<ele>642.333</ele>
<time>2022-05-27T12:45:39Z</time>
</trkpt>
<trkpt lat="47.677643" lon="11.154627">
<ele>642.333</ele>
<time>2022-05-27T12:45:40Z</time>
</trkpt>
<trkpt lat="47.677639" lon="11.154692">
<ele>642.333</ele>
<time>2022-05-27T12:45:41Z</time>
</trkpt>
<trkpt lat="47.677662" lon="11.154767">
<ele>642.333</ele>
<time>2022-05-27T12:45:43Z</time>
</trkpt>
<trkpt lat="47.6777" lon="11.154907">
<ele>642.333</ele>
<time>2022-05-27T12:45:44Z</time>
</trkpt>
<trkpt lat="47.677711" lon="11.154968">
<ele>642.333</ele>
<time>2022-05-27T12:45:45Z</time>
</trkpt>
<trkpt lat="47.677727" lon="11.155031">
<ele>642.333</ele>
<time>2022-05-27T12:45:46Z</time>
</trkpt>
<trkpt lat="47.677731" lon="11.155088">
<ele>642.333</ele>
<time>2022-05-27T12:45:48Z</time>
</trkpt>
<trkpt lat="47.677738" lon="11.155205">
<ele>642.333</ele>
<time>2022-05-27T12:45:49Z</time>
</trkpt>
<trkpt lat="47.677738" lon="11.15526">
<ele>642.333</ele>
<time>2022-05-27T12:45:51Z</time>
</trkpt>
<trkpt lat="47.677761" lon="11.155405">
<ele>642.333</ele>
<time>2022-05-27T12:45:53Z</time>
</trkpt>
<trkpt lat="47.677769" lon="11.155487">
<ele>642.555</ele>
<time>2022-05-27T12:45:54Z</time>
</trkpt>
<trkpt lat="47.677784" lon="11.155641">
<ele>642.954</ele>
<time>2022-05-27T12:45:56Z</time>
</trkpt>
<trkpt lat="47.677792" lon="11.155806">
<ele>642.83</ele>
<time>2022-05-27T12:45:57Z</time>
</trkpt>
<trkpt lat="47.677788" lon="11.155884">
<ele>642.684</ele>
<time>2022-05-27T12:45:58Z</time>
</trkpt>
<trkpt lat="47.677799" lon="11.155978">
<ele>642.565</ele>
<time>2022-05-27T12:46:00Z</time>
</trkpt>
<trkpt lat="47.677811" lon="11.156148">
<ele>642.379</ele>
<time>2022-05-27T12:46:01Z</time>
</trkpt>
<trkpt lat="47.677811" lon="11.156225">
<ele>642.318</ele>
<time>2022-05-27T12:46:03Z</time>
</trkpt>
<trkpt lat="47.677811" lon="11.156295">
<ele>642.271</ele>
<time>2022-05-27T12:46:04Z</time>
</trkpt>
<trkpt lat="47.677807" lon="11.156407">
<ele>642.245</ele>
<time>2022-05-27T12:46:05Z</time>
</trkpt>
<trkpt lat="47.677807" lon="11.15646">
<ele>642.245</ele>
<time>2022-05-27T12:46:06Z</time>
</trkpt>
<trkpt lat="47.677795" lon="11.15651">
<ele>642.245</ele>
<time>2022-05-27T12:46:08Z</time>
</trkpt>
<trkpt lat="47.677792" lon="11.156615">
<ele>642.245</ele>
<time>2022-05-27T12:46:10Z</time>
</trkpt>
<trkpt lat="47.67778" lon="11.156725">
<ele>642.245</ele>
<time>2022-05-27T12:46:11Z</time>
</trkpt>
<trkpt lat="47.677776" lon="11.156776">
<ele>642.245</ele>
<time>2022-05-27T12:46:12Z</time>
</trkpt>
<trkpt lat="47.677776" lon="11.156833">
<ele>642.245</ele>
<time>2022-05-27T12:46:14Z</time>
</trkpt>
<trkpt lat="47.67778" lon="11.156948">
<ele>642.245</ele>
<time>2022-05-27T12:46:16Z</time>
</trkpt>
<trkpt lat="47.677769" lon="11.157077">
<ele>642.245</ele>
<time>2022-05-27T12:46:17Z</time>
</trkpt>
<trkpt lat="47.677765" lon="11.157138">
<ele>642.245</ele>
<time>2022-05-27T12:46:18Z</time>
</trkpt>
<trkpt lat="47.677761" lon="11.157195">
<ele>642.245</ele>
<time>2022-05-27T12:46:20Z</time>
</trkpt>
<trkpt lat="47.677753" lon="11.157307">
<ele>642.245</ele>
<time>2022-05-27T12:46:21Z</time>
</trkpt>
<trkpt lat="47.677757" lon="11.157371">
<ele>642.245</ele>
<time>2022-05-27T12:46:22Z</time>
</trkpt>
<trkpt lat="47.677757" lon="11.157428">
<ele>642.245</ele>
<time>2022-05-27T12:46:23Z</time>
</trkpt>
<trkpt lat="47.677757" lon="11.157485">
<ele>642.245</ele>
<time>2022-05-27T12:46:24Z</time>
</trkpt>
<trkpt lat="47.677757" lon="11.157538">
<ele>642.245</ele>
<time>2022-05-27T12:46:25Z</time>
</trkpt>
<trkpt lat="47.677761" lon="11.157591">
<ele>642.245</ele>
<time>2022-05-27T12:46:27Z</time>
</trkpt>
<trkpt lat="47.677753" lon="11.157715">
<ele>642.245</ele>
<time>2022-05-27T12:46:28Z</time>
</trkpt>
<trkpt lat="47.677753" lon="11.157785">
<ele>642.245</ele>
<time>2022-05-27T12:46:30Z</time>
</trkpt>
<trkpt lat="47.677753" lon="11.157911">
<ele>642.245</ele>
<time>2022-05-27T12:46:32Z</time>
</trkpt>
<trkpt lat="47.67775" lon="11.158039">
<ele>642.245</ele>
<time>2022-05-27T12:46:33Z</time>
</trkpt>
<trkpt lat="47.67775" lon="11.158111">
<ele>642.245</ele>
<time>2022-05-27T12:46:35Z</time>
</trkpt>
<trkpt lat="47.67775" lon="11.15818">
<ele>642.245</ele>
<time>2022-05-27T12:46:36Z</time>
</trkpt>
<trkpt lat="47.677738" lon="11.15832">
<ele>642.245</ele>
<time>2022-05-27T12:46:38Z</time>
</trkpt>
<trkpt lat="47.677734" lon="11.158442">
<ele>642.245</ele>
<time>2022-05-27T12:46:39Z</time>
</trkpt>
<trkpt lat="47.677734" lon="11.15851">
<ele>642.245</ele>
<time>2022-05-27T12:46:40Z</time>
</trkpt>
<trkpt lat="47.677723" lon="11.158577">
<ele>642.245</ele>
<time>2022-05-27T12:46:42Z</time>
</trkpt>
<trkpt lat="47.677723" lon="11.158634">
<ele>642.245</ele>
<time>2022-05-27T12:46:43Z</time>
</trkpt>
<trkpt lat="47.677711" lon="11.158705">
<ele>642.245</ele>
<time>2022-05-27T12:46:44Z</time>
</trkpt>
<trkpt lat="47.677704" lon="11.158854">
<ele>642.245</ele>
<time>2022-05-27T12:46:45Z</time>
</trkpt>
<trkpt lat="47.677696" lon="11.158928">
<ele>642.245</ele>
<time>2022-05-27T12:46:47Z</time>
</trkpt>
<trkpt lat="47.677681" lon="11.159">
<ele>642.245</ele>
<time>2022-05-27T12:46:48Z</time>
</trkpt>
<trkpt lat="47.677677" lon="11.159066">
<ele>642.245</ele>
<time>2022-05-27T12:46:49Z</time>
</trkpt>
<trkpt lat="47.67767" lon="11.159204">
<ele>642.245</ele>
<time>2022-05-27T12:46:50Z</time>
</trkpt>
<trkpt lat="47.677662" lon="11.159271">
<ele>642.245</ele>
<time>2022-05-27T12:46:51Z</time>
</trkpt>
<trkpt lat="47.677654" lon="11.15934">
<ele>642.245</ele>
<time>2022-05-27T12:46:53Z</time>
</trkpt>
<trkpt lat="47.677647" lon="11.159405">
<ele>642.245</ele>
<time>2022-05-27T12:46:54Z</time>
</trkpt>
<trkpt lat="47.677635" lon="11.159474">
<ele>642.245</ele>
<time>2022-05-27T12:46:55Z</time>
</trkpt>
<trkpt lat="47.67762" lon="11.159594">
<ele>641.971</ele>
<time>2022-05-27T12:46:56Z</time>
</trkpt>
<trkpt lat="47.677608" lon="11.159655">
<ele>641.755</ele>
<time>2022-05-27T12:46:57Z</time>
</trkpt>
<trkpt lat="47.677601" lon="11.159712">
<ele>641.591</ele>
<time>2022-05-27T12:46:58Z</time>
</trkpt>
<trkpt lat="47.677593" lon="11.159763">
<ele>641.7</ele>
<time>2022-05-27T12:46:59Z</time>
</trkpt>
<trkpt lat="47.677586" lon="11.159832">
<ele>641.798</ele>
<time>2022-05-27T12:47:00Z</time>
</trkpt>
<trkpt lat="47.677574" lon="11.159898">
<ele>641.89</ele>
<time>2022-05-27T12:47:01Z</time>
</trkpt>
<trkpt lat="47.67757" lon="11.159963">
<ele>641.972</ele>
<time>2022-05-27T12:47:02Z</time>
</trkpt>
<trkpt lat="47.67757" lon="11.160031">
<ele>641.998</ele>
<time>2022-05-27T12:47:03Z</time>
</trkpt>
<trkpt lat="47.677578" lon="11.160105">
<ele>642.094</ele>
<time>2022-05-27T12:47:04Z</time>
</trkpt>
<trkpt lat="47.67757" lon="11.160182">
<ele>642.17</ele>
<time>2022-05-27T12:47:05Z</time>
</trkpt>
<trkpt lat="47.67757" lon="11.160252">
<ele>642.222</ele>
<time>2022-05-27T12:47:06Z</time>
</trkpt>
<trkpt lat="47.677574" lon="11.160327">
<ele>642.245</ele>
<time>2022-05-27T12:47:07Z</time>
</trkpt>
<trkpt lat="47.67757" lon="11.1604">
<ele>642.245</ele>
<time>2022-05-27T12:47:08Z</time>
</trkpt>
<trkpt lat="47.677563" lon="11.160468">
<ele>642.245</ele>
<time>2022-05-27T12:47:09Z</time>
</trkpt>
<trkpt lat="47.67757" lon="11.160533">
<ele>642.245</ele>
<time>2022-05-27T12:47:10Z</time>
</trkpt>
<trkpt lat="47.677567" lon="11.160598">
<ele>642.245</ele>
<time>2022-05-27T12:47:12Z</time>
</trkpt>
<trkpt lat="47.677567" lon="11.160717">
<ele>642.245</ele>
<time>2022-05-27T12:47:13Z</time>
</trkpt>
<trkpt lat="47.677567" lon="11.160765">
<ele>642.245</ele>
<time>2022-05-27T12:47:14Z</time>
</trkpt>
<trkpt lat="47.67757" lon="11.160826">
<ele>642.245</ele>
<time>2022-05-27T12:47:15Z</time>
</trkpt>
<trkpt lat="47.67757" lon="11.160893">
<ele>642.245</ele>
<time>2022-05-27T12:47:16Z</time>
</trkpt>
<trkpt lat="47.677597" lon="11.160962">
<ele>642.245</ele>
<time>2022-05-27T12:47:17Z</time>
</trkpt>
<trkpt lat="47.677612" lon="11.161032">
<ele>642.245</ele>
<time>2022-05-27T12:47:18Z</time>
</trkpt>
<trkpt lat="47.677628" lon="11.1611">
<ele>642.245</ele>
<time>2022-05-27T12:47:19Z</time>
</trkpt>
<trkpt lat="47.677639" lon="11.161169">
<ele>642.484</ele>
<time>2022-05-27T12:47:21Z</time>
</trkpt>
<trkpt lat="47.67765" lon="11.161241">
<ele>642.671</ele>
<time>2022-05-27T12:47:22Z</time>
</trkpt>
<trkpt lat="47.677692" lon="11.161379">
<ele>642.889</ele>
<time>2022-05-27T12:47:23Z</time>
</trkpt>
<trkpt lat="47.6777" lon="11.161446">
<ele>642.983</ele>
<time>2022-05-27T12:47:24Z</time>
</trkpt>
<trkpt lat="47.677727" lon="11.161515">
<ele>643.053</ele>
<time>2022-05-27T12:47:25Z</time>
</trkpt>
<trkpt lat="47.677734" lon="11.161573">
<ele>643.096</ele>
<time>2022-05-27T12:47:26Z</time>
</trkpt>
<trkpt lat="47.67775" lon="11.161632">
<ele>642.883</ele>
<time>2022-05-27T12:47:28Z</time>
</trkpt>
<trkpt lat="47.677769" lon="11.161735">
<ele>642.555</ele>
<time>2022-05-27T12:47:29Z</time>
</trkpt>
<trkpt lat="47.677799" lon="11.161792">
<ele>642.447</ele>
<time>2022-05-27T12:47:30Z</time>
</trkpt>
<trkpt lat="47.677814" lon="11.16183">
<ele>642.367</ele>
<time>2022-05-27T12:47:32Z</time>
</trkpt>
<trkpt lat="47.677841" lon="11.161892">
<ele>642.276</ele>
<time>2022-05-27T12:47:33Z</time>
</trkpt>
<trkpt lat="47.677864" lon="11.161925">
<ele>642.245</ele>
<time>2022-05-27T12:47:34Z</time>
</trkpt>
<trkpt lat="47.677883" lon="11.16195">
<ele>642.245</ele>
<time>2022-05-27T12:47:35Z</time>
</trkpt>
<trkpt lat="47.677898" lon="11.161986">
<ele>642.245</ele>
<time>2022-05-27T12:47:36Z</time>
</trkpt>
<trkpt lat="47.677971" lon="11.162008">
<ele>642.245</ele>
<time>2022-05-27T12:47:37Z</time>
</trkpt>
<trkpt lat="47.677998" lon="11.162035">
<ele>642.245</ele>
<time>2022-05-27T12:47:38Z</time>
</trkpt>
<trkpt lat="47.67802" lon="11.162066">
<ele>642.245</ele>
<time>2022-05-27T12:47:39Z</time>
</trkpt>
<trkpt lat="47.678036" lon="11.162093">
<ele>642.245</ele>
<time>2022-05-27T12:47:40Z</time>
</trkpt>
<trkpt lat="47.678062" lon="11.16213">
<ele>642.245</ele>
<time>2022-05-27T12:47:41Z</time>
</trkpt>
<trkpt lat="47.678089" lon="11.162186">
<ele>642.245</ele>
<time>2022-05-27T12:47:42Z</time>
</trkpt>
<trkpt lat="47.678112" lon="11.162252">
<ele>642.245</ele>
<time>2022-05-27T12:47:43Z</time>
</trkpt>
<trkpt lat="47.678131" lon="11.162318">
<ele>642.245</ele>
<time>2022-05-27T12:47:45Z</time>
</trkpt>
<trkpt lat="47.678177" lon="11.16245">
<ele>642.245</ele>
<time>2022-05-27T12:47:46Z</time>
</trkpt>
<trkpt lat="47.678196" lon="11.162517">
<ele>642.245</ele>
<time>2022-05-27T12:47:48Z</time>
</trkpt>
<trkpt lat="47.678238" lon="11.162653">
<ele>642.245</ele>
<time>2022-05-27T12:47:49Z</time>
</trkpt>
<trkpt lat="47.678253" lon="11.162724">
<ele>642.245</ele>
<time>2022-05-27T12:47:50Z</time>
</trkpt>
<trkpt lat="47.678276" lon="11.162793">
<ele>642.245</ele>
<time>2022-05-27T12:47:51Z</time>
</trkpt>
<trkpt lat="47.678295" lon="11.162868">
<ele>642.245</ele>
<time>2022-05-27T12:47:52Z</time>
</trkpt>
<trkpt lat="47.678314" lon="11.162942">
<ele>642.028</ele>
<time>2022-05-27T12:47:53Z</time>
</trkpt>
<trkpt lat="47.678326" lon="11.163015">
<ele>641.822</ele>
<time>2022-05-27T12:47:55Z</time>
</trkpt>
<trkpt lat="47.678341" lon="11.163085">
<ele>641.677</ele>
<time>2022-05-27T12:47:56Z</time>
</trkpt>
<trkpt lat="47.678349" lon="11.163152">
<ele>641.494</ele>
<time>2022-05-27T12:47:57Z</time>
</trkpt>
<trkpt lat="47.678352" lon="11.163271">
<ele>641.246</ele>
<time>2022-05-27T12:47:58Z</time>
</trkpt>
<trkpt lat="47.678352" lon="11.163328">
<ele>641.173</ele>
<time>2022-05-27T12:47:59Z</time>
</trkpt>
<trkpt lat="47.678349" lon="11.163369">
<ele>641.13</ele>
<time>2022-05-27T12:48:01Z</time>
</trkpt>
<trkpt lat="47.678345" lon="11.163408">
<ele>641.111</ele>
<time>2022-05-27T12:48:02Z</time>
</trkpt>
<trkpt lat="47.678322" lon="11.163497">
<ele>641.101</ele>
<time>2022-05-27T12:48:04Z</time>
</trkpt>
<trkpt lat="47.678295" lon="11.163598">
<ele>641.101</ele>
<time>2022-05-27T12:48:06Z</time>
</trkpt>
<trkpt lat="47.678253" lon="11.163673">
<ele>641.101</ele>
<time>2022-05-27T12:48:07Z</time>
</trkpt>
<trkpt lat="47.678234" lon="11.163715">
<ele>641.101</ele>
<time>2022-05-27T12:48:08Z</time>
</trkpt>
<trkpt lat="47.678215" lon="11.163753">
<ele>641.101</ele>
<time>2022-05-27T12:48:09Z</time>
</trkpt>
<trkpt lat="47.678188" lon="11.163793">
<ele>641.101</ele>
<time>2022-05-27T12:48:10Z</time>
</trkpt>
<trkpt lat="47.678177" lon="11.163828">
<ele>641.101</ele>
<time>2022-05-27T12:48:12Z</time>
</trkpt>
<trkpt lat="47.678165" lon="11.163874">
<ele>641.101</ele>
<time>2022-05-27T12:48:13Z</time>
</trkpt>
<trkpt lat="47.678143" lon="11.164">
<ele>641.326</ele>
<time>2022-05-27T12:48:14Z</time>
</trkpt>
<trkpt lat="47.678131" lon="11.164062">
<ele>641.513</ele>
<time>2022-05-27T12:48:16Z</time>
</trkpt>
<trkpt lat="47.678127" lon="11.164117">
<ele>641.66</ele>
<time>2022-05-27T12:48:17Z</time>
</trkpt>
<trkpt lat="47.678139" lon="11.16423">
<ele>641.868</ele>
<time>2022-05-27T12:48:18Z</time>
</trkpt>
<trkpt lat="47.678143" lon="11.164295">
<ele>641.933</ele>
<time>2022-05-27T12:48:20Z</time>
</trkpt>
<trkpt lat="47.678143" lon="11.164351">
<ele>641.965</ele>
<time>2022-05-27T12:48:21Z</time>
</trkpt>
<trkpt lat="47.678135" lon="11.164454">
<ele>641.981</ele>
<time>2022-05-27T12:48:23Z</time>
</trkpt>
<trkpt lat="47.678123" lon="11.164555">
<ele>641.981</ele>
<time>2022-05-27T12:48:25Z</time>
</trkpt>
<trkpt lat="47.67812" lon="11.164649">
<ele>641.981</ele>
<time>2022-05-27T12:48:26Z</time>
</trkpt>
<trkpt lat="47.67812" lon="11.164697">
<ele>641.981</ele>
<time>2022-05-27T12:48:28Z</time>
</trkpt>
<trkpt lat="47.67812" lon="11.164748">
<ele>641.981</ele>
<time>2022-05-27T12:48:29Z</time>
</trkpt>
<trkpt lat="47.678112" lon="11.164865">
<ele>641.981</ele>
<time>2022-05-27T12:48:30Z</time>
</trkpt>
<trkpt lat="47.678123" lon="11.164927">
<ele>641.981</ele>
<time>2022-05-27T12:48:32Z</time>
</trkpt>
<trkpt lat="47.678146" lon="11.165007">
<ele>641.981</ele>
<time>2022-05-27T12:48:33Z</time>
</trkpt>
<trkpt lat="47.678158" lon="11.16508">
<ele>641.981</ele>
<time>2022-05-27T12:48:34Z</time>
</trkpt>
<trkpt lat="47.678162" lon="11.165194">
<ele>641.981</ele>
<time>2022-05-27T12:48:35Z</time>
</trkpt>
<trkpt lat="47.678173" lon="11.165248">
<ele>641.981</ele>
<time>2022-05-27T12:48:37Z</time>
</trkpt>
<trkpt lat="47.678188" lon="11.165357">
<ele>641.981</ele>
<time>2022-05-27T12:48:39Z</time>
</trkpt>
<trkpt lat="47.678188" lon="11.165466">
<ele>641.981</ele>
<time>2022-05-27T12:48:40Z</time>
</trkpt>
<trkpt lat="47.678185" lon="11.165521">
<ele>641.981</ele>
<time>2022-05-27T12:48:41Z</time>
</trkpt>
<trkpt lat="47.678177" lon="11.165573">
<ele>641.981</ele>
<time>2022-05-27T12:48:43Z</time>
</trkpt>
<trkpt lat="47.678165" lon="11.165695">
<ele>641.981</ele>
<time>2022-05-27T12:48:45Z</time>
</trkpt>
<trkpt lat="47.678173" lon="11.165832">
<ele>641.981</ele>
<time>2022-05-27T12:48:46Z</time>
</trkpt>
<trkpt lat="47.678169" lon="11.165909">
<ele>641.981</ele>
<time>2022-05-27T12:48:47Z</time>
</trkpt>
<trkpt lat="47.678162" lon="11.165981">
<ele>641.981</ele>
<time>2022-05-27T12:48:48Z</time>
</trkpt>
<trkpt lat="47.678162" lon="11.166053">
<ele>641.981</ele>
<time>2022-05-27T12:48:50Z</time>
</trkpt>
<trkpt lat="47.678158" lon="11.166189">
<ele>641.981</ele>
<time>2022-05-27T12:48:51Z</time>
</trkpt>
<trkpt lat="47.678158" lon="11.166266">
<ele>641.981</ele>
<time>2022-05-27T12:48:52Z</time>
</trkpt>
<trkpt lat="47.678158" lon="11.166347">
<ele>641.981</ele>
<time>2022-05-27T12:48:54Z</time>
</trkpt>
<trkpt lat="47.67815" lon="11.166493">
<ele>641.717</ele>
<time>2022-05-27T12:48:56Z</time>
</trkpt>
<trkpt lat="47.678146" lon="11.166562">
<ele>641.512</ele>
<time>2022-05-27T12:48:57Z</time>
</trkpt>
<trkpt lat="47.67812" lon="11.166677">
<ele>641.656</ele>
<time>2022-05-27T12:48:58Z</time>
</trkpt>
<trkpt lat="47.678112" lon="11.166732">
<ele>641.718</ele>
<time>2022-05-27T12:49:00Z</time>
</trkpt>
<trkpt lat="47.678085" lon="11.166835">
<ele>642.024</ele>
<time>2022-05-27T12:49:01Z</time>
</trkpt>
<trkpt lat="47.678093" lon="11.166875">
<ele>642.269</ele>
<time>2022-05-27T12:49:02Z</time>
</trkpt>
<trkpt lat="47.678112" lon="11.166912">
<ele>642.444</ele>
<time>2022-05-27T12:49:04Z</time>
</trkpt>
<trkpt lat="47.678143" lon="11.166998">
<ele>642.784</ele>
<time>2022-05-27T12:49:06Z</time>
</trkpt>
<trkpt lat="47.678143" lon="11.167045">
<ele>642.868</ele>
<time>2022-05-27T12:49:07Z</time>
</trkpt>
<trkpt lat="47.678123" lon="11.167143">
<ele>642.949</ele>
<time>2022-05-27T12:49:08Z</time>
</trkpt>
<trkpt lat="47.67812" lon="11.167207">
<ele>642.949</ele>
<time>2022-05-27T12:49:09Z</time>
</trkpt>
<trkpt lat="47.678116" lon="11.167274">
<ele>642.949</ele>
<time>2022-05-27T12:49:10Z</time>
</trkpt>
<trkpt lat="47.678097" lon="11.167354">
<ele>642.949</ele>
<time>2022-05-27T12:49:11Z</time>
</trkpt>
<trkpt lat="47.678082" lon="11.16744">
<ele>642.949</ele>
<time>2022-05-27T12:49:12Z</time>
</trkpt>
<trkpt lat="47.678089" lon="11.167505">
<ele>642.949</ele>
<time>2022-05-27T12:49:14Z</time>
</trkpt>
<trkpt lat="47.678116" lon="11.167614">
<ele>642.949</ele>
<time>2022-05-27T12:49:15Z</time>
</trkpt>
<trkpt lat="47.67812" lon="11.167677">
<ele>642.949</ele>
<time>2022-05-27T12:49:16Z</time>
</trkpt>
<trkpt lat="47.678101" lon="11.167756">
<ele>642.949</ele>
<time>2022-05-27T12:49:17Z</time>
</trkpt>
<trkpt lat="47.678104" lon="11.167811">
<ele>642.949</ele>
<time>2022-05-27T12:49:19Z</time>
</trkpt>
<trkpt lat="47.678112" lon="11.167873">
<ele>642.949</ele>
<time>2022-05-27T12:49:20Z</time>
</trkpt>
<trkpt lat="47.67812" lon="11.168025">
<ele>642.949</ele>
<time>2022-05-27T12:49:22Z</time>
</trkpt>
<trkpt lat="47.678123" lon="11.168103">
<ele>642.949</ele>
<time>2022-05-27T12:49:23Z</time>
</trkpt>
<trkpt lat="47.678127" lon="11.168237">
<ele>642.523</ele>
<time>2022-05-27T12:49:24Z</time>
</trkpt>
<trkpt lat="47.678123" lon="11.168293">
<ele>642.362</ele>
<time>2022-05-27T12:49:25Z</time>
</trkpt>
<trkpt lat="47.678139" lon="11.168333">
<ele>642.218</ele>
<time>2022-05-27T12:49:26Z</time>
</trkpt>
<trkpt lat="47.678135" lon="11.168404">
<ele>642.173</ele>
<time>2022-05-27T12:49:27Z</time>
</trkpt>
<trkpt lat="47.678135" lon="11.168479">
<ele>642.357</ele>
<time>2022-05-27T12:49:28Z</time>
</trkpt>
<trkpt lat="47.678146" lon="11.168549">
<ele>642.514</ele>
<time>2022-05-27T12:49:29Z</time>
</trkpt>
<trkpt lat="47.678139" lon="11.168626">
<ele>642.663</ele>
<time>2022-05-27T12:49:31Z</time>
</trkpt>
<trkpt lat="47.678139" lon="11.16878">
<ele>642.896</ele>
<time>2022-05-27T12:49:33Z</time>
</trkpt>
<trkpt lat="47.678127" lon="11.168927">
<ele>643.019</ele>
<time>2022-05-27T12:49:34Z</time>
</trkpt>
<trkpt lat="47.678123" lon="11.169007">
<ele>643.037</ele>
<time>2022-05-27T12:49:36Z</time>
</trkpt>
<trkpt lat="47.678108" lon="11.16908">
<ele>643.037</ele>
<time>2022-05-27T12:49:37Z</time>
</trkpt>
<trkpt lat="47.678093" lon="11.169216">
<ele>643.037</ele>
<time>2022-05-27T12:49:38Z</time>
</trkpt>
<trkpt lat="47.678093" lon="11.169303">
<ele>643.037</ele>
<time>2022-05-27T12:49:39Z</time>
</trkpt>
<trkpt lat="47.678078" lon="11.169384">
<ele>642.766</ele>
<time>2022-05-27T12:49:40Z</time>
</trkpt>
<trkpt lat="47.67807" lon="11.169457">
<ele>642.549</ele>
<time>2022-05-27T12:49:41Z</time>
</trkpt>
<trkpt lat="47.678062" lon="11.169523">
<ele>642.383</ele>
<time>2022-05-27T12:49:43Z</time>
</trkpt>
<trkpt lat="47.678055" lon="11.169641">
<ele>642.204</ele>
<time>2022-05-27T12:49:45Z</time>
</trkpt>
<trkpt lat="47.678043" lon="11.169772">
<ele>642.548</ele>
<time>2022-05-27T12:49:47Z</time>
</trkpt>
<trkpt lat="47.67804" lon="11.169889">
<ele>642.841</ele>
<time>2022-05-27T12:49:48Z</time>
</trkpt>
<trkpt lat="47.67804" lon="11.169948">
<ele>642.94</ele>
<time>2022-05-27T12:49:49Z</time>
</trkpt>
<trkpt lat="47.678059" lon="11.170013">
<ele>643.009</ele>
<time>2022-05-27T12:49:50Z</time>
</trkpt>
<trkpt lat="47.678062" lon="11.17008">
<ele>643.037</ele>
<time>2022-05-27T12:49:52Z</time>
</trkpt>
<trkpt lat="47.678059" lon="11.170145">
<ele>643.037</ele>
<time>2022-05-27T12:49:53Z</time>
</trkpt>
<trkpt lat="47.678043" lon="11.17026">
<ele>643.037</ele>
<time>2022-05-27T12:49:54Z</time>
</trkpt>
<trkpt lat="47.678043" lon="11.170323">
<ele>643.037</ele>
<time>2022-05-27T12:49:56Z</time>
</trkpt>
<trkpt lat="47.678047" lon="11.170394">
<ele>643.037</ele>
<time>2022-05-27T12:49:57Z</time>
</trkpt>
<trkpt lat="47.678043" lon="11.17053">
<ele>643.037</ele>
<time>2022-05-27T12:49:58Z</time>
</trkpt>
<trkpt lat="47.678062" lon="11.170599">
<ele>643.037</ele>
<time>2022-05-27T12:50:00Z</time>
</trkpt>
<trkpt lat="47.678074" lon="11.17072">
<ele>643.037</ele>
<time>2022-05-27T12:50:02Z</time>
</trkpt>
<trkpt lat="47.678089" lon="11.170847">
<ele>643.037</ele>
<time>2022-05-27T12:50:03Z</time>
</trkpt>
<trkpt lat="47.678097" lon="11.170914">
<ele>643.037</ele>
<time>2022-05-27T12:50:04Z</time>
</trkpt>
<trkpt lat="47.678112" lon="11.170981">
<ele>643.037</ele>
<time>2022-05-27T12:50:05Z</time>
</trkpt>
<trkpt lat="47.678116" lon="11.171043">
<ele>643.037</ele>
<time>2022-05-27T12:50:06Z</time>
</trkpt>
<trkpt lat="47.678116" lon="11.171117">
<ele>643.037</ele>
<time>2022-05-27T12:50:08Z</time>
</trkpt>
<trkpt lat="47.678108" lon="11.17119">
<ele>643.037</ele>
<time>2022-05-27T12:50:09Z</time>
</trkpt>
<trkpt lat="47.678112" lon="11.171308">
<ele>643.037</ele>
<time>2022-05-27T12:50:11Z</time>
</trkpt>
<trkpt lat="47.67812" lon="11.17143">
<ele>643.037</ele>
<time>2022-05-27T12:50:12Z</time>
</trkpt>
<trkpt lat="47.678116" lon="11.17149">
<ele>643.037</ele>
<time>2022-05-27T12:50:13Z</time>
</trkpt>
<trkpt lat="47.678123" lon="11.171547">
<ele>643.037</ele>
<time>2022-05-27T12:50:15Z</time>
</trkpt>
<trkpt lat="47.67812" lon="11.171668">
<ele>643.037</ele>
<time>2022-05-27T12:50:16Z</time>
</trkpt>
<trkpt lat="47.678108" lon="11.171737">
<ele>643.037</ele>
<time>2022-05-27T12:50:18Z</time>
</trkpt>
<trkpt lat="47.678116" lon="11.171844">
<ele>643.508</ele>
<time>2022-05-27T12:50:19Z</time>
</trkpt>
<trkpt lat="47.678112" lon="11.17189">
<ele>643.661</ele>
<time>2022-05-27T12:50:21Z</time>
</trkpt>
<trkpt lat="47.678108" lon="11.171945">
<ele>643.778</ele>
<time>2022-05-27T12:50:22Z</time>
</trkpt>
<trkpt lat="47.678104" lon="11.172013">
<ele>643.865</ele>
<time>2022-05-27T12:50:23Z</time>
</trkpt>
<trkpt lat="47.678085" lon="11.172139">
<ele>643.976</ele>
<time>2022-05-27T12:50:24Z</time>
</trkpt>
<trkpt lat="47.678085" lon="11.172196">
<ele>644.005</ele>
<time>2022-05-27T12:50:25Z</time>
</trkpt>
<trkpt lat="47.67807" lon="11.172245">
<ele>644.005</ele>
<time>2022-05-27T12:50:27Z</time>
</trkpt>
<trkpt lat="47.678074" lon="11.172355">
<ele>644.005</ele>
<time>2022-05-27T12:50:28Z</time>
</trkpt>
<trkpt lat="47.678085" lon="11.172401">
<ele>644.005</ele>
<time>2022-05-27T12:50:29Z</time>
</trkpt>
<trkpt lat="47.678093" lon="11.172475">
<ele>644.005</ele>
<time>2022-05-27T12:50:30Z</time>
</trkpt>
<trkpt lat="47.678082" lon="11.172537">
<ele>644.005</ele>
<time>2022-05-27T12:50:31Z</time>
</trkpt>
<trkpt lat="47.678074" lon="11.172585">
<ele>644.005</ele>
<time>2022-05-27T12:50:32Z</time>
</trkpt>
<trkpt lat="47.67807" lon="11.172633">
<ele>644.005</ele>
<time>2022-05-27T12:50:34Z</time>
</trkpt>
<trkpt lat="47.678059" lon="11.172732">
<ele>644.005</ele>
<time>2022-05-27T12:50:35Z</time>
</trkpt>
<trkpt lat="47.678055" lon="11.17278">
<ele>644.005</ele>
<time>2022-05-27T12:50:37Z</time>
</trkpt>
<trkpt lat="47.678047" lon="11.172832">
<ele>644.005</ele>
<time>2022-05-27T12:50:38Z</time>
</trkpt>
<trkpt lat="47.678043" lon="11.172927">
<ele>644.005</ele>
<time>2022-05-27T12:50:39Z</time>
</trkpt>
<trkpt lat="47.678043" lon="11.172979">
<ele>644.005</ele>
<time>2022-05-27T12:50:40Z</time>
</trkpt>
<trkpt lat="47.678051" lon="11.173025">
<ele>644.005</ele>
<time>2022-05-27T12:50:42Z</time>
</trkpt>
<trkpt lat="47.678066" lon="11.173107">
<ele>644.005</ele>
<time>2022-05-27T12:50:43Z</time>
</trkpt>
<trkpt lat="47.678062" lon="11.173168">
<ele>644.005</ele>
<time>2022-05-27T12:50:44Z</time>
</trkpt>
<trkpt lat="47.678062" lon="11.173208">
<ele>644.005</ele>
<time>2022-05-27T12:50:46Z</time>
</trkpt>
<trkpt lat="47.678028" lon="11.173338">
<ele>644.005</ele>
<time>2022-05-27T12:50:47Z</time>
</trkpt>
<trkpt lat="47.677982" lon="11.173451">
<ele>644.005</ele>
<time>2022-05-27T12:50:49Z</time>
</trkpt>
<trkpt lat="47.67794" lon="11.173637">
<ele>644.005</ele>
<time>2022-05-27T12:50:50Z</time>
</trkpt>
<trkpt lat="47.677933" lon="11.173738">
<ele>644.005</ele>
<time>2022-05-27T12:50:51Z</time>
</trkpt>
<trkpt lat="47.677929" lon="11.173805">
<ele>644.005</ele>
<time>2022-05-27T12:50:53Z</time>
</trkpt>
<trkpt lat="47.67794" lon="11.173945">
<ele>644.005</ele>
<time>2022-05-27T12:50:55Z</time>
</trkpt>
<trkpt lat="47.677929" lon="11.174088">
<ele>644.005</ele>
<time>2022-05-27T12:50:56Z</time>
</trkpt>
<trkpt lat="47.677925" lon="11.174173">
<ele>644.005</ele>
<time>2022-05-27T12:50:57Z</time>
</trkpt>
<trkpt lat="47.677925" lon="11.174257">
<ele>644.005</ele>
<time>2022-05-27T12:50:58Z</time>
</trkpt>
<trkpt lat="47.677925" lon="11.174327">
<ele>644.005</ele>
<time>2022-05-27T12:51:00Z</time>
</trkpt>
<trkpt lat="47.677925" lon="11.174392">
<ele>644.005</ele>
<time>2022-05-27T12:51:01Z</time>
</trkpt>
<trkpt lat="47.677948" lon="11.174505">
<ele>643.778</ele>
<time>2022-05-27T12:51:02Z</time>
</trkpt>
<trkpt lat="47.677956" lon="11.174562">
<ele>643.617</ele>
<time>2022-05-27T12:51:03Z</time>
</trkpt>
<trkpt lat="47.677967" lon="11.174608">
<ele>643.451</ele>
<time>2022-05-27T12:51:04Z</time>
</trkpt>
<trkpt lat="47.677994" lon="11.174677">
<ele>643.321</ele>
<time>2022-05-27T12:51:06Z</time>
</trkpt>
<trkpt lat="47.678032" lon="11.174782">
<ele>643.116</ele>
<time>2022-05-27T12:51:07Z</time>
</trkpt>
<trkpt lat="47.678055" lon="11.174823">
<ele>643.066</ele>
<time>2022-05-27T12:51:08Z</time>
</trkpt>
<trkpt lat="47.678074" lon="11.174865">
<ele>642.785</ele>
<time>2022-05-27T12:51:09Z</time>
</trkpt>
<trkpt lat="47.678104" lon="11.174925">
<ele>642.55</ele>
<time>2022-05-27T12:51:10Z</time>
</trkpt>
<trkpt lat="47.678123" lon="11.174972">
<ele>642.38</ele>
<time>2022-05-27T12:51:11Z</time>
</trkpt>
<trkpt lat="47.678158" lon="11.175029">
<ele>642.252</ele>
<time>2022-05-27T12:51:12Z</time>
</trkpt>
<trkpt lat="47.678192" lon="11.175078">
<ele>642.178</ele>
<time>2022-05-27T12:51:13Z</time>
</trkpt>
<trkpt lat="47.67823" lon="11.175122">
<ele>642.069</ele>
<time>2022-05-27T12:51:15Z</time>
</trkpt>
<trkpt lat="47.678288" lon="11.17522">
<ele>641.981</ele>
<time>2022-05-27T12:51:16Z</time>
</trkpt>
<trkpt lat="47.67831" lon="11.17529">
<ele>641.981</ele>
<time>2022-05-27T12:51:17Z</time>
</trkpt>
<trkpt lat="47.678322" lon="11.175341">
<ele>641.981</ele>
<time>2022-05-27T12:51:18Z</time>
</trkpt>
<trkpt lat="47.678333" lon="11.1754">
<ele>641.981</ele>
<time>2022-05-27T12:51:19Z</time>
</trkpt>
<trkpt lat="47.678341" lon="11.175455">
<ele>641.981</ele>
<time>2022-05-27T12:51:20Z</time>
</trkpt>
<trkpt lat="47.678345" lon="11.175512">
<ele>641.771</ele>
<time>2022-05-27T12:51:21Z</time>
</trkpt>
<trkpt lat="47.678349" lon="11.17557">
<ele>641.598</ele>
<time>2022-05-27T12:51:22Z</time>
</trkpt>
<trkpt lat="47.678345" lon="11.175633">
<ele>641.478</ele>
<time>2022-05-27T12:51:23Z</time>
</trkpt>
<trkpt lat="47.678345" lon="11.175694">
<ele>641.355</ele>
<time>2022-05-27T12:51:24Z</time>
</trkpt>
<trkpt lat="47.678341" lon="11.175756">
<ele>641.251</ele>
<time>2022-05-27T12:51:26Z</time>
</trkpt>
<trkpt lat="47.678322" lon="11.175875">
<ele>641.124</ele>
<time>2022-05-27T12:51:27Z</time>
</trkpt>
<trkpt lat="47.67831" lon="11.175934">
<ele>641.101</ele>
<time>2022-05-27T12:51:29Z</time>
</trkpt>
<trkpt lat="47.678295" lon="11.176055">
<ele>641.101</ele>
<time>2022-05-27T12:51:31Z</time>
</trkpt>
<trkpt lat="47.67831" lon="11.176191">
<ele>641.32</ele>
<time>2022-05-27T12:51:33Z</time>
</trkpt>
<trkpt lat="47.678314" lon="11.17626">
<ele>641.473</ele>
<time>2022-05-27T12:51:34Z</time>
</trkpt>
<trkpt lat="47.678352" lon="11.176438">
<ele>641.764</ele>
<time>2022-05-27T12:51:35Z</time>
</trkpt>
<trkpt lat="47.678371" lon="11.17651">
<ele>641.86</ele>
<time>2022-05-27T12:51:37Z</time>
</trkpt>
<trkpt lat="47.678421" lon="11.176654">
<ele>641.964</ele>
<time>2022-05-27T12:51:39Z</time>
</trkpt>
<trkpt lat="47.678436" lon="11.176713">
<ele>641.981</ele>
<time>2022-05-27T12:51:40Z</time>
</trkpt>
<trkpt lat="47.678482" lon="11.176849">
<ele>641.981</ele>
<time>2022-05-27T12:51:41Z</time>
</trkpt>
<trkpt lat="47.678505" lon="11.176908">
<ele>641.981</ele>
<time>2022-05-27T12:51:42Z</time>
</trkpt>
<trkpt lat="47.678516" lon="11.176958">
<ele>641.981</ele>
<time>2022-05-27T12:51:44Z</time>
</trkpt>
<trkpt lat="47.678532" lon="11.177011">
<ele>641.981</ele>
<time>2022-05-27T12:51:45Z</time>
</trkpt>
<trkpt lat="47.67857" lon="11.177119">
<ele>641.981</ele>
<time>2022-05-27T12:51:46Z</time>
</trkpt>
<trkpt lat="47.678593" lon="11.17718">
<ele>641.981</ele>
<time>2022-05-27T12:51:48Z</time>
</trkpt>
<trkpt lat="47.678635" lon="11.177299">
<ele>641.981</ele>
<time>2022-05-27T12:51:49Z</time>
</trkpt>
<trkpt lat="47.678661" lon="11.177359">
<ele>641.981</ele>
<time>2022-05-27T12:51:50Z</time>
</trkpt>
<trkpt lat="47.678677" lon="11.177408">
<ele>641.981</ele>
<time>2022-05-27T12:51:52Z</time>
</trkpt>
<trkpt lat="47.678692" lon="11.177461">
<ele>642.218</ele>
<time>2022-05-27T12:51:53Z</time>
</trkpt>
<trkpt lat="47.678703" lon="11.177564">
<ele>642.544</ele>
<time>2022-05-27T12:51:54Z</time>
</trkpt>
<trkpt lat="47.678707" lon="11.177609">
<ele>642.677</ele>
<time>2022-05-27T12:51:55Z</time>
</trkpt>
<trkpt lat="47.678711" lon="11.177669">
<ele>642.734</ele>
<time>2022-05-27T12:51:57Z</time>
</trkpt>
<trkpt lat="47.678741" lon="11.177811">
<ele>642.43</ele>
<time>2022-05-27T12:51:58Z</time>
</trkpt>
<trkpt lat="47.678753" lon="11.177874">
<ele>642.286</ele>
<time>2022-05-27T12:51:59Z</time>
</trkpt>
<trkpt lat="47.678776" lon="11.177943">
<ele>642.17</ele>
<time>2022-05-27T12:52:01Z</time>
</trkpt>
<trkpt lat="47.678795" lon="11.178001">
<ele>642.085</ele>
<time>2022-05-27T12:52:02Z</time>
</trkpt>
<trkpt lat="47.678837" lon="11.178119">
<ele>642.001</ele>
<time>2022-05-27T12:52:03Z</time>
</trkpt>
<trkpt lat="47.678856" lon="11.17818">
<ele>641.981</ele>
<time>2022-05-27T12:52:04Z</time>
</trkpt>
<trkpt lat="47.678875" lon="11.178244">
<ele>641.981</ele>
<time>2022-05-27T12:52:05Z</time>
</trkpt>
<trkpt lat="47.678879" lon="11.178301">
<ele>641.981</ele>
<time>2022-05-27T12:52:07Z</time>
</trkpt>
<trkpt lat="47.678879" lon="11.178406">
<ele>641.981</ele>
<time>2022-05-27T12:52:08Z</time>
</trkpt>
<trkpt lat="47.678875" lon="11.178452">
<ele>641.981</ele>
<time>2022-05-27T12:52:09Z</time>
</trkpt>
<trkpt lat="47.678875" lon="11.17849">
<ele>642.208</ele>
<time>2022-05-27T12:52:10Z</time>
</trkpt>
<trkpt lat="47.67889" lon="11.178518">
<ele>642.388</ele>
<time>2022-05-27T12:52:11Z</time>
</trkpt>
<trkpt lat="47.678894" lon="11.17856">
<ele>642.534</ele>
<time>2022-05-27T12:52:13Z</time>
</trkpt>
<trkpt lat="47.678902" lon="11.178609">
<ele>642.646</ele>
<time>2022-05-27T12:52:14Z</time>
</trkpt>
<trkpt lat="47.678905" lon="11.17869">
<ele>642.861</ele>
<time>2022-05-27T12:52:16Z</time>
</trkpt>
<trkpt lat="47.678909" lon="11.178733">
<ele>642.922</ele>
<time>2022-05-27T12:52:17Z</time>
</trkpt>
<trkpt lat="47.678913" lon="11.178772">
<ele>642.949</ele>
<time>2022-05-27T12:52:18Z</time>
</trkpt>
<trkpt lat="47.678928" lon="11.178824">
<ele>642.949</ele>
<time>2022-05-27T12:52:19Z</time>
</trkpt>
<trkpt lat="47.67894" lon="11.17894">
<ele>642.949</ele>
<time>2022-05-27T12:52:20Z</time>
</trkpt>
<trkpt lat="47.67894" lon="11.179007">
<ele>642.949</ele>
<time>2022-05-27T12:52:21Z</time>
</trkpt>
<trkpt lat="47.678936" lon="11.179062">
<ele>642.949</ele>
<time>2022-05-27T12:52:22Z</time>
</trkpt>
<trkpt lat="47.678944" lon="11.179141">
<ele>642.949</ele>
<time>2022-05-27T12:52:23Z</time>
</trkpt>
<trkpt lat="47.678947" lon="11.179214">
<ele>642.949</ele>
<time>2022-05-27T12:52:25Z</time>
</trkpt>
<trkpt lat="47.678951" lon="11.179276">
<ele>642.949</ele>
<time>2022-05-27T12:52:26Z</time>
</trkpt>
<trkpt lat="47.678951" lon="11.179425">
<ele>642.949</ele>
<time>2022-05-27T12:52:27Z</time>
</trkpt>
<trkpt lat="47.678947" lon="11.179503">
<ele>642.949</ele>
<time>2022-05-27T12:52:28Z</time>
</trkpt>
<trkpt lat="47.678944" lon="11.179568">
<ele>642.949</ele>
<time>2022-05-27T12:52:29Z</time>
</trkpt>
<trkpt lat="47.67897" lon="11.179626">
<ele>642.949</ele>
<time>2022-05-27T12:52:30Z</time>
</trkpt>
<trkpt lat="47.678974" lon="11.179686">
<ele>642.949</ele>
<time>2022-05-27T12:52:31Z</time>
</trkpt>
<trkpt lat="47.678978" lon="11.179751">
<ele>642.949</ele>
<time>2022-05-27T12:52:32Z</time>
</trkpt>
<trkpt lat="47.679005" lon="11.179813">
<ele>642.949</ele>
<time>2022-05-27T12:52:33Z</time>
</trkpt>
<trkpt lat="47.679016" lon="11.179873">
<ele>642.949</ele>
<time>2022-05-27T12:52:35Z</time>
</trkpt>
<trkpt lat="47.679024" lon="11.179935">
<ele>642.949</ele>
<time>2022-05-27T12:52:36Z</time>
</trkpt>
<trkpt lat="47.679039" lon="11.18007">
<ele>642.949</ele>
<time>2022-05-27T12:52:38Z</time>
</trkpt>
<trkpt lat="47.679062" lon="11.18021">
<ele>642.949</ele>
<time>2022-05-27T12:52:39Z</time>
</trkpt>
<trkpt lat="47.67907" lon="11.180277">
<ele>642.949</ele>
<time>2022-05-27T12:52:41Z</time>
</trkpt>
<trkpt lat="47.679085" lon="11.180395">
<ele>642.949</ele>
<time>2022-05-27T12:52:42Z</time>
</trkpt>
<trkpt lat="47.679089" lon="11.180445">
<ele>642.949</ele>
<time>2022-05-27T12:52:43Z</time>
</trkpt>
<trkpt lat="47.679096" lon="11.180498">
<ele>642.949</ele>
<time>2022-05-27T12:52:45Z</time>
</trkpt>
<trkpt lat="47.679111" lon="11.180593">
<ele>642.949</ele>
<time>2022-05-27T12:52:46Z</time>
</trkpt>
<trkpt lat="47.679115" lon="11.180636">
<ele>642.949</ele>
<time>2022-05-27T12:52:47Z</time>
</trkpt>
<trkpt lat="47.679119" lon="11.180685">
<ele>642.949</ele>
<time>2022-05-27T12:52:48Z</time>
</trkpt>
<trkpt lat="47.679115" lon="11.180734">
<ele>642.949</ele>
<time>2022-05-27T12:52:50Z</time>
</trkpt>
<trkpt lat="47.679119" lon="11.180832">
<ele>642.949</ele>
<time>2022-05-27T12:52:51Z</time>
</trkpt>
<trkpt lat="47.679119" lon="11.180886">
<ele>642.949</ele>
<time>2022-05-27T12:52:53Z</time>
</trkpt>
<trkpt lat="47.679119" lon="11.181004">
<ele>642.949</ele>
<time>2022-05-27T12:52:54Z</time>
</trkpt>
<trkpt lat="47.679115" lon="11.181067">
<ele>642.949</ele>
<time>2022-05-27T12:52:55Z</time>
</trkpt>
<trkpt lat="47.679104" lon="11.18114">
<ele>642.949</ele>
<time>2022-05-27T12:52:57Z</time>
</trkpt>
<trkpt lat="47.679096" lon="11.181211">
<ele>642.949</ele>
<time>2022-05-27T12:52:58Z</time>
</trkpt>
<trkpt lat="47.679085" lon="11.181284">
<ele>642.949</ele>
<time>2022-05-27T12:52:59Z</time>
</trkpt>
<trkpt lat="47.679054" lon="11.181423">
<ele>642.949</ele>
<time>2022-05-27T12:53:00Z</time>
</trkpt>
<trkpt lat="47.679039" lon="11.181496">
<ele>642.949</ele>
<time>2022-05-27T12:53:02Z</time>
</trkpt>
<trkpt lat="47.679024" lon="11.18157">
<ele>642.949</ele>
<time>2022-05-27T12:53:03Z</time>
</trkpt>
<trkpt lat="47.679001" lon="11.181716">
<ele>642.949</ele>
<time>2022-05-27T12:53:04Z</time>
</trkpt>
<trkpt lat="47.678982" lon="11.181791">
<ele>642.949</ele>
<time>2022-05-27T12:53:05Z</time>
</trkpt>
<trkpt lat="47.678967" lon="11.181863">
<ele>642.949</ele>
<time>2022-05-27T12:53:07Z</time>
</trkpt>
<trkpt lat="47.67894" lon="11.181931">
<ele>642.949</ele>
<time>2022-05-27T12:53:08Z</time>
</trkpt>
<trkpt lat="47.678913" lon="11.182003">
<ele>642.949</ele>
<time>2022-05-27T12:53:09Z</time>
</trkpt>
<trkpt lat="47.678856" lon="11.182156">
<ele>642.949</ele>
<time>2022-05-27T12:53:10Z</time>
</trkpt>
<trkpt lat="47.678837" lon="11.18223">
<ele>642.949</ele>
<time>2022-05-27T12:53:12Z</time>
</trkpt>
<trkpt lat="47.678806" lon="11.182374">
<ele>642.949</ele>
<time>2022-05-27T12:53:14Z</time>
</trkpt>
<trkpt lat="47.678783" lon="11.182513">
<ele>642.949</ele>
<time>2022-05-27T12:53:15Z</time>
</trkpt>
<trkpt lat="47.67878" lon="11.182587">
<ele>642.949</ele>
<time>2022-05-27T12:53:16Z</time>
</trkpt>
<trkpt lat="47.678776" lon="11.182673">
<ele>642.949</ele>
<time>2022-05-27T12:53:17Z</time>
</trkpt>
<trkpt lat="47.678776" lon="11.182756">
<ele>642.949</ele>
<time>2022-05-27T12:53:18Z</time>
</trkpt>
<trkpt lat="47.678772" lon="11.182841">
<ele>642.949</ele>
<time>2022-05-27T12:53:19Z</time>
</trkpt>
<trkpt lat="47.678764" lon="11.182925">
<ele>642.949</ele>
<time>2022-05-27T12:53:20Z</time>
</trkpt>
<trkpt lat="47.678757" lon="11.183006">
<ele>642.949</ele>
<time>2022-05-27T12:53:22Z</time>
</trkpt>
<trkpt lat="47.678753" lon="11.183086">
<ele>642.949</ele>
<time>2022-05-27T12:53:23Z</time>
</trkpt>
<trkpt lat="47.678745" lon="11.183166">
<ele>642.949</ele>
<time>2022-05-27T12:53:24Z</time>
</trkpt>
<trkpt lat="47.678741" lon="11.183245">
<ele>642.949</ele>
<time>2022-05-27T12:53:25Z</time>
</trkpt>
<trkpt lat="47.678745" lon="11.183425">
<ele>642.949</ele>
<time>2022-05-27T12:53:27Z</time>
</trkpt>
<trkpt lat="47.678745" lon="11.1835">
<ele>642.949</ele>
<time>2022-05-27T12:53:28Z</time>
</trkpt>
<trkpt lat="47.678749" lon="11.183582">
<ele>642.949</ele>
<time>2022-05-27T12:53:29Z</time>
</trkpt>
<trkpt lat="47.678749" lon="11.18371">
<ele>642.949</ele>
<time>2022-05-27T12:53:30Z</time>
</trkpt>
<trkpt lat="47.678749" lon="11.183785">
<ele>642.949</ele>
<time>2022-05-27T12:53:31Z</time>
</trkpt>
<trkpt lat="47.678745" lon="11.183855">
<ele>643.174</ele>
<time>2022-05-27T12:53:33Z</time>
</trkpt>
<trkpt lat="47.678738" lon="11.183922">
<ele>643.337</ele>
<time>2022-05-27T12:53:34Z</time>
</trkpt>
<trkpt lat="47.678719" lon="11.184042">
<ele>644.002</ele>
<time>2022-05-27T12:53:35Z</time>
</trkpt>
<trkpt lat="47.678715" lon="11.184093">
<ele>644.49</ele>
<time>2022-05-27T12:53:36Z</time>
</trkpt>
<trkpt lat="47.678715" lon="11.18414">
<ele>644.904</ele>
<time>2022-05-27T12:53:37Z</time>
</trkpt>
<trkpt lat="47.678719" lon="11.18419">
<ele>645.204</ele>
<time>2022-05-27T12:53:38Z</time>
</trkpt>
<trkpt lat="47.678722" lon="11.184245">
<ele>645.42</ele>
<time>2022-05-27T12:53:39Z</time>
</trkpt>
<trkpt lat="47.678722" lon="11.184301">
<ele>645.579</ele>
<time>2022-05-27T12:53:40Z</time>
</trkpt>
<trkpt lat="47.678726" lon="11.184357">
<ele>645.685</ele>
<time>2022-05-27T12:53:42Z</time>
</trkpt>
<trkpt lat="47.678734" lon="11.184466">
<ele>645.766</ele>
<time>2022-05-27T12:53:43Z</time>
</trkpt>
<trkpt lat="47.678738" lon="11.184528">
<ele>645.766</ele>
<time>2022-05-27T12:53:45Z</time>
</trkpt>
<trkpt lat="47.678741" lon="11.184597">
<ele>645.766</ele>
<time>2022-05-27T12:53:46Z</time>
</trkpt>
<trkpt lat="47.678745" lon="11.184753">
<ele>645.766</ele>
<time>2022-05-27T12:53:48Z</time>
</trkpt>
<trkpt lat="47.678745" lon="11.184919">
<ele>645.766</ele>
<time>2022-05-27T12:53:49Z</time>
</trkpt>
<trkpt lat="47.678745" lon="11.185008">
<ele>645.494</ele>
<time>2022-05-27T12:53:51Z</time>
</trkpt>
<trkpt lat="47.678745" lon="11.185093">
<ele>645.295</ele>
<time>2022-05-27T12:53:52Z</time>
</trkpt>
<trkpt lat="47.678741" lon="11.18517">
<ele>645.148</ele>
<time>2022-05-27T12:53:53Z</time>
</trkpt>
<trkpt lat="47.678738" lon="11.185311">
<ele>644.952</ele>
<time>2022-05-27T12:53:54Z</time>
</trkpt>
<trkpt lat="47.678734" lon="11.185378">
<ele>644.873</ele>
<time>2022-05-27T12:53:55Z</time>
</trkpt>
<trkpt lat="47.67873" lon="11.18544">
<ele>644.823</ele>
<time>2022-05-27T12:53:57Z</time>
</trkpt>
<trkpt lat="47.678745" lon="11.185562">
<ele>644.798</ele>
<time>2022-05-27T12:53:58Z</time>
</trkpt>
<trkpt lat="47.678749" lon="11.185621">
<ele>644.798</ele>
<time>2022-05-27T12:54:00Z</time>
</trkpt>
<trkpt lat="47.678764" lon="11.185753">
<ele>644.798</ele>
<time>2022-05-27T12:54:02Z</time>
</trkpt>
<trkpt lat="47.678799" lon="11.185884">
<ele>644.798</ele>
<time>2022-05-27T12:54:03Z</time>
</trkpt>
<trkpt lat="47.678814" lon="11.185954">
<ele>644.798</ele>
<time>2022-05-27T12:54:04Z</time>
</trkpt>
<trkpt lat="47.678825" lon="11.186029">
<ele>644.798</ele>
<time>2022-05-27T12:54:05Z</time>
</trkpt>
<trkpt lat="47.678833" lon="11.186107">
<ele>644.797</ele>
<time>2022-05-27T12:54:06Z</time>
</trkpt>
<trkpt lat="47.678841" lon="11.18618">
<ele>644.798</ele>
<time>2022-05-27T12:54:08Z</time>
</trkpt>
<trkpt lat="47.67886" lon="11.186323">
<ele>644.798</ele>
<time>2022-05-27T12:54:10Z</time>
</trkpt>
<trkpt lat="47.678875" lon="11.18644">
<ele>644.798</ele>
<time>2022-05-27T12:54:12Z</time>
</trkpt>
<trkpt lat="47.678875" lon="11.18656">
<ele>644.798</ele>
<time>2022-05-27T12:54:13Z</time>
</trkpt>
<trkpt lat="47.678875" lon="11.186626">
<ele>644.798</ele>
<time>2022-05-27T12:54:14Z</time>
</trkpt>
<trkpt lat="47.678875" lon="11.186691">
<ele>644.798</ele>
<time>2022-05-27T12:54:15Z</time>
</trkpt>
<trkpt lat="47.678875" lon="11.186757">
<ele>644.798</ele>
<time>2022-05-27T12:54:16Z</time>
</trkpt>
<trkpt lat="47.678879" lon="11.186822">
<ele>644.798</ele>
<time>2022-05-27T12:54:18Z</time>
</trkpt>
<trkpt lat="47.678883" lon="11.18688">
<ele>644.798</ele>
<time>2022-05-27T12:54:19Z</time>
</trkpt>
<trkpt lat="47.678894" lon="11.186998">
<ele>644.798</ele>
<time>2022-05-27T12:54:20Z</time>
</trkpt>
<trkpt lat="47.678902" lon="11.187057">
<ele>644.798</ele>
<time>2022-05-27T12:54:21Z</time>
</trkpt>
<trkpt lat="47.678909" lon="11.187121">
<ele>644.798</ele>
<time>2022-05-27T12:54:22Z</time>
</trkpt>
<trkpt lat="47.678925" lon="11.187172">
<ele>644.798</ele>
<time>2022-05-27T12:54:23Z</time>
</trkpt>
<trkpt lat="47.67894" lon="11.187232">
<ele>644.798</ele>
<time>2022-05-27T12:54:24Z</time>
</trkpt>
<trkpt lat="47.678947" lon="11.187288">
<ele>644.798</ele>
<time>2022-05-27T12:54:26Z</time>
</trkpt>
<trkpt lat="47.678951" lon="11.187353">
<ele>644.798</ele>
<time>2022-05-27T12:54:27Z</time>
</trkpt>
<trkpt lat="47.678963" lon="11.187419">
<ele>644.798</ele>
<time>2022-05-27T12:54:28Z</time>
</trkpt>
<trkpt lat="47.678997" lon="11.187511">
<ele>644.797</ele>
<time>2022-05-27T12:54:30Z</time>
</trkpt>
<trkpt lat="47.679012" lon="11.187547">
<ele>644.798</ele>
<time>2022-05-27T12:54:31Z</time>
</trkpt>
<trkpt lat="47.67902" lon="11.187578">
<ele>644.798</ele>
<time>2022-05-27T12:54:32Z</time>
</trkpt>
<trkpt lat="47.679031" lon="11.187594">
<ele>644.798</ele>
<time>2022-05-27T12:54:33Z</time>
</trkpt>
<trkpt lat="47.679043" lon="11.187609">
<ele>644.797</ele>
<time>2022-05-27T12:54:34Z</time>
</trkpt>
<trkpt lat="47.679066" lon="11.18764">
<ele>644.798</ele>
<time>2022-05-27T12:54:35Z</time>
</trkpt>
<trkpt lat="47.679077" lon="11.187652">
<ele>644.798</ele>
<time>2022-05-27T12:54:36Z</time>
</trkpt>
<trkpt lat="47.6791" lon="11.187666">
<ele>644.798</ele>
<time>2022-05-27T12:54:37Z</time>
</trkpt>
<trkpt lat="47.679115" lon="11.187681">
<ele>644.798</ele>
<time>2022-05-27T12:54:38Z</time>
</trkpt>
<trkpt lat="47.679134" lon="11.187692">
<ele>644.798</ele>
<time>2022-05-27T12:54:39Z</time>
</trkpt>
<trkpt lat="47.679153" lon="11.187714">
<ele>644.797</ele>
<time>2022-05-27T12:54:40Z</time>
</trkpt>
<trkpt lat="47.679165" lon="11.187734">
<ele>644.798</ele>
<time>2022-05-27T12:54:41Z</time>
</trkpt>
<trkpt lat="47.679176" lon="11.187754">
<ele>644.797</ele>
<time>2022-05-27T12:54:42Z</time>
</trkpt>
<trkpt lat="47.679195" lon="11.18777">
<ele>644.798</ele>
<time>2022-05-27T12:54:44Z</time>
</trkpt>
<trkpt lat="47.679207" lon="11.187794">
<ele>644.798</ele>
<time>2022-05-27T12:54:45Z</time>
</trkpt>
<trkpt lat="47.679211" lon="11.187797">
<ele>644.798</ele>
<time>2022-05-27T12:54:46Z</time>
</trkpt>
<trkpt lat="47.679218" lon="11.187802">
<ele>644.797</ele>
<time>2022-05-27T12:54:48Z</time>
</trkpt>
<trkpt lat="47.679218" lon="11.187843">
<ele>644.798</ele>
<time>2022-05-27T12:54:53Z</time>
</trkpt>
<trkpt lat="47.679211" lon="11.187859">
<ele>644.798</ele>
<time>2022-05-27T12:54:55Z</time>
</trkpt>
<trkpt lat="47.679207" lon="11.187863">
<ele>644.798</ele>
<time>2022-05-27T12:54:56Z</time>
</trkpt>
<trkpt lat="47.679199" lon="11.18793">
<ele>644.798</ele>
<time>2022-05-27T12:56:10Z</time>
</trkpt>
<trkpt lat="47.679199" lon="11.187932">
<ele>644.798</ele>
<time>2022-05-27T12:56:11Z</time>
</trkpt>
<trkpt lat="47.679199" lon="11.18793">
<ele>644.557</ele>
<time>2022-05-27T12:56:12Z</time>
</trkpt>
<trkpt lat="47.679199" lon="11.187932">
<ele>644.379</ele>
<time>2022-05-27T12:56:14Z</time>
</trkpt>
<trkpt lat="47.679226" lon="11.187907">
<ele>644.318</ele>
<time>2022-05-27T12:56:47Z</time>
</trkpt>
<trkpt lat="47.67923" lon="11.187905">
<ele>644.323</ele>
<time>2022-05-27T12:56:48Z</time>
</trkpt>
<trkpt lat="47.67923" lon="11.187907">
<ele>644.327</ele>
<time>2022-05-27T12:56:50Z</time>
</trkpt>
<trkpt lat="47.679234" lon="11.187903">
<ele>644.399</ele>
<time>2022-05-27T12:56:52Z</time>
</trkpt>
<trkpt lat="47.679234" lon="11.18791">
<ele>644.387</ele>
<time>2022-05-27T12:56:54Z</time>
</trkpt>
<trkpt lat="47.679234" lon="11.187923">
<ele>644.516</ele>
<time>2022-05-27T12:57:16Z</time>
</trkpt>
<trkpt lat="47.679234" lon="11.187922">
<ele>644.718</ele>
<time>2022-05-27T12:57:17Z</time>
</trkpt>
<trkpt lat="47.679234" lon="11.18792">
<ele>645.276</ele>
<time>2022-05-27T12:57:18Z</time>
</trkpt>
<trkpt lat="47.679249" lon="11.18791">
<ele>644.884</ele>
<time>2022-05-27T12:57:29Z</time>
</trkpt>
<trkpt lat="47.679249" lon="11.187913">
<ele>644.803</ele>
<time>2022-05-27T12:57:30Z</time>
</trkpt>
<trkpt lat="47.679253" lon="11.187913">
<ele>644.447</ele>
<time>2022-05-27T12:57:31Z</time>
</trkpt>
<trkpt lat="47.679241" lon="11.187941">
<ele>644.357</ele>
<time>2022-05-27T12:57:48Z</time>
</trkpt>
<trkpt lat="47.679241" lon="11.187943">
<ele>644.276</ele>
<time>2022-05-27T12:57:49Z</time>
</trkpt>
<trkpt lat="47.679241" lon="11.187944">
<ele>644.206</ele>
<time>2022-05-27T12:57:51Z</time>
</trkpt>
<trkpt lat="47.67923" lon="11.187957">
<ele>644.333</ele>
<time>2022-05-27T12:59:14Z</time>
</trkpt>
<trkpt lat="47.679222" lon="11.187943">
<ele>644.529</ele>
<time>2022-05-27T12:59:15Z</time>
</trkpt>
<trkpt lat="47.679222" lon="11.18793">
<ele>644.596</ele>
<time>2022-05-27T12:59:16Z</time>
</trkpt>
<trkpt lat="47.679222" lon="11.18792">
<ele>644.65</ele>
<time>2022-05-27T12:59:18Z</time>
</trkpt>
<trkpt lat="47.679226" lon="11.187901">
<ele>644.788</ele>
<time>2022-05-27T12:59:19Z</time>
</trkpt>
<trkpt lat="47.679226" lon="11.187894">
<ele>644.795</ele>
<time>2022-05-27T12:59:20Z</time>
</trkpt>
<trkpt lat="47.679226" lon="11.187888">
<ele>644.798</ele>
<time>2022-05-27T12:59:21Z</time>
</trkpt>
<trkpt lat="47.679226" lon="11.187883">
<ele>644.798</ele>
<time>2022-05-27T12:59:22Z</time>
</trkpt>
<trkpt lat="47.679226" lon="11.187873">
<ele>644.797</ele>
<time>2022-05-27T12:59:23Z</time>
</trkpt>
<trkpt lat="47.679222" lon="11.187863">
<ele>644.798</ele>
<time>2022-05-27T12:59:24Z</time>
</trkpt>
<trkpt lat="47.679218" lon="11.18782">
<ele>644.798</ele>
<time>2022-05-27T12:59:39Z</time>
</trkpt>
<trkpt lat="47.679218" lon="11.187813">
<ele>644.884</ele>
<time>2022-05-27T12:59:41Z</time>
</trkpt>
<trkpt lat="47.679207" lon="11.187817">
<ele>644.987</ele>
<time>2022-05-27T12:59:42Z</time>
</trkpt>
<trkpt lat="47.679211" lon="11.187813">
<ele>645.02</ele>
<time>2022-05-27T12:59:43Z</time>
</trkpt>
<trkpt lat="47.679195" lon="11.187953">
<ele>645.035</ele>
<time>2022-05-27T13:01:23Z</time>
</trkpt>
<trkpt lat="47.679195" lon="11.187959">
<ele>645.049</ele>
<time>2022-05-27T13:01:24Z</time>
</trkpt>
<trkpt lat="47.679192" lon="11.18796">
<ele>645.058</ele>
<time>2022-05-27T13:01:25Z</time>
</trkpt>
<trkpt lat="47.679192" lon="11.18797">
<ele>645.061</ele>
<time>2022-05-27T13:01:26Z</time>
</trkpt>
<trkpt lat="47.679203" lon="11.18793">
<ele>645.061</ele>
<time>2022-05-27T13:01:40Z</time>
</trkpt>
<trkpt lat="47.679203" lon="11.187922">
<ele>645.061</ele>
<time>2022-05-27T13:01:41Z</time>
</trkpt>
<trkpt lat="47.679207" lon="11.187917">
<ele>645.061</ele>
<time>2022-05-27T13:01:42Z</time>
</trkpt>
<trkpt lat="47.679211" lon="11.187911">
<ele>645.061</ele>
<time>2022-05-27T13:01:43Z</time>
</trkpt>
<trkpt lat="47.679173" lon="11.18789">
<ele>645.061</ele>
<time>2022-05-27T13:04:44Z</time>
</trkpt>
<trkpt lat="47.679176" lon="11.187885">
<ele>645.061</ele>
<time>2022-05-27T13:04:45Z</time>
</trkpt>
<trkpt lat="47.67918" lon="11.187873">
<ele>645.061</ele>
<time>2022-05-27T13:04:47Z</time>
</trkpt>
<trkpt lat="47.679234" lon="11.1878">
<ele>645.061</ele>
<time>2022-05-27T13:04:58Z</time>
</trkpt>
<trkpt lat="47.679237" lon="11.187796">
<ele>645.061</ele>
<time>2022-05-27T13:04:59Z</time>
</trkpt>
<trkpt lat="47.679249" lon="11.187773">
<ele>645.061</ele>
<time>2022-05-27T13:05:00Z</time>
</trkpt>
<trkpt lat="47.679253" lon="11.187765">
<ele>645.061</ele>
<time>2022-05-27T13:05:02Z</time>
</trkpt>
<trkpt lat="47.679256" lon="11.18776">
<ele>645.061</ele>
<time>2022-05-27T13:05:03Z</time>
</trkpt>
<trkpt lat="47.67926" lon="11.187752">
<ele>645.061</ele>
<time>2022-05-27T13:05:04Z</time>
</trkpt>
<trkpt lat="47.67926" lon="11.187748">
<ele>645.061</ele>
<time>2022-05-27T13:05:05Z</time>
</trkpt>
<trkpt lat="47.679348" lon="11.187696">
<ele>645.061</ele>
<time>2022-05-27T13:06:07Z</time>
</trkpt>
<trkpt lat="47.679352" lon="11.187697">
<ele>645.061</ele>
<time>2022-05-27T13:06:08Z</time>
</trkpt>
<trkpt lat="47.679359" lon="11.187696">
<ele>645.061</ele>
<time>2022-05-27T13:06:10Z</time>
</trkpt>
<trkpt lat="47.679283" lon="11.187725">
<ele>645.061</ele>
<time>2022-05-27T13:08:09Z</time>
</trkpt>
<trkpt lat="47.679279" lon="11.187715">
<ele>645.061</ele>
<time>2022-05-27T13:08:10Z</time>
</trkpt>
<trkpt lat="47.679276" lon="11.187705">
<ele>645.061</ele>
<time>2022-05-27T13:08:11Z</time>
</trkpt>
<trkpt lat="47.679268" lon="11.187696">
<ele>645.061</ele>
<time>2022-05-27T13:08:12Z</time>
</trkpt>
<trkpt lat="47.679272" lon="11.187683">
<ele>645.061</ele>
<time>2022-05-27T13:08:13Z</time>
</trkpt>
<trkpt lat="47.679268" lon="11.18768">
<ele>645.061</ele>
<time>2022-05-27T13:08:14Z</time>
</trkpt>
<trkpt lat="47.679276" lon="11.187675">
<ele>645.061</ele>
<time>2022-05-27T13:08:15Z</time>
</trkpt>
<trkpt lat="47.679283" lon="11.187668">
<ele>645.061</ele>
<time>2022-05-27T13:08:16Z</time>
</trkpt>
<trkpt lat="47.679287" lon="11.18767">
<ele>645.061</ele>
<time>2022-05-27T13:08:17Z</time>
</trkpt>
<trkpt lat="47.679298" lon="11.187676">
<ele>645.061</ele>
<time>2022-05-27T13:08:18Z</time>
</trkpt>
<trkpt lat="47.679295" lon="11.187687">
<ele>645.061</ele>
<time>2022-05-27T13:08:20Z</time>
</trkpt>
<trkpt lat="47.679253" lon="11.187737">
<ele>645.061</ele>
<time>2022-05-27T13:08:23Z</time>
</trkpt>
<trkpt lat="47.679253" lon="11.187743">
<ele>645.061</ele>
<time>2022-05-27T13:08:24Z</time>
</trkpt>
<trkpt lat="47.679253" lon="11.187738">
<ele>645.061</ele>
<time>2022-05-27T13:08:25Z</time>
</trkpt>
<trkpt lat="47.679272" lon="11.187737">
<ele>645.062</ele>
<time>2022-05-27T13:08:26Z</time>
</trkpt>
<trkpt lat="47.679283" lon="11.187722">
<ele>645.061</ele>
<time>2022-05-27T13:08:27Z</time>
</trkpt>
<trkpt lat="47.679379" lon="11.187712">
<ele>645.061</ele>
<time>2022-05-27T13:08:35Z</time>
</trkpt>
<trkpt lat="47.679386" lon="11.18771">
<ele>645.061</ele>
<time>2022-05-27T13:08:36Z</time>
</trkpt>
<trkpt lat="47.679398" lon="11.18771">
<ele>645.061</ele>
<time>2022-05-27T13:08:37Z</time>
</trkpt>
<trkpt lat="47.679398" lon="11.187722">
<ele>645.061</ele>
<time>2022-05-27T13:08:38Z</time>
</trkpt>
<trkpt lat="47.679394" lon="11.187731">
<ele>645.061</ele>
<time>2022-05-27T13:08:40Z</time>
</trkpt>
<trkpt lat="47.679405" lon="11.187741">
<ele>645.061</ele>
<time>2022-05-27T13:08:42Z</time>
</trkpt>
<trkpt lat="47.679405" lon="11.187748">
<ele>645.061</ele>
<time>2022-05-27T13:08:43Z</time>
</trkpt>
<trkpt lat="47.679409" lon="11.187752">
<ele>645.061</ele>
<time>2022-05-27T13:08:45Z</time>
</trkpt>
<trkpt lat="47.679359" lon="11.187812">
<ele>645.061</ele>
<time>2022-05-27T13:09:00Z</time>
</trkpt>
<trkpt lat="47.679356" lon="11.187808">
<ele>645.061</ele>
<time>2022-05-27T13:09:01Z</time>
</trkpt>
<trkpt lat="47.679356" lon="11.187812">
<ele>645.061</ele>
<time>2022-05-27T13:09:02Z</time>
</trkpt>
<trkpt lat="47.679359" lon="11.187804">
<ele>645.062</ele>
<time>2022-05-27T13:09:03Z</time>
</trkpt>
<trkpt lat="47.679344" lon="11.187767">
<ele>645.062</ele>
<time>2022-05-27T13:09:09Z</time>
</trkpt>
<trkpt lat="47.679348" lon="11.187765">
<ele>645.061</ele>
<time>2022-05-27T13:09:10Z</time>
</trkpt>
<trkpt lat="47.679348" lon="11.187762">
<ele>645.061</ele>
<time>2022-05-27T13:09:11Z</time>
</trkpt>
<trkpt lat="47.679356" lon="11.187757">
<ele>645.062</ele>
<time>2022-05-27T13:09:12Z</time>
</trkpt>
<trkpt lat="47.679359" lon="11.187758">
<ele>645.061</ele>
<time>2022-05-27T13:09:13Z</time>
</trkpt>
<trkpt lat="47.679356" lon="11.187765">
<ele>645.061</ele>
<time>2022-05-27T13:09:14Z</time>
</trkpt>
<trkpt lat="47.679344" lon="11.18777">
<ele>645.061</ele>
<time>2022-05-27T13:09:15Z</time>
</trkpt>
<trkpt lat="47.679352" lon="11.187773">
<ele>645.061</ele>
<time>2022-05-27T13:09:16Z</time>
</trkpt>
<trkpt lat="47.679363" lon="11.187762">
<ele>645.061</ele>
<time>2022-05-27T13:09:17Z</time>
</trkpt>
<trkpt lat="47.679348" lon="11.187757">
<ele>645.061</ele>
<time>2022-05-27T13:09:18Z</time>
</trkpt>
<trkpt lat="47.679352" lon="11.187752">
<ele>645.061</ele>
<time>2022-05-27T13:09:19Z</time>
</trkpt>
<trkpt lat="47.679348" lon="11.187755">
<ele>645.061</ele>
<time>2022-05-27T13:09:20Z</time>
</trkpt>
<trkpt lat="47.679306" lon="11.187788">
<ele>645.061</ele>
<time>2022-05-27T13:09:26Z</time>
</trkpt>
<trkpt lat="47.679306" lon="11.187797">
<ele>645.061</ele>
<time>2022-05-27T13:09:27Z</time>
</trkpt>
<trkpt lat="47.679325" lon="11.1878">
<ele>645.061</ele>
<time>2022-05-27T13:09:28Z</time>
</trkpt>
<trkpt lat="47.679329" lon="11.187797">
<ele>645.061</ele>
<time>2022-05-27T13:09:29Z</time>
</trkpt>
<trkpt lat="47.679325" lon="11.187799">
<ele>645.061</ele>
<time>2022-05-27T13:09:30Z</time>
</trkpt>
<trkpt lat="47.679317" lon="11.187804">
<ele>645.061</ele>
<time>2022-05-27T13:09:31Z</time>
</trkpt>
<trkpt lat="47.679314" lon="11.187806">
<ele>645.061</ele>
<time>2022-05-27T13:09:32Z</time>
</trkpt>
<trkpt lat="47.679302" lon="11.187823">
<ele>645.061</ele>
<time>2022-05-27T13:09:34Z</time>
</trkpt>
<trkpt lat="47.67931" lon="11.187827">
<ele>645.061</ele>
<time>2022-05-27T13:09:35Z</time>
</trkpt>
<trkpt lat="47.679321" lon="11.187841">
<ele>645.061</ele>
<time>2022-05-27T13:09:36Z</time>
</trkpt>
<trkpt lat="47.679325" lon="11.187855">
<ele>645.061</ele>
<time>2022-05-27T13:09:37Z</time>
</trkpt>
<trkpt lat="47.679329" lon="11.187853">
<ele>645.061</ele>
<time>2022-05-27T13:09:38Z</time>
</trkpt>
<trkpt lat="47.679333" lon="11.18785">
<ele>645.061</ele>
<time>2022-05-27T13:09:39Z</time>
</trkpt>
<trkpt lat="47.679333" lon="11.18784">
<ele>645.061</ele>
<time>2022-05-27T13:09:40Z</time>
</trkpt>
<trkpt lat="47.679298" lon="11.187853">
<ele>645.061</ele>
<time>2022-05-27T13:09:41Z</time>
</trkpt>
<trkpt lat="47.679298" lon="11.187857">
<ele>645.061</ele>
<time>2022-05-27T13:09:42Z</time>
</trkpt>
<trkpt lat="47.679314" lon="11.187857">
<ele>645.061</ele>
<time>2022-05-27T13:09:43Z</time>
</trkpt>
<trkpt lat="47.679306" lon="11.187859">
<ele>645.061</ele>
<time>2022-05-27T13:09:44Z</time>
</trkpt>
<trkpt lat="47.679306" lon="11.18786">
<ele>645.061</ele>
<time>2022-05-27T13:09:45Z</time>
</trkpt>
<trkpt lat="47.679321" lon="11.187797">
<ele>645.062</ele>
<time>2022-05-27T13:10:03Z</time>
</trkpt>
<trkpt lat="47.679333" lon="11.187787">
<ele>645.061</ele>
<time>2022-05-27T13:10:05Z</time>
</trkpt>
<trkpt lat="47.679337" lon="11.187788">
<ele>645.061</ele>
<time>2022-05-27T13:10:06Z</time>
</trkpt>
<trkpt lat="47.679325" lon="11.187812">
<ele>645.061</ele>
<time>2022-05-27T13:10:18Z</time>
</trkpt>
<trkpt lat="47.679329" lon="11.187804">
<ele>645.061</ele>
<time>2022-05-27T13:10:19Z</time>
</trkpt>
<trkpt lat="47.679337" lon="11.187794">
<ele>645.061</ele>
<time>2022-05-27T13:10:20Z</time>
</trkpt>
<trkpt lat="47.679359" lon="11.187779">
<ele>645.061</ele>
<time>2022-05-27T13:10:21Z</time>
</trkpt>
<trkpt lat="47.67939" lon="11.187732">
<ele>645.061</ele>
<time>2022-05-27T13:10:28Z</time>
</trkpt>
<trkpt lat="47.679394" lon="11.187723">
<ele>645.061</ele>
<time>2022-05-27T13:10:29Z</time>
</trkpt>
<trkpt lat="47.679401" lon="11.187731">
<ele>645.061</ele>
<time>2022-05-27T13:10:31Z</time>
</trkpt>
<trkpt lat="47.679394" lon="11.187734">
<ele>645.061</ele>
<time>2022-05-27T13:10:32Z</time>
</trkpt>
<trkpt lat="47.679386" lon="11.187737">
<ele>645.061</ele>
<time>2022-05-27T13:10:33Z</time>
</trkpt>
<trkpt lat="47.679394" lon="11.187741">
<ele>645.061</ele>
<time>2022-05-27T13:10:35Z</time>
</trkpt>
<trkpt lat="47.679409" lon="11.187718">
<ele>645.061</ele>
<time>2022-05-27T13:10:46Z</time>
</trkpt>
<trkpt lat="47.679405" lon="11.187723">
<ele>645.061</ele>
<time>2022-05-27T13:10:47Z</time>
</trkpt>
<trkpt lat="47.679405" lon="11.187727">
<ele>645.061</ele>
<time>2022-05-27T13:10:48Z</time>
</trkpt>
<trkpt lat="47.679401" lon="11.187731">
<ele>645.061</ele>
<time>2022-05-27T13:10:49Z</time>
</trkpt>
<trkpt lat="47.679386" lon="11.187706">
<ele>645.061</ele>
<time>2022-05-27T13:10:52Z</time>
</trkpt>
<trkpt lat="47.679386" lon="11.187705">
<ele>645.061</ele>
<time>2022-05-27T13:10:53Z</time>
</trkpt>
<trkpt lat="47.67939" lon="11.187689">
<ele>645.061</ele>
<time>2022-05-27T13:10:54Z</time>
</trkpt>
<trkpt lat="47.679401" lon="11.187674">
<ele>645.061</ele>
<time>2022-05-27T13:10:55Z</time>
</trkpt>
<trkpt lat="47.679409" lon="11.18766">
<ele>645.061</ele>
<time>2022-05-27T13:10:56Z</time>
</trkpt>
<trkpt lat="47.679401" lon="11.187657">
<ele>645.061</ele>
<time>2022-05-27T13:10:57Z</time>
</trkpt>
<trkpt lat="47.679386" lon="11.18767">
<ele>645.061</ele>
<time>2022-05-27T13:10:58Z</time>
</trkpt>
<trkpt lat="47.679379" lon="11.187666">
<ele>645.061</ele>
<time>2022-05-27T13:10:59Z</time>
</trkpt>
<trkpt lat="47.679367" lon="11.187666">
<ele>645.061</ele>
<time>2022-05-27T13:11:00Z</time>
</trkpt>
<trkpt lat="47.679375" lon="11.187683">
<ele>645.061</ele>
<time>2022-05-27T13:11:01Z</time>
</trkpt>
<trkpt lat="47.679379" lon="11.187692">
<ele>645.062</ele>
<time>2022-05-27T13:11:02Z</time>
</trkpt>
<trkpt lat="47.679371" lon="11.187697">
<ele>645.062</ele>
<time>2022-05-27T13:11:03Z</time>
</trkpt>
<trkpt lat="47.679409" lon="11.187723">
<ele>645.061</ele>
<time>2022-05-27T13:11:07Z</time>
</trkpt>
<trkpt lat="47.679405" lon="11.187731">
<ele>645.061</ele>
<time>2022-05-27T13:11:08Z</time>
</trkpt>
<trkpt lat="47.679413" lon="11.187729">
<ele>645.061</ele>
<time>2022-05-27T13:11:09Z</time>
</trkpt>
<trkpt lat="47.67942" lon="11.187734">
<ele>645.061</ele>
<time>2022-05-27T13:11:10Z</time>
</trkpt>
<trkpt lat="47.679432" lon="11.187741">
<ele>645.061</ele>
<time>2022-05-27T13:11:11Z</time>
</trkpt>
<trkpt lat="47.679436" lon="11.187745">
<ele>645.061</ele>
<time>2022-05-27T13:11:12Z</time>
</trkpt>
<trkpt lat="47.679436" lon="11.187739">
<ele>645.061</ele>
<time>2022-05-27T13:11:13Z</time>
</trkpt>
<trkpt lat="47.679428" lon="11.187727">
<ele>645.061</ele>
<time>2022-05-27T13:11:14Z</time>
</trkpt>
<trkpt lat="47.679417" lon="11.187698">
<ele>645.061</ele>
<time>2022-05-27T13:11:15Z</time>
</trkpt>
<trkpt lat="47.679409" lon="11.187685">
<ele>645.061</ele>
<time>2022-05-27T13:11:16Z</time>
</trkpt>
<trkpt lat="47.679401" lon="11.187674">
<ele>645.061</ele>
<time>2022-05-27T13:11:17Z</time>
</trkpt>
<trkpt lat="47.679394" lon="11.187668">
<ele>645.061</ele>
<time>2022-05-27T13:11:18Z</time>
</trkpt>
<trkpt lat="47.679379" lon="11.18767">
<ele>645.061</ele>
<time>2022-05-27T13:11:19Z</time>
</trkpt>
<trkpt lat="47.679363" lon="11.18768">
<ele>645.061</ele>
<time>2022-05-27T13:11:20Z</time>
</trkpt>
<trkpt lat="47.679329" lon="11.187698">
<ele>645.061</ele>
<time>2022-05-27T13:11:21Z</time>
</trkpt>
<trkpt lat="47.67931" lon="11.187708">
<ele>645.061</ele>
<time>2022-05-27T13:11:22Z</time>
</trkpt>
<trkpt lat="47.67931" lon="11.187731">
<ele>645.061</ele>
<time>2022-05-27T13:11:23Z</time>
</trkpt>
<trkpt lat="47.679314" lon="11.187731">
<ele>645.061</ele>
<time>2022-05-27T13:11:24Z</time>
</trkpt>
<trkpt lat="47.679321" lon="11.187745">
<ele>645.061</ele>
<time>2022-05-27T13:11:25Z</time>
</trkpt>
<trkpt lat="47.679314" lon="11.187737">
<ele>645.061</ele>
<time>2022-05-27T13:11:26Z</time>
</trkpt>
<trkpt lat="47.679321" lon="11.187755">
<ele>645.061</ele>
<time>2022-05-27T13:11:28Z</time>
</trkpt>
<trkpt lat="47.679325" lon="11.187777">
<ele>645.061</ele>
<time>2022-05-27T13:11:29Z</time>
</trkpt>
<trkpt lat="47.679329" lon="11.187787">
<ele>645.061</ele>
<time>2022-05-27T13:11:30Z</time>
</trkpt>
<trkpt lat="47.679333" lon="11.18779">
<ele>645.061</ele>
<time>2022-05-27T13:11:31Z</time>
</trkpt>
<trkpt lat="47.679329" lon="11.187802">
<ele>645.061</ele>
<time>2022-05-27T13:11:32Z</time>
</trkpt>
<trkpt lat="47.67931" lon="11.187813">
<ele>645.061</ele>
<time>2022-05-27T13:11:33Z</time>
</trkpt>
<trkpt lat="47.679298" lon="11.18781">
<ele>645.061</ele>
<time>2022-05-27T13:11:34Z</time>
</trkpt>
<trkpt lat="47.679291" lon="11.187806">
<ele>645.061</ele>
<time>2022-05-27T13:11:35Z</time>
</trkpt>
<trkpt lat="47.679283" lon="11.187806">
<ele>645.061</ele>
<time>2022-05-27T13:11:36Z</time>
</trkpt>
<trkpt lat="47.679283" lon="11.18781">
<ele>645.061</ele>
<time>2022-05-27T13:11:37Z</time>
</trkpt>
<trkpt lat="47.679287" lon="11.187812">
<ele>645.061</ele>
<time>2022-05-27T13:11:38Z</time>
</trkpt>
<trkpt lat="47.679279" lon="11.187813">
<ele>645.061</ele>
<time>2022-05-27T13:11:39Z</time>
</trkpt>
<trkpt lat="47.679272" lon="11.187825">
<ele>645.061</ele>
<time>2022-05-27T13:11:40Z</time>
</trkpt>
<trkpt lat="47.679272" lon="11.187827">
<ele>645.061</ele>
<time>2022-05-27T13:11:41Z</time>
</trkpt>
<trkpt lat="47.679268" lon="11.187828">
<ele>645.061</ele>
<time>2022-05-27T13:11:42Z</time>
</trkpt>
<trkpt lat="47.679276" lon="11.18782">
<ele>645.061</ele>
<time>2022-05-27T13:11:43Z</time>
</trkpt>
<trkpt lat="47.679276" lon="11.187808">
<ele>645.061</ele>
<time>2022-05-27T13:11:44Z</time>
</trkpt>
<trkpt lat="47.679276" lon="11.187792">
<ele>645.061</ele>
<time>2022-05-27T13:11:45Z</time>
</trkpt>
<trkpt lat="47.679276" lon="11.187788">
<ele>645.062</ele>
<time>2022-05-27T13:11:46Z</time>
</trkpt>
<trkpt lat="47.679268" lon="11.187767">
<ele>645.062</ele>
<time>2022-05-27T13:11:47Z</time>
</trkpt>
<trkpt lat="47.67926" lon="11.18776">
<ele>645.061</ele>
<time>2022-05-27T13:11:48Z</time>
</trkpt>
<trkpt lat="47.67926" lon="11.187752">
<ele>645.061</ele>
<time>2022-05-27T13:11:49Z</time>
</trkpt>
<trkpt lat="47.67926" lon="11.187743">
<ele>645.061</ele>
<time>2022-05-27T13:11:50Z</time>
</trkpt>
<trkpt lat="47.679283" lon="11.187731">
<ele>645.061</ele>
<time>2022-05-27T13:11:51Z</time>
</trkpt>
<trkpt lat="47.679298" lon="11.187727">
<ele>645.061</ele>
<time>2022-05-27T13:11:52Z</time>
</trkpt>
<trkpt lat="47.679295" lon="11.187725">
<ele>645.061</ele>
<time>2022-05-27T13:11:53Z</time>
</trkpt>
<trkpt lat="47.679302" lon="11.187722">
<ele>645.061</ele>
<time>2022-05-27T13:11:57Z</time>
</trkpt>
<trkpt lat="47.67931" lon="11.187716">
<ele>645.061</ele>
<time>2022-05-27T13:11:58Z</time>
</trkpt>
<trkpt lat="47.679325" lon="11.187716">
<ele>645.061</ele>
<time>2022-05-27T13:11:59Z</time>
</trkpt>
<trkpt lat="47.679333" lon="11.187727">
<ele>645.061</ele>
<time>2022-05-27T13:12:00Z</time>
</trkpt>
<trkpt lat="47.679333" lon="11.187729">
<ele>645.062</ele>
<time>2022-05-27T13:12:01Z</time>
</trkpt>
<trkpt lat="47.679298" lon="11.187722">
<ele>645.061</ele>
<time>2022-05-27T13:12:13Z</time>
</trkpt>
<trkpt lat="47.679279" lon="11.187697">
<ele>645.061</ele>
<time>2022-05-27T13:12:14Z</time>
</trkpt>
<trkpt lat="47.679272" lon="11.187698">
<ele>645.061</ele>
<time>2022-05-27T13:12:15Z</time>
</trkpt>
<trkpt lat="47.679276" lon="11.18776">
<ele>645.061</ele>
<time>2022-05-27T13:12:17Z</time>
</trkpt>
<trkpt lat="47.679272" lon="11.187792">
<ele>645.061</ele>
<time>2022-05-27T13:12:19Z</time>
</trkpt>
<trkpt lat="47.679234" lon="11.187808">
<ele>645.061</ele>
<time>2022-05-27T13:12:21Z</time>
</trkpt>
<trkpt lat="47.67923" lon="11.187817">
<ele>645.061</ele>
<time>2022-05-27T13:12:22Z</time>
</trkpt>
<trkpt lat="47.679222" lon="11.187821">
<ele>645.061</ele>
<time>2022-05-27T13:12:23Z</time>
</trkpt>
<trkpt lat="47.679199" lon="11.18783">
<ele>645.061</ele>
<time>2022-05-27T13:12:24Z</time>
</trkpt>
<trkpt lat="47.679237" lon="11.187817">
<ele>645.061</ele>
<time>2022-05-27T13:12:26Z</time>
</trkpt>
<trkpt lat="47.679337" lon="11.187752">
<ele>645.061</ele>
<time>2022-05-27T13:12:27Z</time>
</trkpt>
<trkpt lat="47.679356" lon="11.187878">
<ele>645.061</ele>
<time>2022-05-27T13:13:56Z</time>
</trkpt>
<trkpt lat="47.679329" lon="11.187836">
<ele>645.061</ele>
<time>2022-05-27T13:13:57Z</time>
</trkpt>
<trkpt lat="47.679329" lon="11.18783">
<ele>645.061</ele>
<time>2022-05-27T13:13:59Z</time>
</trkpt>
<trkpt lat="47.679333" lon="11.187823">
<ele>645.061</ele>
<time>2022-05-27T13:14:00Z</time>
</trkpt>
<trkpt lat="47.679321" lon="11.187808">
<ele>645.061</ele>
<time>2022-05-27T13:14:01Z</time>
</trkpt>
<trkpt lat="47.679321" lon="11.18781">
<ele>645.061</ele>
<time>2022-05-27T13:14:02Z</time>
</trkpt>
<trkpt lat="47.679298" lon="11.187804">
<ele>645.061</ele>
<time>2022-05-27T13:14:03Z</time>
</trkpt>
<trkpt lat="47.679298" lon="11.187802">
<ele>645.061</ele>
<time>2022-05-27T13:14:04Z</time>
</trkpt>
<trkpt lat="47.679283" lon="11.187819">
<ele>645.061</ele>
<time>2022-05-27T13:14:05Z</time>
</trkpt>
<trkpt lat="47.679287" lon="11.187837">
<ele>645.061</ele>
<time>2022-05-27T13:14:06Z</time>
</trkpt>
<trkpt lat="47.679256" lon="11.187834">
<ele>645.061</ele>
<time>2022-05-27T13:14:07Z</time>
</trkpt>
<trkpt lat="47.679253" lon="11.187843">
<ele>645.061</ele>
<time>2022-05-27T13:14:08Z</time>
</trkpt>
<trkpt lat="47.679264" lon="11.18786">
<ele>645.061</ele>
<time>2022-05-27T13:14:09Z</time>
</trkpt>
<trkpt lat="47.679249" lon="11.187867">
<ele>645.061</ele>
<time>2022-05-27T13:14:10Z</time>
</trkpt>
<trkpt lat="47.679241" lon="11.18787">
<ele>645.061</ele>
<time>2022-05-27T13:14:11Z</time>
</trkpt>
<trkpt lat="47.67926" lon="11.18787">
<ele>645.061</ele>
<time>2022-05-27T13:14:12Z</time>
</trkpt>
<trkpt lat="47.679298" lon="11.18785">
<ele>645.061</ele>
<time>2022-05-27T13:14:13Z</time>
</trkpt>
<trkpt lat="47.679287" lon="11.187848">
<ele>645.061</ele>
<time>2022-05-27T13:14:14Z</time>
</trkpt>
<trkpt lat="47.679279" lon="11.187846">
<ele>645.061</ele>
<time>2022-05-27T13:14:15Z</time>
</trkpt>
<trkpt lat="47.679276" lon="11.187837">
<ele>645.061</ele>
<time>2022-05-27T13:14:16Z</time>
</trkpt>
<trkpt lat="47.679264" lon="11.187832">
<ele>645.061</ele>
<time>2022-05-27T13:14:17Z</time>
</trkpt>
<trkpt lat="47.67926" lon="11.187819">
<ele>645.061</ele>
<time>2022-05-27T13:14:18Z</time>
</trkpt>
<trkpt lat="47.679264" lon="11.187838">
<ele>645.061</ele>
<time>2022-05-27T13:14:22Z</time>
</trkpt>
<trkpt lat="47.679256" lon="11.187837">
<ele>645.061</ele>
<time>2022-05-27T13:14:23Z</time>
</trkpt>
<trkpt lat="47.679253" lon="11.187799">
<ele>645.061</ele>
<time>2022-05-27T13:14:24Z</time>
</trkpt>
<trkpt lat="47.679249" lon="11.187783">
<ele>645.061</ele>
<time>2022-05-27T13:14:25Z</time>
</trkpt>
<trkpt lat="47.679249" lon="11.187773">
<ele>645.061</ele>
<time>2022-05-27T13:14:26Z</time>
</trkpt>
<trkpt lat="47.679302" lon="11.187779">
<ele>645.062</ele>
<time>2022-05-27T13:14:31Z</time>
</trkpt>
<trkpt lat="47.67931" lon="11.187775">
<ele>645.061</ele>
<time>2022-05-27T13:14:32Z</time>
</trkpt>
<trkpt lat="47.67931" lon="11.187771">
<ele>645.061</ele>
<time>2022-05-27T13:14:33Z</time>
</trkpt>
<trkpt lat="47.67931" lon="11.187767">
<ele>645.061</ele>
<time>2022-05-27T13:14:34Z</time>
</trkpt>
<trkpt lat="47.679306" lon="11.187762">
<ele>645.062</ele>
<time>2022-05-27T13:14:35Z</time>
</trkpt>
<trkpt lat="47.679287" lon="11.187734">
<ele>645.061</ele>
<time>2022-05-27T13:14:44Z</time>
</trkpt>
<trkpt lat="47.679287" lon="11.187735">
<ele>645.061</ele>
<time>2022-05-27T13:14:45Z</time>
</trkpt>
<trkpt lat="47.679291" lon="11.187737">
<ele>645.061</ele>
<time>2022-05-27T13:14:46Z</time>
</trkpt>
<trkpt lat="47.679298" lon="11.187737">
<ele>645.062</ele>
<time>2022-05-27T13:14:47Z</time>
</trkpt>
<trkpt lat="47.679291" lon="11.187739">
<ele>645.061</ele>
<time>2022-05-27T13:14:48Z</time>
</trkpt>
<trkpt lat="47.679298" lon="11.187745">
<ele>645.061</ele>
<time>2022-05-27T13:14:49Z</time>
</trkpt>
<trkpt lat="47.679298" lon="11.187739">
<ele>645.061</ele>
<time>2022-05-27T13:15:05Z</time>
</trkpt>
<trkpt lat="47.679291" lon="11.187731">
<ele>645.061</ele>
<time>2022-05-27T13:15:06Z</time>
</trkpt>
<trkpt lat="47.679291" lon="11.187727">
<ele>645.061</ele>
<time>2022-05-27T13:15:07Z</time>
</trkpt>
<trkpt lat="47.679295" lon="11.187727">
<ele>645.061</ele>
<time>2022-05-27T13:15:08Z</time>
</trkpt>
<trkpt lat="47.679291" lon="11.187723">
<ele>645.061</ele>
<time>2022-05-27T13:15:09Z</time>
</trkpt>
<trkpt lat="47.679291" lon="11.18772">
<ele>645.061</ele>
<time>2022-05-27T13:15:10Z</time>
</trkpt>
<trkpt lat="47.679237" lon="11.18783">
<ele>645.061</ele>
<time>2022-05-27T13:16:34Z</time>
</trkpt>
<trkpt lat="47.679237" lon="11.187834">
<ele>645.061</ele>
<time>2022-05-27T13:16:36Z</time>
</trkpt>
<trkpt lat="47.679241" lon="11.187837">
<ele>645.061</ele>
<time>2022-05-27T13:16:37Z</time>
</trkpt>
<trkpt lat="47.679264" lon="11.187837">
<ele>645.061</ele>
<time>2022-05-27T13:17:06Z</time>
</trkpt>
<trkpt lat="47.679264" lon="11.187827">
<ele>645.061</ele>
<time>2022-05-27T13:17:07Z</time>
</trkpt>
<trkpt lat="47.679264" lon="11.187817">
<ele>645.061</ele>
<time>2022-05-27T13:17:09Z</time>
</trkpt>
<trkpt lat="47.679272" lon="11.18781">
<ele>645.062</ele>
<time>2022-05-27T13:17:29Z</time>
</trkpt>
<trkpt lat="47.679272" lon="11.187808">
<ele>645.061</ele>
<time>2022-05-27T13:17:30Z</time>
</trkpt>
<trkpt lat="47.679272" lon="11.187806">
<ele>645.061</ele>
<time>2022-05-27T13:17:31Z</time>
</trkpt>
<trkpt lat="47.679218" lon="11.187737">
<ele>645.061</ele>
<time>2022-05-27T13:27:54Z</time>
</trkpt>
<trkpt lat="47.679214" lon="11.187732">
<ele>645.061</ele>
<time>2022-05-27T13:27:55Z</time>
</trkpt>
<trkpt lat="47.679214" lon="11.187727">
<ele>645.061</ele>
<time>2022-05-27T13:27:57Z</time>
</trkpt>
<trkpt lat="47.679211" lon="11.187722">
<ele>645.061</ele>
<time>2022-05-27T13:27:58Z</time>
</trkpt>
<trkpt lat="47.679184" lon="11.187703">
<ele>645.061</ele>
<time>2022-05-27T13:28:21Z</time>
</trkpt>
<trkpt lat="47.679188" lon="11.187703">
<ele>645.061</ele>
<time>2022-05-27T13:28:22Z</time>
</trkpt>
<trkpt lat="47.679234" lon="11.187748">
<ele>645.061</ele>
<time>2022-05-27T13:30:06Z</time>
</trkpt>
<trkpt lat="47.679237" lon="11.187748">
<ele>645.061</ele>
<time>2022-05-27T13:30:07Z</time>
</trkpt>
<trkpt lat="47.679234" lon="11.187747">
<ele>645.061</ele>
<time>2022-05-27T13:30:08Z</time>
</trkpt>
<trkpt lat="47.679234" lon="11.187745">
<ele>645.061</ele>
<time>2022-05-27T13:30:10Z</time>
</trkpt>
<trkpt lat="47.679264" lon="11.187762">
<ele>645.061</ele>
<time>2022-05-27T13:30:38Z</time>
</trkpt>
<trkpt lat="47.679268" lon="11.187762">
<ele>645.061</ele>
<time>2022-05-27T13:30:39Z</time>
</trkpt>
<trkpt lat="47.679272" lon="11.187762">
<ele>645.061</ele>
<time>2022-05-27T13:30:40Z</time>
</trkpt>
<trkpt lat="47.679272" lon="11.187755">
<ele>645.061</ele>
<time>2022-05-27T13:30:41Z</time>
</trkpt>
<trkpt lat="47.679272" lon="11.187752">
<ele>645.061</ele>
<time>2022-05-27T13:30:43Z</time>
</trkpt>
<trkpt lat="47.679272" lon="11.187743">
<ele>645.061</ele>
<time>2022-05-27T13:30:44Z</time>
</trkpt>
<trkpt lat="47.679298" lon="11.18776">
<ele>645.061</ele>
<time>2022-05-27T13:30:49Z</time>
</trkpt>
<trkpt lat="47.679306" lon="11.187773">
<ele>645.061</ele>
<time>2022-05-27T13:30:50Z</time>
</trkpt>
<trkpt lat="47.679317" lon="11.18779">
<ele>645.061</ele>
<time>2022-05-27T13:30:51Z</time>
</trkpt>
<trkpt lat="47.679329" lon="11.187783">
<ele>645.061</ele>
<time>2022-05-27T13:30:53Z</time>
</trkpt>
<trkpt lat="47.679333" lon="11.187778">
<ele>645.061</ele>
<time>2022-05-27T13:30:55Z</time>
</trkpt>
<trkpt lat="47.679321" lon="11.187781">
<ele>645.061</ele>
<time>2022-05-27T13:30:56Z</time>
</trkpt>
<trkpt lat="47.679314" lon="11.187778">
<ele>645.061</ele>
<time>2022-05-27T13:30:57Z</time>
</trkpt>
<trkpt lat="47.679302" lon="11.187769">
<ele>645.061</ele>
<time>2022-05-27T13:30:59Z</time>
</trkpt>
<trkpt lat="47.679291" lon="11.187752">
<ele>645.061</ele>
<time>2022-05-27T13:31:01Z</time>
</trkpt>
<trkpt lat="47.679264" lon="11.187781">
<ele>645.061</ele>
<time>2022-05-27T13:31:03Z</time>
</trkpt>
<trkpt lat="47.679264" lon="11.187785">
<ele>645.061</ele>
<time>2022-05-27T13:31:05Z</time>
</trkpt>
<trkpt lat="47.679264" lon="11.187819">
<ele>645.061</ele>
<time>2022-05-27T13:31:06Z</time>
</trkpt>
<trkpt lat="47.67926" lon="11.187794">
<ele>645.061</ele>
<time>2022-05-27T13:32:42Z</time>
</trkpt>
<trkpt lat="47.679256" lon="11.187796">
<ele>645.061</ele>
<time>2022-05-27T13:32:43Z</time>
</trkpt>
<trkpt lat="47.679249" lon="11.187797">
<ele>645.061</ele>
<time>2022-05-27T13:32:44Z</time>
</trkpt>
<trkpt lat="47.679253" lon="11.187792">
<ele>645.061</ele>
<time>2022-05-27T13:32:45Z</time>
</trkpt>
<trkpt lat="47.67926" lon="11.187792">
<ele>645.061</ele>
<time>2022-05-27T13:32:47Z</time>
</trkpt>
<trkpt lat="47.679264" lon="11.18779">
<ele>645.061</ele>
<time>2022-05-27T13:32:50Z</time>
</trkpt>
<trkpt lat="47.679264" lon="11.187787">
<ele>645.061</ele>
<time>2022-05-27T13:32:51Z</time>
</trkpt>
<trkpt lat="47.679264" lon="11.187779">
<ele>645.061</ele>
<time>2022-05-27T13:32:54Z</time>
</trkpt>
<trkpt lat="47.679268" lon="11.18777">
<ele>645.061</ele>
<time>2022-05-27T13:32:55Z</time>
</trkpt>
<trkpt lat="47.679276" lon="11.187769">
<ele>645.061</ele>
<time>2022-05-27T13:32:56Z</time>
</trkpt>
<trkpt lat="47.679283" lon="11.187765">
<ele>645.061</ele>
<time>2022-05-27T13:32:57Z</time>
</trkpt>
<trkpt lat="47.679291" lon="11.18777">
<ele>645.061</ele>
<time>2022-05-27T13:32:59Z</time>
</trkpt>
<trkpt lat="47.679295" lon="11.187775">
<ele>645.061</ele>
<time>2022-05-27T13:33:00Z</time>
</trkpt>
<trkpt lat="47.679295" lon="11.187778">
<ele>645.062</ele>
<time>2022-05-27T13:33:02Z</time>
</trkpt>
<trkpt lat="47.679321" lon="11.18779">
<ele>645.061</ele>
<time>2022-05-27T13:33:05Z</time>
</trkpt>
<trkpt lat="47.679329" lon="11.187787">
<ele>645.061</ele>
<time>2022-05-27T13:33:07Z</time>
</trkpt>
<trkpt lat="47.679337" lon="11.187785">
<ele>645.061</ele>
<time>2022-05-27T13:33:08Z</time>
</trkpt>
<trkpt lat="47.679348" lon="11.18779">
<ele>645.061</ele>
<time>2022-05-27T13:33:09Z</time>
</trkpt>
<trkpt lat="47.679352" lon="11.187797">
<ele>645.061</ele>
<time>2022-05-27T13:33:10Z</time>
</trkpt>
<trkpt lat="47.679348" lon="11.187808">
<ele>645.061</ele>
<time>2022-05-27T13:33:11Z</time>
</trkpt>
<trkpt lat="47.679352" lon="11.187792">
<ele>645.061</ele>
<time>2022-05-27T13:33:12Z</time>
</trkpt>
<trkpt lat="47.679359" lon="11.187781">
<ele>645.061</ele>
<time>2022-05-27T13:33:14Z</time>
</trkpt>
<trkpt lat="47.679359" lon="11.187723">
<ele>645.061</ele>
<time>2022-05-27T13:33:24Z</time>
</trkpt>
<trkpt lat="47.679352" lon="11.187718">
<ele>645.061</ele>
<time>2022-05-27T13:33:26Z</time>
</trkpt>
<trkpt lat="47.679329" lon="11.187722">
<ele>645.061</ele>
<time>2022-05-27T13:33:27Z</time>
</trkpt>
<trkpt lat="47.67934" lon="11.187706">
<ele>645.061</ele>
<time>2022-05-27T13:33:28Z</time>
</trkpt>
<trkpt lat="47.679344" lon="11.187696">
<ele>645.061</ele>
<time>2022-05-27T13:33:29Z</time>
</trkpt>
<trkpt lat="47.679344" lon="11.187683">
<ele>645.061</ele>
<time>2022-05-27T13:33:30Z</time>
</trkpt>
<trkpt lat="47.679329" lon="11.187676">
<ele>645.061</ele>
<time>2022-05-27T13:33:31Z</time>
</trkpt>
<trkpt lat="47.679337" lon="11.187598">
<ele>645.061</ele>
<time>2022-05-27T13:33:42Z</time>
</trkpt>
<trkpt lat="47.679333" lon="11.187593">
<ele>645.061</ele>
<time>2022-05-27T13:33:43Z</time>
</trkpt>
<trkpt lat="47.679333" lon="11.187589">
<ele>645.061</ele>
<time>2022-05-27T13:33:44Z</time>
</trkpt>
<trkpt lat="47.679325" lon="11.187584">
<ele>645.061</ele>
<time>2022-05-27T13:33:45Z</time>
</trkpt>
<trkpt lat="47.67931" lon="11.187589">
<ele>645.061</ele>
<time>2022-05-27T13:33:46Z</time>
</trkpt>
<trkpt lat="47.67931" lon="11.187585">
<ele>645.061</ele>
<time>2022-05-27T13:33:47Z</time>
</trkpt>
<trkpt lat="47.679306" lon="11.187573">
<ele>645.061</ele>
<time>2022-05-27T13:33:49Z</time>
</trkpt>
<trkpt lat="47.679329" lon="11.187563">
<ele>645.061</ele>
<time>2022-05-27T13:33:50Z</time>
</trkpt>
<trkpt lat="47.679348" lon="11.187563">
<ele>645.061</ele>
<time>2022-05-27T13:33:51Z</time>
</trkpt>
<trkpt lat="47.679371" lon="11.187555">
<ele>645.061</ele>
<time>2022-05-27T13:33:52Z</time>
</trkpt>
<trkpt lat="47.679375" lon="11.187565">
<ele>645.061</ele>
<time>2022-05-27T13:33:54Z</time>
</trkpt>
<trkpt lat="47.679382" lon="11.187551">
<ele>645.061</ele>
<time>2022-05-27T13:33:57Z</time>
</trkpt>
<trkpt lat="47.679344" lon="11.187557">
<ele>645.061</ele>
<time>2022-05-27T13:33:58Z</time>
</trkpt>
<trkpt lat="47.679356" lon="11.187535">
<ele>645.061</ele>
<time>2022-05-27T13:34:00Z</time>
</trkpt>
<trkpt lat="47.679386" lon="11.187518">
<ele>645.061</ele>
<time>2022-05-27T13:34:01Z</time>
</trkpt>
<trkpt lat="47.679386" lon="11.187503">
<ele>645.061</ele>
<time>2022-05-27T13:34:02Z</time>
</trkpt>
<trkpt lat="47.679413" lon="11.187589">
<ele>645.061</ele>
<time>2022-05-27T13:34:18Z</time>
</trkpt>
<trkpt lat="47.679386" lon="11.187596">
<ele>645.062</ele>
<time>2022-05-27T13:34:19Z</time>
</trkpt>
<trkpt lat="47.679375" lon="11.187607">
<ele>645.061</ele>
<time>2022-05-27T13:34:20Z</time>
</trkpt>
<trkpt lat="47.679363" lon="11.18762">
<ele>645.061</ele>
<time>2022-05-27T13:34:22Z</time>
</trkpt>
<trkpt lat="47.679287" lon="11.187685">
<ele>645.061</ele>
<time>2022-05-27T13:34:49Z</time>
</trkpt>
<trkpt lat="47.679291" lon="11.187683">
<ele>645.061</ele>
<time>2022-05-27T13:34:50Z</time>
</trkpt>
<trkpt lat="47.679249" lon="11.187705">
<ele>645.061</ele>
<time>2022-05-27T13:35:13Z</time>
</trkpt>
<trkpt lat="47.679241" lon="11.187706">
<ele>645.061</ele>
<time>2022-05-27T13:35:14Z</time>
</trkpt>
<trkpt lat="47.679241" lon="11.187715">
<ele>645.061</ele>
<time>2022-05-27T13:35:15Z</time>
</trkpt>
<trkpt lat="47.679241" lon="11.187716">
<ele>645.061</ele>
<time>2022-05-27T13:35:16Z</time>
</trkpt>
<trkpt lat="47.679237" lon="11.187715">
<ele>645.061</ele>
<time>2022-05-27T13:35:17Z</time>
</trkpt>
<trkpt lat="47.679237" lon="11.187708">
<ele>645.061</ele>
<time>2022-05-27T13:35:18Z</time>
</trkpt>
<trkpt lat="47.679234" lon="11.187708">
<ele>645.061</ele>
<time>2022-05-27T13:35:19Z</time>
</trkpt>
<trkpt lat="47.679237" lon="11.18771">
<ele>645.061</ele>
<time>2022-05-27T13:35:20Z</time>
</trkpt>
<trkpt lat="47.679241" lon="11.187705">
<ele>645.061</ele>
<time>2022-05-27T13:35:21Z</time>
</trkpt>
<trkpt lat="47.679241" lon="11.187698">
<ele>645.061</ele>
<time>2022-05-27T13:35:22Z</time>
</trkpt>
<trkpt lat="47.679241" lon="11.187708">
<ele>645.061</ele>
<time>2022-05-27T13:35:27Z</time>
</trkpt>
<trkpt lat="47.679234" lon="11.187703">
<ele>645.062</ele>
<time>2022-05-27T13:35:29Z</time>
</trkpt>
<trkpt lat="47.67923" lon="11.187718">
<ele>645.061</ele>
<time>2022-05-27T13:35:30Z</time>
</trkpt>
<trkpt lat="47.679226" lon="11.187731">
<ele>645.061</ele>
<time>2022-05-27T13:35:31Z</time>
</trkpt>
<trkpt lat="47.67923" lon="11.187729">
<ele>645.061</ele>
<time>2022-05-27T13:35:33Z</time>
</trkpt>
<trkpt lat="47.679237" lon="11.187714">
<ele>645.061</ele>
<time>2022-05-27T13:35:35Z</time>
</trkpt>
<trkpt lat="47.679253" lon="11.18767">
<ele>645.061</ele>
<time>2022-05-27T13:35:38Z</time>
</trkpt>
<trkpt lat="47.67926" lon="11.187664">
<ele>645.061</ele>
<time>2022-05-27T13:35:39Z</time>
</trkpt>
<trkpt lat="47.679268" lon="11.18768">
<ele>645.061</ele>
<time>2022-05-27T13:35:41Z</time>
</trkpt>
<trkpt lat="47.679268" lon="11.187692">
<ele>645.061</ele>
<time>2022-05-27T13:35:42Z</time>
</trkpt>
<trkpt lat="47.679268" lon="11.187701">
<ele>645.061</ele>
<time>2022-05-27T13:35:44Z</time>
</trkpt>
<trkpt lat="47.679276" lon="11.187699">
<ele>645.061</ele>
<time>2022-05-27T13:35:45Z</time>
</trkpt>
<trkpt lat="47.679279" lon="11.187698">
<ele>645.061</ele>
<time>2022-05-27T13:35:46Z</time>
</trkpt>
<trkpt lat="47.679298" lon="11.187666">
<ele>645.061</ele>
<time>2022-05-27T13:35:49Z</time>
</trkpt>
<trkpt lat="47.679314" lon="11.187687">
<ele>645.061</ele>
<time>2022-05-27T13:35:50Z</time>
</trkpt>
<trkpt lat="47.679314" lon="11.18767">
<ele>645.061</ele>
<time>2022-05-27T13:35:51Z</time>
</trkpt>
<trkpt lat="47.679306" lon="11.18766">
<ele>645.061</ele>
<time>2022-05-27T13:35:52Z</time>
</trkpt>
<trkpt lat="47.67931" lon="11.187654">
<ele>645.061</ele>
<time>2022-05-27T13:35:54Z</time>
</trkpt>
<trkpt lat="47.67931" lon="11.187636">
<ele>645.061</ele>
<time>2022-05-27T13:35:55Z</time>
</trkpt>
<trkpt lat="47.679317" lon="11.187616">
<ele>645.061</ele>
<time>2022-05-27T13:35:56Z</time>
</trkpt>
<trkpt lat="47.679321" lon="11.187605">
<ele>645.061</ele>
<time>2022-05-27T13:35:57Z</time>
</trkpt>
<trkpt lat="47.679317" lon="11.187591">
<ele>645.061</ele>
<time>2022-05-27T13:35:58Z</time>
</trkpt>
<trkpt lat="47.679302" lon="11.187593">
<ele>645.061</ele>
<time>2022-05-27T13:35:59Z</time>
</trkpt>
<trkpt lat="47.679298" lon="11.187596">
<ele>645.061</ele>
<time>2022-05-27T13:36:01Z</time>
</trkpt>
<trkpt lat="47.679306" lon="11.187592">
<ele>645.061</ele>
<time>2022-05-27T13:36:02Z</time>
</trkpt>
<trkpt lat="47.679317" lon="11.187587">
<ele>645.061</ele>
<time>2022-05-27T13:36:04Z</time>
</trkpt>
<trkpt lat="47.679344" lon="11.187587">
<ele>645.061</ele>
<time>2022-05-27T13:36:06Z</time>
</trkpt>
<trkpt lat="47.679367" lon="11.187584">
<ele>645.061</ele>
<time>2022-05-27T13:36:08Z</time>
</trkpt>
<trkpt lat="47.679379" lon="11.187585">
<ele>645.061</ele>
<time>2022-05-27T13:36:09Z</time>
</trkpt>
<trkpt lat="47.67939" lon="11.187576">
<ele>645.061</ele>
<time>2022-05-27T13:36:10Z</time>
</trkpt>
<trkpt lat="47.679394" lon="11.187568">
<ele>645.061</ele>
<time>2022-05-27T13:36:11Z</time>
</trkpt>
<trkpt lat="47.679409" lon="11.187572">
<ele>645.061</ele>
<time>2022-05-27T13:36:12Z</time>
</trkpt>
<trkpt lat="47.679432" lon="11.187561">
<ele>645.062</ele>
<time>2022-05-27T13:36:13Z</time>
</trkpt>
<trkpt lat="47.679447" lon="11.187561">
<ele>645.061</ele>
<time>2022-05-27T13:36:15Z</time>
</trkpt>
<trkpt lat="47.679459" lon="11.187559">
<ele>645.062</ele>
<time>2022-05-27T13:36:16Z</time>
</trkpt>
<trkpt lat="47.679466" lon="11.187561">
<ele>645.061</ele>
<time>2022-05-27T13:36:17Z</time>
</trkpt>
<trkpt lat="47.679485" lon="11.187551">
<ele>645.061</ele>
<time>2022-05-27T13:36:18Z</time>
</trkpt>
<trkpt lat="47.679497" lon="11.187549">
<ele>645.061</ele>
<time>2022-05-27T13:36:19Z</time>
</trkpt>
<trkpt lat="47.679508" lon="11.187547">
<ele>645.061</ele>
<time>2022-05-27T13:36:20Z</time>
</trkpt>
<trkpt lat="47.679531" lon="11.18754">
<ele>645.061</ele>
<time>2022-05-27T13:36:21Z</time>
</trkpt>
<trkpt lat="47.679543" lon="11.18753">
<ele>645.061</ele>
<time>2022-05-27T13:36:22Z</time>
</trkpt>
<trkpt lat="47.67955" lon="11.18752">
<ele>645.061</ele>
<time>2022-05-27T13:36:23Z</time>
</trkpt>
<trkpt lat="47.679558" lon="11.187518">
<ele>645.061</ele>
<time>2022-05-27T13:36:24Z</time>
</trkpt>
<trkpt lat="47.679569" lon="11.187511">
<ele>645.061</ele>
<time>2022-05-27T13:36:27Z</time>
</trkpt>
<trkpt lat="47.679581" lon="11.187507">
<ele>645.061</ele>
<time>2022-05-27T13:36:29Z</time>
</trkpt>
<trkpt lat="47.679592" lon="11.187509">
<ele>645.061</ele>
<time>2022-05-27T13:36:31Z</time>
</trkpt>
<trkpt lat="47.679596" lon="11.187505">
<ele>645.061</ele>
<time>2022-05-27T13:36:32Z</time>
</trkpt>
<trkpt lat="47.679592" lon="11.187494">
<ele>645.061</ele>
<time>2022-05-27T13:36:33Z</time>
</trkpt>
<trkpt lat="47.679585" lon="11.187533">
<ele>645.061</ele>
<time>2022-05-27T13:36:39Z</time>
</trkpt>
<trkpt lat="47.679585" lon="11.187536">
<ele>645.061</ele>
<time>2022-05-27T13:36:40Z</time>
</trkpt>
<trkpt lat="47.679585" lon="11.187538">
<ele>645.061</ele>
<time>2022-05-27T13:36:42Z</time>
</trkpt>
<trkpt lat="47.6796" lon="11.187531">
<ele>645.061</ele>
<time>2022-05-27T13:36:49Z</time>
</trkpt>
<trkpt lat="47.6796" lon="11.187587">
<ele>645.061</ele>
<time>2022-05-27T13:36:50Z</time>
</trkpt>
<trkpt lat="47.679607" lon="11.187594">
<ele>645.061</ele>
<time>2022-05-27T13:36:51Z</time>
</trkpt>
<trkpt lat="47.679638" lon="11.187582">
<ele>645.061</ele>
<time>2022-05-27T13:36:58Z</time>
</trkpt>
<trkpt lat="47.679642" lon="11.187578">
<ele>645.061</ele>
<time>2022-05-27T13:36:59Z</time>
</trkpt>
<trkpt lat="47.679642" lon="11.187584">
<ele>645.061</ele>
<time>2022-05-27T13:37:00Z</time>
</trkpt>
<trkpt lat="47.679642" lon="11.187575">
<ele>645.061</ele>
<time>2022-05-27T13:37:01Z</time>
</trkpt>
<trkpt lat="47.679661" lon="11.18752">
<ele>645.061</ele>
<time>2022-05-27T13:37:37Z</time>
</trkpt>
<trkpt lat="47.679661" lon="11.187522">
<ele>645.061</ele>
<time>2022-05-27T13:37:38Z</time>
</trkpt>
<trkpt lat="47.679661" lon="11.187524">
<ele>645.061</ele>
<time>2022-05-27T13:37:39Z</time>
</trkpt>
<trkpt lat="47.679741" lon="11.187449">
<ele>645.061</ele>
<time>2022-05-27T13:40:16Z</time>
</trkpt>
<trkpt lat="47.679741" lon="11.187446">
<ele>645.061</ele>
<time>2022-05-27T13:40:17Z</time>
</trkpt>
<trkpt lat="47.679745" lon="11.18744">
<ele>645.061</ele>
<time>2022-05-27T13:40:19Z</time>
</trkpt>
<trkpt lat="47.679752" lon="11.18744">
<ele>645.061</ele>
<time>2022-05-27T13:40:20Z</time>
</trkpt>
<trkpt lat="47.679768" lon="11.187446">
<ele>645.061</ele>
<time>2022-05-27T13:40:23Z</time>
</trkpt>
<trkpt lat="47.679764" lon="11.18745">
<ele>645.062</ele>
<time>2022-05-27T13:40:24Z</time>
</trkpt>
<trkpt lat="47.679756" lon="11.187452">
<ele>645.061</ele>
<time>2022-05-27T13:42:20Z</time>
</trkpt>
<trkpt lat="47.67976" lon="11.18745">
<ele>645.061</ele>
<time>2022-05-27T13:42:21Z</time>
</trkpt>
<trkpt lat="47.679764" lon="11.187442">
<ele>645.061</ele>
<time>2022-05-27T13:42:22Z</time>
</trkpt>
<trkpt lat="47.679768" lon="11.187438">
<ele>645.061</ele>
<time>2022-05-27T13:42:23Z</time>
</trkpt>
<trkpt lat="47.679775" lon="11.18744">
<ele>645.061</ele>
<time>2022-05-27T13:42:24Z</time>
</trkpt>
<trkpt lat="47.679783" lon="11.187421">
<ele>645.061</ele>
<time>2022-05-27T13:42:25Z</time>
</trkpt>
<trkpt lat="47.679787" lon="11.187413">
<ele>645.061</ele>
<time>2022-05-27T13:42:26Z</time>
</trkpt>
<trkpt lat="47.679787" lon="11.187402">
<ele>645.061</ele>
<time>2022-05-27T13:42:27Z</time>
</trkpt>
<trkpt lat="47.679787" lon="11.187391">
<ele>645.061</ele>
<time>2022-05-27T13:42:28Z</time>
</trkpt>
<trkpt lat="47.679852" lon="11.187342">
<ele>645.062</ele>
<time>2022-05-27T13:42:48Z</time>
</trkpt>
<trkpt lat="47.679852" lon="11.187356">
<ele>645.061</ele>
<time>2022-05-27T13:42:50Z</time>
</trkpt>
<trkpt lat="47.679852" lon="11.187368">
<ele>645.061</ele>
<time>2022-05-27T13:42:51Z</time>
</trkpt>
<trkpt lat="47.679852" lon="11.187379">
<ele>645.061</ele>
<time>2022-05-27T13:42:52Z</time>
</trkpt>
<trkpt lat="47.679852" lon="11.187393">
<ele>645.061</ele>
<time>2022-05-27T13:42:53Z</time>
</trkpt>
<trkpt lat="47.679852" lon="11.187395">
<ele>645.061</ele>
<time>2022-05-27T13:42:55Z</time>
</trkpt>
<trkpt lat="47.679852" lon="11.18741">
<ele>645.061</ele>
<time>2022-05-27T13:42:57Z</time>
</trkpt>
<trkpt lat="47.679852" lon="11.187421">
<ele>645.061</ele>
<time>2022-05-27T13:42:58Z</time>
</trkpt>
<trkpt lat="47.679852" lon="11.187437">
<ele>645.061</ele>
<time>2022-05-27T13:42:59Z</time>
</trkpt>
<trkpt lat="47.679848" lon="11.187433">
<ele>645.061</ele>
<time>2022-05-27T13:43:01Z</time>
</trkpt>
<trkpt lat="47.679848" lon="11.187437">
<ele>645.061</ele>
<time>2022-05-27T13:43:02Z</time>
</trkpt>
<trkpt lat="47.679852" lon="11.187447">
<ele>645.061</ele>
<time>2022-05-27T13:43:03Z</time>
</trkpt>
<trkpt lat="47.679848" lon="11.187456">
<ele>645.061</ele>
<time>2022-05-27T13:43:04Z</time>
</trkpt>
<trkpt lat="47.679829" lon="11.187469">
<ele>645.061</ele>
<time>2022-05-27T13:43:05Z</time>
</trkpt>
<trkpt lat="47.679825" lon="11.187486">
<ele>645.061</ele>
<time>2022-05-27T13:43:06Z</time>
</trkpt>
<trkpt lat="47.679817" lon="11.187494">
<ele>645.061</ele>
<time>2022-05-27T13:43:07Z</time>
</trkpt>
<trkpt lat="47.67981" lon="11.187507">
<ele>645.061</ele>
<time>2022-05-27T13:43:08Z</time>
</trkpt>
<trkpt lat="47.679802" lon="11.187518">
<ele>645.061</ele>
<time>2022-05-27T13:43:09Z</time>
</trkpt>
<trkpt lat="47.679794" lon="11.187527">
<ele>645.061</ele>
<time>2022-05-27T13:43:10Z</time>
</trkpt>
<trkpt lat="47.679787" lon="11.187533">
<ele>645.061</ele>
<time>2022-05-27T13:43:11Z</time>
</trkpt>
<trkpt lat="47.679783" lon="11.187551">
<ele>645.062</ele>
<time>2022-05-27T13:43:12Z</time>
</trkpt>
<trkpt lat="47.679768" lon="11.187561">
<ele>645.061</ele>
<time>2022-05-27T13:43:13Z</time>
</trkpt>
<trkpt lat="47.679756" lon="11.18757">
<ele>645.061</ele>
<time>2022-05-27T13:43:14Z</time>
</trkpt>
<trkpt lat="47.679745" lon="11.187584">
<ele>645.061</ele>
<time>2022-05-27T13:43:15Z</time>
</trkpt>
<trkpt lat="47.679729" lon="11.1876">
<ele>645.061</ele>
<time>2022-05-27T13:43:16Z</time>
</trkpt>
<trkpt lat="47.679722" lon="11.187613">
<ele>645.061</ele>
<time>2022-05-27T13:43:17Z</time>
</trkpt>
<trkpt lat="47.679722" lon="11.187627">
<ele>645.061</ele>
<time>2022-05-27T13:43:18Z</time>
</trkpt>
<trkpt lat="47.679718" lon="11.187632">
<ele>645.061</ele>
<time>2022-05-27T13:43:19Z</time>
</trkpt>
<trkpt lat="47.679695" lon="11.187629">
<ele>645.061</ele>
<time>2022-05-27T13:43:20Z</time>
</trkpt>
<trkpt lat="47.67968" lon="11.18763">
<ele>645.061</ele>
<time>2022-05-27T13:43:21Z</time>
</trkpt>
<trkpt lat="47.679665" lon="11.187636">
<ele>645.061</ele>
<time>2022-05-27T13:43:22Z</time>
</trkpt>
<trkpt lat="47.679649" lon="11.187633">
<ele>645.061</ele>
<time>2022-05-27T13:43:23Z</time>
</trkpt>
<trkpt lat="47.679638" lon="11.187634">
<ele>645.061</ele>
<time>2022-05-27T13:43:24Z</time>
</trkpt>
<trkpt lat="47.679623" lon="11.187636">
<ele>645.061</ele>
<time>2022-05-27T13:43:25Z</time>
</trkpt>
<trkpt lat="47.679623" lon="11.187633">
<ele>645.061</ele>
<time>2022-05-27T13:43:26Z</time>
</trkpt>
<trkpt lat="47.679611" lon="11.187634">
<ele>645.061</ele>
<time>2022-05-27T13:43:27Z</time>
</trkpt>
<trkpt lat="47.6796" lon="11.18764">
<ele>645.062</ele>
<time>2022-05-27T13:43:29Z</time>
</trkpt>
<trkpt lat="47.679565" lon="11.187636">
<ele>645.061</ele>
<time>2022-05-27T13:43:31Z</time>
</trkpt>
<trkpt lat="47.679558" lon="11.187643">
<ele>645.061</ele>
<time>2022-05-27T13:43:32Z</time>
</trkpt>
<trkpt lat="47.679527" lon="11.187657">
<ele>645.061</ele>
<time>2022-05-27T13:43:33Z</time>
</trkpt>
<trkpt lat="47.679512" lon="11.18767">
<ele>645.061</ele>
<time>2022-05-27T13:43:34Z</time>
</trkpt>
<trkpt lat="47.679466" lon="11.18768">
<ele>645.061</ele>
<time>2022-05-27T13:43:35Z</time>
</trkpt>
<trkpt lat="47.679436" lon="11.187699">
<ele>645.061</ele>
<time>2022-05-27T13:43:36Z</time>
</trkpt>
<trkpt lat="47.679413" lon="11.187705">
<ele>645.061</ele>
<time>2022-05-27T13:43:37Z</time>
</trkpt>
<trkpt lat="47.679382" lon="11.187689">
<ele>645.061</ele>
<time>2022-05-27T13:43:38Z</time>
</trkpt>
<trkpt lat="47.679367" lon="11.18771">
<ele>645.061</ele>
<time>2022-05-27T13:43:39Z</time>
</trkpt>
<trkpt lat="47.679352" lon="11.187715">
<ele>645.061</ele>
<time>2022-05-27T13:43:40Z</time>
</trkpt>
<trkpt lat="47.679333" lon="11.187725">
<ele>645.061</ele>
<time>2022-05-27T13:43:41Z</time>
</trkpt>
<trkpt lat="47.679329" lon="11.187735">
<ele>645.061</ele>
<time>2022-05-27T13:43:42Z</time>
</trkpt>
<trkpt lat="47.679321" lon="11.187747">
<ele>645.061</ele>
<time>2022-05-27T13:43:43Z</time>
</trkpt>
<trkpt lat="47.679317" lon="11.187755">
<ele>645.061</ele>
<time>2022-05-27T13:43:44Z</time>
</trkpt>
<trkpt lat="47.67931" lon="11.187765">
<ele>645.062</ele>
<time>2022-05-27T13:43:45Z</time>
</trkpt>
<trkpt lat="47.67931" lon="11.187777">
<ele>645.061</ele>
<time>2022-05-27T13:43:46Z</time>
</trkpt>
<trkpt lat="47.679306" lon="11.187785">
<ele>645.061</ele>
<time>2022-05-27T13:43:47Z</time>
</trkpt>
<trkpt lat="47.679298" lon="11.187794">
<ele>645.061</ele>
<time>2022-05-27T13:43:48Z</time>
</trkpt>
<trkpt lat="47.679291" lon="11.187804">
<ele>645.061</ele>
<time>2022-05-27T13:43:49Z</time>
</trkpt>
<trkpt lat="47.679287" lon="11.187819">
<ele>645.061</ele>
<time>2022-05-27T13:43:50Z</time>
</trkpt>
<trkpt lat="47.679279" lon="11.187838">
<ele>645.061</ele>
<time>2022-05-27T13:43:51Z</time>
</trkpt>
<trkpt lat="47.679268" lon="11.187855">
<ele>645.061</ele>
<time>2022-05-27T13:43:52Z</time>
</trkpt>
<trkpt lat="47.679264" lon="11.18787">
<ele>645.061</ele>
<time>2022-05-27T13:43:53Z</time>
</trkpt>
<trkpt lat="47.67926" lon="11.187886">
<ele>645.061</ele>
<time>2022-05-27T13:43:54Z</time>
</trkpt>
<trkpt lat="47.679264" lon="11.187903">
<ele>645.061</ele>
<time>2022-05-27T13:43:55Z</time>
</trkpt>
<trkpt lat="47.67926" lon="11.187917">
<ele>645.061</ele>
<time>2022-05-27T13:43:56Z</time>
</trkpt>
<trkpt lat="47.67926" lon="11.187928">
<ele>645.061</ele>
<time>2022-05-27T13:43:57Z</time>
</trkpt>
<trkpt lat="47.679256" lon="11.187937">
<ele>645.061</ele>
<time>2022-05-27T13:43:58Z</time>
</trkpt>
<trkpt lat="47.679256" lon="11.187943">
<ele>645.061</ele>
<time>2022-05-27T13:43:59Z</time>
</trkpt>
<trkpt lat="47.67926" lon="11.18795">
<ele>645.061</ele>
<time>2022-05-27T13:44:00Z</time>
</trkpt>
<trkpt lat="47.679264" lon="11.187955">
<ele>645.061</ele>
<time>2022-05-27T13:44:01Z</time>
</trkpt>
<trkpt lat="47.679276" lon="11.187955">
<ele>645.061</ele>
<time>2022-05-27T13:44:02Z</time>
</trkpt>
<trkpt lat="47.679287" lon="11.187953">
<ele>645.061</ele>
<time>2022-05-27T13:44:03Z</time>
</trkpt>
<trkpt lat="47.679295" lon="11.187953">
<ele>645.061</ele>
<time>2022-05-27T13:44:04Z</time>
</trkpt>
<trkpt lat="47.679298" lon="11.187946">
<ele>645.061</ele>
<time>2022-05-27T13:44:05Z</time>
</trkpt>
<trkpt lat="47.679302" lon="11.187943">
<ele>645.061</ele>
<time>2022-05-27T13:44:06Z</time>
</trkpt>
<trkpt lat="47.679306" lon="11.187939">
<ele>645.061</ele>
<time>2022-05-27T13:44:07Z</time>
</trkpt>
<trkpt lat="47.679306" lon="11.187934">
<ele>645.061</ele>
<time>2022-05-27T13:44:08Z</time>
</trkpt>
<trkpt lat="47.679302" lon="11.187932">
<ele>645.061</ele>
<time>2022-05-27T13:44:16Z</time>
</trkpt>
<trkpt lat="47.679295" lon="11.187934">
<ele>645.061</ele>
<time>2022-05-27T13:44:17Z</time>
</trkpt>
<trkpt lat="47.679283" lon="11.187939">
<ele>645.062</ele>
<time>2022-05-27T13:44:18Z</time>
</trkpt>
<trkpt lat="47.679276" lon="11.187946">
<ele>645.061</ele>
<time>2022-05-27T13:44:19Z</time>
</trkpt>
<trkpt lat="47.679264" lon="11.187948">
<ele>645.061</ele>
<time>2022-05-27T13:44:20Z</time>
</trkpt>
<trkpt lat="47.679256" lon="11.187951">
<ele>645.061</ele>
<time>2022-05-27T13:44:21Z</time>
</trkpt>
<trkpt lat="47.679245" lon="11.187953">
<ele>645.061</ele>
<time>2022-05-27T13:44:22Z</time>
</trkpt>
<trkpt lat="47.679237" lon="11.187955">
<ele>645.061</ele>
<time>2022-05-27T13:44:23Z</time>
</trkpt>
<trkpt lat="47.67923" lon="11.187959">
<ele>645.061</ele>
<time>2022-05-27T13:44:24Z</time>
</trkpt>
<trkpt lat="47.679222" lon="11.187965">
<ele>645.061</ele>
<time>2022-05-27T13:44:25Z</time>
</trkpt>
<trkpt lat="47.679218" lon="11.18797">
<ele>645.061</ele>
<time>2022-05-27T13:44:27Z</time>
</trkpt>
<trkpt lat="47.679218" lon="11.187967">
<ele>645.061</ele>
<time>2022-05-27T13:44:29Z</time>
</trkpt>
<trkpt lat="47.679211" lon="11.187913">
<ele>645.061</ele>
<time>2022-05-27T13:48:01Z</time>
</trkpt>
<trkpt lat="47.679218" lon="11.187908">
<ele>645.061</ele>
<time>2022-05-27T13:48:02Z</time>
</trkpt>
<trkpt lat="47.679218" lon="11.187907">
<ele>645.061</ele>
<time>2022-05-27T13:48:03Z</time>
</trkpt>
<trkpt lat="47.679218" lon="11.187908">
<ele>645.061</ele>
<time>2022-05-27T13:48:04Z</time>
</trkpt>
<trkpt lat="47.679214" lon="11.18791">
<ele>645.061</ele>
<time>2022-05-27T13:48:05Z</time>
</trkpt>
<trkpt lat="47.67923" lon="11.187892">
<ele>645.061</ele>
<time>2022-05-27T13:48:40Z</time>
</trkpt>
<trkpt lat="47.679222" lon="11.187885">
<ele>645.061</ele>
<time>2022-05-27T13:48:42Z</time>
</trkpt>
<trkpt lat="47.679211" lon="11.187873">
<ele>645.061</ele>
<time>2022-05-27T13:48:43Z</time>
</trkpt>
<trkpt lat="47.679199" lon="11.187869">
<ele>645.061</ele>
<time>2022-05-27T13:48:45Z</time>
</trkpt>
<trkpt lat="47.679199" lon="11.187867">
<ele>645.061</ele>
<time>2022-05-27T13:48:46Z</time>
</trkpt>
<trkpt lat="47.679199" lon="11.187869">
<ele>645.061</ele>
<time>2022-05-27T13:48:47Z</time>
</trkpt>
<trkpt lat="47.679169" lon="11.187828">
<ele>645.061</ele>
<time>2022-05-27T13:51:11Z</time>
</trkpt>
<trkpt lat="47.679169" lon="11.187825">
<ele>645.061</ele>
<time>2022-05-27T13:51:14Z</time>
</trkpt>
<trkpt lat="47.679169" lon="11.187827">
<ele>645.061</ele>
<time>2022-05-27T13:51:15Z</time>
</trkpt>
<trkpt lat="47.679157" lon="11.187823">
<ele>645.061</ele>
<time>2022-05-27T13:51:21Z</time>
</trkpt>
<trkpt lat="47.679153" lon="11.187825">
<ele>645.061</ele>
<time>2022-05-27T13:51:22Z</time>
</trkpt>
<trkpt lat="47.67915" lon="11.187827">
<ele>645.061</ele>
<time>2022-05-27T13:51:23Z</time>
</trkpt>
<trkpt lat="47.679146" lon="11.187827">
<ele>645.061</ele>
<time>2022-05-27T13:51:24Z</time>
</trkpt>
<trkpt lat="47.679138" lon="11.187827">
<ele>645.061</ele>
<time>2022-05-27T13:51:25Z</time>
</trkpt>
<trkpt lat="47.679138" lon="11.18783">
<ele>645.061</ele>
<time>2022-05-27T13:51:26Z</time>
</trkpt>
<trkpt lat="47.679119" lon="11.187841">
<ele>645.061</ele>
<time>2022-05-27T13:51:53Z</time>
</trkpt>
<trkpt lat="47.679115" lon="11.187857">
<ele>645.061</ele>
<time>2022-05-27T13:51:55Z</time>
</trkpt>
<trkpt lat="47.679111" lon="11.187872">
<ele>645.061</ele>
<time>2022-05-27T13:51:56Z</time>
</trkpt>
<trkpt lat="47.679104" lon="11.187922">
<ele>645.061</ele>
<time>2022-05-27T13:51:58Z</time>
</trkpt>
<trkpt lat="47.6791" lon="11.187978">
<ele>645.061</ele>
<time>2022-05-27T13:51:59Z</time>
</trkpt>
<trkpt lat="47.679096" lon="11.188002">
<ele>645.061</ele>
<time>2022-05-27T13:52:00Z</time>
</trkpt>
<trkpt lat="47.679096" lon="11.188025">
<ele>645.061</ele>
<time>2022-05-27T13:52:02Z</time>
</trkpt>
<trkpt lat="47.679096" lon="11.188068">
<ele>645.061</ele>
<time>2022-05-27T13:52:03Z</time>
</trkpt>
<trkpt lat="47.679096" lon="11.188097">
<ele>645.061</ele>
<time>2022-05-27T13:52:04Z</time>
</trkpt>
<trkpt lat="47.679096" lon="11.188122">
<ele>645.061</ele>
<time>2022-05-27T13:52:06Z</time>
</trkpt>
<trkpt lat="47.679092" lon="11.188147">
<ele>645.061</ele>
<time>2022-05-27T13:52:07Z</time>
</trkpt>
<trkpt lat="47.679096" lon="11.188184">
<ele>645.061</ele>
<time>2022-05-27T13:52:08Z</time>
</trkpt>
<trkpt lat="47.679096" lon="11.188263">
<ele>645.061</ele>
<time>2022-05-27T13:52:09Z</time>
</trkpt>
<trkpt lat="47.679092" lon="11.188305">
<ele>645.061</ele>
<time>2022-05-27T13:52:11Z</time>
</trkpt>
<trkpt lat="47.679092" lon="11.188342">
<ele>645.061</ele>
<time>2022-05-27T13:52:12Z</time>
</trkpt>
<trkpt lat="47.679089" lon="11.188414">
<ele>645.061</ele>
<time>2022-05-27T13:52:13Z</time>
</trkpt>
<trkpt lat="47.679081" lon="11.188454">
<ele>645.061</ele>
<time>2022-05-27T13:52:15Z</time>
</trkpt>
<trkpt lat="47.679077" lon="11.18849">
<ele>645.061</ele>
<time>2022-05-27T13:52:16Z</time>
</trkpt>
<trkpt lat="47.679077" lon="11.188523">
<ele>645.061</ele>
<time>2022-05-27T13:52:17Z</time>
</trkpt>
<trkpt lat="47.679081" lon="11.188594">
<ele>645.061</ele>
<time>2022-05-27T13:52:19Z</time>
</trkpt>
<trkpt lat="47.67907" lon="11.18869">
<ele>645.061</ele>
<time>2022-05-27T13:52:20Z</time>
</trkpt>
<trkpt lat="47.679066" lon="11.188735">
<ele>645.061</ele>
<time>2022-05-27T13:52:21Z</time>
</trkpt>
<trkpt lat="47.679066" lon="11.188772">
<ele>645.061</ele>
<time>2022-05-27T13:52:22Z</time>
</trkpt>
<trkpt lat="47.679062" lon="11.188812">
<ele>645.061</ele>
<time>2022-05-27T13:52:24Z</time>
</trkpt>
<trkpt lat="47.679062" lon="11.188846">
<ele>645.061</ele>
<time>2022-05-27T13:52:25Z</time>
</trkpt>
<trkpt lat="47.679054" lon="11.188917">
<ele>645.061</ele>
<time>2022-05-27T13:52:26Z</time>
</trkpt>
<trkpt lat="47.679058" lon="11.188952">
<ele>645.061</ele>
<time>2022-05-27T13:52:27Z</time>
</trkpt>
<trkpt lat="47.679066" lon="11.188992">
<ele>645.061</ele>
<time>2022-05-27T13:52:28Z</time>
</trkpt>
<trkpt lat="47.67907" lon="11.189034">
<ele>645.061</ele>
<time>2022-05-27T13:52:30Z</time>
</trkpt>
<trkpt lat="47.679077" lon="11.189112">
<ele>645.061</ele>
<time>2022-05-27T13:52:31Z</time>
</trkpt>
<trkpt lat="47.679073" lon="11.189157">
<ele>645.061</ele>
<time>2022-05-27T13:52:32Z</time>
</trkpt>
<trkpt lat="47.679073" lon="11.189208">
<ele>645.062</ele>
<time>2022-05-27T13:52:34Z</time>
</trkpt>
<trkpt lat="47.67907" lon="11.189323">
<ele>645.061</ele>
<time>2022-05-27T13:52:35Z</time>
</trkpt>
<trkpt lat="47.67907" lon="11.18938">
<ele>645.061</ele>
<time>2022-05-27T13:52:37Z</time>
</trkpt>
<trkpt lat="47.679085" lon="11.189502">
<ele>645.534</ele>
<time>2022-05-27T13:52:38Z</time>
</trkpt>
<trkpt lat="47.679092" lon="11.189569">
<ele>645.695</ele>
<time>2022-05-27T13:52:39Z</time>
</trkpt>
<trkpt lat="47.679096" lon="11.18964">
<ele>645.778</ele>
<time>2022-05-27T13:52:40Z</time>
</trkpt>
<trkpt lat="47.679096" lon="11.189712">
<ele>645.882</ele>
<time>2022-05-27T13:52:41Z</time>
</trkpt>
<trkpt lat="47.679096" lon="11.189778">
<ele>645.957</ele>
<time>2022-05-27T13:52:43Z</time>
</trkpt>
<trkpt lat="47.679089" lon="11.189892">
<ele>646.03</ele>
<time>2022-05-27T13:52:44Z</time>
</trkpt>
<trkpt lat="47.679089" lon="11.18995">
<ele>646.03</ele>
<time>2022-05-27T13:52:45Z</time>
</trkpt>
<trkpt lat="47.679092" lon="11.190003">
<ele>646.03</ele>
<time>2022-05-27T13:52:46Z</time>
</trkpt>
<trkpt lat="47.679096" lon="11.190057">
<ele>646.03</ele>
<time>2022-05-27T13:52:47Z</time>
</trkpt>
<trkpt lat="47.6791" lon="11.19011">
<ele>646.259</ele>
<time>2022-05-27T13:52:48Z</time>
</trkpt>
<trkpt lat="47.679104" lon="11.190151">
<ele>646.442</ele>
<time>2022-05-27T13:52:49Z</time>
</trkpt>
<trkpt lat="47.679111" lon="11.190185">
<ele>646.581</ele>
<time>2022-05-27T13:52:51Z</time>
</trkpt>
<trkpt lat="47.679119" lon="11.190258">
<ele>646.831</ele>
<time>2022-05-27T13:52:52Z</time>
</trkpt>
<trkpt lat="47.679131" lon="11.1903">
<ele>646.908</ele>
<time>2022-05-27T13:52:53Z</time>
</trkpt>
<trkpt lat="47.679134" lon="11.190342">
<ele>647.17</ele>
<time>2022-05-27T13:52:55Z</time>
</trkpt>
<trkpt lat="47.679134" lon="11.19043">
<ele>647.58</ele>
<time>2022-05-27T13:52:56Z</time>
</trkpt>
<trkpt lat="47.679134" lon="11.190472">
<ele>647.672</ele>
<time>2022-05-27T13:52:57Z</time>
</trkpt>
<trkpt lat="47.679134" lon="11.190516">
<ele>648.03</ele>
<time>2022-05-27T13:52:58Z</time>
</trkpt>
<trkpt lat="47.679134" lon="11.190567">
<ele>648.301</ele>
<time>2022-05-27T13:52:59Z</time>
</trkpt>
<trkpt lat="47.679134" lon="11.190603">
<ele>648.485</ele>
<time>2022-05-27T13:53:00Z</time>
</trkpt>
<trkpt lat="47.679138" lon="11.190637">
<ele>648.648</ele>
<time>2022-05-27T13:53:01Z</time>
</trkpt>
<trkpt lat="47.679146" lon="11.190683">
<ele>648.757</ele>
<time>2022-05-27T13:53:03Z</time>
</trkpt>
<trkpt lat="47.67915" lon="11.190722">
<ele>649.097</ele>
<time>2022-05-27T13:53:04Z</time>
</trkpt>
<trkpt lat="47.679169" lon="11.190794">
<ele>649.581</ele>
<time>2022-05-27T13:53:05Z</time>
</trkpt>
<trkpt lat="47.67918" lon="11.190838">
<ele>649.756</ele>
<time>2022-05-27T13:53:06Z</time>
</trkpt>
<trkpt lat="47.679188" lon="11.19089">
<ele>650.114</ele>
<time>2022-05-27T13:53:07Z</time>
</trkpt>
<trkpt lat="47.679199" lon="11.190947">
<ele>650.371</ele>
<time>2022-05-27T13:53:08Z</time>
</trkpt>
<trkpt lat="47.679203" lon="11.191006">
<ele>650.831</ele>
<time>2022-05-27T13:53:09Z</time>
</trkpt>
<trkpt lat="47.679207" lon="11.191058">
<ele>651.134</ele>
<time>2022-05-27T13:53:10Z</time>
</trkpt>
<trkpt lat="47.679214" lon="11.191104">
<ele>651.692</ele>
<time>2022-05-27T13:53:11Z</time>
</trkpt>
<trkpt lat="47.679226" lon="11.191169">
<ele>652.107</ele>
<time>2022-05-27T13:53:13Z</time>
</trkpt>
<trkpt lat="47.679226" lon="11.191258">
<ele>652.809</ele>
<time>2022-05-27T13:53:15Z</time>
</trkpt>
<trkpt lat="47.679226" lon="11.191357">
<ele>653.609</ele>
<time>2022-05-27T13:53:16Z</time>
</trkpt>
<trkpt lat="47.679222" lon="11.191412">
<ele>654.002</ele>
<time>2022-05-27T13:53:17Z</time>
</trkpt>
<trkpt lat="47.679222" lon="11.191466">
<ele>654.268</ele>
<time>2022-05-27T13:53:18Z</time>
</trkpt>
<trkpt lat="47.679211" lon="11.191535">
<ele>654.743</ele>
<time>2022-05-27T13:53:19Z</time>
</trkpt>
<trkpt lat="47.679203" lon="11.191586">
<ele>655.046</ele>
<time>2022-05-27T13:53:20Z</time>
</trkpt>
<trkpt lat="47.679195" lon="11.191622">
<ele>655.587</ele>
<time>2022-05-27T13:53:21Z</time>
</trkpt>
<trkpt lat="47.67918" lon="11.191668">
<ele>655.942</ele>
<time>2022-05-27T13:53:23Z</time>
</trkpt>
<trkpt lat="47.679161" lon="11.191758">
<ele>656.622</ele>
<time>2022-05-27T13:53:24Z</time>
</trkpt>
<trkpt lat="47.67915" lon="11.191808">
<ele>656.939</ele>
<time>2022-05-27T13:53:25Z</time>
</trkpt>
<trkpt lat="47.679138" lon="11.191848">
<ele>657.196</ele>
<time>2022-05-27T13:53:26Z</time>
</trkpt>
<trkpt lat="47.679127" lon="11.191888">
<ele>657.345</ele>
<time>2022-05-27T13:53:28Z</time>
</trkpt>
<trkpt lat="47.679108" lon="11.19195">
<ele>658.016</ele>
<time>2022-05-27T13:53:29Z</time>
</trkpt>
<trkpt lat="47.679104" lon="11.191972">
<ele>658.185</ele>
<time>2022-05-27T13:53:30Z</time>
</trkpt>
<trkpt lat="47.679089" lon="11.191988">
<ele>658.556</ele>
<time>2022-05-27T13:53:31Z</time>
</trkpt>
<trkpt lat="47.679081" lon="11.192012">
<ele>658.825</ele>
<time>2022-05-27T13:53:32Z</time>
</trkpt>
<trkpt lat="47.679066" lon="11.192042">
<ele>659.278</ele>
<time>2022-05-27T13:53:33Z</time>
</trkpt>
<trkpt lat="47.679047" lon="11.192068">
<ele>659.688</ele>
<time>2022-05-27T13:53:35Z</time>
</trkpt>
<trkpt lat="47.67902" lon="11.192119">
<ele>660.212</ele>
<time>2022-05-27T13:53:36Z</time>
</trkpt>
<trkpt lat="47.679005" lon="11.192142">
<ele>660.69</ele>
<time>2022-05-27T13:53:37Z</time>
</trkpt>
<trkpt lat="47.678982" lon="11.192172">
<ele>660.971</ele>
<time>2022-05-27T13:53:38Z</time>
</trkpt>
<trkpt lat="47.678959" lon="11.192208">
<ele>661.462</ele>
<time>2022-05-27T13:53:39Z</time>
</trkpt>
<trkpt lat="47.678936" lon="11.192248">
<ele>661.768</ele>
<time>2022-05-27T13:53:40Z</time>
</trkpt>
<trkpt lat="47.678913" lon="11.192286">
<ele>662.057</ele>
<time>2022-05-27T13:53:41Z</time>
</trkpt>
<trkpt lat="47.678898" lon="11.19231">
<ele>662.269</ele>
<time>2022-05-27T13:53:42Z</time>
</trkpt>
<trkpt lat="47.678879" lon="11.192333">
<ele>662.724</ele>
<time>2022-05-27T13:53:44Z</time>
</trkpt>
<trkpt lat="47.678864" lon="11.192357">
<ele>663.076</ele>
<time>2022-05-27T13:53:45Z</time>
</trkpt>
<trkpt lat="47.678822" lon="11.192398">
<ele>663.639</ele>
<time>2022-05-27T13:53:46Z</time>
</trkpt>
<trkpt lat="47.678806" lon="11.192424">
<ele>664.035</ele>
<time>2022-05-27T13:53:47Z</time>
</trkpt>
<trkpt lat="47.678776" lon="11.192466">
<ele>664.268</ele>
<time>2022-05-27T13:53:48Z</time>
</trkpt>
<trkpt lat="47.678753" lon="11.192508">
<ele>664.405</ele>
<time>2022-05-27T13:53:49Z</time>
</trkpt>
<trkpt lat="47.678719" lon="11.192569">
<ele>664.808</ele>
<time>2022-05-27T13:53:50Z</time>
</trkpt>
<trkpt lat="47.678688" lon="11.192621">
<ele>665.13</ele>
<time>2022-05-27T13:53:51Z</time>
</trkpt>
<trkpt lat="47.678665" lon="11.192677">
<ele>665.352</ele>
<time>2022-05-27T13:53:53Z</time>
</trkpt>
<trkpt lat="47.678642" lon="11.192728">
<ele>665.5</ele>
<time>2022-05-27T13:53:54Z</time>
</trkpt>
<trkpt lat="47.678593" lon="11.192822">
<ele>665.64</ele>
<time>2022-05-27T13:53:55Z</time>
</trkpt>
<trkpt lat="47.67857" lon="11.192865">
<ele>665.673</ele>
<time>2022-05-27T13:53:57Z</time>
</trkpt>
<trkpt lat="47.67852" lon="11.19295">
<ele>665.693</ele>
<time>2022-05-27T13:53:58Z</time>
</trkpt>
<trkpt lat="47.678497" lon="11.192998">
<ele>665.693</ele>
<time>2022-05-27T13:53:59Z</time>
</trkpt>
<trkpt lat="47.678474" lon="11.193047">
<ele>665.693</ele>
<time>2022-05-27T13:54:00Z</time>
</trkpt>
<trkpt lat="47.678452" lon="11.193096">
<ele>665.459</ele>
<time>2022-05-27T13:54:01Z</time>
</trkpt>
<trkpt lat="47.678432" lon="11.193151">
<ele>665.258</ele>
<time>2022-05-27T13:54:03Z</time>
</trkpt>
<trkpt lat="47.678394" lon="11.193267">
<ele>664.958</ele>
<time>2022-05-27T13:54:04Z</time>
</trkpt>
<trkpt lat="47.678383" lon="11.193334">
<ele>664.857</ele>
<time>2022-05-27T13:54:05Z</time>
</trkpt>
<trkpt lat="47.678368" lon="11.193394">
<ele>664.789</ele>
<time>2022-05-27T13:54:06Z</time>
</trkpt>
<trkpt lat="47.67836" lon="11.193455">
<ele>664.745</ele>
<time>2022-05-27T13:54:07Z</time>
</trkpt>
<trkpt lat="47.678356" lon="11.19351">
<ele>664.723</ele>
<time>2022-05-27T13:54:08Z</time>
</trkpt>
<trkpt lat="47.678352" lon="11.193562">
<ele>664.723</ele>
<time>2022-05-27T13:54:09Z</time>
</trkpt>
<trkpt lat="47.678352" lon="11.193614">
<ele>664.723</ele>
<time>2022-05-27T13:54:10Z</time>
</trkpt>
<trkpt lat="47.678352" lon="11.193662">
<ele>664.723</ele>
<time>2022-05-27T13:54:11Z</time>
</trkpt>
<trkpt lat="47.678352" lon="11.193708">
<ele>664.723</ele>
<time>2022-05-27T13:54:12Z</time>
</trkpt>
<trkpt lat="47.678356" lon="11.193756">
<ele>664.723</ele>
<time>2022-05-27T13:54:14Z</time>
</trkpt>
<trkpt lat="47.678375" lon="11.193859">
<ele>665.149</ele>
<time>2022-05-27T13:54:16Z</time>
</trkpt>
<trkpt lat="47.678387" lon="11.193952">
<ele>665.419</ele>
<time>2022-05-27T13:54:17Z</time>
</trkpt>
<trkpt lat="47.678387" lon="11.193997">
<ele>665.474</ele>
<time>2022-05-27T13:54:19Z</time>
</trkpt>
<trkpt lat="47.678394" lon="11.194088">
<ele>665.984</ele>
<time>2022-05-27T13:54:20Z</time>
</trkpt>
<trkpt lat="47.678402" lon="11.194132">
<ele>666.175</ele>
<time>2022-05-27T13:54:21Z</time>
</trkpt>
<trkpt lat="47.678413" lon="11.194178">
<ele>666.297</ele>
<time>2022-05-27T13:54:22Z</time>
</trkpt>
<trkpt lat="47.678425" lon="11.194218">
<ele>666.661</ele>
<time>2022-05-27T13:54:23Z</time>
</trkpt>
<trkpt lat="47.678436" lon="11.19427">
<ele>666.973</ele>
<time>2022-05-27T13:54:24Z</time>
</trkpt>
<trkpt lat="47.678452" lon="11.194316">
<ele>667.208</ele>
<time>2022-05-27T13:54:25Z</time>
</trkpt>
<trkpt lat="47.678467" lon="11.194358">
<ele>667.377</ele>
<time>2022-05-27T13:54:26Z</time>
</trkpt>
<trkpt lat="47.678482" lon="11.194398">
<ele>667.53</ele>
<time>2022-05-27T13:54:27Z</time>
</trkpt>
<trkpt lat="47.678493" lon="11.194437">
<ele>667.57</ele>
<time>2022-05-27T13:54:29Z</time>
</trkpt>
<trkpt lat="47.678505" lon="11.194471">
<ele>667.839</ele>
<time>2022-05-27T13:54:30Z</time>
</trkpt>
<trkpt lat="47.678528" lon="11.194533">
<ele>668.196</ele>
<time>2022-05-27T13:54:32Z</time>
</trkpt>
<trkpt lat="47.678551" lon="11.194584">
<ele>668.425</ele>
<time>2022-05-27T13:54:33Z</time>
</trkpt>
<trkpt lat="47.678558" lon="11.194609">
<ele>668.732</ele>
<time>2022-05-27T13:54:34Z</time>
</trkpt>
<trkpt lat="47.678566" lon="11.194638">
<ele>668.982</ele>
<time>2022-05-27T13:54:35Z</time>
</trkpt>
<trkpt lat="47.678558" lon="11.194668">
<ele>669.178</ele>
<time>2022-05-27T13:54:36Z</time>
</trkpt>
<trkpt lat="47.678551" lon="11.194698">
<ele>669.358</ele>
<time>2022-05-27T13:54:37Z</time>
</trkpt>
<trkpt lat="47.678547" lon="11.194732">
<ele>669.439</ele>
<time>2022-05-27T13:54:38Z</time>
</trkpt>
<trkpt lat="47.678532" lon="11.194772">
<ele>669.504</ele>
<time>2022-05-27T13:54:40Z</time>
</trkpt>
<trkpt lat="47.67852" lon="11.194815">
<ele>669.55</ele>
<time>2022-05-27T13:54:41Z</time>
</trkpt>
<trkpt lat="47.678513" lon="11.19492">
<ele>669.578</ele>
<time>2022-05-27T13:54:42Z</time>
</trkpt>
<trkpt lat="47.678509" lon="11.194974">
<ele>669.578</ele>
<time>2022-05-27T13:54:44Z</time>
</trkpt>
<trkpt lat="47.678509" lon="11.195025">
<ele>669.578</ele>
<time>2022-05-27T13:54:45Z</time>
</trkpt>
<trkpt lat="47.678505" lon="11.195068">
<ele>669.578</ele>
<time>2022-05-27T13:54:46Z</time>
</trkpt>
<trkpt lat="47.678497" lon="11.195107">
<ele>669.578</ele>
<time>2022-05-27T13:54:47Z</time>
</trkpt>
<trkpt lat="47.678471" lon="11.195193">
<ele>669.578</ele>
<time>2022-05-27T13:54:48Z</time>
</trkpt>
<trkpt lat="47.678471" lon="11.195235">
<ele>669.578</ele>
<time>2022-05-27T13:54:49Z</time>
</trkpt>
<trkpt lat="47.678482" lon="11.195311">
<ele>669.578</ele>
<time>2022-05-27T13:54:51Z</time>
</trkpt>
<trkpt lat="47.678513" lon="11.195401">
<ele>669.578</ele>
<time>2022-05-27T13:54:53Z</time>
</trkpt>
<trkpt lat="47.678509" lon="11.19546">
<ele>669.852</ele>
<time>2022-05-27T13:54:54Z</time>
</trkpt>
<trkpt lat="47.678482" lon="11.195565">
<ele>670.199</ele>
<time>2022-05-27T13:54:55Z</time>
</trkpt>
<trkpt lat="47.678463" lon="11.195604">
<ele>670.284</ele>
<time>2022-05-27T13:54:56Z</time>
</trkpt>
<trkpt lat="47.678444" lon="11.19564">
<ele>670.61</ele>
<time>2022-05-27T13:54:57Z</time>
</trkpt>
<trkpt lat="47.678421" lon="11.195671">
<ele>670.834</ele>
<time>2022-05-27T13:54:58Z</time>
</trkpt>
<trkpt lat="47.678406" lon="11.195704">
<ele>671.025</ele>
<time>2022-05-27T13:55:00Z</time>
</trkpt>
<trkpt lat="47.678375" lon="11.195775">
<ele>671.258</ele>
<time>2022-05-27T13:55:01Z</time>
</trkpt>
<trkpt lat="47.67836" lon="11.195813">
<ele>671.345</ele>
<time>2022-05-27T13:55:02Z</time>
</trkpt>
<trkpt lat="47.678352" lon="11.195862">
<ele>671.402</ele>
<time>2022-05-27T13:55:03Z</time>
</trkpt>
<trkpt lat="47.678345" lon="11.195922">
<ele>671.432</ele>
<time>2022-05-27T13:55:04Z</time>
</trkpt>
<trkpt lat="47.678341" lon="11.195988">
<ele>671.432</ele>
<time>2022-05-27T13:55:05Z</time>
</trkpt>
<trkpt lat="47.678349" lon="11.196058">
<ele>671.432</ele>
<time>2022-05-27T13:55:06Z</time>
</trkpt>
<trkpt lat="47.678356" lon="11.196125">
<ele>671.432</ele>
<time>2022-05-27T13:55:08Z</time>
</trkpt>
<trkpt lat="47.678364" lon="11.196248">
<ele>671.432</ele>
<time>2022-05-27T13:55:09Z</time>
</trkpt>
<trkpt lat="47.678352" lon="11.196338">
<ele>671.432</ele>
<time>2022-05-27T13:55:10Z</time>
</trkpt>
<trkpt lat="47.678345" lon="11.19642">
<ele>671.432</ele>
<time>2022-05-27T13:55:11Z</time>
</trkpt>
<trkpt lat="47.678333" lon="11.196506">
<ele>671.432</ele>
<time>2022-05-27T13:55:12Z</time>
</trkpt>
<trkpt lat="47.678314" lon="11.196578">
<ele>671.432</ele>
<time>2022-05-27T13:55:13Z</time>
</trkpt>
<trkpt lat="47.678284" lon="11.196648">
<ele>671.718</ele>
<time>2022-05-27T13:55:14Z</time>
</trkpt>
<trkpt lat="47.678249" lon="11.196705">
<ele>671.934</ele>
<time>2022-05-27T13:55:15Z</time>
</trkpt>
<trkpt lat="47.678211" lon="11.196752">
<ele>672.062</ele>
<time>2022-05-27T13:55:16Z</time>
</trkpt>
<trkpt lat="47.678177" lon="11.196785">
<ele>672.392</ele>
<time>2022-05-27T13:55:17Z</time>
</trkpt>
<trkpt lat="47.678143" lon="11.196815">
<ele>672.646</ele>
<time>2022-05-27T13:55:18Z</time>
</trkpt>
<trkpt lat="47.678112" lon="11.196842">
<ele>672.845</ele>
<time>2022-05-27T13:55:19Z</time>
</trkpt>
<trkpt lat="47.678078" lon="11.196863">
<ele>672.993</ele>
<time>2022-05-27T13:55:20Z</time>
</trkpt>
<trkpt lat="47.678043" lon="11.196888">
<ele>673.344</ele>
<time>2022-05-27T13:55:21Z</time>
</trkpt>
<trkpt lat="47.678013" lon="11.19691">
<ele>673.609</ele>
<time>2022-05-27T13:55:23Z</time>
</trkpt>
<trkpt lat="47.677948" lon="11.196958">
<ele>673.97</ele>
<time>2022-05-27T13:55:24Z</time>
</trkpt>
<trkpt lat="47.677917" lon="11.19698">
<ele>674.341</ele>
<time>2022-05-27T13:55:25Z</time>
</trkpt>
<trkpt lat="47.677895" lon="11.197003">
<ele>674.645</ele>
<time>2022-05-27T13:55:26Z</time>
</trkpt>
<trkpt lat="47.677864" lon="11.197027">
<ele>674.875</ele>
<time>2022-05-27T13:55:27Z</time>
</trkpt>
<trkpt lat="47.677834" lon="11.19705">
<ele>675.046</ele>
<time>2022-05-27T13:55:28Z</time>
</trkpt>
<trkpt lat="47.677803" lon="11.197075">
<ele>675.155</ele>
<time>2022-05-27T13:55:29Z</time>
</trkpt>
<trkpt lat="47.677776" lon="11.197095">
<ele>675.225</ele>
<time>2022-05-27T13:55:31Z</time>
</trkpt>
<trkpt lat="47.677723" lon="11.197132">
<ele>675.55</ele>
<time>2022-05-27T13:55:32Z</time>
</trkpt>
<trkpt lat="47.677696" lon="11.197148">
<ele>675.83</ele>
<time>2022-05-27T13:55:34Z</time>
</trkpt>
<trkpt lat="47.677643" lon="11.197184">
<ele>676.119</ele>
<time>2022-05-27T13:55:36Z</time>
</trkpt>
<trkpt lat="47.677597" lon="11.197224">
<ele>676.25</ele>
<time>2022-05-27T13:55:37Z</time>
</trkpt>
<trkpt lat="47.677574" lon="11.197238">
<ele>676.493</ele>
<time>2022-05-27T13:55:38Z</time>
</trkpt>
<trkpt lat="47.677559" lon="11.197251">
<ele>676.672</ele>
<time>2022-05-27T13:55:39Z</time>
</trkpt>
<trkpt lat="47.67754" lon="11.197266">
<ele>676.794</ele>
<time>2022-05-27T13:55:40Z</time>
</trkpt>
<trkpt lat="47.677525" lon="11.19728">
<ele>676.921</ele>
<time>2022-05-27T13:55:41Z</time>
</trkpt>
<trkpt lat="47.677513" lon="11.197302">
<ele>677.022</ele>
<time>2022-05-27T13:55:42Z</time>
</trkpt>
<trkpt lat="47.677509" lon="11.197333">
<ele>677.096</ele>
<time>2022-05-27T13:55:43Z</time>
</trkpt>
<trkpt lat="47.677505" lon="11.197373">
<ele>677.147</ele>
<time>2022-05-27T13:55:45Z</time>
</trkpt>
<trkpt lat="47.67749" lon="11.197465">
<ele>677.174</ele>
<time>2022-05-27T13:55:47Z</time>
</trkpt>
<trkpt lat="47.677486" lon="11.197555">
<ele>677.174</ele>
<time>2022-05-27T13:55:49Z</time>
</trkpt>
<trkpt lat="47.677486" lon="11.197621">
<ele>677.174</ele>
<time>2022-05-27T13:55:50Z</time>
</trkpt>
<trkpt lat="47.677486" lon="11.197657">
<ele>677.174</ele>
<time>2022-05-27T13:55:51Z</time>
</trkpt>
<trkpt lat="47.67749" lon="11.197691">
<ele>677.174</ele>
<time>2022-05-27T13:55:53Z</time>
</trkpt>
<trkpt lat="47.677494" lon="11.197726">
<ele>677.174</ele>
<time>2022-05-27T13:55:54Z</time>
</trkpt>
<trkpt lat="47.677502" lon="11.19776">
<ele>677.174</ele>
<time>2022-05-27T13:55:55Z</time>
</trkpt>
<trkpt lat="47.677517" lon="11.197827">
<ele>677.174</ele>
<time>2022-05-27T13:55:57Z</time>
</trkpt>
<trkpt lat="47.677536" lon="11.1979">
<ele>677.174</ele>
<time>2022-05-27T13:55:58Z</time>
</trkpt>
<trkpt lat="47.677547" lon="11.197935">
<ele>677.174</ele>
<time>2022-05-27T13:56:00Z</time>
</trkpt>
<trkpt lat="47.677567" lon="11.198003">
<ele>677.174</ele>
<time>2022-05-27T13:56:01Z</time>
</trkpt>
<trkpt lat="47.67757" lon="11.198041">
<ele>677.174</ele>
<time>2022-05-27T13:56:03Z</time>
</trkpt>
<trkpt lat="47.67757" lon="11.198122">
<ele>677.174</ele>
<time>2022-05-27T13:56:04Z</time>
</trkpt>
<trkpt lat="47.677567" lon="11.198163">
<ele>677.174</ele>
<time>2022-05-27T13:56:05Z</time>
</trkpt>
<trkpt lat="47.677555" lon="11.198204">
<ele>677.174</ele>
<time>2022-05-27T13:56:06Z</time>
</trkpt>
<trkpt lat="47.677544" lon="11.198238">
<ele>677.174</ele>
<time>2022-05-27T13:56:08Z</time>
</trkpt>
<trkpt lat="47.677528" lon="11.198292">
<ele>677.174</ele>
<time>2022-05-27T13:56:10Z</time>
</trkpt>
<trkpt lat="47.677498" lon="11.198363">
<ele>677.174</ele>
<time>2022-05-27T13:56:12Z</time>
</trkpt>
<trkpt lat="47.677475" lon="11.198457">
<ele>677.174</ele>
<time>2022-05-27T13:56:14Z</time>
</trkpt>
<trkpt lat="47.67746" lon="11.198554">
<ele>677.174</ele>
<time>2022-05-27T13:56:15Z</time>
</trkpt>
<trkpt lat="47.67746" lon="11.198596">
<ele>677.174</ele>
<time>2022-05-27T13:56:17Z</time>
</trkpt>
<trkpt lat="47.67746" lon="11.198645">
<ele>677.174</ele>
<time>2022-05-27T13:56:18Z</time>
</trkpt>
<trkpt lat="47.677467" lon="11.198745">
<ele>677.174</ele>
<time>2022-05-27T13:56:19Z</time>
</trkpt>
<trkpt lat="47.677471" lon="11.198797">
<ele>677.174</ele>
<time>2022-05-27T13:56:20Z</time>
</trkpt>
<trkpt lat="47.677475" lon="11.198847">
<ele>677.174</ele>
<time>2022-05-27T13:56:21Z</time>
</trkpt>
<trkpt lat="47.677486" lon="11.198895">
<ele>677.174</ele>
<time>2022-05-27T13:56:22Z</time>
</trkpt>
<trkpt lat="47.677498" lon="11.198945">
<ele>677.174</ele>
<time>2022-05-27T13:56:24Z</time>
</trkpt>
<trkpt lat="47.677517" lon="11.198992">
<ele>677.454</ele>
<time>2022-05-27T13:56:25Z</time>
</trkpt>
<trkpt lat="47.677555" lon="11.199072">
<ele>677.825</ele>
<time>2022-05-27T13:56:27Z</time>
</trkpt>
<trkpt lat="47.677608" lon="11.199116">
<ele>678.002</ele>
<time>2022-05-27T13:56:28Z</time>
</trkpt>
<trkpt lat="47.677639" lon="11.199133">
<ele>678.32</ele>
<time>2022-05-27T13:56:30Z</time>
</trkpt>
<trkpt lat="47.677696" lon="11.199166">
<ele>678.764</ele>
<time>2022-05-27T13:56:31Z</time>
</trkpt>
<trkpt lat="47.677715" lon="11.199177">
<ele>678.915</ele>
<time>2022-05-27T13:56:32Z</time>
</trkpt>
<trkpt lat="47.677738" lon="11.19919">
<ele>679.025</ele>
<time>2022-05-27T13:56:33Z</time>
</trkpt>
<trkpt lat="47.677761" lon="11.199202">
<ele>679.337</ele>
<time>2022-05-27T13:56:35Z</time>
</trkpt>
<trkpt lat="47.677803" lon="11.199231">
<ele>679.775</ele>
<time>2022-05-27T13:56:36Z</time>
</trkpt>
<trkpt lat="47.677826" lon="11.199252">
<ele>679.93</ele>
<time>2022-05-27T13:56:37Z</time>
</trkpt>
<trkpt lat="47.677837" lon="11.199275">
<ele>680.233</ele>
<time>2022-05-27T13:56:38Z</time>
</trkpt>
<trkpt lat="47.677853" lon="11.1993">
<ele>680.486</ele>
<time>2022-05-27T13:56:39Z</time>
</trkpt>
<trkpt lat="47.677864" lon="11.199322">
<ele>680.668</ele>
<time>2022-05-27T13:56:41Z</time>
</trkpt>
<trkpt lat="47.677879" lon="11.199363">
<ele>680.915</ele>
<time>2022-05-27T13:56:42Z</time>
</trkpt>
<trkpt lat="47.677895" lon="11.199382">
<ele>680.986</ele>
<time>2022-05-27T13:56:43Z</time>
</trkpt>
<trkpt lat="47.677906" lon="11.199396">
<ele>681.038</ele>
<time>2022-05-27T13:56:44Z</time>
</trkpt>
<trkpt lat="47.677929" lon="11.199407">
<ele>681.063</ele>
<time>2022-05-27T13:56:45Z</time>
</trkpt>
<trkpt lat="47.677948" lon="11.199411">
<ele>681.063</ele>
<time>2022-05-27T13:56:46Z</time>
</trkpt>
<trkpt lat="47.677967" lon="11.199411">
<ele>681.063</ele>
<time>2022-05-27T13:56:47Z</time>
</trkpt>
<trkpt lat="47.67799" lon="11.199409">
<ele>681.063</ele>
<time>2022-05-27T13:56:48Z</time>
</trkpt>
<trkpt lat="47.678005" lon="11.199405">
<ele>681.063</ele>
<time>2022-05-27T13:56:50Z</time>
</trkpt>
<trkpt lat="47.678043" lon="11.199403">
<ele>681.063</ele>
<time>2022-05-27T13:56:52Z</time>
</trkpt>
<trkpt lat="47.67807" lon="11.199417">
<ele>681.063</ele>
<time>2022-05-27T13:56:53Z</time>
</trkpt>
<trkpt lat="47.678082" lon="11.199431">
<ele>681.063</ele>
<time>2022-05-27T13:56:54Z</time>
</trkpt>
<trkpt lat="47.678089" lon="11.19945">
<ele>681.063</ele>
<time>2022-05-27T13:56:55Z</time>
</trkpt>
<trkpt lat="47.678097" lon="11.199468">
<ele>681.063</ele>
<time>2022-05-27T13:56:57Z</time>
</trkpt>
<trkpt lat="47.678108" lon="11.19952">
<ele>681.063</ele>
<time>2022-05-27T13:56:58Z</time>
</trkpt>
<trkpt lat="47.678112" lon="11.199545">
<ele>681.063</ele>
<time>2022-05-27T13:57:00Z</time>
</trkpt>
<trkpt lat="47.678116" lon="11.199572">
<ele>681.063</ele>
<time>2022-05-27T13:57:01Z</time>
</trkpt>
<trkpt lat="47.678123" lon="11.19962">
<ele>681.063</ele>
<time>2022-05-27T13:57:02Z</time>
</trkpt>
<trkpt lat="47.678123" lon="11.199645">
<ele>681.063</ele>
<time>2022-05-27T13:57:04Z</time>
</trkpt>
<trkpt lat="47.678135" lon="11.199683">
<ele>681.063</ele>
<time>2022-05-27T13:57:05Z</time>
</trkpt>
<trkpt lat="47.678143" lon="11.199707">
<ele>681.063</ele>
<time>2022-05-27T13:57:06Z</time>
</trkpt>
<trkpt lat="47.678146" lon="11.199732">
<ele>681.063</ele>
<time>2022-05-27T13:57:08Z</time>
</trkpt>
<trkpt lat="47.678162" lon="11.199781">
<ele>681.063</ele>
<time>2022-05-27T13:57:09Z</time>
</trkpt>
<trkpt lat="47.678173" lon="11.199805">
<ele>681.063</ele>
<time>2022-05-27T13:57:10Z</time>
</trkpt>
<trkpt lat="47.678185" lon="11.199826">
<ele>681.063</ele>
<time>2022-05-27T13:57:12Z</time>
</trkpt>
<trkpt lat="47.678192" lon="11.199875">
<ele>680.799</ele>
<time>2022-05-27T13:57:13Z</time>
</trkpt>
<trkpt lat="47.678207" lon="11.199902">
<ele>680.605</ele>
<time>2022-05-27T13:57:15Z</time>
</trkpt>
<trkpt lat="47.678223" lon="11.199958">
<ele>680.346</ele>
<time>2022-05-27T13:57:16Z</time>
</trkpt>
<trkpt lat="47.67823" lon="11.199986">
<ele>680.274</ele>
<time>2022-05-27T13:57:17Z</time>
</trkpt>
<trkpt lat="47.678238" lon="11.200015">
<ele>680.229</ele>
<time>2022-05-27T13:57:18Z</time>
</trkpt>
<trkpt lat="47.678246" lon="11.20004">
<ele>680.197</ele>
<time>2022-05-27T13:57:19Z</time>
</trkpt>
<trkpt lat="47.678253" lon="11.200067">
<ele>680.179</ele>
<time>2022-05-27T13:57:21Z</time>
</trkpt>
<trkpt lat="47.678253" lon="11.200126">
<ele>679.873</ele>
<time>2022-05-27T13:57:23Z</time>
</trkpt>
<trkpt lat="47.678261" lon="11.2002">
<ele>679.428</ele>
<time>2022-05-27T13:57:25Z</time>
</trkpt>
<trkpt lat="47.678265" lon="11.200268">
<ele>679.208</ele>
<time>2022-05-27T13:57:26Z</time>
</trkpt>
<trkpt lat="47.678261" lon="11.200298">
<ele>679.153</ele>
<time>2022-05-27T13:57:27Z</time>
</trkpt>
<trkpt lat="47.678257" lon="11.200327">
<ele>679.118</ele>
<time>2022-05-27T13:57:28Z</time>
</trkpt>
<trkpt lat="47.678253" lon="11.200356">
<ele>679.118</ele>
<time>2022-05-27T13:57:29Z</time>
</trkpt>
<trkpt lat="47.678249" lon="11.200385">
<ele>679.118</ele>
<time>2022-05-27T13:57:30Z</time>
</trkpt>
<trkpt lat="47.678246" lon="11.200413">
<ele>679.118</ele>
<time>2022-05-27T13:57:32Z</time>
</trkpt>
<trkpt lat="47.678242" lon="11.200459">
<ele>678.854</ele>
<time>2022-05-27T13:57:33Z</time>
</trkpt>
<trkpt lat="47.678238" lon="11.20048">
<ele>678.643</ele>
<time>2022-05-27T13:57:34Z</time>
</trkpt>
<trkpt lat="47.678234" lon="11.200507">
<ele>678.479</ele>
<time>2022-05-27T13:57:35Z</time>
</trkpt>
<trkpt lat="47.67823" lon="11.200532">
<ele>678.356</ele>
<time>2022-05-27T13:57:36Z</time>
</trkpt>
<trkpt lat="47.678226" lon="11.200557">
<ele>678.258</ele>
<time>2022-05-27T13:57:37Z</time>
</trkpt>
<trkpt lat="47.678223" lon="11.20058">
<ele>678.222</ele>
<time>2022-05-27T13:57:38Z</time>
</trkpt>
<trkpt lat="47.678223" lon="11.200602">
<ele>677.966</ele>
<time>2022-05-27T13:57:39Z</time>
</trkpt>
<trkpt lat="47.678226" lon="11.200622">
<ele>677.775</ele>
<time>2022-05-27T13:57:40Z</time>
</trkpt>
<trkpt lat="47.67823" lon="11.200647">
<ele>677.615</ele>
<time>2022-05-27T13:57:41Z</time>
</trkpt>
<trkpt lat="47.67823" lon="11.20067">
<ele>677.498</ele>
<time>2022-05-27T13:57:42Z</time>
</trkpt>
<trkpt lat="47.67823" lon="11.200697">
<ele>677.407</ele>
<time>2022-05-27T13:57:44Z</time>
</trkpt>
<trkpt lat="47.678234" lon="11.200727">
<ele>677.332</ele>
<time>2022-05-27T13:57:45Z</time>
</trkpt>
<trkpt lat="47.678238" lon="11.200775">
<ele>677.262</ele>
<time>2022-05-27T13:57:47Z</time>
</trkpt>
<trkpt lat="47.678242" lon="11.200798">
<ele>677.262</ele>
<time>2022-05-27T13:57:48Z</time>
</trkpt>
<trkpt lat="47.678246" lon="11.200836">
<ele>677.037</ele>
<time>2022-05-27T13:57:49Z</time>
</trkpt>
<trkpt lat="47.678242" lon="11.20085">
<ele>676.871</ele>
<time>2022-05-27T13:57:50Z</time>
</trkpt>
<trkpt lat="47.678234" lon="11.200869">
<ele>676.712</ele>
<time>2022-05-27T13:57:51Z</time>
</trkpt>
<trkpt lat="47.678223" lon="11.200884">
<ele>676.574</ele>
<time>2022-05-27T13:57:52Z</time>
</trkpt>
<trkpt lat="47.678204" lon="11.200896">
<ele>676.453</ele>
<time>2022-05-27T13:57:53Z</time>
</trkpt>
<trkpt lat="47.678185" lon="11.2009">
<ele>676.369</ele>
<time>2022-05-27T13:57:54Z</time>
</trkpt>
<trkpt lat="47.678162" lon="11.200903">
<ele>676.316</ele>
<time>2022-05-27T13:57:55Z</time>
</trkpt>
<trkpt lat="47.678146" lon="11.200909">
<ele>676.29</ele>
<time>2022-05-27T13:57:56Z</time>
</trkpt>
<trkpt lat="47.678127" lon="11.200912">
<ele>676.29</ele>
<time>2022-05-27T13:57:57Z</time>
</trkpt>
<trkpt lat="47.678116" lon="11.200915">
<ele>676.29</ele>
<time>2022-05-27T13:57:58Z</time>
</trkpt>
<trkpt lat="47.678101" lon="11.200918">
<ele>676.29</ele>
<time>2022-05-27T13:57:59Z</time>
</trkpt>
<trkpt lat="47.678085" lon="11.200922">
<ele>676.29</ele>
<time>2022-05-27T13:58:00Z</time>
</trkpt>
<trkpt lat="47.67807" lon="11.200924">
<ele>676.29</ele>
<time>2022-05-27T13:58:01Z</time>
</trkpt>
<trkpt lat="47.678059" lon="11.200932">
<ele>676.004</ele>
<time>2022-05-27T13:58:03Z</time>
</trkpt>
<trkpt lat="47.678043" lon="11.200936">
<ele>675.764</ele>
<time>2022-05-27T13:58:04Z</time>
</trkpt>
<trkpt lat="47.678024" lon="11.200945">
<ele>675.43</ele>
<time>2022-05-27T13:58:05Z</time>
</trkpt>
<trkpt lat="47.678013" lon="11.200958">
<ele>675.336</ele>
<time>2022-05-27T13:58:06Z</time>
</trkpt>
<trkpt lat="47.678001" lon="11.200967">
<ele>675.276</ele>
<time>2022-05-27T13:58:07Z</time>
</trkpt>
<trkpt lat="47.677994" lon="11.200974">
<ele>675.247</ele>
<time>2022-05-27T13:58:09Z</time>
</trkpt>
<trkpt lat="47.677982" lon="11.20098">
<ele>675.23</ele>
<time>2022-05-27T13:58:11Z</time>
</trkpt>
<trkpt lat="47.677982" lon="11.200974">
<ele>675.23</ele>
<time>2022-05-27T13:58:12Z</time>
</trkpt>
<trkpt lat="47.677956" lon="11.200951">
<ele>675.23</ele>
<time>2022-05-27T13:58:16Z</time>
</trkpt>
<trkpt lat="47.677948" lon="11.200947">
<ele>675.23</ele>
<time>2022-05-27T13:58:17Z</time>
</trkpt>
<trkpt lat="47.67794" lon="11.200945">
<ele>675.23</ele>
<time>2022-05-27T13:58:19Z</time>
</trkpt>
<trkpt lat="47.677937" lon="11.200943">
<ele>675.23</ele>
<time>2022-05-27T13:58:20Z</time>
</trkpt>
<trkpt lat="47.677933" lon="11.200943">
<ele>675.23</ele>
<time>2022-05-27T13:58:21Z</time>
</trkpt>
<trkpt lat="47.677933" lon="11.200947">
<ele>675.23</ele>
<time>2022-05-27T13:58:23Z</time>
</trkpt>
<trkpt lat="47.677967" lon="11.200949">
<ele>675.23</ele>
<time>2022-05-27T14:01:47Z</time>
</trkpt>
<trkpt lat="47.677975" lon="11.200952">
<ele>675.253</ele>
<time>2022-05-27T14:01:49Z</time>
</trkpt>
<trkpt lat="47.677986" lon="11.200953">
<ele>675.266</ele>
<time>2022-05-27T14:01:50Z</time>
</trkpt>
<trkpt lat="47.677998" lon="11.200957">
<ele>675.293</ele>
<time>2022-05-27T14:01:51Z</time>
</trkpt>
<trkpt lat="47.678017" lon="11.200957">
<ele>675.306</ele>
<time>2022-05-27T14:01:52Z</time>
</trkpt>
<trkpt lat="47.678036" lon="11.200955">
<ele>675.314</ele>
<time>2022-05-27T14:01:53Z</time>
</trkpt>
<trkpt lat="47.678059" lon="11.200957">
<ele>675.317</ele>
<time>2022-05-27T14:01:54Z</time>
</trkpt>
<trkpt lat="47.678104" lon="11.200947">
<ele>675.319</ele>
<time>2022-05-27T14:01:55Z</time>
</trkpt>
<trkpt lat="47.678127" lon="11.200936">
<ele>675.615</ele>
<time>2022-05-27T14:01:56Z</time>
</trkpt>
<trkpt lat="47.678143" lon="11.200936">
<ele>675.815</ele>
<time>2022-05-27T14:01:57Z</time>
</trkpt>
<trkpt lat="47.678158" lon="11.20093">
<ele>675.948</ele>
<time>2022-05-27T14:01:58Z</time>
</trkpt>
<trkpt lat="47.678165" lon="11.200918">
<ele>676.031</ele>
<time>2022-05-27T14:01:59Z</time>
</trkpt>
<trkpt lat="47.678173" lon="11.2009">
<ele>676.132</ele>
<time>2022-05-27T14:02:01Z</time>
</trkpt>
<trkpt lat="47.678181" lon="11.200833">
<ele>676.263</ele>
<time>2022-05-27T14:02:03Z</time>
</trkpt>
<trkpt lat="47.678196" lon="11.20077">
<ele>676.29</ele>
<time>2022-05-27T14:02:04Z</time>
</trkpt>
<trkpt lat="47.678207" lon="11.200747">
<ele>676.29</ele>
<time>2022-05-27T14:02:06Z</time>
</trkpt>
<trkpt lat="47.678211" lon="11.20072">
<ele>676.29</ele>
<time>2022-05-27T14:02:07Z</time>
</trkpt>
<trkpt lat="47.678219" lon="11.20066">
<ele>676.528</ele>
<time>2022-05-27T14:02:08Z</time>
</trkpt>
<trkpt lat="47.678226" lon="11.200624">
<ele>676.684</ele>
<time>2022-05-27T14:02:09Z</time>
</trkpt>
<trkpt lat="47.67823" lon="11.200599">
<ele>676.849</ele>
<time>2022-05-27T14:02:10Z</time>
</trkpt>
<trkpt lat="47.678238" lon="11.20057">
<ele>676.996</ele>
<time>2022-05-27T14:02:12Z</time>
</trkpt>
<trkpt lat="47.678249" lon="11.20055">
<ele>677.118</ele>
<time>2022-05-27T14:02:13Z</time>
</trkpt>
<trkpt lat="47.678253" lon="11.20053">
<ele>677.195</ele>
<time>2022-05-27T14:02:14Z</time>
</trkpt>
<trkpt lat="47.678268" lon="11.200472">
<ele>677.513</ele>
<time>2022-05-27T14:02:15Z</time>
</trkpt>
<trkpt lat="47.67828" lon="11.200455">
<ele>677.751</ele>
<time>2022-05-27T14:02:16Z</time>
</trkpt>
<trkpt lat="47.678288" lon="11.200434">
<ele>677.919</ele>
<time>2022-05-27T14:02:17Z</time>
</trkpt>
<trkpt lat="47.678295" lon="11.200408">
<ele>678.058</ele>
<time>2022-05-27T14:02:19Z</time>
</trkpt>
<trkpt lat="47.678288" lon="11.200354">
<ele>678.245</ele>
<time>2022-05-27T14:02:20Z</time>
</trkpt>
<trkpt lat="47.678276" lon="11.200318">
<ele>678.298</ele>
<time>2022-05-27T14:02:21Z</time>
</trkpt>
<trkpt lat="47.678272" lon="11.200283">
<ele>678.323</ele>
<time>2022-05-27T14:02:23Z</time>
</trkpt>
<trkpt lat="47.678268" lon="11.200212">
<ele>678.584</ele>
<time>2022-05-27T14:02:24Z</time>
</trkpt>
<trkpt lat="47.678268" lon="11.200175">
<ele>678.776</ele>
<time>2022-05-27T14:02:26Z</time>
</trkpt>
<trkpt lat="47.678265" lon="11.200102">
<ele>679.017</ele>
<time>2022-05-27T14:02:28Z</time>
</trkpt>
<trkpt lat="47.678268" lon="11.200038">
<ele>679.345</ele>
<time>2022-05-27T14:02:29Z</time>
</trkpt>
<trkpt lat="47.678265" lon="11.2">
<ele>679.6</ele>
<time>2022-05-27T14:02:30Z</time>
</trkpt>
<trkpt lat="47.678261" lon="11.199962">
<ele>679.791</ele>
<time>2022-05-27T14:02:31Z</time>
</trkpt>
<trkpt lat="47.678261" lon="11.199924">
<ele>679.926</ele>
<time>2022-05-27T14:02:33Z</time>
</trkpt>
<trkpt lat="47.678272" lon="11.199863">
<ele>680.308</ele>
<time>2022-05-27T14:02:34Z</time>
</trkpt>
<trkpt lat="47.678276" lon="11.199834">
<ele>680.546</ele>
<time>2022-05-27T14:02:36Z</time>
</trkpt>
<trkpt lat="47.678265" lon="11.199757">
<ele>680.831</ele>
<time>2022-05-27T14:02:38Z</time>
</trkpt>
<trkpt lat="47.678257" lon="11.199679">
<ele>681.429</ele>
<time>2022-05-27T14:02:40Z</time>
</trkpt>
<trkpt lat="47.678253" lon="11.199638">
<ele>681.682</ele>
<time>2022-05-27T14:02:41Z</time>
</trkpt>
<trkpt lat="47.678249" lon="11.199558">
<ele>681.98</ele>
<time>2022-05-27T14:02:42Z</time>
</trkpt>
<trkpt lat="47.678246" lon="11.199516">
<ele>682.053</ele>
<time>2022-05-27T14:02:43Z</time>
</trkpt>
<trkpt lat="47.678238" lon="11.199475">
<ele>682.098</ele>
<time>2022-05-27T14:02:45Z</time>
</trkpt>
<trkpt lat="47.678234" lon="11.199389">
<ele>682.124</ele>
<time>2022-05-27T14:02:46Z</time>
</trkpt>
<trkpt lat="47.678249" lon="11.199352">
<ele>682.123</ele>
<time>2022-05-27T14:02:47Z</time>
</trkpt>
<trkpt lat="47.678261" lon="11.19932">
<ele>682.123</ele>
<time>2022-05-27T14:02:49Z</time>
</trkpt>
<trkpt lat="47.678284" lon="11.199293">
<ele>682.123</ele>
<time>2022-05-27T14:02:50Z</time>
</trkpt>
<trkpt lat="47.678322" lon="11.199248">
<ele>682.123</ele>
<time>2022-05-27T14:02:51Z</time>
</trkpt>
<trkpt lat="47.678349" lon="11.199228">
<ele>682.124</ele>
<time>2022-05-27T14:02:52Z</time>
</trkpt>
<trkpt lat="47.678371" lon="11.199208">
<ele>682.123</ele>
<time>2022-05-27T14:02:53Z</time>
</trkpt>
<trkpt lat="47.678398" lon="11.19919">
<ele>682.124</ele>
<time>2022-05-27T14:02:55Z</time>
</trkpt>
<trkpt lat="47.678421" lon="11.199168">
<ele>682.123</ele>
<time>2022-05-27T14:02:56Z</time>
</trkpt>
<trkpt lat="47.678471" lon="11.19913">
<ele>682.123</ele>
<time>2022-05-27T14:02:58Z</time>
</trkpt>
<trkpt lat="47.678497" lon="11.199108">
<ele>682.123</ele>
<time>2022-05-27T14:02:59Z</time>
</trkpt>
<trkpt lat="47.678551" lon="11.199059">
<ele>682.123</ele>
<time>2022-05-27T14:03:01Z</time>
</trkpt>
<trkpt lat="47.678608" lon="11.199021">
<ele>682.412</ele>
<time>2022-05-27T14:03:03Z</time>
</trkpt>
<trkpt lat="47.678665" lon="11.198998">
<ele>682.797</ele>
<time>2022-05-27T14:03:04Z</time>
</trkpt>
<trkpt lat="47.678688" lon="11.198994">
<ele>682.911</ele>
<time>2022-05-27T14:03:05Z</time>
</trkpt>
<trkpt lat="47.678715" lon="11.198985">
<ele>682.994</ele>
<time>2022-05-27T14:03:07Z</time>
</trkpt>
<trkpt lat="47.678745" lon="11.19897">
<ele>683.04</ele>
<time>2022-05-27T14:03:08Z</time>
</trkpt>
<trkpt lat="47.67881" lon="11.198932">
<ele>683.096</ele>
<time>2022-05-27T14:03:09Z</time>
</trkpt>
<trkpt lat="47.678844" lon="11.198915">
<ele>683.342</ele>
<time>2022-05-27T14:03:11Z</time>
</trkpt>
<trkpt lat="47.678879" lon="11.198894">
<ele>683.551</ele>
<time>2022-05-27T14:03:12Z</time>
</trkpt>
<trkpt lat="47.678947" lon="11.19886">
<ele>683.848</ele>
<time>2022-05-27T14:03:13Z</time>
</trkpt>
<trkpt lat="47.678978" lon="11.19885">
<ele>683.94</ele>
<time>2022-05-27T14:03:14Z</time>
</trkpt>
<trkpt lat="47.679012" lon="11.198837">
<ele>684.003</ele>
<time>2022-05-27T14:03:15Z</time>
</trkpt>
<trkpt lat="47.679043" lon="11.198818">
<ele>684.042</ele>
<time>2022-05-27T14:03:17Z</time>
</trkpt>
<trkpt lat="47.679104" lon="11.198771">
<ele>684.462</ele>
<time>2022-05-27T14:03:18Z</time>
</trkpt>
<trkpt lat="47.679142" lon="11.198749">
<ele>684.581</ele>
<time>2022-05-27T14:03:19Z</time>
</trkpt>
<trkpt lat="47.679176" lon="11.198726">
<ele>684.714</ele>
<time>2022-05-27T14:03:21Z</time>
</trkpt>
<trkpt lat="47.679256" lon="11.198676">
<ele>685.133</ele>
<time>2022-05-27T14:03:22Z</time>
</trkpt>
<trkpt lat="47.679295" lon="11.19865">
<ele>685.38</ele>
<time>2022-05-27T14:03:24Z</time>
</trkpt>
<trkpt lat="47.679363" lon="11.198615">
<ele>685.747</ele>
<time>2022-05-27T14:03:26Z</time>
</trkpt>
<trkpt lat="47.679424" lon="11.198582">
<ele>685.878</ele>
<time>2022-05-27T14:03:27Z</time>
</trkpt>
<trkpt lat="47.679447" lon="11.198568">
<ele>685.902</ele>
<time>2022-05-27T14:03:28Z</time>
</trkpt>
<trkpt lat="47.67947" lon="11.198554">
<ele>685.926</ele>
<time>2022-05-27T14:03:29Z</time>
</trkpt>
<trkpt lat="47.679493" lon="11.198537">
<ele>685.926</ele>
<time>2022-05-27T14:03:30Z</time>
</trkpt>
<trkpt lat="47.679512" lon="11.198515">
<ele>685.926</ele>
<time>2022-05-27T14:03:31Z</time>
</trkpt>
<trkpt lat="47.679531" lon="11.198495">
<ele>685.926</ele>
<time>2022-05-27T14:03:32Z</time>
</trkpt>
<trkpt lat="47.67955" lon="11.198472">
<ele>685.926</ele>
<time>2022-05-27T14:03:33Z</time>
</trkpt>
<trkpt lat="47.679565" lon="11.198447">
<ele>685.926</ele>
<time>2022-05-27T14:03:34Z</time>
</trkpt>
<trkpt lat="47.679581" lon="11.198417">
<ele>685.926</ele>
<time>2022-05-27T14:03:35Z</time>
</trkpt>
<trkpt lat="47.679592" lon="11.19838">
<ele>685.926</ele>
<time>2022-05-27T14:03:37Z</time>
</trkpt>
<trkpt lat="47.679592" lon="11.198343">
<ele>685.926</ele>
<time>2022-05-27T14:03:38Z</time>
</trkpt>
<trkpt lat="47.679592" lon="11.198307">
<ele>685.926</ele>
<time>2022-05-27T14:03:39Z</time>
</trkpt>
<trkpt lat="47.679588" lon="11.198265">
<ele>685.926</ele>
<time>2022-05-27T14:03:40Z</time>
</trkpt>
<trkpt lat="47.679577" lon="11.198172">
<ele>685.926</ele>
<time>2022-05-27T14:03:41Z</time>
</trkpt>
<trkpt lat="47.679569" lon="11.198127">
<ele>685.926</ele>
<time>2022-05-27T14:03:43Z</time>
</trkpt>
<trkpt lat="47.679554" lon="11.198038">
<ele>685.926</ele>
<time>2022-05-27T14:03:45Z</time>
</trkpt>
<trkpt lat="47.67955" lon="11.197999">
<ele>685.926</ele>
<time>2022-05-27T14:03:46Z</time>
</trkpt>
<trkpt lat="47.679539" lon="11.197905">
<ele>685.683</ele>
<time>2022-05-27T14:03:47Z</time>
</trkpt>
<trkpt lat="47.679527" lon="11.19785">
<ele>685.49</ele>
<time>2022-05-27T14:03:48Z</time>
</trkpt>
<trkpt lat="47.679523" lon="11.197798">
<ele>685.36</ele>
<time>2022-05-27T14:03:49Z</time>
</trkpt>
<trkpt lat="47.67952" lon="11.197756">
<ele>685.213</ele>
<time>2022-05-27T14:03:51Z</time>
</trkpt>
<trkpt lat="47.679497" lon="11.197637">
<ele>685.02</ele>
<time>2022-05-27T14:03:53Z</time>
</trkpt>
<trkpt lat="47.67947" lon="11.197518">
<ele>684.953</ele>
<time>2022-05-27T14:03:55Z</time>
</trkpt>
<trkpt lat="47.679443" lon="11.197395">
<ele>684.953</ele>
<time>2022-05-27T14:03:56Z</time>
</trkpt>
<trkpt lat="47.679432" lon="11.197331">
<ele>684.953</ele>
<time>2022-05-27T14:03:58Z</time>
</trkpt>
<trkpt lat="47.679417" lon="11.197209">
<ele>684.953</ele>
<time>2022-05-27T14:04:00Z</time>
</trkpt>
<trkpt lat="47.67942" lon="11.197152">
<ele>684.718</ele>
<time>2022-05-27T14:04:01Z</time>
</trkpt>
<trkpt lat="47.679436" lon="11.197046">
<ele>684.362</ele>
<time>2022-05-27T14:04:02Z</time>
</trkpt>
<trkpt lat="47.679459" lon="11.197023">
<ele>684.235</ele>
<time>2022-05-27T14:04:03Z</time>
</trkpt>
<trkpt lat="47.679478" lon="11.197014">
<ele>684.135</ele>
<time>2022-05-27T14:04:04Z</time>
</trkpt>
<trkpt lat="47.679504" lon="11.197003">
<ele>684.085</ele>
<time>2022-05-27T14:04:05Z</time>
</trkpt>
<trkpt lat="47.679527" lon="11.196993">
<ele>684.238</ele>
<time>2022-05-27T14:04:06Z</time>
</trkpt>
<trkpt lat="47.679558" lon="11.196987">
<ele>684.393</ele>
<time>2022-05-27T14:04:07Z</time>
</trkpt>
<trkpt lat="47.679585" lon="11.196983">
<ele>684.543</ele>
<time>2022-05-27T14:04:08Z</time>
</trkpt>
<trkpt lat="47.679607" lon="11.196979">
<ele>684.655</ele>
<time>2022-05-27T14:04:09Z</time>
</trkpt>
<trkpt lat="47.679623" lon="11.196973">
<ele>685.028</ele>
<time>2022-05-27T14:04:10Z</time>
</trkpt>
<trkpt lat="47.679634" lon="11.196954">
<ele>685.337</ele>
<time>2022-05-27T14:04:11Z</time>
</trkpt>
<trkpt lat="47.679638" lon="11.196924">
<ele>685.563</ele>
<time>2022-05-27T14:04:12Z</time>
</trkpt>
<trkpt lat="47.67963" lon="11.196897">
<ele>685.715</ele>
<time>2022-05-27T14:04:14Z</time>
</trkpt>
<trkpt lat="47.679592" lon="11.196863">
<ele>685.919</ele>
<time>2022-05-27T14:04:15Z</time>
</trkpt>
<trkpt lat="47.679569" lon="11.196856">
<ele>685.983</ele>
<time>2022-05-27T14:04:17Z</time>
</trkpt>
<trkpt lat="47.679523" lon="11.196852">
<ele>686.014</ele>
<time>2022-05-27T14:04:18Z</time>
</trkpt>
<trkpt lat="47.679501" lon="11.196852">
<ele>686.014</ele>
<time>2022-05-27T14:04:19Z</time>
</trkpt>
<trkpt lat="47.679482" lon="11.196852">
<ele>686.255</ele>
<time>2022-05-27T14:04:20Z</time>
</trkpt>
<trkpt lat="47.679462" lon="11.196849">
<ele>686.448</ele>
<time>2022-05-27T14:04:21Z</time>
</trkpt>
<trkpt lat="47.679443" lon="11.196835">
<ele>686.604</ele>
<time>2022-05-27T14:04:22Z</time>
</trkpt>
<trkpt lat="47.679436" lon="11.196812">
<ele>686.734</ele>
<time>2022-05-27T14:04:23Z</time>
</trkpt>
<trkpt lat="47.679432" lon="11.196778">
<ele>686.837</ele>
<time>2022-05-27T14:04:25Z</time>
</trkpt>
<trkpt lat="47.679428" lon="11.196696">
<ele>686.962</ele>
<time>2022-05-27T14:04:27Z</time>
</trkpt>
<trkpt lat="47.679424" lon="11.196606">
<ele>686.987</ele>
<time>2022-05-27T14:04:28Z</time>
</trkpt>
<trkpt lat="47.679424" lon="11.196562">
<ele>686.987</ele>
<time>2022-05-27T14:04:29Z</time>
</trkpt>
<trkpt lat="47.679424" lon="11.196522">
<ele>686.987</ele>
<time>2022-05-27T14:04:30Z</time>
</trkpt>
<trkpt lat="47.679432" lon="11.196484">
<ele>686.987</ele>
<time>2022-05-27T14:04:32Z</time>
</trkpt>
<trkpt lat="47.679447" lon="11.196446">
<ele>686.987</ele>
<time>2022-05-27T14:04:33Z</time>
</trkpt>
<trkpt lat="47.679462" lon="11.196408">
<ele>686.987</ele>
<time>2022-05-27T14:04:34Z</time>
</trkpt>
<trkpt lat="47.679497" lon="11.196313">
<ele>686.987</ele>
<time>2022-05-27T14:04:35Z</time>
</trkpt>
<trkpt lat="47.679516" lon="11.196257">
<ele>686.987</ele>
<time>2022-05-27T14:04:36Z</time>
</trkpt>
<trkpt lat="47.679535" lon="11.196191">
<ele>686.692</ele>
<time>2022-05-27T14:04:37Z</time>
</trkpt>
<trkpt lat="47.679558" lon="11.196125">
<ele>686.461</ele>
<time>2022-05-27T14:04:38Z</time>
</trkpt>
<trkpt lat="47.679569" lon="11.196058">
<ele>686.324</ele>
<time>2022-05-27T14:04:39Z</time>
</trkpt>
<trkpt lat="47.679585" lon="11.19599">
<ele>686.181</ele>
<time>2022-05-27T14:04:40Z</time>
</trkpt>
<trkpt lat="47.679604" lon="11.195914">
<ele>685.808</ele>
<time>2022-05-27T14:04:41Z</time>
</trkpt>
<trkpt lat="47.679619" lon="11.195837">
<ele>685.574</ele>
<time>2022-05-27T14:04:42Z</time>
</trkpt>
<trkpt lat="47.679634" lon="11.19576">
<ele>685.101</ele>
<time>2022-05-27T14:04:43Z</time>
</trkpt>
<trkpt lat="47.679649" lon="11.195688">
<ele>684.794</ele>
<time>2022-05-27T14:04:44Z</time>
</trkpt>
<trkpt lat="47.679665" lon="11.195619">
<ele>684.147</ele>
<time>2022-05-27T14:04:45Z</time>
</trkpt>
<trkpt lat="47.67968" lon="11.195554">
<ele>683.752</ele>
<time>2022-05-27T14:04:46Z</time>
</trkpt>
<trkpt lat="47.679695" lon="11.19549">
<ele>683.54</ele>
<time>2022-05-27T14:04:47Z</time>
</trkpt>
<trkpt lat="47.679718" lon="11.195426">
<ele>683.078</ele>
<time>2022-05-27T14:04:48Z</time>
</trkpt>
<trkpt lat="47.679737" lon="11.195365">
<ele>682.739</ele>
<time>2022-05-27T14:04:49Z</time>
</trkpt>
<trkpt lat="47.67976" lon="11.195307">
<ele>682.425</ele>
<time>2022-05-27T14:04:50Z</time>
</trkpt>
<trkpt lat="47.67979" lon="11.195253">
<ele>682.201</ele>
<time>2022-05-27T14:04:51Z</time>
</trkpt>
<trkpt lat="47.679825" lon="11.195205">
<ele>682.041</ele>
<time>2022-05-27T14:04:52Z</time>
</trkpt>
<trkpt lat="47.679863" lon="11.19516">
<ele>681.946</ele>
<time>2022-05-27T14:04:53Z</time>
</trkpt>
<trkpt lat="47.679901" lon="11.195113">
<ele>681.886</ele>
<time>2022-05-27T14:04:54Z</time>
</trkpt>
<trkpt lat="47.679939" lon="11.195068">
<ele>681.858</ele>
<time>2022-05-27T14:04:56Z</time>
</trkpt>
<trkpt lat="47.679981" lon="11.195028">
<ele>681.858</ele>
<time>2022-05-27T14:04:57Z</time>
</trkpt>
<trkpt lat="47.680058" lon="11.194962">
<ele>681.858</ele>
<time>2022-05-27T14:04:58Z</time>
</trkpt>
<trkpt lat="47.680092" lon="11.194934">
<ele>681.858</ele>
<time>2022-05-27T14:04:59Z</time>
</trkpt>
<trkpt lat="47.68013" lon="11.194908">
<ele>681.858</ele>
<time>2022-05-27T14:05:00Z</time>
</trkpt>
<trkpt lat="47.680161" lon="11.194886">
<ele>681.858</ele>
<time>2022-05-27T14:05:01Z</time>
</trkpt>
<trkpt lat="47.680191" lon="11.194873">
<ele>681.858</ele>
<time>2022-05-27T14:05:02Z</time>
</trkpt>
<trkpt lat="47.680218" lon="11.19486">
<ele>681.858</ele>
<time>2022-05-27T14:05:04Z</time>
</trkpt>
<trkpt lat="47.680279" lon="11.194835">
<ele>681.621</ele>
<time>2022-05-27T14:05:05Z</time>
</trkpt>
<trkpt lat="47.680309" lon="11.194825">
<ele>681.425</ele>
<time>2022-05-27T14:05:06Z</time>
</trkpt>
<trkpt lat="47.68034" lon="11.194817">
<ele>681.268</ele>
<time>2022-05-27T14:05:07Z</time>
</trkpt>
<trkpt lat="47.68037" lon="11.194808">
<ele>681.17</ele>
<time>2022-05-27T14:05:08Z</time>
</trkpt>
<trkpt lat="47.680405" lon="11.194798">
<ele>680.841</ele>
<time>2022-05-27T14:05:09Z</time>
</trkpt>
<trkpt lat="47.680439" lon="11.194785">
<ele>680.543</ele>
<time>2022-05-27T14:05:10Z</time>
</trkpt>
<trkpt lat="47.680473" lon="11.194766">
<ele>680.318</ele>
<time>2022-05-27T14:05:11Z</time>
</trkpt>
<trkpt lat="47.680504" lon="11.194743">
<ele>680.156</ele>
<time>2022-05-27T14:05:12Z</time>
</trkpt>
<trkpt lat="47.680542" lon="11.194715">
<ele>680.052</ele>
<time>2022-05-27T14:05:13Z</time>
</trkpt>
<trkpt lat="47.680573" lon="11.19468">
<ele>679.979</ele>
<time>2022-05-27T14:05:14Z</time>
</trkpt>
<trkpt lat="47.680603" lon="11.194638">
<ele>679.934</ele>
<time>2022-05-27T14:05:15Z</time>
</trkpt>
<trkpt lat="47.680634" lon="11.194591">
<ele>679.913</ele>
<time>2022-05-27T14:05:16Z</time>
</trkpt>
<trkpt lat="47.680656" lon="11.194544">
<ele>679.913</ele>
<time>2022-05-27T14:05:17Z</time>
</trkpt>
<trkpt lat="47.680679" lon="11.194498">
<ele>679.914</ele>
<time>2022-05-27T14:05:19Z</time>
</trkpt>
<trkpt lat="47.68071" lon="11.194412">
<ele>679.914</ele>
<time>2022-05-27T14:05:20Z</time>
</trkpt>
<trkpt lat="47.680729" lon="11.19437">
<ele>679.913</ele>
<time>2022-05-27T14:05:21Z</time>
</trkpt>
<trkpt lat="47.680748" lon="11.194332">
<ele>679.913</ele>
<time>2022-05-27T14:05:22Z</time>
</trkpt>
<trkpt lat="47.680763" lon="11.194299">
<ele>679.914</ele>
<time>2022-05-27T14:05:24Z</time>
</trkpt>
<trkpt lat="47.68079" lon="11.194259">
<ele>680.144</ele>
<time>2022-05-27T14:05:26Z</time>
</trkpt>
<trkpt lat="47.680805" lon="11.194242">
<ele>680.333</ele>
<time>2022-05-27T14:05:27Z</time>
</trkpt>
<trkpt lat="47.680836" lon="11.194218">
<ele>680.598</ele>
<time>2022-05-27T14:05:28Z</time>
</trkpt>
<trkpt lat="47.680859" lon="11.194208">
<ele>680.688</ele>
<time>2022-05-27T14:05:29Z</time>
</trkpt>
<trkpt lat="47.680878" lon="11.194197">
<ele>680.784</ele>
<time>2022-05-27T14:05:31Z</time>
</trkpt>
<trkpt lat="47.680901" lon="11.194141">
<ele>680.886</ele>
<time>2022-05-27T14:05:32Z</time>
</trkpt>
<trkpt lat="47.680904" lon="11.19411">
<ele>680.886</ele>
<time>2022-05-27T14:05:33Z</time>
</trkpt>
<trkpt lat="47.680904" lon="11.194073">
<ele>680.886</ele>
<time>2022-05-27T14:05:34Z</time>
</trkpt>
<trkpt lat="47.680897" lon="11.194036">
<ele>680.886</ele>
<time>2022-05-27T14:05:35Z</time>
</trkpt>
<trkpt lat="47.680897" lon="11.193995">
<ele>680.886</ele>
<time>2022-05-27T14:05:37Z</time>
</trkpt>
<trkpt lat="47.680897" lon="11.193907">
<ele>681.14</ele>
<time>2022-05-27T14:05:38Z</time>
</trkpt>
<trkpt lat="47.680889" lon="11.193867">
<ele>681.31</ele>
<time>2022-05-27T14:05:39Z</time>
</trkpt>
<trkpt lat="47.680882" lon="11.193828">
<ele>681.488</ele>
<time>2022-05-27T14:05:40Z</time>
</trkpt>
<trkpt lat="47.680878" lon="11.193794">
<ele>681.62</ele>
<time>2022-05-27T14:05:41Z</time>
</trkpt>
<trkpt lat="47.680874" lon="11.193763">
<ele>681.715</ele>
<time>2022-05-27T14:05:43Z</time>
</trkpt>
<trkpt lat="47.680882" lon="11.193688">
<ele>681.833</ele>
<time>2022-05-27T14:05:44Z</time>
</trkpt>
<trkpt lat="47.680893" lon="11.19365">
<ele>681.858</ele>
<time>2022-05-27T14:05:45Z</time>
</trkpt>
<trkpt lat="47.680908" lon="11.19362">
<ele>681.858</ele>
<time>2022-05-27T14:05:47Z</time>
</trkpt>
<trkpt lat="47.680954" lon="11.193586">
<ele>681.618</ele>
<time>2022-05-27T14:05:48Z</time>
</trkpt>
<trkpt lat="47.680977" lon="11.193582">
<ele>681.442</ele>
<time>2022-05-27T14:05:49Z</time>
</trkpt>
<trkpt lat="47.680996" lon="11.193577">
<ele>681.273</ele>
<time>2022-05-27T14:05:50Z</time>
</trkpt>
<trkpt lat="47.681026" lon="11.193572">
<ele>681.144</ele>
<time>2022-05-27T14:05:51Z</time>
</trkpt>
<trkpt lat="47.681046" lon="11.193563">
<ele>681.044</ele>
<time>2022-05-27T14:05:52Z</time>
</trkpt>
<trkpt lat="47.681068" lon="11.193558">
<ele>680.966</ele>
<time>2022-05-27T14:05:53Z</time>
</trkpt>
<trkpt lat="47.681095" lon="11.193553">
<ele>680.913</ele>
<time>2022-05-27T14:05:55Z</time>
</trkpt>
<trkpt lat="47.681149" lon="11.193545">
<ele>680.886</ele>
<time>2022-05-27T14:05:56Z</time>
</trkpt>
<trkpt lat="47.681171" lon="11.193542">
<ele>680.886</ele>
<time>2022-05-27T14:05:57Z</time>
</trkpt>
<trkpt lat="47.681194" lon="11.193535">
<ele>680.886</ele>
<time>2022-05-27T14:05:58Z</time>
</trkpt>
<trkpt lat="47.681229" lon="11.193525">
<ele>680.886</ele>
<time>2022-05-27T14:05:59Z</time>
</trkpt>
<trkpt lat="47.681259" lon="11.193513">
<ele>680.886</ele>
<time>2022-05-27T14:06:00Z</time>
</trkpt>
<trkpt lat="47.681297" lon="11.193509">
<ele>680.886</ele>
<time>2022-05-27T14:06:02Z</time>
</trkpt>
<trkpt lat="47.68137" lon="11.19349">
<ele>680.886</ele>
<time>2022-05-27T14:06:04Z</time>
</trkpt>
<trkpt lat="47.681435" lon="11.193477">
<ele>680.886</ele>
<time>2022-05-27T14:06:05Z</time>
</trkpt>
<trkpt lat="47.68148" lon="11.19347">
<ele>680.886</ele>
<time>2022-05-27T14:06:07Z</time>
</trkpt>
<trkpt lat="47.681557" lon="11.193467">
<ele>680.886</ele>
<time>2022-05-27T14:06:08Z</time>
</trkpt>
<trkpt lat="47.681595" lon="11.193465">
<ele>680.886</ele>
<time>2022-05-27T14:06:09Z</time>
</trkpt>
<trkpt lat="47.681622" lon="11.193463">
<ele>680.886</ele>
<time>2022-05-27T14:06:10Z</time>
</trkpt>
<trkpt lat="47.681644" lon="11.193459">
<ele>680.886</ele>
<time>2022-05-27T14:06:11Z</time>
</trkpt>
<trkpt lat="47.681675" lon="11.193459">
<ele>680.886</ele>
<time>2022-05-27T14:06:12Z</time>
</trkpt>
<trkpt lat="47.681725" lon="11.19345">
<ele>680.886</ele>
<time>2022-05-27T14:06:13Z</time>
</trkpt>
<trkpt lat="47.681774" lon="11.19345">
<ele>680.886</ele>
<time>2022-05-27T14:06:14Z</time>
</trkpt>
<trkpt lat="47.681824" lon="11.193443">
<ele>680.886</ele>
<time>2022-05-27T14:06:16Z</time>
</trkpt>
<trkpt lat="47.681873" lon="11.193442">
<ele>680.886</ele>
<time>2022-05-27T14:06:17Z</time>
</trkpt>
<trkpt lat="47.681957" lon="11.193419">
<ele>681.148</ele>
<time>2022-05-27T14:06:19Z</time>
</trkpt>
<trkpt lat="47.682003" lon="11.193407">
<ele>681.174</ele>
<time>2022-05-27T14:06:20Z</time>
</trkpt>
<trkpt lat="47.682087" lon="11.19339">
<ele>681.461</ele>
<time>2022-05-27T14:06:22Z</time>
</trkpt>
<trkpt lat="47.682171" lon="11.193375">
<ele>681.629</ele>
<time>2022-05-27T14:06:23Z</time>
</trkpt>
<trkpt lat="47.68222" lon="11.193369">
<ele>681.672</ele>
<time>2022-05-27T14:06:24Z</time>
</trkpt>
<trkpt lat="47.682266" lon="11.193362">
<ele>681.69</ele>
<time>2022-05-27T14:06:25Z</time>
</trkpt>
<trkpt lat="47.682304" lon="11.193352">
<ele>681.685</ele>
<time>2022-05-27T14:06:26Z</time>
</trkpt>
<trkpt lat="47.682343" lon="11.193343">
<ele>681.681</ele>
<time>2022-05-27T14:06:27Z</time>
</trkpt>
<trkpt lat="47.682384" lon="11.193339">
<ele>681.681</ele>
<time>2022-05-27T14:06:29Z</time>
</trkpt>
<trkpt lat="47.682465" lon="11.193323">
<ele>681.682</ele>
<time>2022-05-27T14:06:30Z</time>
</trkpt>
<trkpt lat="47.682507" lon="11.193316">
<ele>681.682</ele>
<time>2022-05-27T14:06:31Z</time>
</trkpt>
<trkpt lat="47.68256" lon="11.193312">
<ele>681.681</ele>
<time>2022-05-27T14:06:32Z</time>
</trkpt>
<trkpt lat="47.682613" lon="11.193303">
<ele>681.682</ele>
<time>2022-05-27T14:06:34Z</time>
</trkpt>
<trkpt lat="47.682709" lon="11.193294">
<ele>681.682</ele>
<time>2022-05-27T14:06:36Z</time>
</trkpt>
<trkpt lat="47.6828" lon="11.193287">
<ele>681.682</ele>
<time>2022-05-27T14:06:37Z</time>
</trkpt>
<trkpt lat="47.682846" lon="11.193285">
<ele>681.682</ele>
<time>2022-05-27T14:06:38Z</time>
</trkpt>
<trkpt lat="47.682884" lon="11.193278">
<ele>681.682</ele>
<time>2022-05-27T14:06:40Z</time>
</trkpt>
<trkpt lat="47.682968" lon="11.193274">
<ele>682.101</ele>
<time>2022-05-27T14:06:42Z</time>
</trkpt>
<trkpt lat="47.683052" lon="11.19327">
<ele>682.402</ele>
<time>2022-05-27T14:06:43Z</time>
</trkpt>
<trkpt lat="47.683094" lon="11.193267">
<ele>682.504</ele>
<time>2022-05-27T14:06:44Z</time>
</trkpt>
<trkpt lat="47.683136" lon="11.193267">
<ele>682.581</ele>
<time>2022-05-27T14:06:45Z</time>
</trkpt>
<trkpt lat="47.683182" lon="11.193267">
<ele>682.63</ele>
<time>2022-05-27T14:06:46Z</time>
</trkpt>
<trkpt lat="47.683228" lon="11.193264">
<ele>682.654</ele>
<time>2022-05-27T14:06:47Z</time>
</trkpt>
<trkpt lat="47.68327" lon="11.193255">
<ele>682.654</ele>
<time>2022-05-27T14:06:49Z</time>
</trkpt>
<trkpt lat="47.683342" lon="11.193248">
<ele>682.654</ele>
<time>2022-05-27T14:06:50Z</time>
</trkpt>
<trkpt lat="47.683388" lon="11.193247">
<ele>682.654</ele>
<time>2022-05-27T14:06:52Z</time>
</trkpt>
<trkpt lat="47.683434" lon="11.193241">
<ele>682.654</ele>
<time>2022-05-27T14:06:53Z</time>
</trkpt>
<trkpt lat="47.683483" lon="11.19324">
<ele>682.654</ele>
<time>2022-05-27T14:06:54Z</time>
</trkpt>
<trkpt lat="47.683586" lon="11.193236">
<ele>682.654</ele>
<time>2022-05-27T14:06:55Z</time>
</trkpt>
<trkpt lat="47.683636" lon="11.193233">
<ele>682.654</ele>
<time>2022-05-27T14:06:56Z</time>
</trkpt>
<trkpt lat="47.683685" lon="11.193227">
<ele>682.654</ele>
<time>2022-05-27T14:06:57Z</time>
</trkpt>
<trkpt lat="47.683735" lon="11.19322">
<ele>682.654</ele>
<time>2022-05-27T14:06:58Z</time>
</trkpt>
<trkpt lat="47.683777" lon="11.193213">
<ele>682.654</ele>
<time>2022-05-27T14:06:59Z</time>
</trkpt>
<trkpt lat="47.683823" lon="11.193208">
<ele>682.654</ele>
<time>2022-05-27T14:07:00Z</time>
</trkpt>
<trkpt lat="47.683861" lon="11.193203">
<ele>682.654</ele>
<time>2022-05-27T14:07:01Z</time>
</trkpt>
<trkpt lat="47.683903" lon="11.193199">
<ele>682.654</ele>
<time>2022-05-27T14:07:02Z</time>
</trkpt>
<trkpt lat="47.683949" lon="11.193203">
<ele>682.654</ele>
<time>2022-05-27T14:07:04Z</time>
</trkpt>
<trkpt lat="47.684048" lon="11.193225">
<ele>682.654</ele>
<time>2022-05-27T14:07:06Z</time>
</trkpt>
<trkpt lat="47.684135" lon="11.193236">
<ele>682.654</ele>
<time>2022-05-27T14:07:08Z</time>
</trkpt>
<trkpt lat="47.684235" lon="11.193224">
<ele>682.654</ele>
<time>2022-05-27T14:07:09Z</time>
</trkpt>
<trkpt lat="47.684277" lon="11.193215">
<ele>682.654</ele>
<time>2022-05-27T14:07:10Z</time>
</trkpt>
<trkpt lat="47.684315" lon="11.193207">
<ele>682.654</ele>
<time>2022-05-27T14:07:11Z</time>
</trkpt>
<trkpt lat="47.684353" lon="11.193201">
<ele>682.654</ele>
<time>2022-05-27T14:07:12Z</time>
</trkpt>
<trkpt lat="47.684399" lon="11.193199">
<ele>682.654</ele>
<time>2022-05-27T14:07:13Z</time>
</trkpt>
<trkpt lat="47.684441" lon="11.193197">
<ele>682.654</ele>
<time>2022-05-27T14:07:15Z</time>
</trkpt>
<trkpt lat="47.684502" lon="11.193193">
<ele>682.654</ele>
<time>2022-05-27T14:07:16Z</time>
</trkpt>
<trkpt lat="47.684528" lon="11.193187">
<ele>682.654</ele>
<time>2022-05-27T14:07:17Z</time>
</trkpt>
<trkpt lat="47.684555" lon="11.19318">
<ele>682.654</ele>
<time>2022-05-27T14:07:18Z</time>
</trkpt>
<trkpt lat="47.684578" lon="11.193175">
<ele>682.654</ele>
<time>2022-05-27T14:07:20Z</time>
</trkpt>
<trkpt lat="47.684616" lon="11.193172">
<ele>682.654</ele>
<time>2022-05-27T14:07:22Z</time>
</trkpt>
<trkpt lat="47.684647" lon="11.193183">
<ele>682.436</ele>
<time>2022-05-27T14:07:23Z</time>
</trkpt>
<trkpt lat="47.684658" lon="11.193185">
<ele>682.253</ele>
<time>2022-05-27T14:07:24Z</time>
</trkpt>
<trkpt lat="47.684669" lon="11.193187">
<ele>682.109</ele>
<time>2022-05-27T14:07:25Z</time>
</trkpt>
<trkpt lat="47.684681" lon="11.193191">
<ele>681.996</ele>
<time>2022-05-27T14:07:27Z</time>
</trkpt>
<trkpt lat="47.684704" lon="11.193199">
<ele>681.85</ele>
<time>2022-05-27T14:07:28Z</time>
</trkpt>
<trkpt lat="47.684711" lon="11.193208">
<ele>681.801</ele>
<time>2022-05-27T14:07:30Z</time>
</trkpt>
<trkpt lat="47.684723" lon="11.193216">
<ele>681.77</ele>
<time>2022-05-27T14:07:31Z</time>
</trkpt>
<trkpt lat="47.684727" lon="11.19322">
<ele>681.77</ele>
<time>2022-05-27T14:07:32Z</time>
</trkpt>
<trkpt lat="47.684731" lon="11.193225">
<ele>681.77</ele>
<time>2022-05-27T14:07:34Z</time>
</trkpt>
<trkpt lat="47.684734" lon="11.193243">
<ele>681.77</ele>
<time>2022-05-27T14:07:36Z</time>
</trkpt>
<trkpt lat="47.684742" lon="11.193287">
<ele>681.77</ele>
<time>2022-05-27T14:07:37Z</time>
</trkpt>
<trkpt lat="47.684746" lon="11.193312">
<ele>681.77</ele>
<time>2022-05-27T14:07:38Z</time>
</trkpt>
<trkpt lat="47.68475" lon="11.193338">
<ele>681.77</ele>
<time>2022-05-27T14:07:39Z</time>
</trkpt>
<trkpt lat="47.684753" lon="11.193363">
<ele>681.769</ele>
<time>2022-05-27T14:07:41Z</time>
</trkpt>
<trkpt lat="47.684776" lon="11.193411">
<ele>681.769</ele>
<time>2022-05-27T14:07:43Z</time>
</trkpt>
<trkpt lat="47.684822" lon="11.193444">
<ele>681.769</ele>
<time>2022-05-27T14:07:45Z</time>
</trkpt>
<trkpt lat="47.684883" lon="11.193442">
<ele>681.77</ele>
<time>2022-05-27T14:07:46Z</time>
</trkpt>
<trkpt lat="47.684917" lon="11.193439">
<ele>681.77</ele>
<time>2022-05-27T14:07:48Z</time>
</trkpt>
<trkpt lat="47.68499" lon="11.193427">
<ele>681.769</ele>
<time>2022-05-27T14:07:49Z</time>
</trkpt>
<trkpt lat="47.685032" lon="11.193421">
<ele>681.769</ele>
<time>2022-05-27T14:07:51Z</time>
</trkpt>
<trkpt lat="47.685112" lon="11.193413">
<ele>681.769</ele>
<time>2022-05-27T14:07:52Z</time>
</trkpt>
<trkpt lat="47.685154" lon="11.193408">
<ele>681.769</ele>
<time>2022-05-27T14:07:54Z</time>
</trkpt>
<trkpt lat="47.685234" lon="11.193398">
<ele>681.769</ele>
<time>2022-05-27T14:07:55Z</time>
</trkpt>
<trkpt lat="47.68528" lon="11.193394">
<ele>681.77</ele>
<time>2022-05-27T14:07:57Z</time>
</trkpt>
<trkpt lat="47.68536" lon="11.193385">
<ele>681.769</ele>
<time>2022-05-27T14:07:58Z</time>
</trkpt>
<trkpt lat="47.685406" lon="11.193379">
<ele>681.77</ele>
<time>2022-05-27T14:07:59Z</time>
</trkpt>
<trkpt lat="47.685448" lon="11.193375">
<ele>681.769</ele>
<time>2022-05-27T14:08:00Z</time>
</trkpt>
<trkpt lat="47.685493" lon="11.193369">
<ele>681.769</ele>
<time>2022-05-27T14:08:01Z</time>
</trkpt>
<trkpt lat="47.685532" lon="11.193362">
<ele>681.77</ele>
<time>2022-05-27T14:08:02Z</time>
</trkpt>
<trkpt lat="47.685574" lon="11.193352">
<ele>681.769</ele>
<time>2022-05-27T14:08:03Z</time>
</trkpt>
<trkpt lat="47.685619" lon="11.193341">
<ele>681.769</ele>
<time>2022-05-27T14:08:05Z</time>
</trkpt>
<trkpt lat="47.685703" lon="11.193332">
<ele>681.769</ele>
<time>2022-05-27T14:08:07Z</time>
</trkpt>
<trkpt lat="47.685787" lon="11.193329">
<ele>681.769</ele>
<time>2022-05-27T14:08:08Z</time>
</trkpt>
<trkpt lat="47.685837" lon="11.193323">
<ele>681.77</ele>
<time>2022-05-27T14:08:09Z</time>
</trkpt>
<trkpt lat="47.685883" lon="11.193316">
<ele>681.769</ele>
<time>2022-05-27T14:08:10Z</time>
</trkpt>
<trkpt lat="47.685928" lon="11.193308">
<ele>681.769</ele>
<time>2022-05-27T14:08:12Z</time>
</trkpt>
<trkpt lat="47.686024" lon="11.193292">
<ele>681.769</ele>
<time>2022-05-27T14:08:13Z</time>
</trkpt>
<trkpt lat="47.686069" lon="11.193289">
<ele>681.77</ele>
<time>2022-05-27T14:08:14Z</time>
</trkpt>
<trkpt lat="47.686115" lon="11.193283">
<ele>681.769</ele>
<time>2022-05-27T14:08:16Z</time>
</trkpt>
<trkpt lat="47.686161" lon="11.193274">
<ele>681.769</ele>
<time>2022-05-27T14:08:17Z</time>
</trkpt>
<trkpt lat="47.686245" lon="11.193247">
<ele>681.769</ele>
<time>2022-05-27T14:08:18Z</time>
</trkpt>
<trkpt lat="47.686283" lon="11.193215">
<ele>681.77</ele>
<time>2022-05-27T14:08:19Z</time>
</trkpt>
<trkpt lat="47.686321" lon="11.19318">
<ele>681.769</ele>
<time>2022-05-27T14:08:21Z</time>
</trkpt>
<trkpt lat="47.686356" lon="11.193131">
<ele>681.77</ele>
<time>2022-05-27T14:08:22Z</time>
</trkpt>
<trkpt lat="47.686417" lon="11.193024">
<ele>681.77</ele>
<time>2022-05-27T14:08:24Z</time>
</trkpt>
<trkpt lat="47.686478" lon="11.192912">
<ele>681.247</ele>
<time>2022-05-27T14:08:26Z</time>
</trkpt>
<trkpt lat="47.686546" lon="11.192805">
<ele>680.95</ele>
<time>2022-05-27T14:08:27Z</time>
</trkpt>
<trkpt lat="47.686581" lon="11.192745">
<ele>680.857</ele>
<time>2022-05-27T14:08:29Z</time>
</trkpt>
<trkpt lat="47.686676" lon="11.192674">
<ele>680.737</ele>
<time>2022-05-27T14:08:30Z</time>
</trkpt>
<trkpt lat="47.686729" lon="11.192655">
<ele>680.709</ele>
<time>2022-05-27T14:08:31Z</time>
</trkpt>
<trkpt lat="47.686779" lon="11.192645">
<ele>680.367</ele>
<time>2022-05-27T14:08:32Z</time>
</trkpt>
<trkpt lat="47.686829" lon="11.19264">
<ele>680.113</ele>
<time>2022-05-27T14:08:33Z</time>
</trkpt>
<trkpt lat="47.686874" lon="11.192636">
<ele>679.916</ele>
<time>2022-05-27T14:08:34Z</time>
</trkpt>
<trkpt lat="47.686916" lon="11.192625">
<ele>679.784</ele>
<time>2022-05-27T14:08:35Z</time>
</trkpt>
<trkpt lat="47.686958" lon="11.19262">
<ele>679.685</ele>
<time>2022-05-27T14:08:36Z</time>
</trkpt>
<trkpt lat="47.687012" lon="11.192623">
<ele>679.623</ele>
<time>2022-05-27T14:08:38Z</time>
</trkpt>
<trkpt lat="47.68705" lon="11.19263">
<ele>679.587</ele>
<time>2022-05-27T14:08:39Z</time>
</trkpt>
<trkpt lat="47.687126" lon="11.192652">
<ele>679.559</ele>
<time>2022-05-27T14:08:40Z</time>
</trkpt>
<trkpt lat="47.687168" lon="11.192669">
<ele>679.56</ele>
<time>2022-05-27T14:08:41Z</time>
</trkpt>
<trkpt lat="47.68721" lon="11.19269">
<ele>679.559</ele>
<time>2022-05-27T14:08:42Z</time>
</trkpt>
<trkpt lat="47.687248" lon="11.192711">
<ele>679.56</ele>
<time>2022-05-27T14:08:43Z</time>
</trkpt>
<trkpt lat="47.68729" lon="11.19273">
<ele>679.56</ele>
<time>2022-05-27T14:08:44Z</time>
</trkpt>
<trkpt lat="47.687332" lon="11.192745">
<ele>679.791</ele>
<time>2022-05-27T14:08:45Z</time>
</trkpt>
<trkpt lat="47.687374" lon="11.192765">
<ele>679.982</ele>
<time>2022-05-27T14:08:47Z</time>
</trkpt>
<trkpt lat="47.68745" lon="11.19281">
<ele>680.227</ele>
<time>2022-05-27T14:08:48Z</time>
</trkpt>
<trkpt lat="47.687489" lon="11.192841">
<ele>680.297</ele>
<time>2022-05-27T14:08:49Z</time>
</trkpt>
<trkpt lat="47.687527" lon="11.192877">
<ele>680.373</ele>
<time>2022-05-27T14:08:50Z</time>
</trkpt>
<trkpt lat="47.687565" lon="11.192914">
<ele>680.419</ele>
<time>2022-05-27T14:08:51Z</time>
</trkpt>
<trkpt lat="47.687599" lon="11.192952">
<ele>680.681</ele>
<time>2022-05-27T14:08:53Z</time>
</trkpt>
<trkpt lat="47.687637" lon="11.192989">
<ele>680.942</ele>
<time>2022-05-27T14:08:54Z</time>
</trkpt>
<trkpt lat="47.68771" lon="11.193055">
<ele>681.471</ele>
<time>2022-05-27T14:08:56Z</time>
</trkpt>
<trkpt lat="47.687775" lon="11.193117">
<ele>681.964</ele>
<time>2022-05-27T14:08:57Z</time>
</trkpt>
<trkpt lat="47.687805" lon="11.193143">
<ele>682.084</ele>
<time>2022-05-27T14:08:58Z</time>
</trkpt>
<trkpt lat="47.687828" lon="11.193172">
<ele>682.412</ele>
<time>2022-05-27T14:08:59Z</time>
</trkpt>
<trkpt lat="47.687855" lon="11.193197">
<ele>682.671</ele>
<time>2022-05-27T14:09:00Z</time>
</trkpt>
<trkpt lat="47.687874" lon="11.19322">
<ele>682.873</ele>
<time>2022-05-27T14:09:01Z</time>
</trkpt>
<trkpt lat="47.687901" lon="11.193243">
<ele>683.023</ele>
<time>2022-05-27T14:09:02Z</time>
</trkpt>
<trkpt lat="47.687931" lon="11.193264">
<ele>683.108</ele>
<time>2022-05-27T14:09:03Z</time>
</trkpt>
<trkpt lat="47.687965" lon="11.19328">
<ele>683.42</ele>
<time>2022-05-27T14:09:04Z</time>
</trkpt>
<trkpt lat="47.688004" lon="11.193294">
<ele>683.676</ele>
<time>2022-05-27T14:09:05Z</time>
</trkpt>
<trkpt lat="47.688046" lon="11.193303">
<ele>683.882</ele>
<time>2022-05-27T14:09:07Z</time>
</trkpt>
<trkpt lat="47.688133" lon="11.193308">
<ele>684.101</ele>
<time>2022-05-27T14:09:08Z</time>
</trkpt>
<trkpt lat="47.688175" lon="11.193305">
<ele>684.416</ele>
<time>2022-05-27T14:09:09Z</time>
</trkpt>
<trkpt lat="47.688217" lon="11.193302">
<ele>684.672</ele>
<time>2022-05-27T14:09:10Z</time>
</trkpt>
<trkpt lat="47.688259" lon="11.193297">
<ele>684.852</ele>
<time>2022-05-27T14:09:11Z</time>
</trkpt>
<trkpt lat="47.688297" lon="11.193292">
<ele>684.977</ele>
<time>2022-05-27T14:09:12Z</time>
</trkpt>
<trkpt lat="47.688343" lon="11.193289">
<ele>685.076</ele>
<time>2022-05-27T14:09:14Z</time>
</trkpt>
<trkpt lat="47.688423" lon="11.193278">
<ele>685.195</ele>
<time>2022-05-27T14:09:15Z</time>
</trkpt>
<trkpt lat="47.688461" lon="11.193272">
<ele>685.218</ele>
<time>2022-05-27T14:09:16Z</time>
</trkpt>
<trkpt lat="47.688507" lon="11.193264">
<ele>685.218</ele>
<time>2022-05-27T14:09:18Z</time>
</trkpt>
<trkpt lat="47.688599" lon="11.193247">
<ele>685.218</ele>
<time>2022-05-27T14:09:19Z</time>
</trkpt>
<trkpt lat="47.688652" lon="11.19324">
<ele>685.218</ele>
<time>2022-05-27T14:09:21Z</time>
</trkpt>
<trkpt lat="47.688694" lon="11.193236">
<ele>685.218</ele>
<time>2022-05-27T14:09:22Z</time>
</trkpt>
<trkpt lat="47.688789" lon="11.19322">
<ele>685.218</ele>
<time>2022-05-27T14:09:23Z</time>
</trkpt>
<trkpt lat="47.688835" lon="11.193216">
<ele>685.218</ele>
<time>2022-05-27T14:09:24Z</time>
</trkpt>
<trkpt lat="47.688885" lon="11.193213">
<ele>685.218</ele>
<time>2022-05-27T14:09:26Z</time>
</trkpt>
<trkpt lat="47.688927" lon="11.193208">
<ele>685.218</ele>
<time>2022-05-27T14:09:27Z</time>
</trkpt>
<trkpt lat="47.689007" lon="11.193195">
<ele>685.425</ele>
<time>2022-05-27T14:09:28Z</time>
</trkpt>
<trkpt lat="47.689045" lon="11.193187">
<ele>685.579</ele>
<time>2022-05-27T14:09:29Z</time>
</trkpt>
<trkpt lat="47.689075" lon="11.19318">
<ele>685.728</ele>
<time>2022-05-27T14:09:30Z</time>
</trkpt>
<trkpt lat="47.68911" lon="11.193173">
<ele>685.854</ele>
<time>2022-05-27T14:09:31Z</time>
</trkpt>
<trkpt lat="47.689152" lon="11.193167">
<ele>685.953</ele>
<time>2022-05-27T14:09:32Z</time>
</trkpt>
<trkpt lat="47.689186" lon="11.193151">
<ele>686.025</ele>
<time>2022-05-27T14:09:34Z</time>
</trkpt>
<trkpt lat="47.68922" lon="11.193127">
<ele>686.079</ele>
<time>2022-05-27T14:09:35Z</time>
</trkpt>
<trkpt lat="47.689243" lon="11.193092">
<ele>686.096</ele>
<time>2022-05-27T14:09:36Z</time>
</trkpt>
<trkpt lat="47.68927" lon="11.192998">
<ele>685.703</ele>
<time>2022-05-27T14:09:38Z</time>
</trkpt>
<trkpt lat="47.689266" lon="11.192882">
<ele>685.472</ele>
<time>2022-05-27T14:09:39Z</time>
</trkpt>
<trkpt lat="47.689266" lon="11.192816">
<ele>685.373</ele>
<time>2022-05-27T14:09:41Z</time>
</trkpt>
<trkpt lat="47.689262" lon="11.192743">
<ele>685.041</ele>
<time>2022-05-27T14:09:42Z</time>
</trkpt>
<trkpt lat="47.689266" lon="11.19259">
<ele>684.585</ele>
<time>2022-05-27T14:09:43Z</time>
</trkpt>
<trkpt lat="47.689285" lon="11.192522">
<ele>684.388</ele>
<time>2022-05-27T14:09:44Z</time>
</trkpt>
<trkpt lat="47.689323" lon="11.192472">
<ele>684.327</ele>
<time>2022-05-27T14:09:45Z</time>
</trkpt>
<trkpt lat="47.689369" lon="11.192432">
<ele>683.983</ele>
<time>2022-05-27T14:09:47Z</time>
</trkpt>
<trkpt lat="47.689461" lon="11.192378">
<ele>683.586</ele>
<time>2022-05-27T14:09:48Z</time>
</trkpt>
<trkpt lat="47.689503" lon="11.192367">
<ele>683.478</ele>
<time>2022-05-27T14:09:49Z</time>
</trkpt>
<trkpt lat="47.689548" lon="11.192365">
<ele>683.359</ele>
<time>2022-05-27T14:09:50Z</time>
</trkpt>
<trkpt lat="47.689598" lon="11.192363">
<ele>683.271</ele>
<time>2022-05-27T14:09:51Z</time>
</trkpt>
<trkpt lat="47.68964" lon="11.192357">
<ele>683.212</ele>
<time>2022-05-27T14:09:53Z</time>
</trkpt>
<trkpt lat="47.689739" lon="11.19234">
<ele>683.184</ele>
<time>2022-05-27T14:09:54Z</time>
</trkpt>
<trkpt lat="47.689785" lon="11.192331">
<ele>683.184</ele>
<time>2022-05-27T14:09:55Z</time>
</trkpt>
<trkpt lat="47.689831" lon="11.192324">
<ele>683.184</ele>
<time>2022-05-27T14:09:56Z</time>
</trkpt>
<trkpt lat="47.689884" lon="11.192315">
<ele>683.184</ele>
<time>2022-05-27T14:09:57Z</time>
</trkpt>
<trkpt lat="47.689934" lon="11.192303">
<ele>683.184</ele>
<time>2022-05-27T14:09:59Z</time>
</trkpt>
<trkpt lat="47.690033" lon="11.192282">
<ele>682.922</ele>
<time>2022-05-27T14:10:00Z</time>
</trkpt>
<trkpt lat="47.69009" lon="11.192266">
<ele>682.705</ele>
<time>2022-05-27T14:10:01Z</time>
</trkpt>
<trkpt lat="47.690144" lon="11.19225">
<ele>682.521</ele>
<time>2022-05-27T14:10:03Z</time>
</trkpt>
<trkpt lat="47.69025" lon="11.192212">
<ele>682.273</ele>
<time>2022-05-27T14:10:04Z</time>
</trkpt>
<trkpt lat="47.690308" lon="11.192195">
<ele>682.196</ele>
<time>2022-05-27T14:10:05Z</time>
</trkpt>
<trkpt lat="47.690357" lon="11.192175">
<ele>682.152</ele>
<time>2022-05-27T14:10:06Z</time>
</trkpt>
<trkpt lat="47.690414" lon="11.192152">
<ele>681.884</ele>
<time>2022-05-27T14:10:07Z</time>
</trkpt>
<trkpt lat="47.690464" lon="11.192128">
<ele>681.686</ele>
<time>2022-05-27T14:10:08Z</time>
</trkpt>
<trkpt lat="47.690517" lon="11.192108">
<ele>681.557</ele>
<time>2022-05-27T14:10:09Z</time>
</trkpt>
<trkpt lat="47.690578" lon="11.192091">
<ele>681.414</ele>
<time>2022-05-27T14:10:10Z</time>
</trkpt>
<trkpt lat="47.690636" lon="11.192077">
<ele>681.306</ele>
<time>2022-05-27T14:10:11Z</time>
</trkpt>
<trkpt lat="47.690685" lon="11.192061">
<ele>681.226</ele>
<time>2022-05-27T14:10:12Z</time>
</trkpt>
<trkpt lat="47.690742" lon="11.192049">
<ele>681.176</ele>
<time>2022-05-27T14:10:14Z</time>
</trkpt>
<trkpt lat="47.690796" lon="11.192034">
<ele>681.151</ele>
<time>2022-05-27T14:10:15Z</time>
</trkpt>
<trkpt lat="47.690899" lon="11.192007">
<ele>681.151</ele>
<time>2022-05-27T14:10:16Z</time>
</trkpt>
<trkpt lat="47.690941" lon="11.191992">
<ele>681.151</ele>
<time>2022-05-27T14:10:17Z</time>
</trkpt>
<trkpt lat="47.69099" lon="11.191981">
<ele>680.944</ele>
<time>2022-05-27T14:10:18Z</time>
</trkpt>
<trkpt lat="47.691032" lon="11.191976">
<ele>680.791</ele>
<time>2022-05-27T14:10:20Z</time>
</trkpt>
<trkpt lat="47.691074" lon="11.191967">
<ele>680.638</ele>
<time>2022-05-27T14:10:21Z</time>
</trkpt>
<trkpt lat="47.691158" lon="11.191944">
<ele>680.416</ele>
<time>2022-05-27T14:10:22Z</time>
</trkpt>
<trkpt lat="47.6912" lon="11.191927">
<ele>680.34</ele>
<time>2022-05-27T14:10:24Z</time>
</trkpt>
<trkpt lat="47.691296" lon="11.19189">
<ele>680.267</ele>
<time>2022-05-27T14:10:25Z</time>
</trkpt>
<trkpt lat="47.691341" lon="11.191871">
<ele>680.267</ele>
<time>2022-05-27T14:10:27Z</time>
</trkpt>
<trkpt lat="47.691444" lon="11.191829">
<ele>680.267</ele>
<time>2022-05-27T14:10:28Z</time>
</trkpt>
<trkpt lat="47.691494" lon="11.191806">
<ele>680.267</ele>
<time>2022-05-27T14:10:30Z</time>
</trkpt>
<trkpt lat="47.691547" lon="11.191783">
<ele>680.267</ele>
<time>2022-05-27T14:10:31Z</time>
</trkpt>
<trkpt lat="47.691601" lon="11.191762">
<ele>680.267</ele>
<time>2022-05-27T14:10:32Z</time>
</trkpt>
<trkpt lat="47.691704" lon="11.191724">
<ele>680.267</ele>
<time>2022-05-27T14:10:34Z</time>
</trkpt>
<trkpt lat="47.691753" lon="11.191705">
<ele>679.975</ele>
<time>2022-05-27T14:10:35Z</time>
</trkpt>
<trkpt lat="47.691856" lon="11.191668">
<ele>679.579</ele>
<time>2022-05-27T14:10:36Z</time>
</trkpt>
<trkpt lat="47.69191" lon="11.191645">
<ele>679.453</ele>
<time>2022-05-27T14:10:38Z</time>
</trkpt>
<trkpt lat="47.692009" lon="11.191602">
<ele>679.297</ele>
<time>2022-05-27T14:10:39Z</time>
</trkpt>
<trkpt lat="47.692055" lon="11.191582">
<ele>679.236</ele>
<time>2022-05-27T14:10:40Z</time>
</trkpt>
<trkpt lat="47.692104" lon="11.191562">
<ele>679.206</ele>
<time>2022-05-27T14:10:42Z</time>
</trkpt>
<trkpt lat="47.692192" lon="11.191524">
<ele>679.206</ele>
<time>2022-05-27T14:10:44Z</time>
</trkpt>
<trkpt lat="47.692276" lon="11.191488">
<ele>679.206</ele>
<time>2022-05-27T14:10:45Z</time>
</trkpt>
<trkpt lat="47.692318" lon="11.191471">
<ele>678.965</ele>
<time>2022-05-27T14:10:47Z</time>
</trkpt>
<trkpt lat="47.692364" lon="11.191454">
<ele>678.771</ele>
<time>2022-05-27T14:10:48Z</time>
</trkpt>
<trkpt lat="47.692448" lon="11.191417">
<ele>678.511</ele>
<time>2022-05-27T14:10:49Z</time>
</trkpt>
<trkpt lat="47.692493" lon="11.191401">
<ele>678.396</ele>
<time>2022-05-27T14:10:50Z</time>
</trkpt>
<trkpt lat="47.692535" lon="11.191385">
<ele>678.313</ele>
<time>2022-05-27T14:10:51Z</time>
</trkpt>
<trkpt lat="47.692577" lon="11.191366">
<ele>678.259</ele>
<time>2022-05-27T14:10:52Z</time>
</trkpt>
<trkpt lat="47.692627" lon="11.191347">
<ele>678.234</ele>
<time>2022-05-27T14:10:53Z</time>
</trkpt>
<trkpt lat="47.692669" lon="11.191328">
<ele>678.234</ele>
<time>2022-05-27T14:10:55Z</time>
</trkpt>
<trkpt lat="47.692719" lon="11.191308">
<ele>678.234</ele>
<time>2022-05-27T14:10:56Z</time>
</trkpt>
<trkpt lat="47.69281" lon="11.19127">
<ele>677.821</ele>
<time>2022-05-27T14:10:58Z</time>
</trkpt>
<trkpt lat="47.69286" lon="11.19125">
<ele>677.683</ele>
<time>2022-05-27T14:10:59Z</time>
</trkpt>
<trkpt lat="47.692955" lon="11.191215">
<ele>677.49</ele>
<time>2022-05-27T14:11:00Z</time>
</trkpt>
<trkpt lat="47.693005" lon="11.191196">
<ele>677.42</ele>
<time>2022-05-27T14:11:01Z</time>
</trkpt>
<trkpt lat="47.693054" lon="11.191177">
<ele>677.372</ele>
<time>2022-05-27T14:11:02Z</time>
</trkpt>
<trkpt lat="47.693108" lon="11.191158">
<ele>677.35</ele>
<time>2022-05-27T14:11:04Z</time>
</trkpt>
<trkpt lat="47.693214" lon="11.191116">
<ele>677.35</ele>
<time>2022-05-27T14:11:05Z</time>
</trkpt>
<trkpt lat="47.693268" lon="11.191093">
<ele>677.35</ele>
<time>2022-05-27T14:11:06Z</time>
</trkpt>
<trkpt lat="47.693325" lon="11.191071">
<ele>677.1</ele>
<time>2022-05-27T14:11:08Z</time>
</trkpt>
<trkpt lat="47.693436" lon="11.19102">
<ele>676.775</ele>
<time>2022-05-27T14:11:09Z</time>
</trkpt>
<trkpt lat="47.693489" lon="11.190995">
<ele>676.641</ele>
<time>2022-05-27T14:11:11Z</time>
</trkpt>
<trkpt lat="47.693604" lon="11.190947">
<ele>676.012</ele>
<time>2022-05-27T14:11:12Z</time>
</trkpt>
<trkpt lat="47.693661" lon="11.190926">
<ele>675.801</ele>
<time>2022-05-27T14:11:14Z</time>
</trkpt>
<trkpt lat="47.693775" lon="11.190878">
<ele>675.484</ele>
<time>2022-05-27T14:11:15Z</time>
</trkpt>
<trkpt lat="47.693832" lon="11.190853">
<ele>675.431</ele>
<time>2022-05-27T14:11:16Z</time>
</trkpt>
<trkpt lat="47.69389" lon="11.190832">
<ele>675.406</ele>
<time>2022-05-27T14:11:18Z</time>
</trkpt>
<trkpt lat="47.694" lon="11.190794">
<ele>675.406</ele>
<time>2022-05-27T14:11:20Z</time>
</trkpt>
<trkpt lat="47.694057" lon="11.190773">
<ele>675.406</ele>
<time>2022-05-27T14:11:21Z</time>
</trkpt>
<trkpt lat="47.694111" lon="11.190752">
<ele>675.406</ele>
<time>2022-05-27T14:11:22Z</time>
</trkpt>
<trkpt lat="47.694218" lon="11.190712">
<ele>675.406</ele>
<time>2022-05-27T14:11:23Z</time>
</trkpt>
<trkpt lat="47.694271" lon="11.190692">
<ele>675.406</ele>
<time>2022-05-27T14:11:24Z</time>
</trkpt>
<trkpt lat="47.694328" lon="11.19067">
<ele>675.406</ele>
<time>2022-05-27T14:11:25Z</time>
</trkpt>
<trkpt lat="47.694386" lon="11.19065">
<ele>675.157</ele>
<time>2022-05-27T14:11:26Z</time>
</trkpt>
<trkpt lat="47.694435" lon="11.19063">
<ele>674.963</ele>
<time>2022-05-27T14:11:27Z</time>
</trkpt>
<trkpt lat="47.694489" lon="11.190614">
<ele>674.809</ele>
<time>2022-05-27T14:11:28Z</time>
</trkpt>
<trkpt lat="47.694534" lon="11.190598">
<ele>674.704</ele>
<time>2022-05-27T14:11:29Z</time>
</trkpt>
<trkpt lat="47.694576" lon="11.190585">
<ele>674.594</ele>
<time>2022-05-27T14:11:30Z</time>
</trkpt>
<trkpt lat="47.694618" lon="11.190574">
<ele>674.513</ele>
<time>2022-05-27T14:11:32Z</time>
</trkpt>
<trkpt lat="47.694687" lon="11.190542">
<ele>674.435</ele>
<time>2022-05-27T14:11:33Z</time>
</trkpt>
<trkpt lat="47.694729" lon="11.190518">
<ele>674.435</ele>
<time>2022-05-27T14:11:34Z</time>
</trkpt>
<trkpt lat="47.694771" lon="11.190495">
<ele>674.435</ele>
<time>2022-05-27T14:11:35Z</time>
</trkpt>
<trkpt lat="47.69482" lon="11.190469">
<ele>674.435</ele>
<time>2022-05-27T14:11:36Z</time>
</trkpt>
<trkpt lat="47.69487" lon="11.190444">
<ele>674.435</ele>
<time>2022-05-27T14:11:38Z</time>
</trkpt>
<trkpt lat="47.694977" lon="11.1904">
<ele>674.435</ele>
<time>2022-05-27T14:11:39Z</time>
</trkpt>
<trkpt lat="47.69503" lon="11.190379">
<ele>674.435</ele>
<time>2022-05-27T14:11:40Z</time>
</trkpt>
<trkpt lat="47.695084" lon="11.19036">
<ele>674.435</ele>
<time>2022-05-27T14:11:42Z</time>
</trkpt>
<trkpt lat="47.695183" lon="11.190316">
<ele>674.183</ele>
<time>2022-05-27T14:11:43Z</time>
</trkpt>
<trkpt lat="47.69524" lon="11.190295">
<ele>673.992</ele>
<time>2022-05-27T14:11:44Z</time>
</trkpt>
<trkpt lat="47.695293" lon="11.190274">
<ele>673.849</ele>
<time>2022-05-27T14:11:45Z</time>
</trkpt>
<trkpt lat="47.695343" lon="11.190253">
<ele>673.742</ele>
<time>2022-05-27T14:11:46Z</time>
</trkpt>
<trkpt lat="47.6954" lon="11.190232">
<ele>673.662</ele>
<time>2022-05-27T14:11:47Z</time>
</trkpt>
<trkpt lat="47.69545" lon="11.190207">
<ele>673.615</ele>
<time>2022-05-27T14:11:48Z</time>
</trkpt>
<trkpt lat="47.695499" lon="11.190185">
<ele>673.576</ele>
<time>2022-05-27T14:11:50Z</time>
</trkpt>
<trkpt lat="47.69561" lon="11.19014">
<ele>673.551</ele>
<time>2022-05-27T14:11:52Z</time>
</trkpt>
<trkpt lat="47.695728" lon="11.190102">
<ele>673.051</ele>
<time>2022-05-27T14:11:53Z</time>
</trkpt>
<trkpt lat="47.695782" lon="11.190084">
<ele>672.884</ele>
<time>2022-05-27T14:11:55Z</time>
</trkpt>
<trkpt lat="47.695896" lon="11.19004">
<ele>672.675</ele>
<time>2022-05-27T14:11:56Z</time>
</trkpt>
<trkpt lat="47.695957" lon="11.190015">
<ele>672.625</ele>
<time>2022-05-27T14:11:57Z</time>
</trkpt>
<trkpt lat="47.696014" lon="11.189992">
<ele>672.601</ele>
<time>2022-05-27T14:11:59Z</time>
</trkpt>
<trkpt lat="47.696072" lon="11.189968">
<ele>672.579</ele>
<time>2022-05-27T14:12:00Z</time>
</trkpt>
<trkpt lat="47.696175" lon="11.189925">
<ele>672.579</ele>
<time>2022-05-27T14:12:01Z</time>
</trkpt>
<trkpt lat="47.696224" lon="11.189903">
<ele>672.579</ele>
<time>2022-05-27T14:12:02Z</time>
</trkpt>
<trkpt lat="47.696278" lon="11.189883">
<ele>672.579</ele>
<time>2022-05-27T14:12:04Z</time>
</trkpt>
<trkpt lat="47.696373" lon="11.189841">
<ele>672.579</ele>
<time>2022-05-27T14:12:05Z</time>
</trkpt>
<trkpt lat="47.696423" lon="11.189822">
<ele>672.579</ele>
<time>2022-05-27T14:12:06Z</time>
</trkpt>
<trkpt lat="47.696472" lon="11.1898">
<ele>672.579</ele>
<time>2022-05-27T14:12:07Z</time>
</trkpt>
<trkpt lat="47.696522" lon="11.189782">
<ele>672.579</ele>
<time>2022-05-27T14:12:08Z</time>
</trkpt>
<trkpt lat="47.696575" lon="11.189761">
<ele>672.579</ele>
<time>2022-05-27T14:12:09Z</time>
</trkpt>
<trkpt lat="47.696625" lon="11.189742">
<ele>672.579</ele>
<time>2022-05-27T14:12:11Z</time>
</trkpt>
<trkpt lat="47.696732" lon="11.1897">
<ele>672.579</ele>
<time>2022-05-27T14:12:12Z</time>
</trkpt>
<trkpt lat="47.696781" lon="11.189677">
<ele>672.579</ele>
<time>2022-05-27T14:12:13Z</time>
</trkpt>
<trkpt lat="47.696838" lon="11.189653">
<ele>672.579</ele>
<time>2022-05-27T14:12:14Z</time>
</trkpt>
<trkpt lat="47.696888" lon="11.18963">
<ele>672.579</ele>
<time>2022-05-27T14:12:15Z</time>
</trkpt>
<trkpt lat="47.696938" lon="11.189609">
<ele>672.58</ele>
<time>2022-05-27T14:12:17Z</time>
</trkpt>
<trkpt lat="47.697041" lon="11.189564">
<ele>672.579</ele>
<time>2022-05-27T14:12:18Z</time>
</trkpt>
<trkpt lat="47.697094" lon="11.18954">
<ele>672.579</ele>
<time>2022-05-27T14:12:20Z</time>
</trkpt>
<trkpt lat="47.697144" lon="11.189516">
<ele>672.579</ele>
<time>2022-05-27T14:12:21Z</time>
</trkpt>
<trkpt lat="47.697193" lon="11.189495">
<ele>672.579</ele>
<time>2022-05-27T14:12:22Z</time>
</trkpt>
<trkpt lat="47.697292" lon="11.189455">
<ele>672.579</ele>
<time>2022-05-27T14:12:23Z</time>
</trkpt>
<trkpt lat="47.697342" lon="11.189434">
<ele>672.579</ele>
<time>2022-05-27T14:12:24Z</time>
</trkpt>
<trkpt lat="47.697392" lon="11.189411">
<ele>672.579</ele>
<time>2022-05-27T14:12:26Z</time>
</trkpt>
<trkpt lat="47.697495" lon="11.189371">
<ele>672.335</ele>
<time>2022-05-27T14:12:27Z</time>
</trkpt>
<trkpt lat="47.697548" lon="11.189348">
<ele>672.141</ele>
<time>2022-05-27T14:12:28Z</time>
</trkpt>
<trkpt lat="47.697601" lon="11.189325">
<ele>672.008</ele>
<time>2022-05-27T14:12:30Z</time>
</trkpt>
<trkpt lat="47.697712" lon="11.189281">
<ele>671.758</ele>
<time>2022-05-27T14:12:31Z</time>
</trkpt>
<trkpt lat="47.697769" lon="11.189262">
<ele>671.68</ele>
<time>2022-05-27T14:12:32Z</time>
</trkpt>
<trkpt lat="47.697823" lon="11.189246">
<ele>671.631</ele>
<time>2022-05-27T14:12:33Z</time>
</trkpt>
<trkpt lat="47.69788" lon="11.18923">
<ele>671.608</ele>
<time>2022-05-27T14:12:35Z</time>
</trkpt>
<trkpt lat="47.697933" lon="11.189212">
<ele>671.608</ele>
<time>2022-05-27T14:12:36Z</time>
</trkpt>
<trkpt lat="47.698044" lon="11.18917">
<ele>671.389</ele>
<time>2022-05-27T14:12:38Z</time>
</trkpt>
<trkpt lat="47.698154" lon="11.18913">
<ele>671.095</ele>
<time>2022-05-27T14:12:39Z</time>
</trkpt>
<trkpt lat="47.698208" lon="11.189108">
<ele>670.965</ele>
<time>2022-05-27T14:12:41Z</time>
</trkpt>
<trkpt lat="47.698318" lon="11.189063">
<ele>670.792</ele>
<time>2022-05-27T14:12:43Z</time>
</trkpt>
<trkpt lat="47.698433" lon="11.189017">
<ele>670.724</ele>
<time>2022-05-27T14:12:45Z</time>
</trkpt>
<trkpt lat="47.698559" lon="11.188984">
<ele>670.724</ele>
<time>2022-05-27T14:12:47Z</time>
</trkpt>
<trkpt lat="47.698692" lon="11.188945">
<ele>670.278</ele>
<time>2022-05-27T14:12:49Z</time>
</trkpt>
<trkpt lat="47.698826" lon="11.18889">
<ele>670.003</ele>
<time>2022-05-27T14:12:50Z</time>
</trkpt>
<trkpt lat="47.698891" lon="11.188855">
<ele>669.898</ele>
<time>2022-05-27T14:12:52Z</time>
</trkpt>
<trkpt lat="47.698956" lon="11.188814">
<ele>669.823</ele>
<time>2022-05-27T14:12:53Z</time>
</trkpt>
<trkpt lat="47.699085" lon="11.188739">
<ele>669.493</ele>
<time>2022-05-27T14:12:55Z</time>
</trkpt>
<trkpt lat="47.699203" lon="11.18868">
<ele>669.068</ele>
<time>2022-05-27T14:12:56Z</time>
</trkpt>
<trkpt lat="47.699257" lon="11.188655">
<ele>669.142</ele>
<time>2022-05-27T14:12:57Z</time>
</trkpt>
<trkpt lat="47.699314" lon="11.188635">
<ele>669.211</ele>
<time>2022-05-27T14:12:58Z</time>
</trkpt>
<trkpt lat="47.699371" lon="11.188615">
<ele>669.266</ele>
<time>2022-05-27T14:12:59Z</time>
</trkpt>
<trkpt lat="47.699429" lon="11.188595">
<ele>669.325</ele>
<time>2022-05-27T14:13:00Z</time>
</trkpt>
<trkpt lat="47.699482" lon="11.188577">
<ele>669.386</ele>
<time>2022-05-27T14:13:01Z</time>
</trkpt>
<trkpt lat="47.699539" lon="11.18856">
<ele>669.432</ele>
<time>2022-05-27T14:13:03Z</time>
</trkpt>
<trkpt lat="47.69965" lon="11.188525">
<ele>669.555</ele>
<time>2022-05-27T14:13:04Z</time>
</trkpt>
<trkpt lat="47.699703" lon="11.188505">
<ele>669.577</ele>
<time>2022-05-27T14:13:06Z</time>
</trkpt>
<trkpt lat="47.699802" lon="11.188464">
<ele>669.577</ele>
<time>2022-05-27T14:13:07Z</time>
</trkpt>
<trkpt lat="47.699852" lon="11.188439">
<ele>669.849</ele>
<time>2022-05-27T14:13:08Z</time>
</trkpt>
<trkpt lat="47.699902" lon="11.188418">
<ele>670.049</ele>
<time>2022-05-27T14:13:09Z</time>
</trkpt>
<trkpt lat="47.699947" lon="11.188396">
<ele>670.457</ele>
<time>2022-05-27T14:13:11Z</time>
</trkpt>
<trkpt lat="47.700043" lon="11.18835">
<ele>671.076</ele>
<time>2022-05-27T14:13:13Z</time>
</trkpt>
<trkpt lat="47.700138" lon="11.188307">
<ele>671.444</ele>
<time>2022-05-27T14:13:15Z</time>
</trkpt>
<trkpt lat="47.700237" lon="11.188261">
<ele>671.588</ele>
<time>2022-05-27T14:13:16Z</time>
</trkpt>
<trkpt lat="47.700287" lon="11.188242">
<ele>671.608</ele>
<time>2022-05-27T14:13:17Z</time>
</trkpt>
<trkpt lat="47.700333" lon="11.188219">
<ele>671.608</ele>
<time>2022-05-27T14:13:19Z</time>
</trkpt>
<trkpt lat="47.700436" lon="11.18817">
<ele>671.608</ele>
<time>2022-05-27T14:13:20Z</time>
</trkpt>
<trkpt lat="47.700489" lon="11.188144">
<ele>671.608</ele>
<time>2022-05-27T14:13:21Z</time>
</trkpt>
<trkpt lat="47.700542" lon="11.18812">
<ele>671.608</ele>
<time>2022-05-27T14:13:22Z</time>
</trkpt>
<trkpt lat="47.7006" lon="11.188097">
<ele>671.608</ele>
<time>2022-05-27T14:13:24Z</time>
</trkpt>
<trkpt lat="47.700714" lon="11.188051">
<ele>671.871</ele>
<time>2022-05-27T14:13:25Z</time>
</trkpt>
<trkpt lat="47.700768" lon="11.18803">
<ele>672.073</ele>
<time>2022-05-27T14:13:26Z</time>
</trkpt>
<trkpt lat="47.700821" lon="11.188007">
<ele>672.227</ele>
<time>2022-05-27T14:13:27Z</time>
</trkpt>
<trkpt lat="47.700878" lon="11.187986">
<ele>672.342</ele>
<time>2022-05-27T14:13:28Z</time>
</trkpt>
<trkpt lat="47.700928" lon="11.187967">
<ele>672.421</ele>
<time>2022-05-27T14:13:30Z</time>
</trkpt>
<trkpt lat="47.701035" lon="11.187923">
<ele>672.554</ele>
<time>2022-05-27T14:13:31Z</time>
</trkpt>
<trkpt lat="47.701088" lon="11.187901">
<ele>672.579</ele>
<time>2022-05-27T14:13:33Z</time>
</trkpt>
<trkpt lat="47.701195" lon="11.187857">
<ele>672.579</ele>
<time>2022-05-27T14:13:34Z</time>
</trkpt>
<trkpt lat="47.701244" lon="11.187837">
<ele>672.579</ele>
<time>2022-05-27T14:13:36Z</time>
</trkpt>
<trkpt lat="47.701351" lon="11.187796">
<ele>672.579</ele>
<time>2022-05-27T14:13:37Z</time>
</trkpt>
<trkpt lat="47.701401" lon="11.187773">
<ele>672.579</ele>
<time>2022-05-27T14:13:39Z</time>
</trkpt>
<trkpt lat="47.701508" lon="11.187734">
<ele>672.579</ele>
<time>2022-05-27T14:13:40Z</time>
</trkpt>
<trkpt lat="47.701561" lon="11.187714">
<ele>672.579</ele>
<time>2022-05-27T14:13:42Z</time>
</trkpt>
<trkpt lat="47.701668" lon="11.187672">
<ele>672.579</ele>
<time>2022-05-27T14:13:43Z</time>
</trkpt>
<trkpt lat="47.701721" lon="11.187652">
<ele>672.579</ele>
<time>2022-05-27T14:13:44Z</time>
</trkpt>
<trkpt lat="47.701775" lon="11.187633">
<ele>672.579</ele>
<time>2022-05-27T14:13:45Z</time>
</trkpt>
<trkpt lat="47.701824" lon="11.187613">
<ele>672.579</ele>
<time>2022-05-27T14:13:46Z</time>
</trkpt>
<trkpt lat="47.701881" lon="11.187592">
<ele>672.579</ele>
<time>2022-05-27T14:13:47Z</time>
</trkpt>
<trkpt lat="47.701931" lon="11.187572">
<ele>672.579</ele>
<time>2022-05-27T14:13:48Z</time>
</trkpt>
<trkpt lat="47.701988" lon="11.187551">
<ele>672.579</ele>
<time>2022-05-27T14:13:49Z</time>
</trkpt>
<trkpt lat="47.702042" lon="11.187528">
<ele>672.579</ele>
<time>2022-05-27T14:13:50Z</time>
</trkpt>
<trkpt lat="47.702091" lon="11.18751">
<ele>672.579</ele>
<time>2022-05-27T14:13:51Z</time>
</trkpt>
<trkpt lat="47.702148" lon="11.187491">
<ele>672.579</ele>
<time>2022-05-27T14:13:53Z</time>
</trkpt>
<trkpt lat="47.702251" lon="11.18746">
<ele>672.579</ele>
<time>2022-05-27T14:13:55Z</time>
</trkpt>
<trkpt lat="47.702305" lon="11.187446">
<ele>672.579</ele>
<time>2022-05-27T14:13:56Z</time>
</trkpt>
<trkpt lat="47.702412" lon="11.187413">
<ele>672.579</ele>
<time>2022-05-27T14:13:57Z</time>
</trkpt>
<trkpt lat="47.702465" lon="11.187402">
<ele>672.579</ele>
<time>2022-05-27T14:13:58Z</time>
</trkpt>
<trkpt lat="47.702522" lon="11.187388">
<ele>672.579</ele>
<time>2022-05-27T14:13:59Z</time>
</trkpt>
<trkpt lat="47.702583" lon="11.187377">
<ele>672.579</ele>
<time>2022-05-27T14:14:00Z</time>
</trkpt>
<trkpt lat="47.702641" lon="11.187365">
<ele>672.579</ele>
<time>2022-05-27T14:14:01Z</time>
</trkpt>
<trkpt lat="47.702702" lon="11.187353">
<ele>672.579</ele>
<time>2022-05-27T14:14:03Z</time>
</trkpt>
<trkpt lat="47.702759" lon="11.187342">
<ele>672.579</ele>
<time>2022-05-27T14:14:04Z</time>
</trkpt>
<trkpt lat="47.702877" lon="11.187323">
<ele>672.58</ele>
<time>2022-05-27T14:14:05Z</time>
</trkpt>
<trkpt lat="47.702934" lon="11.187315">
<ele>672.579</ele>
<time>2022-05-27T14:14:06Z</time>
</trkpt>
<trkpt lat="47.702995" lon="11.187308">
<ele>672.579</ele>
<time>2022-05-27T14:14:07Z</time>
</trkpt>
<trkpt lat="47.703049" lon="11.1873">
<ele>672.579</ele>
<time>2022-05-27T14:14:09Z</time>
</trkpt>
<trkpt lat="47.703102" lon="11.187297">
<ele>672.579</ele>
<time>2022-05-27T14:14:10Z</time>
</trkpt>
<trkpt lat="47.703156" lon="11.187293">
<ele>672.579</ele>
<time>2022-05-27T14:14:11Z</time>
</trkpt>
<trkpt lat="47.703259" lon="11.187283">
<ele>672.579</ele>
<time>2022-05-27T14:14:12Z</time>
</trkpt>
<trkpt lat="47.703308" lon="11.187281">
<ele>672.579</ele>
<time>2022-05-27T14:14:13Z</time>
</trkpt>
<trkpt lat="47.703358" lon="11.187275">
<ele>672.579</ele>
<time>2022-05-27T14:14:14Z</time>
</trkpt>
<trkpt lat="47.703407" lon="11.187268">
<ele>672.579</ele>
<time>2022-05-27T14:14:16Z</time>
</trkpt>
<trkpt lat="47.703514" lon="11.187249">
<ele>672.579</ele>
<time>2022-05-27T14:14:17Z</time>
</trkpt>
<trkpt lat="47.70356" lon="11.187242">
<ele>672.579</ele>
<time>2022-05-27T14:14:19Z</time>
</trkpt>
<trkpt lat="47.703667" lon="11.187222">
<ele>672.579</ele>
<time>2022-05-27T14:14:20Z</time>
</trkpt>
<trkpt lat="47.70372" lon="11.187213">
<ele>672.579</ele>
<time>2022-05-27T14:14:21Z</time>
</trkpt>
<trkpt lat="47.703781" lon="11.187207">
<ele>672.579</ele>
<time>2022-05-27T14:14:23Z</time>
</trkpt>
<trkpt lat="47.703884" lon="11.187186">
<ele>672.58</ele>
<time>2022-05-27T14:14:25Z</time>
</trkpt>
<trkpt lat="47.703945" lon="11.187177">
<ele>672.579</ele>
<time>2022-05-27T14:14:26Z</time>
</trkpt>
<trkpt lat="47.704052" lon="11.187157">
<ele>672.579</ele>
<time>2022-05-27T14:14:28Z</time>
</trkpt>
<trkpt lat="47.70417" lon="11.187134">
<ele>672.579</ele>
<time>2022-05-27T14:14:29Z</time>
</trkpt>
<trkpt lat="47.704227" lon="11.187119">
<ele>672.579</ele>
<time>2022-05-27T14:14:31Z</time>
</trkpt>
<trkpt lat="47.704285" lon="11.187111">
<ele>672.579</ele>
<time>2022-05-27T14:14:32Z</time>
</trkpt>
<trkpt lat="47.704399" lon="11.187099">
<ele>672.031</ele>
<time>2022-05-27T14:14:34Z</time>
</trkpt>
<trkpt lat="47.704498" lon="11.187094">
<ele>671.723</ele>
<time>2022-05-27T14:14:35Z</time>
</trkpt>
<trkpt lat="47.704552" lon="11.187099">
<ele>671.851</ele>
<time>2022-05-27T14:14:36Z</time>
</trkpt>
<trkpt lat="47.704597" lon="11.187103">
<ele>671.968</ele>
<time>2022-05-27T14:14:37Z</time>
</trkpt>
<trkpt lat="47.704647" lon="11.18711">
<ele>672.077</ele>
<time>2022-05-27T14:14:38Z</time>
</trkpt>
<trkpt lat="47.704689" lon="11.187113">
<ele>672.17</ele>
<time>2022-05-27T14:14:39Z</time>
</trkpt>
<trkpt lat="47.704727" lon="11.187117">
<ele>672.216</ele>
<time>2022-05-27T14:14:40Z</time>
</trkpt>
<trkpt lat="47.704773" lon="11.187117">
<ele>672.32</ele>
<time>2022-05-27T14:14:41Z</time>
</trkpt>
<trkpt lat="47.704819" lon="11.187117">
<ele>672.613</ele>
<time>2022-05-27T14:14:43Z</time>
</trkpt>
<trkpt lat="47.704865" lon="11.187111">
<ele>672.846</ele>
<time>2022-05-27T14:14:44Z</time>
</trkpt>
<trkpt lat="47.704918" lon="11.187105">
<ele>673.027</ele>
<time>2022-05-27T14:14:45Z</time>
</trkpt>
<trkpt lat="47.705013" lon="11.187088">
<ele>672.942</ele>
<time>2022-05-27T14:14:46Z</time>
</trkpt>
<trkpt lat="47.705059" lon="11.187083">
<ele>672.818</ele>
<time>2022-05-27T14:14:47Z</time>
</trkpt>
<trkpt lat="47.705112" lon="11.187073">
<ele>672.711</ele>
<time>2022-05-27T14:14:48Z</time>
</trkpt>
<trkpt lat="47.705166" lon="11.187063">
<ele>672.646</ele>
<time>2022-05-27T14:14:50Z</time>
</trkpt>
<trkpt lat="47.705219" lon="11.187055">
<ele>672.555</ele>
<time>2022-05-27T14:14:51Z</time>
</trkpt>
<trkpt lat="47.705276" lon="11.18705">
<ele>672.477</ele>
<time>2022-05-27T14:14:52Z</time>
</trkpt>
<trkpt lat="47.705334" lon="11.187045">
<ele>672.427</ele>
<time>2022-05-27T14:14:53Z</time>
</trkpt>
<trkpt lat="47.705387" lon="11.187043">
<ele>672.403</ele>
<time>2022-05-27T14:14:54Z</time>
</trkpt>
<trkpt lat="47.705498" lon="11.187041">
<ele>672.403</ele>
<time>2022-05-27T14:14:55Z</time>
</trkpt>
<trkpt lat="47.705547" lon="11.187037">
<ele>672.403</ele>
<time>2022-05-27T14:14:56Z</time>
</trkpt>
<trkpt lat="47.705605" lon="11.18703">
<ele>672.403</ele>
<time>2022-05-27T14:14:58Z</time>
</trkpt>
<trkpt lat="47.705658" lon="11.187023">
<ele>672.403</ele>
<time>2022-05-27T14:14:59Z</time>
</trkpt>
<trkpt lat="47.705708" lon="11.187018">
<ele>672.189</ele>
<time>2022-05-27T14:15:00Z</time>
</trkpt>
<trkpt lat="47.705822" lon="11.18701">
<ele>671.818</ele>
<time>2022-05-27T14:15:01Z</time>
</trkpt>
<trkpt lat="47.705875" lon="11.187005">
<ele>671.681</ele>
<time>2022-05-27T14:15:03Z</time>
</trkpt>
<trkpt lat="47.70599" lon="11.186996">
<ele>671.5</ele>
<time>2022-05-27T14:15:04Z</time>
</trkpt>
<trkpt lat="47.706047" lon="11.18699">
<ele>671.454</ele>
<time>2022-05-27T14:15:06Z</time>
</trkpt>
<trkpt lat="47.7061" lon="11.186985">
<ele>671.431</ele>
<time>2022-05-27T14:15:07Z</time>
</trkpt>
<trkpt lat="47.706215" lon="11.186975">
<ele>671.431</ele>
<time>2022-05-27T14:15:08Z</time>
</trkpt>
<trkpt lat="47.706268" lon="11.186967">
<ele>671.431</ele>
<time>2022-05-27T14:15:09Z</time>
</trkpt>
<trkpt lat="47.706326" lon="11.186958">
<ele>671.431</ele>
<time>2022-05-27T14:15:11Z</time>
</trkpt>
<trkpt lat="47.706429" lon="11.186947">
<ele>671.431</ele>
<time>2022-05-27T14:15:12Z</time>
</trkpt>
<trkpt lat="47.706486" lon="11.186936">
<ele>671.431</ele>
<time>2022-05-27T14:15:13Z</time>
</trkpt>
<trkpt lat="47.706535" lon="11.186925">
<ele>671.431</ele>
<time>2022-05-27T14:15:14Z</time>
</trkpt>
<trkpt lat="47.706585" lon="11.186913">
<ele>671.431</ele>
<time>2022-05-27T14:15:15Z</time>
</trkpt>
<trkpt lat="47.706642" lon="11.186899">
<ele>671.431</ele>
<time>2022-05-27T14:15:17Z</time>
</trkpt>
<trkpt lat="47.706692" lon="11.186883">
<ele>671.431</ele>
<time>2022-05-27T14:15:18Z</time>
</trkpt>
<trkpt lat="47.706745" lon="11.186865">
<ele>671.431</ele>
<time>2022-05-27T14:15:19Z</time>
</trkpt>
<trkpt lat="47.706844" lon="11.186817">
<ele>671.431</ele>
<time>2022-05-27T14:15:20Z</time>
</trkpt>
<trkpt lat="47.706898" lon="11.186792">
<ele>671.431</ele>
<time>2022-05-27T14:15:21Z</time>
</trkpt>
<trkpt lat="47.706947" lon="11.186767">
<ele>671.431</ele>
<time>2022-05-27T14:15:22Z</time>
</trkpt>
<trkpt lat="47.707001" lon="11.18674">
<ele>671.431</ele>
<time>2022-05-27T14:15:23Z</time>
</trkpt>
<trkpt lat="47.707047" lon="11.186717">
<ele>671.431</ele>
<time>2022-05-27T14:15:24Z</time>
</trkpt>
<trkpt lat="47.707096" lon="11.186695">
<ele>671.431</ele>
<time>2022-05-27T14:15:25Z</time>
</trkpt>
<trkpt lat="47.707142" lon="11.18667">
<ele>671.431</ele>
<time>2022-05-27T14:15:26Z</time>
</trkpt>
<trkpt lat="47.707195" lon="11.186646">
<ele>671.431</ele>
<time>2022-05-27T14:15:27Z</time>
</trkpt>
<trkpt lat="47.707241" lon="11.186621">
<ele>671.431</ele>
<time>2022-05-27T14:15:28Z</time>
</trkpt>
<trkpt lat="47.707294" lon="11.186593">
<ele>671.431</ele>
<time>2022-05-27T14:15:29Z</time>
</trkpt>
<trkpt lat="47.707344" lon="11.186565">
<ele>671.431</ele>
<time>2022-05-27T14:15:30Z</time>
</trkpt>
<trkpt lat="47.707394" lon="11.186535">
<ele>671.431</ele>
<time>2022-05-27T14:15:31Z</time>
</trkpt>
<trkpt lat="47.707439" lon="11.18651">
<ele>671.431</ele>
<time>2022-05-27T14:15:32Z</time>
</trkpt>
<trkpt lat="47.707489" lon="11.186484">
<ele>671.431</ele>
<time>2022-05-27T14:15:34Z</time>
</trkpt>
<trkpt lat="47.707531" lon="11.186465">
<ele>671.431</ele>
<time>2022-05-27T14:15:35Z</time>
</trkpt>
<trkpt lat="47.707626" lon="11.186413">
<ele>671.431</ele>
<time>2022-05-27T14:15:36Z</time>
</trkpt>
<trkpt lat="47.707668" lon="11.186378">
<ele>671.431</ele>
<time>2022-05-27T14:15:37Z</time>
</trkpt>
<trkpt lat="47.70771" lon="11.186341">
<ele>671.431</ele>
<time>2022-05-27T14:15:38Z</time>
</trkpt>
<trkpt lat="47.707756" lon="11.186308">
<ele>671.431</ele>
<time>2022-05-27T14:15:40Z</time>
</trkpt>
<trkpt lat="47.707855" lon="11.186254">
<ele>671.431</ele>
<time>2022-05-27T14:15:42Z</time>
</trkpt>
<trkpt lat="47.707958" lon="11.186202">
<ele>671.431</ele>
<time>2022-05-27T14:15:43Z</time>
</trkpt>
<trkpt lat="47.708008" lon="11.186176">
<ele>671.431</ele>
<time>2022-05-27T14:15:44Z</time>
</trkpt>
<trkpt lat="47.708057" lon="11.186152">
<ele>671.431</ele>
<time>2022-05-27T14:15:46Z</time>
</trkpt>
<trkpt lat="47.708107" lon="11.186127">
<ele>671.431</ele>
<time>2022-05-27T14:15:47Z</time>
</trkpt>
<trkpt lat="47.708199" lon="11.186078">
<ele>671.431</ele>
<time>2022-05-27T14:15:48Z</time>
</trkpt>
<trkpt lat="47.708244" lon="11.186053">
<ele>671.431</ele>
<time>2022-05-27T14:15:49Z</time>
</trkpt>
<trkpt lat="47.708286" lon="11.186028">
<ele>671.431</ele>
<time>2022-05-27T14:15:51Z</time>
</trkpt>
<trkpt lat="47.708332" lon="11.186">
<ele>671.431</ele>
<time>2022-05-27T14:15:52Z</time>
</trkpt>
<trkpt lat="47.708424" lon="11.185944">
<ele>671.431</ele>
<time>2022-05-27T14:15:53Z</time>
</trkpt>
<trkpt lat="47.708469" lon="11.185912">
<ele>671.431</ele>
<time>2022-05-27T14:15:55Z</time>
</trkpt>
<trkpt lat="47.708561" lon="11.185852">
<ele>671.431</ele>
<time>2022-05-27T14:15:56Z</time>
</trkpt>
<trkpt lat="47.708603" lon="11.18582">
<ele>671.431</ele>
<time>2022-05-27T14:15:58Z</time>
</trkpt>
<trkpt lat="47.708641" lon="11.185791">
<ele>671.431</ele>
<time>2022-05-27T14:15:59Z</time>
</trkpt>
<trkpt lat="47.708717" lon="11.185728">
<ele>671.431</ele>
<time>2022-05-27T14:16:00Z</time>
</trkpt>
<trkpt lat="47.708755" lon="11.185695">
<ele>671.431</ele>
<time>2022-05-27T14:16:02Z</time>
</trkpt>
<trkpt lat="47.708797" lon="11.185661">
<ele>671.431</ele>
<time>2022-05-27T14:16:03Z</time>
</trkpt>
<trkpt lat="47.70887" lon="11.185587">
<ele>671.17</ele>
<time>2022-05-27T14:16:04Z</time>
</trkpt>
<trkpt lat="47.708904" lon="11.185546">
<ele>670.962</ele>
<time>2022-05-27T14:16:06Z</time>
</trkpt>
<trkpt lat="47.708973" lon="11.185471">
<ele>670.686</ele>
<time>2022-05-27T14:16:07Z</time>
</trkpt>
<trkpt lat="47.709011" lon="11.185435">
<ele>670.601</ele>
<time>2022-05-27T14:16:08Z</time>
</trkpt>
<trkpt lat="47.709053" lon="11.185402">
<ele>670.541</ele>
<time>2022-05-27T14:16:10Z</time>
</trkpt>
<trkpt lat="47.709137" lon="11.18534">
<ele>670.46</ele>
<time>2022-05-27T14:16:11Z</time>
</trkpt>
<trkpt lat="47.709179" lon="11.185308">
<ele>670.46</ele>
<time>2022-05-27T14:16:13Z</time>
</trkpt>
<trkpt lat="47.709263" lon="11.185235">
<ele>670.46</ele>
<time>2022-05-27T14:16:15Z</time>
</trkpt>
<trkpt lat="47.709343" lon="11.18515">
<ele>670.46</ele>
<time>2022-05-27T14:16:16Z</time>
</trkpt>
<trkpt lat="47.709381" lon="11.185108">
<ele>670.727</ele>
<time>2022-05-27T14:16:18Z</time>
</trkpt>
<trkpt lat="47.709461" lon="11.185019">
<ele>671.081</ele>
<time>2022-05-27T14:16:20Z</time>
</trkpt>
<trkpt lat="47.709541" lon="11.184932">
<ele>671.354</ele>
<time>2022-05-27T14:16:21Z</time>
</trkpt>
<trkpt lat="47.709579" lon="11.184886">
<ele>671.438</ele>
<time>2022-05-27T14:16:23Z</time>
</trkpt>
<trkpt lat="47.709618" lon="11.184842">
<ele>671.493</ele>
<time>2022-05-27T14:16:24Z</time>
</trkpt>
<trkpt lat="47.709694" lon="11.184752">
<ele>671.52</ele>
<time>2022-05-27T14:16:26Z</time>
</trkpt>
<trkpt lat="47.70977" lon="11.18466">
<ele>671.52</ele>
<time>2022-05-27T14:16:28Z</time>
</trkpt>
<trkpt lat="47.709843" lon="11.184569">
<ele>671.52</ele>
<time>2022-05-27T14:16:30Z</time>
</trkpt>
<trkpt lat="47.709908" lon="11.184484">
<ele>671.52</ele>
<time>2022-05-27T14:16:31Z</time>
</trkpt>
<trkpt lat="47.709942" lon="11.184438">
<ele>671.52</ele>
<time>2022-05-27T14:16:32Z</time>
</trkpt>
<trkpt lat="47.709976" lon="11.184395">
<ele>671.52</ele>
<time>2022-05-27T14:16:34Z</time>
</trkpt>
<trkpt lat="47.710041" lon="11.184297">
<ele>671.52</ele>
<time>2022-05-27T14:16:36Z</time>
</trkpt>
<trkpt lat="47.71011" lon="11.184201">
<ele>671.97</ele>
<time>2022-05-27T14:16:37Z</time>
</trkpt>
<trkpt lat="47.71014" lon="11.184158">
<ele>672.122</ele>
<time>2022-05-27T14:16:38Z</time>
</trkpt>
<trkpt lat="47.710178" lon="11.184114">
<ele>672.225</ele>
<time>2022-05-27T14:16:40Z</time>
</trkpt>
<trkpt lat="47.710243" lon="11.184027">
<ele>672.415</ele>
<time>2022-05-27T14:16:41Z</time>
</trkpt>
<trkpt lat="47.710278" lon="11.183985">
<ele>672.466</ele>
<time>2022-05-27T14:16:42Z</time>
</trkpt>
<trkpt lat="47.710308" lon="11.183943">
<ele>672.491</ele>
<time>2022-05-27T14:16:44Z</time>
</trkpt>
<trkpt lat="47.710373" lon="11.18385">
<ele>672.491</ele>
<time>2022-05-27T14:16:46Z</time>
</trkpt>
<trkpt lat="47.710442" lon="11.183746">
<ele>672.491</ele>
<time>2022-05-27T14:16:47Z</time>
</trkpt>
<trkpt lat="47.71048" lon="11.183696">
<ele>672.491</ele>
<time>2022-05-27T14:16:49Z</time>
</trkpt>
<trkpt lat="47.710545" lon="11.183597">
<ele>672.711</ele>
<time>2022-05-27T14:16:50Z</time>
</trkpt>
<trkpt lat="47.710575" lon="11.183545">
<ele>672.893</ele>
<time>2022-05-27T14:16:52Z</time>
</trkpt>
<trkpt lat="47.710632" lon="11.183445">
<ele>673.153</ele>
<time>2022-05-27T14:16:53Z</time>
</trkpt>
<trkpt lat="47.710659" lon="11.183396">
<ele>673.206</ele>
<time>2022-05-27T14:16:55Z</time>
</trkpt>
<trkpt lat="47.71069" lon="11.18335">
<ele>673.066</ele>
<time>2022-05-27T14:16:56Z</time>
</trkpt>
<trkpt lat="47.710743" lon="11.183248">
<ele>672.824</ele>
<time>2022-05-27T14:16:57Z</time>
</trkpt>
<trkpt lat="47.71077" lon="11.1832">
<ele>672.718</ele>
<time>2022-05-27T14:16:59Z</time>
</trkpt>
<trkpt lat="47.710793" lon="11.183151">
<ele>672.643</ele>
<time>2022-05-27T14:17:00Z</time>
</trkpt>
<trkpt lat="47.710846" lon="11.183048">
<ele>672.516</ele>
<time>2022-05-27T14:17:01Z</time>
</trkpt>
<trkpt lat="47.710869" lon="11.182992">
<ele>672.491</ele>
<time>2022-05-27T14:17:03Z</time>
</trkpt>
<trkpt lat="47.710896" lon="11.182939">
<ele>672.491</ele>
<time>2022-05-27T14:17:04Z</time>
</trkpt>
<trkpt lat="47.710945" lon="11.182825">
<ele>672.491</ele>
<time>2022-05-27T14:17:05Z</time>
</trkpt>
<trkpt lat="47.710972" lon="11.182768">
<ele>672.491</ele>
<time>2022-05-27T14:17:06Z</time>
</trkpt>
<trkpt lat="47.710995" lon="11.182712">
<ele>672.491</ele>
<time>2022-05-27T14:17:08Z</time>
</trkpt>
<trkpt lat="47.711044" lon="11.182596">
<ele>672.491</ele>
<time>2022-05-27T14:17:09Z</time>
</trkpt>
<trkpt lat="47.711067" lon="11.18254">
<ele>672.491</ele>
<time>2022-05-27T14:17:11Z</time>
</trkpt>
<trkpt lat="47.71109" lon="11.182485">
<ele>672.491</ele>
<time>2022-05-27T14:17:12Z</time>
</trkpt>
<trkpt lat="47.711132" lon="11.182365">
<ele>672.491</ele>
<time>2022-05-27T14:17:13Z</time>
</trkpt>
<trkpt lat="47.711155" lon="11.182303">
<ele>672.491</ele>
<time>2022-05-27T14:17:14Z</time>
</trkpt>
<trkpt lat="47.711182" lon="11.182243">
<ele>672.491</ele>
<time>2022-05-27T14:17:15Z</time>
</trkpt>
<trkpt lat="47.711201" lon="11.182185">
<ele>672.491</ele>
<time>2022-05-27T14:17:17Z</time>
</trkpt>
<trkpt lat="47.711224" lon="11.182127">
<ele>672.491</ele>
<time>2022-05-27T14:17:18Z</time>
</trkpt>
<trkpt lat="47.711277" lon="11.182009">
<ele>672.491</ele>
<time>2022-05-27T14:17:20Z</time>
</trkpt>
<trkpt lat="47.711304" lon="11.181945">
<ele>672.491</ele>
<time>2022-05-27T14:17:21Z</time>
</trkpt>
<trkpt lat="47.711353" lon="11.181813">
<ele>672.491</ele>
<time>2022-05-27T14:17:22Z</time>
</trkpt>
<trkpt lat="47.71138" lon="11.181753">
<ele>672.491</ele>
<time>2022-05-27T14:17:23Z</time>
</trkpt>
<trkpt lat="47.711411" lon="11.181691">
<ele>672.491</ele>
<time>2022-05-27T14:17:25Z</time>
</trkpt>
<trkpt lat="47.711468" lon="11.181578">
<ele>672.491</ele>
<time>2022-05-27T14:17:26Z</time>
</trkpt>
<trkpt lat="47.711491" lon="11.181521">
<ele>672.491</ele>
<time>2022-05-27T14:17:28Z</time>
</trkpt>
<trkpt lat="47.711514" lon="11.181455">
<ele>672.491</ele>
<time>2022-05-27T14:17:29Z</time>
</trkpt>
<trkpt lat="47.711559" lon="11.181322">
<ele>672.491</ele>
<time>2022-05-27T14:17:30Z</time>
</trkpt>
<trkpt lat="47.711582" lon="11.181257">
<ele>672.491</ele>
<time>2022-05-27T14:17:31Z</time>
</trkpt>
<trkpt lat="47.711605" lon="11.181194">
<ele>672.491</ele>
<time>2022-05-27T14:17:33Z</time>
</trkpt>
<trkpt lat="47.711628" lon="11.181135">
<ele>672.218</ele>
<time>2022-05-27T14:17:34Z</time>
</trkpt>
<trkpt lat="47.711666" lon="11.181005">
<ele>671.845</ele>
<time>2022-05-27T14:17:35Z</time>
</trkpt>
<trkpt lat="47.711681" lon="11.180941">
<ele>671.729</ele>
<time>2022-05-27T14:17:37Z</time>
</trkpt>
<trkpt lat="47.71172" lon="11.180805">
<ele>671.591</ele>
<time>2022-05-27T14:17:38Z</time>
</trkpt>
<trkpt lat="47.711735" lon="11.180739">
<ele>671.548</ele>
<time>2022-05-27T14:17:39Z</time>
</trkpt>
<trkpt lat="47.711754" lon="11.180676">
<ele>671.52</ele>
<time>2022-05-27T14:17:40Z</time>
</trkpt>
<trkpt lat="47.711769" lon="11.180616">
<ele>671.52</ele>
<time>2022-05-27T14:17:41Z</time>
</trkpt>
<trkpt lat="47.711784" lon="11.180557">
<ele>671.52</ele>
<time>2022-05-27T14:17:42Z</time>
</trkpt>
<trkpt lat="47.7118" lon="11.180496">
<ele>671.52</ele>
<time>2022-05-27T14:17:44Z</time>
</trkpt>
<trkpt lat="47.71183" lon="11.180377">
<ele>671.519</ele>
<time>2022-05-27T14:17:45Z</time>
</trkpt>
<trkpt lat="47.711838" lon="11.18031">
<ele>671.52</ele>
<time>2022-05-27T14:17:47Z</time>
</trkpt>
<trkpt lat="47.711861" lon="11.180179">
<ele>671.52</ele>
<time>2022-05-27T14:17:48Z</time>
</trkpt>
<trkpt lat="47.711868" lon="11.18011">
<ele>671.52</ele>
<time>2022-05-27T14:17:50Z</time>
</trkpt>
<trkpt lat="47.711899" lon="11.179978">
<ele>671.52</ele>
<time>2022-05-27T14:17:51Z</time>
</trkpt>
<trkpt lat="47.711906" lon="11.179914">
<ele>671.519</ele>
<time>2022-05-27T14:17:53Z</time>
</trkpt>
<trkpt lat="47.711922" lon="11.17985">
<ele>671.52</ele>
<time>2022-05-27T14:17:54Z</time>
</trkpt>
<trkpt lat="47.711948" lon="11.179733">
<ele>671.52</ele>
<time>2022-05-27T14:17:56Z</time>
</trkpt>
<trkpt lat="47.711964" lon="11.179673">
<ele>671.52</ele>
<time>2022-05-27T14:17:57Z</time>
</trkpt>
<trkpt lat="47.711987" lon="11.179555">
<ele>671.52</ele>
<time>2022-05-27T14:17:58Z</time>
</trkpt>
<trkpt lat="47.711998" lon="11.179497">
<ele>671.52</ele>
<time>2022-05-27T14:17:59Z</time>
</trkpt>
<trkpt lat="47.712009" lon="11.179441">
<ele>671.52</ele>
<time>2022-05-27T14:18:01Z</time>
</trkpt>
<trkpt lat="47.712025" lon="11.179323">
<ele>672.028</ele>
<time>2022-05-27T14:18:02Z</time>
</trkpt>
<trkpt lat="47.712032" lon="11.179262">
<ele>672.203</ele>
<time>2022-05-27T14:18:03Z</time>
</trkpt>
<trkpt lat="47.71204" lon="11.179197">
<ele>672.169</ele>
<time>2022-05-27T14:18:04Z</time>
</trkpt>
<trkpt lat="47.712048" lon="11.179125">
<ele>672.019</ele>
<time>2022-05-27T14:18:05Z</time>
</trkpt>
<trkpt lat="47.712059" lon="11.179051">
<ele>671.914</ele>
<time>2022-05-27T14:18:06Z</time>
</trkpt>
<trkpt lat="47.71207" lon="11.178977">
<ele>671.425</ele>
<time>2022-05-27T14:18:07Z</time>
</trkpt>
<trkpt lat="47.712086" lon="11.178895">
<ele>671.101</ele>
<time>2022-05-27T14:18:08Z</time>
</trkpt>
<trkpt lat="47.712097" lon="11.178806">
<ele>670.545</ele>
<time>2022-05-27T14:18:09Z</time>
</trkpt>
<trkpt lat="47.712112" lon="11.178719">
<ele>670.025</ele>
<time>2022-05-27T14:18:11Z</time>
</trkpt>
<trkpt lat="47.712143" lon="11.178544">
<ele>669.384</ele>
<time>2022-05-27T14:18:13Z</time>
</trkpt>
<trkpt lat="47.712173" lon="11.178376">
<ele>669.117</ele>
<time>2022-05-27T14:18:14Z</time>
</trkpt>
<trkpt lat="47.712185" lon="11.178299">
<ele>669.07</ele>
<time>2022-05-27T14:18:15Z</time>
</trkpt>
<trkpt lat="47.712196" lon="11.178222">
<ele>669.047</ele>
<time>2022-05-27T14:18:16Z</time>
</trkpt>
<trkpt lat="47.712212" lon="11.178148">
<ele>669.047</ele>
<time>2022-05-27T14:18:17Z</time>
</trkpt>
<trkpt lat="47.712227" lon="11.178075">
<ele>669.047</ele>
<time>2022-05-27T14:18:18Z</time>
</trkpt>
<trkpt lat="47.712238" lon="11.178001">
<ele>669.047</ele>
<time>2022-05-27T14:18:19Z</time>
</trkpt>
<trkpt lat="47.71225" lon="11.177928">
<ele>669.047</ele>
<time>2022-05-27T14:18:21Z</time>
</trkpt>
<trkpt lat="47.712273" lon="11.177781">
<ele>669.047</ele>
<time>2022-05-27T14:18:23Z</time>
</trkpt>
<trkpt lat="47.712299" lon="11.17763">
<ele>668.807</ele>
<time>2022-05-27T14:18:24Z</time>
</trkpt>
<trkpt lat="47.712318" lon="11.177553">
<ele>668.618</ele>
<time>2022-05-27T14:18:26Z</time>
</trkpt>
<trkpt lat="47.712349" lon="11.1774">
<ele>668.367</ele>
<time>2022-05-27T14:18:27Z</time>
</trkpt>
<trkpt lat="47.712364" lon="11.177323">
<ele>668.29</ele>
<time>2022-05-27T14:18:28Z</time>
</trkpt>
<trkpt lat="47.712383" lon="11.177249">
<ele>668.235</ele>
<time>2022-05-27T14:18:30Z</time>
</trkpt>
<trkpt lat="47.71241" lon="11.177098">
<ele>668.164</ele>
<time>2022-05-27T14:18:32Z</time>
</trkpt>
<trkpt lat="47.712429" lon="11.176948">
<ele>667.668</ele>
<time>2022-05-27T14:18:34Z</time>
</trkpt>
<trkpt lat="47.71244" lon="11.176874">
<ele>667.505</ele>
<time>2022-05-27T14:18:35Z</time>
</trkpt>
<trkpt lat="47.712452" lon="11.176797">
<ele>667.379</ele>
<time>2022-05-27T14:18:36Z</time>
</trkpt>
<trkpt lat="47.712467" lon="11.17665">
<ele>667.241</ele>
<time>2022-05-27T14:18:37Z</time>
</trkpt>
<trkpt lat="47.712482" lon="11.17658">
<ele>667.216</ele>
<time>2022-05-27T14:18:39Z</time>
</trkpt>
<trkpt lat="47.712502" lon="11.17644">
<ele>667.193</ele>
<time>2022-05-27T14:18:41Z</time>
</trkpt>
<trkpt lat="47.712521" lon="11.176302">
<ele>667.193</ele>
<time>2022-05-27T14:18:43Z</time>
</trkpt>
<trkpt lat="47.712547" lon="11.176166">
<ele>667.477</ele>
<time>2022-05-27T14:18:44Z</time>
</trkpt>
<trkpt lat="47.712559" lon="11.176093">
<ele>667.67</ele>
<time>2022-05-27T14:18:45Z</time>
</trkpt>
<trkpt lat="47.71257" lon="11.17602">
<ele>668.172</ele>
<time>2022-05-27T14:18:47Z</time>
</trkpt>
<trkpt lat="47.712585" lon="11.175866">
<ele>668.858</ele>
<time>2022-05-27T14:18:48Z</time>
</trkpt>
<trkpt lat="47.712597" lon="11.175792">
<ele>669.063</ele>
<time>2022-05-27T14:18:50Z</time>
</trkpt>
<trkpt lat="47.712616" lon="11.175651">
<ele>669.395</ele>
<time>2022-05-27T14:18:51Z</time>
</trkpt>
<trkpt lat="47.71262" lon="11.175582">
<ele>669.458</ele>
<time>2022-05-27T14:18:52Z</time>
</trkpt>
<trkpt lat="47.712627" lon="11.175516">
<ele>669.489</ele>
<time>2022-05-27T14:18:54Z</time>
</trkpt>
<trkpt lat="47.71265" lon="11.175377">
<ele>669.489</ele>
<time>2022-05-27T14:18:56Z</time>
</trkpt>
<trkpt lat="47.712685" lon="11.17524">
<ele>669.973</ele>
<time>2022-05-27T14:18:57Z</time>
</trkpt>
<trkpt lat="47.712704" lon="11.175179">
<ele>670.109</ele>
<time>2022-05-27T14:18:59Z</time>
</trkpt>
<trkpt lat="47.712715" lon="11.175122">
<ele>670.471</ele>
<time>2022-05-27T14:19:00Z</time>
</trkpt>
<trkpt lat="47.712746" lon="11.175001">
<ele>671.331</ele>
<time>2022-05-27T14:19:01Z</time>
</trkpt>
<trkpt lat="47.712765" lon="11.174947">
<ele>671.762</ele>
<time>2022-05-27T14:19:03Z</time>
</trkpt>
<trkpt lat="47.712791" lon="11.17485">
<ele>672.346</ele>
<time>2022-05-27T14:19:04Z</time>
</trkpt>
<trkpt lat="47.712811" lon="11.174802">
<ele>672.538</ele>
<time>2022-05-27T14:19:05Z</time>
</trkpt>
<trkpt lat="47.71283" lon="11.174753">
<ele>672.664</ele>
<time>2022-05-27T14:19:07Z</time>
</trkpt>
<trkpt lat="47.712856" lon="11.174651">
<ele>672.756</ele>
<time>2022-05-27T14:19:08Z</time>
</trkpt>
<trkpt lat="47.712872" lon="11.174599">
<ele>672.968</ele>
<time>2022-05-27T14:19:09Z</time>
</trkpt>
<trkpt lat="47.712879" lon="11.174543">
<ele>673.176</ele>
<time>2022-05-27T14:19:11Z</time>
</trkpt>
<trkpt lat="47.712887" lon="11.174488">
<ele>673.349</ele>
<time>2022-05-27T14:19:12Z</time>
</trkpt>
<trkpt lat="47.712914" lon="11.174378">
<ele>673.541</ele>
<time>2022-05-27T14:19:13Z</time>
</trkpt>
<trkpt lat="47.712925" lon="11.17432">
<ele>673.368</ele>
<time>2022-05-27T14:19:14Z</time>
</trkpt>
<trkpt lat="47.712944" lon="11.174258">
<ele>673.219</ele>
<time>2022-05-27T14:19:16Z</time>
</trkpt>
<trkpt lat="47.712955" lon="11.174193">
<ele>673.09</ele>
<time>2022-05-27T14:19:17Z</time>
</trkpt>
<trkpt lat="47.712978" lon="11.174058">
<ele>672.891</ele>
<time>2022-05-27T14:19:18Z</time>
</trkpt>
<trkpt lat="47.712986" lon="11.173989">
<ele>672.833</ele>
<time>2022-05-27T14:19:19Z</time>
</trkpt>
<trkpt lat="47.712994" lon="11.173918">
<ele>672.782</ele>
<time>2022-05-27T14:19:20Z</time>
</trkpt>
<trkpt lat="47.712994" lon="11.173834">
<ele>672.756</ele>
<time>2022-05-27T14:19:21Z</time>
</trkpt>
<trkpt lat="47.712997" lon="11.173748">
<ele>672.756</ele>
<time>2022-05-27T14:19:23Z</time>
</trkpt>
<trkpt lat="47.713005" lon="11.173665">
<ele>672.471</ele>
<time>2022-05-27T14:19:24Z</time>
</trkpt>
<trkpt lat="47.71302" lon="11.17351">
<ele>672.097</ele>
<time>2022-05-27T14:19:25Z</time>
</trkpt>
<trkpt lat="47.713028" lon="11.173431">
<ele>671.98</ele>
<time>2022-05-27T14:19:27Z</time>
</trkpt>
<trkpt lat="47.713032" lon="11.17336">
<ele>671.903</ele>
<time>2022-05-27T14:19:28Z</time>
</trkpt>
<trkpt lat="47.713047" lon="11.173217">
<ele>671.622</ele>
<time>2022-05-27T14:19:30Z</time>
</trkpt>
<trkpt lat="47.71307" lon="11.173053">
<ele>671.256</ele>
<time>2022-05-27T14:19:31Z</time>
</trkpt>
<trkpt lat="47.713085" lon="11.172976">
<ele>671.15</ele>
<time>2022-05-27T14:19:33Z</time>
</trkpt>
<trkpt lat="47.713108" lon="11.1729">
<ele>670.804</ele>
<time>2022-05-27T14:19:34Z</time>
</trkpt>
<trkpt lat="47.713165" lon="11.172742">
<ele>670.346</ele>
<time>2022-05-27T14:19:35Z</time>
</trkpt>
<trkpt lat="47.713184" lon="11.172648">
<ele>669.864</ele>
<time>2022-05-27T14:19:36Z</time>
</trkpt>
<trkpt lat="47.713203" lon="11.17255">
<ele>669.464</ele>
<time>2022-05-27T14:19:37Z</time>
</trkpt>
<trkpt lat="47.713223" lon="11.172453">
<ele>669.222</ele>
<time>2022-05-27T14:19:38Z</time>
</trkpt>
<trkpt lat="47.713238" lon="11.17235">
<ele>669.047</ele>
<time>2022-05-27T14:19:39Z</time>
</trkpt>
<trkpt lat="47.713253" lon="11.172255">
<ele>668.879</ele>
<time>2022-05-27T14:19:41Z</time>
</trkpt>
<trkpt lat="47.713276" lon="11.172062">
<ele>668.722</ele>
<time>2022-05-27T14:19:43Z</time>
</trkpt>
<trkpt lat="47.713299" lon="11.17187">
<ele>668.694</ele>
<time>2022-05-27T14:19:44Z</time>
</trkpt>
<trkpt lat="47.713306" lon="11.171777">
<ele>668.694</ele>
<time>2022-05-27T14:19:46Z</time>
</trkpt>
<trkpt lat="47.713333" lon="11.171597">
<ele>668.694</ele>
<time>2022-05-27T14:19:48Z</time>
</trkpt>
<trkpt lat="47.713364" lon="11.171425">
<ele>668.694</ele>
<time>2022-05-27T14:19:49Z</time>
</trkpt>
<trkpt lat="47.713375" lon="11.171339">
<ele>668.694</ele>
<time>2022-05-27T14:19:50Z</time>
</trkpt>
<trkpt lat="47.71339" lon="11.171253">
<ele>668.694</ele>
<time>2022-05-27T14:19:51Z</time>
</trkpt>
<trkpt lat="47.713398" lon="11.171168">
<ele>668.694</ele>
<time>2022-05-27T14:19:52Z</time>
</trkpt>
<trkpt lat="47.713409" lon="11.171083">
<ele>668.694</ele>
<time>2022-05-27T14:19:53Z</time>
</trkpt>
<trkpt lat="47.713425" lon="11.170998">
<ele>668.694</ele>
<time>2022-05-27T14:19:54Z</time>
</trkpt>
<trkpt lat="47.713432" lon="11.170916">
<ele>668.694</ele>
<time>2022-05-27T14:19:55Z</time>
</trkpt>
<trkpt lat="47.713444" lon="11.170832">
<ele>668.694</ele>
<time>2022-05-27T14:19:57Z</time>
</trkpt>
<trkpt lat="47.713455" lon="11.17075">
<ele>668.694</ele>
<time>2022-05-27T14:19:58Z</time>
</trkpt>
<trkpt lat="47.713474" lon="11.170591">
<ele>668.694</ele>
<time>2022-05-27T14:19:59Z</time>
</trkpt>
<trkpt lat="47.713482" lon="11.170517">
<ele>668.694</ele>
<time>2022-05-27T14:20:00Z</time>
</trkpt>
<trkpt lat="47.713493" lon="11.170446">
<ele>668.694</ele>
<time>2022-05-27T14:20:01Z</time>
</trkpt>
<trkpt lat="47.713501" lon="11.170375">
<ele>668.94</ele>
<time>2022-05-27T14:20:03Z</time>
</trkpt>
<trkpt lat="47.713524" lon="11.170238">
<ele>669.287</ele>
<time>2022-05-27T14:20:04Z</time>
</trkpt>
<trkpt lat="47.713531" lon="11.170172">
<ele>669.4</ele>
<time>2022-05-27T14:20:05Z</time>
</trkpt>
<trkpt lat="47.713543" lon="11.170107">
<ele>669.476</ele>
<time>2022-05-27T14:20:06Z</time>
</trkpt>
<trkpt lat="47.713551" lon="11.17004">
<ele>669.528</ele>
<time>2022-05-27T14:20:07Z</time>
</trkpt>
<trkpt lat="47.713562" lon="11.169975">
<ele>669.555</ele>
<time>2022-05-27T14:20:09Z</time>
</trkpt>
<trkpt lat="47.713585" lon="11.169841">
<ele>669.577</ele>
<time>2022-05-27T14:20:11Z</time>
</trkpt>
<trkpt lat="47.713608" lon="11.169703">
<ele>669.577</ele>
<time>2022-05-27T14:20:12Z</time>
</trkpt>
<trkpt lat="47.713623" lon="11.169632">
<ele>669.577</ele>
<time>2022-05-27T14:20:13Z</time>
</trkpt>
<trkpt lat="47.713634" lon="11.169562">
<ele>669.577</ele>
<time>2022-05-27T14:20:14Z</time>
</trkpt>
<trkpt lat="47.71365" lon="11.169492">
<ele>669.577</ele>
<time>2022-05-27T14:20:15Z</time>
</trkpt>
<trkpt lat="47.713661" lon="11.169424">
<ele>669.577</ele>
<time>2022-05-27T14:20:16Z</time>
</trkpt>
<trkpt lat="47.713673" lon="11.169358">
<ele>669.577</ele>
<time>2022-05-27T14:20:18Z</time>
</trkpt>
<trkpt lat="47.713692" lon="11.169237">
<ele>669.577</ele>
<time>2022-05-27T14:20:20Z</time>
</trkpt>
<trkpt lat="47.713715" lon="11.169137">
<ele>669.577</ele>
<time>2022-05-27T14:20:22Z</time>
</trkpt>
<trkpt lat="47.713722" lon="11.169091">
<ele>669.577</ele>
<time>2022-05-27T14:20:23Z</time>
</trkpt>
<trkpt lat="47.71373" lon="11.169011">
<ele>669.577</ele>
<time>2022-05-27T14:20:24Z</time>
</trkpt>
<trkpt lat="47.713737" lon="11.168977">
<ele>669.577</ele>
<time>2022-05-27T14:20:26Z</time>
</trkpt>
<trkpt lat="47.713757" lon="11.168908">
<ele>669.577</ele>
<time>2022-05-27T14:20:27Z</time>
</trkpt>
<trkpt lat="47.71376" lon="11.168873">
<ele>669.577</ele>
<time>2022-05-27T14:20:28Z</time>
</trkpt>
<trkpt lat="47.713772" lon="11.168832">
<ele>669.577</ele>
<time>2022-05-27T14:20:30Z</time>
</trkpt>
<trkpt lat="47.713791" lon="11.168758">
<ele>670.092</ele>
<time>2022-05-27T14:20:31Z</time>
</trkpt>
<trkpt lat="47.713799" lon="11.168724">
<ele>670.292</ele>
<time>2022-05-27T14:20:33Z</time>
</trkpt>
<trkpt lat="47.71381" lon="11.168692">
<ele>670.448</ele>
<time>2022-05-27T14:20:34Z</time>
</trkpt>
<trkpt lat="47.713821" lon="11.168659">
<ele>670.564</ele>
<time>2022-05-27T14:20:35Z</time>
</trkpt>
<trkpt lat="47.71384" lon="11.168575">
<ele>670.699</ele>
<time>2022-05-27T14:20:36Z</time>
</trkpt>
<trkpt lat="47.713852" lon="11.168529">
<ele>670.724</ele>
<time>2022-05-27T14:20:37Z</time>
</trkpt>
<trkpt lat="47.71386" lon="11.168482">
<ele>670.724</ele>
<time>2022-05-27T14:20:39Z</time>
</trkpt>
<trkpt lat="47.713863" lon="11.168386">
<ele>670.724</ele>
<time>2022-05-27T14:20:40Z</time>
</trkpt>
<trkpt lat="47.713856" lon="11.168328">
<ele>670.725</ele>
<time>2022-05-27T14:20:42Z</time>
</trkpt>
<trkpt lat="47.713821" lon="11.168192">
<ele>670.724</ele>
<time>2022-05-27T14:20:44Z</time>
</trkpt>
<trkpt lat="47.713821" lon="11.168029">
<ele>670.724</ele>
<time>2022-05-27T14:20:46Z</time>
</trkpt>
<trkpt lat="47.713844" lon="11.167865">
<ele>670.724</ele>
<time>2022-05-27T14:20:48Z</time>
</trkpt>
<trkpt lat="47.713875" lon="11.167706">
<ele>670.457</ele>
<time>2022-05-27T14:20:49Z</time>
</trkpt>
<trkpt lat="47.71389" lon="11.167624">
<ele>670.459</ele>
<time>2022-05-27T14:20:51Z</time>
</trkpt>
<trkpt lat="47.713932" lon="11.16747">
<ele>670.469</ele>
<time>2022-05-27T14:20:52Z</time>
</trkpt>
<trkpt lat="47.713951" lon="11.167398">
<ele>670.478</ele>
<time>2022-05-27T14:20:54Z</time>
</trkpt>
<trkpt lat="47.713993" lon="11.16726">
<ele>670.495</ele>
<time>2022-05-27T14:20:56Z</time>
</trkpt>
<trkpt lat="47.714016" lon="11.167193">
<ele>670.764</ele>
<time>2022-05-27T14:20:57Z</time>
</trkpt>
<trkpt lat="47.71405" lon="11.167055">
<ele>671.135</ele>
<time>2022-05-27T14:20:58Z</time>
</trkpt>
<trkpt lat="47.714058" lon="11.166989">
<ele>671.24</ele>
<time>2022-05-27T14:20:59Z</time>
</trkpt>
<trkpt lat="47.714058" lon="11.166931">
<ele>671.579</ele>
<time>2022-05-27T14:21:00Z</time>
</trkpt>
<trkpt lat="47.714054" lon="11.166875">
<ele>671.857</ele>
<time>2022-05-27T14:21:01Z</time>
</trkpt>
<trkpt lat="47.71405" lon="11.166817">
<ele>672.072</ele>
<time>2022-05-27T14:21:02Z</time>
</trkpt>
<trkpt lat="47.714043" lon="11.166757">
<ele>672.232</ele>
<time>2022-05-27T14:21:03Z</time>
</trkpt>
<trkpt lat="47.714031" lon="11.166697">
<ele>672.336</ele>
<time>2022-05-27T14:21:04Z</time>
</trkpt>
<trkpt lat="47.71402" lon="11.166637">
<ele>672.412</ele>
<time>2022-05-27T14:21:06Z</time>
</trkpt>
<trkpt lat="47.714001" lon="11.166512">
<ele>672.491</ele>
<time>2022-05-27T14:21:07Z</time>
</trkpt>
<trkpt lat="47.713985" lon="11.166445">
<ele>672.491</ele>
<time>2022-05-27T14:21:08Z</time>
</trkpt>
<trkpt lat="47.713974" lon="11.166373">
<ele>672.491</ele>
<time>2022-05-27T14:21:10Z</time>
</trkpt>
<trkpt lat="47.713951" lon="11.166295">
<ele>672.491</ele>
<time>2022-05-27T14:21:11Z</time>
</trkpt>
<trkpt lat="47.713898" lon="11.166153">
<ele>672.164</ele>
<time>2022-05-27T14:21:12Z</time>
</trkpt>
<trkpt lat="47.713875" lon="11.166086">
<ele>671.919</ele>
<time>2022-05-27T14:21:13Z</time>
</trkpt>
<trkpt lat="47.713852" lon="11.166017">
<ele>671.747</ele>
<time>2022-05-27T14:21:14Z</time>
</trkpt>
<trkpt lat="47.713829" lon="11.165944">
<ele>671.625</ele>
<time>2022-05-27T14:21:15Z</time>
</trkpt>
<trkpt lat="47.71381" lon="11.165874">
<ele>671.54</ele>
<time>2022-05-27T14:21:16Z</time>
</trkpt>
<trkpt lat="47.713791" lon="11.165806">
<ele>671.488</ele>
<time>2022-05-27T14:21:18Z</time>
</trkpt>
<trkpt lat="47.713753" lon="11.165662">
<ele>671.431</ele>
<time>2022-05-27T14:21:19Z</time>
</trkpt>
<trkpt lat="47.713741" lon="11.165592">
<ele>671.175</ele>
<time>2022-05-27T14:21:20Z</time>
</trkpt>
<trkpt lat="47.71373" lon="11.165526">
<ele>670.962</ele>
<time>2022-05-27T14:21:21Z</time>
</trkpt>
<trkpt lat="47.713726" lon="11.165462">
<ele>670.788</ele>
<time>2022-05-27T14:21:23Z</time>
</trkpt>
<trkpt lat="47.713699" lon="11.165334">
<ele>670.741</ele>
<time>2022-05-27T14:21:24Z</time>
</trkpt>
<trkpt lat="47.713692" lon="11.16527">
<ele>670.836</ele>
<time>2022-05-27T14:21:25Z</time>
</trkpt>
<trkpt lat="47.713684" lon="11.165203">
<ele>670.932</ele>
<time>2022-05-27T14:21:26Z</time>
</trkpt>
<trkpt lat="47.713665" lon="11.16513">
<ele>671.03</ele>
<time>2022-05-27T14:21:27Z</time>
</trkpt>
<trkpt lat="47.713654" lon="11.165056">
<ele>671.1</ele>
<time>2022-05-27T14:21:28Z</time>
</trkpt>
<trkpt lat="47.713642" lon="11.164985">
<ele>671.185</ele>
<time>2022-05-27T14:21:29Z</time>
</trkpt>
<trkpt lat="47.713631" lon="11.164917">
<ele>671.268</ele>
<time>2022-05-27T14:21:31Z</time>
</trkpt>
<trkpt lat="47.713627" lon="11.164848">
<ele>671.32</ele>
<time>2022-05-27T14:21:32Z</time>
</trkpt>
<trkpt lat="47.713615" lon="11.164712">
<ele>671.343</ele>
<time>2022-05-27T14:21:33Z</time>
</trkpt>
<trkpt lat="47.713612" lon="11.164647">
<ele>671.343</ele>
<time>2022-05-27T14:21:34Z</time>
</trkpt>
<trkpt lat="47.713608" lon="11.164585">
<ele>671.569</ele>
<time>2022-05-27T14:21:35Z</time>
</trkpt>
<trkpt lat="47.7136" lon="11.164527">
<ele>671.747</ele>
<time>2022-05-27T14:21:36Z</time>
</trkpt>
<trkpt lat="47.7136" lon="11.16447">
<ele>671.887</ele>
<time>2022-05-27T14:21:38Z</time>
</trkpt>
<trkpt lat="47.7136" lon="11.164414">
<ele>671.973</ele>
<time>2022-05-27T14:21:39Z</time>
</trkpt>
<trkpt lat="47.7136" lon="11.164364">
<ele>672.279</ele>
<time>2022-05-27T14:21:40Z</time>
</trkpt>
<trkpt lat="47.713604" lon="11.164267">
<ele>672.766</ele>
<time>2022-05-27T14:21:41Z</time>
</trkpt>
<trkpt lat="47.713604" lon="11.164215">
<ele>672.931</ele>
<time>2022-05-27T14:21:42Z</time>
</trkpt>
<trkpt lat="47.713604" lon="11.164165">
<ele>673.04</ele>
<time>2022-05-27T14:21:43Z</time>
</trkpt>
<trkpt lat="47.713604" lon="11.164113">
<ele>673.111</ele>
<time>2022-05-27T14:21:44Z</time>
</trkpt>
<trkpt lat="47.713604" lon="11.164062">
<ele>673.424</ele>
<time>2022-05-27T14:21:45Z</time>
</trkpt>
<trkpt lat="47.713604" lon="11.164012">
<ele>673.67</ele>
<time>2022-05-27T14:21:46Z</time>
</trkpt>
<trkpt lat="47.713608" lon="11.163963">
<ele>673.87</ele>
<time>2022-05-27T14:21:47Z</time>
</trkpt>
<trkpt lat="47.713604" lon="11.163918">
<ele>673.968</ele>
<time>2022-05-27T14:21:48Z</time>
</trkpt>
<trkpt lat="47.713604" lon="11.163874">
<ele>674.313</ele>
<time>2022-05-27T14:21:49Z</time>
</trkpt>
<trkpt lat="47.713604" lon="11.16383">
<ele>674.619</ele>
<time>2022-05-27T14:21:50Z</time>
</trkpt>
<trkpt lat="47.713604" lon="11.163785">
<ele>674.859</ele>
<time>2022-05-27T14:21:51Z</time>
</trkpt>
<trkpt lat="47.713604" lon="11.16374">
<ele>675.011</ele>
<time>2022-05-27T14:21:52Z</time>
</trkpt>
<trkpt lat="47.713604" lon="11.163695">
<ele>675.366</ele>
<time>2022-05-27T14:21:54Z</time>
</trkpt>
<trkpt lat="47.713604" lon="11.163595">
<ele>675.886</ele>
<time>2022-05-27T14:21:55Z</time>
</trkpt>
<trkpt lat="47.713604" lon="11.163542">
<ele>676.022</ele>
<time>2022-05-27T14:21:56Z</time>
</trkpt>
<trkpt lat="47.7136" lon="11.163493">
<ele>676.379</ele>
<time>2022-05-27T14:21:57Z</time>
</trkpt>
<trkpt lat="47.713596" lon="11.163455">
<ele>676.621</ele>
<time>2022-05-27T14:21:58Z</time>
</trkpt>
<trkpt lat="47.713604" lon="11.163415">
<ele>676.788</ele>
<time>2022-05-27T14:22:00Z</time>
</trkpt>
<trkpt lat="47.713608" lon="11.163344">
<ele>677.033</ele>
<time>2022-05-27T14:22:01Z</time>
</trkpt>
<trkpt lat="47.713608" lon="11.163304">
<ele>677.102</ele>
<time>2022-05-27T14:22:02Z</time>
</trkpt>
<trkpt lat="47.7136" lon="11.163264">
<ele>677.148</ele>
<time>2022-05-27T14:22:03Z</time>
</trkpt>
<trkpt lat="47.713596" lon="11.163227">
<ele>677.174</ele>
<time>2022-05-27T14:22:04Z</time>
</trkpt>
<trkpt lat="47.713593" lon="11.163187">
<ele>677.174</ele>
<time>2022-05-27T14:22:05Z</time>
</trkpt>
<trkpt lat="47.713589" lon="11.163126">
<ele>677.174</ele>
<time>2022-05-27T14:22:06Z</time>
</trkpt>
<trkpt lat="47.713577" lon="11.163063">
<ele>677.174</ele>
<time>2022-05-27T14:22:07Z</time>
</trkpt>
<trkpt lat="47.713573" lon="11.162986">
<ele>677.174</ele>
<time>2022-05-27T14:22:09Z</time>
</trkpt>
<trkpt lat="47.713558" lon="11.162815">
<ele>677.174</ele>
<time>2022-05-27T14:22:10Z</time>
</trkpt>
<trkpt lat="47.713551" lon="11.16273">
<ele>677.174</ele>
<time>2022-05-27T14:22:11Z</time>
</trkpt>
<trkpt lat="47.713543" lon="11.162648">
<ele>677.174</ele>
<time>2022-05-27T14:22:12Z</time>
</trkpt>
<trkpt lat="47.713531" lon="11.162562">
<ele>677.174</ele>
<time>2022-05-27T14:22:14Z</time>
</trkpt>
<trkpt lat="47.713509" lon="11.162367">
<ele>676.927</ele>
<time>2022-05-27T14:22:15Z</time>
</trkpt>
<trkpt lat="47.713497" lon="11.16227">
<ele>676.774</ele>
<time>2022-05-27T14:22:16Z</time>
</trkpt>
<trkpt lat="47.713486" lon="11.162175">
<ele>676.308</ele>
<time>2022-05-27T14:22:17Z</time>
</trkpt>
<trkpt lat="47.71347" lon="11.162082">
<ele>675.944</ele>
<time>2022-05-27T14:22:18Z</time>
</trkpt>
<trkpt lat="47.713459" lon="11.16199">
<ele>675.691</ele>
<time>2022-05-27T14:22:20Z</time>
</trkpt>
<trkpt lat="47.713432" lon="11.161827">
<ele>675.062</ele>
<time>2022-05-27T14:22:22Z</time>
</trkpt>
<trkpt lat="47.713394" lon="11.161692">
<ele>674.352</ele>
<time>2022-05-27T14:22:23Z</time>
</trkpt>
<trkpt lat="47.713367" lon="11.161636">
<ele>674.004</ele>
<time>2022-05-27T14:22:24Z</time>
</trkpt>
<trkpt lat="47.713333" lon="11.161591">
<ele>673.626</ele>
<time>2022-05-27T14:22:25Z</time>
</trkpt>
<trkpt lat="47.713303" lon="11.161551">
<ele>673.456</ele>
<time>2022-05-27T14:22:26Z</time>
</trkpt>
<trkpt lat="47.713272" lon="11.161522">
<ele>673.35</ele>
<time>2022-05-27T14:22:27Z</time>
</trkpt>
<trkpt lat="47.713242" lon="11.161496">
<ele>673.087</ele>
<time>2022-05-27T14:22:28Z</time>
</trkpt>
<trkpt lat="47.713211" lon="11.161471">
<ele>672.647</ele>
<time>2022-05-27T14:22:29Z</time>
</trkpt>
<trkpt lat="47.713184" lon="11.16145">
<ele>672.255</ele>
<time>2022-05-27T14:22:30Z</time>
</trkpt>
<trkpt lat="47.713161" lon="11.161431">
<ele>671.98</ele>
<time>2022-05-27T14:22:31Z</time>
</trkpt>
<trkpt lat="47.713139" lon="11.161415">
<ele>671.51</ele>
<time>2022-05-27T14:22:32Z</time>
</trkpt>
<trkpt lat="47.713123" lon="11.1614">
<ele>671.125</ele>
<time>2022-05-27T14:22:33Z</time>
</trkpt>
<trkpt lat="47.713108" lon="11.161388">
<ele>670.815</ele>
<time>2022-05-27T14:22:34Z</time>
</trkpt>
<trkpt lat="47.713097" lon="11.161377">
<ele>670.594</ele>
<time>2022-05-27T14:22:35Z</time>
</trkpt>
<trkpt lat="47.713085" lon="11.161368">
<ele>670.459</ele>
<time>2022-05-27T14:22:36Z</time>
</trkpt>
<trkpt lat="47.713078" lon="11.161365">
<ele>670.362</ele>
<time>2022-05-27T14:22:37Z</time>
</trkpt>
<trkpt lat="47.713074" lon="11.161362">
<ele>670.131</ele>
<time>2022-05-27T14:22:39Z</time>
</trkpt>
<trkpt lat="47.713062" lon="11.161356">
<ele>669.782</ele>
<time>2022-05-27T14:22:40Z</time>
</trkpt>
<trkpt lat="47.713062" lon="11.161355">
<ele>669.648</ele>
<time>2022-05-27T14:22:41Z</time>
</trkpt>
<trkpt lat="47.713047" lon="11.161328">
<ele>669.518</ele>
<time>2022-05-27T14:22:46Z</time>
</trkpt>
<trkpt lat="47.713039" lon="11.16131">
<ele>669.415</ele>
<time>2022-05-27T14:22:47Z</time>
</trkpt>
<trkpt lat="47.713039" lon="11.161288">
<ele>669.34</ele>
<time>2022-05-27T14:22:48Z</time>
</trkpt>
<trkpt lat="47.713039" lon="11.16125">
<ele>669.312</ele>
<time>2022-05-27T14:22:50Z</time>
</trkpt>
<trkpt lat="47.713039" lon="11.161199">
<ele>669.312</ele>
<time>2022-05-27T14:22:51Z</time>
</trkpt>
<trkpt lat="47.713047" lon="11.161081">
<ele>669.312</ele>
<time>2022-05-27T14:22:52Z</time>
</trkpt>
<trkpt lat="47.713051" lon="11.161015">
<ele>669.312</ele>
<time>2022-05-27T14:22:53Z</time>
</trkpt>
<trkpt lat="47.713055" lon="11.160947">
<ele>669.312</ele>
<time>2022-05-27T14:22:54Z</time>
</trkpt>
<trkpt lat="47.713055" lon="11.160875">
<ele>669.312</ele>
<time>2022-05-27T14:22:55Z</time>
</trkpt>
<trkpt lat="47.713055" lon="11.160803">
<ele>669.312</ele>
<time>2022-05-27T14:22:56Z</time>
</trkpt>
<trkpt lat="47.713051" lon="11.160731">
<ele>669.013</ele>
<time>2022-05-27T14:22:57Z</time>
</trkpt>
<trkpt lat="47.713047" lon="11.16066">
<ele>668.806</ele>
<time>2022-05-27T14:22:58Z</time>
</trkpt>
<trkpt lat="47.713051" lon="11.1606">
<ele>668.654</ele>
<time>2022-05-27T14:23:00Z</time>
</trkpt>
<trkpt lat="47.713055" lon="11.160486">
<ele>668.466</ele>
<time>2022-05-27T14:23:01Z</time>
</trkpt>
<trkpt lat="47.713055" lon="11.160428">
<ele>668.412</ele>
<time>2022-05-27T14:23:03Z</time>
</trkpt>
<trkpt lat="47.713055" lon="11.160292">
<ele>668.341</ele>
<time>2022-05-27T14:23:05Z</time>
</trkpt>
<trkpt lat="47.713043" lon="11.160131">
<ele>668.341</ele>
<time>2022-05-27T14:23:07Z</time>
</trkpt>
<trkpt lat="47.713036" lon="11.15996">
<ele>668.341</ele>
<time>2022-05-27T14:23:09Z</time>
</trkpt>
<trkpt lat="47.713036" lon="11.159877">
<ele>668.341</ele>
<time>2022-05-27T14:23:10Z</time>
</trkpt>
<trkpt lat="47.713032" lon="11.159791">
<ele>668.341</ele>
<time>2022-05-27T14:23:11Z</time>
</trkpt>
<trkpt lat="47.713039" lon="11.159636">
<ele>667.94</ele>
<time>2022-05-27T14:23:12Z</time>
</trkpt>
<trkpt lat="47.713051" lon="11.159572">
<ele>667.824</ele>
<time>2022-05-27T14:23:13Z</time>
</trkpt>
<trkpt lat="47.713062" lon="11.1595">
<ele>667.431</ele>
<time>2022-05-27T14:23:14Z</time>
</trkpt>
<trkpt lat="47.713062" lon="11.159418">
<ele>667.104</ele>
<time>2022-05-27T14:23:15Z</time>
</trkpt>
<trkpt lat="47.713066" lon="11.159331">
<ele>666.88</ele>
<time>2022-05-27T14:23:17Z</time>
</trkpt>
<trkpt lat="47.713066" lon="11.159124">
<ele>666.101</ele>
<time>2022-05-27T14:23:19Z</time>
</trkpt>
<trkpt lat="47.71307" lon="11.158903">
<ele>665.075</ele>
<time>2022-05-27T14:23:20Z</time>
</trkpt>
<trkpt lat="47.713074" lon="11.158789">
<ele>664.767</ele>
<time>2022-05-27T14:23:22Z</time>
</trkpt>
<trkpt lat="47.713081" lon="11.158553">
<ele>664.459</ele>
<time>2022-05-27T14:23:23Z</time>
</trkpt>
<trkpt lat="47.713085" lon="11.158435">
<ele>664.107</ele>
<time>2022-05-27T14:23:24Z</time>
</trkpt>
<trkpt lat="47.713093" lon="11.15832">
<ele>663.86</ele>
<time>2022-05-27T14:23:25Z</time>
</trkpt>
<trkpt lat="47.713104" lon="11.158207">
<ele>663.675</ele>
<time>2022-05-27T14:23:26Z</time>
</trkpt>
<trkpt lat="47.71312" lon="11.158096">
<ele>663.574</ele>
<time>2022-05-27T14:23:27Z</time>
</trkpt>
<trkpt lat="47.713139" lon="11.15799">
<ele>663.231</ele>
<time>2022-05-27T14:23:29Z</time>
</trkpt>
<trkpt lat="47.713188" lon="11.157785">
<ele>662.743</ele>
<time>2022-05-27T14:23:30Z</time>
</trkpt>
<trkpt lat="47.713215" lon="11.157687">
<ele>662.587</ele>
<time>2022-05-27T14:23:32Z</time>
</trkpt>
<trkpt lat="47.71328" lon="11.157503">
<ele>662.422</ele>
<time>2022-05-27T14:23:34Z</time>
</trkpt>
<trkpt lat="47.713318" lon="11.157419">
<ele>662.366</ele>
<time>2022-05-27T14:23:35Z</time>
</trkpt>
<trkpt lat="47.713375" lon="11.157251">
<ele>662.09</ele>
<time>2022-05-27T14:23:37Z</time>
</trkpt>
<trkpt lat="47.713436" lon="11.157093">
<ele>661.502</ele>
<time>2022-05-27T14:23:38Z</time>
</trkpt>
<trkpt lat="47.713463" lon="11.157017">
<ele>661.181</ele>
<time>2022-05-27T14:23:40Z</time>
</trkpt>
<trkpt lat="47.713505" lon="11.156849">
<ele>660.516</ele>
<time>2022-05-27T14:23:41Z</time>
</trkpt>
<trkpt lat="47.713524" lon="11.156759">
<ele>660.163</ele>
<time>2022-05-27T14:23:42Z</time>
</trkpt>
<trkpt lat="47.713531" lon="11.156667">
<ele>659.906</ele>
<time>2022-05-27T14:23:43Z</time>
</trkpt>
<trkpt lat="47.713543" lon="11.156573">
<ele>659.69</ele>
<time>2022-05-27T14:23:44Z</time>
</trkpt>
<trkpt lat="47.713547" lon="11.156478">
<ele>659.286</ele>
<time>2022-05-27T14:23:45Z</time>
</trkpt>
<trkpt lat="47.713543" lon="11.156388">
<ele>658.986</ele>
<time>2022-05-27T14:23:46Z</time>
</trkpt>
<trkpt lat="47.713543" lon="11.156299">
<ele>658.764</ele>
<time>2022-05-27T14:23:47Z</time>
</trkpt>
<trkpt lat="47.713535" lon="11.156205">
<ele>658.636</ele>
<time>2022-05-27T14:23:48Z</time>
</trkpt>
<trkpt lat="47.713528" lon="11.156108">
<ele>658.217</ele>
<time>2022-05-27T14:23:49Z</time>
</trkpt>
<trkpt lat="47.713524" lon="11.156012">
<ele>657.982</ele>
<time>2022-05-27T14:23:51Z</time>
</trkpt>
<trkpt lat="47.713509" lon="11.155909">
<ele>657.815</ele>
<time>2022-05-27T14:23:52Z</time>
</trkpt>
<trkpt lat="47.713478" lon="11.155704">
<ele>657.63</ele>
<time>2022-05-27T14:23:53Z</time>
</trkpt>
<trkpt lat="47.713463" lon="11.155601">
<ele>657.581</ele>
<time>2022-05-27T14:23:54Z</time>
</trkpt>
<trkpt lat="47.713448" lon="11.155499">
<ele>657.817</ele>
<time>2022-05-27T14:23:55Z</time>
</trkpt>
<trkpt lat="47.71344" lon="11.155399">
<ele>658.013</ele>
<time>2022-05-27T14:23:56Z</time>
</trkpt>
<trkpt lat="47.713436" lon="11.1553">
<ele>657.917</ele>
<time>2022-05-27T14:23:58Z</time>
</trkpt>
<trkpt lat="47.713436" lon="11.1551">
<ele>657.768</ele>
<time>2022-05-27T14:23:59Z</time>
</trkpt>
<trkpt lat="47.713448" lon="11.155008">
<ele>657.707</ele>
<time>2022-05-27T14:24:00Z</time>
</trkpt>
<trkpt lat="47.713459" lon="11.154922">
<ele>657.651</ele>
<time>2022-05-27T14:24:01Z</time>
</trkpt>
<trkpt lat="47.713474" lon="11.154836">
<ele>657.628</ele>
<time>2022-05-27T14:24:03Z</time>
</trkpt>
<trkpt lat="47.71352" lon="11.154675">
<ele>657.103</ele>
<time>2022-05-27T14:24:04Z</time>
</trkpt>
<trkpt lat="47.713551" lon="11.154601">
<ele>656.912</ele>
<time>2022-05-27T14:24:05Z</time>
</trkpt>
<trkpt lat="47.713577" lon="11.154528">
<ele>656.777</ele>
<time>2022-05-27T14:24:07Z</time>
</trkpt>
<trkpt lat="47.713631" lon="11.154387">
<ele>656.59</ele>
<time>2022-05-27T14:24:09Z</time>
</trkpt>
<trkpt lat="47.713692" lon="11.15426">
<ele>656.516</ele>
<time>2022-05-27T14:24:10Z</time>
</trkpt>
<trkpt lat="47.713726" lon="11.154201">
<ele>656.516</ele>
<time>2022-05-27T14:24:11Z</time>
</trkpt>
<trkpt lat="47.71376" lon="11.154148">
<ele>656.516</ele>
<time>2022-05-27T14:24:12Z</time>
</trkpt>
<trkpt lat="47.713795" lon="11.154092">
<ele>656.516</ele>
<time>2022-05-27T14:24:14Z</time>
</trkpt>
<trkpt lat="47.713867" lon="11.153967">
<ele>656.516</ele>
<time>2022-05-27T14:24:15Z</time>
</trkpt>
<trkpt lat="47.713902" lon="11.153901">
<ele>656.516</ele>
<time>2022-05-27T14:24:16Z</time>
</trkpt>
<trkpt lat="47.713936" lon="11.153833">
<ele>656.516</ele>
<time>2022-05-27T14:24:17Z</time>
</trkpt>
<trkpt lat="47.713966" lon="11.153759">
<ele>656.516</ele>
<time>2022-05-27T14:24:18Z</time>
</trkpt>
<trkpt lat="47.714001" lon="11.153688">
<ele>656.516</ele>
<time>2022-05-27T14:24:19Z</time>
</trkpt>
<trkpt lat="47.714027" lon="11.153613">
<ele>656.261</ele>
<time>2022-05-27T14:24:21Z</time>
</trkpt>
<trkpt lat="47.714066" lon="11.153447">
<ele>655.916</ele>
<time>2022-05-27T14:24:23Z</time>
</trkpt>
<trkpt lat="47.714085" lon="11.153267">
<ele>655.461</ele>
<time>2022-05-27T14:24:24Z</time>
</trkpt>
<trkpt lat="47.714085" lon="11.15318">
<ele>655.184</ele>
<time>2022-05-27T14:24:25Z</time>
</trkpt>
<trkpt lat="47.714085" lon="11.153095">
<ele>654.972</ele>
<time>2022-05-27T14:24:26Z</time>
</trkpt>
<trkpt lat="47.714085" lon="11.153011">
<ele>654.841</ele>
<time>2022-05-27T14:24:27Z</time>
</trkpt>
<trkpt lat="47.714085" lon="11.152931">
<ele>654.52</ele>
<time>2022-05-27T14:24:29Z</time>
</trkpt>
<trkpt lat="47.714085" lon="11.152787">
<ele>654.07</ele>
<time>2022-05-27T14:24:30Z</time>
</trkpt>
<trkpt lat="47.714085" lon="11.152719">
<ele>653.949</ele>
<time>2022-05-27T14:24:32Z</time>
</trkpt>
<trkpt lat="47.714085" lon="11.152588">
<ele>653.385</ele>
<time>2022-05-27T14:24:33Z</time>
</trkpt>
<trkpt lat="47.714085" lon="11.152518">
<ele>653.163</ele>
<time>2022-05-27T14:24:34Z</time>
</trkpt>
<trkpt lat="47.714088" lon="11.152447">
<ele>652.996</ele>
<time>2022-05-27T14:24:36Z</time>
</trkpt>
<trkpt lat="47.714096" lon="11.152313">
<ele>652.81</ele>
<time>2022-05-27T14:24:37Z</time>
</trkpt>
<trkpt lat="47.714096" lon="11.152248">
<ele>652.517</ele>
<time>2022-05-27T14:24:38Z</time>
</trkpt>
<trkpt lat="47.714096" lon="11.152187">
<ele>652.292</ele>
<time>2022-05-27T14:24:40Z</time>
</trkpt>
<trkpt lat="47.714096" lon="11.152057">
<ele>651.984</ele>
<time>2022-05-27T14:24:42Z</time>
</trkpt>
<trkpt lat="47.714085" lon="11.151928">
<ele>651.839</ele>
<time>2022-05-27T14:24:43Z</time>
</trkpt>
<trkpt lat="47.714085" lon="11.151863">
<ele>651.781</ele>
<time>2022-05-27T14:24:45Z</time>
</trkpt>
<trkpt lat="47.714069" lon="11.151733">
<ele>651.499</ele>
<time>2022-05-27T14:24:46Z</time>
</trkpt>
<trkpt lat="47.714062" lon="11.151669">
<ele>651.298</ele>
<time>2022-05-27T14:24:47Z</time>
</trkpt>
<trkpt lat="47.714058" lon="11.151599">
<ele>651.152</ele>
<time>2022-05-27T14:24:48Z</time>
</trkpt>
<trkpt lat="47.714066" lon="11.151534">
<ele>651.038</ele>
<time>2022-05-27T14:24:49Z</time>
</trkpt>
<trkpt lat="47.714085" lon="11.15147">
<ele>650.962</ele>
<time>2022-05-27T14:24:50Z</time>
</trkpt>
<trkpt lat="47.714115" lon="11.151427">
<ele>650.916</ele>
<time>2022-05-27T14:24:52Z</time>
</trkpt>
<trkpt lat="47.714199" lon="11.151395">
<ele>650.873</ele>
<time>2022-05-27T14:24:53Z</time>
</trkpt>
<trkpt lat="47.714241" lon="11.151383">
<ele>650.873</ele>
<time>2022-05-27T14:24:55Z</time>
</trkpt>
<trkpt lat="47.714317" lon="11.15135">
<ele>650.873</ele>
<time>2022-05-27T14:24:57Z</time>
</trkpt>
<trkpt lat="47.714409" lon="11.151314">
<ele>650.873</ele>
<time>2022-05-27T14:24:58Z</time>
</trkpt>
<trkpt lat="47.714451" lon="11.151297">
<ele>650.873</ele>
<time>2022-05-27T14:24:59Z</time>
</trkpt>
<trkpt lat="47.714497" lon="11.151283">
<ele>650.873</ele>
<time>2022-05-27T14:25:00Z</time>
</trkpt>
<trkpt lat="47.714539" lon="11.151277">
<ele>651.098</ele>
<time>2022-05-27T14:25:01Z</time>
</trkpt>
<trkpt lat="47.714584" lon="11.151274">
<ele>651.274</ele>
<time>2022-05-27T14:25:02Z</time>
</trkpt>
<trkpt lat="47.714626" lon="11.151268">
<ele>651.393</ele>
<time>2022-05-27T14:25:03Z</time>
</trkpt>
<trkpt lat="47.714668" lon="11.151265">
<ele>651.52</ele>
<time>2022-05-27T14:25:04Z</time>
</trkpt>
<trkpt lat="47.714706" lon="11.151258">
<ele>651.608</ele>
<time>2022-05-27T14:25:06Z</time>
</trkpt>
<trkpt lat="47.71479" lon="11.151238">
<ele>652.232</ele>
<time>2022-05-27T14:25:07Z</time>
</trkpt>
<trkpt lat="47.714828" lon="11.151235">
<ele>652.414</ele>
<time>2022-05-27T14:25:09Z</time>
</trkpt>
<trkpt lat="47.714905" lon="11.151237">
<ele>653.49</ele>
<time>2022-05-27T14:25:10Z</time>
</trkpt>
<trkpt lat="47.714939" lon="11.151226">
<ele>653.911</ele>
<time>2022-05-27T14:25:11Z</time>
</trkpt>
<trkpt lat="47.714973" lon="11.151216">
<ele>654.239</ele>
<time>2022-05-27T14:25:12Z</time>
</trkpt>
<trkpt lat="47.715008" lon="11.151205">
<ele>654.473</ele>
<time>2022-05-27T14:25:13Z</time>
</trkpt>
<trkpt lat="47.71505" lon="11.151209">
<ele>654.676</ele>
<time>2022-05-27T14:25:14Z</time>
</trkpt>
<trkpt lat="47.715092" lon="11.151209">
<ele>654.822</ele>
<time>2022-05-27T14:25:15Z</time>
</trkpt>
<trkpt lat="47.71513" lon="11.1512">
<ele>654.904</ele>
<time>2022-05-27T14:25:17Z</time>
</trkpt>
<trkpt lat="47.715168" lon="11.15119">
<ele>654.929</ele>
<time>2022-05-27T14:25:18Z</time>
</trkpt>
<trkpt lat="47.715244" lon="11.151167">
<ele>655.361</ele>
<time>2022-05-27T14:25:19Z</time>
</trkpt>
<trkpt lat="47.715282" lon="11.151151">
<ele>655.508</ele>
<time>2022-05-27T14:25:20Z</time>
</trkpt>
<trkpt lat="47.715321" lon="11.151135">
<ele>655.605</ele>
<time>2022-05-27T14:25:21Z</time>
</trkpt>
<trkpt lat="47.715355" lon="11.151125">
<ele>655.679</ele>
<time>2022-05-27T14:25:22Z</time>
</trkpt>
<trkpt lat="47.715393" lon="11.151115">
<ele>655.735</ele>
<time>2022-05-27T14:25:23Z</time>
</trkpt>
<trkpt lat="47.715431" lon="11.151105">
<ele>655.786</ele>
<time>2022-05-27T14:25:24Z</time>
</trkpt>
<trkpt lat="47.715473" lon="11.151088">
<ele>655.811</ele>
<time>2022-05-27T14:25:25Z</time>
</trkpt>
<trkpt lat="47.715519" lon="11.151072">
<ele>655.811</ele>
<time>2022-05-27T14:25:26Z</time>
</trkpt>
<trkpt lat="47.715561" lon="11.151044">
<ele>655.811</ele>
<time>2022-05-27T14:25:27Z</time>
</trkpt>
<trkpt lat="47.715611" lon="11.151013">
<ele>655.811</ele>
<time>2022-05-27T14:25:28Z</time>
</trkpt>
<trkpt lat="47.715649" lon="11.150991">
<ele>655.811</ele>
<time>2022-05-27T14:25:30Z</time>
</trkpt>
<trkpt lat="47.715725" lon="11.150962">
<ele>656.056</ele>
<time>2022-05-27T14:25:31Z</time>
</trkpt>
<trkpt lat="47.715771" lon="11.15096">
<ele>656.243</ele>
<time>2022-05-27T14:25:32Z</time>
</trkpt>
<trkpt lat="47.715813" lon="11.150973">
<ele>656.369</ele>
<time>2022-05-27T14:25:33Z</time>
</trkpt>
<trkpt lat="47.715847" lon="11.150995">
<ele>656.507</ele>
<time>2022-05-27T14:25:34Z</time>
</trkpt>
<trkpt lat="47.715881" lon="11.151023">
<ele>656.616</ele>
<time>2022-05-27T14:25:35Z</time>
</trkpt>
<trkpt lat="47.715916" lon="11.15106">
<ele>656.698</ele>
<time>2022-05-27T14:25:36Z</time>
</trkpt>
<trkpt lat="47.715942" lon="11.1511">
<ele>656.756</ele>
<time>2022-05-27T14:25:37Z</time>
</trkpt>
<trkpt lat="47.715965" lon="11.15114">
<ele>656.781</ele>
<time>2022-05-27T14:25:38Z</time>
</trkpt>
<trkpt lat="47.715981" lon="11.151182">
<ele>657.026</ele>
<time>2022-05-27T14:25:39Z</time>
</trkpt>
<trkpt lat="47.715992" lon="11.151226">
<ele>657.219</ele>
<time>2022-05-27T14:25:40Z</time>
</trkpt>
<trkpt lat="47.716007" lon="11.151275">
<ele>657.372</ele>
<time>2022-05-27T14:25:41Z</time>
</trkpt>
<trkpt lat="47.716019" lon="11.151325">
<ele>657.495</ele>
<time>2022-05-27T14:25:42Z</time>
</trkpt>
<trkpt lat="47.716038" lon="11.151381">
<ele>657.578</ele>
<time>2022-05-27T14:25:43Z</time>
</trkpt>
<trkpt lat="47.716049" lon="11.151435">
<ele>657.663</ele>
<time>2022-05-27T14:25:44Z</time>
</trkpt>
<trkpt lat="47.716061" lon="11.151492">
<ele>657.988</ele>
<time>2022-05-27T14:25:45Z</time>
</trkpt>
<trkpt lat="47.716072" lon="11.151545">
<ele>658.24</ele>
<time>2022-05-27T14:25:47Z</time>
</trkpt>
<trkpt lat="47.716084" lon="11.1516">
<ele>658.518</ele>
<time>2022-05-27T14:25:48Z</time>
</trkpt>
<trkpt lat="47.716099" lon="11.151649">
<ele>658.645</ele>
<time>2022-05-27T14:25:49Z</time>
</trkpt>
<trkpt lat="47.716114" lon="11.151704">
<ele>658.725</ele>
<time>2022-05-27T14:25:50Z</time>
</trkpt>
<trkpt lat="47.716129" lon="11.151755">
<ele>658.784</ele>
<time>2022-05-27T14:25:51Z</time>
</trkpt>
<trkpt lat="47.716167" lon="11.15187">
<ele>659.049</ele>
<time>2022-05-27T14:25:53Z</time>
</trkpt>
<trkpt lat="47.716175" lon="11.151925">
<ele>659.218</ele>
<time>2022-05-27T14:25:54Z</time>
</trkpt>
<trkpt lat="47.716187" lon="11.151977">
<ele>659.393</ele>
<time>2022-05-27T14:25:55Z</time>
</trkpt>
<trkpt lat="47.716213" lon="11.152093">
<ele>659.637</ele>
<time>2022-05-27T14:25:56Z</time>
</trkpt>
<trkpt lat="47.716228" lon="11.15215">
<ele>659.709</ele>
<time>2022-05-27T14:25:58Z</time>
</trkpt>
<trkpt lat="47.716259" lon="11.152267">
<ele>659.78</ele>
<time>2022-05-27T14:25:59Z</time>
</trkpt>
<trkpt lat="47.71627" lon="11.152327">
<ele>659.78</ele>
<time>2022-05-27T14:26:01Z</time>
</trkpt>
<trkpt lat="47.716286" lon="11.15239">
<ele>659.78</ele>
<time>2022-05-27T14:26:02Z</time>
</trkpt>
<trkpt lat="47.716301" lon="11.152453">
<ele>659.78</ele>
<time>2022-05-27T14:26:03Z</time>
</trkpt>
<trkpt lat="47.716324" lon="11.152578">
<ele>660.205</ele>
<time>2022-05-27T14:26:05Z</time>
</trkpt>
<trkpt lat="47.716358" lon="11.15271">
<ele>660.507</ele>
<time>2022-05-27T14:26:07Z</time>
</trkpt>
<trkpt lat="47.716373" lon="11.152777">
<ele>660.61</ele>
<time>2022-05-27T14:26:08Z</time>
</trkpt>
<trkpt lat="47.716412" lon="11.152913">
<ele>660.728</ele>
<time>2022-05-27T14:26:10Z</time>
</trkpt>
<trkpt lat="47.71645" lon="11.153059">
<ele>660.751</ele>
<time>2022-05-27T14:26:11Z</time>
</trkpt>
<trkpt lat="47.716465" lon="11.153131">
<ele>660.751</ele>
<time>2022-05-27T14:26:12Z</time>
</trkpt>
<trkpt lat="47.716484" lon="11.153204">
<ele>660.751</ele>
<time>2022-05-27T14:26:13Z</time>
</trkpt>
<trkpt lat="47.716496" lon="11.153278">
<ele>660.751</ele>
<time>2022-05-27T14:26:14Z</time>
</trkpt>
<trkpt lat="47.716515" lon="11.153355">
<ele>660.75</ele>
<time>2022-05-27T14:26:15Z</time>
</trkpt>
<trkpt lat="47.71653" lon="11.153432">
<ele>660.751</ele>
<time>2022-05-27T14:26:17Z</time>
</trkpt>
<trkpt lat="47.71656" lon="11.153585">
<ele>660.751</ele>
<time>2022-05-27T14:26:19Z</time>
</trkpt>
<trkpt lat="47.716595" lon="11.153747">
<ele>661.072</ele>
<time>2022-05-27T14:26:21Z</time>
</trkpt>
<trkpt lat="47.716637" lon="11.153908">
<ele>661.519</ele>
<time>2022-05-27T14:26:22Z</time>
</trkpt>
<trkpt lat="47.71666" lon="11.153992">
<ele>661.648</ele>
<time>2022-05-27T14:26:23Z</time>
</trkpt>
<trkpt lat="47.716682" lon="11.154075">
<ele>661.791</ele>
<time>2022-05-27T14:26:24Z</time>
</trkpt>
<trkpt lat="47.716705" lon="11.154153">
<ele>661.891</ele>
<time>2022-05-27T14:26:26Z</time>
</trkpt>
<trkpt lat="47.716751" lon="11.154312">
<ele>661.985</ele>
<time>2022-05-27T14:26:28Z</time>
</trkpt>
<trkpt lat="47.716793" lon="11.154469">
<ele>661.985</ele>
<time>2022-05-27T14:26:29Z</time>
</trkpt>
<trkpt lat="47.71682" lon="11.154547">
<ele>661.985</ele>
<time>2022-05-27T14:26:30Z</time>
</trkpt>
<trkpt lat="47.716839" lon="11.15462">
<ele>661.985</ele>
<time>2022-05-27T14:26:31Z</time>
</trkpt>
<trkpt lat="47.716858" lon="11.154689">
<ele>662.195</ele>
<time>2022-05-27T14:26:32Z</time>
</trkpt>
<trkpt lat="47.716885" lon="11.154757">
<ele>662.349</ele>
<time>2022-05-27T14:26:33Z</time>
</trkpt>
<trkpt lat="47.716904" lon="11.154828">
<ele>662.503</ele>
<time>2022-05-27T14:26:35Z</time>
</trkpt>
<trkpt lat="47.716927" lon="11.154899">
<ele>662.627</ele>
<time>2022-05-27T14:26:36Z</time>
</trkpt>
<trkpt lat="47.716961" lon="11.15503">
<ele>662.799</ele>
<time>2022-05-27T14:26:37Z</time>
</trkpt>
<trkpt lat="47.71698" lon="11.155098">
<ele>662.845</ele>
<time>2022-05-27T14:26:38Z</time>
</trkpt>
<trkpt lat="47.716995" lon="11.155162">
<ele>662.868</ele>
<time>2022-05-27T14:26:39Z</time>
</trkpt>
<trkpt lat="47.71701" lon="11.155224">
<ele>662.868</ele>
<time>2022-05-27T14:26:40Z</time>
</trkpt>
<trkpt lat="47.71703" lon="11.155287">
<ele>662.868</ele>
<time>2022-05-27T14:26:41Z</time>
</trkpt>
<trkpt lat="47.717049" lon="11.155354">
<ele>662.868</ele>
<time>2022-05-27T14:26:43Z</time>
</trkpt>
<trkpt lat="47.717075" lon="11.155418">
<ele>663.081</ele>
<time>2022-05-27T14:26:44Z</time>
</trkpt>
<trkpt lat="47.717113" lon="11.155555">
<ele>663.46</ele>
<time>2022-05-27T14:26:45Z</time>
</trkpt>
<trkpt lat="47.717133" lon="11.155623">
<ele>663.594</ele>
<time>2022-05-27T14:26:46Z</time>
</trkpt>
<trkpt lat="47.717155" lon="11.155693">
<ele>663.7</ele>
<time>2022-05-27T14:26:48Z</time>
</trkpt>
<trkpt lat="47.717213" lon="11.155835">
<ele>663.817</ele>
<time>2022-05-27T14:26:49Z</time>
</trkpt>
<trkpt lat="47.717239" lon="11.155907">
<ele>663.839</ele>
<time>2022-05-27T14:26:50Z</time>
</trkpt>
<trkpt lat="47.717262" lon="11.155978">
<ele>663.839</ele>
<time>2022-05-27T14:26:52Z</time>
</trkpt>
<trkpt lat="47.717289" lon="11.156051">
<ele>663.839</ele>
<time>2022-05-27T14:26:53Z</time>
</trkpt>
<trkpt lat="47.71735" lon="11.156197">
<ele>663.839</ele>
<time>2022-05-27T14:26:55Z</time>
</trkpt>
<trkpt lat="47.717381" lon="11.15627">
<ele>663.839</ele>
<time>2022-05-27T14:26:56Z</time>
</trkpt>
<trkpt lat="47.717461" lon="11.156413">
<ele>663.839</ele>
<time>2022-05-27T14:26:57Z</time>
</trkpt>
<trkpt lat="47.717503" lon="11.156485">
<ele>663.839</ele>
<time>2022-05-27T14:26:59Z</time>
</trkpt>
<trkpt lat="47.717594" lon="11.15663">
<ele>663.283</ele>
<time>2022-05-27T14:27:01Z</time>
</trkpt>
<trkpt lat="47.717701" lon="11.156768">
<ele>662.966</ele>
<time>2022-05-27T14:27:03Z</time>
</trkpt>
<trkpt lat="47.717819" lon="11.156912">
<ele>662.518</ele>
<time>2022-05-27T14:27:04Z</time>
</trkpt>
<trkpt lat="47.717876" lon="11.156987">
<ele>661.893</ele>
<time>2022-05-27T14:27:06Z</time>
</trkpt>
<trkpt lat="47.718002" lon="11.157143">
<ele>661.049</ele>
<time>2022-05-27T14:27:07Z</time>
</trkpt>
<trkpt lat="47.718063" lon="11.157228">
<ele>660.767</ele>
<time>2022-05-27T14:27:08Z</time>
</trkpt>
<trkpt lat="47.718124" lon="11.157314">
<ele>660.596</ele>
<time>2022-05-27T14:27:10Z</time>
</trkpt>
<trkpt lat="47.718189" lon="11.157403">
<ele>660.188</ele>
<time>2022-05-27T14:27:11Z</time>
</trkpt>
<trkpt lat="47.718311" lon="11.157583">
<ele>659.701</ele>
<time>2022-05-27T14:27:13Z</time>
</trkpt>
<trkpt lat="47.718422" lon="11.157771">
<ele>659.211</ele>
<time>2022-05-27T14:27:15Z</time>
</trkpt>
<trkpt lat="47.718483" lon="11.157859">
<ele>658.9</ele>
<time>2022-05-27T14:27:16Z</time>
</trkpt>
<trkpt lat="47.718586" lon="11.158023">
<ele>658.274</ele>
<time>2022-05-27T14:27:18Z</time>
</trkpt>
<trkpt lat="47.718708" lon="11.158167">
<ele>657.488</ele>
<time>2022-05-27T14:27:19Z</time>
</trkpt>
<trkpt lat="47.718769" lon="11.158235">
<ele>657.316</ele>
<time>2022-05-27T14:27:20Z</time>
</trkpt>
<trkpt lat="47.71883" lon="11.158297">
<ele>657.206</ele>
<time>2022-05-27T14:27:21Z</time>
</trkpt>
<trkpt lat="47.71888" lon="11.15836">
<ele>657.153</ele>
<time>2022-05-27T14:27:23Z</time>
</trkpt>
<trkpt lat="47.718929" lon="11.158426">
<ele>657.127</ele>
<time>2022-05-27T14:27:24Z</time>
</trkpt>
<trkpt lat="47.719017" lon="11.158559">
<ele>657.138</ele>
<time>2022-05-27T14:27:26Z</time>
</trkpt>
<trkpt lat="47.719082" lon="11.158683">
<ele>657.195</ele>
<time>2022-05-27T14:27:27Z</time>
</trkpt>
<trkpt lat="47.719105" lon="11.158739">
<ele>657.222</ele>
<time>2022-05-27T14:27:28Z</time>
</trkpt>
<trkpt lat="47.719124" lon="11.158789">
<ele>657.222</ele>
<time>2022-05-27T14:27:30Z</time>
</trkpt>
<trkpt lat="47.719147" lon="11.158872">
<ele>657.222</ele>
<time>2022-05-27T14:27:31Z</time>
</trkpt>
<trkpt lat="47.719154" lon="11.158907">
<ele>657.222</ele>
<time>2022-05-27T14:27:32Z</time>
</trkpt>
<trkpt lat="47.719162" lon="11.158936">
<ele>657.222</ele>
<time>2022-05-27T14:27:33Z</time>
</trkpt>
<trkpt lat="47.71917" lon="11.15896">
<ele>657.222</ele>
<time>2022-05-27T14:27:35Z</time>
</trkpt>
<trkpt lat="47.71917" lon="11.158978">
<ele>657.222</ele>
<time>2022-05-27T14:27:36Z</time>
</trkpt>
<trkpt lat="47.719173" lon="11.158992">
<ele>657.222</ele>
<time>2022-05-27T14:27:37Z</time>
</trkpt>
<trkpt lat="47.719177" lon="11.159007">
<ele>657.222</ele>
<time>2022-05-27T14:27:38Z</time>
</trkpt>
<trkpt lat="47.719177" lon="11.159016">
<ele>657.222</ele>
<time>2022-05-27T14:27:40Z</time>
</trkpt>
<trkpt lat="47.719193" lon="11.159023">
<ele>657.222</ele>
<time>2022-05-27T14:27:42Z</time>
</trkpt>
<trkpt lat="47.719215" lon="11.159007">
<ele>657.222</ele>
<time>2022-05-27T14:27:43Z</time>
</trkpt>
<trkpt lat="47.719234" lon="11.158997">
<ele>657.222</ele>
<time>2022-05-27T14:27:44Z</time>
</trkpt>
<trkpt lat="47.719261" lon="11.158978">
<ele>657.222</ele>
<time>2022-05-27T14:27:45Z</time>
</trkpt>
<trkpt lat="47.719296" lon="11.158952">
<ele>657.222</ele>
<time>2022-05-27T14:27:46Z</time>
</trkpt>
<trkpt lat="47.719334" lon="11.158916">
<ele>657.222</ele>
<time>2022-05-27T14:27:47Z</time>
</trkpt>
<trkpt lat="47.719383" lon="11.158875">
<ele>657.222</ele>
<time>2022-05-27T14:27:49Z</time>
</trkpt>
<trkpt lat="47.719486" lon="11.158785">
<ele>657.222</ele>
<time>2022-05-27T14:27:51Z</time>
</trkpt>
<trkpt lat="47.719604" lon="11.158702">
<ele>656.907</ele>
<time>2022-05-27T14:27:52Z</time>
</trkpt>
<trkpt lat="47.719658" lon="11.158664">
<ele>656.73</ele>
<time>2022-05-27T14:27:53Z</time>
</trkpt>
<trkpt lat="47.719715" lon="11.158627">
<ele>656.57</ele>
<time>2022-05-27T14:27:55Z</time>
</trkpt>
<trkpt lat="47.719822" lon="11.158566">
<ele>655.925</ele>
<time>2022-05-27T14:27:57Z</time>
</trkpt>
<trkpt lat="47.719875" lon="11.158535">
<ele>655.702</ele>
<time>2022-05-27T14:27:58Z</time>
</trkpt>
<trkpt lat="47.719971" lon="11.158477">
<ele>655.418</ele>
<time>2022-05-27T14:27:59Z</time>
</trkpt>
<trkpt lat="47.720016" lon="11.158446">
<ele>655.306</ele>
<time>2022-05-27T14:28:00Z</time>
</trkpt>
<trkpt lat="47.720066" lon="11.158415">
<ele>655.281</ele>
<time>2022-05-27T14:28:01Z</time>
</trkpt>
<trkpt lat="47.720112" lon="11.158387">
<ele>655.281</ele>
<time>2022-05-27T14:28:03Z</time>
</trkpt>
<trkpt lat="47.720211" lon="11.15833">
<ele>655.281</ele>
<time>2022-05-27T14:28:05Z</time>
</trkpt>
<trkpt lat="47.720257" lon="11.158301">
<ele>655.281</ele>
<time>2022-05-27T14:28:06Z</time>
</trkpt>
<trkpt lat="47.720303" lon="11.15827">
<ele>655.281</ele>
<time>2022-05-27T14:28:07Z</time>
</trkpt>
<trkpt lat="47.720398" lon="11.158207">
<ele>655.281</ele>
<time>2022-05-27T14:28:08Z</time>
</trkpt>
<trkpt lat="47.72044" lon="11.158174">
<ele>655.281</ele>
<time>2022-05-27T14:28:09Z</time>
</trkpt>
<trkpt lat="47.720486" lon="11.158136">
<ele>655.281</ele>
<time>2022-05-27T14:28:11Z</time>
</trkpt>
<trkpt lat="47.720528" lon="11.158104">
<ele>655.281</ele>
<time>2022-05-27T14:28:12Z</time>
</trkpt>
<trkpt lat="47.72057" lon="11.158077">
<ele>655.281</ele>
<time>2022-05-27T14:28:13Z</time>
</trkpt>
<trkpt lat="47.72065" lon="11.158039">
<ele>655.281</ele>
<time>2022-05-27T14:28:14Z</time>
</trkpt>
<trkpt lat="47.720692" lon="11.15802">
<ele>655.281</ele>
<time>2022-05-27T14:28:15Z</time>
</trkpt>
<trkpt lat="47.720737" lon="11.158">
<ele>655.281</ele>
<time>2022-05-27T14:28:16Z</time>
</trkpt>
<trkpt lat="47.720787" lon="11.157974">
<ele>655.281</ele>
<time>2022-05-27T14:28:18Z</time>
</trkpt>
<trkpt lat="47.72089" lon="11.157922">
<ele>655.281</ele>
<time>2022-05-27T14:28:19Z</time>
</trkpt>
<trkpt lat="47.720936" lon="11.157897">
<ele>655.281</ele>
<time>2022-05-27T14:28:20Z</time>
</trkpt>
<trkpt lat="47.720989" lon="11.157873">
<ele>655.281</ele>
<time>2022-05-27T14:28:21Z</time>
</trkpt>
<trkpt lat="47.721035" lon="11.157846">
<ele>655.281</ele>
<time>2022-05-27T14:28:23Z</time>
</trkpt>
<trkpt lat="47.721138" lon="11.15779">
<ele>655.281</ele>
<time>2022-05-27T14:28:25Z</time>
</trkpt>
<trkpt lat="47.721188" lon="11.157761">
<ele>655.281</ele>
<time>2022-05-27T14:28:26Z</time>
</trkpt>
<trkpt lat="47.721283" lon="11.157703">
<ele>655.281</ele>
<time>2022-05-27T14:28:28Z</time>
</trkpt>
<trkpt lat="47.721329" lon="11.157673">
<ele>655.281</ele>
<time>2022-05-27T14:28:29Z</time>
</trkpt>
<trkpt lat="47.72142" lon="11.157614">
<ele>655.281</ele>
<time>2022-05-27T14:28:30Z</time>
</trkpt>
<trkpt lat="47.72147" lon="11.157572">
<ele>655.281</ele>
<time>2022-05-27T14:28:32Z</time>
</trkpt>
<trkpt lat="47.721569" lon="11.157507">
<ele>655.065</ele>
<time>2022-05-27T14:28:33Z</time>
</trkpt>
<trkpt lat="47.721619" lon="11.157475">
<ele>654.859</ele>
<time>2022-05-27T14:28:34Z</time>
</trkpt>
<trkpt lat="47.721672" lon="11.157447">
<ele>654.689</ele>
<time>2022-05-27T14:28:35Z</time>
</trkpt>
<trkpt lat="47.721718" lon="11.157411">
<ele>654.556</ele>
<time>2022-05-27T14:28:37Z</time>
</trkpt>
<trkpt lat="47.721821" lon="11.157351">
<ele>654.149</ele>
<time>2022-05-27T14:28:38Z</time>
</trkpt>
<trkpt lat="47.721874" lon="11.157314">
<ele>653.902</ele>
<time>2022-05-27T14:28:39Z</time>
</trkpt>
<trkpt lat="47.721924" lon="11.157278">
<ele>653.712</ele>
<time>2022-05-27T14:28:40Z</time>
</trkpt>
<trkpt lat="47.721973" lon="11.15724">
<ele>653.564</ele>
<time>2022-05-27T14:28:41Z</time>
</trkpt>
<trkpt lat="47.722023" lon="11.157209">
<ele>653.483</ele>
<time>2022-05-27T14:28:43Z</time>
</trkpt>
<trkpt lat="47.722118" lon="11.157153">
<ele>653.368</ele>
<time>2022-05-27T14:28:45Z</time>
</trkpt>
<trkpt lat="47.722214" lon="11.157101">
<ele>652.835</ele>
<time>2022-05-27T14:28:46Z</time>
</trkpt>
<trkpt lat="47.722256" lon="11.157069">
<ele>652.667</ele>
<time>2022-05-27T14:28:47Z</time>
</trkpt>
<trkpt lat="47.722301" lon="11.157052">
<ele>652.543</ele>
<time>2022-05-27T14:28:49Z</time>
</trkpt>
<trkpt lat="47.722401" lon="11.157067">
<ele>652.398</ele>
<time>2022-05-27T14:28:50Z</time>
</trkpt>
<trkpt lat="47.722446" lon="11.157104">
<ele>652.372</ele>
<time>2022-05-27T14:28:52Z</time>
</trkpt>
<trkpt lat="47.722481" lon="11.157168">
<ele>652.372</ele>
<time>2022-05-27T14:28:53Z</time>
</trkpt>
<trkpt lat="47.722504" lon="11.157249">
<ele>652.174</ele>
<time>2022-05-27T14:28:54Z</time>
</trkpt>
<trkpt lat="47.722523" lon="11.157338">
<ele>651.981</ele>
<time>2022-05-27T14:28:55Z</time>
</trkpt>
<trkpt lat="47.722561" lon="11.157507">
<ele>651.468</ele>
<time>2022-05-27T14:28:57Z</time>
</trkpt>
<trkpt lat="47.722599" lon="11.157637">
<ele>650.947</ele>
<time>2022-05-27T14:28:58Z</time>
</trkpt>
<trkpt lat="47.72261" lon="11.157681">
<ele>650.781</ele>
<time>2022-05-27T14:28:59Z</time>
</trkpt>
<trkpt lat="47.722637" lon="11.157717">
<ele>650.668</ele>
<time>2022-05-27T14:29:00Z</time>
</trkpt>
<trkpt lat="47.722679" lon="11.157729">
<ele>650.773</ele>
<time>2022-05-27T14:29:02Z</time>
</trkpt>
<trkpt lat="47.722775" lon="11.157688">
<ele>650.915</ele>
<time>2022-05-27T14:29:03Z</time>
</trkpt>
<trkpt lat="47.722816" lon="11.157652">
<ele>651.08</ele>
<time>2022-05-27T14:29:04Z</time>
</trkpt>
<trkpt lat="47.722858" lon="11.157617">
<ele>651.218</ele>
<time>2022-05-27T14:29:06Z</time>
</trkpt>
<trkpt lat="47.722893" lon="11.157582">
<ele>651.57</ele>
<time>2022-05-27T14:29:07Z</time>
</trkpt>
<trkpt lat="47.722969" lon="11.15752">
<ele>652.26</ele>
<time>2022-05-27T14:29:09Z</time>
</trkpt>
<trkpt lat="47.723003" lon="11.157486">
<ele>652.604</ele>
<time>2022-05-27T14:29:10Z</time>
</trkpt>
<trkpt lat="47.723076" lon="11.157412">
<ele>653.091</ele>
<time>2022-05-27T14:29:11Z</time>
</trkpt>
<trkpt lat="47.723114" lon="11.15738">
<ele>653.472</ele>
<time>2022-05-27T14:29:13Z</time>
</trkpt>
<trkpt lat="47.723186" lon="11.157322">
<ele>654.03</ele>
<time>2022-05-27T14:29:15Z</time>
</trkpt>
<trkpt lat="47.72327" lon="11.15726">
<ele>654.584</ele>
<time>2022-05-27T14:29:17Z</time>
</trkpt>
<trkpt lat="47.723362" lon="11.157197">
<ele>655.119</ele>
<time>2022-05-27T14:29:18Z</time>
</trkpt>
<trkpt lat="47.723404" lon="11.157164">
<ele>655.291</ele>
<time>2022-05-27T14:29:19Z</time>
</trkpt>
<trkpt lat="47.723446" lon="11.157132">
<ele>655.444</ele>
<time>2022-05-27T14:29:20Z</time>
</trkpt>
<trkpt lat="47.723495" lon="11.157104">
<ele>655.498</ele>
<time>2022-05-27T14:29:21Z</time>
</trkpt>
<trkpt lat="47.723541" lon="11.157078">
<ele>655.524</ele>
<time>2022-05-27T14:29:22Z</time>
</trkpt>
<trkpt lat="47.723591" lon="11.157048">
<ele>655.546</ele>
<time>2022-05-27T14:29:23Z</time>
</trkpt>
<trkpt lat="47.72364" lon="11.157017">
<ele>655.546</ele>
<time>2022-05-27T14:29:24Z</time>
</trkpt>
<trkpt lat="47.72369" lon="11.156985">
<ele>655.546</ele>
<time>2022-05-27T14:29:26Z</time>
</trkpt>
<trkpt lat="47.723789" lon="11.156923">
<ele>655.546</ele>
<time>2022-05-27T14:29:28Z</time>
</trkpt>
<trkpt lat="47.723839" lon="11.156892">
<ele>655.252</ele>
<time>2022-05-27T14:29:29Z</time>
</trkpt>
<trkpt lat="47.723934" lon="11.156835">
<ele>654.857</ele>
<time>2022-05-27T14:29:30Z</time>
</trkpt>
<trkpt lat="47.723984" lon="11.156808">
<ele>654.732</ele>
<time>2022-05-27T14:29:32Z</time>
</trkpt>
<trkpt lat="47.724072" lon="11.156754">
<ele>654.576</ele>
<time>2022-05-27T14:29:33Z</time>
</trkpt>
<trkpt lat="47.724125" lon="11.156728">
<ele>654.517</ele>
<time>2022-05-27T14:29:35Z</time>
</trkpt>
<trkpt lat="47.724224" lon="11.156677">
<ele>654.488</ele>
<time>2022-05-27T14:29:37Z</time>
</trkpt>
<trkpt lat="47.724319" lon="11.156625">
<ele>654.488</ele>
<time>2022-05-27T14:29:38Z</time>
</trkpt>
<trkpt lat="47.724365" lon="11.156598">
<ele>654.488</ele>
<time>2022-05-27T14:29:39Z</time>
</trkpt>
<trkpt lat="47.724415" lon="11.156569">
<ele>654.488</ele>
<time>2022-05-27T14:29:40Z</time>
</trkpt>
<trkpt lat="47.724464" lon="11.156539">
<ele>654.488</ele>
<time>2022-05-27T14:29:42Z</time>
</trkpt>
<trkpt lat="47.724514" lon="11.156507">
<ele>654.488</ele>
<time>2022-05-27T14:29:43Z</time>
</trkpt>
<trkpt lat="47.724606" lon="11.156449">
<ele>654.488</ele>
<time>2022-05-27T14:29:44Z</time>
</trkpt>
<trkpt lat="47.724651" lon="11.156424">
<ele>654.488</ele>
<time>2022-05-27T14:29:45Z</time>
</trkpt>
<trkpt lat="47.724705" lon="11.156401">
<ele>654.488</ele>
<time>2022-05-27T14:29:46Z</time>
</trkpt>
<trkpt lat="47.724754" lon="11.156378">
<ele>654.488</ele>
<time>2022-05-27T14:29:48Z</time>
</trkpt>
<trkpt lat="47.72485" lon="11.156328">
<ele>654.488</ele>
<time>2022-05-27T14:29:50Z</time>
</trkpt>
<trkpt lat="47.724945" lon="11.156279">
<ele>654.488</ele>
<time>2022-05-27T14:29:51Z</time>
</trkpt>
<trkpt lat="47.724995" lon="11.156252">
<ele>654.488</ele>
<time>2022-05-27T14:29:52Z</time>
</trkpt>
<trkpt lat="47.72504" lon="11.156223">
<ele>654.488</ele>
<time>2022-05-27T14:29:54Z</time>
</trkpt>
<trkpt lat="47.72514" lon="11.156166">
<ele>654.488</ele>
<time>2022-05-27T14:29:55Z</time>
</trkpt>
<trkpt lat="47.725193" lon="11.156138">
<ele>654.488</ele>
<time>2022-05-27T14:29:57Z</time>
</trkpt>
<trkpt lat="47.725243" lon="11.156112">
<ele>654.488</ele>
<time>2022-05-27T14:29:58Z</time>
</trkpt>
<trkpt lat="47.725334" lon="11.156052">
<ele>654.488</ele>
<time>2022-05-27T14:30:00Z</time>
</trkpt>
<trkpt lat="47.72538" lon="11.15602">
<ele>654.488</ele>
<time>2022-05-27T14:30:01Z</time>
</trkpt>
<trkpt lat="47.72543" lon="11.15599">
<ele>654.25</ele>
<time>2022-05-27T14:30:02Z</time>
</trkpt>
<trkpt lat="47.725475" lon="11.155956">
<ele>654.058</ele>
<time>2022-05-27T14:30:03Z</time>
</trkpt>
<trkpt lat="47.725525" lon="11.155923">
<ele>653.926</ele>
<time>2022-05-27T14:30:04Z</time>
</trkpt>
<trkpt lat="47.725628" lon="11.15587">
<ele>653.672</ele>
<time>2022-05-27T14:30:05Z</time>
</trkpt>
<trkpt lat="47.725689" lon="11.155847">
<ele>653.598</ele>
<time>2022-05-27T14:30:06Z</time>
</trkpt>
<trkpt lat="47.725754" lon="11.155837">
<ele>653.296</ele>
<time>2022-05-27T14:30:07Z</time>
</trkpt>
<trkpt lat="47.725819" lon="11.155849">
<ele>653.102</ele>
<time>2022-05-27T14:30:08Z</time>
</trkpt>
<trkpt lat="47.725883" lon="11.155875">
<ele>652.53</ele>
<time>2022-05-27T14:30:10Z</time>
</trkpt>
<trkpt lat="47.726013" lon="11.155944">
<ele>651.861</ele>
<time>2022-05-27T14:30:11Z</time>
</trkpt>
<trkpt lat="47.726074" lon="11.155977">
<ele>651.664</ele>
<time>2022-05-27T14:30:13Z</time>
</trkpt>
<trkpt lat="47.726177" lon="11.156032">
<ele>651.41</ele>
<time>2022-05-27T14:30:14Z</time>
</trkpt>
<trkpt lat="47.726231" lon="11.156055">
<ele>651.346</ele>
<time>2022-05-27T14:30:16Z</time>
</trkpt>
<trkpt lat="47.72628" lon="11.156072">
<ele>651.528</ele>
<time>2022-05-27T14:30:17Z</time>
</trkpt>
<trkpt lat="47.726379" lon="11.156099">
<ele>651.776</ele>
<time>2022-05-27T14:30:18Z</time>
</trkpt>
<trkpt lat="47.726429" lon="11.156114">
<ele>651.939</ele>
<time>2022-05-27T14:30:20Z</time>
</trkpt>
<trkpt lat="47.726475" lon="11.156125">
<ele>652.063</ele>
<time>2022-05-27T14:30:21Z</time>
</trkpt>
<trkpt lat="47.72657" lon="11.156145">
<ele>652.21</ele>
<time>2022-05-27T14:30:23Z</time>
</trkpt>
<trkpt lat="47.726665" lon="11.156166">
<ele>652.284</ele>
<time>2022-05-27T14:30:24Z</time>
</trkpt>
<trkpt lat="47.726704" lon="11.156177">
<ele>652.284</ele>
<time>2022-05-27T14:30:26Z</time>
</trkpt>
<trkpt lat="47.726791" lon="11.156192">
<ele>652.817</ele>
<time>2022-05-27T14:30:28Z</time>
</trkpt>
<trkpt lat="47.72683" lon="11.156199">
<ele>652.996</ele>
<time>2022-05-27T14:30:29Z</time>
</trkpt>
<trkpt lat="47.726868" lon="11.156208">
<ele>653.128</ele>
<time>2022-05-27T14:30:30Z</time>
</trkpt>
<trkpt lat="47.726933" lon="11.156225">
<ele>653.5</ele>
<time>2022-05-27T14:30:31Z</time>
</trkpt>
<trkpt lat="47.726967" lon="11.156233">
<ele>653.724</ele>
<time>2022-05-27T14:30:32Z</time>
</trkpt>
<trkpt lat="47.726997" lon="11.156243">
<ele>653.888</ele>
<time>2022-05-27T14:30:33Z</time>
</trkpt>
<trkpt lat="47.727028" lon="11.156254">
<ele>654.029</ele>
<time>2022-05-27T14:30:35Z</time>
</trkpt>
<trkpt lat="47.727093" lon="11.156279">
<ele>654.223</ele>
<time>2022-05-27T14:30:37Z</time>
</trkpt>
<trkpt lat="47.727158" lon="11.156306">
<ele>654.716</ele>
<time>2022-05-27T14:30:39Z</time>
</trkpt>
<trkpt lat="47.727222" lon="11.156355">
<ele>655.486</ele>
<time>2022-05-27T14:30:40Z</time>
</trkpt>
<trkpt lat="47.727253" lon="11.156382">
<ele>655.677</ele>
<time>2022-05-27T14:30:42Z</time>
</trkpt>
<trkpt lat="47.727318" lon="11.156432">
<ele>656.397</ele>
<time>2022-05-27T14:30:43Z</time>
</trkpt>
<trkpt lat="47.727356" lon="11.156458">
<ele>656.671</ele>
<time>2022-05-27T14:30:45Z</time>
</trkpt>
<trkpt lat="47.727398" lon="11.156491">
<ele>656.863</ele>
<time>2022-05-27T14:30:46Z</time>
</trkpt>
<trkpt lat="47.727474" lon="11.156558">
<ele>657.064</ele>
<time>2022-05-27T14:30:47Z</time>
</trkpt>
<trkpt lat="47.727516" lon="11.156596">
<ele>657.111</ele>
<time>2022-05-27T14:30:49Z</time>
</trkpt>
<trkpt lat="47.727608" lon="11.156694">
<ele>657.134</ele>
<time>2022-05-27T14:30:50Z</time>
</trkpt>
<trkpt lat="47.727661" lon="11.156734">
<ele>657.134</ele>
<time>2022-05-27T14:30:51Z</time>
</trkpt>
<trkpt lat="47.727715" lon="11.156755">
<ele>657.134</ele>
<time>2022-05-27T14:30:53Z</time>
</trkpt>
<trkpt lat="47.727837" lon="11.156749">
<ele>657.134</ele>
<time>2022-05-27T14:30:54Z</time>
</trkpt>
<trkpt lat="47.72789" lon="11.156736">
<ele>657.134</ele>
<time>2022-05-27T14:30:55Z</time>
</trkpt>
<trkpt lat="47.727943" lon="11.15672">
<ele>657.133</ele>
<time>2022-05-27T14:30:56Z</time>
</trkpt>
<trkpt lat="47.727993" lon="11.156709">
<ele>657.133</ele>
<time>2022-05-27T14:30:57Z</time>
</trkpt>
<trkpt lat="47.728043" lon="11.156705">
<ele>657.134</ele>
<time>2022-05-27T14:30:58Z</time>
</trkpt>
<trkpt lat="47.7281" lon="11.156711">
<ele>657.134</ele>
<time>2022-05-27T14:30:59Z</time>
</trkpt>
<trkpt lat="47.728149" lon="11.156721">
<ele>657.134</ele>
<time>2022-05-27T14:31:00Z</time>
</trkpt>
<trkpt lat="47.728199" lon="11.156734">
<ele>656.899</ele>
<time>2022-05-27T14:31:01Z</time>
</trkpt>
<trkpt lat="47.728249" lon="11.156749">
<ele>656.707</ele>
<time>2022-05-27T14:31:02Z</time>
</trkpt>
<trkpt lat="47.728298" lon="11.156758">
<ele>656.572</ele>
<time>2022-05-27T14:31:04Z</time>
</trkpt>
<trkpt lat="47.72839" lon="11.156784">
<ele>656.363</ele>
<time>2022-05-27T14:31:06Z</time>
</trkpt>
<trkpt lat="47.728485" lon="11.156801">
<ele>656.729</ele>
<time>2022-05-27T14:31:08Z</time>
</trkpt>
<trkpt lat="47.728527" lon="11.156803">
<ele>656.883</ele>
<time>2022-05-27T14:31:09Z</time>
</trkpt>
<trkpt lat="47.728577" lon="11.156801">
<ele>657.011</ele>
<time>2022-05-27T14:31:10Z</time>
</trkpt>
<trkpt lat="47.728619" lon="11.156795">
<ele>657.104</ele>
<time>2022-05-27T14:31:11Z</time>
</trkpt>
<trkpt lat="47.728657" lon="11.15678">
<ele>657.165</ele>
<time>2022-05-27T14:31:12Z</time>
</trkpt>
<trkpt lat="47.728703" lon="11.156765">
<ele>657.197</ele>
<time>2022-05-27T14:31:13Z</time>
</trkpt>
<trkpt lat="47.728794" lon="11.156738">
<ele>657.222</ele>
<time>2022-05-27T14:31:14Z</time>
</trkpt>
<trkpt lat="47.728836" lon="11.156727">
<ele>657.51</ele>
<time>2022-05-27T14:31:15Z</time>
</trkpt>
<trkpt lat="47.728882" lon="11.156715">
<ele>657.737</ele>
<time>2022-05-27T14:31:16Z</time>
</trkpt>
<trkpt lat="47.728924" lon="11.156703">
<ele>657.91</ele>
<time>2022-05-27T14:31:17Z</time>
</trkpt>
<trkpt lat="47.728966" lon="11.15669">
<ele>658.034</ele>
<time>2022-05-27T14:31:18Z</time>
</trkpt>
<trkpt lat="47.729004" lon="11.156678">
<ele>658.107</ele>
<time>2022-05-27T14:31:19Z</time>
</trkpt>
<trkpt lat="47.729046" lon="11.156669">
<ele>658.389</ele>
<time>2022-05-27T14:31:21Z</time>
</trkpt>
<trkpt lat="47.729134" lon="11.156647">
<ele>658.944</ele>
<time>2022-05-27T14:31:23Z</time>
</trkpt>
<trkpt lat="47.729218" lon="11.15663">
<ele>659.502</ele>
<time>2022-05-27T14:31:24Z</time>
</trkpt>
<trkpt lat="47.729259" lon="11.156623">
<ele>659.702</ele>
<time>2022-05-27T14:31:25Z</time>
</trkpt>
<trkpt lat="47.729301" lon="11.156615">
<ele>660.104</ele>
<time>2022-05-27T14:31:26Z</time>
</trkpt>
<trkpt lat="47.729343" lon="11.156609">
<ele>660.403</ele>
<time>2022-05-27T14:31:28Z</time>
</trkpt>
<trkpt lat="47.729382" lon="11.156602">
<ele>660.613</ele>
<time>2022-05-27T14:31:29Z</time>
</trkpt>
<trkpt lat="47.729462" lon="11.15659">
<ele>661.14</ele>
<time>2022-05-27T14:31:31Z</time>
</trkpt>
<trkpt lat="47.729527" lon="11.156567">
<ele>661.576</ele>
<time>2022-05-27T14:31:32Z</time>
</trkpt>
<trkpt lat="47.729561" lon="11.156548">
<ele>661.708</ele>
<time>2022-05-27T14:31:33Z</time>
</trkpt>
<trkpt lat="47.729595" lon="11.156525">
<ele>661.815</ele>
<time>2022-05-27T14:31:34Z</time>
</trkpt>
<trkpt lat="47.72963" lon="11.156502">
<ele>662.111</ele>
<time>2022-05-27T14:31:35Z</time>
</trkpt>
<trkpt lat="47.729668" lon="11.156478">
<ele>662.349</ele>
<time>2022-05-27T14:31:36Z</time>
</trkpt>
<trkpt lat="47.729698" lon="11.156455">
<ele>662.528</ele>
<time>2022-05-27T14:31:37Z</time>
</trkpt>
<trkpt lat="47.729744" lon="11.156433">
<ele>662.724</ele>
<time>2022-05-27T14:31:38Z</time>
</trkpt>
<trkpt lat="47.729786" lon="11.156413">
<ele>662.805</ele>
<time>2022-05-27T14:31:40Z</time>
</trkpt>
<trkpt lat="47.729828" lon="11.156395">
<ele>662.849</ele>
<time>2022-05-27T14:31:41Z</time>
</trkpt>
<trkpt lat="47.729919" lon="11.156355">
<ele>662.868</ele>
<time>2022-05-27T14:31:42Z</time>
</trkpt>
<trkpt lat="47.729965" lon="11.156336">
<ele>662.868</ele>
<time>2022-05-27T14:31:43Z</time>
</trkpt>
<trkpt lat="47.730015" lon="11.156315">
<ele>662.868</ele>
<time>2022-05-27T14:31:44Z</time>
</trkpt>
<trkpt lat="47.730057" lon="11.156295">
<ele>662.868</ele>
<time>2022-05-27T14:31:45Z</time>
</trkpt>
<trkpt lat="47.730106" lon="11.156275">
<ele>662.868</ele>
<time>2022-05-27T14:31:46Z</time>
</trkpt>
<trkpt lat="47.730156" lon="11.156248">
<ele>662.868</ele>
<time>2022-05-27T14:31:47Z</time>
</trkpt>
<trkpt lat="47.730206" lon="11.156221">
<ele>662.868</ele>
<time>2022-05-27T14:31:48Z</time>
</trkpt>
<trkpt lat="47.730255" lon="11.156192">
<ele>662.868</ele>
<time>2022-05-27T14:31:50Z</time>
</trkpt>
<trkpt lat="47.730312" lon="11.156164">
<ele>662.868</ele>
<time>2022-05-27T14:31:51Z</time>
</trkpt>
<trkpt lat="47.730362" lon="11.156137">
<ele>662.868</ele>
<time>2022-05-27T14:31:52Z</time>
</trkpt>
<trkpt lat="47.730461" lon="11.156083">
<ele>662.868</ele>
<time>2022-05-27T14:31:53Z</time>
</trkpt>
<trkpt lat="47.730511" lon="11.156057">
<ele>662.868</ele>
<time>2022-05-27T14:31:54Z</time>
</trkpt>
<trkpt lat="47.730556" lon="11.156026">
<ele>662.868</ele>
<time>2022-05-27T14:31:55Z</time>
</trkpt>
<trkpt lat="47.730606" lon="11.155998">
<ele>662.868</ele>
<time>2022-05-27T14:31:56Z</time>
</trkpt>
<trkpt lat="47.730652" lon="11.15597">
<ele>662.868</ele>
<time>2022-05-27T14:31:58Z</time>
</trkpt>
<trkpt lat="47.730701" lon="11.155942">
<ele>662.868</ele>
<time>2022-05-27T14:31:59Z</time>
</trkpt>
<trkpt lat="47.730793" lon="11.155893">
<ele>662.868</ele>
<time>2022-05-27T14:32:01Z</time>
</trkpt>
<trkpt lat="47.730881" lon="11.15586">
<ele>662.658</ele>
<time>2022-05-27T14:32:02Z</time>
</trkpt>
<trkpt lat="47.730927" lon="11.155851">
<ele>662.506</ele>
<time>2022-05-27T14:32:03Z</time>
</trkpt>
<trkpt lat="47.730968" lon="11.155847">
<ele>662.352</ele>
<time>2022-05-27T14:32:04Z</time>
</trkpt>
<trkpt lat="47.731014" lon="11.155844">
<ele>662.226</ele>
<time>2022-05-27T14:32:06Z</time>
</trkpt>
<trkpt lat="47.731106" lon="11.155838">
<ele>662.054</ele>
<time>2022-05-27T14:32:07Z</time>
</trkpt>
<trkpt lat="47.731159" lon="11.155837">
<ele>662.008</ele>
<time>2022-05-27T14:32:08Z</time>
</trkpt>
<trkpt lat="47.731205" lon="11.155833">
<ele>661.985</ele>
<time>2022-05-27T14:32:09Z</time>
</trkpt>
<trkpt lat="47.731258" lon="11.155831">
<ele>661.985</ele>
<time>2022-05-27T14:32:10Z</time>
</trkpt>
<trkpt lat="47.7313" lon="11.155838">
<ele>661.985</ele>
<time>2022-05-27T14:32:11Z</time>
</trkpt>
<trkpt lat="47.731346" lon="11.155854">
<ele>661.985</ele>
<time>2022-05-27T14:32:13Z</time>
</trkpt>
<trkpt lat="47.731388" lon="11.155879">
<ele>661.985</ele>
<time>2022-05-27T14:32:14Z</time>
</trkpt>
<trkpt lat="47.731461" lon="11.155931">
<ele>662.371</ele>
<time>2022-05-27T14:32:16Z</time>
</trkpt>
<trkpt lat="47.731537" lon="11.155987">
<ele>662.614</ele>
<time>2022-05-27T14:32:18Z</time>
</trkpt>
<trkpt lat="47.731575" lon="11.156013">
<ele>662.944</ele>
<time>2022-05-27T14:32:19Z</time>
</trkpt>
<trkpt lat="47.73164" lon="11.156063">
<ele>663.433</ele>
<time>2022-05-27T14:32:20Z</time>
</trkpt>
<trkpt lat="47.731678" lon="11.156089">
<ele>663.561</ele>
<time>2022-05-27T14:32:21Z</time>
</trkpt>
<trkpt lat="47.73172" lon="11.156114">
<ele>663.912</ele>
<time>2022-05-27T14:32:23Z</time>
</trkpt>
<trkpt lat="47.73177" lon="11.156132">
<ele>664.158</ele>
<time>2022-05-27T14:32:24Z</time>
</trkpt>
<trkpt lat="47.731819" lon="11.15614">
<ele>664.394</ele>
<time>2022-05-27T14:32:25Z</time>
</trkpt>
<trkpt lat="47.731934" lon="11.156137">
<ele>664.675</ele>
<time>2022-05-27T14:32:26Z</time>
</trkpt>
<trkpt lat="47.731987" lon="11.156125">
<ele>664.748</ele>
<time>2022-05-27T14:32:27Z</time>
</trkpt>
<trkpt lat="47.73204" lon="11.156108">
<ele>664.789</ele>
<time>2022-05-27T14:32:28Z</time>
</trkpt>
<trkpt lat="47.732086" lon="11.156091">
<ele>665.054</ele>
<time>2022-05-27T14:32:29Z</time>
</trkpt>
<trkpt lat="47.73214" lon="11.156067">
<ele>665.271</ele>
<time>2022-05-27T14:32:30Z</time>
</trkpt>
<trkpt lat="47.732185" lon="11.156047">
<ele>665.421</ele>
<time>2022-05-27T14:32:31Z</time>
</trkpt>
<trkpt lat="47.732235" lon="11.156028">
<ele>665.532</ele>
<time>2022-05-27T14:32:32Z</time>
</trkpt>
<trkpt lat="47.732277" lon="11.15601">
<ele>665.611</ele>
<time>2022-05-27T14:32:33Z</time>
</trkpt>
<trkpt lat="47.73233" lon="11.155992">
<ele>665.698</ele>
<time>2022-05-27T14:32:34Z</time>
</trkpt>
<trkpt lat="47.732376" lon="11.155973">
<ele>665.753</ele>
<time>2022-05-27T14:32:36Z</time>
</trkpt>
<trkpt lat="47.732471" lon="11.15594">
<ele>665.78</ele>
<time>2022-05-27T14:32:37Z</time>
</trkpt>
<trkpt lat="47.732521" lon="11.155921">
<ele>665.78</ele>
<time>2022-05-27T14:32:38Z</time>
</trkpt>
<trkpt lat="47.732567" lon="11.155904">
<ele>665.78</ele>
<time>2022-05-27T14:32:39Z</time>
</trkpt>
<trkpt lat="47.732616" lon="11.155884">
<ele>665.78</ele>
<time>2022-05-27T14:32:41Z</time>
</trkpt>
<trkpt lat="47.732662" lon="11.155865">
<ele>665.78</ele>
<time>2022-05-27T14:32:42Z</time>
</trkpt>
<trkpt lat="47.732754" lon="11.155825">
<ele>666.145</ele>
<time>2022-05-27T14:32:43Z</time>
</trkpt>
<trkpt lat="47.7328" lon="11.155807">
<ele>666.303</ele>
<time>2022-05-27T14:32:44Z</time>
</trkpt>
<trkpt lat="47.732845" lon="11.155788">
<ele>666.429</ele>
<time>2022-05-27T14:32:45Z</time>
</trkpt>
<trkpt lat="47.732891" lon="11.155768">
<ele>666.525</ele>
<time>2022-05-27T14:32:46Z</time>
</trkpt>
<trkpt lat="47.732933" lon="11.155746">
<ele>666.596</ele>
<time>2022-05-27T14:32:47Z</time>
</trkpt>
<trkpt lat="47.732983" lon="11.155725">
<ele>666.641</ele>
<time>2022-05-27T14:32:48Z</time>
</trkpt>
<trkpt lat="47.733028" lon="11.155707">
<ele>666.663</ele>
<time>2022-05-27T14:32:50Z</time>
</trkpt>
<trkpt lat="47.733074" lon="11.155686">
<ele>666.663</ele>
<time>2022-05-27T14:32:51Z</time>
</trkpt>
<trkpt lat="47.73317" lon="11.15565">
<ele>666.663</ele>
<time>2022-05-27T14:32:52Z</time>
</trkpt>
<trkpt lat="47.733219" lon="11.155634">
<ele>666.663</ele>
<time>2022-05-27T14:32:53Z</time>
</trkpt>
<trkpt lat="47.733261" lon="11.155615">
<ele>666.663</ele>
<time>2022-05-27T14:32:54Z</time>
</trkpt>
<trkpt lat="47.733311" lon="11.155595">
<ele>666.953</ele>
<time>2022-05-27T14:32:56Z</time>
</trkpt>
<trkpt lat="47.733353" lon="11.15557">
<ele>667.179</ele>
<time>2022-05-27T14:32:57Z</time>
</trkpt>
<trkpt lat="47.733398" lon="11.155541">
<ele>667.349</ele>
<time>2022-05-27T14:32:58Z</time>
</trkpt>
<trkpt lat="47.73344" lon="11.155508">
<ele>667.448</ele>
<time>2022-05-27T14:32:59Z</time>
</trkpt>
<trkpt lat="47.733513" lon="11.155425">
<ele>668.054</ele>
<time>2022-05-27T14:33:00Z</time>
</trkpt>
<trkpt lat="47.733547" lon="11.155378">
<ele>668.237</ele>
<time>2022-05-27T14:33:02Z</time>
</trkpt>
<trkpt lat="47.733585" lon="11.155332">
<ele>668.361</ele>
<time>2022-05-27T14:33:03Z</time>
</trkpt>
<trkpt lat="47.733665" lon="11.155236">
<ele>668.526</ele>
<time>2022-05-27T14:33:04Z</time>
</trkpt>
<trkpt lat="47.733704" lon="11.15519">
<ele>668.579</ele>
<time>2022-05-27T14:33:06Z</time>
</trkpt>
<trkpt lat="47.733784" lon="11.155105">
<ele>668.605</ele>
<time>2022-05-27T14:33:07Z</time>
</trkpt>
<trkpt lat="47.733822" lon="11.155062">
<ele>668.605</ele>
<time>2022-05-27T14:33:08Z</time>
</trkpt>
<trkpt lat="47.733864" lon="11.15502">
<ele>668.605</ele>
<time>2022-05-27T14:33:09Z</time>
</trkpt>
<trkpt lat="47.733906" lon="11.15498">
<ele>668.605</ele>
<time>2022-05-27T14:33:10Z</time>
</trkpt>
<trkpt lat="47.733948" lon="11.154941">
<ele>668.605</ele>
<time>2022-05-27T14:33:12Z</time>
</trkpt>
<trkpt lat="47.733994" lon="11.154899">
<ele>668.605</ele>
<time>2022-05-27T14:33:13Z</time>
</trkpt>
<trkpt lat="47.734035" lon="11.154857">
<ele>668.605</ele>
<time>2022-05-27T14:33:14Z</time>
</trkpt>
<trkpt lat="47.734135" lon="11.154773">
<ele>668.331</ele>
<time>2022-05-27T14:33:15Z</time>
</trkpt>
<trkpt lat="47.734184" lon="11.154732">
<ele>667.804</ele>
<time>2022-05-27T14:33:16Z</time>
</trkpt>
<trkpt lat="47.73423" lon="11.15469">
<ele>667.406</ele>
<time>2022-05-27T14:33:17Z</time>
</trkpt>
<trkpt lat="47.73428" lon="11.154647">
<ele>667.127</ele>
<time>2022-05-27T14:33:19Z</time>
</trkpt>
<trkpt lat="47.734371" lon="11.154553">
<ele>666.783</ele>
<time>2022-05-27T14:33:20Z</time>
</trkpt>
<trkpt lat="47.734417" lon="11.154503">
<ele>666.718</ele>
<time>2022-05-27T14:33:21Z</time>
</trkpt>
<trkpt lat="47.734459" lon="11.15445">
<ele>666.686</ele>
<time>2022-05-27T14:33:22Z</time>
</trkpt>
<trkpt lat="47.734505" lon="11.1544">
<ele>666.663</ele>
<time>2022-05-27T14:33:23Z</time>
</trkpt>
<trkpt lat="47.734554" lon="11.15435">
<ele>666.663</ele>
<time>2022-05-27T14:33:25Z</time>
</trkpt>
<trkpt lat="47.73465" lon="11.154253">
<ele>666.663</ele>
<time>2022-05-27T14:33:27Z</time>
</trkpt>
<trkpt lat="47.734695" lon="11.154207">
<ele>666.663</ele>
<time>2022-05-27T14:33:28Z</time>
</trkpt>
<trkpt lat="47.734787" lon="11.154107">
<ele>666.663</ele>
<time>2022-05-27T14:33:29Z</time>
</trkpt>
<trkpt lat="47.734837" lon="11.154054">
<ele>666.663</ele>
<time>2022-05-27T14:33:30Z</time>
</trkpt>
<trkpt lat="47.734882" lon="11.154">
<ele>666.442</ele>
<time>2022-05-27T14:33:31Z</time>
</trkpt>
<trkpt lat="47.734932" lon="11.153945">
<ele>666.265</ele>
<time>2022-05-27T14:33:32Z</time>
</trkpt>
<trkpt lat="47.734982" lon="11.153887">
<ele>666.146</ele>
<time>2022-05-27T14:33:34Z</time>
</trkpt>
<trkpt lat="47.735077" lon="11.153769">
<ele>665.916</ele>
<time>2022-05-27T14:33:35Z</time>
</trkpt>
<trkpt lat="47.73513" lon="11.153708">
<ele>665.852</ele>
<time>2022-05-27T14:33:36Z</time>
</trkpt>
<trkpt lat="47.735176" lon="11.153648">
<ele>665.54</ele>
<time>2022-05-27T14:33:37Z</time>
</trkpt>
<trkpt lat="47.735226" lon="11.153587">
<ele>665.299</ele>
<time>2022-05-27T14:33:38Z</time>
</trkpt>
<trkpt lat="47.735275" lon="11.153526">
<ele>665.071</ele>
<time>2022-05-27T14:33:40Z</time>
</trkpt>
<trkpt lat="47.735374" lon="11.153414">
<ele>664.852</ele>
<time>2022-05-27T14:33:41Z</time>
</trkpt>
<trkpt lat="47.73542" lon="11.15336">
<ele>664.796</ele>
<time>2022-05-27T14:33:42Z</time>
</trkpt>
<trkpt lat="47.73547" lon="11.153307">
<ele>664.751</ele>
<time>2022-05-27T14:33:43Z</time>
</trkpt>
<trkpt lat="47.735512" lon="11.153256">
<ele>664.721</ele>
<time>2022-05-27T14:33:44Z</time>
</trkpt>
<trkpt lat="47.735561" lon="11.153205">
<ele>664.438</ele>
<time>2022-05-27T14:33:45Z</time>
</trkpt>
<trkpt lat="47.735603" lon="11.153157">
<ele>664.219</ele>
<time>2022-05-27T14:33:46Z</time>
</trkpt>
<trkpt lat="47.735653" lon="11.153107">
<ele>664.045</ele>
<time>2022-05-27T14:33:47Z</time>
</trkpt>
<trkpt lat="47.735699" lon="11.153055">
<ele>663.919</ele>
<time>2022-05-27T14:33:48Z</time>
</trkpt>
<trkpt lat="47.735744" lon="11.153005">
<ele>663.832</ele>
<time>2022-05-27T14:33:50Z</time>
</trkpt>
<trkpt lat="47.73579" lon="11.152955">
<ele>663.779</ele>
<time>2022-05-27T14:33:51Z</time>
</trkpt>
<trkpt lat="47.735878" lon="11.152848">
<ele>663.75</ele>
<time>2022-05-27T14:33:53Z</time>
</trkpt>
<trkpt lat="47.735962" lon="11.15273">
<ele>663.75</ele>
<time>2022-05-27T14:33:54Z</time>
</trkpt>
<trkpt lat="47.736004" lon="11.152665">
<ele>663.75</ele>
<time>2022-05-27T14:33:55Z</time>
</trkpt>
<trkpt lat="47.736042" lon="11.152596">
<ele>663.466</ele>
<time>2022-05-27T14:33:56Z</time>
</trkpt>
<trkpt lat="47.736084" lon="11.152525">
<ele>663.249</ele>
<time>2022-05-27T14:33:57Z</time>
</trkpt>
<trkpt lat="47.736118" lon="11.15245">
<ele>663.08</ele>
<time>2022-05-27T14:33:58Z</time>
</trkpt>
<trkpt lat="47.736153" lon="11.152378">
<ele>662.962</ele>
<time>2022-05-27T14:33:59Z</time>
</trkpt>
<trkpt lat="47.736187" lon="11.152307">
<ele>662.88</ele>
<time>2022-05-27T14:34:01Z</time>
</trkpt>
<trkpt lat="47.736221" lon="11.152238">
<ele>662.834</ele>
<time>2022-05-27T14:34:02Z</time>
</trkpt>
<trkpt lat="47.73629" lon="11.152103">
<ele>662.414</ele>
<time>2022-05-27T14:34:04Z</time>
</trkpt>
<trkpt lat="47.736328" lon="11.152048">
<ele>662.259</ele>
<time>2022-05-27T14:34:05Z</time>
</trkpt>
<trkpt lat="47.736382" lon="11.152005">
<ele>662.135</ele>
<time>2022-05-27T14:34:06Z</time>
</trkpt>
<trkpt lat="47.736481" lon="11.151959">
<ele>661.965</ele>
<time>2022-05-27T14:34:07Z</time>
</trkpt>
<trkpt lat="47.736538" lon="11.151949">
<ele>661.919</ele>
<time>2022-05-27T14:34:08Z</time>
</trkpt>
<trkpt lat="47.736591" lon="11.15194">
<ele>661.897</ele>
<time>2022-05-27T14:34:09Z</time>
</trkpt>
<trkpt lat="47.736641" lon="11.151932">
<ele>661.897</ele>
<time>2022-05-27T14:34:10Z</time>
</trkpt>
<trkpt lat="47.736691" lon="11.151923">
<ele>661.897</ele>
<time>2022-05-27T14:34:12Z</time>
</trkpt>
<trkpt lat="47.73674" lon="11.151918">
<ele>661.897</ele>
<time>2022-05-27T14:34:13Z</time>
</trkpt>
<trkpt lat="47.736843" lon="11.151917">
<ele>661.897</ele>
<time>2022-05-27T14:34:14Z</time>
</trkpt>
<trkpt lat="47.7369" lon="11.151921">
<ele>662.186</ele>
<time>2022-05-27T14:34:15Z</time>
</trkpt>
<trkpt lat="47.73695" lon="11.151925">
<ele>662.41</ele>
<time>2022-05-27T14:34:17Z</time>
</trkpt>
<trkpt lat="47.737057" lon="11.15193">
<ele>662.69</ele>
<time>2022-05-27T14:34:19Z</time>
</trkpt>
<trkpt lat="47.737106" lon="11.151926">
<ele>663.067</ele>
<time>2022-05-27T14:34:20Z</time>
</trkpt>
<trkpt lat="47.73716" lon="11.151919">
<ele>663.343</ele>
<time>2022-05-27T14:34:21Z</time>
</trkpt>
<trkpt lat="47.737209" lon="11.151909">
<ele>663.534</ele>
<time>2022-05-27T14:34:22Z</time>
</trkpt>
<trkpt lat="47.737297" lon="11.15187">
<ele>663.747</ele>
<time>2022-05-27T14:34:23Z</time>
</trkpt>
<trkpt lat="47.737347" lon="11.15185">
<ele>663.836</ele>
<time>2022-05-27T14:34:24Z</time>
</trkpt>
<trkpt lat="47.737392" lon="11.15183">
<ele>664.128</ele>
<time>2022-05-27T14:34:26Z</time>
</trkpt>
<trkpt lat="47.737488" lon="11.151795">
<ele>664.603</ele>
<time>2022-05-27T14:34:27Z</time>
</trkpt>
<trkpt lat="47.737534" lon="11.151781">
<ele>664.728</ele>
<time>2022-05-27T14:34:28Z</time>
</trkpt>
<trkpt lat="47.737576" lon="11.151775">
<ele>664.819</ele>
<time>2022-05-27T14:34:29Z</time>
</trkpt>
<trkpt lat="47.737617" lon="11.151772">
<ele>664.873</ele>
<time>2022-05-27T14:34:30Z</time>
</trkpt>
<trkpt lat="47.737656" lon="11.151763">
<ele>664.898</ele>
<time>2022-05-27T14:34:32Z</time>
</trkpt>
<trkpt lat="47.737743" lon="11.15174">
<ele>664.898</ele>
<time>2022-05-27T14:34:34Z</time>
</trkpt>
<trkpt lat="47.737782" lon="11.151725">
<ele>664.898</ele>
<time>2022-05-27T14:34:35Z</time>
</trkpt>
<trkpt lat="47.737865" lon="11.15167">
<ele>664.898</ele>
<time>2022-05-27T14:34:36Z</time>
</trkpt>
<trkpt lat="47.737915" lon="11.151635">
<ele>664.898</ele>
<time>2022-05-27T14:34:37Z</time>
</trkpt>
<trkpt lat="47.737965" lon="11.151607">
<ele>664.898</ele>
<time>2022-05-27T14:34:38Z</time>
</trkpt>
<trkpt lat="47.738007" lon="11.15159">
<ele>664.898</ele>
<time>2022-05-27T14:34:39Z</time>
</trkpt>
<trkpt lat="47.738045" lon="11.151588">
<ele>664.898</ele>
<time>2022-05-27T14:34:40Z</time>
</trkpt>
<trkpt lat="47.738079" lon="11.151588">
<ele>664.898</ele>
<time>2022-05-27T14:34:41Z</time>
</trkpt>
<trkpt lat="47.738121" lon="11.15159">
<ele>665.147</ele>
<time>2022-05-27T14:34:42Z</time>
</trkpt>
<trkpt lat="47.738159" lon="11.151585">
<ele>665.321</ele>
<time>2022-05-27T14:34:43Z</time>
</trkpt>
<trkpt lat="47.738209" lon="11.151578">
<ele>665.488</ele>
<time>2022-05-27T14:34:44Z</time>
</trkpt>
<trkpt lat="47.738258" lon="11.151571">
<ele>665.853</ele>
<time>2022-05-27T14:34:45Z</time>
</trkpt>
<trkpt lat="47.738308" lon="11.151568">
<ele>666.176</ele>
<time>2022-05-27T14:34:47Z</time>
</trkpt>
<trkpt lat="47.738419" lon="11.151569">
<ele>666.62</ele>
<time>2022-05-27T14:34:48Z</time>
</trkpt>
<trkpt lat="47.738472" lon="11.151571">
<ele>666.731</ele>
<time>2022-05-27T14:34:49Z</time>
</trkpt>
<trkpt lat="47.738529" lon="11.151573">
<ele>666.822</ele>
<time>2022-05-27T14:34:51Z</time>
</trkpt>
<trkpt lat="47.738625" lon="11.151599">
<ele>666.84</ele>
<time>2022-05-27T14:34:52Z</time>
</trkpt>
<trkpt lat="47.738674" lon="11.15162">
<ele>666.84</ele>
<time>2022-05-27T14:34:53Z</time>
</trkpt>
<trkpt lat="47.738724" lon="11.151637">
<ele>667.073</ele>
<time>2022-05-27T14:34:54Z</time>
</trkpt>
<trkpt lat="47.73877" lon="11.151655">
<ele>667.267</ele>
<time>2022-05-27T14:34:55Z</time>
</trkpt>
<trkpt lat="47.738819" lon="11.15167">
<ele>667.43</ele>
<time>2022-05-27T14:34:57Z</time>
</trkpt>
<trkpt lat="47.738914" lon="11.151697">
<ele>667.646</ele>
<time>2022-05-27T14:34:58Z</time>
</trkpt>
<trkpt lat="47.738964" lon="11.15171">
<ele>667.989</ele>
<time>2022-05-27T14:34:59Z</time>
</trkpt>
<trkpt lat="47.739017" lon="11.151723">
<ele>668.259</ele>
<time>2022-05-27T14:35:00Z</time>
</trkpt>
<trkpt lat="47.739067" lon="11.151735">
<ele>668.463</ele>
<time>2022-05-27T14:35:02Z</time>
</trkpt>
<trkpt lat="47.73912" lon="11.151745">
<ele>668.609</ele>
<time>2022-05-27T14:35:03Z</time>
</trkpt>
<trkpt lat="47.739223" lon="11.151769">
<ele>668.436</ele>
<time>2022-05-27T14:35:04Z</time>
</trkpt>
<trkpt lat="47.739281" lon="11.151777">
<ele>668.349</ele>
<time>2022-05-27T14:35:05Z</time>
</trkpt>
<trkpt lat="47.739342" lon="11.151783">
<ele>668.335</ele>
<time>2022-05-27T14:35:06Z</time>
</trkpt>
<trkpt lat="47.739399" lon="11.151793">
<ele>667.955</ele>
<time>2022-05-27T14:35:07Z</time>
</trkpt>
<trkpt lat="47.739456" lon="11.151802">
<ele>667.679</ele>
<time>2022-05-27T14:35:08Z</time>
</trkpt>
<trkpt lat="47.739513" lon="11.151811">
<ele>667.171</ele>
<time>2022-05-27T14:35:10Z</time>
</trkpt>
<trkpt lat="47.739635" lon="11.151809">
<ele>666.475</ele>
<time>2022-05-27T14:35:11Z</time>
</trkpt>
<trkpt lat="47.739693" lon="11.151798">
<ele>666.27</ele>
<time>2022-05-27T14:35:13Z</time>
</trkpt>
<trkpt lat="47.739807" lon="11.151779">
<ele>666.036</ele>
<time>2022-05-27T14:35:14Z</time>
</trkpt>
<trkpt lat="47.739864" lon="11.151769">
<ele>665.983</ele>
<time>2022-05-27T14:35:15Z</time>
</trkpt>
<trkpt lat="47.739918" lon="11.151756">
<ele>665.957</ele>
<time>2022-05-27T14:35:16Z</time>
</trkpt>
<trkpt lat="47.739971" lon="11.151743">
<ele>665.663</ele>
<time>2022-05-27T14:35:17Z</time>
</trkpt>
<trkpt lat="47.740032" lon="11.151733">
<ele>665.433</ele>
<time>2022-05-27T14:35:18Z</time>
</trkpt>
<trkpt lat="47.740086" lon="11.151722">
<ele>665.255</ele>
<time>2022-05-27T14:35:19Z</time>
</trkpt>
<trkpt lat="47.740147" lon="11.151713">
<ele>665.124</ele>
<time>2022-05-27T14:35:20Z</time>
</trkpt>
<trkpt lat="47.740208" lon="11.151707">
<ele>665.03</ele>
<time>2022-05-27T14:35:22Z</time>
</trkpt>
<trkpt lat="47.740322" lon="11.151695">
<ele>664.927</ele>
<time>2022-05-27T14:35:23Z</time>
</trkpt>
<trkpt lat="47.740379" lon="11.15169">
<ele>664.898</ele>
<time>2022-05-27T14:35:25Z</time>
</trkpt>
<trkpt lat="47.74049" lon="11.15168">
<ele>664.898</ele>
<time>2022-05-27T14:35:27Z</time>
</trkpt>
<trkpt lat="47.740601" lon="11.151676">
<ele>664.898</ele>
<time>2022-05-27T14:35:29Z</time>
</trkpt>
<trkpt lat="47.740654" lon="11.151673">
<ele>664.898</ele>
<time>2022-05-27T14:35:30Z</time>
</trkpt>
<trkpt lat="47.740761" lon="11.151667">
<ele>664.898</ele>
<time>2022-05-27T14:35:32Z</time>
</trkpt>
<trkpt lat="47.740864" lon="11.151662">
<ele>664.898</ele>
<time>2022-05-27T14:35:34Z</time>
</trkpt>
<trkpt lat="47.740963" lon="11.15166">
<ele>664.898</ele>
<time>2022-05-27T14:35:36Z</time>
</trkpt>
<trkpt lat="47.741066" lon="11.151657">
<ele>664.898</ele>
<time>2022-05-27T14:35:38Z</time>
</trkpt>
<trkpt lat="47.741177" lon="11.151647">
<ele>665.158</ele>
<time>2022-05-27T14:35:39Z</time>
</trkpt>
<trkpt lat="47.741234" lon="11.151643">
<ele>665.116</ele>
<time>2022-05-27T14:35:40Z</time>
</trkpt>
<trkpt lat="47.741291" lon="11.15164">
<ele>665.078</ele>
<time>2022-05-27T14:35:41Z</time>
</trkpt>
<trkpt lat="47.741352" lon="11.151635">
<ele>665.043</ele>
<time>2022-05-27T14:35:43Z</time>
</trkpt>
<trkpt lat="47.741474" lon="11.15163">
<ele>664.743</ele>
<time>2022-05-27T14:35:45Z</time>
</trkpt>
<trkpt lat="47.741611" lon="11.151625">
<ele>664.129</ele>
<time>2022-05-27T14:35:47Z</time>
</trkpt>
<trkpt lat="47.741756" lon="11.151611">
<ele>663.082</ele>
<time>2022-05-27T14:35:49Z</time>
</trkpt>
<trkpt lat="47.741905" lon="11.1516">
<ele>661.665</ele>
<time>2022-05-27T14:35:50Z</time>
</trkpt>
<trkpt lat="47.741982" lon="11.151595">
<ele>661.124</ele>
<time>2022-05-27T14:35:51Z</time>
</trkpt>
<trkpt lat="47.742054" lon="11.15159">
<ele>660.327</ele>
<time>2022-05-27T14:35:52Z</time>
</trkpt>
<trkpt lat="47.74213" lon="11.151587">
<ele>659.786</ele>
<time>2022-05-27T14:35:53Z</time>
</trkpt>
<trkpt lat="47.742207" lon="11.151585">
<ele>659.344</ele>
<time>2022-05-27T14:35:54Z</time>
</trkpt>
<trkpt lat="47.742283" lon="11.151582">
<ele>658.826</ele>
<time>2022-05-27T14:35:55Z</time>
</trkpt>
<trkpt lat="47.742363" lon="11.151575">
<ele>658.165</ele>
<time>2022-05-27T14:35:56Z</time>
</trkpt>
<trkpt lat="47.742439" lon="11.151566">
<ele>657.677</ele>
<time>2022-05-27T14:35:58Z</time>
</trkpt>
<trkpt lat="47.742592" lon="11.151538">
<ele>656.867</ele>
<time>2022-05-27T14:36:00Z</time>
</trkpt>
<trkpt lat="47.742737" lon="11.151511">
<ele>655.742</ele>
<time>2022-05-27T14:36:01Z</time>
</trkpt>
<trkpt lat="47.742805" lon="11.1515">
<ele>655.195</ele>
<time>2022-05-27T14:36:02Z</time>
</trkpt>
<trkpt lat="47.74287" lon="11.15149">
<ele>654.781</ele>
<time>2022-05-27T14:36:04Z</time>
</trkpt>
<trkpt lat="47.743004" lon="11.15149">
<ele>653.909</ele>
<time>2022-05-27T14:36:05Z</time>
</trkpt>
<trkpt lat="47.743065" lon="11.151492">
<ele>653.511</ele>
<time>2022-05-27T14:36:07Z</time>
</trkpt>
<trkpt lat="47.74313" lon="11.151492">
<ele>653.225</ele>
<time>2022-05-27T14:36:08Z</time>
</trkpt>
<trkpt lat="47.743195" lon="11.151494">
<ele>653.057</ele>
<time>2022-05-27T14:36:09Z</time>
</trkpt>
<trkpt lat="47.74332" lon="11.1515">
<ele>652.227</ele>
<time>2022-05-27T14:36:11Z</time>
</trkpt>
<trkpt lat="47.743458" lon="11.151495">
<ele>651.867</ele>
<time>2022-05-27T14:36:13Z</time>
</trkpt>
<trkpt lat="47.743595" lon="11.151488">
<ele>651.672</ele>
<time>2022-05-27T14:36:14Z</time>
</trkpt>
<trkpt lat="47.743668" lon="11.151488">
<ele>651.37</ele>
<time>2022-05-27T14:36:15Z</time>
</trkpt>
<trkpt lat="47.74374" lon="11.151486">
<ele>650.869</ele>
<time>2022-05-27T14:36:16Z</time>
</trkpt>
<trkpt lat="47.743809" lon="11.151486">
<ele>650.327</ele>
<time>2022-05-27T14:36:17Z</time>
</trkpt>
<trkpt lat="47.743881" lon="11.151485">
<ele>650.023</ele>
<time>2022-05-27T14:36:18Z</time>
</trkpt>
<trkpt lat="47.743946" lon="11.151482">
<ele>649.816</ele>
<time>2022-05-27T14:36:20Z</time>
</trkpt>
<trkpt lat="47.744087" lon="11.151478">
<ele>649.604</ele>
<time>2022-05-27T14:36:22Z</time>
</trkpt>
<trkpt lat="47.744225" lon="11.151457">
<ele>649.298</ele>
<time>2022-05-27T14:36:24Z</time>
</trkpt>
<trkpt lat="47.744286" lon="11.151438">
<ele>649.06</ele>
<time>2022-05-27T14:36:25Z</time>
</trkpt>
<trkpt lat="47.744404" lon="11.151402">
<ele>648.728</ele>
<time>2022-05-27T14:36:27Z</time>
</trkpt>
<trkpt lat="47.744526" lon="11.151363">
<ele>648</ele>
<time>2022-05-27T14:36:28Z</time>
</trkpt>
<trkpt lat="47.744579" lon="11.151345">
<ele>647.749</ele>
<time>2022-05-27T14:36:30Z</time>
</trkpt>
<trkpt lat="47.744701" lon="11.15132">
<ele>647.188</ele>
<time>2022-05-27T14:36:32Z</time>
</trkpt>
<trkpt lat="47.744759" lon="11.15131">
<ele>646.922</ele>
<time>2022-05-27T14:36:33Z</time>
</trkpt>
<trkpt lat="47.744877" lon="11.151303">
<ele>646.558</ele>
<time>2022-05-27T14:36:34Z</time>
</trkpt>
<trkpt lat="47.74493" lon="11.151303">
<ele>646.445</ele>
<time>2022-05-27T14:36:35Z</time>
</trkpt>
<trkpt lat="47.744984" lon="11.151301">
<ele>646.367</ele>
<time>2022-05-27T14:36:36Z</time>
</trkpt>
<trkpt lat="47.745037" lon="11.151297">
<ele>646.315</ele>
<time>2022-05-27T14:36:37Z</time>
</trkpt>
<trkpt lat="47.74509" lon="11.151297">
<ele>646.291</ele>
<time>2022-05-27T14:36:38Z</time>
</trkpt>
<trkpt lat="47.745152" lon="11.151297">
<ele>646.039</ele>
<time>2022-05-27T14:36:40Z</time>
</trkpt>
<trkpt lat="47.745197" lon="11.151303">
<ele>645.839</ele>
<time>2022-05-27T14:36:41Z</time>
</trkpt>
<trkpt lat="47.745285" lon="11.151322">
<ele>645.409</ele>
<time>2022-05-27T14:36:43Z</time>
</trkpt>
<trkpt lat="47.745354" lon="11.151361">
<ele>644.493</ele>
<time>2022-05-27T14:36:44Z</time>
</trkpt>
<trkpt lat="47.74538" lon="11.151381">
<ele>644.164</ele>
<time>2022-05-27T14:36:46Z</time>
</trkpt>
<trkpt lat="47.745445" lon="11.15144">
<ele>643.541</ele>
<time>2022-05-27T14:36:48Z</time>
</trkpt>
<trkpt lat="47.745533" lon="11.151495">
<ele>642.444</ele>
<time>2022-05-27T14:36:49Z</time>
</trkpt>
<trkpt lat="47.745567" lon="11.151519">
<ele>641.731</ele>
<time>2022-05-27T14:36:51Z</time>
</trkpt>
<trkpt lat="47.745674" lon="11.151587">
<ele>640.777</ele>
<time>2022-05-27T14:36:53Z</time>
</trkpt>
<trkpt lat="47.745766" lon="11.151635">
<ele>639.791</ele>
<time>2022-05-27T14:36:54Z</time>
</trkpt>
<trkpt lat="47.7458" lon="11.151647">
<ele>639.247</ele>
<time>2022-05-27T14:36:56Z</time>
</trkpt>
<trkpt lat="47.745895" lon="11.151667">
<ele>638.317</ele>
<time>2022-05-27T14:36:57Z</time>
</trkpt>
<trkpt lat="47.745956" lon="11.151683">
<ele>637.911</ele>
<time>2022-05-27T14:36:59Z</time>
</trkpt>
<trkpt lat="47.746109" lon="11.151747">
<ele>637.111</ele>
<time>2022-05-27T14:37:00Z</time>
</trkpt>
<trkpt lat="47.746193" lon="11.151785">
<ele>636.62</ele>
<time>2022-05-27T14:37:02Z</time>
</trkpt>
<trkpt lat="47.746342" lon="11.151842">
<ele>636.014</ele>
<time>2022-05-27T14:37:03Z</time>
</trkpt>
<trkpt lat="47.746426" lon="11.151855">
<ele>635.733</ele>
<time>2022-05-27T14:37:05Z</time>
</trkpt>
<trkpt lat="47.746574" lon="11.15189">
<ele>634.735</ele>
<time>2022-05-27T14:37:06Z</time>
</trkpt>
<trkpt lat="47.746651" lon="11.151916">
<ele>634.025</ele>
<time>2022-05-27T14:37:07Z</time>
</trkpt>
<trkpt lat="47.746716" lon="11.151935">
<ele>633.532</ele>
<time>2022-05-27T14:37:08Z</time>
</trkpt>
<trkpt lat="47.746784" lon="11.151961">
<ele>632.87</ele>
<time>2022-05-27T14:37:09Z</time>
</trkpt>
<trkpt lat="47.746853" lon="11.151997">
<ele>632.073</ele>
<time>2022-05-27T14:37:10Z</time>
</trkpt>
<trkpt lat="47.746933" lon="11.152041">
<ele>631.444</ele>
<time>2022-05-27T14:37:11Z</time>
</trkpt>
<trkpt lat="47.747009" lon="11.152087">
<ele>630.816</ele>
<time>2022-05-27T14:37:12Z</time>
</trkpt>
<trkpt lat="47.747089" lon="11.152133">
<ele>630.319</ele>
<time>2022-05-27T14:37:14Z</time>
</trkpt>
<trkpt lat="47.747272" lon="11.152245">
<ele>629.215</ele>
<time>2022-05-27T14:37:15Z</time>
</trkpt>
<trkpt lat="47.747372" lon="11.152318">
<ele>628.568</ele>
<time>2022-05-27T14:37:17Z</time>
</trkpt>
<trkpt lat="47.74754" lon="11.152487">
<ele>627.441</ele>
<time>2022-05-27T14:37:18Z</time>
</trkpt>
<trkpt lat="47.747616" lon="11.152575">
<ele>626.876</ele>
<time>2022-05-27T14:37:19Z</time>
</trkpt>
<trkpt lat="47.747696" lon="11.152661">
<ele>626.455</ele>
<time>2022-05-27T14:37:20Z</time>
</trkpt>
<trkpt lat="47.747768" lon="11.152745">
<ele>626.211</ele>
<time>2022-05-27T14:37:22Z</time>
</trkpt>
<trkpt lat="47.747849" lon="11.152822">
<ele>625.755</ele>
<time>2022-05-27T14:37:23Z</time>
</trkpt>
<trkpt lat="47.748009" lon="11.152926">
<ele>625.193</ele>
<time>2022-05-27T14:37:24Z</time>
</trkpt>
<trkpt lat="47.748085" lon="11.152966">
<ele>624.915</ele>
<time>2022-05-27T14:37:25Z</time>
</trkpt>
<trkpt lat="47.748169" lon="11.153003">
<ele>624.735</ele>
<time>2022-05-27T14:37:26Z</time>
</trkpt>
<trkpt lat="47.748249" lon="11.153042">
<ele>624.594</ele>
<time>2022-05-27T14:37:27Z</time>
</trkpt>
<trkpt lat="47.748325" lon="11.153084">
<ele>624.494</ele>
<time>2022-05-27T14:37:28Z</time>
</trkpt>
<trkpt lat="47.748405" lon="11.153133">
<ele>624.438</ele>
<time>2022-05-27T14:37:30Z</time>
</trkpt>
<trkpt lat="47.74847" lon="11.153192">
<ele>624.168</ele>
<time>2022-05-27T14:37:31Z</time>
</trkpt>
<trkpt lat="47.7486" lon="11.153307">
<ele>623.843</ele>
<time>2022-05-27T14:37:32Z</time>
</trkpt>
<trkpt lat="47.748661" lon="11.153361">
<ele>623.747</ele>
<time>2022-05-27T14:37:33Z</time>
</trkpt>
<trkpt lat="47.748722" lon="11.153414">
<ele>623.645</ele>
<time>2022-05-27T14:37:35Z</time>
</trkpt>
<trkpt lat="47.748783" lon="11.15346">
<ele>623.571</ele>
<time>2022-05-27T14:37:36Z</time>
</trkpt>
<trkpt lat="47.748901" lon="11.153539">
<ele>623.498</ele>
<time>2022-05-27T14:37:37Z</time>
</trkpt>
<trkpt lat="47.748962" lon="11.153577">
<ele>623.498</ele>
<time>2022-05-27T14:37:38Z</time>
</trkpt>
<trkpt lat="47.74902" lon="11.153615">
<ele>623.251</ele>
<time>2022-05-27T14:37:39Z</time>
</trkpt>
<trkpt lat="47.749077" lon="11.15365">
<ele>623.055</ele>
<time>2022-05-27T14:37:40Z</time>
</trkpt>
<trkpt lat="47.74913" lon="11.15368">
<ele>622.901</ele>
<time>2022-05-27T14:37:42Z</time>
</trkpt>
<trkpt lat="47.749187" lon="11.153711">
<ele>622.808</ele>
<time>2022-05-27T14:37:43Z</time>
</trkpt>
<trkpt lat="47.749287" lon="11.153769">
<ele>622.205</ele>
<time>2022-05-27T14:37:45Z</time>
</trkpt>
<trkpt lat="47.749329" lon="11.15379">
<ele>621.986</ele>
<time>2022-05-27T14:37:46Z</time>
</trkpt>
<trkpt lat="47.749378" lon="11.153818">
<ele>621.826</ele>
<time>2022-05-27T14:37:47Z</time>
</trkpt>
<trkpt lat="47.749424" lon="11.153847">
<ele>621.721</ele>
<time>2022-05-27T14:37:48Z</time>
</trkpt>
<trkpt lat="47.74947" lon="11.153878">
<ele>621.641</ele>
<time>2022-05-27T14:37:49Z</time>
</trkpt>
<trkpt lat="47.749557" lon="11.153945">
<ele>621.564</ele>
<time>2022-05-27T14:37:50Z</time>
</trkpt>
<trkpt lat="47.749607" lon="11.153976">
<ele>621.346</ele>
<time>2022-05-27T14:37:51Z</time>
</trkpt>
<trkpt lat="47.749653" lon="11.154008">
<ele>621.17</ele>
<time>2022-05-27T14:37:52Z</time>
</trkpt>
<trkpt lat="47.749702" lon="11.154041">
<ele>621.048</ele>
<time>2022-05-27T14:37:53Z</time>
</trkpt>
<trkpt lat="47.749752" lon="11.154075">
<ele>620.919</ele>
<time>2022-05-27T14:37:54Z</time>
</trkpt>
<trkpt lat="47.749805" lon="11.154111">
<ele>620.821</ele>
<time>2022-05-27T14:37:55Z</time>
</trkpt>
<trkpt lat="47.749855" lon="11.154148">
<ele>620.75</ele>
<time>2022-05-27T14:37:56Z</time>
</trkpt>
<trkpt lat="47.749912" lon="11.154184">
<ele>620.706</ele>
<time>2022-05-27T14:37:57Z</time>
</trkpt>
<trkpt lat="47.749962" lon="11.154223">
<ele>620.685</ele>
<time>2022-05-27T14:37:58Z</time>
</trkpt>
<trkpt lat="47.750011" lon="11.154262">
<ele>620.685</ele>
<time>2022-05-27T14:38:00Z</time>
</trkpt>
<trkpt lat="47.750107" lon="11.154358">
<ele>620.685</ele>
<time>2022-05-27T14:38:01Z</time>
</trkpt>
<trkpt lat="47.750156" lon="11.15441">
<ele>620.685</ele>
<time>2022-05-27T14:38:03Z</time>
</trkpt>
<trkpt lat="47.75024" lon="11.154527">
<ele>620.228</ele>
<time>2022-05-27T14:38:05Z</time>
</trkpt>
<trkpt lat="47.750332" lon="11.154654">
<ele>619.899</ele>
<time>2022-05-27T14:38:06Z</time>
</trkpt>
<trkpt lat="47.750374" lon="11.154718">
<ele>619.804</ele>
<time>2022-05-27T14:38:08Z</time>
</trkpt>
<trkpt lat="47.750465" lon="11.154852">
<ele>619.179</ele>
<time>2022-05-27T14:38:09Z</time>
</trkpt>
<trkpt lat="47.750515" lon="11.154922">
<ele>618.972</ele>
<time>2022-05-27T14:38:10Z</time>
</trkpt>
<trkpt lat="47.750568" lon="11.154991">
<ele>618.815</ele>
<time>2022-05-27T14:38:11Z</time>
</trkpt>
<trkpt lat="47.750626" lon="11.155058">
<ele>618.746</ele>
<time>2022-05-27T14:38:12Z</time>
</trkpt>
<trkpt lat="47.750683" lon="11.155125">
<ele>618.439</ele>
<time>2022-05-27T14:38:13Z</time>
</trkpt>
<trkpt lat="47.750736" lon="11.155194">
<ele>618.172</ele>
<time>2022-05-27T14:38:14Z</time>
</trkpt>
<trkpt lat="47.750793" lon="11.155272">
<ele>618.001</ele>
<time>2022-05-27T14:38:16Z</time>
</trkpt>
<trkpt lat="47.750893" lon="11.155439">
<ele>617.316</ele>
<time>2022-05-27T14:38:17Z</time>
</trkpt>
<trkpt lat="47.750942" lon="11.15553">
<ele>617.117</ele>
<time>2022-05-27T14:38:19Z</time>
</trkpt>
<trkpt lat="47.751045" lon="11.155713">
<ele>616.313</ele>
<time>2022-05-27T14:38:21Z</time>
</trkpt>
<trkpt lat="47.751148" lon="11.155898">
<ele>615.87</ele>
<time>2022-05-27T14:38:23Z</time>
</trkpt>
<trkpt lat="47.751251" lon="11.156078">
<ele>615.455</ele>
<time>2022-05-27T14:38:24Z</time>
</trkpt>
<trkpt lat="47.751305" lon="11.156168">
<ele>615.221</ele>
<time>2022-05-27T14:38:25Z</time>
</trkpt>
<trkpt lat="47.751358" lon="11.156259">
<ele>615.047</ele>
<time>2022-05-27T14:38:26Z</time>
</trkpt>
<trkpt lat="47.751411" lon="11.15635">
<ele>614.93</ele>
<time>2022-05-27T14:38:27Z</time>
</trkpt>
<trkpt lat="47.751457" lon="11.156445">
<ele>614.857</ele>
<time>2022-05-27T14:38:28Z</time>
</trkpt>
<trkpt lat="47.751507" lon="11.15654">
<ele>614.548</ele>
<time>2022-05-27T14:38:30Z</time>
</trkpt>
<trkpt lat="47.751595" lon="11.156734">
<ele>614.117</ele>
<time>2022-05-27T14:38:31Z</time>
</trkpt>
<trkpt lat="47.75164" lon="11.156835">
<ele>613.987</ele>
<time>2022-05-27T14:38:32Z</time>
</trkpt>
<trkpt lat="47.751682" lon="11.156933">
<ele>613.907</ele>
<time>2022-05-27T14:38:34Z</time>
</trkpt>
<trkpt lat="47.75177" lon="11.157128">
<ele>613.772</ele>
<time>2022-05-27T14:38:36Z</time>
</trkpt>
<trkpt lat="47.751877" lon="11.157298">
<ele>613.112</ele>
<time>2022-05-27T14:38:37Z</time>
</trkpt>
<trkpt lat="47.751938" lon="11.157365">
<ele>612.902</ele>
<time>2022-05-27T14:38:38Z</time>
</trkpt>
<trkpt lat="47.751999" lon="11.157425">
<ele>612.75</ele>
<time>2022-05-27T14:38:39Z</time>
</trkpt>
<trkpt lat="47.752064" lon="11.157482">
<ele>612.646</ele>
<time>2022-05-27T14:38:40Z</time>
</trkpt>
<trkpt lat="47.752129" lon="11.157537">
<ele>612.576</ele>
<time>2022-05-27T14:38:41Z</time>
</trkpt>
<trkpt lat="47.752193" lon="11.157595">
<ele>612.544</ele>
<time>2022-05-27T14:38:42Z</time>
</trkpt>
<trkpt lat="47.752254" lon="11.157656">
<ele>612.515</ele>
<time>2022-05-27T14:38:43Z</time>
</trkpt>
<trkpt lat="47.752316" lon="11.15771">
<ele>612.515</ele>
<time>2022-05-27T14:38:45Z</time>
</trkpt>
<trkpt lat="47.752377" lon="11.157763">
<ele>612.515</ele>
<time>2022-05-27T14:38:46Z</time>
</trkpt>
<trkpt lat="47.752438" lon="11.157817">
<ele>612.515</ele>
<time>2022-05-27T14:38:47Z</time>
</trkpt>
<trkpt lat="47.75256" lon="11.157925">
<ele>612.231</ele>
<time>2022-05-27T14:38:48Z</time>
</trkpt>
<trkpt lat="47.752617" lon="11.157978">
<ele>612.008</ele>
<time>2022-05-27T14:38:50Z</time>
</trkpt>
<trkpt lat="47.752678" lon="11.158031">
<ele>611.836</ele>
<time>2022-05-27T14:38:51Z</time>
</trkpt>
<trkpt lat="47.752785" lon="11.15812">
<ele>611.62</ele>
<time>2022-05-27T14:38:53Z</time>
</trkpt>
<trkpt lat="47.752842" lon="11.158156">
<ele>611.551</ele>
<time>2022-05-27T14:38:54Z</time>
</trkpt>
<trkpt lat="47.752895" lon="11.158177">
<ele>611.491</ele>
<time>2022-05-27T14:38:55Z</time>
</trkpt>
<trkpt lat="47.752945" lon="11.158185">
<ele>611.461</ele>
<time>2022-05-27T14:38:56Z</time>
</trkpt>
<trkpt lat="47.753036" lon="11.158198">
<ele>611.461</ele>
<time>2022-05-27T14:38:57Z</time>
</trkpt>
<trkpt lat="47.753075" lon="11.158207">
<ele>611.221</ele>
<time>2022-05-27T14:38:58Z</time>
</trkpt>
<trkpt lat="47.753109" lon="11.158212">
<ele>611.026</ele>
<time>2022-05-27T14:39:00Z</time>
</trkpt>
<trkpt lat="47.753185" lon="11.158205">
<ele>610.75</ele>
<time>2022-05-27T14:39:01Z</time>
</trkpt>
<trkpt lat="47.753231" lon="11.158195">
<ele>610.66</ele>
<time>2022-05-27T14:39:02Z</time>
</trkpt>
<trkpt lat="47.753269" lon="11.158182">
<ele>610.587</ele>
<time>2022-05-27T14:39:03Z</time>
</trkpt>
<trkpt lat="47.753311" lon="11.15817">
<ele>610.527</ele>
<time>2022-05-27T14:39:05Z</time>
</trkpt>
<trkpt lat="47.753399" lon="11.158198">
<ele>610.496</ele>
<time>2022-05-27T14:39:07Z</time>
</trkpt>
<trkpt lat="47.753487" lon="11.158267">
<ele>610.496</ele>
<time>2022-05-27T14:39:08Z</time>
</trkpt>
<trkpt lat="47.753532" lon="11.158308">
<ele>610.496</ele>
<time>2022-05-27T14:39:10Z</time>
</trkpt>
<trkpt lat="47.753613" lon="11.158398">
<ele>610.496</ele>
<time>2022-05-27T14:39:11Z</time>
</trkpt>
<trkpt lat="47.753658" lon="11.15844">
<ele>610.496</ele>
<time>2022-05-27T14:39:12Z</time>
</trkpt>
<trkpt lat="47.7537" lon="11.158477">
<ele>610.276</ele>
<time>2022-05-27T14:39:13Z</time>
</trkpt>
<trkpt lat="47.753754" lon="11.158511">
<ele>610.071</ele>
<time>2022-05-27T14:39:15Z</time>
</trkpt>
<trkpt lat="47.753799" lon="11.158546">
<ele>609.904</ele>
<time>2022-05-27T14:39:16Z</time>
</trkpt>
<trkpt lat="47.753895" lon="11.158613">
<ele>609.673</ele>
<time>2022-05-27T14:39:17Z</time>
</trkpt>
<trkpt lat="47.753944" lon="11.15864">
<ele>609.609</ele>
<time>2022-05-27T14:39:18Z</time>
</trkpt>
<trkpt lat="47.753994" lon="11.158669">
<ele>609.343</ele>
<time>2022-05-27T14:39:19Z</time>
</trkpt>
<trkpt lat="47.754051" lon="11.1587">
<ele>609.135</ele>
<time>2022-05-27T14:39:20Z</time>
</trkpt>
<trkpt lat="47.754101" lon="11.158737">
<ele>608.974</ele>
<time>2022-05-27T14:39:22Z</time>
</trkpt>
<trkpt lat="47.754204" lon="11.158816">
<ele>608.797</ele>
<time>2022-05-27T14:39:23Z</time>
</trkpt>
<trkpt lat="47.754253" lon="11.158852">
<ele>608.72</ele>
<time>2022-05-27T14:39:24Z</time>
</trkpt>
<trkpt lat="47.754307" lon="11.158888">
<ele>608.674</ele>
<time>2022-05-27T14:39:25Z</time>
</trkpt>
<trkpt lat="47.754356" lon="11.158925">
<ele>608.652</ele>
<time>2022-05-27T14:39:27Z</time>
</trkpt>
<trkpt lat="47.754459" lon="11.158998">
<ele>608.652</ele>
<time>2022-05-27T14:39:28Z</time>
</trkpt>
<trkpt lat="47.754509" lon="11.159035">
<ele>608.652</ele>
<time>2022-05-27T14:39:29Z</time>
</trkpt>
<trkpt lat="47.754551" lon="11.159077">
<ele>608.652</ele>
<time>2022-05-27T14:39:30Z</time>
</trkpt>
<trkpt lat="47.754597" lon="11.159121">
<ele>608.652</ele>
<time>2022-05-27T14:39:32Z</time>
</trkpt>
<trkpt lat="47.754642" lon="11.159157">
<ele>608.4</ele>
<time>2022-05-27T14:39:33Z</time>
</trkpt>
<trkpt lat="47.754738" lon="11.159228">
<ele>608.032</ele>
<time>2022-05-27T14:39:34Z</time>
</trkpt>
<trkpt lat="47.754787" lon="11.159262">
<ele>607.881</ele>
<time>2022-05-27T14:39:35Z</time>
</trkpt>
<trkpt lat="47.754837" lon="11.1593">
<ele>607.764</ele>
<time>2022-05-27T14:39:36Z</time>
</trkpt>
<trkpt lat="47.754887" lon="11.159335">
<ele>607.677</ele>
<time>2022-05-27T14:39:38Z</time>
</trkpt>
<trkpt lat="47.754982" lon="11.159405">
<ele>607.599</ele>
<time>2022-05-27T14:39:39Z</time>
</trkpt>
<trkpt lat="47.755028" lon="11.159447">
<ele>607.599</ele>
<time>2022-05-27T14:39:41Z</time>
</trkpt>
<trkpt lat="47.75507" lon="11.159489">
<ele>607.599</ele>
<time>2022-05-27T14:39:42Z</time>
</trkpt>
<trkpt lat="47.755157" lon="11.159574">
<ele>607.599</ele>
<time>2022-05-27T14:39:43Z</time>
</trkpt>
<trkpt lat="47.755196" lon="11.159612">
<ele>607.599</ele>
<time>2022-05-27T14:39:44Z</time>
</trkpt>
<trkpt lat="47.755245" lon="11.159648">
<ele>607.599</ele>
<time>2022-05-27T14:39:46Z</time>
</trkpt>
<trkpt lat="47.755329" lon="11.159712">
<ele>607.599</ele>
<time>2022-05-27T14:39:48Z</time>
</trkpt>
<trkpt lat="47.755421" lon="11.159782">
<ele>607.324</ele>
<time>2022-05-27T14:39:49Z</time>
</trkpt>
<trkpt lat="47.755463" lon="11.159823">
<ele>607.105</ele>
<time>2022-05-27T14:39:50Z</time>
</trkpt>
<trkpt lat="47.755508" lon="11.159864">
<ele>606.939</ele>
<time>2022-05-27T14:39:51Z</time>
</trkpt>
<trkpt lat="47.75555" lon="11.15991">
<ele>606.808</ele>
<time>2022-05-27T14:39:52Z</time>
</trkpt>
<trkpt lat="47.755589" lon="11.159952">
<ele>606.72</ele>
<time>2022-05-27T14:39:53Z</time>
</trkpt>
<trkpt lat="47.75563" lon="11.159996">
<ele>606.628</ele>
<time>2022-05-27T14:39:54Z</time>
</trkpt>
<trkpt lat="47.755672" lon="11.160044">
<ele>606.572</ele>
<time>2022-05-27T14:39:55Z</time>
</trkpt>
<trkpt lat="47.755711" lon="11.160092">
<ele>606.546</ele>
<time>2022-05-27T14:39:56Z</time>
</trkpt>
<trkpt lat="47.755749" lon="11.160143">
<ele>606.546</ele>
<time>2022-05-27T14:39:57Z</time>
</trkpt>
<trkpt lat="47.755783" lon="11.160201">
<ele>606.546</ele>
<time>2022-05-27T14:39:58Z</time>
</trkpt>
<trkpt lat="47.755821" lon="11.160258">
<ele>606.546</ele>
<time>2022-05-27T14:39:59Z</time>
</trkpt>
<trkpt lat="47.755859" lon="11.160315">
<ele>606.546</ele>
<time>2022-05-27T14:40:01Z</time>
</trkpt>
<trkpt lat="47.755939" lon="11.160427">
<ele>606.546</ele>
<time>2022-05-27T14:40:02Z</time>
</trkpt>
<trkpt lat="47.755978" lon="11.16048">
<ele>606.546</ele>
<time>2022-05-27T14:40:03Z</time>
</trkpt>
<trkpt lat="47.756012" lon="11.160533">
<ele>606.546</ele>
<time>2022-05-27T14:40:04Z</time>
</trkpt>
<trkpt lat="47.756058" lon="11.160586">
<ele>606.546</ele>
<time>2022-05-27T14:40:05Z</time>
</trkpt>
<trkpt lat="47.756104" lon="11.160633">
<ele>606.546</ele>
<time>2022-05-27T14:40:06Z</time>
</trkpt>
<trkpt lat="47.756145" lon="11.160679">
<ele>606.546</ele>
<time>2022-05-27T14:40:07Z</time>
</trkpt>
<trkpt lat="47.756191" lon="11.160725">
<ele>606.546</ele>
<time>2022-05-27T14:40:09Z</time>
</trkpt>
<trkpt lat="47.756233" lon="11.160771">
<ele>606.546</ele>
<time>2022-05-27T14:40:10Z</time>
</trkpt>
<trkpt lat="47.756329" lon="11.160862">
<ele>606.546</ele>
<time>2022-05-27T14:40:11Z</time>
</trkpt>
<trkpt lat="47.756374" lon="11.160912">
<ele>606.546</ele>
<time>2022-05-27T14:40:12Z</time>
</trkpt>
<trkpt lat="47.75642" lon="11.160956">
<ele>606.546</ele>
<time>2022-05-27T14:40:13Z</time>
</trkpt>
<trkpt lat="47.756466" lon="11.161005">
<ele>606.546</ele>
<time>2022-05-27T14:40:15Z</time>
</trkpt>
<trkpt lat="47.75655" lon="11.1611">
<ele>606.546</ele>
<time>2022-05-27T14:40:16Z</time>
</trkpt>
<trkpt lat="47.756596" lon="11.161139">
<ele>606.546</ele>
<time>2022-05-27T14:40:18Z</time>
</trkpt>
<trkpt lat="47.756691" lon="11.161192">
<ele>606.967</ele>
<time>2022-05-27T14:40:20Z</time>
</trkpt>
<trkpt lat="47.756737" lon="11.16121">
<ele>607.108</ele>
<time>2022-05-27T14:40:21Z</time>
</trkpt>
<trkpt lat="47.756783" lon="11.161225">
<ele>607.217</ele>
<time>2022-05-27T14:40:22Z</time>
</trkpt>
<trkpt lat="47.756832" lon="11.161241">
<ele>607.291</ele>
<time>2022-05-27T14:40:23Z</time>
</trkpt>
<trkpt lat="47.756927" lon="11.16126">
<ele>607.398</ele>
<time>2022-05-27T14:40:24Z</time>
</trkpt>
<trkpt lat="47.756977" lon="11.161274">
<ele>607.424</ele>
<time>2022-05-27T14:40:25Z</time>
</trkpt>
<trkpt lat="47.757023" lon="11.161286">
<ele>607.424</ele>
<time>2022-05-27T14:40:26Z</time>
</trkpt>
<trkpt lat="47.757076" lon="11.161304">
<ele>607.424</ele>
<time>2022-05-27T14:40:28Z</time>
</trkpt>
<trkpt lat="47.757122" lon="11.161318">
<ele>607.424</ele>
<time>2022-05-27T14:40:29Z</time>
</trkpt>
<trkpt lat="47.757214" lon="11.161353">
<ele>607.671</ele>
<time>2022-05-27T14:40:30Z</time>
</trkpt>
<trkpt lat="47.757263" lon="11.16137">
<ele>607.866</ele>
<time>2022-05-27T14:40:31Z</time>
</trkpt>
<trkpt lat="47.757313" lon="11.161385">
<ele>608.017</ele>
<time>2022-05-27T14:40:32Z</time>
</trkpt>
<trkpt lat="47.757355" lon="11.161402">
<ele>608.121</ele>
<time>2022-05-27T14:40:33Z</time>
</trkpt>
<trkpt lat="47.757404" lon="11.161419">
<ele>608.23</ele>
<time>2022-05-27T14:40:34Z</time>
</trkpt>
<trkpt lat="47.75745" lon="11.161435">
<ele>608.311</ele>
<time>2022-05-27T14:40:35Z</time>
</trkpt>
<trkpt lat="47.7575" lon="11.161454">
<ele>608.364</ele>
<time>2022-05-27T14:40:36Z</time>
</trkpt>
<trkpt lat="47.757545" lon="11.161471">
<ele>608.389</ele>
<time>2022-05-27T14:40:38Z</time>
</trkpt>
<trkpt lat="47.757595" lon="11.161491">
<ele>608.389</ele>
<time>2022-05-27T14:40:39Z</time>
</trkpt>
<trkpt lat="47.757641" lon="11.16151">
<ele>608.389</ele>
<time>2022-05-27T14:40:40Z</time>
</trkpt>
<trkpt lat="47.757736" lon="11.161545">
<ele>608.389</ele>
<time>2022-05-27T14:40:41Z</time>
</trkpt>
<trkpt lat="47.757786" lon="11.161563">
<ele>608.389</ele>
<time>2022-05-27T14:40:42Z</time>
</trkpt>
<trkpt lat="47.757835" lon="11.161582">
<ele>608.389</ele>
<time>2022-05-27T14:40:43Z</time>
</trkpt>
<trkpt lat="47.757881" lon="11.161603">
<ele>608.389</ele>
<time>2022-05-27T14:40:44Z</time>
</trkpt>
<trkpt lat="47.757931" lon="11.161627">
<ele>608.677</ele>
<time>2022-05-27T14:40:45Z</time>
</trkpt>
<trkpt lat="47.757973" lon="11.161652">
<ele>608.899</ele>
<time>2022-05-27T14:40:46Z</time>
</trkpt>
<trkpt lat="47.758022" lon="11.161674">
<ele>609.068</ele>
<time>2022-05-27T14:40:48Z</time>
</trkpt>
<trkpt lat="47.758068" lon="11.161697">
<ele>609.189</ele>
<time>2022-05-27T14:40:49Z</time>
</trkpt>
<trkpt lat="47.75816" lon="11.161731">
<ele>609.326</ele>
<time>2022-05-27T14:40:50Z</time>
</trkpt>
<trkpt lat="47.758205" lon="11.161745">
<ele>609.35</ele>
<time>2022-05-27T14:40:51Z</time>
</trkpt>
<trkpt lat="47.758255" lon="11.161763">
<ele>609.354</ele>
<time>2022-05-27T14:40:52Z</time>
</trkpt>
<trkpt lat="47.758297" lon="11.161783">
<ele>609.354</ele>
<time>2022-05-27T14:40:53Z</time>
</trkpt>
<trkpt lat="47.758339" lon="11.161803">
<ele>609.355</ele>
<time>2022-05-27T14:40:54Z</time>
</trkpt>
<trkpt lat="47.758385" lon="11.161827">
<ele>609.354</ele>
<time>2022-05-27T14:40:55Z</time>
</trkpt>
<trkpt lat="47.75843" lon="11.161846">
<ele>609.355</ele>
<time>2022-05-27T14:40:56Z</time>
</trkpt>
<trkpt lat="47.758476" lon="11.161867">
<ele>609.354</ele>
<time>2022-05-27T14:40:57Z</time>
</trkpt>
<trkpt lat="47.758522" lon="11.161885">
<ele>609.355</ele>
<time>2022-05-27T14:40:58Z</time>
</trkpt>
<trkpt lat="47.758572" lon="11.161905">
<ele>609.354</ele>
<time>2022-05-27T14:41:00Z</time>
</trkpt>
<trkpt lat="47.758621" lon="11.161926">
<ele>609.354</ele>
<time>2022-05-27T14:41:01Z</time>
</trkpt>
<trkpt lat="47.758675" lon="11.161946">
<ele>609.355</ele>
<time>2022-05-27T14:41:02Z</time>
</trkpt>
<trkpt lat="47.758724" lon="11.161963">
<ele>609.354</ele>
<time>2022-05-27T14:41:03Z</time>
</trkpt>
<trkpt lat="47.758831" lon="11.161986">
<ele>609.354</ele>
<time>2022-05-27T14:41:05Z</time>
</trkpt>
<trkpt lat="47.758938" lon="11.162008">
<ele>609.354</ele>
<time>2022-05-27T14:41:06Z</time>
</trkpt>
<trkpt lat="47.758987" lon="11.162016">
<ele>609.354</ele>
<time>2022-05-27T14:41:07Z</time>
</trkpt>
<trkpt lat="47.759041" lon="11.162024">
<ele>609.354</ele>
<time>2022-05-27T14:41:08Z</time>
</trkpt>
<trkpt lat="47.75909" lon="11.162026">
<ele>609.354</ele>
<time>2022-05-27T14:41:09Z</time>
</trkpt>
<trkpt lat="47.759144" lon="11.16203">
<ele>609.108</ele>
<time>2022-05-27T14:41:10Z</time>
</trkpt>
<trkpt lat="47.759197" lon="11.162035">
<ele>608.915</ele>
<time>2022-05-27T14:41:11Z</time>
</trkpt>
<trkpt lat="47.759247" lon="11.162037">
<ele>608.761</ele>
<time>2022-05-27T14:41:12Z</time>
</trkpt>
<trkpt lat="47.7593" lon="11.162037">
<ele>608.658</ele>
<time>2022-05-27T14:41:14Z</time>
</trkpt>
<trkpt lat="47.759415" lon="11.16202">
<ele>608.465</ele>
<time>2022-05-27T14:41:16Z</time>
</trkpt>
<trkpt lat="47.759521" lon="11.161995">
<ele>608.129</ele>
<time>2022-05-27T14:41:17Z</time>
</trkpt>
<trkpt lat="47.759575" lon="11.161983">
<ele>607.857</ele>
<time>2022-05-27T14:41:18Z</time>
</trkpt>
<trkpt lat="47.759632" lon="11.16197">
<ele>607.682</ele>
<time>2022-05-27T14:41:19Z</time>
</trkpt>
<trkpt lat="47.759693" lon="11.161955">
<ele>607.558</ele>
<time>2022-05-27T14:41:21Z</time>
</trkpt>
<trkpt lat="47.759796" lon="11.161919">
<ele>607.41</ele>
<time>2022-05-27T14:41:22Z</time>
</trkpt>
<trkpt lat="47.759846" lon="11.161901">
<ele>607.366</ele>
<time>2022-05-27T14:41:23Z</time>
</trkpt>
<trkpt lat="47.759888" lon="11.161881">
<ele>607.127</ele>
<time>2022-05-27T14:41:25Z</time>
</trkpt>
<trkpt lat="47.759933" lon="11.161861">
<ele>606.953</ele>
<time>2022-05-27T14:41:26Z</time>
</trkpt>
<trkpt lat="47.759979" lon="11.161843">
<ele>606.81</ele>
<time>2022-05-27T14:41:27Z</time>
</trkpt>
<trkpt lat="47.760059" lon="11.161804">
<ele>606.599</ele>
<time>2022-05-27T14:41:28Z</time>
</trkpt>
<trkpt lat="47.760094" lon="11.161797">
<ele>606.528</ele>
<time>2022-05-27T14:41:30Z</time>
</trkpt>
<trkpt lat="47.76012" lon="11.161797">
<ele>606.481</ele>
<time>2022-05-27T14:41:31Z</time>
</trkpt>
<trkpt lat="47.760181" lon="11.161806">
<ele>606.458</ele>
<time>2022-05-27T14:41:32Z</time>
</trkpt>
<trkpt lat="47.760212" lon="11.16181">
<ele>606.458</ele>
<time>2022-05-27T14:41:33Z</time>
</trkpt>
<trkpt lat="47.760242" lon="11.161806">
<ele>606.458</ele>
<time>2022-05-27T14:41:35Z</time>
</trkpt>
<trkpt lat="47.760307" lon="11.161798">
<ele>606.458</ele>
<time>2022-05-27T14:41:37Z</time>
</trkpt>
<trkpt lat="47.760345" lon="11.161796">
<ele>606.182</ele>
<time>2022-05-27T14:41:38Z</time>
</trkpt>
<trkpt lat="47.760429" lon="11.161775">
<ele>605.79</ele>
<time>2022-05-27T14:41:39Z</time>
</trkpt>
<trkpt lat="47.760471" lon="11.16176">
<ele>605.677</ele>
<time>2022-05-27T14:41:40Z</time>
</trkpt>
<trkpt lat="47.760509" lon="11.161741">
<ele>605.598</ele>
<time>2022-05-27T14:41:41Z</time>
</trkpt>
<trkpt lat="47.760551" lon="11.161722">
<ele>605.55</ele>
<time>2022-05-27T14:41:42Z</time>
</trkpt>
<trkpt lat="47.760597" lon="11.161698">
<ele>605.514</ele>
<time>2022-05-27T14:41:44Z</time>
</trkpt>
<trkpt lat="47.760689" lon="11.161643">
<ele>605.492</ele>
<time>2022-05-27T14:41:45Z</time>
</trkpt>
<trkpt lat="47.760735" lon="11.161617">
<ele>605.493</ele>
<time>2022-05-27T14:41:46Z</time>
</trkpt>
<trkpt lat="47.760784" lon="11.161592">
<ele>605.493</ele>
<time>2022-05-27T14:41:47Z</time>
</trkpt>
<trkpt lat="47.760834" lon="11.161567">
<ele>605.492</ele>
<time>2022-05-27T14:41:48Z</time>
</trkpt>
<trkpt lat="47.760883" lon="11.161542">
<ele>605.492</ele>
<time>2022-05-27T14:41:50Z</time>
</trkpt>
<trkpt lat="47.760979" lon="11.161484">
<ele>605.248</ele>
<time>2022-05-27T14:41:51Z</time>
</trkpt>
<trkpt lat="47.761028" lon="11.161454">
<ele>605.058</ele>
<time>2022-05-27T14:41:52Z</time>
</trkpt>
<trkpt lat="47.761074" lon="11.161425">
<ele>604.927</ele>
<time>2022-05-27T14:41:53Z</time>
</trkpt>
<trkpt lat="47.76112" lon="11.161393">
<ele>604.787</ele>
<time>2022-05-27T14:41:55Z</time>
</trkpt>
<trkpt lat="47.761166" lon="11.16136">
<ele>604.681</ele>
<time>2022-05-27T14:41:56Z</time>
</trkpt>
<trkpt lat="47.761253" lon="11.16131">
<ele>604.552</ele>
<time>2022-05-27T14:41:57Z</time>
</trkpt>
<trkpt lat="47.761295" lon="11.161283">
<ele>604.527</ele>
<time>2022-05-27T14:41:58Z</time>
</trkpt>
<trkpt lat="47.76133" lon="11.161259">
<ele>604.527</ele>
<time>2022-05-27T14:41:59Z</time>
</trkpt>
<trkpt lat="47.761364" lon="11.161243">
<ele>604.528</ele>
<time>2022-05-27T14:42:00Z</time>
</trkpt>
<trkpt lat="47.761391" lon="11.161228">
<ele>604.528</ele>
<time>2022-05-27T14:42:01Z</time>
</trkpt>
<trkpt lat="47.761421" lon="11.161209">
<ele>604.335</ele>
<time>2022-05-27T14:42:02Z</time>
</trkpt>
<trkpt lat="47.761436" lon="11.16119">
<ele>604.187</ele>
<time>2022-05-27T14:42:03Z</time>
</trkpt>
<trkpt lat="47.761456" lon="11.16117">
<ele>604.041</ele>
<time>2022-05-27T14:42:04Z</time>
</trkpt>
<trkpt lat="47.761482" lon="11.161148">
<ele>603.916</ele>
<time>2022-05-27T14:42:05Z</time>
</trkpt>
<trkpt lat="47.761509" lon="11.16113">
<ele>603.812</ele>
<time>2022-05-27T14:42:07Z</time>
</trkpt>
<trkpt lat="47.761566" lon="11.161096">
<ele>603.675</ele>
<time>2022-05-27T14:42:08Z</time>
</trkpt>
<trkpt lat="47.7616" lon="11.161083">
<ele>603.65</ele>
<time>2022-05-27T14:42:09Z</time>
</trkpt>
<trkpt lat="47.761642" lon="11.161069">
<ele>603.65</ele>
<time>2022-05-27T14:42:10Z</time>
</trkpt>
<trkpt lat="47.761681" lon="11.161052">
<ele>603.65</ele>
<time>2022-05-27T14:42:12Z</time>
</trkpt>
<trkpt lat="47.761719" lon="11.161036">
<ele>603.65</ele>
<time>2022-05-27T14:42:13Z</time>
</trkpt>
<trkpt lat="47.76181" lon="11.161005">
<ele>603.65</ele>
<time>2022-05-27T14:42:14Z</time>
</trkpt>
<trkpt lat="47.761856" lon="11.160987">
<ele>603.65</ele>
<time>2022-05-27T14:42:16Z</time>
</trkpt>
<trkpt lat="47.761902" lon="11.160968">
<ele>603.65</ele>
<time>2022-05-27T14:42:17Z</time>
</trkpt>
<trkpt lat="47.761944" lon="11.160952">
<ele>603.65</ele>
<time>2022-05-27T14:42:18Z</time>
</trkpt>
<trkpt lat="47.762039" lon="11.160916">
<ele>603.65</ele>
<time>2022-05-27T14:42:19Z</time>
</trkpt>
<trkpt lat="47.762089" lon="11.160891">
<ele>603.65</ele>
<time>2022-05-27T14:42:20Z</time>
</trkpt>
<trkpt lat="47.762138" lon="11.16087">
<ele>603.65</ele>
<time>2022-05-27T14:42:22Z</time>
</trkpt>
<trkpt lat="47.76223" lon="11.160828">
<ele>603.432</ele>
<time>2022-05-27T14:42:23Z</time>
</trkpt>
<trkpt lat="47.762276" lon="11.160807">
<ele>603.227</ele>
<time>2022-05-27T14:42:24Z</time>
</trkpt>
<trkpt lat="47.762325" lon="11.160789">
<ele>603.061</ele>
<time>2022-05-27T14:42:25Z</time>
</trkpt>
<trkpt lat="47.762375" lon="11.160777">
<ele>602.93</ele>
<time>2022-05-27T14:42:26Z</time>
</trkpt>
<trkpt lat="47.762428" lon="11.160773">
<ele>602.848</ele>
<time>2022-05-27T14:42:28Z</time>
</trkpt>
<trkpt lat="47.762478" lon="11.16078">
<ele>602.532</ele>
<time>2022-05-27T14:42:29Z</time>
</trkpt>
<trkpt lat="47.762577" lon="11.160782">
<ele>602.088</ele>
<time>2022-05-27T14:42:31Z</time>
</trkpt>
<trkpt lat="47.762688" lon="11.160763">
<ele>601.859</ele>
<time>2022-05-27T14:42:32Z</time>
</trkpt>
<trkpt lat="47.762733" lon="11.160753">
<ele>601.8</ele>
<time>2022-05-27T14:42:34Z</time>
</trkpt>
<trkpt lat="47.762779" lon="11.160761">
<ele>601.513</ele>
<time>2022-05-27T14:42:35Z</time>
</trkpt>
<trkpt lat="47.762859" lon="11.16082">
<ele>601.132</ele>
<time>2022-05-27T14:42:36Z</time>
</trkpt>
<trkpt lat="47.76289" lon="11.160851">
<ele>601.005</ele>
<time>2022-05-27T14:42:38Z</time>
</trkpt>
<trkpt lat="47.762947" lon="11.160883">
<ele>600.836</ele>
<time>2022-05-27T14:42:40Z</time>
</trkpt>
<trkpt lat="47.76297" lon="11.160883">
<ele>600.755</ele>
<time>2022-05-27T14:42:41Z</time>
</trkpt>
<trkpt lat="47.76297" lon="11.160885">
<ele>600.755</ele>
<time>2022-05-27T14:42:45Z</time>
</trkpt>
<trkpt lat="47.762997" lon="11.160895">
<ele>600.755</ele>
<time>2022-05-27T14:42:46Z</time>
</trkpt>
<trkpt lat="47.76302" lon="11.160895">
<ele>600.755</ele>
<time>2022-05-27T14:42:47Z</time>
</trkpt>
<trkpt lat="47.763042" lon="11.160889">
<ele>600.755</ele>
<time>2022-05-27T14:42:48Z</time>
</trkpt>
<trkpt lat="47.763065" lon="11.160873">
<ele>600.755</ele>
<time>2022-05-27T14:42:50Z</time>
</trkpt>
<trkpt lat="47.763084" lon="11.160845">
<ele>600.387</ele>
<time>2022-05-27T14:42:51Z</time>
</trkpt>
<trkpt lat="47.763103" lon="11.160767">
<ele>600.157</ele>
<time>2022-05-27T14:42:53Z</time>
</trkpt>
<trkpt lat="47.763123" lon="11.160662">
<ele>600.604</ele>
<time>2022-05-27T14:42:55Z</time>
</trkpt>
<trkpt lat="47.763138" lon="11.160605">
<ele>600.757</ele>
<time>2022-05-27T14:42:56Z</time>
</trkpt>
<trkpt lat="47.763149" lon="11.160549">
<ele>600.871</ele>
<time>2022-05-27T14:42:57Z</time>
</trkpt>
<trkpt lat="47.763176" lon="11.160443">
<ele>601.027</ele>
<time>2022-05-27T14:42:58Z</time>
</trkpt>
<trkpt lat="47.763191" lon="11.160386">
<ele>601.081</ele>
<time>2022-05-27T14:43:00Z</time>
</trkpt>
<trkpt lat="47.763222" lon="11.160278">
<ele>601.106</ele>
<time>2022-05-27T14:43:01Z</time>
</trkpt>
<trkpt lat="47.763245" lon="11.160236">
<ele>601.106</ele>
<time>2022-05-27T14:43:03Z</time>
</trkpt>
<trkpt lat="47.763268" lon="11.160201">
<ele>601.106</ele>
<time>2022-05-27T14:43:04Z</time>
</trkpt>
<trkpt lat="47.763325" lon="11.160155">
<ele>601.106</ele>
<time>2022-05-27T14:43:06Z</time>
</trkpt>
<trkpt lat="47.763378" lon="11.160136">
<ele>601.106</ele>
<time>2022-05-27T14:43:07Z</time>
</trkpt>
<trkpt lat="47.763401" lon="11.160124">
<ele>601.106</ele>
<time>2022-05-27T14:43:08Z</time>
</trkpt>
<trkpt lat="47.763428" lon="11.160105">
<ele>601.106</ele>
<time>2022-05-27T14:43:10Z</time>
</trkpt>
<trkpt lat="47.763451" lon="11.160089">
<ele>601.106</ele>
<time>2022-05-27T14:43:11Z</time>
</trkpt>
<trkpt lat="47.763474" lon="11.160065">
<ele>601.106</ele>
<time>2022-05-27T14:43:12Z</time>
</trkpt>
<trkpt lat="47.763504" lon="11.160044">
<ele>601.106</ele>
<time>2022-05-27T14:43:13Z</time>
</trkpt>
<trkpt lat="47.763565" lon="11.160007">
<ele>601.106</ele>
<time>2022-05-27T14:43:14Z</time>
</trkpt>
<trkpt lat="47.763599" lon="11.159992">
<ele>601.106</ele>
<time>2022-05-27T14:43:15Z</time>
</trkpt>
<trkpt lat="47.763634" lon="11.159973">
<ele>601.106</ele>
<time>2022-05-27T14:43:16Z</time>
</trkpt>
<trkpt lat="47.763668" lon="11.159957">
<ele>601.106</ele>
<time>2022-05-27T14:43:17Z</time>
</trkpt>
<trkpt lat="47.76371" lon="11.159935">
<ele>601.106</ele>
<time>2022-05-27T14:43:18Z</time>
</trkpt>
<trkpt lat="47.763752" lon="11.159913">
<ele>601.106</ele>
<time>2022-05-27T14:43:19Z</time>
</trkpt>
<trkpt lat="47.763794" lon="11.159895">
<ele>601.106</ele>
<time>2022-05-27T14:43:20Z</time>
</trkpt>
<trkpt lat="47.763832" lon="11.159875">
<ele>601.106</ele>
<time>2022-05-27T14:43:21Z</time>
</trkpt>
<trkpt lat="47.763882" lon="11.159857">
<ele>601.106</ele>
<time>2022-05-27T14:43:23Z</time>
</trkpt>
<trkpt lat="47.763927" lon="11.159837">
<ele>601.106</ele>
<time>2022-05-27T14:43:24Z</time>
</trkpt>
<trkpt lat="47.763969" lon="11.159817">
<ele>601.106</ele>
<time>2022-05-27T14:43:25Z</time>
</trkpt>
<trkpt lat="47.764061" lon="11.159772">
<ele>600.664</ele>
<time>2022-05-27T14:43:26Z</time>
</trkpt>
<trkpt lat="47.764103" lon="11.159749">
<ele>600.505</ele>
<time>2022-05-27T14:43:27Z</time>
</trkpt>
<trkpt lat="47.764149" lon="11.159726">
<ele>600.376</ele>
<time>2022-05-27T14:43:28Z</time>
</trkpt>
<trkpt lat="47.764191" lon="11.159714">
<ele>600.279</ele>
<time>2022-05-27T14:43:30Z</time>
</trkpt>
<trkpt lat="47.764286" lon="11.159676">
<ele>600.164</ele>
<time>2022-05-27T14:43:31Z</time>
</trkpt>
<trkpt lat="47.764324" lon="11.159657">
<ele>600.141</ele>
<time>2022-05-27T14:43:33Z</time>
</trkpt>
<trkpt lat="47.764366" lon="11.159638">
<ele>600.141</ele>
<time>2022-05-27T14:43:34Z</time>
</trkpt>
<trkpt lat="47.764408" lon="11.159616">
<ele>600.141</ele>
<time>2022-05-27T14:43:35Z</time>
</trkpt>
<trkpt lat="47.764496" lon="11.159569">
<ele>600.141</ele>
<time>2022-05-27T14:43:37Z</time>
</trkpt>
<trkpt lat="47.76458" lon="11.159516">
<ele>600.141</ele>
<time>2022-05-27T14:43:38Z</time>
</trkpt>
<trkpt lat="47.764618" lon="11.159492">
<ele>600.141</ele>
<time>2022-05-27T14:43:40Z</time>
</trkpt>
<trkpt lat="47.764664" lon="11.159464">
<ele>600.141</ele>
<time>2022-05-27T14:43:41Z</time>
</trkpt>
<trkpt lat="47.764706" lon="11.159435">
<ele>600.141</ele>
<time>2022-05-27T14:43:42Z</time>
</trkpt>
<trkpt lat="47.764786" lon="11.159376">
<ele>600.141</ele>
<time>2022-05-27T14:43:43Z</time>
</trkpt>
<trkpt lat="47.764832" lon="11.15935">
<ele>600.141</ele>
<time>2022-05-27T14:43:44Z</time>
</trkpt>
<trkpt lat="47.764877" lon="11.15932">
<ele>600.141</ele>
<time>2022-05-27T14:43:46Z</time>
</trkpt>
<trkpt lat="47.764919" lon="11.159288">
<ele>600.141</ele>
<time>2022-05-27T14:43:47Z</time>
</trkpt>
<trkpt lat="47.764965" lon="11.159259">
<ele>600.141</ele>
<time>2022-05-27T14:43:48Z</time>
</trkpt>
<trkpt lat="47.765007" lon="11.159228">
<ele>600.141</ele>
<time>2022-05-27T14:43:49Z</time>
</trkpt>
<trkpt lat="47.765045" lon="11.1592">
<ele>600.141</ele>
<time>2022-05-27T14:43:50Z</time>
</trkpt>
<trkpt lat="47.765091" lon="11.159173">
<ele>600.141</ele>
<time>2022-05-27T14:43:51Z</time>
</trkpt>
<trkpt lat="47.765179" lon="11.159122">
<ele>600.141</ele>
<time>2022-05-27T14:43:52Z</time>
</trkpt>
<trkpt lat="47.765221" lon="11.159099">
<ele>600.141</ele>
<time>2022-05-27T14:43:54Z</time>
</trkpt>
<trkpt lat="47.765301" lon="11.159075">
<ele>600.141</ele>
<time>2022-05-27T14:43:55Z</time>
</trkpt>
<trkpt lat="47.765335" lon="11.159072">
<ele>600.141</ele>
<time>2022-05-27T14:43:56Z</time>
</trkpt>
<trkpt lat="47.765366" lon="11.159087">
<ele>600.141</ele>
<time>2022-05-27T14:43:57Z</time>
</trkpt>
<trkpt lat="47.765392" lon="11.159119">
<ele>600.141</ele>
<time>2022-05-27T14:43:58Z</time>
</trkpt>
<trkpt lat="47.765411" lon="11.15916">
<ele>600.141</ele>
<time>2022-05-27T14:44:00Z</time>
</trkpt>
<trkpt lat="47.76543" lon="11.159206">
<ele>600.141</ele>
<time>2022-05-27T14:44:01Z</time>
</trkpt>
<trkpt lat="47.765472" lon="11.159302">
<ele>600.141</ele>
<time>2022-05-27T14:44:02Z</time>
</trkpt>
<trkpt lat="47.765495" lon="11.159355">
<ele>600.141</ele>
<time>2022-05-27T14:44:03Z</time>
</trkpt>
<trkpt lat="47.765514" lon="11.159416">
<ele>600.141</ele>
<time>2022-05-27T14:44:04Z</time>
</trkpt>
<trkpt lat="47.765537" lon="11.159476">
<ele>600.141</ele>
<time>2022-05-27T14:44:06Z</time>
</trkpt>
<trkpt lat="47.765564" lon="11.159535">
<ele>600.141</ele>
<time>2022-05-27T14:44:07Z</time>
</trkpt>
<trkpt lat="47.765594" lon="11.159592">
<ele>599.87</ele>
<time>2022-05-27T14:44:08Z</time>
</trkpt>
<trkpt lat="47.765629" lon="11.159698">
<ele>599.529</ele>
<time>2022-05-27T14:44:10Z</time>
</trkpt>
<trkpt lat="47.765675" lon="11.159797">
<ele>599.357</ele>
<time>2022-05-27T14:44:12Z</time>
</trkpt>
<trkpt lat="47.765732" lon="11.159875">
<ele>599.285</ele>
<time>2022-05-27T14:44:13Z</time>
</trkpt>
<trkpt lat="47.765766" lon="11.159906">
<ele>599.264</ele>
<time>2022-05-27T14:44:14Z</time>
</trkpt>
<trkpt lat="47.765804" lon="11.159938">
<ele>599.264</ele>
<time>2022-05-27T14:44:16Z</time>
</trkpt>
<trkpt lat="47.765884" lon="11.159982">
<ele>599.264</ele>
<time>2022-05-27T14:44:17Z</time>
</trkpt>
<trkpt lat="47.765923" lon="11.159986">
<ele>599.264</ele>
<time>2022-05-27T14:44:18Z</time>
</trkpt>
<trkpt lat="47.765965" lon="11.159995">
<ele>599.264</ele>
<time>2022-05-27T14:44:19Z</time>
</trkpt>
<trkpt lat="47.766006" lon="11.16001">
<ele>599.264</ele>
<time>2022-05-27T14:44:21Z</time>
</trkpt>
<trkpt lat="47.766041" lon="11.160026">
<ele>599.264</ele>
<time>2022-05-27T14:44:22Z</time>
</trkpt>
<trkpt lat="47.766113" lon="11.160047">
<ele>599.264</ele>
<time>2022-05-27T14:44:24Z</time>
</trkpt>
<trkpt lat="47.766186" lon="11.160071">
<ele>599.264</ele>
<time>2022-05-27T14:44:25Z</time>
</trkpt>
<trkpt lat="47.76622" lon="11.160082">
<ele>599.519</ele>
<time>2022-05-27T14:44:26Z</time>
</trkpt>
<trkpt lat="47.766258" lon="11.160092">
<ele>599.499</ele>
<time>2022-05-27T14:44:28Z</time>
</trkpt>
<trkpt lat="47.766338" lon="11.16014">
<ele>599.374</ele>
<time>2022-05-27T14:44:30Z</time>
</trkpt>
<trkpt lat="47.766369" lon="11.160162">
<ele>599.325</ele>
<time>2022-05-27T14:44:31Z</time>
</trkpt>
<trkpt lat="47.766453" lon="11.160183">
<ele>599.249</ele>
<time>2022-05-27T14:44:32Z</time>
</trkpt>
<trkpt lat="47.766495" lon="11.160187">
<ele>599.22</ele>
<time>2022-05-27T14:44:33Z</time>
</trkpt>
<trkpt lat="47.766541" lon="11.160199">
<ele>599.2</ele>
<time>2022-05-27T14:44:34Z</time>
</trkpt>
<trkpt lat="47.76659" lon="11.160208">
<ele>599.176</ele>
<time>2022-05-27T14:44:35Z</time>
</trkpt>
<trkpt lat="47.766636" lon="11.160222">
<ele>599.177</ele>
<time>2022-05-27T14:44:36Z</time>
</trkpt>
<trkpt lat="47.766685" lon="11.160235">
<ele>599.177</ele>
<time>2022-05-27T14:44:37Z</time>
</trkpt>
<trkpt lat="47.766735" lon="11.160247">
<ele>599.177</ele>
<time>2022-05-27T14:44:39Z</time>
</trkpt>
<trkpt lat="47.766823" lon="11.160262">
<ele>599.177</ele>
<time>2022-05-27T14:44:40Z</time>
</trkpt>
<trkpt lat="47.766869" lon="11.160275">
<ele>599.176</ele>
<time>2022-05-27T14:44:41Z</time>
</trkpt>
<trkpt lat="47.766918" lon="11.160283">
<ele>599.177</ele>
<time>2022-05-27T14:44:43Z</time>
</trkpt>
<trkpt lat="47.766964" lon="11.160273">
<ele>599.177</ele>
<time>2022-05-27T14:44:44Z</time>
</trkpt>
<trkpt lat="47.767048" lon="11.160208">
<ele>599.177</ele>
<time>2022-05-27T14:44:46Z</time>
</trkpt>
<trkpt lat="47.767132" lon="11.160133">
<ele>599.176</ele>
<time>2022-05-27T14:44:48Z</time>
</trkpt>
<trkpt lat="47.767216" lon="11.160053">
<ele>599.703</ele>
<time>2022-05-27T14:44:49Z</time>
</trkpt>
<trkpt lat="47.767254" lon="11.160013">
<ele>599.88</ele>
<time>2022-05-27T14:44:50Z</time>
</trkpt>
<trkpt lat="47.767296" lon="11.15999">
<ele>600.008</ele>
<time>2022-05-27T14:44:52Z</time>
</trkpt>
<trkpt lat="47.76738" lon="11.160017">
<ele>599.803</ele>
<time>2022-05-27T14:44:53Z</time>
</trkpt>
<trkpt lat="47.767418" lon="11.160052">
<ele>599.722</ele>
<time>2022-05-27T14:44:54Z</time>
</trkpt>
<trkpt lat="47.767452" lon="11.160095">
<ele>599.638</ele>
<time>2022-05-27T14:44:56Z</time>
</trkpt>
<trkpt lat="47.767483" lon="11.160142">
<ele>599.59</ele>
<time>2022-05-27T14:44:57Z</time>
</trkpt>
<trkpt lat="47.76754" lon="11.160222">
<ele>599.442</ele>
<time>2022-05-27T14:44:58Z</time>
</trkpt>
<trkpt lat="47.76757" lon="11.160258">
<ele>599.614</ele>
<time>2022-05-27T14:45:00Z</time>
</trkpt>
<trkpt lat="47.767597" lon="11.160292">
<ele>599.77</ele>
<time>2022-05-27T14:45:01Z</time>
</trkpt>
<trkpt lat="47.76762" lon="11.160327">
<ele>599.907</ele>
<time>2022-05-27T14:45:02Z</time>
</trkpt>
<trkpt lat="47.767647" lon="11.160363">
<ele>600.011</ele>
<time>2022-05-27T14:45:03Z</time>
</trkpt>
<trkpt lat="47.767696" lon="11.16043">
<ele>600.354</ele>
<time>2022-05-27T14:45:04Z</time>
</trkpt>
<trkpt lat="47.767715" lon="11.160459">
<ele>600.595</ele>
<time>2022-05-27T14:45:05Z</time>
</trkpt>
<trkpt lat="47.767746" lon="11.160488">
<ele>601.036</ele>
<time>2022-05-27T14:45:06Z</time>
</trkpt>
<trkpt lat="47.767776" lon="11.16052">
<ele>601.389</ele>
<time>2022-05-27T14:45:07Z</time>
</trkpt>
<trkpt lat="47.767807" lon="11.160555">
<ele>601.64</ele>
<time>2022-05-27T14:45:08Z</time>
</trkpt>
<trkpt lat="47.767841" lon="11.160588">
<ele>602.121</ele>
<time>2022-05-27T14:45:10Z</time>
</trkpt>
<trkpt lat="47.767902" lon="11.160639">
<ele>602.777</ele>
<time>2022-05-27T14:45:11Z</time>
</trkpt>
<trkpt lat="47.767933" lon="11.160652">
<ele>603.002</ele>
<time>2022-05-27T14:45:13Z</time>
</trkpt>
<trkpt lat="47.767994" lon="11.160644">
<ele>603.134</ele>
<time>2022-05-27T14:45:14Z</time>
</trkpt>
<trkpt lat="47.768024" lon="11.160628">
<ele>603.185</ele>
<time>2022-05-27T14:45:16Z</time>
</trkpt>
<trkpt lat="47.768089" lon="11.160584">
<ele>603.211</ele>
<time>2022-05-27T14:45:17Z</time>
</trkpt>
<trkpt lat="47.768124" lon="11.160557">
<ele>603.46</ele>
<time>2022-05-27T14:45:18Z</time>
</trkpt>
<trkpt lat="47.76815" lon="11.160523">
<ele>603.658</ele>
<time>2022-05-27T14:45:19Z</time>
</trkpt>
<trkpt lat="47.768177" lon="11.16049">
<ele>603.806</ele>
<time>2022-05-27T14:45:21Z</time>
</trkpt>
<trkpt lat="47.768242" lon="11.160423">
<ele>603.989</ele>
<time>2022-05-27T14:45:22Z</time>
</trkpt>
<trkpt lat="47.768269" lon="11.16039">
<ele>604.033</ele>
<time>2022-05-27T14:45:23Z</time>
</trkpt>
<trkpt lat="47.768303" lon="11.16036">
<ele>604.066</ele>
<time>2022-05-27T14:45:25Z</time>
</trkpt>
<trkpt lat="47.768372" lon="11.160292">
<ele>604.525</ele>
<time>2022-05-27T14:45:26Z</time>
</trkpt>
<trkpt lat="47.768398" lon="11.160256">
<ele>604.689</ele>
<time>2022-05-27T14:45:28Z</time>
</trkpt>
<trkpt lat="47.768467" lon="11.160193">
<ele>604.914</ele>
<time>2022-05-27T14:45:29Z</time>
</trkpt>
<trkpt lat="47.768505" lon="11.16017">
<ele>604.987</ele>
<time>2022-05-27T14:45:31Z</time>
</trkpt>
<trkpt lat="47.768543" lon="11.160136">
<ele>605.032</ele>
<time>2022-05-27T14:45:32Z</time>
</trkpt>
<trkpt lat="47.768581" lon="11.1601">
<ele>605.054</ele>
<time>2022-05-27T14:45:33Z</time>
</trkpt>
<trkpt lat="47.768654" lon="11.160031">
<ele>605.311</ele>
<time>2022-05-27T14:45:34Z</time>
</trkpt>
<trkpt lat="47.768692" lon="11.16">
<ele>605.561</ele>
<time>2022-05-27T14:45:35Z</time>
</trkpt>
<trkpt lat="47.76873" lon="11.159952">
<ele>605.755</ele>
<time>2022-05-27T14:45:36Z</time>
</trkpt>
<trkpt lat="47.768768" lon="11.159905">
<ele>605.913</ele>
<time>2022-05-27T14:45:38Z</time>
</trkpt>
<trkpt lat="47.768845" lon="11.159835">
<ele>606.114</ele>
<time>2022-05-27T14:45:39Z</time>
</trkpt>
<trkpt lat="47.768887" lon="11.159805">
<ele>606.168</ele>
<time>2022-05-27T14:45:41Z</time>
</trkpt>
<trkpt lat="47.768959" lon="11.159747">
<ele>606.195</ele>
<time>2022-05-27T14:45:42Z</time>
</trkpt>
<trkpt lat="47.769001" lon="11.159723">
<ele>606.195</ele>
<time>2022-05-27T14:45:44Z</time>
</trkpt>
<trkpt lat="47.769043" lon="11.159705">
<ele>606.195</ele>
<time>2022-05-27T14:45:45Z</time>
</trkpt>
<trkpt lat="47.769127" lon="11.15967">
<ele>606.195</ele>
<time>2022-05-27T14:45:47Z</time>
</trkpt>
<trkpt lat="47.769169" lon="11.159657">
<ele>606.525</ele>
<time>2022-05-27T14:45:48Z</time>
</trkpt>
<trkpt lat="47.769211" lon="11.15965">
<ele>606.517</ele>
<time>2022-05-27T14:45:49Z</time>
</trkpt>
<trkpt lat="47.769295" lon="11.159648">
<ele>606.493</ele>
<time>2022-05-27T14:45:50Z</time>
</trkpt>
<trkpt lat="47.769337" lon="11.15965">
<ele>606.476</ele>
<time>2022-05-27T14:45:52Z</time>
</trkpt>
<trkpt lat="47.769421" lon="11.159663">
<ele>606.434</ele>
<time>2022-05-27T14:45:53Z</time>
</trkpt>
<trkpt lat="47.76947" lon="11.159678">
<ele>606.596</ele>
<time>2022-05-27T14:45:54Z</time>
</trkpt>
<trkpt lat="47.76952" lon="11.159686">
<ele>606.745</ele>
<time>2022-05-27T14:45:55Z</time>
</trkpt>
<trkpt lat="47.769569" lon="11.159688">
<ele>606.859</ele>
<time>2022-05-27T14:45:56Z</time>
</trkpt>
<trkpt lat="47.769623" lon="11.159678">
<ele>606.925</ele>
<time>2022-05-27T14:45:58Z</time>
</trkpt>
<trkpt lat="47.769714" lon="11.159632">
<ele>607.131</ele>
<time>2022-05-27T14:45:59Z</time>
</trkpt>
<trkpt lat="47.76976" lon="11.159609">
<ele>607.192</ele>
<time>2022-05-27T14:46:01Z</time>
</trkpt>
<trkpt lat="47.769844" lon="11.159569">
<ele>607.248</ele>
<time>2022-05-27T14:46:02Z</time>
</trkpt>
<trkpt lat="47.769882" lon="11.159556">
<ele>607.248</ele>
<time>2022-05-27T14:46:03Z</time>
</trkpt>
<trkpt lat="47.76992" lon="11.15955">
<ele>607.248</ele>
<time>2022-05-27T14:46:04Z</time>
</trkpt>
<trkpt lat="47.769962" lon="11.159535">
<ele>607.248</ele>
<time>2022-05-27T14:46:06Z</time>
</trkpt>
<trkpt lat="47.769997" lon="11.159518">
<ele>607.547</ele>
<time>2022-05-27T14:46:07Z</time>
</trkpt>
<trkpt lat="47.770061" lon="11.159493">
<ele>607.966</ele>
<time>2022-05-27T14:46:08Z</time>
</trkpt>
<trkpt lat="47.770092" lon="11.159478">
<ele>608.109</ele>
<time>2022-05-27T14:46:09Z</time>
</trkpt>
<trkpt lat="47.770126" lon="11.159467">
<ele>608.198</ele>
<time>2022-05-27T14:46:11Z</time>
</trkpt>
<trkpt lat="47.770195" lon="11.159443">
<ele>608.726</ele>
<time>2022-05-27T14:46:13Z</time>
</trkpt>
<trkpt lat="47.770267" lon="11.159405">
<ele>608.995</ele>
<time>2022-05-27T14:46:15Z</time>
</trkpt>
<trkpt lat="47.770294" lon="11.159395">
<ele>609.332</ele>
<time>2022-05-27T14:46:16Z</time>
</trkpt>
<trkpt lat="47.770359" lon="11.15934">
<ele>609.757</ele>
<time>2022-05-27T14:46:17Z</time>
</trkpt>
<trkpt lat="47.770386" lon="11.159305">
<ele>610.139</ele>
<time>2022-05-27T14:46:19Z</time>
</trkpt>
<trkpt lat="47.770416" lon="11.159268">
<ele>610.43</ele>
<time>2022-05-27T14:46:20Z</time>
</trkpt>
<trkpt lat="47.770466" lon="11.1592">
<ele>610.813</ele>
<time>2022-05-27T14:46:22Z</time>
</trkpt>
<trkpt lat="47.770493" lon="11.159163">
<ele>611.222</ele>
<time>2022-05-27T14:46:23Z</time>
</trkpt>
<trkpt lat="47.770546" lon="11.159088">
<ele>611.694</ele>
<time>2022-05-27T14:46:24Z</time>
</trkpt>
<trkpt lat="47.770569" lon="11.159052">
<ele>611.866</ele>
<time>2022-05-27T14:46:26Z</time>
</trkpt>
<trkpt lat="47.770596" lon="11.159014">
<ele>612.224</ele>
<time>2022-05-27T14:46:27Z</time>
</trkpt>
<trkpt lat="47.770645" lon="11.158942">
<ele>612.731</ele>
<time>2022-05-27T14:46:28Z</time>
</trkpt>
<trkpt lat="47.770672" lon="11.158909">
<ele>612.89</ele>
<time>2022-05-27T14:46:29Z</time>
</trkpt>
<trkpt lat="47.770695" lon="11.158869">
<ele>613.043</ele>
<time>2022-05-27T14:46:31Z</time>
</trkpt>
<trkpt lat="47.770744" lon="11.15879">
<ele>613.124</ele>
<time>2022-05-27T14:46:32Z</time>
</trkpt>
<trkpt lat="47.770763" lon="11.158748">
<ele>613.13</ele>
<time>2022-05-27T14:46:34Z</time>
</trkpt>
<trkpt lat="47.770809" lon="11.158676">
<ele>613.51</ele>
<time>2022-05-27T14:46:35Z</time>
</trkpt>
<trkpt lat="47.770832" lon="11.15864">
<ele>613.663</ele>
<time>2022-05-27T14:46:36Z</time>
</trkpt>
<trkpt lat="47.770855" lon="11.158601">
<ele>613.782</ele>
<time>2022-05-27T14:46:37Z</time>
</trkpt>
<trkpt lat="47.770882" lon="11.158566">
<ele>613.874</ele>
<time>2022-05-27T14:46:38Z</time>
</trkpt>
<trkpt lat="47.770905" lon="11.158527">
<ele>613.942</ele>
<time>2022-05-27T14:46:39Z</time>
</trkpt>
<trkpt lat="47.770924" lon="11.158494">
<ele>613.987</ele>
<time>2022-05-27T14:46:40Z</time>
</trkpt>
<trkpt lat="47.77095" lon="11.158466">
<ele>614.009</ele>
<time>2022-05-27T14:46:42Z</time>
</trkpt>
<trkpt lat="47.771008" lon="11.158419">
<ele>614.009</ele>
<time>2022-05-27T14:46:44Z</time>
</trkpt>
<trkpt lat="47.771038" lon="11.15839">
<ele>614.241</ele>
<time>2022-05-27T14:46:45Z</time>
</trkpt>
<trkpt lat="47.771103" lon="11.158332">
<ele>614.651</ele>
<time>2022-05-27T14:46:46Z</time>
</trkpt>
<trkpt lat="47.771137" lon="11.158303">
<ele>614.803</ele>
<time>2022-05-27T14:46:47Z</time>
</trkpt>
<trkpt lat="47.771175" lon="11.158276">
<ele>614.915</ele>
<time>2022-05-27T14:46:48Z</time>
</trkpt>
<trkpt lat="47.771214" lon="11.158247">
<ele>614.993</ele>
<time>2022-05-27T14:46:49Z</time>
</trkpt>
<trkpt lat="47.771252" lon="11.158225">
<ele>615.039</ele>
<time>2022-05-27T14:46:50Z</time>
</trkpt>
<trkpt lat="47.771286" lon="11.158205">
<ele>615.062</ele>
<time>2022-05-27T14:46:52Z</time>
</trkpt>
<trkpt lat="47.771358" lon="11.158156">
<ele>615.062</ele>
<time>2022-05-27T14:46:53Z</time>
</trkpt>
<trkpt lat="47.771389" lon="11.158134">
<ele>615.062</ele>
<time>2022-05-27T14:46:54Z</time>
</trkpt>
<trkpt lat="47.771416" lon="11.158125">
<ele>615.062</ele>
<time>2022-05-27T14:46:55Z</time>
</trkpt>
<trkpt lat="47.771454" lon="11.158127">
<ele>615.062</ele>
<time>2022-05-27T14:46:56Z</time>
</trkpt>
<trkpt lat="47.771484" lon="11.15814">
<ele>615.062</ele>
<time>2022-05-27T14:46:58Z</time>
</trkpt>
<trkpt lat="47.771515" lon="11.158169">
<ele>615.062</ele>
<time>2022-05-27T14:46:59Z</time>
</trkpt>
<trkpt lat="47.771545" lon="11.158207">
<ele>615.062</ele>
<time>2022-05-27T14:47:00Z</time>
</trkpt>
<trkpt lat="47.771606" lon="11.15829">
<ele>615.062</ele>
<time>2022-05-27T14:47:01Z</time>
</trkpt>
<trkpt lat="47.771641" lon="11.158333">
<ele>615.062</ele>
<time>2022-05-27T14:47:02Z</time>
</trkpt>
<trkpt lat="47.771671" lon="11.158373">
<ele>615.062</ele>
<time>2022-05-27T14:47:03Z</time>
</trkpt>
<trkpt lat="47.771702" lon="11.158417">
<ele>615.062</ele>
<time>2022-05-27T14:47:04Z</time>
</trkpt>
<trkpt lat="47.771736" lon="11.158462">
<ele>615.062</ele>
<time>2022-05-27T14:47:05Z</time>
</trkpt>
<trkpt lat="47.771763" lon="11.158504">
<ele>615.062</ele>
<time>2022-05-27T14:47:07Z</time>
</trkpt>
<trkpt lat="47.771824" lon="11.158584">
<ele>615.062</ele>
<time>2022-05-27T14:47:08Z</time>
</trkpt>
<trkpt lat="47.771858" lon="11.158624">
<ele>615.062</ele>
<time>2022-05-27T14:47:09Z</time>
</trkpt>
<trkpt lat="47.771893" lon="11.158664">
<ele>615.062</ele>
<time>2022-05-27T14:47:10Z</time>
</trkpt>
<trkpt lat="47.771927" lon="11.158702">
<ele>615.062</ele>
<time>2022-05-27T14:47:11Z</time>
</trkpt>
<trkpt lat="47.771961" lon="11.158737">
<ele>615.062</ele>
<time>2022-05-27T14:47:13Z</time>
</trkpt>
<trkpt lat="47.772034" lon="11.158809">
<ele>615.062</ele>
<time>2022-05-27T14:47:14Z</time>
</trkpt>
<trkpt lat="47.772068" lon="11.158845">
<ele>615.062</ele>
<time>2022-05-27T14:47:15Z</time>
</trkpt>
<trkpt lat="47.772099" lon="11.158887">
<ele>615.062</ele>
<time>2022-05-27T14:47:16Z</time>
</trkpt>
<trkpt lat="47.772133" lon="11.158925">
<ele>615.062</ele>
<time>2022-05-27T14:47:17Z</time>
</trkpt>
<trkpt lat="47.772167" lon="11.158961">
<ele>615.062</ele>
<time>2022-05-27T14:47:18Z</time>
</trkpt>
<trkpt lat="47.772202" lon="11.159003">
<ele>615.062</ele>
<time>2022-05-27T14:47:19Z</time>
</trkpt>
<trkpt lat="47.772236" lon="11.159043">
<ele>615.062</ele>
<time>2022-05-27T14:47:20Z</time>
</trkpt>
<trkpt lat="47.772266" lon="11.159085">
<ele>615.062</ele>
<time>2022-05-27T14:47:21Z</time>
</trkpt>
<trkpt lat="47.772301" lon="11.159124">
<ele>615.304</ele>
<time>2022-05-27T14:47:22Z</time>
</trkpt>
<trkpt lat="47.772339" lon="11.159163">
<ele>615.497</ele>
<time>2022-05-27T14:47:23Z</time>
</trkpt>
<trkpt lat="47.772373" lon="11.159198">
<ele>615.627</ele>
<time>2022-05-27T14:47:24Z</time>
</trkpt>
<trkpt lat="47.772408" lon="11.159231">
<ele>615.768</ele>
<time>2022-05-27T14:47:25Z</time>
</trkpt>
<trkpt lat="47.772442" lon="11.159262">
<ele>615.877</ele>
<time>2022-05-27T14:47:26Z</time>
</trkpt>
<trkpt lat="47.772472" lon="11.159286">
<ele>615.953</ele>
<time>2022-05-27T14:47:27Z</time>
</trkpt>
<trkpt lat="47.772507" lon="11.159295">
<ele>616.004</ele>
<time>2022-05-27T14:47:28Z</time>
</trkpt>
<trkpt lat="47.772537" lon="11.15929">
<ele>616.028</ele>
<time>2022-05-27T14:47:30Z</time>
</trkpt>
<trkpt lat="47.772614" lon="11.15925">
<ele>616.268</ele>
<time>2022-05-27T14:47:32Z</time>
</trkpt>
<trkpt lat="47.772682" lon="11.159177">
<ele>616.623</ele>
<time>2022-05-27T14:47:33Z</time>
</trkpt>
<trkpt lat="47.772713" lon="11.159131">
<ele>616.731</ele>
<time>2022-05-27T14:47:34Z</time>
</trkpt>
<trkpt lat="47.772743" lon="11.159085">
<ele>616.849</ele>
<time>2022-05-27T14:47:36Z</time>
</trkpt>
<trkpt lat="47.772793" lon="11.158984">
<ele>616.974</ele>
<time>2022-05-27T14:47:37Z</time>
</trkpt>
<trkpt lat="47.772816" lon="11.158938">
<ele>616.995</ele>
<time>2022-05-27T14:47:38Z</time>
</trkpt>
<trkpt lat="47.772839" lon="11.158888">
<ele>616.995</ele>
<time>2022-05-27T14:47:39Z</time>
</trkpt>
<trkpt lat="47.772865" lon="11.158838">
<ele>616.995</ele>
<time>2022-05-27T14:47:40Z</time>
</trkpt>
<trkpt lat="47.772888" lon="11.15879">
<ele>616.995</ele>
<time>2022-05-27T14:47:42Z</time>
</trkpt>
<trkpt lat="47.772942" lon="11.158691">
<ele>616.995</ele>
<time>2022-05-27T14:47:43Z</time>
</trkpt>
<trkpt lat="47.772968" lon="11.158643">
<ele>616.995</ele>
<time>2022-05-27T14:47:44Z</time>
</trkpt>
<trkpt lat="47.772995" lon="11.158593">
<ele>616.995</ele>
<time>2022-05-27T14:47:46Z</time>
</trkpt>
<trkpt lat="47.773022" lon="11.158544">
<ele>617.29</ele>
<time>2022-05-27T14:47:47Z</time>
</trkpt>
<trkpt lat="47.773048" lon="11.158494">
<ele>617.508</ele>
<time>2022-05-27T14:47:48Z</time>
</trkpt>
<trkpt lat="47.773098" lon="11.158397">
<ele>617.796</ele>
<time>2022-05-27T14:47:49Z</time>
</trkpt>
<trkpt lat="47.773125" lon="11.15835">
<ele>617.879</ele>
<time>2022-05-27T14:47:50Z</time>
</trkpt>
<trkpt lat="47.773148" lon="11.158301">
<ele>617.926</ele>
<time>2022-05-27T14:47:51Z</time>
</trkpt>
<trkpt lat="47.77317" lon="11.158255">
<ele>618.199</ele>
<time>2022-05-27T14:47:52Z</time>
</trkpt>
<trkpt lat="47.773193" lon="11.158205">
<ele>618.388</ele>
<time>2022-05-27T14:47:53Z</time>
</trkpt>
<trkpt lat="47.773216" lon="11.158153">
<ele>618.519</ele>
<time>2022-05-27T14:47:55Z</time>
</trkpt>
<trkpt lat="47.773266" lon="11.158053">
<ele>619.005</ele>
<time>2022-05-27T14:47:56Z</time>
</trkpt>
<trkpt lat="47.773289" lon="11.158006">
<ele>619.288</ele>
<time>2022-05-27T14:47:58Z</time>
</trkpt>
<trkpt lat="47.773319" lon="11.157955">
<ele>619.505</ele>
<time>2022-05-27T14:47:59Z</time>
</trkpt>
<trkpt lat="47.773369" lon="11.15786">
<ele>619.816</ele>
<time>2022-05-27T14:48:00Z</time>
</trkpt>
<trkpt lat="47.773392" lon="11.157813">
<ele>619.871</ele>
<time>2022-05-27T14:48:02Z</time>
</trkpt>
<trkpt lat="47.773418" lon="11.157763">
<ele>619.894</ele>
<time>2022-05-27T14:48:03Z</time>
</trkpt>
<trkpt lat="47.773464" lon="11.157661">
<ele>619.894</ele>
<time>2022-05-27T14:48:04Z</time>
</trkpt>
<trkpt lat="47.773487" lon="11.157614">
<ele>619.894</ele>
<time>2022-05-27T14:48:05Z</time>
</trkpt>
<trkpt lat="47.773514" lon="11.157563">
<ele>619.895</ele>
<time>2022-05-27T14:48:06Z</time>
</trkpt>
<trkpt lat="47.77354" lon="11.157514">
<ele>619.895</ele>
<time>2022-05-27T14:48:07Z</time>
</trkpt>
<trkpt lat="47.773563" lon="11.157463">
<ele>619.894</ele>
<time>2022-05-27T14:48:08Z</time>
</trkpt>
<trkpt lat="47.773586" lon="11.157413">
<ele>619.894</ele>
<time>2022-05-27T14:48:10Z</time>
</trkpt>
<trkpt lat="47.773628" lon="11.15731">
<ele>620.14</ele>
<time>2022-05-27T14:48:11Z</time>
</trkpt>
<trkpt lat="47.773651" lon="11.157258">
<ele>620.335</ele>
<time>2022-05-27T14:48:13Z</time>
</trkpt>
<trkpt lat="47.773701" lon="11.157151">
<ele>620.591</ele>
<time>2022-05-27T14:48:14Z</time>
</trkpt>
<trkpt lat="47.773724" lon="11.157097">
<ele>620.704</ele>
<time>2022-05-27T14:48:15Z</time>
</trkpt>
<trkpt lat="47.773746" lon="11.15704">
<ele>620.781</ele>
<time>2022-05-27T14:48:17Z</time>
</trkpt>
<trkpt lat="47.773769" lon="11.156985">
<ele>621.074</ele>
<time>2022-05-27T14:48:18Z</time>
</trkpt>
<trkpt lat="47.773808" lon="11.156875">
<ele>621.523</ele>
<time>2022-05-27T14:48:20Z</time>
</trkpt>
<trkpt lat="47.77383" lon="11.156822">
<ele>621.642</ele>
<time>2022-05-27T14:48:21Z</time>
</trkpt>
<trkpt lat="47.773872" lon="11.156713">
<ele>621.78</ele>
<time>2022-05-27T14:48:22Z</time>
</trkpt>
<trkpt lat="47.773891" lon="11.156658">
<ele>621.805</ele>
<time>2022-05-27T14:48:24Z</time>
</trkpt>
<trkpt lat="47.773907" lon="11.156602">
<ele>621.828</ele>
<time>2022-05-27T14:48:25Z</time>
</trkpt>
<trkpt lat="47.773949" lon="11.156485">
<ele>622.092</ele>
<time>2022-05-27T14:48:26Z</time>
</trkpt>
<trkpt lat="47.773968" lon="11.156428">
<ele>622.3</ele>
<time>2022-05-27T14:48:27Z</time>
</trkpt>
<trkpt lat="47.773987" lon="11.156372">
<ele>622.453</ele>
<time>2022-05-27T14:48:29Z</time>
</trkpt>
<trkpt lat="47.774033" lon="11.15626">
<ele>622.638</ele>
<time>2022-05-27T14:48:30Z</time>
</trkpt>
<trkpt lat="47.774052" lon="11.156201">
<ele>622.681</ele>
<time>2022-05-27T14:48:31Z</time>
</trkpt>
<trkpt lat="47.774071" lon="11.156143">
<ele>622.703</ele>
<time>2022-05-27T14:48:33Z</time>
</trkpt>
<trkpt lat="47.77412" lon="11.156025">
<ele>622.707</ele>
<time>2022-05-27T14:48:35Z</time>
</trkpt>
<trkpt lat="47.774178" lon="11.155907">
<ele>622.707</ele>
<time>2022-05-27T14:48:36Z</time>
</trkpt>
<trkpt lat="47.774208" lon="11.155851">
<ele>622.707</ele>
<time>2022-05-27T14:48:37Z</time>
</trkpt>
<trkpt lat="47.774239" lon="11.155798">
<ele>622.707</ele>
<time>2022-05-27T14:48:39Z</time>
</trkpt>
<trkpt lat="47.774269" lon="11.155748">
<ele>622.971</ele>
<time>2022-05-27T14:48:40Z</time>
</trkpt>
<trkpt lat="47.774334" lon="11.155646">
<ele>623.334</ele>
<time>2022-05-27T14:48:41Z</time>
</trkpt>
<trkpt lat="47.774368" lon="11.155597">
<ele>623.45</ele>
<time>2022-05-27T14:48:42Z</time>
</trkpt>
<trkpt lat="47.774403" lon="11.155552">
<ele>623.53</ele>
<time>2022-05-27T14:48:44Z</time>
</trkpt>
<trkpt lat="47.774445" lon="11.15551">
<ele>623.591</ele>
<time>2022-05-27T14:48:45Z</time>
</trkpt>
<trkpt lat="47.774525" lon="11.155437">
<ele>624.109</ele>
<time>2022-05-27T14:48:46Z</time>
</trkpt>
<trkpt lat="47.774567" lon="11.155401">
<ele>624.273</ele>
<time>2022-05-27T14:48:48Z</time>
</trkpt>
<trkpt lat="47.774654" lon="11.155328">
<ele>624.499</ele>
<time>2022-05-27T14:48:49Z</time>
</trkpt>
<trkpt lat="47.774693" lon="11.155293">
<ele>624.572</ele>
<time>2022-05-27T14:48:51Z</time>
</trkpt>
<trkpt lat="47.774776" lon="11.15522">
<ele>624.641</ele>
<time>2022-05-27T14:48:52Z</time>
</trkpt>
<trkpt lat="47.774818" lon="11.155187">
<ele>624.641</ele>
<time>2022-05-27T14:48:54Z</time>
</trkpt>
<trkpt lat="47.774902" lon="11.155123">
<ele>625.02</ele>
<time>2022-05-27T14:48:55Z</time>
</trkpt>
<trkpt lat="47.774948" lon="11.155091">
<ele>625.171</ele>
<time>2022-05-27T14:48:56Z</time>
</trkpt>
<trkpt lat="47.774986" lon="11.155064">
<ele>625.293</ele>
<time>2022-05-27T14:48:57Z</time>
</trkpt>
<trkpt lat="47.775028" lon="11.155035">
<ele>625.387</ele>
<time>2022-05-27T14:48:59Z</time>
</trkpt>
<trkpt lat="47.775112" lon="11.154982">
<ele>625.499</ele>
<time>2022-05-27T14:49:00Z</time>
</trkpt>
<trkpt lat="47.775158" lon="11.154957">
<ele>625.52</ele>
<time>2022-05-27T14:49:01Z</time>
</trkpt>
<trkpt lat="47.7752" lon="11.154932">
<ele>625.52</ele>
<time>2022-05-27T14:49:02Z</time>
</trkpt>
<trkpt lat="47.775238" lon="11.154909">
<ele>625.52</ele>
<time>2022-05-27T14:49:04Z</time>
</trkpt>
<trkpt lat="47.775314" lon="11.15486">
<ele>625.52</ele>
<time>2022-05-27T14:49:06Z</time>
</trkpt>
<trkpt lat="47.775375" lon="11.154808">
<ele>625.52</ele>
<time>2022-05-27T14:49:07Z</time>
</trkpt>
<trkpt lat="47.775402" lon="11.154783">
<ele>625.52</ele>
<time>2022-05-27T14:49:09Z</time>
</trkpt>
<trkpt lat="47.775433" lon="11.154758">
<ele>625.52</ele>
<time>2022-05-27T14:49:10Z</time>
</trkpt>
<trkpt lat="47.775436" lon="11.154762">
<ele>625.52</ele>
<time>2022-05-27T14:49:13Z</time>
</trkpt>
<trkpt lat="47.775444" lon="11.154765">
<ele>625.52</ele>
<time>2022-05-27T14:57:18Z</time>
</trkpt>
<trkpt lat="47.775463" lon="11.15476">
<ele>625.52</ele>
<time>2022-05-27T14:57:19Z</time>
</trkpt>
<trkpt lat="47.775486" lon="11.154752">
<ele>625.52</ele>
<time>2022-05-27T14:57:20Z</time>
</trkpt>
<trkpt lat="47.775513" lon="11.154738">
<ele>625.52</ele>
<time>2022-05-27T14:57:22Z</time>
</trkpt>
<trkpt lat="47.775547" lon="11.154723">
<ele>625.52</ele>
<time>2022-05-27T14:57:23Z</time>
</trkpt>
<trkpt lat="47.775581" lon="11.154705">
<ele>625.52</ele>
<time>2022-05-27T14:57:24Z</time>
</trkpt>
<trkpt lat="47.775665" lon="11.154658">
<ele>625.52</ele>
<time>2022-05-27T14:57:25Z</time>
</trkpt>
<trkpt lat="47.775711" lon="11.154632">
<ele>625.52</ele>
<time>2022-05-27T14:57:27Z</time>
</trkpt>
<trkpt lat="47.775761" lon="11.154603">
<ele>625.52</ele>
<time>2022-05-27T14:57:28Z</time>
</trkpt>
<trkpt lat="47.775856" lon="11.154545">
<ele>625.52</ele>
<time>2022-05-27T14:57:29Z</time>
</trkpt>
<trkpt lat="47.775906" lon="11.154515">
<ele>625.52</ele>
<time>2022-05-27T14:57:30Z</time>
</trkpt>
<trkpt lat="47.775955" lon="11.15448">
<ele>625.52</ele>
<time>2022-05-27T14:57:31Z</time>
</trkpt>
<trkpt lat="47.776001" lon="11.15445">
<ele>625.52</ele>
<time>2022-05-27T14:57:32Z</time>
</trkpt>
<trkpt lat="47.776054" lon="11.154417">
<ele>625.52</ele>
<time>2022-05-27T14:57:33Z</time>
</trkpt>
<trkpt lat="47.776096" lon="11.154386">
<ele>625.52</ele>
<time>2022-05-27T14:57:35Z</time>
</trkpt>
<trkpt lat="47.776188" lon="11.154322">
<ele>625.52</ele>
<time>2022-05-27T14:57:36Z</time>
</trkpt>
<trkpt lat="47.77623" lon="11.154288">
<ele>625.52</ele>
<time>2022-05-27T14:57:37Z</time>
</trkpt>
<trkpt lat="47.776279" lon="11.154251">
<ele>625.52</ele>
<time>2022-05-27T14:57:39Z</time>
</trkpt>
<trkpt lat="47.776325" lon="11.154215">
<ele>625.52</ele>
<time>2022-05-27T14:57:40Z</time>
</trkpt>
<trkpt lat="47.776371" lon="11.154177">
<ele>625.52</ele>
<time>2022-05-27T14:57:41Z</time>
</trkpt>
<trkpt lat="47.776455" lon="11.154092">
<ele>625.52</ele>
<time>2022-05-27T14:57:42Z</time>
</trkpt>
<trkpt lat="47.776493" lon="11.154052">
<ele>625.52</ele>
<time>2022-05-27T14:57:43Z</time>
</trkpt>
<trkpt lat="47.776531" lon="11.154015">
<ele>625.52</ele>
<time>2022-05-27T14:57:44Z</time>
</trkpt>
<trkpt lat="47.776562" lon="11.153983">
<ele>625.52</ele>
<time>2022-05-27T14:57:46Z</time>
</trkpt>
<trkpt lat="47.776615" lon="11.153916">
<ele>625.52</ele>
<time>2022-05-27T14:57:47Z</time>
</trkpt>
<trkpt lat="47.776646" lon="11.153885">
<ele>625.52</ele>
<time>2022-05-27T14:57:48Z</time>
</trkpt>
<trkpt lat="47.776672" lon="11.153855">
<ele>625.52</ele>
<time>2022-05-27T14:57:49Z</time>
</trkpt>
<trkpt lat="47.776699" lon="11.153818">
<ele>625.52</ele>
<time>2022-05-27T14:57:50Z</time>
</trkpt>
<trkpt lat="47.77673" lon="11.153775">
<ele>625.52</ele>
<time>2022-05-27T14:57:52Z</time>
</trkpt>
<trkpt lat="47.776787" lon="11.153686">
<ele>625.52</ele>
<time>2022-05-27T14:57:53Z</time>
</trkpt>
<trkpt lat="47.77681" lon="11.153642">
<ele>625.52</ele>
<time>2022-05-27T14:57:55Z</time>
</trkpt>
<trkpt lat="47.77684" lon="11.153597">
<ele>625.52</ele>
<time>2022-05-27T14:57:56Z</time>
</trkpt>
<trkpt lat="47.776897" lon="11.153508">
<ele>625.745</ele>
<time>2022-05-27T14:57:57Z</time>
</trkpt>
<trkpt lat="47.776924" lon="11.153465">
<ele>625.916</ele>
<time>2022-05-27T14:57:58Z</time>
</trkpt>
<trkpt lat="47.776951" lon="11.153419">
<ele>626.032</ele>
<time>2022-05-27T14:58:00Z</time>
</trkpt>
<trkpt lat="47.776978" lon="11.153374">
<ele>626.161</ele>
<time>2022-05-27T14:58:01Z</time>
</trkpt>
<trkpt lat="47.777035" lon="11.15329">
<ele>626.334</ele>
<time>2022-05-27T14:58:03Z</time>
</trkpt>
<trkpt lat="47.777077" lon="11.153205">
<ele>626.4</ele>
<time>2022-05-27T14:58:04Z</time>
</trkpt>
<trkpt lat="47.777103" lon="11.153167">
<ele>626.4</ele>
<time>2022-05-27T14:58:05Z</time>
</trkpt>
<trkpt lat="47.777122" lon="11.153131">
<ele>626.4</ele>
<time>2022-05-27T14:58:06Z</time>
</trkpt>
<trkpt lat="47.777145" lon="11.153093">
<ele>626.4</ele>
<time>2022-05-27T14:58:07Z</time>
</trkpt>
<trkpt lat="47.777168" lon="11.153055">
<ele>626.4</ele>
<time>2022-05-27T14:58:09Z</time>
</trkpt>
<trkpt lat="47.777191" lon="11.153017">
<ele>626.609</ele>
<time>2022-05-27T14:58:10Z</time>
</trkpt>
<trkpt lat="47.777237" lon="11.152942">
<ele>626.978</ele>
<time>2022-05-27T14:58:11Z</time>
</trkpt>
<trkpt lat="47.777264" lon="11.152902">
<ele>627.116</ele>
<time>2022-05-27T14:58:13Z</time>
</trkpt>
<trkpt lat="47.777306" lon="11.152817">
<ele>627.3</ele>
<time>2022-05-27T14:58:14Z</time>
</trkpt>
<trkpt lat="47.777328" lon="11.152775">
<ele>627.345</ele>
<time>2022-05-27T14:58:16Z</time>
</trkpt>
<trkpt lat="47.777374" lon="11.15269">
<ele>627.367</ele>
<time>2022-05-27T14:58:17Z</time>
</trkpt>
<trkpt lat="47.777397" lon="11.15265">
<ele>627.626</ele>
<time>2022-05-27T14:58:18Z</time>
</trkpt>
<trkpt lat="47.77742" lon="11.152611">
<ele>627.808</ele>
<time>2022-05-27T14:58:20Z</time>
</trkpt>
<trkpt lat="47.777443" lon="11.152575">
<ele>627.993</ele>
<time>2022-05-27T14:58:21Z</time>
</trkpt>
<trkpt lat="47.777466" lon="11.152545">
<ele>628.143</ele>
<time>2022-05-27T14:58:22Z</time>
</trkpt>
<trkpt lat="47.777523" lon="11.15248">
<ele>628.339</ele>
<time>2022-05-27T14:58:24Z</time>
</trkpt>
<trkpt lat="47.77755" lon="11.152441">
<ele>628.395</ele>
<time>2022-05-27T14:58:25Z</time>
</trkpt>
<trkpt lat="47.77758" lon="11.152397">
<ele>628.422</ele>
<time>2022-05-27T14:58:26Z</time>
</trkpt>
<trkpt lat="47.777611" lon="11.152349">
<ele>628.422</ele>
<time>2022-05-27T14:58:27Z</time>
</trkpt>
<trkpt lat="47.777641" lon="11.152301">
<ele>628.422</ele>
<time>2022-05-27T14:58:28Z</time>
</trkpt>
<trkpt lat="47.777702" lon="11.152217">
<ele>628.809</ele>
<time>2022-05-27T14:58:29Z</time>
</trkpt>
<trkpt lat="47.777733" lon="11.152175">
<ele>628.964</ele>
<time>2022-05-27T14:58:30Z</time>
</trkpt>
<trkpt lat="47.777756" lon="11.152135">
<ele>629.079</ele>
<time>2022-05-27T14:58:31Z</time>
</trkpt>
<trkpt lat="47.777786" lon="11.152097">
<ele>629.159</ele>
<time>2022-05-27T14:58:32Z</time>
</trkpt>
<trkpt lat="47.777809" lon="11.152058">
<ele>629.455</ele>
<time>2022-05-27T14:58:33Z</time>
</trkpt>
<trkpt lat="47.77784" lon="11.15202">
<ele>629.695</ele>
<time>2022-05-27T14:58:35Z</time>
</trkpt>
<trkpt lat="47.777897" lon="11.151943">
<ele>630.054</ele>
<time>2022-05-27T14:58:36Z</time>
</trkpt>
<trkpt lat="47.777931" lon="11.151903">
<ele>630.14</ele>
<time>2022-05-27T14:58:37Z</time>
</trkpt>
<trkpt lat="47.777958" lon="11.151863">
<ele>630.198</ele>
<time>2022-05-27T14:58:38Z</time>
</trkpt>
<trkpt lat="47.777992" lon="11.151823">
<ele>630.243</ele>
<time>2022-05-27T14:58:39Z</time>
</trkpt>
<trkpt lat="47.778023" lon="11.151785">
<ele>630.27</ele>
<time>2022-05-27T14:58:40Z</time>
</trkpt>
<trkpt lat="47.778053" lon="11.151745">
<ele>630.27</ele>
<time>2022-05-27T14:58:41Z</time>
</trkpt>
<trkpt lat="47.778084" lon="11.151702">
<ele>630.554</ele>
<time>2022-05-27T14:58:42Z</time>
</trkpt>
<trkpt lat="47.778114" lon="11.151658">
<ele>630.774</ele>
<time>2022-05-27T14:58:44Z</time>
</trkpt>
<trkpt lat="47.778149" lon="11.151611">
<ele>630.937</ele>
<time>2022-05-27T14:58:45Z</time>
</trkpt>
<trkpt lat="47.778183" lon="11.151568">
<ele>631.052</ele>
<time>2022-05-27T14:58:46Z</time>
</trkpt>
<trkpt lat="47.778221" lon="11.151525">
<ele>631.136</ele>
<time>2022-05-27T14:58:47Z</time>
</trkpt>
<trkpt lat="47.778294" lon="11.151443">
<ele>631.216</ele>
<time>2022-05-27T14:58:48Z</time>
</trkpt>
<trkpt lat="47.778332" lon="11.151406">
<ele>631.237</ele>
<time>2022-05-27T14:58:49Z</time>
</trkpt>
<trkpt lat="47.77837" lon="11.151368">
<ele>631.237</ele>
<time>2022-05-27T14:58:50Z</time>
</trkpt>
<trkpt lat="47.778408" lon="11.151331">
<ele>631.237</ele>
<time>2022-05-27T14:58:52Z</time>
</trkpt>
<trkpt lat="47.778446" lon="11.151295">
<ele>631.237</ele>
<time>2022-05-27T14:58:53Z</time>
</trkpt>
<trkpt lat="47.778522" lon="11.151225">
<ele>631.237</ele>
<time>2022-05-27T14:58:54Z</time>
</trkpt>
<trkpt lat="47.778561" lon="11.15119">
<ele>631.237</ele>
<time>2022-05-27T14:58:56Z</time>
</trkpt>
<trkpt lat="47.778637" lon="11.151119">
<ele>631.237</ele>
<time>2022-05-27T14:58:57Z</time>
</trkpt>
<trkpt lat="47.778679" lon="11.151087">
<ele>631.237</ele>
<time>2022-05-27T14:58:59Z</time>
</trkpt>
<trkpt lat="47.778759" lon="11.15102">
<ele>631.237</ele>
<time>2022-05-27T14:59:00Z</time>
</trkpt>
<trkpt lat="47.778797" lon="11.150987">
<ele>631.237</ele>
<time>2022-05-27T14:59:01Z</time>
</trkpt>
<trkpt lat="47.778835" lon="11.150953">
<ele>631.237</ele>
<time>2022-05-27T14:59:03Z</time>
</trkpt>
<trkpt lat="47.778877" lon="11.150922">
<ele>631.237</ele>
<time>2022-05-27T14:59:04Z</time>
</trkpt>
<trkpt lat="47.778965" lon="11.150864">
<ele>631.237</ele>
<time>2022-05-27T14:59:05Z</time>
</trkpt>
<trkpt lat="47.779007" lon="11.150832">
<ele>631.237</ele>
<time>2022-05-27T14:59:07Z</time>
</trkpt>
<trkpt lat="47.779091" lon="11.150768">
<ele>631.237</ele>
<time>2022-05-27T14:59:09Z</time>
</trkpt>
<trkpt lat="47.779175" lon="11.150708">
<ele>631.237</ele>
<time>2022-05-27T14:59:11Z</time>
</trkpt>
<trkpt lat="47.779263" lon="11.150648">
<ele>631.237</ele>
<time>2022-05-27T14:59:12Z</time>
</trkpt>
<trkpt lat="47.779305" lon="11.15062">
<ele>631.237</ele>
<time>2022-05-27T14:59:13Z</time>
</trkpt>
<trkpt lat="47.779343" lon="11.15059">
<ele>631.237</ele>
<time>2022-05-27T14:59:15Z</time>
</trkpt>
<trkpt lat="47.779423" lon="11.150537">
<ele>631.689</ele>
<time>2022-05-27T14:59:16Z</time>
</trkpt>
<trkpt lat="47.779465" lon="11.150512">
<ele>631.844</ele>
<time>2022-05-27T14:59:18Z</time>
</trkpt>
<trkpt lat="47.779507" lon="11.150487">
<ele>631.958</ele>
<time>2022-05-27T14:59:19Z</time>
</trkpt>
<trkpt lat="47.779545" lon="11.150456">
<ele>632.039</ele>
<time>2022-05-27T14:59:20Z</time>
</trkpt>
<trkpt lat="47.779587" lon="11.150427">
<ele>632.124</ele>
<time>2022-05-27T14:59:21Z</time>
</trkpt>
<trkpt lat="47.779667" lon="11.150365">
<ele>632.205</ele>
<time>2022-05-27T14:59:22Z</time>
</trkpt>
<trkpt lat="47.779709" lon="11.150333">
<ele>632.205</ele>
<time>2022-05-27T14:59:24Z</time>
</trkpt>
<trkpt lat="47.779789" lon="11.150271">
<ele>632.205</ele>
<time>2022-05-27T14:59:25Z</time>
</trkpt>
<trkpt lat="47.779831" lon="11.150242">
<ele>632.205</ele>
<time>2022-05-27T14:59:26Z</time>
</trkpt>
<trkpt lat="47.779873" lon="11.150211">
<ele>632.205</ele>
<time>2022-05-27T14:59:27Z</time>
</trkpt>
<trkpt lat="47.779915" lon="11.15018">
<ele>632.205</ele>
<time>2022-05-27T14:59:28Z</time>
</trkpt>
<trkpt lat="47.779961" lon="11.150145">
<ele>632.205</ele>
<time>2022-05-27T14:59:29Z</time>
</trkpt>
<trkpt lat="47.780003" lon="11.150109">
<ele>632.205</ele>
<time>2022-05-27T14:59:30Z</time>
</trkpt>
<trkpt lat="47.780045" lon="11.150075">
<ele>632.205</ele>
<time>2022-05-27T14:59:31Z</time>
</trkpt>
<trkpt lat="47.780087" lon="11.150038">
<ele>632.205</ele>
<time>2022-05-27T14:59:32Z</time>
</trkpt>
<trkpt lat="47.780125" lon="11.150002">
<ele>632.205</ele>
<time>2022-05-27T14:59:33Z</time>
</trkpt>
<trkpt lat="47.780163" lon="11.149961">
<ele>632.205</ele>
<time>2022-05-27T14:59:34Z</time>
</trkpt>
<trkpt lat="47.780197" lon="11.149919">
<ele>632.435</ele>
<time>2022-05-27T14:59:36Z</time>
</trkpt>
<trkpt lat="47.780235" lon="11.149872">
<ele>632.616</ele>
<time>2022-05-27T14:59:37Z</time>
</trkpt>
<trkpt lat="47.780312" lon="11.149766">
<ele>632.864</ele>
<time>2022-05-27T14:59:39Z</time>
</trkpt>
<trkpt lat="47.780388" lon="11.149649">
<ele>633.261</ele>
<time>2022-05-27T14:59:41Z</time>
</trkpt>
<trkpt lat="47.780468" lon="11.149529">
<ele>633.696</ele>
<time>2022-05-27T14:59:42Z</time>
</trkpt>
<trkpt lat="47.78051" lon="11.149467">
<ele>633.824</ele>
<time>2022-05-27T14:59:43Z</time>
</trkpt>
<trkpt lat="47.780552" lon="11.149408">
<ele>633.901</ele>
<time>2022-05-27T14:59:44Z</time>
</trkpt>
<trkpt lat="47.78059" lon="11.149348">
<ele>634.24</ele>
<time>2022-05-27T14:59:46Z</time>
</trkpt>
<trkpt lat="47.780674" lon="11.149232">
<ele>634.706</ele>
<time>2022-05-27T14:59:47Z</time>
</trkpt>
<trkpt lat="47.780716" lon="11.149172">
<ele>634.846</ele>
<time>2022-05-27T14:59:48Z</time>
</trkpt>
<trkpt lat="47.780754" lon="11.149112">
<ele>634.934</ele>
<time>2022-05-27T14:59:49Z</time>
</trkpt>
<trkpt lat="47.780796" lon="11.149054">
<ele>635.279</ele>
<time>2022-05-27T14:59:50Z</time>
</trkpt>
<trkpt lat="47.780838" lon="11.148994">
<ele>635.553</ele>
<time>2022-05-27T14:59:51Z</time>
</trkpt>
<trkpt lat="47.78088" lon="11.148936">
<ele>635.759</ele>
<time>2022-05-27T14:59:52Z</time>
</trkpt>
<trkpt lat="47.780922" lon="11.148878">
<ele>635.901</ele>
<time>2022-05-27T14:59:53Z</time>
</trkpt>
<trkpt lat="47.78096" lon="11.14882">
<ele>635.989</ele>
<time>2022-05-27T14:59:54Z</time>
</trkpt>
<trkpt lat="47.781002" lon="11.148762">
<ele>636.334</ele>
<time>2022-05-27T14:59:55Z</time>
</trkpt>
<trkpt lat="47.78104" lon="11.148706">
<ele>636.606</ele>
<time>2022-05-27T14:59:56Z</time>
</trkpt>
<trkpt lat="47.781078" lon="11.148655">
<ele>636.778</ele>
<time>2022-05-27T14:59:57Z</time>
</trkpt>
<trkpt lat="47.781116" lon="11.148605">
<ele>637.143</ele>
<time>2022-05-27T14:59:59Z</time>
</trkpt>
<trkpt lat="47.7812" lon="11.148517">
<ele>637.649</ele>
<time>2022-05-27T15:00:01Z</time>
</trkpt>
<trkpt lat="47.781281" lon="11.148446">
<ele>637.95</ele>
<time>2022-05-27T15:00:02Z</time>
</trkpt>
<trkpt lat="47.781322" lon="11.148415">
<ele>638.253</ele>
<time>2022-05-27T15:00:04Z</time>
</trkpt>
<trkpt lat="47.781403" lon="11.148352">
<ele>638.686</ele>
<time>2022-05-27T15:00:05Z</time>
</trkpt>
<trkpt lat="47.781437" lon="11.148322">
<ele>638.832</ele>
<time>2022-05-27T15:00:07Z</time>
</trkpt>
<trkpt lat="47.781506" lon="11.14827">
<ele>639.409</ele>
<time>2022-05-27T15:00:08Z</time>
</trkpt>
<trkpt lat="47.781536" lon="11.148247">
<ele>639.596</ele>
<time>2022-05-27T15:00:10Z</time>
</trkpt>
<trkpt lat="47.781601" lon="11.1482">
<ele>639.874</ele>
<time>2022-05-27T15:00:12Z</time>
</trkpt>
<trkpt lat="47.781654" lon="11.148157">
<ele>640.008</ele>
<time>2022-05-27T15:00:14Z</time>
</trkpt>
<trkpt lat="47.781677" lon="11.148138">
<ele>640.258</ele>
<time>2022-05-27T15:00:15Z</time>
</trkpt>
<trkpt lat="47.781723" lon="11.148098">
<ele>640.643</ele>
<time>2022-05-27T15:00:17Z</time>
</trkpt>
<trkpt lat="47.781742" lon="11.14808">
<ele>640.762</ele>
<time>2022-05-27T15:00:18Z</time>
</trkpt>
<trkpt lat="47.781788" lon="11.148053">
<ele>640.918</ele>
<time>2022-05-27T15:00:19Z</time>
</trkpt>
<trkpt lat="47.781807" lon="11.148042">
<ele>640.979</ele>
<time>2022-05-27T15:00:21Z</time>
</trkpt>
<trkpt lat="47.781857" lon="11.148005">
<ele>641.007</ele>
<time>2022-05-27T15:00:22Z</time>
</trkpt>
<trkpt lat="47.781879" lon="11.147988">
<ele>641.007</ele>
<time>2022-05-27T15:00:24Z</time>
</trkpt>
<trkpt lat="47.781925" lon="11.147957">
<ele>641.246</ele>
<time>2022-05-27T15:00:25Z</time>
</trkpt>
<trkpt lat="47.781952" lon="11.147937">
<ele>641.432</ele>
<time>2022-05-27T15:00:26Z</time>
</trkpt>
<trkpt lat="47.781975" lon="11.147916">
<ele>641.568</ele>
<time>2022-05-27T15:00:27Z</time>
</trkpt>
<trkpt lat="47.781998" lon="11.147893">
<ele>641.675</ele>
<time>2022-05-27T15:00:28Z</time>
</trkpt>
<trkpt lat="47.782024" lon="11.14787">
<ele>641.742</ele>
<time>2022-05-27T15:00:29Z</time>
</trkpt>
<trkpt lat="47.782051" lon="11.147844">
<ele>641.817</ele>
<time>2022-05-27T15:00:31Z</time>
</trkpt>
<trkpt lat="47.782108" lon="11.147795">
<ele>641.888</ele>
<time>2022-05-27T15:00:32Z</time>
</trkpt>
<trkpt lat="47.782135" lon="11.147767">
<ele>641.888</ele>
<time>2022-05-27T15:00:34Z</time>
</trkpt>
<trkpt lat="47.782162" lon="11.147739">
<ele>641.888</ele>
<time>2022-05-27T15:00:35Z</time>
</trkpt>
<trkpt lat="47.782215" lon="11.147681">
<ele>642.351</ele>
<time>2022-05-27T15:00:37Z</time>
</trkpt>
<trkpt lat="47.782265" lon="11.147618">
<ele>642.615</ele>
<time>2022-05-27T15:00:38Z</time>
</trkpt>
<trkpt lat="47.782288" lon="11.147587">
<ele>642.693</ele>
<time>2022-05-27T15:00:39Z</time>
</trkpt>
<trkpt lat="47.782318" lon="11.147552">
<ele>642.777</ele>
<time>2022-05-27T15:00:40Z</time>
</trkpt>
<trkpt lat="47.782341" lon="11.147513">
<ele>643.09</ele>
<time>2022-05-27T15:00:41Z</time>
</trkpt>
<trkpt lat="47.782368" lon="11.14748">
<ele>643.336</ele>
<time>2022-05-27T15:00:42Z</time>
</trkpt>
<trkpt lat="47.782394" lon="11.147442">
<ele>643.612</ele>
<time>2022-05-27T15:00:43Z</time>
</trkpt>
<trkpt lat="47.782421" lon="11.147408">
<ele>643.743</ele>
<time>2022-05-27T15:00:45Z</time>
</trkpt>
<trkpt lat="47.782452" lon="11.147375">
<ele>643.832</ele>
<time>2022-05-27T15:00:46Z</time>
</trkpt>
<trkpt lat="47.782482" lon="11.14734">
<ele>643.882</ele>
<time>2022-05-27T15:00:47Z</time>
</trkpt>
<trkpt lat="47.782513" lon="11.147306">
<ele>643.907</ele>
<time>2022-05-27T15:00:48Z</time>
</trkpt>
<trkpt lat="47.782578" lon="11.147237">
<ele>643.913</ele>
<time>2022-05-27T15:00:49Z</time>
</trkpt>
<trkpt lat="47.782604" lon="11.147202">
<ele>643.913</ele>
<time>2022-05-27T15:00:50Z</time>
</trkpt>
<trkpt lat="47.782635" lon="11.147172">
<ele>643.913</ele>
<time>2022-05-27T15:00:52Z</time>
</trkpt>
<trkpt lat="47.782688" lon="11.147109">
<ele>643.913</ele>
<time>2022-05-27T15:00:53Z</time>
</trkpt>
<trkpt lat="47.782719" lon="11.147077">
<ele>643.913</ele>
<time>2022-05-27T15:00:55Z</time>
</trkpt>
<trkpt lat="47.782776" lon="11.147023">
<ele>644.364</ele>
<time>2022-05-27T15:00:56Z</time>
</trkpt>
<trkpt lat="47.782806" lon="11.146996">
<ele>644.519</ele>
<time>2022-05-27T15:00:58Z</time>
</trkpt>
<trkpt lat="47.782871" lon="11.146939">
<ele>644.718</ele>
<time>2022-05-27T15:01:00Z</time>
</trkpt>
<trkpt lat="47.782936" lon="11.146889">
<ele>644.858</ele>
<time>2022-05-27T15:01:01Z</time>
</trkpt>
<trkpt lat="47.78297" lon="11.146865">
<ele>644.882</ele>
<time>2022-05-27T15:01:02Z</time>
</trkpt>
<trkpt lat="47.783001" lon="11.146838">
<ele>644.882</ele>
<time>2022-05-27T15:01:03Z</time>
</trkpt>
<trkpt lat="47.783035" lon="11.146815">
<ele>644.882</ele>
<time>2022-05-27T15:01:04Z</time>
</trkpt>
<trkpt lat="47.783066" lon="11.146791">
<ele>644.882</ele>
<time>2022-05-27T15:01:05Z</time>
</trkpt>
<trkpt lat="47.7831" lon="11.14677">
<ele>645.106</ele>
<time>2022-05-27T15:01:06Z</time>
</trkpt>
<trkpt lat="47.783131" lon="11.146747">
<ele>645.285</ele>
<time>2022-05-27T15:01:07Z</time>
</trkpt>
<trkpt lat="47.783161" lon="11.146724">
<ele>645.422</ele>
<time>2022-05-27T15:01:09Z</time>
</trkpt>
<trkpt lat="47.783226" lon="11.146675">
<ele>645.617</ele>
<time>2022-05-27T15:01:11Z</time>
</trkpt>
<trkpt lat="47.783287" lon="11.146622">
<ele>645.74</ele>
<time>2022-05-27T15:01:12Z</time>
</trkpt>
<trkpt lat="47.783318" lon="11.146595">
<ele>645.763</ele>
<time>2022-05-27T15:01:14Z</time>
</trkpt>
<trkpt lat="47.783382" lon="11.146547">
<ele>645.763</ele>
<time>2022-05-27T15:01:15Z</time>
</trkpt>
<trkpt lat="47.783417" lon="11.146523">
<ele>645.763</ele>
<time>2022-05-27T15:01:16Z</time>
</trkpt>
<trkpt lat="47.783447" lon="11.1465">
<ele>646.004</ele>
<time>2022-05-27T15:01:17Z</time>
</trkpt>
<trkpt lat="47.783482" lon="11.146477">
<ele>646.197</ele>
<time>2022-05-27T15:01:18Z</time>
</trkpt>
<trkpt lat="47.783512" lon="11.14645">
<ele>646.327</ele>
<time>2022-05-27T15:01:20Z</time>
</trkpt>
<trkpt lat="47.783573" lon="11.146401">
<ele>646.577</ele>
<time>2022-05-27T15:01:22Z</time>
</trkpt>
<trkpt lat="47.783634" lon="11.146355">
<ele>646.708</ele>
<time>2022-05-27T15:01:23Z</time>
</trkpt>
<trkpt lat="47.783665" lon="11.14633">
<ele>646.733</ele>
<time>2022-05-27T15:01:25Z</time>
</trkpt>
<trkpt lat="47.783726" lon="11.146279">
<ele>646.732</ele>
<time>2022-05-27T15:01:27Z</time>
</trkpt>
<trkpt lat="47.78376" lon="11.146255">
<ele>646.733</ele>
<time>2022-05-27T15:01:28Z</time>
</trkpt>
<trkpt lat="47.783821" lon="11.146204">
<ele>647.138</ele>
<time>2022-05-27T15:01:30Z</time>
</trkpt>
<trkpt lat="47.783886" lon="11.146153">
<ele>647.448</ele>
<time>2022-05-27T15:01:32Z</time>
</trkpt>
<trkpt lat="47.783951" lon="11.146102">
<ele>647.631</ele>
<time>2022-05-27T15:01:33Z</time>
</trkpt>
<trkpt lat="47.783985" lon="11.146074">
<ele>647.678</ele>
<time>2022-05-27T15:01:35Z</time>
</trkpt>
<trkpt lat="47.78405" lon="11.146029">
<ele>647.973</ele>
<time>2022-05-27T15:01:36Z</time>
</trkpt>
<trkpt lat="47.784084" lon="11.146007">
<ele>648.189</ele>
<time>2022-05-27T15:01:37Z</time>
</trkpt>
<trkpt lat="47.784119" lon="11.145987">
<ele>648.354</ele>
<time>2022-05-27T15:01:38Z</time>
</trkpt>
<trkpt lat="47.784157" lon="11.145965">
<ele>648.467</ele>
<time>2022-05-27T15:01:39Z</time>
</trkpt>
<trkpt lat="47.784191" lon="11.145945">
<ele>648.587</ele>
<time>2022-05-27T15:01:40Z</time>
</trkpt>
<trkpt lat="47.784229" lon="11.145927">
<ele>648.677</ele>
<time>2022-05-27T15:01:42Z</time>
</trkpt>
<trkpt lat="47.784264" lon="11.145906">
<ele>648.732</ele>
<time>2022-05-27T15:01:43Z</time>
</trkpt>
<trkpt lat="47.784336" lon="11.145868">
<ele>648.759</ele>
<time>2022-05-27T15:01:45Z</time>
</trkpt>
<trkpt lat="47.784405" lon="11.145837">
<ele>649.253</ele>
<time>2022-05-27T15:01:46Z</time>
</trkpt>
<trkpt lat="47.784439" lon="11.145821">
<ele>649.419</ele>
<time>2022-05-27T15:01:47Z</time>
</trkpt>
<trkpt lat="47.784473" lon="11.145805">
<ele>649.55</ele>
<time>2022-05-27T15:01:48Z</time>
</trkpt>
<trkpt lat="47.784508" lon="11.14579">
<ele>649.638</ele>
<time>2022-05-27T15:01:50Z</time>
</trkpt>
<trkpt lat="47.784546" lon="11.145777">
<ele>649.728</ele>
<time>2022-05-27T15:01:51Z</time>
</trkpt>
<trkpt lat="47.784618" lon="11.145756">
<ele>650.209</ele>
<time>2022-05-27T15:01:52Z</time>
</trkpt>
<trkpt lat="47.784649" lon="11.145741">
<ele>650.437</ele>
<time>2022-05-27T15:01:54Z</time>
</trkpt>
<trkpt lat="47.784714" lon="11.14571">
<ele>650.628</ele>
<time>2022-05-27T15:01:55Z</time>
</trkpt>
<trkpt lat="47.784744" lon="11.145691">
<ele>650.676</ele>
<time>2022-05-27T15:01:56Z</time>
</trkpt>
<trkpt lat="47.784779" lon="11.145667">
<ele>650.698</ele>
<time>2022-05-27T15:01:57Z</time>
</trkpt>
<trkpt lat="47.784809" lon="11.14564">
<ele>650.698</ele>
<time>2022-05-27T15:01:58Z</time>
</trkpt>
<trkpt lat="47.78484" lon="11.145609">
<ele>650.698</ele>
<time>2022-05-27T15:01:59Z</time>
</trkpt>
<trkpt lat="47.78487" lon="11.145576">
<ele>650.698</ele>
<time>2022-05-27T15:02:01Z</time>
</trkpt>
<trkpt lat="47.784901" lon="11.145536">
<ele>650.698</ele>
<time>2022-05-27T15:02:02Z</time>
</trkpt>
<trkpt lat="47.784958" lon="11.145447">
<ele>650.698</ele>
<time>2022-05-27T15:02:03Z</time>
</trkpt>
<trkpt lat="47.784985" lon="11.145398">
<ele>650.698</ele>
<time>2022-05-27T15:02:05Z</time>
</trkpt>
<trkpt lat="47.785038" lon="11.145295">
<ele>650.698</ele>
<time>2022-05-27T15:02:07Z</time>
</trkpt>
<trkpt lat="47.785091" lon="11.145184">
<ele>650.698</ele>
<time>2022-05-27T15:02:09Z</time>
</trkpt>
<trkpt lat="47.785122" lon="11.145127">
<ele>650.698</ele>
<time>2022-05-27T15:02:10Z</time>
</trkpt>
<trkpt lat="47.785179" lon="11.145008">
<ele>650.698</ele>
<time>2022-05-27T15:02:11Z</time>
</trkpt>
<trkpt lat="47.785206" lon="11.144949">
<ele>650.698</ele>
<time>2022-05-27T15:02:13Z</time>
</trkpt>
<trkpt lat="47.785233" lon="11.144885">
<ele>650.698</ele>
<time>2022-05-27T15:02:14Z</time>
</trkpt>
<trkpt lat="47.785286" lon="11.144765">
<ele>650.698</ele>
<time>2022-05-27T15:02:15Z</time>
</trkpt>
<trkpt lat="47.785313" lon="11.144707">
<ele>650.698</ele>
<time>2022-05-27T15:02:17Z</time>
</trkpt>
<trkpt lat="47.785358" lon="11.14459">
<ele>650.307</ele>
<time>2022-05-27T15:02:18Z</time>
</trkpt>
<trkpt lat="47.785385" lon="11.144534">
<ele>650.188</ele>
<time>2022-05-27T15:02:19Z</time>
</trkpt>
<trkpt lat="47.785412" lon="11.144478">
<ele>650.059</ele>
<time>2022-05-27T15:02:20Z</time>
</trkpt>
<trkpt lat="47.785442" lon="11.14443">
<ele>649.96</ele>
<time>2022-05-27T15:02:21Z</time>
</trkpt>
<trkpt lat="47.785469" lon="11.144382">
<ele>649.887</ele>
<time>2022-05-27T15:02:22Z</time>
</trkpt>
<trkpt lat="47.7855" lon="11.144337">
<ele>649.839</ele>
<time>2022-05-27T15:02:23Z</time>
</trkpt>
<trkpt lat="47.78553" lon="11.144297">
<ele>649.817</ele>
<time>2022-05-27T15:02:24Z</time>
</trkpt>
<trkpt lat="47.785568" lon="11.144258">
<ele>649.816</ele>
<time>2022-05-27T15:02:25Z</time>
</trkpt>
<trkpt lat="47.785603" lon="11.144216">
<ele>649.816</ele>
<time>2022-05-27T15:02:27Z</time>
</trkpt>
<trkpt lat="47.785671" lon="11.144121">
<ele>649.816</ele>
<time>2022-05-27T15:02:28Z</time>
</trkpt>
<trkpt lat="47.785702" lon="11.144073">
<ele>649.816</ele>
<time>2022-05-27T15:02:29Z</time>
</trkpt>
<trkpt lat="47.785736" lon="11.144025">
<ele>649.816</ele>
<time>2022-05-27T15:02:30Z</time>
</trkpt>
<trkpt lat="47.785763" lon="11.143975">
<ele>649.816</ele>
<time>2022-05-27T15:02:31Z</time>
</trkpt>
<trkpt lat="47.785789" lon="11.143925">
<ele>649.816</ele>
<time>2022-05-27T15:02:33Z</time>
</trkpt>
<trkpt lat="47.785847" lon="11.14382">
<ele>649.817</ele>
<time>2022-05-27T15:02:34Z</time>
</trkpt>
<trkpt lat="47.785877" lon="11.143765">
<ele>649.816</ele>
<time>2022-05-27T15:02:35Z</time>
</trkpt>
<trkpt lat="47.785904" lon="11.143706">
<ele>649.816</ele>
<time>2022-05-27T15:02:36Z</time>
</trkpt>
<trkpt lat="47.785931" lon="11.143648">
<ele>649.816</ele>
<time>2022-05-27T15:02:37Z</time>
</trkpt>
<trkpt lat="47.785954" lon="11.143587">
<ele>649.817</ele>
<time>2022-05-27T15:02:39Z</time>
</trkpt>
<trkpt lat="47.786007" lon="11.143466">
<ele>649.817</ele>
<time>2022-05-27T15:02:41Z</time>
</trkpt>
<trkpt lat="47.78606" lon="11.143347">
<ele>649.816</ele>
<time>2022-05-27T15:02:43Z</time>
</trkpt>
<trkpt lat="47.786087" lon="11.14329">
<ele>649.543</ele>
<time>2022-05-27T15:02:44Z</time>
</trkpt>
<trkpt lat="47.786133" lon="11.143183">
<ele>649.174</ele>
<time>2022-05-27T15:02:46Z</time>
</trkpt>
<trkpt lat="47.786156" lon="11.143135">
<ele>649.06</ele>
<time>2022-05-27T15:02:47Z</time>
</trkpt>
<trkpt lat="47.786198" lon="11.143044">
<ele>648.921</ele>
<time>2022-05-27T15:02:48Z</time>
</trkpt>
<trkpt lat="47.786217" lon="11.143001">
<ele>648.876</ele>
<time>2022-05-27T15:02:49Z</time>
</trkpt>
<trkpt lat="47.786236" lon="11.142959">
<ele>648.847</ele>
<time>2022-05-27T15:02:50Z</time>
</trkpt>
<trkpt lat="47.786259" lon="11.142915">
<ele>648.847</ele>
<time>2022-05-27T15:02:52Z</time>
</trkpt>
<trkpt lat="47.786297" lon="11.142833">
<ele>648.847</ele>
<time>2022-05-27T15:02:54Z</time>
</trkpt>
<trkpt lat="47.786324" lon="11.142803">
<ele>648.847</ele>
<time>2022-05-27T15:02:55Z</time>
</trkpt>
<trkpt lat="47.78635" lon="11.142797">
<ele>648.847</ele>
<time>2022-05-27T15:02:56Z</time>
</trkpt>
<trkpt lat="47.786373" lon="11.142822">
<ele>648.847</ele>
<time>2022-05-27T15:02:57Z</time>
</trkpt>
<trkpt lat="47.786388" lon="11.142862">
<ele>648.618</ele>
<time>2022-05-27T15:02:58Z</time>
</trkpt>
<trkpt lat="47.786396" lon="11.142904">
<ele>648.429</ele>
<time>2022-05-27T15:02:59Z</time>
</trkpt>
<trkpt lat="47.786415" lon="11.143003">
<ele>648.151</ele>
<time>2022-05-27T15:03:00Z</time>
</trkpt>
<trkpt lat="47.786427" lon="11.14306">
<ele>648.043</ele>
<time>2022-05-27T15:03:02Z</time>
</trkpt>
<trkpt lat="47.786453" lon="11.143191">
<ele>647.471</ele>
<time>2022-05-27T15:03:03Z</time>
</trkpt>
<trkpt lat="47.786465" lon="11.143265">
<ele>647.337</ele>
<time>2022-05-27T15:03:04Z</time>
</trkpt>
<trkpt lat="47.786484" lon="11.143342">
<ele>646.812</ele>
<time>2022-05-27T15:03:05Z</time>
</trkpt>
<trkpt lat="47.786499" lon="11.14342">
<ele>646.495</ele>
<time>2022-05-27T15:03:06Z</time>
</trkpt>
<trkpt lat="47.786514" lon="11.143499">
<ele>646.273</ele>
<time>2022-05-27T15:03:07Z</time>
</trkpt>
<trkpt lat="47.78653" lon="11.143583">
<ele>646.119</ele>
<time>2022-05-27T15:03:09Z</time>
</trkpt>
<trkpt lat="47.786568" lon="11.143759">
<ele>645.683</ele>
<time>2022-05-27T15:03:10Z</time>
</trkpt>
<trkpt lat="47.786587" lon="11.143847">
<ele>645.428</ele>
<time>2022-05-27T15:03:12Z</time>
</trkpt>
<trkpt lat="47.786625" lon="11.144021">
<ele>644.891</ele>
<time>2022-05-27T15:03:14Z</time>
</trkpt>
<trkpt lat="47.786655" lon="11.144205">
<ele>644.387</ele>
<time>2022-05-27T15:03:15Z</time>
</trkpt>
<trkpt lat="47.786663" lon="11.144297">
<ele>643.958</ele>
<time>2022-05-27T15:03:16Z</time>
</trkpt>
<trkpt lat="47.786667" lon="11.144385">
<ele>643.63</ele>
<time>2022-05-27T15:03:18Z</time>
</trkpt>
<trkpt lat="47.786678" lon="11.144551">
<ele>643.241</ele>
<time>2022-05-27T15:03:19Z</time>
</trkpt>
<trkpt lat="47.786694" lon="11.144625">
<ele>643.104</ele>
<time>2022-05-27T15:03:20Z</time>
</trkpt>
<trkpt lat="47.786724" lon="11.144687">
<ele>643.024</ele>
<time>2022-05-27T15:03:22Z</time>
</trkpt>
<trkpt lat="47.786823" lon="11.144756">
<ele>642.945</ele>
<time>2022-05-27T15:03:23Z</time>
</trkpt>
<trkpt lat="47.786877" lon="11.144777">
<ele>642.945</ele>
<time>2022-05-27T15:03:24Z</time>
</trkpt>
<trkpt lat="47.78693" lon="11.144794">
<ele>642.714</ele>
<time>2022-05-27T15:03:25Z</time>
</trkpt>
<trkpt lat="47.78698" lon="11.144805">
<ele>642.53</ele>
<time>2022-05-27T15:03:26Z</time>
</trkpt>
<trkpt lat="47.787029" lon="11.144818">
<ele>642.414</ele>
<time>2022-05-27T15:03:28Z</time>
</trkpt>
<trkpt lat="47.787075" lon="11.14483">
<ele>642.027</ele>
<time>2022-05-27T15:03:29Z</time>
</trkpt>
<trkpt lat="47.787113" lon="11.144838">
<ele>641.739</ele>
<time>2022-05-27T15:03:30Z</time>
</trkpt>
<trkpt lat="47.787197" lon="11.144852">
<ele>641.265</ele>
<time>2022-05-27T15:03:31Z</time>
</trkpt>
<trkpt lat="47.787235" lon="11.14486">
<ele>641.125</ele>
<time>2022-05-27T15:03:32Z</time>
</trkpt>
<trkpt lat="47.787273" lon="11.144868">
<ele>640.782</ele>
<time>2022-05-27T15:03:33Z</time>
</trkpt>
<trkpt lat="47.787308" lon="11.144876">
<ele>640.502</ele>
<time>2022-05-27T15:03:34Z</time>
</trkpt>
<trkpt lat="47.787346" lon="11.14488">
<ele>640.289</ele>
<time>2022-05-27T15:03:35Z</time>
</trkpt>
<trkpt lat="47.787388" lon="11.14488">
<ele>640.094</ele>
<time>2022-05-27T15:03:37Z</time>
</trkpt>
<trkpt lat="47.78743" lon="11.14488">
<ele>640.017</ele>
<time>2022-05-27T15:03:38Z</time>
</trkpt>
<trkpt lat="47.78751" lon="11.144878">
<ele>639.451</ele>
<time>2022-05-27T15:03:39Z</time>
</trkpt>
<trkpt lat="47.787552" lon="11.144878">
<ele>639.242</ele>
<time>2022-05-27T15:03:40Z</time>
</trkpt>
<trkpt lat="47.787594" lon="11.144884">
<ele>638.842</ele>
<time>2022-05-27T15:03:42Z</time>
</trkpt>
<trkpt lat="47.787632" lon="11.14489">
<ele>638.528</ele>
<time>2022-05-27T15:03:43Z</time>
</trkpt>
<trkpt lat="47.78772" lon="11.144909">
<ele>638.136</ele>
<time>2022-05-27T15:03:45Z</time>
</trkpt>
<trkpt lat="47.787804" lon="11.14494">
<ele>637.408</ele>
<time>2022-05-27T15:03:46Z</time>
</trkpt>
<trkpt lat="47.787849" lon="11.144961">
<ele>637.228</ele>
<time>2022-05-27T15:03:47Z</time>
</trkpt>
<trkpt lat="47.787891" lon="11.144991">
<ele>637.103</ele>
<time>2022-05-27T15:03:48Z</time>
</trkpt>
<trkpt lat="47.787937" lon="11.145026">
<ele>637.023</ele>
<time>2022-05-27T15:03:49Z</time>
</trkpt>
<trkpt lat="47.787975" lon="11.145068">
<ele>636.699</ele>
<time>2022-05-27T15:03:51Z</time>
</trkpt>
<trkpt lat="47.788044" lon="11.145178">
<ele>636.063</ele>
<time>2022-05-27T15:03:53Z</time>
</trkpt>
<trkpt lat="47.788074" lon="11.145242">
<ele>635.785</ele>
<time>2022-05-27T15:03:54Z</time>
</trkpt>
<trkpt lat="47.788101" lon="11.145313">
<ele>635.271</ele>
<time>2022-05-27T15:03:55Z</time>
</trkpt>
<trkpt lat="47.788147" lon="11.145463">
<ele>634.62</ele>
<time>2022-05-27T15:03:56Z</time>
</trkpt>
<trkpt lat="47.788162" lon="11.145547">
<ele>634.165</ele>
<time>2022-05-27T15:03:57Z</time>
</trkpt>
<trkpt lat="47.788177" lon="11.145637">
<ele>633.571</ele>
<time>2022-05-27T15:03:59Z</time>
</trkpt>
<trkpt lat="47.788189" lon="11.145833">
<ele>632.553</ele>
<time>2022-05-27T15:04:00Z</time>
</trkpt>
<trkpt lat="47.788193" lon="11.145936">
<ele>632.074</ele>
<time>2022-05-27T15:04:01Z</time>
</trkpt>
<trkpt lat="47.7882" lon="11.146043">
<ele>631.786</ele>
<time>2022-05-27T15:04:02Z</time>
</trkpt>
<trkpt lat="47.788212" lon="11.146152">
<ele>631.208</ele>
<time>2022-05-27T15:04:03Z</time>
</trkpt>
<trkpt lat="47.788227" lon="11.146258">
<ele>630.786</ele>
<time>2022-05-27T15:04:04Z</time>
</trkpt>
<trkpt lat="47.788246" lon="11.146365">
<ele>630.545</ele>
<time>2022-05-27T15:04:05Z</time>
</trkpt>
<trkpt lat="47.788265" lon="11.146472">
<ele>630.083</ele>
<time>2022-05-27T15:04:06Z</time>
</trkpt>
<trkpt lat="47.788288" lon="11.146579">
<ele>629.736</ele>
<time>2022-05-27T15:04:08Z</time>
</trkpt>
<trkpt lat="47.788315" lon="11.14668">
<ele>629.487</ele>
<time>2022-05-27T15:04:09Z</time>
</trkpt>
<trkpt lat="47.788364" lon="11.146873">
<ele>628.96</ele>
<time>2022-05-27T15:04:11Z</time>
</trkpt>
<trkpt lat="47.788383" lon="11.146971">
<ele>628.686</ele>
<time>2022-05-27T15:04:12Z</time>
</trkpt>
<trkpt lat="47.788437" lon="11.147159">
<ele>628.319</ele>
<time>2022-05-27T15:04:13Z</time>
</trkpt>
<trkpt lat="47.78846" lon="11.147253">
<ele>628.218</ele>
<time>2022-05-27T15:04:14Z</time>
</trkpt>
<trkpt lat="47.788479" lon="11.147346">
<ele>628.143</ele>
<time>2022-05-27T15:04:15Z</time>
</trkpt>
<trkpt lat="47.788509" lon="11.147438">
<ele>628.094</ele>
<time>2022-05-27T15:04:16Z</time>
</trkpt>
<trkpt lat="47.788532" lon="11.147531">
<ele>628.071</ele>
<time>2022-05-27T15:04:18Z</time>
</trkpt>
<trkpt lat="47.788586" lon="11.147715">
<ele>627.706</ele>
<time>2022-05-27T15:04:19Z</time>
</trkpt>
<trkpt lat="47.788612" lon="11.147807">
<ele>627.313</ele>
<time>2022-05-27T15:04:21Z</time>
</trkpt>
<trkpt lat="47.788647" lon="11.147902">
<ele>627.033</ele>
<time>2022-05-27T15:04:22Z</time>
</trkpt>
<trkpt lat="47.788677" lon="11.148">
<ele>626.556</ele>
<time>2022-05-27T15:04:23Z</time>
</trkpt>
<trkpt lat="47.788708" lon="11.148096">
<ele>625.649</ele>
<time>2022-05-27T15:04:24Z</time>
</trkpt>
<trkpt lat="47.788761" lon="11.148289">
<ele>624.189</ele>
<time>2022-05-27T15:04:26Z</time>
</trkpt>
<trkpt lat="47.788792" lon="11.148383">
<ele>623.628</ele>
<time>2022-05-27T15:04:27Z</time>
</trkpt>
<trkpt lat="47.788815" lon="11.148481">
<ele>622.873</ele>
<time>2022-05-27T15:04:28Z</time>
</trkpt>
<trkpt lat="47.788837" lon="11.148583">
<ele>622.367</ele>
<time>2022-05-27T15:04:29Z</time>
</trkpt>
<trkpt lat="47.788868" lon="11.1488">
<ele>620.952</ele>
<time>2022-05-27T15:04:30Z</time>
</trkpt>
<trkpt lat="47.788879" lon="11.148905">
<ele>620.442</ele>
<time>2022-05-27T15:04:31Z</time>
</trkpt>
<trkpt lat="47.788895" lon="11.14901">
<ele>619.7</ele>
<time>2022-05-27T15:04:33Z</time>
</trkpt>
<trkpt lat="47.788914" lon="11.149204">
<ele>618.568</ele>
<time>2022-05-27T15:04:34Z</time>
</trkpt>
<trkpt lat="47.788921" lon="11.149297">
<ele>617.852</ele>
<time>2022-05-27T15:04:35Z</time>
</trkpt>
<trkpt lat="47.788925" lon="11.149388">
<ele>617.357</ele>
<time>2022-05-27T15:04:36Z</time>
</trkpt>
<trkpt lat="47.788925" lon="11.149479">
<ele>616.676</ele>
<time>2022-05-27T15:04:37Z</time>
</trkpt>
<trkpt lat="47.788925" lon="11.149567">
<ele>616.149</ele>
<time>2022-05-27T15:04:38Z</time>
</trkpt>
<trkpt lat="47.788925" lon="11.149656">
<ele>615.794</ele>
<time>2022-05-27T15:04:39Z</time>
</trkpt>
<trkpt lat="47.788921" lon="11.149745">
<ele>615.255</ele>
<time>2022-05-27T15:04:41Z</time>
</trkpt>
<trkpt lat="47.788925" lon="11.149913">
<ele>614.141</ele>
<time>2022-05-27T15:04:42Z</time>
</trkpt>
<trkpt lat="47.788921" lon="11.149992">
<ele>613.52</ele>
<time>2022-05-27T15:04:44Z</time>
</trkpt>
<trkpt lat="47.788902" lon="11.15013">
<ele>612.517</ele>
<time>2022-05-27T15:04:45Z</time>
</trkpt>
<trkpt lat="47.788883" lon="11.150188">
<ele>612.11</ele>
<time>2022-05-27T15:04:47Z</time>
</trkpt>
<trkpt lat="47.78886" lon="11.150291">
<ele>611.02</ele>
<time>2022-05-27T15:04:49Z</time>
</trkpt>
<trkpt lat="47.788845" lon="11.150335">
<ele>610.704</ele>
<time>2022-05-27T15:04:50Z</time>
</trkpt>
<trkpt lat="47.78883" lon="11.150407">
<ele>609.824</ele>
<time>2022-05-27T15:04:52Z</time>
</trkpt>
<trkpt lat="47.788811" lon="11.150447">
<ele>609.311</ele>
<time>2022-05-27T15:04:53Z</time>
</trkpt>
<trkpt lat="47.788799" lon="11.150483">
<ele>608.915</ele>
<time>2022-05-27T15:04:54Z</time>
</trkpt>
<trkpt lat="47.78878" lon="11.150554">
<ele>608.165</ele>
<time>2022-05-27T15:04:55Z</time>
</trkpt>
<trkpt lat="47.78878" lon="11.150583">
<ele>607.796</ele>
<time>2022-05-27T15:04:57Z</time>
</trkpt>
<trkpt lat="47.788773" lon="11.150668">
<ele>606.874</ele>
<time>2022-05-27T15:04:58Z</time>
</trkpt>
<trkpt lat="47.788773" lon="11.150708">
<ele>606.343</ele>
<time>2022-05-27T15:04:59Z</time>
</trkpt>
<trkpt lat="47.788773" lon="11.150762">
<ele>605.907</ele>
<time>2022-05-27T15:05:01Z</time>
</trkpt>
<trkpt lat="47.788795" lon="11.15085">
<ele>604.379</ele>
<time>2022-05-27T15:05:02Z</time>
</trkpt>
<trkpt lat="47.788811" lon="11.15089">
<ele>603.804</ele>
<time>2022-05-27T15:05:04Z</time>
</trkpt>
<trkpt lat="47.788853" lon="11.150956">
<ele>602.588</ele>
<time>2022-05-27T15:05:05Z</time>
</trkpt>
<trkpt lat="47.788872" lon="11.150981">
<ele>601.925</ele>
<time>2022-05-27T15:05:07Z</time>
</trkpt>
<trkpt lat="47.788902" lon="11.151056">
<ele>600.856</ele>
<time>2022-05-27T15:05:08Z</time>
</trkpt>
<trkpt lat="47.788918" lon="11.151083">
<ele>600.404</ele>
<time>2022-05-27T15:05:09Z</time>
</trkpt>
<trkpt lat="47.788937" lon="11.151102">
<ele>599.838</ele>
<time>2022-05-27T15:05:11Z</time>
</trkpt>
<trkpt lat="47.788986" lon="11.151151">
<ele>598.685</ele>
<time>2022-05-27T15:05:12Z</time>
</trkpt>
<trkpt lat="47.789017" lon="11.151184">
<ele>597.937</ele>
<time>2022-05-27T15:05:14Z</time>
</trkpt>
<trkpt lat="47.789066" lon="11.151235">
<ele>596.796</ele>
<time>2022-05-27T15:05:16Z</time>
</trkpt>
<trkpt lat="47.789146" lon="11.151317">
<ele>595.597</ele>
<time>2022-05-27T15:05:17Z</time>
</trkpt>
<trkpt lat="47.789165" lon="11.151352">
<ele>595.143</ele>
<time>2022-05-27T15:05:18Z</time>
</trkpt>
<trkpt lat="47.789192" lon="11.151385">
<ele>594.905</ele>
<time>2022-05-27T15:05:19Z</time>
</trkpt>
<trkpt lat="47.789223" lon="11.151429">
<ele>594.462</ele>
<time>2022-05-27T15:05:20Z</time>
</trkpt>
<trkpt lat="47.789253" lon="11.151486">
<ele>593.817</ele>
<time>2022-05-27T15:05:21Z</time>
</trkpt>
<trkpt lat="47.789288" lon="11.151532">
<ele>593.303</ele>
<time>2022-05-27T15:05:22Z</time>
</trkpt>
<trkpt lat="47.789326" lon="11.151557">
<ele>593.053</ele>
<time>2022-05-27T15:05:23Z</time>
</trkpt>
<trkpt lat="47.78936" lon="11.151568">
<ele>592.568</ele>
<time>2022-05-27T15:05:25Z</time>
</trkpt>
<trkpt lat="47.789425" lon="11.151595">
<ele>591.686</ele>
<time>2022-05-27T15:05:26Z</time>
</trkpt>
<trkpt lat="47.789467" lon="11.151604">
<ele>591.044</ele>
<time>2022-05-27T15:05:28Z</time>
</trkpt>
<trkpt lat="47.789536" lon="11.15163">
<ele>590.029</ele>
<time>2022-05-27T15:05:29Z</time>
</trkpt>
<trkpt lat="47.789562" lon="11.151641">
<ele>589.476</ele>
<time>2022-05-27T15:05:30Z</time>
</trkpt>
<trkpt lat="47.789597" lon="11.15164">
<ele>589.062</ele>
<time>2022-05-27T15:05:32Z</time>
</trkpt>
<trkpt lat="47.789627" lon="11.151635">
<ele>588.787</ele>
<time>2022-05-27T15:05:33Z</time>
</trkpt>
<trkpt lat="47.7897" lon="11.151622">
<ele>588.051</ele>
<time>2022-05-27T15:05:35Z</time>
</trkpt>
<trkpt lat="47.78978" lon="11.151576">
<ele>587.703</ele>
<time>2022-05-27T15:05:36Z</time>
</trkpt>
<trkpt lat="47.789822" lon="11.151551">
<ele>587.31</ele>
<time>2022-05-27T15:05:38Z</time>
</trkpt>
<trkpt lat="47.789921" lon="11.151462">
<ele>586.917</ele>
<time>2022-05-27T15:05:39Z</time>
</trkpt>
<trkpt lat="47.789978" lon="11.151402">
<ele>586.77</ele>
<time>2022-05-27T15:05:40Z</time>
</trkpt>
<trkpt lat="47.790028" lon="11.151337">
<ele>586.38</ele>
<time>2022-05-27T15:05:41Z</time>
</trkpt>
<trkpt lat="47.790077" lon="11.15127">
<ele>586.082</ele>
<time>2022-05-27T15:05:42Z</time>
</trkpt>
<trkpt lat="47.790115" lon="11.151201">
<ele>585.923</ele>
<time>2022-05-27T15:05:44Z</time>
</trkpt>
<trkpt lat="47.790184" lon="11.151071">
<ele>585.115</ele>
<time>2022-05-27T15:05:45Z</time>
</trkpt>
<trkpt lat="47.790218" lon="11.151012">
<ele>584.912</ele>
<time>2022-05-27T15:05:47Z</time>
</trkpt>
<trkpt lat="47.790279" lon="11.15089">
<ele>584.695</ele>
<time>2022-05-27T15:05:48Z</time>
</trkpt>
<trkpt lat="47.790314" lon="11.150826">
<ele>584.629</ele>
<time>2022-05-27T15:05:49Z</time>
</trkpt>
<trkpt lat="47.79034" lon="11.150748">
<ele>584.259</ele>
<time>2022-05-27T15:05:50Z</time>
</trkpt>
<trkpt lat="47.790371" lon="11.150661">
<ele>583.957</ele>
<time>2022-05-27T15:05:51Z</time>
</trkpt>
<trkpt lat="47.790398" lon="11.15057">
<ele>583.724</ele>
<time>2022-05-27T15:05:53Z</time>
</trkpt>
<trkpt lat="47.790466" lon="11.150398">
<ele>583.405</ele>
<time>2022-05-27T15:05:55Z</time>
</trkpt>
<trkpt lat="47.790535" lon="11.150246">
<ele>583.259</ele>
<time>2022-05-27T15:05:56Z</time>
</trkpt>
<trkpt lat="47.790565" lon="11.150166">
<ele>583.011</ele>
<time>2022-05-27T15:05:57Z</time>
</trkpt>
<trkpt lat="47.7906" lon="11.150084">
<ele>582.836</ele>
<time>2022-05-27T15:05:58Z</time>
</trkpt>
<trkpt lat="47.79063" lon="11.150002">
<ele>582.72</ele>
<time>2022-05-27T15:05:59Z</time>
</trkpt>
<trkpt lat="47.790668" lon="11.149917">
<ele>582.593</ele>
<time>2022-05-27T15:06:00Z</time>
</trkpt>
<trkpt lat="47.790714" lon="11.149838">
<ele>582.501</ele>
<time>2022-05-27T15:06:01Z</time>
</trkpt>
<trkpt lat="47.790764" lon="11.149766">
<ele>582.185</ele>
<time>2022-05-27T15:06:02Z</time>
</trkpt>
<trkpt lat="47.790817" lon="11.149705">
<ele>581.965</ele>
<time>2022-05-27T15:06:03Z</time>
</trkpt>
<trkpt lat="47.790867" lon="11.149635">
<ele>581.53</ele>
<time>2022-05-27T15:06:05Z</time>
</trkpt>
<trkpt lat="47.790916" lon="11.149565">
<ele>581.151</ele>
<time>2022-05-27T15:06:06Z</time>
</trkpt>
<trkpt lat="47.791016" lon="11.149397">
<ele>580.31</ele>
<time>2022-05-27T15:06:07Z</time>
</trkpt>
<trkpt lat="47.791054" lon="11.149303">
<ele>579.775</ele>
<time>2022-05-27T15:06:08Z</time>
</trkpt>
<trkpt lat="47.79108" lon="11.149212">
<ele>579.365</ele>
<time>2022-05-27T15:06:09Z</time>
</trkpt>
<trkpt lat="47.7911" lon="11.149123">
<ele>579.029</ele>
<time>2022-05-27T15:06:11Z</time>
</trkpt>
<trkpt lat="47.791119" lon="11.149041">
<ele>578.516</ele>
<time>2022-05-27T15:06:12Z</time>
</trkpt>
<trkpt lat="47.791138" lon="11.148965">
<ele>578.146</ele>
<time>2022-05-27T15:06:13Z</time>
</trkpt>
<trkpt lat="47.791153" lon="11.148891">
<ele>577.865</ele>
<time>2022-05-27T15:06:14Z</time>
</trkpt>
<trkpt lat="47.791168" lon="11.148825">
<ele>577.676</ele>
<time>2022-05-27T15:06:15Z</time>
</trkpt>
<trkpt lat="47.791206" lon="11.148722">
<ele>577.394</ele>
<time>2022-05-27T15:06:16Z</time>
</trkpt>
<trkpt lat="47.791222" lon="11.148686">
<ele>577.362</ele>
<time>2022-05-27T15:06:17Z</time>
</trkpt>
<trkpt lat="47.791252" lon="11.148662">
<ele>577.362</ele>
<time>2022-05-27T15:06:19Z</time>
</trkpt>
<trkpt lat="47.791283" lon="11.148651">
<ele>577.362</ele>
<time>2022-05-27T15:06:20Z</time>
</trkpt>
<trkpt lat="47.791336" lon="11.148664">
<ele>577.362</ele>
<time>2022-05-27T15:06:21Z</time>
</trkpt>
<trkpt lat="47.791359" lon="11.148677">
<ele>577.362</ele>
<time>2022-05-27T15:06:22Z</time>
</trkpt>
<trkpt lat="47.791382" lon="11.148691">
<ele>577.094</ele>
<time>2022-05-27T15:06:23Z</time>
</trkpt>
<trkpt lat="47.791405" lon="11.148702">
<ele>576.864</ele>
<time>2022-05-27T15:06:24Z</time>
</trkpt>
<trkpt lat="47.791435" lon="11.148714">
<ele>576.68</ele>
<time>2022-05-27T15:06:26Z</time>
</trkpt>
<trkpt lat="47.7915" lon="11.148749">
<ele>576.473</ele>
<time>2022-05-27T15:06:28Z</time>
</trkpt>
<trkpt lat="47.791576" lon="11.148787">
<ele>575.908</ele>
<time>2022-05-27T15:06:30Z</time>
</trkpt>
<trkpt lat="47.791664" lon="11.148829">
<ele>575.564</ele>
<time>2022-05-27T15:06:31Z</time>
</trkpt>
<trkpt lat="47.79171" lon="11.148854">
<ele>575.471</ele>
<time>2022-05-27T15:06:33Z</time>
</trkpt>
<trkpt lat="47.791809" lon="11.148905">
<ele>575.369</ele>
<time>2022-05-27T15:06:34Z</time>
</trkpt>
<trkpt lat="47.791866" lon="11.148932">
<ele>575.349</ele>
<time>2022-05-27T15:06:36Z</time>
</trkpt>
<trkpt lat="47.791958" lon="11.148985">
<ele>575.102</ele>
<time>2022-05-27T15:06:37Z</time>
</trkpt>
<trkpt lat="47.792004" lon="11.14901">
<ele>574.913</ele>
<time>2022-05-27T15:06:38Z</time>
</trkpt>
<trkpt lat="47.792049" lon="11.149035">
<ele>574.786</ele>
<time>2022-05-27T15:06:39Z</time>
</trkpt>
<trkpt lat="47.792091" lon="11.14906">
<ele>574.65</ele>
<time>2022-05-27T15:06:41Z</time>
</trkpt>
<trkpt lat="47.792179" lon="11.149105">
<ele>574.465</ele>
<time>2022-05-27T15:06:42Z</time>
</trkpt>
<trkpt lat="47.792225" lon="11.149127">
<ele>574.414</ele>
<time>2022-05-27T15:06:43Z</time>
</trkpt>
<trkpt lat="47.792274" lon="11.149148">
<ele>574.387</ele>
<time>2022-05-27T15:06:44Z</time>
</trkpt>
<trkpt lat="47.792324" lon="11.149172">
<ele>574.387</ele>
<time>2022-05-27T15:06:45Z</time>
</trkpt>
<trkpt lat="47.792366" lon="11.149194">
<ele>574.387</ele>
<time>2022-05-27T15:06:47Z</time>
</trkpt>
<trkpt lat="47.792461" lon="11.149243">
<ele>574.127</ele>
<time>2022-05-27T15:06:48Z</time>
</trkpt>
<trkpt lat="47.792507" lon="11.149269">
<ele>573.946</ele>
<time>2022-05-27T15:06:49Z</time>
</trkpt>
<trkpt lat="47.792553" lon="11.149292">
<ele>573.76</ele>
<time>2022-05-27T15:06:50Z</time>
</trkpt>
<trkpt lat="47.792603" lon="11.149313">
<ele>573.612</ele>
<time>2022-05-27T15:06:51Z</time>
</trkpt>
<trkpt lat="47.792641" lon="11.149334">
<ele>573.501</ele>
<time>2022-05-27T15:06:53Z</time>
</trkpt>
<trkpt lat="47.792683" lon="11.149346">
<ele>573.418</ele>
<time>2022-05-27T15:06:54Z</time>
</trkpt>
<trkpt lat="47.792747" lon="11.149344">
<ele>573.337</ele>
<time>2022-05-27T15:06:55Z</time>
</trkpt>
<trkpt lat="47.792782" lon="11.149325">
<ele>573.337</ele>
<time>2022-05-27T15:06:57Z</time>
</trkpt>
<trkpt lat="47.792835" lon="11.149246">
<ele>573.337</ele>
<time>2022-05-27T15:06:58Z</time>
</trkpt>
<trkpt lat="47.79285" lon="11.149199">
<ele>573.337</ele>
<time>2022-05-27T15:06:59Z</time>
</trkpt>
<trkpt lat="47.792877" lon="11.149143">
<ele>573.337</ele>
<time>2022-05-27T15:07:01Z</time>
</trkpt>
<trkpt lat="47.792915" lon="11.149035">
<ele>573.337</ele>
<time>2022-05-27T15:07:02Z</time>
</trkpt>
<trkpt lat="47.792946" lon="11.14898">
<ele>573.337</ele>
<time>2022-05-27T15:07:03Z</time>
</trkpt>
<trkpt lat="47.792973" lon="11.148915">
<ele>573.337</ele>
<time>2022-05-27T15:07:05Z</time>
</trkpt>
<trkpt lat="47.792992" lon="11.148852">
<ele>573.337</ele>
<time>2022-05-27T15:07:06Z</time>
</trkpt>
<trkpt lat="47.793041" lon="11.148726">
<ele>573.337</ele>
<time>2022-05-27T15:07:07Z</time>
</trkpt>
<trkpt lat="47.79306" lon="11.148662">
<ele>573.337</ele>
<time>2022-05-27T15:07:08Z</time>
</trkpt>
<trkpt lat="47.793083" lon="11.148597">
<ele>573.337</ele>
<time>2022-05-27T15:07:10Z</time>
</trkpt>
<trkpt lat="47.793125" lon="11.148457">
<ele>573.337</ele>
<time>2022-05-27T15:07:11Z</time>
</trkpt>
<trkpt lat="47.793152" lon="11.148396">
<ele>573.084</ele>
<time>2022-05-27T15:07:13Z</time>
</trkpt>
<trkpt lat="47.79319" lon="11.148258">
<ele>572.734</ele>
<time>2022-05-27T15:07:14Z</time>
</trkpt>
<trkpt lat="47.793205" lon="11.14819">
<ele>572.629</ele>
<time>2022-05-27T15:07:16Z</time>
</trkpt>
<trkpt lat="47.793243" lon="11.14806">
<ele>572.505</ele>
<time>2022-05-27T15:07:17Z</time>
</trkpt>
<trkpt lat="47.793262" lon="11.147997">
<ele>572.483</ele>
<time>2022-05-27T15:07:19Z</time>
</trkpt>
<trkpt lat="47.793274" lon="11.14793">
<ele>572.462</ele>
<time>2022-05-27T15:07:20Z</time>
</trkpt>
<trkpt lat="47.793304" lon="11.147799">
<ele>572.462</ele>
<time>2022-05-27T15:07:22Z</time>
</trkpt>
<trkpt lat="47.793327" lon="11.147645">
<ele>572.462</ele>
<time>2022-05-27T15:07:24Z</time>
</trkpt>
<trkpt lat="47.793335" lon="11.147557">
<ele>572.462</ele>
<time>2022-05-27T15:07:25Z</time>
</trkpt>
<trkpt lat="47.793343" lon="11.147465">
<ele>572.462</ele>
<time>2022-05-27T15:07:26Z</time>
</trkpt>
<trkpt lat="47.793358" lon="11.147371">
<ele>572.462</ele>
<time>2022-05-27T15:07:27Z</time>
</trkpt>
<trkpt lat="47.793388" lon="11.147188">
<ele>572.462</ele>
<time>2022-05-27T15:07:28Z</time>
</trkpt>
<trkpt lat="47.793392" lon="11.147095">
<ele>572.462</ele>
<time>2022-05-27T15:07:29Z</time>
</trkpt>
<trkpt lat="47.793396" lon="11.147005">
<ele>572.462</ele>
<time>2022-05-27T15:07:30Z</time>
</trkpt>
<trkpt lat="47.793396" lon="11.146914">
<ele>572.462</ele>
<time>2022-05-27T15:07:32Z</time>
</trkpt>
<trkpt lat="47.793388" lon="11.146824">
<ele>572.462</ele>
<time>2022-05-27T15:07:33Z</time>
</trkpt>
<trkpt lat="47.793385" lon="11.146731">
<ele>572.462</ele>
<time>2022-05-27T15:07:34Z</time>
</trkpt>
<trkpt lat="47.793381" lon="11.146645">
<ele>572.462</ele>
<time>2022-05-27T15:07:35Z</time>
</trkpt>
<trkpt lat="47.793362" lon="11.146483">
<ele>572.462</ele>
<time>2022-05-27T15:07:37Z</time>
</trkpt>
<trkpt lat="47.79335" lon="11.146401">
<ele>572.462</ele>
<time>2022-05-27T15:07:38Z</time>
</trkpt>
<trkpt lat="47.793339" lon="11.146319">
<ele>572.462</ele>
<time>2022-05-27T15:07:39Z</time>
</trkpt>
<trkpt lat="47.793312" lon="11.14616">
<ele>572.462</ele>
<time>2022-05-27T15:07:40Z</time>
</trkpt>
<trkpt lat="47.793304" lon="11.146087">
<ele>572.462</ele>
<time>2022-05-27T15:07:41Z</time>
</trkpt>
<trkpt lat="47.793304" lon="11.146011">
<ele>572.189</ele>
<time>2022-05-27T15:07:42Z</time>
</trkpt>
<trkpt lat="47.793301" lon="11.145938">
<ele>571.974</ele>
<time>2022-05-27T15:07:43Z</time>
</trkpt>
<trkpt lat="47.793301" lon="11.14587">
<ele>571.811</ele>
<time>2022-05-27T15:07:44Z</time>
</trkpt>
<trkpt lat="47.793304" lon="11.145803">
<ele>571.695</ele>
<time>2022-05-27T15:07:45Z</time>
</trkpt>
<trkpt lat="47.793304" lon="11.145741">
<ele>571.606</ele>
<time>2022-05-27T15:07:46Z</time>
</trkpt>
<trkpt lat="47.793304" lon="11.14568">
<ele>571.754</ele>
<time>2022-05-27T15:07:47Z</time>
</trkpt>
<trkpt lat="47.793312" lon="11.145623">
<ele>571.891</ele>
<time>2022-05-27T15:07:48Z</time>
</trkpt>
<trkpt lat="47.79332" lon="11.145569">
<ele>571.899</ele>
<time>2022-05-27T15:07:49Z</time>
</trkpt>
<trkpt lat="47.793339" lon="11.145509">
<ele>572.055</ele>
<time>2022-05-27T15:07:51Z</time>
</trkpt>
<trkpt lat="47.793388" lon="11.14539">
<ele>572.308</ele>
<time>2022-05-27T15:07:52Z</time>
</trkpt>
<trkpt lat="47.7934" lon="11.145337">
<ele>572.388</ele>
<time>2022-05-27T15:07:53Z</time>
</trkpt>
<trkpt lat="47.793415" lon="11.145276">
<ele>572.439</ele>
<time>2022-05-27T15:07:55Z</time>
</trkpt>
<trkpt lat="47.793468" lon="11.145152">
<ele>572.462</ele>
<time>2022-05-27T15:07:56Z</time>
</trkpt>
<trkpt lat="47.793495" lon="11.14509">
<ele>572.462</ele>
<time>2022-05-27T15:07:57Z</time>
</trkpt>
<trkpt lat="47.793518" lon="11.145028">
<ele>572.223</ele>
<time>2022-05-27T15:07:58Z</time>
</trkpt>
<trkpt lat="47.793541" lon="11.144963">
<ele>572.055</ele>
<time>2022-05-27T15:07:59Z</time>
</trkpt>
<trkpt lat="47.793568" lon="11.144903">
<ele>571.88</ele>
<time>2022-05-27T15:08:01Z</time>
</trkpt>
<trkpt lat="47.793621" lon="11.144796">
<ele>571.646</ele>
<time>2022-05-27T15:08:02Z</time>
</trkpt>
<trkpt lat="47.793644" lon="11.144748">
<ele>571.574</ele>
<time>2022-05-27T15:08:03Z</time>
</trkpt>
<trkpt lat="47.793678" lon="11.144702">
<ele>571.526</ele>
<time>2022-05-27T15:08:04Z</time>
</trkpt>
<trkpt lat="47.793713" lon="11.144651">
<ele>571.5</ele>
<time>2022-05-27T15:08:05Z</time>
</trkpt>
<trkpt lat="47.793743" lon="11.144604">
<ele>571.5</ele>
<time>2022-05-27T15:08:06Z</time>
</trkpt>
<trkpt lat="47.793766" lon="11.144545">
<ele>571.5</ele>
<time>2022-05-27T15:08:07Z</time>
</trkpt>
<trkpt lat="47.793793" lon="11.144486">
<ele>571.5</ele>
<time>2022-05-27T15:08:08Z</time>
</trkpt>
<trkpt lat="47.793823" lon="11.14443">
<ele>571.5</ele>
<time>2022-05-27T15:08:09Z</time>
</trkpt>
<trkpt lat="47.793846" lon="11.144379">
<ele>571.5</ele>
<time>2022-05-27T15:08:10Z</time>
</trkpt>
<trkpt lat="47.793877" lon="11.14433">
<ele>571.5</ele>
<time>2022-05-27T15:08:12Z</time>
</trkpt>
<trkpt lat="47.793907" lon="11.144277">
<ele>571.5</ele>
<time>2022-05-27T15:08:13Z</time>
</trkpt>
<trkpt lat="47.793957" lon="11.144168">
<ele>571.5</ele>
<time>2022-05-27T15:08:15Z</time>
</trkpt>
<trkpt lat="47.793987" lon="11.144112">
<ele>571.5</ele>
<time>2022-05-27T15:08:16Z</time>
</trkpt>
<trkpt lat="47.794018" lon="11.144047">
<ele>571.5</ele>
<time>2022-05-27T15:08:17Z</time>
</trkpt>
<trkpt lat="47.794083" lon="11.143898">
<ele>571.5</ele>
<time>2022-05-27T15:08:19Z</time>
</trkpt>
<trkpt lat="47.794117" lon="11.143825">
<ele>571.5</ele>
<time>2022-05-27T15:08:20Z</time>
</trkpt>
<trkpt lat="47.794189" lon="11.143703">
<ele>571.5</ele>
<time>2022-05-27T15:08:21Z</time>
</trkpt>
<trkpt lat="47.794231" lon="11.143643">
<ele>571.5</ele>
<time>2022-05-27T15:08:22Z</time>
</trkpt>
<trkpt lat="47.79427" lon="11.143588">
<ele>571.5</ele>
<time>2022-05-27T15:08:24Z</time>
</trkpt>
<trkpt lat="47.794338" lon="11.143485">
<ele>571.5</ele>
<time>2022-05-27T15:08:25Z</time>
</trkpt>
<trkpt lat="47.794373" lon="11.143434">
<ele>571.5</ele>
<time>2022-05-27T15:08:27Z</time>
</trkpt>
<trkpt lat="47.794411" lon="11.143387">
<ele>571.5</ele>
<time>2022-05-27T15:08:28Z</time>
</trkpt>
<trkpt lat="47.794445" lon="11.14334">
<ele>571.5</ele>
<time>2022-05-27T15:08:29Z</time>
</trkpt>
<trkpt lat="47.79451" lon="11.14325">
<ele>571.096</ele>
<time>2022-05-27T15:08:30Z</time>
</trkpt>
<trkpt lat="47.794544" lon="11.143204">
<ele>570.928</ele>
<time>2022-05-27T15:08:31Z</time>
</trkpt>
<trkpt lat="47.794575" lon="11.143164">
<ele>570.792</ele>
<time>2022-05-27T15:08:32Z</time>
</trkpt>
<trkpt lat="47.794609" lon="11.143122">
<ele>570.688</ele>
<time>2022-05-27T15:08:34Z</time>
</trkpt>
<trkpt lat="47.794674" lon="11.143039">
<ele>570.562</ele>
<time>2022-05-27T15:08:35Z</time>
</trkpt>
<trkpt lat="47.794708" lon="11.142997">
<ele>570.538</ele>
<time>2022-05-27T15:08:36Z</time>
</trkpt>
<trkpt lat="47.794746" lon="11.142959">
<ele>570.538</ele>
<time>2022-05-27T15:08:37Z</time>
</trkpt>
<trkpt lat="47.794792" lon="11.142921">
<ele>570.538</ele>
<time>2022-05-27T15:08:38Z</time>
</trkpt>
<trkpt lat="47.794834" lon="11.142892">
<ele>570.538</ele>
<time>2022-05-27T15:08:40Z</time>
</trkpt>
<trkpt lat="47.79488" lon="11.14287">
<ele>570.538</ele>
<time>2022-05-27T15:08:41Z</time>
</trkpt>
<trkpt lat="47.794975" lon="11.142833">
<ele>570.066</ele>
<time>2022-05-27T15:08:43Z</time>
</trkpt>
<trkpt lat="47.795063" lon="11.142833">
<ele>569.809</ele>
<time>2022-05-27T15:08:44Z</time>
</trkpt>
<trkpt lat="47.795109" lon="11.142847">
<ele>569.732</ele>
<time>2022-05-27T15:08:45Z</time>
</trkpt>
<trkpt lat="47.795158" lon="11.142865">
<ele>569.686</ele>
<time>2022-05-27T15:08:47Z</time>
</trkpt>
<trkpt lat="47.795265" lon="11.142912">
<ele>569.663</ele>
<time>2022-05-27T15:08:48Z</time>
</trkpt>
<trkpt lat="47.795326" lon="11.142941">
<ele>569.663</ele>
<time>2022-05-27T15:08:50Z</time>
</trkpt>
<trkpt lat="47.795376" lon="11.142978">
<ele>569.412</ele>
<time>2022-05-27T15:08:51Z</time>
</trkpt>
<trkpt lat="47.795483" lon="11.14307">
<ele>569.043</ele>
<time>2022-05-27T15:08:53Z</time>
</trkpt>
<trkpt lat="47.795578" lon="11.143179">
<ele>568.832</ele>
<time>2022-05-27T15:08:54Z</time>
</trkpt>
<trkpt lat="47.79562" lon="11.143237">
<ele>568.767</ele>
<time>2022-05-27T15:08:55Z</time>
</trkpt>
<trkpt lat="47.795658" lon="11.143295">
<ele>568.724</ele>
<time>2022-05-27T15:08:57Z</time>
</trkpt>
<trkpt lat="47.795742" lon="11.143412">
<ele>568.702</ele>
<time>2022-05-27T15:08:58Z</time>
</trkpt>
<trkpt lat="47.795784" lon="11.143465">
<ele>568.702</ele>
<time>2022-05-27T15:08:59Z</time>
</trkpt>
<trkpt lat="47.795822" lon="11.143518">
<ele>568.702</ele>
<time>2022-05-27T15:09:00Z</time>
</trkpt>
<trkpt lat="47.79586" lon="11.143572">
<ele>568.702</ele>
<time>2022-05-27T15:09:01Z</time>
</trkpt>
<trkpt lat="47.795898" lon="11.143625">
<ele>568.702</ele>
<time>2022-05-27T15:09:02Z</time>
</trkpt>
<trkpt lat="47.795933" lon="11.14368">
<ele>568.702</ele>
<time>2022-05-27T15:09:04Z</time>
</trkpt>
<trkpt lat="47.795975" lon="11.143732">
<ele>568.702</ele>
<time>2022-05-27T15:09:05Z</time>
</trkpt>
<trkpt lat="47.796047" lon="11.14383">
<ele>568.702</ele>
<time>2022-05-27T15:09:06Z</time>
</trkpt>
<trkpt lat="47.796082" lon="11.143876">
<ele>568.702</ele>
<time>2022-05-27T15:09:08Z</time>
</trkpt>
<trkpt lat="47.796165" lon="11.143955">
<ele>568.702</ele>
<time>2022-05-27T15:09:10Z</time>
</trkpt>
<trkpt lat="47.796242" lon="11.14403">
<ele>568.702</ele>
<time>2022-05-27T15:09:11Z</time>
</trkpt>
<trkpt lat="47.796284" lon="11.144065">
<ele>568.702</ele>
<time>2022-05-27T15:09:12Z</time>
</trkpt>
<trkpt lat="47.796326" lon="11.144098">
<ele>568.702</ele>
<time>2022-05-27T15:09:14Z</time>
</trkpt>
<trkpt lat="47.796371" lon="11.144132">
<ele>568.702</ele>
<time>2022-05-27T15:09:15Z</time>
</trkpt>
<trkpt lat="47.796463" lon="11.144192">
<ele>568.702</ele>
<time>2022-05-27T15:09:17Z</time>
</trkpt>
<trkpt lat="47.796501" lon="11.144224">
<ele>568.702</ele>
<time>2022-05-27T15:09:18Z</time>
</trkpt>
<trkpt lat="47.796597" lon="11.144277">
<ele>568.702</ele>
<time>2022-05-27T15:09:19Z</time>
</trkpt>
<trkpt lat="47.796638" lon="11.144297">
<ele>568.702</ele>
<time>2022-05-27T15:09:20Z</time>
</trkpt>
<trkpt lat="47.796684" lon="11.14432">
<ele>568.702</ele>
<time>2022-05-27T15:09:21Z</time>
</trkpt>
<trkpt lat="47.796726" lon="11.144343">
<ele>568.702</ele>
<time>2022-05-27T15:09:22Z</time>
</trkpt>
<trkpt lat="47.796768" lon="11.144368">
<ele>568.702</ele>
<time>2022-05-27T15:09:24Z</time>
</trkpt>
<trkpt lat="47.796856" lon="11.144419">
<ele>568.702</ele>
<time>2022-05-27T15:09:25Z</time>
</trkpt>
<trkpt lat="47.796898" lon="11.144446">
<ele>568.702</ele>
<time>2022-05-27T15:09:27Z</time>
</trkpt>
<trkpt lat="47.796978" lon="11.144502">
<ele>568.702</ele>
<time>2022-05-27T15:09:28Z</time>
</trkpt>
<trkpt lat="47.797016" lon="11.14452">
<ele>568.702</ele>
<time>2022-05-27T15:09:30Z</time>
</trkpt>
<trkpt lat="47.797108" lon="11.144548">
<ele>568.702</ele>
<time>2022-05-27T15:09:31Z</time>
</trkpt>
<trkpt lat="47.797153" lon="11.144558">
<ele>568.702</ele>
<time>2022-05-27T15:09:33Z</time>
</trkpt>
<trkpt lat="47.797249" lon="11.144562">
<ele>568.702</ele>
<time>2022-05-27T15:09:34Z</time>
</trkpt>
<trkpt lat="47.797295" lon="11.144558">
<ele>568.702</ele>
<time>2022-05-27T15:09:35Z</time>
</trkpt>
<trkpt lat="47.797344" lon="11.144553">
<ele>568.702</ele>
<time>2022-05-27T15:09:36Z</time>
</trkpt>
<trkpt lat="47.797386" lon="11.14454">
<ele>568.702</ele>
<time>2022-05-27T15:09:38Z</time>
</trkpt>
<trkpt lat="47.797482" lon="11.144511">
<ele>568.953</ele>
<time>2022-05-27T15:09:39Z</time>
</trkpt>
<trkpt lat="47.797523" lon="11.144495">
<ele>569.19</ele>
<time>2022-05-27T15:09:40Z</time>
</trkpt>
<trkpt lat="47.797565" lon="11.144475">
<ele>569.388</ele>
<time>2022-05-27T15:09:41Z</time>
</trkpt>
<trkpt lat="47.797607" lon="11.144455">
<ele>569.548</ele>
<time>2022-05-27T15:09:42Z</time>
</trkpt>
<trkpt lat="47.797642" lon="11.144438">
<ele>569.435</ele>
<time>2022-05-27T15:09:43Z</time>
</trkpt>
<trkpt lat="47.797684" lon="11.14442">
<ele>569.327</ele>
<time>2022-05-27T15:09:45Z</time>
</trkpt>
<trkpt lat="47.797779" lon="11.144368">
<ele>569.112</ele>
<time>2022-05-27T15:09:46Z</time>
</trkpt>
<trkpt lat="47.797825" lon="11.144343">
<ele>569.036</ele>
<time>2022-05-27T15:09:48Z</time>
</trkpt>
<trkpt lat="47.797913" lon="11.144312">
<ele>568.873</ele>
<time>2022-05-27T15:09:49Z</time>
</trkpt>
<trkpt lat="47.797955" lon="11.144294">
<ele>568.816</ele>
<time>2022-05-27T15:09:51Z</time>
</trkpt>
<trkpt lat="47.798031" lon="11.144259">
<ele>568.789</ele>
<time>2022-05-27T15:09:53Z</time>
</trkpt>
<trkpt lat="47.798115" lon="11.144228">
<ele>569.256</ele>
<time>2022-05-27T15:09:54Z</time>
</trkpt>
<trkpt lat="47.798153" lon="11.144208">
<ele>569.387</ele>
<time>2022-05-27T15:09:55Z</time>
</trkpt>
<trkpt lat="47.798191" lon="11.144189">
<ele>569.739</ele>
<time>2022-05-27T15:09:57Z</time>
</trkpt>
<trkpt lat="47.798267" lon="11.144152">
<ele>570.215</ele>
<time>2022-05-27T15:09:58Z</time>
</trkpt>
<trkpt lat="47.798309" lon="11.144134">
<ele>570.357</ele>
<time>2022-05-27T15:09:59Z</time>
</trkpt>
<trkpt lat="47.798355" lon="11.144115">
<ele>570.269</ele>
<time>2022-05-27T15:10:01Z</time>
</trkpt>
<trkpt lat="47.798431" lon="11.144086">
<ele>570.127</ele>
<time>2022-05-27T15:10:02Z</time>
</trkpt>
<trkpt lat="47.798477" lon="11.144072">
<ele>570.001</ele>
<time>2022-05-27T15:10:04Z</time>
</trkpt>
<trkpt lat="47.798553" lon="11.144025">
<ele>569.822</ele>
<time>2022-05-27T15:10:05Z</time>
</trkpt>
<trkpt lat="47.798603" lon="11.144007">
<ele>569.777</ele>
<time>2022-05-27T15:10:07Z</time>
</trkpt>
<trkpt lat="47.798691" lon="11.143975">
<ele>569.751</ele>
<time>2022-05-27T15:10:08Z</time>
</trkpt>
<trkpt lat="47.79874" lon="11.143956">
<ele>569.751</ele>
<time>2022-05-27T15:10:10Z</time>
</trkpt>
<trkpt lat="47.798782" lon="11.143942">
<ele>569.751</ele>
<time>2022-05-27T15:10:11Z</time>
</trkpt>
<trkpt lat="47.798878" lon="11.143914">
<ele>569.751</ele>
<time>2022-05-27T15:10:13Z</time>
</trkpt>
<trkpt lat="47.798916" lon="11.1439">
<ele>569.751</ele>
<time>2022-05-27T15:10:14Z</time>
</trkpt>
<trkpt lat="47.799011" lon="11.143868">
<ele>569.751</ele>
<time>2022-05-27T15:10:16Z</time>
</trkpt>
<trkpt lat="47.799053" lon="11.143849">
<ele>569.751</ele>
<time>2022-05-27T15:10:17Z</time>
</trkpt>
<trkpt lat="47.799103" lon="11.143832">
<ele>569.751</ele>
<time>2022-05-27T15:10:18Z</time>
</trkpt>
<trkpt lat="47.799187" lon="11.143799">
<ele>569.751</ele>
<time>2022-05-27T15:10:20Z</time>
</trkpt>
<trkpt lat="47.799274" lon="11.143765">
<ele>569.751</ele>
<time>2022-05-27T15:10:21Z</time>
</trkpt>
<trkpt lat="47.799313" lon="11.14375">
<ele>569.751</ele>
<time>2022-05-27T15:10:23Z</time>
</trkpt>
<trkpt lat="47.799397" lon="11.14371">
<ele>569.982</ele>
<time>2022-05-27T15:10:24Z</time>
</trkpt>
<trkpt lat="47.799435" lon="11.143692">
<ele>570.164</ele>
<time>2022-05-27T15:10:25Z</time>
</trkpt>
<trkpt lat="47.799469" lon="11.143668">
<ele>570.31</ele>
<time>2022-05-27T15:10:26Z</time>
</trkpt>
<trkpt lat="47.799507" lon="11.143646">
<ele>570.417</ele>
<time>2022-05-27T15:10:28Z</time>
</trkpt>
<trkpt lat="47.79958" lon="11.143598">
<ele>570.551</ele>
<time>2022-05-27T15:10:29Z</time>
</trkpt>
<trkpt lat="47.799614" lon="11.143575">
<ele>570.602</ele>
<time>2022-05-27T15:10:31Z</time>
</trkpt>
<trkpt lat="47.79969" lon="11.143523">
<ele>570.626</ele>
<time>2022-05-27T15:10:33Z</time>
</trkpt>
<trkpt lat="47.799763" lon="11.14347">
<ele>570.626</ele>
<time>2022-05-27T15:10:35Z</time>
</trkpt>
<trkpt lat="47.799843" lon="11.143392">
<ele>570.626</ele>
<time>2022-05-27T15:10:37Z</time>
</trkpt>
<trkpt lat="47.799923" lon="11.143311">
<ele>570.626</ele>
<time>2022-05-27T15:10:38Z</time>
</trkpt>
<trkpt lat="47.799957" lon="11.143265">
<ele>570.626</ele>
<time>2022-05-27T15:10:40Z</time>
</trkpt>
<trkpt lat="47.799999" lon="11.143222">
<ele>570.626</ele>
<time>2022-05-27T15:10:41Z</time>
</trkpt>
<trkpt lat="47.800079" lon="11.143137">
<ele>570.626</ele>
<time>2022-05-27T15:10:42Z</time>
</trkpt>
<trkpt lat="47.800121" lon="11.14309">
<ele>570.626</ele>
<time>2022-05-27T15:10:43Z</time>
</trkpt>
<trkpt lat="47.800163" lon="11.143043">
<ele>570.381</ele>
<time>2022-05-27T15:10:45Z</time>
</trkpt>
<trkpt lat="47.800247" lon="11.142944">
<ele>570.081</ele>
<time>2022-05-27T15:10:46Z</time>
</trkpt>
<trkpt lat="47.800289" lon="11.142894">
<ele>569.7</ele>
<time>2022-05-27T15:10:48Z</time>
</trkpt>
<trkpt lat="47.800331" lon="11.142839">
<ele>569.404</ele>
<time>2022-05-27T15:10:49Z</time>
</trkpt>
<trkpt lat="47.800373" lon="11.142792">
<ele>569.2</ele>
<time>2022-05-27T15:10:50Z</time>
</trkpt>
<trkpt lat="47.800449" lon="11.142701">
<ele>569.093</ele>
<time>2022-05-27T15:10:52Z</time>
</trkpt>
<trkpt lat="47.800526" lon="11.142618">
<ele>569.087</ele>
<time>2022-05-27T15:10:53Z</time>
</trkpt>
<trkpt lat="47.800564" lon="11.142578">
<ele>569.008</ele>
<time>2022-05-27T15:10:54Z</time>
</trkpt>
<trkpt lat="47.800598" lon="11.14254">
<ele>568.859</ele>
<time>2022-05-27T15:10:55Z</time>
</trkpt>
<trkpt lat="47.800636" lon="11.142505">
<ele>568.828</ele>
<time>2022-05-27T15:10:56Z</time>
</trkpt>
<trkpt lat="47.800671" lon="11.142462">
<ele>568.799</ele>
<time>2022-05-27T15:10:58Z</time>
</trkpt>
<trkpt lat="47.800743" lon="11.142383">
<ele>568.759</ele>
<time>2022-05-27T15:10:59Z</time>
</trkpt>
<trkpt lat="47.800777" lon="11.142346">
<ele>568.729</ele>
<time>2022-05-27T15:11:01Z</time>
</trkpt>
<trkpt lat="47.800812" lon="11.142309">
<ele>568.702</ele>
<time>2022-05-27T15:11:02Z</time>
</trkpt>
<trkpt lat="47.800884" lon="11.142239">
<ele>568.702</ele>
<time>2022-05-27T15:11:03Z</time>
</trkpt>
<trkpt lat="47.800922" lon="11.1422">
<ele>568.702</ele>
<time>2022-05-27T15:11:04Z</time>
</trkpt>
<trkpt lat="47.800961" lon="11.142162">
<ele>568.702</ele>
<time>2022-05-27T15:11:05Z</time>
</trkpt>
<trkpt lat="47.800999" lon="11.142121">
<ele>568.702</ele>
<time>2022-05-27T15:11:06Z</time>
</trkpt>
<trkpt lat="47.801033" lon="11.142083">
<ele>568.702</ele>
<time>2022-05-27T15:11:07Z</time>
</trkpt>
<trkpt lat="47.801075" lon="11.14205">
<ele>568.702</ele>
<time>2022-05-27T15:11:09Z</time>
</trkpt>
<trkpt lat="47.801151" lon="11.141963">
<ele>568.702</ele>
<time>2022-05-27T15:11:11Z</time>
</trkpt>
<trkpt lat="47.801228" lon="11.141889">
<ele>568.702</ele>
<time>2022-05-27T15:11:13Z</time>
</trkpt>
<trkpt lat="47.801308" lon="11.141811">
<ele>568.702</ele>
<time>2022-05-27T15:11:14Z</time>
</trkpt>
<trkpt lat="47.801346" lon="11.141779">
<ele>568.702</ele>
<time>2022-05-27T15:11:15Z</time>
</trkpt>
<trkpt lat="47.801388" lon="11.141744">
<ele>568.702</ele>
<time>2022-05-27T15:11:16Z</time>
</trkpt>
<trkpt lat="47.801422" lon="11.141714">
<ele>568.702</ele>
<time>2022-05-27T15:11:17Z</time>
</trkpt>
<trkpt lat="47.801456" lon="11.141686">
<ele>568.702</ele>
<time>2022-05-27T15:11:18Z</time>
</trkpt>
<trkpt lat="47.801495" lon="11.141658">
<ele>568.702</ele>
<time>2022-05-27T15:11:20Z</time>
</trkpt>
<trkpt lat="47.801537" lon="11.14163">
<ele>568.702</ele>
<time>2022-05-27T15:11:21Z</time>
</trkpt>
<trkpt lat="47.801582" lon="11.1416">
<ele>568.702</ele>
<time>2022-05-27T15:11:22Z</time>
</trkpt>
<trkpt lat="47.801659" lon="11.141551">
<ele>568.97</ele>
<time>2022-05-27T15:11:24Z</time>
</trkpt>
<trkpt lat="47.80172" lon="11.141492">
<ele>569.337</ele>
<time>2022-05-27T15:11:25Z</time>
</trkpt>
<trkpt lat="47.801746" lon="11.141463">
<ele>569.453</ele>
<time>2022-05-27T15:11:27Z</time>
</trkpt>
<trkpt lat="47.801796" lon="11.141381">
<ele>569.587</ele>
<time>2022-05-27T15:11:28Z</time>
</trkpt>
<trkpt lat="47.801811" lon="11.141323">
<ele>569.631</ele>
<time>2022-05-27T15:11:30Z</time>
</trkpt>
<trkpt lat="47.801815" lon="11.141262">
<ele>569.663</ele>
<time>2022-05-27T15:11:31Z</time>
</trkpt>
<trkpt lat="47.801819" lon="11.141195">
<ele>569.663</ele>
<time>2022-05-27T15:11:32Z</time>
</trkpt>
<trkpt lat="47.801826" lon="11.141126">
<ele>569.663</ele>
<time>2022-05-27T15:11:33Z</time>
</trkpt>
<trkpt lat="47.801857" lon="11.140987">
<ele>569.156</ele>
<time>2022-05-27T15:11:35Z</time>
</trkpt>
<trkpt lat="47.801888" lon="11.140922">
<ele>568.999</ele>
<time>2022-05-27T15:11:36Z</time>
</trkpt>
<trkpt lat="47.801956" lon="11.140801">
<ele>568.816</ele>
<time>2022-05-27T15:11:37Z</time>
</trkpt>
<trkpt lat="47.801994" lon="11.140746">
<ele>568.763</ele>
<time>2022-05-27T15:11:38Z</time>
</trkpt>
<trkpt lat="47.802029" lon="11.140694">
<ele>568.726</ele>
<time>2022-05-27T15:11:39Z</time>
</trkpt>
<trkpt lat="47.802067" lon="11.140643">
<ele>568.702</ele>
<time>2022-05-27T15:11:41Z</time>
</trkpt>
<trkpt lat="47.802105" lon="11.140587">
<ele>568.702</ele>
<time>2022-05-27T15:11:42Z</time>
</trkpt>
<trkpt lat="47.802177" lon="11.140485">
<ele>568.702</ele>
<time>2022-05-27T15:11:43Z</time>
</trkpt>
<trkpt lat="47.802212" lon="11.140431">
<ele>568.702</ele>
<time>2022-05-27T15:11:44Z</time>
</trkpt>
<trkpt lat="47.802242" lon="11.140384">
<ele>568.702</ele>
<time>2022-05-27T15:11:45Z</time>
</trkpt>
<trkpt lat="47.802277" lon="11.140331">
<ele>568.702</ele>
<time>2022-05-27T15:11:47Z</time>
</trkpt>
<trkpt lat="47.802341" lon="11.140235">
<ele>568.702</ele>
<time>2022-05-27T15:11:48Z</time>
</trkpt>
<trkpt lat="47.802376" lon="11.140185">
<ele>568.702</ele>
<time>2022-05-27T15:11:49Z</time>
</trkpt>
<trkpt lat="47.80241" lon="11.140141">
<ele>568.702</ele>
<time>2022-05-27T15:11:50Z</time>
</trkpt>
<trkpt lat="47.802452" lon="11.140088">
<ele>568.702</ele>
<time>2022-05-27T15:11:52Z</time>
</trkpt>
<trkpt lat="47.802498" lon="11.140037">
<ele>568.702</ele>
<time>2022-05-27T15:11:53Z</time>
</trkpt>
<trkpt lat="47.802574" lon="11.13994">
<ele>568.434</ele>
<time>2022-05-27T15:11:54Z</time>
</trkpt>
<trkpt lat="47.802612" lon="11.139892">
<ele>568.227</ele>
<time>2022-05-27T15:11:55Z</time>
</trkpt>
<trkpt lat="47.802654" lon="11.139847">
<ele>568.074</ele>
<time>2022-05-27T15:11:57Z</time>
</trkpt>
<trkpt lat="47.802689" lon="11.139804">
<ele>567.962</ele>
<time>2022-05-27T15:11:58Z</time>
</trkpt>
<trkpt lat="47.802765" lon="11.139709">
<ele>567.823</ele>
<time>2022-05-27T15:11:59Z</time>
</trkpt>
<trkpt lat="47.802803" lon="11.13966">
<ele>567.768</ele>
<time>2022-05-27T15:12:01Z</time>
</trkpt>
<trkpt lat="47.802841" lon="11.139611">
<ele>567.74</ele>
<time>2022-05-27T15:12:02Z</time>
</trkpt>
<trkpt lat="47.802917" lon="11.139513">
<ele>567.74</ele>
<time>2022-05-27T15:12:03Z</time>
</trkpt>
<trkpt lat="47.802956" lon="11.139464">
<ele>567.74</ele>
<time>2022-05-27T15:12:05Z</time>
</trkpt>
<trkpt lat="47.80304" lon="11.13937">
<ele>567.74</ele>
<time>2022-05-27T15:12:06Z</time>
</trkpt>
<trkpt lat="47.803082" lon="11.139321">
<ele>567.74</ele>
<time>2022-05-27T15:12:08Z</time>
</trkpt>
<trkpt lat="47.803116" lon="11.139272">
<ele>567.74</ele>
<time>2022-05-27T15:12:09Z</time>
</trkpt>
<trkpt lat="47.803196" lon="11.139177">
<ele>567.74</ele>
<time>2022-05-27T15:12:10Z</time>
</trkpt>
<trkpt lat="47.803234" lon="11.139131">
<ele>567.74</ele>
<time>2022-05-27T15:12:11Z</time>
</trkpt>
<trkpt lat="47.803276" lon="11.139083">
<ele>567.74</ele>
<time>2022-05-27T15:12:13Z</time>
</trkpt>
<trkpt lat="47.803314" lon="11.139038">
<ele>567.74</ele>
<time>2022-05-27T15:12:14Z</time>
</trkpt>
<trkpt lat="47.803406" lon="11.138957">
<ele>567.509</ele>
<time>2022-05-27T15:12:15Z</time>
</trkpt>
<trkpt lat="47.803448" lon="11.13892">
<ele>567.327</ele>
<time>2022-05-27T15:12:16Z</time>
</trkpt>
<trkpt lat="47.803493" lon="11.138885">
<ele>567.187</ele>
<time>2022-05-27T15:12:18Z</time>
</trkpt>
<trkpt lat="47.803543" lon="11.138846">
<ele>567.082</ele>
<time>2022-05-27T15:12:19Z</time>
</trkpt>
<trkpt lat="47.803627" lon="11.138768">
<ele>566.937</ele>
<time>2022-05-27T15:12:21Z</time>
</trkpt>
<trkpt lat="47.803707" lon="11.138689">
<ele>566.865</ele>
<time>2022-05-27T15:12:23Z</time>
</trkpt>
<trkpt lat="47.803795" lon="11.138598">
<ele>566.865</ele>
<time>2022-05-27T15:12:24Z</time>
</trkpt>
<trkpt lat="47.803833" lon="11.138551">
<ele>566.865</ele>
<time>2022-05-27T15:12:25Z</time>
</trkpt>
<trkpt lat="47.803875" lon="11.138496">
<ele>566.865</ele>
<time>2022-05-27T15:12:26Z</time>
</trkpt>
<trkpt lat="47.803913" lon="11.13844">
<ele>566.865</ele>
<time>2022-05-27T15:12:28Z</time>
</trkpt>
<trkpt lat="47.803978" lon="11.138323">
<ele>566.865</ele>
<time>2022-05-27T15:12:30Z</time>
</trkpt>
<trkpt lat="47.804001" lon="11.138264">
<ele>566.865</ele>
<time>2022-05-27T15:12:31Z</time>
</trkpt>
<trkpt lat="47.804047" lon="11.13814">
<ele>566.865</ele>
<time>2022-05-27T15:12:33Z</time>
</trkpt>
<trkpt lat="47.804062" lon="11.138073">
<ele>566.865</ele>
<time>2022-05-27T15:12:34Z</time>
</trkpt>
<trkpt lat="47.804073" lon="11.138001">
<ele>566.865</ele>
<time>2022-05-27T15:12:35Z</time>
</trkpt>
<trkpt lat="47.804092" lon="11.137856">
<ele>566.865</ele>
<time>2022-05-27T15:12:37Z</time>
</trkpt>
<trkpt lat="47.8041" lon="11.137785">
<ele>566.865</ele>
<time>2022-05-27T15:12:38Z</time>
</trkpt>
<trkpt lat="47.804108" lon="11.137713">
<ele>566.865</ele>
<time>2022-05-27T15:12:39Z</time>
</trkpt>
<trkpt lat="47.804115" lon="11.137644">
<ele>566.865</ele>
<time>2022-05-27T15:12:40Z</time>
</trkpt>
<trkpt lat="47.804127" lon="11.137495">
<ele>566.526</ele>
<time>2022-05-27T15:12:41Z</time>
</trkpt>
<trkpt lat="47.804127" lon="11.137417">
<ele>566.265</ele>
<time>2022-05-27T15:12:42Z</time>
</trkpt>
<trkpt lat="47.804134" lon="11.13734">
<ele>566.066</ele>
<time>2022-05-27T15:12:43Z</time>
</trkpt>
<trkpt lat="47.804138" lon="11.13726">
<ele>565.921</ele>
<time>2022-05-27T15:12:45Z</time>
</trkpt>
<trkpt lat="47.80415" lon="11.137096">
<ele>565.761</ele>
<time>2022-05-27T15:12:47Z</time>
</trkpt>
<trkpt lat="47.804165" lon="11.136951">
<ele>565.729</ele>
<time>2022-05-27T15:12:48Z</time>
</trkpt>
<trkpt lat="47.804173" lon="11.136875">
<ele>565.729</ele>
<time>2022-05-27T15:12:50Z</time>
</trkpt>
<trkpt lat="47.804188" lon="11.13673">
<ele>565.729</ele>
<time>2022-05-27T15:12:51Z</time>
</trkpt>
<trkpt lat="47.804184" lon="11.136642">
<ele>565.729</ele>
<time>2022-05-27T15:12:53Z</time>
</trkpt>
<trkpt lat="47.804176" lon="11.136473">
<ele>565.729</ele>
<time>2022-05-27T15:12:54Z</time>
</trkpt>
<trkpt lat="47.804176" lon="11.136405">
<ele>565.729</ele>
<time>2022-05-27T15:12:55Z</time>
</trkpt>
<trkpt lat="47.804176" lon="11.136338">
<ele>565.484</ele>
<time>2022-05-27T15:12:57Z</time>
</trkpt>
<trkpt lat="47.804184" lon="11.13628">
<ele>565.294</ele>
<time>2022-05-27T15:12:58Z</time>
</trkpt>
<trkpt lat="47.804192" lon="11.136165">
<ele>565.049</ele>
<time>2022-05-27T15:13:00Z</time>
</trkpt>
<trkpt lat="47.804203" lon="11.136106">
<ele>564.731</ele>
<time>2022-05-27T15:13:01Z</time>
</trkpt>
<trkpt lat="47.804207" lon="11.136048">
<ele>564.455</ele>
<time>2022-05-27T15:13:02Z</time>
</trkpt>
<trkpt lat="47.804226" lon="11.135939">
<ele>564.058</ele>
<time>2022-05-27T15:13:04Z</time>
</trkpt>
<trkpt lat="47.80426" lon="11.135848">
<ele>563.657</ele>
<time>2022-05-27T15:13:05Z</time>
</trkpt>
<trkpt lat="47.804279" lon="11.135812">
<ele>563.412</ele>
<time>2022-05-27T15:13:06Z</time>
</trkpt>
<trkpt lat="47.804298" lon="11.135781">
<ele>563.256</ele>
<time>2022-05-27T15:13:07Z</time>
</trkpt>
<trkpt lat="47.804325" lon="11.135756">
<ele>563.14</ele>
<time>2022-05-27T15:13:09Z</time>
</trkpt>
<trkpt lat="47.804386" lon="11.13571">
<ele>562.978</ele>
<time>2022-05-27T15:13:10Z</time>
</trkpt>
<trkpt lat="47.80442" lon="11.135695">
<ele>562.937</ele>
<time>2022-05-27T15:13:11Z</time>
</trkpt>
<trkpt lat="47.804455" lon="11.135685">
<ele>562.919</ele>
<time>2022-05-27T15:13:13Z</time>
</trkpt>
<trkpt lat="47.804535" lon="11.13566">
<ele>562.929</ele>
<time>2022-05-27T15:13:15Z</time>
</trkpt>
<trkpt lat="47.804615" lon="11.135632">
<ele>562.932</ele>
<time>2022-05-27T15:13:16Z</time>
</trkpt>
<trkpt lat="47.804653" lon="11.135618">
<ele>562.932</ele>
<time>2022-05-27T15:13:17Z</time>
</trkpt>
<trkpt lat="47.804691" lon="11.135605">
<ele>562.932</ele>
<time>2022-05-27T15:13:18Z</time>
</trkpt>
<trkpt lat="47.804737" lon="11.135592">
<ele>562.932</ele>
<time>2022-05-27T15:13:19Z</time>
</trkpt>
<trkpt lat="47.804779" lon="11.135576">
<ele>562.932</ele>
<time>2022-05-27T15:13:21Z</time>
</trkpt>
<trkpt lat="47.804863" lon="11.135545">
<ele>562.932</ele>
<time>2022-05-27T15:13:23Z</time>
</trkpt>
<trkpt lat="47.804951" lon="11.135522">
<ele>562.932</ele>
<time>2022-05-27T15:13:24Z</time>
</trkpt>
<trkpt lat="47.804996" lon="11.135509">
<ele>562.932</ele>
<time>2022-05-27T15:13:26Z</time>
</trkpt>
<trkpt lat="47.805084" lon="11.135477">
<ele>563.375</ele>
<time>2022-05-27T15:13:27Z</time>
</trkpt>
<trkpt lat="47.80513" lon="11.135463">
<ele>563.527</ele>
<time>2022-05-27T15:13:28Z</time>
</trkpt>
<trkpt lat="47.805172" lon="11.135452">
<ele>563.63</ele>
<time>2022-05-27T15:13:29Z</time>
</trkpt>
<trkpt lat="47.805222" lon="11.135438">
<ele>563.742</ele>
<time>2022-05-27T15:13:30Z</time>
</trkpt>
<trkpt lat="47.805264" lon="11.135425">
<ele>563.819</ele>
<time>2022-05-27T15:13:32Z</time>
</trkpt>
<trkpt lat="47.805351" lon="11.135395">
<ele>563.894</ele>
<time>2022-05-27T15:13:34Z</time>
</trkpt>
<trkpt lat="47.805397" lon="11.135381">
<ele>563.893</ele>
<time>2022-05-27T15:13:35Z</time>
</trkpt>
<trkpt lat="47.805492" lon="11.135349">
<ele>563.894</ele>
<time>2022-05-27T15:13:36Z</time>
</trkpt>
<trkpt lat="47.805534" lon="11.13533">
<ele>563.893</ele>
<time>2022-05-27T15:13:38Z</time>
</trkpt>
<trkpt lat="47.805626" lon="11.135283">
<ele>563.894</ele>
<time>2022-05-27T15:13:40Z</time>
</trkpt>
<trkpt lat="47.805717" lon="11.135218">
<ele>563.894</ele>
<time>2022-05-27T15:13:42Z</time>
</trkpt>
<trkpt lat="47.805759" lon="11.135181">
<ele>563.894</ele>
<time>2022-05-27T15:13:43Z</time>
</trkpt>
<trkpt lat="47.80584" lon="11.135108">
<ele>563.894</ele>
<time>2022-05-27T15:13:45Z</time>
</trkpt>
<trkpt lat="47.80592" lon="11.135029">
<ele>563.893</ele>
<time>2022-05-27T15:13:47Z</time>
</trkpt>
<trkpt lat="47.806" lon="11.13495">
<ele>563.894</ele>
<time>2022-05-27T15:13:48Z</time>
</trkpt>
<trkpt lat="47.806046" lon="11.134909">
<ele>563.894</ele>
<time>2022-05-27T15:13:50Z</time>
</trkpt>
<trkpt lat="47.806129" lon="11.134824">
<ele>563.497</ele>
<time>2022-05-27T15:13:51Z</time>
</trkpt>
<trkpt lat="47.806179" lon="11.134786">
<ele>563.348</ele>
<time>2022-05-27T15:13:53Z</time>
</trkpt>
<trkpt lat="47.806263" lon="11.13471">
<ele>563.145</ele>
<time>2022-05-27T15:13:54Z</time>
</trkpt>
<trkpt lat="47.806305" lon="11.134679">
<ele>563.08</ele>
<time>2022-05-27T15:13:55Z</time>
</trkpt>
<trkpt lat="47.806343" lon="11.134644">
<ele>563.039</ele>
<time>2022-05-27T15:13:56Z</time>
</trkpt>
<trkpt lat="47.806393" lon="11.134615">
<ele>563.019</ele>
<time>2022-05-27T15:13:58Z</time>
</trkpt>
<trkpt lat="47.806484" lon="11.13456">
<ele>563.212</ele>
<time>2022-05-27T15:14:00Z</time>
</trkpt>
<trkpt lat="47.806572" lon="11.134501">
<ele>563.548</ele>
<time>2022-05-27T15:14:01Z</time>
</trkpt>
<trkpt lat="47.806618" lon="11.13447">
<ele>563.67</ele>
<time>2022-05-27T15:14:02Z</time>
</trkpt>
<trkpt lat="47.806664" lon="11.134442">
<ele>563.763</ele>
<time>2022-05-27T15:14:03Z</time>
</trkpt>
<trkpt lat="47.806709" lon="11.13441">
<ele>563.83</ele>
<time>2022-05-27T15:14:04Z</time>
</trkpt>
<trkpt lat="47.806755" lon="11.134377">
<ele>563.872</ele>
<time>2022-05-27T15:14:05Z</time>
</trkpt>
<trkpt lat="47.806801" lon="11.134334">
<ele>563.894</ele>
<time>2022-05-27T15:14:06Z</time>
</trkpt>
<trkpt lat="47.806835" lon="11.134294">
<ele>563.894</ele>
<time>2022-05-27T15:14:07Z</time>
</trkpt>
<trkpt lat="47.806877" lon="11.134252">
<ele>563.894</ele>
<time>2022-05-27T15:14:09Z</time>
</trkpt>
<trkpt lat="47.806957" lon="11.134168">
<ele>563.894</ele>
<time>2022-05-27T15:14:11Z</time>
</trkpt>
<trkpt lat="47.806995" lon="11.134124">
<ele>563.893</ele>
<time>2022-05-27T15:14:12Z</time>
</trkpt>
<trkpt lat="47.807037" lon="11.134078">
<ele>563.643</ele>
<time>2022-05-27T15:14:13Z</time>
</trkpt>
<trkpt lat="47.807117" lon="11.133988">
<ele>563.298</ele>
<time>2022-05-27T15:14:14Z</time>
</trkpt>
<trkpt lat="47.807159" lon="11.133954">
<ele>563.182</ele>
<time>2022-05-27T15:14:16Z</time>
</trkpt>
<trkpt lat="47.807259" lon="11.133875">
<ele>563.06</ele>
<time>2022-05-27T15:14:17Z</time>
</trkpt>
<trkpt lat="47.807304" lon="11.133835">
<ele>563.038</ele>
<time>2022-05-27T15:14:19Z</time>
</trkpt>
<trkpt lat="47.807396" lon="11.133779">
<ele>563.019</ele>
<time>2022-05-27T15:14:20Z</time>
</trkpt>
<trkpt lat="47.807449" lon="11.133739">
<ele>563.019</ele>
<time>2022-05-27T15:14:22Z</time>
</trkpt>
<trkpt lat="47.807541" lon="11.133681">
<ele>563.019</ele>
<time>2022-05-27T15:14:24Z</time>
</trkpt>
<trkpt lat="47.807625" lon="11.133615">
<ele>563.019</ele>
<time>2022-05-27T15:14:25Z</time>
</trkpt>
<trkpt lat="47.807667" lon="11.133578">
<ele>563.019</ele>
<time>2022-05-27T15:14:27Z</time>
</trkpt>
<trkpt lat="47.807743" lon="11.133502">
<ele>563.019</ele>
<time>2022-05-27T15:14:29Z</time>
</trkpt>
<trkpt lat="47.807823" lon="11.133405">
<ele>563.019</ele>
<time>2022-05-27T15:14:30Z</time>
</trkpt>
<trkpt lat="47.807861" lon="11.133353">
<ele>563.019</ele>
<time>2022-05-27T15:14:32Z</time>
</trkpt>
<trkpt lat="47.807941" lon="11.133273">
<ele>563.019</ele>
<time>2022-05-27T15:14:33Z</time>
</trkpt>
<trkpt lat="47.80798" lon="11.133229">
<ele>563.019</ele>
<time>2022-05-27T15:14:35Z</time>
</trkpt>
<trkpt lat="47.80806" lon="11.13315">
<ele>563.019</ele>
<time>2022-05-27T15:14:37Z</time>
</trkpt>
<trkpt lat="47.808102" lon="11.133117">
<ele>563.019</ele>
<time>2022-05-27T15:14:38Z</time>
</trkpt>
<trkpt lat="47.808193" lon="11.133049">
<ele>563.019</ele>
<time>2022-05-27T15:14:40Z</time>
</trkpt>
<trkpt lat="47.808277" lon="11.133005">
<ele>563.019</ele>
<time>2022-05-27T15:14:42Z</time>
</trkpt>
<trkpt lat="47.808376" lon="11.132972">
<ele>563.019</ele>
<time>2022-05-27T15:14:43Z</time>
</trkpt>
<trkpt lat="47.808426" lon="11.132952">
<ele>563.019</ele>
<time>2022-05-27T15:14:44Z</time>
</trkpt>
<trkpt lat="47.808472" lon="11.13293">
<ele>563.019</ele>
<time>2022-05-27T15:14:46Z</time>
</trkpt>
<trkpt lat="47.808514" lon="11.132909">
<ele>563.019</ele>
<time>2022-05-27T15:14:47Z</time>
</trkpt>
<trkpt lat="47.808609" lon="11.132872">
<ele>563.019</ele>
<time>2022-05-27T15:14:48Z</time>
</trkpt>
<trkpt lat="47.808659" lon="11.132858">
<ele>563.019</ele>
<time>2022-05-27T15:14:50Z</time>
</trkpt>
<trkpt lat="47.808758" lon="11.132827">
<ele>563.019</ele>
<time>2022-05-27T15:14:51Z</time>
</trkpt>
<trkpt lat="47.8088" lon="11.132818">
<ele>563.019</ele>
<time>2022-05-27T15:14:53Z</time>
</trkpt>
<trkpt lat="47.808895" lon="11.132789">
<ele>563.019</ele>
<time>2022-05-27T15:14:55Z</time>
</trkpt>
<trkpt lat="47.80899" lon="11.132769">
<ele>563.019</ele>
<time>2022-05-27T15:14:56Z</time>
</trkpt>
<trkpt lat="47.80904" lon="11.132767">
<ele>563.019</ele>
<time>2022-05-27T15:14:57Z</time>
</trkpt>
<trkpt lat="47.809086" lon="11.132769">
<ele>563.019</ele>
<time>2022-05-27T15:14:59Z</time>
</trkpt>
<trkpt lat="47.809181" lon="11.13279">
<ele>563.019</ele>
<time>2022-05-27T15:15:01Z</time>
</trkpt>
<trkpt lat="47.80928" lon="11.132798">
<ele>563.019</ele>
<time>2022-05-27T15:15:02Z</time>
</trkpt>
<trkpt lat="47.809338" lon="11.132798">
<ele>563.019</ele>
<time>2022-05-27T15:15:04Z</time>
</trkpt>
<trkpt lat="47.809441" lon="11.132787">
<ele>563.019</ele>
<time>2022-05-27T15:15:06Z</time>
</trkpt>
<trkpt lat="47.809525" lon="11.132756">
<ele>563.019</ele>
<time>2022-05-27T15:15:07Z</time>
</trkpt>
<trkpt lat="47.809563" lon="11.132711">
<ele>563.248</ele>
<time>2022-05-27T15:15:09Z</time>
</trkpt>
<trkpt lat="47.809616" lon="11.132592">
<ele>563.583</ele>
<time>2022-05-27T15:15:10Z</time>
</trkpt>
<trkpt lat="47.809639" lon="11.132524">
<ele>563.718</ele>
<time>2022-05-27T15:15:11Z</time>
</trkpt>
<trkpt lat="47.809666" lon="11.132454">
<ele>563.826</ele>
<time>2022-05-27T15:15:13Z</time>
</trkpt>
<trkpt lat="47.809715" lon="11.132321">
<ele>563.96</ele>
<time>2022-05-27T15:15:14Z</time>
</trkpt>
<trkpt lat="47.809746" lon="11.132258">
<ele>563.981</ele>
<time>2022-05-27T15:15:15Z</time>
</trkpt>
<trkpt lat="47.809769" lon="11.1322">
<ele>563.981</ele>
<time>2022-05-27T15:15:16Z</time>
</trkpt>
<trkpt lat="47.809799" lon="11.13214">
<ele>563.981</ele>
<time>2022-05-27T15:15:17Z</time>
</trkpt>
<trkpt lat="47.80983" lon="11.132076">
<ele>563.769</ele>
<time>2022-05-27T15:15:18Z</time>
</trkpt>
<trkpt lat="47.809853" lon="11.132015">
<ele>563.619</ele>
<time>2022-05-27T15:15:20Z</time>
</trkpt>
<trkpt lat="47.809902" lon="11.131895">
<ele>563.34</ele>
<time>2022-05-27T15:15:22Z</time>
</trkpt>
<trkpt lat="47.809959" lon="11.131786">
<ele>563.174</ele>
<time>2022-05-27T15:15:23Z</time>
</trkpt>
<trkpt lat="47.809982" lon="11.131735">
<ele>563.138</ele>
<time>2022-05-27T15:15:24Z</time>
</trkpt>
<trkpt lat="47.810009" lon="11.131692">
<ele>563.333</ele>
<time>2022-05-27T15:15:25Z</time>
</trkpt>
<trkpt lat="47.810032" lon="11.131652">
<ele>563.503</ele>
<time>2022-05-27T15:15:26Z</time>
</trkpt>
<trkpt lat="47.810047" lon="11.131612">
<ele>563.639</ele>
<time>2022-05-27T15:15:27Z</time>
</trkpt>
<trkpt lat="47.810074" lon="11.13158">
<ele>563.745</ele>
<time>2022-05-27T15:15:28Z</time>
</trkpt>
<trkpt lat="47.810093" lon="11.131558">
<ele>563.823</ele>
<time>2022-05-27T15:15:29Z</time>
</trkpt>
<trkpt lat="47.810108" lon="11.13154">
<ele>563.9</ele>
<time>2022-05-27T15:15:30Z</time>
</trkpt>
<trkpt lat="47.810127" lon="11.131521">
<ele>563.955</ele>
<time>2022-05-27T15:15:31Z</time>
</trkpt>
<trkpt lat="47.810146" lon="11.13151">
<ele>563.981</ele>
<time>2022-05-27T15:15:32Z</time>
</trkpt>
<trkpt lat="47.810169" lon="11.131509">
<ele>563.981</ele>
<time>2022-05-27T15:15:33Z</time>
</trkpt>
<trkpt lat="47.810192" lon="11.131507">
<ele>563.981</ele>
<time>2022-05-27T15:15:34Z</time>
</trkpt>
<trkpt lat="47.810219" lon="11.131507">
<ele>563.981</ele>
<time>2022-05-27T15:15:35Z</time>
</trkpt>
<trkpt lat="47.810249" lon="11.131503">
<ele>563.981</ele>
<time>2022-05-27T15:15:36Z</time>
</trkpt>
<trkpt lat="47.810284" lon="11.131503">
<ele>563.981</ele>
<time>2022-05-27T15:15:37Z</time>
</trkpt>
<trkpt lat="47.810314" lon="11.131507">
<ele>563.981</ele>
<time>2022-05-27T15:15:38Z</time>
</trkpt>
<trkpt lat="47.810349" lon="11.131505">
<ele>563.981</ele>
<time>2022-05-27T15:15:40Z</time>
</trkpt>
<trkpt lat="47.810425" lon="11.1315">
<ele>563.981</ele>
<time>2022-05-27T15:15:41Z</time>
</trkpt>
<trkpt lat="47.810463" lon="11.1315">
<ele>563.981</ele>
<time>2022-05-27T15:15:42Z</time>
</trkpt>
<trkpt lat="47.810501" lon="11.131503">
<ele>563.719</ele>
<time>2022-05-27T15:15:43Z</time>
</trkpt>
<trkpt lat="47.810539" lon="11.131507">
<ele>563.528</ele>
<time>2022-05-27T15:15:44Z</time>
</trkpt>
<trkpt lat="47.810577" lon="11.131509">
<ele>563.385</ele>
<time>2022-05-27T15:15:45Z</time>
</trkpt>
<trkpt lat="47.810608" lon="11.13151">
<ele>563.304</ele>
<time>2022-05-27T15:15:46Z</time>
</trkpt>
<trkpt lat="47.810642" lon="11.13151">
<ele>563.21</ele>
<time>2022-05-27T15:15:48Z</time>
</trkpt>
<trkpt lat="47.810696" lon="11.131519">
<ele>563.192</ele>
<time>2022-05-27T15:15:49Z</time>
</trkpt>
<trkpt lat="47.810719" lon="11.131526">
<ele>563.091</ele>
<time>2022-05-27T15:15:51Z</time>
</trkpt>
<trkpt lat="47.810776" lon="11.131523">
<ele>563.188</ele>
<time>2022-05-27T15:15:52Z</time>
</trkpt>
<trkpt lat="47.810806" lon="11.131521">
<ele>563.304</ele>
<time>2022-05-27T15:15:53Z</time>
</trkpt>
<trkpt lat="47.810833" lon="11.131518">
<ele>563.14</ele>
<time>2022-05-27T15:15:55Z</time>
</trkpt>
<trkpt lat="47.81086" lon="11.131516">
<ele>563.004</ele>
<time>2022-05-27T15:15:56Z</time>
</trkpt>
<trkpt lat="47.810917" lon="11.131528">
<ele>562.795</ele>
<time>2022-05-27T15:15:58Z</time>
</trkpt>
<trkpt lat="47.810974" lon="11.131538">
<ele>562.671</ele>
<time>2022-05-27T15:15:59Z</time>
</trkpt>
<trkpt lat="47.810997" lon="11.131545">
<ele>562.639</ele>
<time>2022-05-27T15:16:01Z</time>
</trkpt>
<trkpt lat="47.811054" lon="11.13157">
<ele>562.583</ele>
<time>2022-05-27T15:16:02Z</time>
</trkpt>
<trkpt lat="47.811092" lon="11.131583">
<ele>562.582</ele>
<time>2022-05-27T15:16:03Z</time>
</trkpt>
<trkpt lat="47.811127" lon="11.131607">
<ele>562.583</ele>
<time>2022-05-27T15:16:05Z</time>
</trkpt>
<trkpt lat="47.811195" lon="11.13167">
<ele>563.197</ele>
<time>2022-05-27T15:16:06Z</time>
</trkpt>
<trkpt lat="47.81123" lon="11.13171">
<ele>563.155</ele>
<time>2022-05-27T15:16:07Z</time>
</trkpt>
<trkpt lat="47.811264" lon="11.131748">
<ele>563.105</ele>
<time>2022-05-27T15:16:08Z</time>
</trkpt>
<trkpt lat="47.811291" lon="11.131795">
<ele>563.065</ele>
<time>2022-05-27T15:16:09Z</time>
</trkpt>
<trkpt lat="47.81131" lon="11.131846">
<ele>563.028</ele>
<time>2022-05-27T15:16:10Z</time>
</trkpt>
<trkpt lat="47.811329" lon="11.131902">
<ele>563.071</ele>
<time>2022-05-27T15:16:11Z</time>
</trkpt>
<trkpt lat="47.81134" lon="11.131957">
<ele>563.251</ele>
<time>2022-05-27T15:16:12Z</time>
</trkpt>
<trkpt lat="47.811348" lon="11.132008">
<ele>563.469</ele>
<time>2022-05-27T15:16:14Z</time>
</trkpt>
<trkpt lat="47.811367" lon="11.132112">
<ele>563.686</ele>
<time>2022-05-27T15:16:15Z</time>
</trkpt>
<trkpt lat="47.811375" lon="11.132165">
<ele>563.781</ele>
<time>2022-05-27T15:16:17Z</time>
</trkpt>
<trkpt lat="47.811382" lon="11.132223">
<ele>563.834</ele>
<time>2022-05-27T15:16:18Z</time>
</trkpt>
<trkpt lat="47.81139" lon="11.132282">
<ele>563.868</ele>
<time>2022-05-27T15:16:19Z</time>
</trkpt>
<trkpt lat="47.811409" lon="11.132405">
<ele>564.135</ele>
<time>2022-05-27T15:16:20Z</time>
</trkpt>
<trkpt lat="47.81142" lon="11.132466">
<ele>564.339</ele>
<time>2022-05-27T15:16:22Z</time>
</trkpt>
<trkpt lat="47.811432" lon="11.13259">
<ele>564.628</ele>
<time>2022-05-27T15:16:23Z</time>
</trkpt>
<trkpt lat="47.811436" lon="11.132651">
<ele>564.722</ele>
<time>2022-05-27T15:16:24Z</time>
</trkpt>
<trkpt lat="47.811432" lon="11.132715">
<ele>564.789</ele>
<time>2022-05-27T15:16:25Z</time>
</trkpt>
<trkpt lat="47.811432" lon="11.13278">
<ele>564.834</ele>
<time>2022-05-27T15:16:26Z</time>
</trkpt>
<trkpt lat="47.811428" lon="11.13284">
<ele>564.855</ele>
<time>2022-05-27T15:16:27Z</time>
</trkpt>
<trkpt lat="47.81144" lon="11.132903">
<ele>564.855</ele>
<time>2022-05-27T15:16:28Z</time>
</trkpt>
<trkpt lat="47.811451" lon="11.13297">
<ele>564.855</ele>
<time>2022-05-27T15:16:29Z</time>
</trkpt>
<trkpt lat="47.811462" lon="11.133032">
<ele>564.855</ele>
<time>2022-05-27T15:16:30Z</time>
</trkpt>
<trkpt lat="47.811485" lon="11.133086">
<ele>564.855</ele>
<time>2022-05-27T15:16:31Z</time>
</trkpt>
<trkpt lat="47.811501" lon="11.133133">
<ele>564.855</ele>
<time>2022-05-27T15:16:32Z</time>
</trkpt>
<trkpt lat="47.811527" lon="11.133175">
<ele>564.855</ele>
<time>2022-05-27T15:16:33Z</time>
</trkpt>
<trkpt lat="47.811554" lon="11.13321">
<ele>564.855</ele>
<time>2022-05-27T15:16:34Z</time>
</trkpt>
<trkpt lat="47.811588" lon="11.133237">
<ele>564.855</ele>
<time>2022-05-27T15:16:35Z</time>
</trkpt>
<trkpt lat="47.811626" lon="11.133259">
<ele>564.855</ele>
<time>2022-05-27T15:16:36Z</time>
</trkpt>
<trkpt lat="47.811665" lon="11.133268">
<ele>564.855</ele>
<time>2022-05-27T15:16:38Z</time>
</trkpt>
<trkpt lat="47.811756" lon="11.13326">
<ele>564.855</ele>
<time>2022-05-27T15:16:39Z</time>
</trkpt>
<trkpt lat="47.811798" lon="11.133246">
<ele>564.855</ele>
<time>2022-05-27T15:16:40Z</time>
</trkpt>
<trkpt lat="47.811848" lon="11.133233">
<ele>564.855</ele>
<time>2022-05-27T15:16:41Z</time>
</trkpt>
<trkpt lat="47.811893" lon="11.133222">
<ele>564.855</ele>
<time>2022-05-27T15:16:43Z</time>
</trkpt>
<trkpt lat="47.811981" lon="11.133204">
<ele>564.855</ele>
<time>2022-05-27T15:16:44Z</time>
</trkpt>
<trkpt lat="47.812027" lon="11.133191">
<ele>564.855</ele>
<time>2022-05-27T15:16:45Z</time>
</trkpt>
<trkpt lat="47.812073" lon="11.133182">
<ele>564.855</ele>
<time>2022-05-27T15:16:46Z</time>
</trkpt>
<trkpt lat="47.812115" lon="11.13317">
<ele>564.855</ele>
<time>2022-05-27T15:16:47Z</time>
</trkpt>
<trkpt lat="47.81216" lon="11.133158">
<ele>564.855</ele>
<time>2022-05-27T15:16:49Z</time>
</trkpt>
<trkpt lat="47.812206" lon="11.133145">
<ele>564.855</ele>
<time>2022-05-27T15:16:50Z</time>
</trkpt>
<trkpt lat="47.812302" lon="11.133121">
<ele>564.419</ele>
<time>2022-05-27T15:16:51Z</time>
</trkpt>
<trkpt lat="47.812347" lon="11.133112">
<ele>564.258</ele>
<time>2022-05-27T15:16:52Z</time>
</trkpt>
<trkpt lat="47.812401" lon="11.133099">
<ele>564.13</ele>
<time>2022-05-27T15:16:53Z</time>
</trkpt>
<trkpt lat="47.81245" lon="11.13309">
<ele>564.029</ele>
<time>2022-05-27T15:16:55Z</time>
</trkpt>
<trkpt lat="47.812553" lon="11.133075">
<ele>563.915</ele>
<time>2022-05-27T15:16:56Z</time>
</trkpt>
<trkpt lat="47.812607" lon="11.133063">
<ele>563.894</ele>
<time>2022-05-27T15:16:57Z</time>
</trkpt>
<trkpt lat="47.812664" lon="11.133049">
<ele>563.894</ele>
<time>2022-05-27T15:16:58Z</time>
</trkpt>
<trkpt lat="47.81271" lon="11.133035">
<ele>563.894</ele>
<time>2022-05-27T15:16:59Z</time>
</trkpt>
<trkpt lat="47.812763" lon="11.133023">
<ele>563.894</ele>
<time>2022-05-27T15:17:01Z</time>
</trkpt>
<trkpt lat="47.812866" lon="11.132995">
<ele>563.894</ele>
<time>2022-05-27T15:17:02Z</time>
</trkpt>
<trkpt lat="47.812923" lon="11.132981">
<ele>563.893</ele>
<time>2022-05-27T15:17:03Z</time>
</trkpt>
<trkpt lat="47.812973" lon="11.132967">
<ele>563.894</ele>
<time>2022-05-27T15:17:05Z</time>
</trkpt>
<trkpt lat="47.813026" lon="11.132953">
<ele>563.894</ele>
<time>2022-05-27T15:17:06Z</time>
</trkpt>
<trkpt lat="47.813133" lon="11.132934">
<ele>563.894</ele>
<time>2022-05-27T15:17:07Z</time>
</trkpt>
<trkpt lat="47.813187" lon="11.132925">
<ele>563.894</ele>
<time>2022-05-27T15:17:09Z</time>
</trkpt>
<trkpt lat="47.813293" lon="11.132894">
<ele>563.681</ele>
<time>2022-05-27T15:17:10Z</time>
</trkpt>
<trkpt lat="47.813351" lon="11.132879">
<ele>563.502</ele>
<time>2022-05-27T15:17:11Z</time>
</trkpt>
<trkpt lat="47.8134" lon="11.132871">
<ele>563.355</ele>
<time>2022-05-27T15:17:12Z</time>
</trkpt>
<trkpt lat="47.813454" lon="11.132862">
<ele>563.238</ele>
<time>2022-05-27T15:17:14Z</time>
</trkpt>
<trkpt lat="47.813564" lon="11.132843">
<ele>563.081</ele>
<time>2022-05-27T15:17:15Z</time>
</trkpt>
<trkpt lat="47.813618" lon="11.13283">
<ele>563.039</ele>
<time>2022-05-27T15:17:16Z</time>
</trkpt>
<trkpt lat="47.813671" lon="11.132818">
<ele>563.019</ele>
<time>2022-05-27T15:17:18Z</time>
</trkpt>
<trkpt lat="47.813766" lon="11.132781">
<ele>563.019</ele>
<time>2022-05-27T15:17:19Z</time>
</trkpt>
<trkpt lat="47.813816" lon="11.132771">
<ele>563.019</ele>
<time>2022-05-27T15:17:21Z</time>
</trkpt>
<trkpt lat="47.813866" lon="11.13276">
<ele>563.019</ele>
<time>2022-05-27T15:17:22Z</time>
</trkpt>
<trkpt lat="47.813953" lon="11.132745">
<ele>563.019</ele>
<time>2022-05-27T15:17:23Z</time>
</trkpt>
<trkpt lat="47.813995" lon="11.132756">
<ele>563.019</ele>
<time>2022-05-27T15:17:24Z</time>
</trkpt>
<trkpt lat="47.814026" lon="11.13279">
<ele>562.777</ele>
<time>2022-05-27T15:17:25Z</time>
</trkpt>
<trkpt lat="47.814045" lon="11.132837">
<ele>562.585</ele>
<time>2022-05-27T15:17:26Z</time>
</trkpt>
<trkpt lat="47.814056" lon="11.132887">
<ele>562.437</ele>
<time>2022-05-27T15:17:28Z</time>
</trkpt>
<trkpt lat="47.814075" lon="11.13299">
<ele>562.233</ele>
<time>2022-05-27T15:17:29Z</time>
</trkpt>
<trkpt lat="47.814091" lon="11.133049">
<ele>562.144</ele>
<time>2022-05-27T15:17:30Z</time>
</trkpt>
<trkpt lat="47.814106" lon="11.133103">
<ele>562.085</ele>
<time>2022-05-27T15:17:31Z</time>
</trkpt>
<trkpt lat="47.814117" lon="11.133154">
<ele>562.058</ele>
<time>2022-05-27T15:17:33Z</time>
</trkpt>
<trkpt lat="47.814144" lon="11.133266">
<ele>562.058</ele>
<time>2022-05-27T15:17:34Z</time>
</trkpt>
<trkpt lat="47.814163" lon="11.133328">
<ele>562.058</ele>
<time>2022-05-27T15:17:36Z</time>
</trkpt>
<trkpt lat="47.814194" lon="11.13345">
<ele>562.304</ele>
<time>2022-05-27T15:17:37Z</time>
</trkpt>
<trkpt lat="47.814209" lon="11.133518">
<ele>562.498</ele>
<time>2022-05-27T15:17:38Z</time>
</trkpt>
<trkpt lat="47.814236" lon="11.133587">
<ele>562.63</ele>
<time>2022-05-27T15:17:40Z</time>
</trkpt>
<trkpt lat="47.814285" lon="11.133723">
<ele>562.877</ele>
<time>2022-05-27T15:17:42Z</time>
</trkpt>
<trkpt lat="47.814342" lon="11.133857">
<ele>562.997</ele>
<time>2022-05-27T15:17:43Z</time>
</trkpt>
<trkpt lat="47.814369" lon="11.13393">
<ele>563.014</ele>
<time>2022-05-27T15:17:45Z</time>
</trkpt>
<trkpt lat="47.814423" lon="11.134077">
<ele>562.518</ele>
<time>2022-05-27T15:17:47Z</time>
</trkpt>
<trkpt lat="47.814476" lon="11.134213">
<ele>562.227</ele>
<time>2022-05-27T15:17:48Z</time>
</trkpt>
<trkpt lat="47.814499" lon="11.134281">
<ele>562.142</ele>
<time>2022-05-27T15:17:49Z</time>
</trkpt>
<trkpt lat="47.814526" lon="11.134352">
<ele>562.052</ele>
<time>2022-05-27T15:17:50Z</time>
</trkpt>
<trkpt lat="47.814548" lon="11.134425">
<ele>561.998</ele>
<time>2022-05-27T15:17:51Z</time>
</trkpt>
<trkpt lat="47.814575" lon="11.134497">
<ele>561.971</ele>
<time>2022-05-27T15:17:52Z</time>
</trkpt>
<trkpt lat="47.814602" lon="11.134568">
<ele>561.971</ele>
<time>2022-05-27T15:17:53Z</time>
</trkpt>
<trkpt lat="47.814629" lon="11.134635">
<ele>561.971</ele>
<time>2022-05-27T15:17:54Z</time>
</trkpt>
<trkpt lat="47.814655" lon="11.134696">
<ele>561.971</ele>
<time>2022-05-27T15:17:56Z</time>
</trkpt>
<trkpt lat="47.814678" lon="11.134758">
<ele>562.193</ele>
<time>2022-05-27T15:17:57Z</time>
</trkpt>
<trkpt lat="47.814732" lon="11.134887">
<ele>562.501</ele>
<time>2022-05-27T15:17:58Z</time>
</trkpt>
<trkpt lat="47.814758" lon="11.13495">
<ele>562.594</ele>
<time>2022-05-27T15:17:59Z</time>
</trkpt>
<trkpt lat="47.814785" lon="11.13501">
<ele>562.696</ele>
<time>2022-05-27T15:18:00Z</time>
</trkpt>
<trkpt lat="47.814808" lon="11.13507">
<ele>562.772</ele>
<time>2022-05-27T15:18:01Z</time>
</trkpt>
<trkpt lat="47.814835" lon="11.135132">
<ele>562.821</ele>
<time>2022-05-27T15:18:02Z</time>
</trkpt>
<trkpt lat="47.814865" lon="11.135186">
<ele>562.845</ele>
<time>2022-05-27T15:18:03Z</time>
</trkpt>
<trkpt lat="47.814907" lon="11.135234">
<ele>562.845</ele>
<time>2022-05-27T15:18:04Z</time>
</trkpt>
<trkpt lat="47.814945" lon="11.135277">
<ele>562.845</ele>
<time>2022-05-27T15:18:05Z</time>
</trkpt>
<trkpt lat="47.814983" lon="11.13532">
<ele>562.845</ele>
<time>2022-05-27T15:18:06Z</time>
</trkpt>
<trkpt lat="47.815025" lon="11.135365">
<ele>562.845</ele>
<time>2022-05-27T15:18:07Z</time>
</trkpt>
<trkpt lat="47.815071" lon="11.135406">
<ele>562.845</ele>
<time>2022-05-27T15:18:08Z</time>
</trkpt>
<trkpt lat="47.815109" lon="11.135447">
<ele>562.845</ele>
<time>2022-05-27T15:18:09Z</time>
</trkpt>
<trkpt lat="47.815147" lon="11.135488">
<ele>562.845</ele>
<time>2022-05-27T15:18:10Z</time>
</trkpt>
<trkpt lat="47.815186" lon="11.13553">
<ele>562.845</ele>
<time>2022-05-27T15:18:11Z</time>
</trkpt>
<trkpt lat="47.815224" lon="11.135567">
<ele>562.845</ele>
<time>2022-05-27T15:18:12Z</time>
</trkpt>
<trkpt lat="47.815262" lon="11.135607">
<ele>562.845</ele>
<time>2022-05-27T15:18:13Z</time>
</trkpt>
<trkpt lat="47.815304" lon="11.13565">
<ele>562.845</ele>
<time>2022-05-27T15:18:14Z</time>
</trkpt>
<trkpt lat="47.815342" lon="11.135698">
<ele>562.845</ele>
<time>2022-05-27T15:18:15Z</time>
</trkpt>
<trkpt lat="47.815384" lon="11.135747">
<ele>562.845</ele>
<time>2022-05-27T15:18:16Z</time>
</trkpt>
<trkpt lat="47.815422" lon="11.135798">
<ele>562.845</ele>
<time>2022-05-27T15:18:17Z</time>
</trkpt>
<trkpt lat="47.815464" lon="11.13585">
<ele>562.845</ele>
<time>2022-05-27T15:18:18Z</time>
</trkpt>
<trkpt lat="47.815506" lon="11.135897">
<ele>562.845</ele>
<time>2022-05-27T15:18:19Z</time>
</trkpt>
<trkpt lat="47.815544" lon="11.135937">
<ele>562.845</ele>
<time>2022-05-27T15:18:20Z</time>
</trkpt>
<trkpt lat="47.815586" lon="11.135972">
<ele>562.845</ele>
<time>2022-05-27T15:18:22Z</time>
</trkpt>
<trkpt lat="47.815678" lon="11.136053">
<ele>562.845</ele>
<time>2022-05-27T15:18:23Z</time>
</trkpt>
<trkpt lat="47.815727" lon="11.136093">
<ele>562.845</ele>
<time>2022-05-27T15:18:25Z</time>
</trkpt>
<trkpt lat="47.815819" lon="11.136167">
<ele>562.845</ele>
<time>2022-05-27T15:18:26Z</time>
</trkpt>
<trkpt lat="47.815868" lon="11.136202">
<ele>562.845</ele>
<time>2022-05-27T15:18:28Z</time>
</trkpt>
<trkpt lat="47.815918" lon="11.136242">
<ele>562.845</ele>
<time>2022-05-27T15:18:29Z</time>
</trkpt>
<trkpt lat="47.81601" lon="11.136333">
<ele>562.845</ele>
<time>2022-05-27T15:18:31Z</time>
</trkpt>
<trkpt lat="47.816059" lon="11.136372">
<ele>562.845</ele>
<time>2022-05-27T15:18:32Z</time>
</trkpt>
<trkpt lat="47.816113" lon="11.13641">
<ele>562.845</ele>
<time>2022-05-27T15:18:33Z</time>
</trkpt>
<trkpt lat="47.816216" lon="11.136487">
<ele>562.845</ele>
<time>2022-05-27T15:18:35Z</time>
</trkpt>
<trkpt lat="47.816257" lon="11.136533">
<ele>562.845</ele>
<time>2022-05-27T15:18:36Z</time>
</trkpt>
<trkpt lat="47.816341" lon="11.136643">
<ele>562.628</ele>
<time>2022-05-27T15:18:37Z</time>
</trkpt>
<trkpt lat="47.816376" lon="11.136708">
<ele>562.456</ele>
<time>2022-05-27T15:18:38Z</time>
</trkpt>
<trkpt lat="47.816402" lon="11.136776">
<ele>562.338</ele>
<time>2022-05-27T15:18:40Z</time>
</trkpt>
<trkpt lat="47.816422" lon="11.136849">
<ele>562.21</ele>
<time>2022-05-27T15:18:41Z</time>
</trkpt>
<trkpt lat="47.816441" lon="11.136923">
<ele>562.112</ele>
<time>2022-05-27T15:18:42Z</time>
</trkpt>
<trkpt lat="47.816448" lon="11.137">
<ele>562.063</ele>
<time>2022-05-27T15:18:43Z</time>
</trkpt>
<trkpt lat="47.816452" lon="11.137158">
<ele>562.449</ele>
<time>2022-05-27T15:18:44Z</time>
</trkpt>
<trkpt lat="47.816456" lon="11.137237">
<ele>562.605</ele>
<time>2022-05-27T15:18:45Z</time>
</trkpt>
<trkpt lat="47.816456" lon="11.137317">
<ele>562.724</ele>
<time>2022-05-27T15:18:46Z</time>
</trkpt>
<trkpt lat="47.816456" lon="11.137397">
<ele>562.808</ele>
<time>2022-05-27T15:18:48Z</time>
</trkpt>
<trkpt lat="47.816456" lon="11.137476">
<ele>562.864</ele>
<time>2022-05-27T15:18:49Z</time>
</trkpt>
<trkpt lat="47.816456" lon="11.13756">
<ele>562.906</ele>
<time>2022-05-27T15:18:50Z</time>
</trkpt>
<trkpt lat="47.816471" lon="11.137718">
<ele>562.67</ele>
<time>2022-05-27T15:18:52Z</time>
</trkpt>
<trkpt lat="47.816532" lon="11.137838">
<ele>562.314</ele>
<time>2022-05-27T15:18:53Z</time>
</trkpt>
<trkpt lat="47.816578" lon="11.137882">
<ele>562.204</ele>
<time>2022-05-27T15:18:54Z</time>
</trkpt>
<trkpt lat="47.816624" lon="11.137912">
<ele>562.127</ele>
<time>2022-05-27T15:18:56Z</time>
</trkpt>
<trkpt lat="47.816677" lon="11.137928">
<ele>562.08</ele>
<time>2022-05-27T15:18:57Z</time>
</trkpt>
<trkpt lat="47.816784" lon="11.137947">
<ele>562.058</ele>
<time>2022-05-27T15:18:58Z</time>
</trkpt>
<trkpt lat="47.816837" lon="11.137954">
<ele>562.058</ele>
<time>2022-05-27T15:18:59Z</time>
</trkpt>
<trkpt lat="47.816891" lon="11.137959">
<ele>562.058</ele>
<time>2022-05-27T15:19:00Z</time>
</trkpt>
<trkpt lat="47.81694" lon="11.137961">
<ele>562.058</ele>
<time>2022-05-27T15:19:01Z</time>
</trkpt>
<trkpt lat="47.816998" lon="11.137964">
<ele>562.058</ele>
<time>2022-05-27T15:19:02Z</time>
</trkpt>
<trkpt lat="47.817051" lon="11.137966">
<ele>562.058</ele>
<time>2022-05-27T15:19:04Z</time>
</trkpt>
<trkpt lat="47.817162" lon="11.13797">
<ele>562.058</ele>
<time>2022-05-27T15:19:05Z</time>
</trkpt>
<trkpt lat="47.817215" lon="11.13797">
<ele>562.058</ele>
<time>2022-05-27T15:19:06Z</time>
</trkpt>
<trkpt lat="47.817268" lon="11.137972">
<ele>562.058</ele>
<time>2022-05-27T15:19:08Z</time>
</trkpt>
<trkpt lat="47.817326" lon="11.137975">
<ele>562.058</ele>
<time>2022-05-27T15:19:09Z</time>
</trkpt>
<trkpt lat="47.817429" lon="11.137983">
<ele>562.27</ele>
<time>2022-05-27T15:19:10Z</time>
</trkpt>
<trkpt lat="47.817486" lon="11.137987">
<ele>562.449</ele>
<time>2022-05-27T15:19:12Z</time>
</trkpt>
<trkpt lat="47.817593" lon="11.137998">
<ele>562.387</ele>
<time>2022-05-27T15:19:13Z</time>
</trkpt>
<trkpt lat="47.817642" lon="11.138001">
<ele>562.296</ele>
<time>2022-05-27T15:19:15Z</time>
</trkpt>
<trkpt lat="47.817696" lon="11.13801">
<ele>562.218</ele>
<time>2022-05-27T15:19:16Z</time>
</trkpt>
<trkpt lat="47.81781" lon="11.138017">
<ele>562.09</ele>
<time>2022-05-27T15:19:17Z</time>
</trkpt>
<trkpt lat="47.817867" lon="11.138019">
<ele>562.039</ele>
<time>2022-05-27T15:19:18Z</time>
</trkpt>
<trkpt lat="47.817921" lon="11.138021">
<ele>561.997</ele>
<time>2022-05-27T15:19:20Z</time>
</trkpt>
<trkpt lat="47.818035" lon="11.138025">
<ele>561.971</ele>
<time>2022-05-27T15:19:22Z</time>
</trkpt>
<trkpt lat="47.818089" lon="11.138027">
<ele>561.971</ele>
<time>2022-05-27T15:19:23Z</time>
</trkpt>
<trkpt lat="47.818195" lon="11.138025">
<ele>561.971</ele>
<time>2022-05-27T15:19:25Z</time>
</trkpt>
<trkpt lat="47.81831" lon="11.13803">
<ele>561.971</ele>
<time>2022-05-27T15:19:27Z</time>
</trkpt>
<trkpt lat="47.818424" lon="11.138031">
<ele>561.971</ele>
<time>2022-05-27T15:19:28Z</time>
</trkpt>
<trkpt lat="47.818481" lon="11.138031">
<ele>561.971</ele>
<time>2022-05-27T15:19:30Z</time>
</trkpt>
<trkpt lat="47.8186" lon="11.138033">
<ele>561.971</ele>
<time>2022-05-27T15:19:31Z</time>
</trkpt>
<trkpt lat="47.818657" lon="11.138033">
<ele>561.971</ele>
<time>2022-05-27T15:19:32Z</time>
</trkpt>
<trkpt lat="47.81871" lon="11.138033">
<ele>561.971</ele>
<time>2022-05-27T15:19:33Z</time>
</trkpt>
<trkpt lat="47.818768" lon="11.138035">
<ele>561.971</ele>
<time>2022-05-27T15:19:35Z</time>
</trkpt>
<trkpt lat="47.818874" lon="11.138041">
<ele>561.971</ele>
<time>2022-05-27T15:19:36Z</time>
</trkpt>
<trkpt lat="47.818928" lon="11.138041">
<ele>561.971</ele>
<time>2022-05-27T15:19:38Z</time>
</trkpt>
<trkpt lat="47.819038" lon="11.13804">
<ele>561.971</ele>
<time>2022-05-27T15:19:39Z</time>
</trkpt>
<trkpt lat="47.819092" lon="11.13804">
<ele>561.971</ele>
<time>2022-05-27T15:19:41Z</time>
</trkpt>
<trkpt lat="47.819153" lon="11.13804">
<ele>561.971</ele>
<time>2022-05-27T15:19:42Z</time>
</trkpt>
<trkpt lat="47.81926" lon="11.138041">
<ele>561.476</ele>
<time>2022-05-27T15:19:43Z</time>
</trkpt>
<trkpt lat="47.819317" lon="11.138045">
<ele>561.311</ele>
<time>2022-05-27T15:19:44Z</time>
</trkpt>
<trkpt lat="47.819374" lon="11.13805">
<ele>561.194</ele>
<time>2022-05-27T15:19:45Z</time>
</trkpt>
<trkpt lat="47.819431" lon="11.138055">
<ele>561.111</ele>
<time>2022-05-27T15:19:46Z</time>
</trkpt>
<trkpt lat="47.819489" lon="11.138061">
<ele>561.068</ele>
<time>2022-05-27T15:19:47Z</time>
</trkpt>
<trkpt lat="47.81955" lon="11.138066">
<ele>560.799</ele>
<time>2022-05-27T15:19:48Z</time>
</trkpt>
<trkpt lat="47.819607" lon="11.138071">
<ele>560.606</ele>
<time>2022-05-27T15:19:49Z</time>
</trkpt>
<trkpt lat="47.819668" lon="11.13808">
<ele>560.433</ele>
<time>2022-05-27T15:19:50Z</time>
</trkpt>
<trkpt lat="47.819725" lon="11.138087">
<ele>560.298</ele>
<time>2022-05-27T15:19:52Z</time>
</trkpt>
<trkpt lat="47.819786" lon="11.138094">
<ele>560.194</ele>
<time>2022-05-27T15:19:53Z</time>
</trkpt>
<trkpt lat="47.819908" lon="11.138113">
<ele>560.072</ele>
<time>2022-05-27T15:19:54Z</time>
</trkpt>
<trkpt lat="47.819965" lon="11.138122">
<ele>560.049</ele>
<time>2022-05-27T15:19:56Z</time>
</trkpt>
<trkpt lat="47.820076" lon="11.138136">
<ele>560.049</ele>
<time>2022-05-27T15:19:57Z</time>
</trkpt>
<trkpt lat="47.820137" lon="11.138144">
<ele>559.797</ele>
<time>2022-05-27T15:19:58Z</time>
</trkpt>
<trkpt lat="47.820194" lon="11.138148">
<ele>559.617</ele>
<time>2022-05-27T15:20:00Z</time>
</trkpt>
<trkpt lat="47.820305" lon="11.138164">
<ele>559.281</ele>
<time>2022-05-27T15:20:01Z</time>
</trkpt>
<trkpt lat="47.820362" lon="11.138171">
<ele>559.165</ele>
<time>2022-05-27T15:20:03Z</time>
</trkpt>
<trkpt lat="47.820469" lon="11.138185">
<ele>559.026</ele>
<time>2022-05-27T15:20:04Z</time>
</trkpt>
<trkpt lat="47.820526" lon="11.138192">
<ele>559</ele>
<time>2022-05-27T15:20:06Z</time>
</trkpt>
<trkpt lat="47.820637" lon="11.138205">
<ele>559</ele>
<time>2022-05-27T15:20:07Z</time>
</trkpt>
<trkpt lat="47.82069" lon="11.138213">
<ele>559</ele>
<time>2022-05-27T15:20:08Z</time>
</trkpt>
<trkpt lat="47.820747" lon="11.138222">
<ele>559</ele>
<time>2022-05-27T15:20:09Z</time>
</trkpt>
<trkpt lat="47.820801" lon="11.138228">
<ele>559</ele>
<time>2022-05-27T15:20:10Z</time>
</trkpt>
<trkpt lat="47.820858" lon="11.138235">
<ele>559</ele>
<time>2022-05-27T15:20:12Z</time>
</trkpt>
<trkpt lat="47.820972" lon="11.138248">
<ele>559</ele>
<time>2022-05-27T15:20:13Z</time>
</trkpt>
<trkpt lat="47.821026" lon="11.138255">
<ele>559</ele>
<time>2022-05-27T15:20:14Z</time>
</trkpt>
<trkpt lat="47.821083" lon="11.138262">
<ele>559</ele>
<time>2022-05-27T15:20:16Z</time>
</trkpt>
<trkpt lat="47.82114" lon="11.138268">
<ele>559</ele>
<time>2022-05-27T15:20:17Z</time>
</trkpt>
<trkpt lat="47.821251" lon="11.138282">
<ele>559</ele>
<time>2022-05-27T15:20:18Z</time>
</trkpt>
<trkpt lat="47.821308" lon="11.13829">
<ele>559</ele>
<time>2022-05-27T15:20:19Z</time>
</trkpt>
<trkpt lat="47.821365" lon="11.138297">
<ele>559</ele>
<time>2022-05-27T15:20:21Z</time>
</trkpt>
<trkpt lat="47.821419" lon="11.138302">
<ele>559</ele>
<time>2022-05-27T15:20:22Z</time>
</trkpt>
<trkpt lat="47.821526" lon="11.138315">
<ele>559</ele>
<time>2022-05-27T15:20:23Z</time>
</trkpt>
<trkpt lat="47.821579" lon="11.138322">
<ele>559</ele>
<time>2022-05-27T15:20:25Z</time>
</trkpt>
<trkpt lat="47.821686" lon="11.138337">
<ele>559</ele>
<time>2022-05-27T15:20:26Z</time>
</trkpt>
<trkpt lat="47.821735" lon="11.138343">
<ele>559</ele>
<time>2022-05-27T15:20:27Z</time>
</trkpt>
<trkpt lat="47.821793" lon="11.13835">
<ele>559</ele>
<time>2022-05-27T15:20:29Z</time>
</trkpt>
<trkpt lat="47.821888" lon="11.138364">
<ele>559</ele>
<time>2022-05-27T15:20:30Z</time>
</trkpt>
<trkpt lat="47.821938" lon="11.138371">
<ele>559</ele>
<time>2022-05-27T15:20:32Z</time>
</trkpt>
<trkpt lat="47.821995" lon="11.138377">
<ele>559</ele>
<time>2022-05-27T15:20:33Z</time>
</trkpt>
<trkpt lat="47.822094" lon="11.138389">
<ele>559</ele>
<time>2022-05-27T15:20:34Z</time>
</trkpt>
<trkpt lat="47.822151" lon="11.138395">
<ele>559</ele>
<time>2022-05-27T15:20:35Z</time>
</trkpt>
<trkpt lat="47.822205" lon="11.138404">
<ele>559</ele>
<time>2022-05-27T15:20:37Z</time>
</trkpt>
<trkpt lat="47.822311" lon="11.138416">
<ele>559</ele>
<time>2022-05-27T15:20:38Z</time>
</trkpt>
<trkpt lat="47.822357" lon="11.138421">
<ele>559</ele>
<time>2022-05-27T15:20:40Z</time>
</trkpt>
<trkpt lat="47.82246" lon="11.138433">
<ele>559</ele>
<time>2022-05-27T15:20:41Z</time>
</trkpt>
<trkpt lat="47.82251" lon="11.138438">
<ele>559</ele>
<time>2022-05-27T15:20:42Z</time>
</trkpt>
<trkpt lat="47.822556" lon="11.138444">
<ele>559</ele>
<time>2022-05-27T15:20:44Z</time>
</trkpt>
<trkpt lat="47.822651" lon="11.138458">
<ele>559</ele>
<time>2022-05-27T15:20:45Z</time>
</trkpt>
<trkpt lat="47.822701" lon="11.138462">
<ele>559</ele>
<time>2022-05-27T15:20:47Z</time>
</trkpt>
<trkpt lat="47.822792" lon="11.13847">
<ele>559</ele>
<time>2022-05-27T15:20:48Z</time>
</trkpt>
<trkpt lat="47.822842" lon="11.138474">
<ele>559</ele>
<time>2022-05-27T15:20:50Z</time>
</trkpt>
<trkpt lat="47.822884" lon="11.138478">
<ele>559</ele>
<time>2022-05-27T15:20:51Z</time>
</trkpt>
<trkpt lat="47.822971" lon="11.13849">
<ele>559</ele>
<time>2022-05-27T15:20:52Z</time>
</trkpt>
<trkpt lat="47.823013" lon="11.138498">
<ele>559</ele>
<time>2022-05-27T15:20:54Z</time>
</trkpt>
<trkpt lat="47.823093" lon="11.138512">
<ele>559</ele>
<time>2022-05-27T15:20:55Z</time>
</trkpt>
<trkpt lat="47.823124" lon="11.138518">
<ele>559</ele>
<time>2022-05-27T15:20:56Z</time>
</trkpt>
<trkpt lat="47.823147" lon="11.138521">
<ele>559</ele>
<time>2022-05-27T15:20:58Z</time>
</trkpt>
<trkpt lat="47.823193" lon="11.138528">
<ele>558.824</ele>
<time>2022-05-27T15:20:59Z</time>
</trkpt>
<trkpt lat="47.823208" lon="11.138532">
<ele>558.662</ele>
<time>2022-05-27T15:21:01Z</time>
</trkpt>
<trkpt lat="47.823223" lon="11.138534">
<ele>558.407</ele>
<time>2022-05-27T15:21:02Z</time>
</trkpt>
<trkpt lat="47.823223" lon="11.138532">
<ele>558.305</ele>
<time>2022-05-27T15:21:03Z</time>
</trkpt>
<trkpt lat="47.823223" lon="11.138528">
<ele>558.219</ele>
<time>2022-05-27T15:21:05Z</time>
</trkpt>
<trkpt lat="47.823235" lon="11.138523">
<ele>558.161</ele>
<time>2022-05-27T15:22:00Z</time>
</trkpt>
<trkpt lat="47.82325" lon="11.138521">
<ele>558.093</ele>
<time>2022-05-27T15:22:01Z</time>
</trkpt>
<trkpt lat="47.823261" lon="11.138523">
<ele>558.054</ele>
<time>2022-05-27T15:22:03Z</time>
</trkpt>
<trkpt lat="47.823288" lon="11.138525">
<ele>557.99</ele>
<time>2022-05-27T15:22:05Z</time>
</trkpt>
<trkpt lat="47.82333" lon="11.138523">
<ele>557.954</ele>
<time>2022-05-27T15:22:07Z</time>
</trkpt>
<trkpt lat="47.82336" lon="11.138521">
<ele>557.953</ele>
<time>2022-05-27T15:22:08Z</time>
</trkpt>
<trkpt lat="47.823383" lon="11.138525">
<ele>557.952</ele>
<time>2022-05-27T15:22:09Z</time>
</trkpt>
<trkpt lat="47.823418" lon="11.138532">
<ele>557.495</ele>
<time>2022-05-27T15:22:10Z</time>
</trkpt>
<trkpt lat="47.823433" lon="11.138538">
<ele>557.368</ele>
<time>2022-05-27T15:22:12Z</time>
</trkpt>
<trkpt lat="47.823471" lon="11.138551">
<ele>557.215</ele>
<time>2022-05-27T15:22:13Z</time>
</trkpt>
<trkpt lat="47.823494" lon="11.138553">
<ele>557.163</ele>
<time>2022-05-27T15:22:15Z</time>
</trkpt>
<trkpt lat="47.823551" lon="11.138556">
<ele>557.078</ele>
<time>2022-05-27T15:22:16Z</time>
</trkpt>
<trkpt lat="47.823589" lon="11.138561">
<ele>557.078</ele>
<time>2022-05-27T15:22:17Z</time>
</trkpt>
<trkpt lat="47.823643" lon="11.138565">
<ele>556.712</ele>
<time>2022-05-27T15:22:19Z</time>
</trkpt>
<trkpt lat="47.823753" lon="11.138576">
<ele>556.291</ele>
<time>2022-05-27T15:22:20Z</time>
</trkpt>
<trkpt lat="47.823818" lon="11.138586">
<ele>556.223</ele>
<time>2022-05-27T15:22:21Z</time>
</trkpt>
<trkpt lat="47.823883" lon="11.138597">
<ele>555.837</ele>
<time>2022-05-27T15:22:22Z</time>
</trkpt>
<trkpt lat="47.823963" lon="11.13862">
<ele>555.587</ele>
<time>2022-05-27T15:22:24Z</time>
</trkpt>
<trkpt lat="47.824036" lon="11.138638">
<ele>555.443</ele>
<time>2022-05-27T15:22:25Z</time>
</trkpt>
<trkpt lat="47.824169" lon="11.138649">
<ele>555.204</ele>
<time>2022-05-27T15:22:26Z</time>
</trkpt>
<trkpt lat="47.824234" lon="11.138656">
<ele>555.16</ele>
<time>2022-05-27T15:22:28Z</time>
</trkpt>
<trkpt lat="47.824356" lon="11.13867">
<ele>555.55</ele>
<time>2022-05-27T15:22:29Z</time>
</trkpt>
<trkpt lat="47.824406" lon="11.138674">
<ele>555.67</ele>
<time>2022-05-27T15:22:31Z</time>
</trkpt>
<trkpt lat="47.824459" lon="11.138679">
<ele>556.025</ele>
<time>2022-05-27T15:22:32Z</time>
</trkpt>
<trkpt lat="47.824562" lon="11.13869">
<ele>556.492</ele>
<time>2022-05-27T15:22:33Z</time>
</trkpt>
<trkpt lat="47.824608" lon="11.1387">
<ele>556.877</ele>
<time>2022-05-27T15:22:34Z</time>
</trkpt>
<trkpt lat="47.824661" lon="11.138712">
<ele>557.216</ele>
<time>2022-05-27T15:22:36Z</time>
</trkpt>
<trkpt lat="47.824764" lon="11.138731">
<ele>557.669</ele>
<time>2022-05-27T15:22:38Z</time>
</trkpt>
<trkpt lat="47.824863" lon="11.138757">
<ele>557.881</ele>
<time>2022-05-27T15:22:40Z</time>
</trkpt>
<trkpt lat="47.824966" lon="11.138779">
<ele>557.952</ele>
<time>2022-05-27T15:22:41Z</time>
</trkpt>
<trkpt lat="47.825024" lon="11.138788">
<ele>557.952</ele>
<time>2022-05-27T15:22:43Z</time>
</trkpt>
<trkpt lat="47.825077" lon="11.138796">
<ele>557.952</ele>
<time>2022-05-27T15:22:44Z</time>
</trkpt>
<trkpt lat="47.825188" lon="11.138815">
<ele>557.952</ele>
<time>2022-05-27T15:22:45Z</time>
</trkpt>
<trkpt lat="47.825249" lon="11.138825">
<ele>557.952</ele>
<time>2022-05-27T15:22:46Z</time>
</trkpt>
<trkpt lat="47.825306" lon="11.138833">
<ele>557.952</ele>
<time>2022-05-27T15:22:48Z</time>
</trkpt>
<trkpt lat="47.825417" lon="11.138848">
<ele>558.523</ele>
<time>2022-05-27T15:22:49Z</time>
</trkpt>
<trkpt lat="47.82547" lon="11.138857">
<ele>558.711</ele>
<time>2022-05-27T15:22:51Z</time>
</trkpt>
<trkpt lat="47.825581" lon="11.138873">
<ele>558.941</ele>
<time>2022-05-27T15:22:52Z</time>
</trkpt>
<trkpt lat="47.825638" lon="11.138884">
<ele>559.005</ele>
<time>2022-05-27T15:22:53Z</time>
</trkpt>
<trkpt lat="47.825695" lon="11.138894">
<ele>559.055</ele>
<time>2022-05-27T15:22:55Z</time>
</trkpt>
<trkpt lat="47.825809" lon="11.138913">
<ele>559.088</ele>
<time>2022-05-27T15:22:56Z</time>
</trkpt>
<trkpt lat="47.825863" lon="11.138924">
<ele>559.088</ele>
<time>2022-05-27T15:22:57Z</time>
</trkpt>
<trkpt lat="47.825916" lon="11.138934">
<ele>559.088</ele>
<time>2022-05-27T15:22:59Z</time>
</trkpt>
<trkpt lat="47.826027" lon="11.138951">
<ele>559.088</ele>
<time>2022-05-27T15:23:01Z</time>
</trkpt>
<trkpt lat="47.826077" lon="11.13896">
<ele>559.088</ele>
<time>2022-05-27T15:23:02Z</time>
</trkpt>
<trkpt lat="47.82618" lon="11.138987">
<ele>559.088</ele>
<time>2022-05-27T15:23:03Z</time>
</trkpt>
<trkpt lat="47.826233" lon="11.139002">
<ele>559.088</ele>
<time>2022-05-27T15:23:05Z</time>
</trkpt>
<trkpt lat="47.826328" lon="11.139022">
<ele>559.088</ele>
<time>2022-05-27T15:23:06Z</time>
</trkpt>
<trkpt lat="47.826378" lon="11.139029">
<ele>559.088</ele>
<time>2022-05-27T15:23:08Z</time>
</trkpt>
<trkpt lat="47.826485" lon="11.139041">
<ele>559.088</ele>
<time>2022-05-27T15:23:09Z</time>
</trkpt>
<trkpt lat="47.826542" lon="11.13905">
<ele>559.088</ele>
<time>2022-05-27T15:23:10Z</time>
</trkpt>
<trkpt lat="47.826595" lon="11.13906">
<ele>559.088</ele>
<time>2022-05-27T15:23:11Z</time>
</trkpt>
<trkpt lat="47.826656" lon="11.139069">
<ele>559.088</ele>
<time>2022-05-27T15:23:12Z</time>
</trkpt>
<trkpt lat="47.82671" lon="11.139078">
<ele>559.088</ele>
<time>2022-05-27T15:23:14Z</time>
</trkpt>
<trkpt lat="47.826817" lon="11.1391">
<ele>559.088</ele>
<time>2022-05-27T15:23:15Z</time>
</trkpt>
<trkpt lat="47.82687" lon="11.13911">
<ele>559.088</ele>
<time>2022-05-27T15:23:17Z</time>
</trkpt>
<trkpt lat="47.826977" lon="11.139132">
<ele>559.088</ele>
<time>2022-05-27T15:23:19Z</time>
</trkpt>
<trkpt lat="47.827034" lon="11.139143">
<ele>559.088</ele>
<time>2022-05-27T15:23:20Z</time>
</trkpt>
<trkpt lat="47.827145" lon="11.139171">
<ele>558.674</ele>
<time>2022-05-27T15:23:21Z</time>
</trkpt>
<trkpt lat="47.827198" lon="11.139181">
<ele>558.536</ele>
<time>2022-05-27T15:23:23Z</time>
</trkpt>
<trkpt lat="47.827301" lon="11.139205">
<ele>558.357</ele>
<time>2022-05-27T15:23:24Z</time>
</trkpt>
<trkpt lat="47.827354" lon="11.139216">
<ele>558.283</ele>
<time>2022-05-27T15:23:25Z</time>
</trkpt>
<trkpt lat="47.827404" lon="11.13923">
<ele>558.236</ele>
<time>2022-05-27T15:23:26Z</time>
</trkpt>
<trkpt lat="47.827457" lon="11.139238">
<ele>558.214</ele>
<time>2022-05-27T15:23:28Z</time>
</trkpt>
<trkpt lat="47.827564" lon="11.13926">
<ele>558.214</ele>
<time>2022-05-27T15:23:29Z</time>
</trkpt>
<trkpt lat="47.82761" lon="11.139274">
<ele>558.214</ele>
<time>2022-05-27T15:23:30Z</time>
</trkpt>
<trkpt lat="47.827667" lon="11.139285">
<ele>558.214</ele>
<time>2022-05-27T15:23:31Z</time>
</trkpt>
<trkpt lat="47.827717" lon="11.139297">
<ele>558.214</ele>
<time>2022-05-27T15:23:33Z</time>
</trkpt>
<trkpt lat="47.82782" lon="11.139321">
<ele>558.214</ele>
<time>2022-05-27T15:23:34Z</time>
</trkpt>
<trkpt lat="47.827866" lon="11.139334">
<ele>558.214</ele>
<time>2022-05-27T15:23:36Z</time>
</trkpt>
<trkpt lat="47.827919" lon="11.139343">
<ele>558.214</ele>
<time>2022-05-27T15:23:37Z</time>
</trkpt>
<trkpt lat="47.828018" lon="11.139359">
<ele>558.214</ele>
<time>2022-05-27T15:23:38Z</time>
</trkpt>
<trkpt lat="47.828064" lon="11.139368">
<ele>558.214</ele>
<time>2022-05-27T15:23:39Z</time>
</trkpt>
<trkpt lat="47.82811" lon="11.139377">
<ele>558.214</ele>
<time>2022-05-27T15:23:41Z</time>
</trkpt>
<trkpt lat="47.828197" lon="11.139395">
<ele>558.214</ele>
<time>2022-05-27T15:23:43Z</time>
</trkpt>
<trkpt lat="47.82827" lon="11.139407">
<ele>558.214</ele>
<time>2022-05-27T15:23:44Z</time>
</trkpt>
<trkpt lat="47.828297" lon="11.139416">
<ele>558.214</ele>
<time>2022-05-27T15:23:46Z</time>
</trkpt>
<trkpt lat="47.828362" lon="11.139426">
<ele>558.214</ele>
<time>2022-05-27T15:23:47Z</time>
</trkpt>
<trkpt lat="47.8284" lon="11.13943">
<ele>558.214</ele>
<time>2022-05-27T15:23:48Z</time>
</trkpt>
<trkpt lat="47.828434" lon="11.13944">
<ele>558.214</ele>
<time>2022-05-27T15:23:49Z</time>
</trkpt>
<trkpt lat="47.828468" lon="11.13945">
<ele>558.214</ele>
<time>2022-05-27T15:23:51Z</time>
</trkpt>
<trkpt lat="47.828548" lon="11.139472">
<ele>558.214</ele>
<time>2022-05-27T15:23:52Z</time>
</trkpt>
<trkpt lat="47.82859" lon="11.139482">
<ele>558.214</ele>
<time>2022-05-27T15:23:54Z</time>
</trkpt>
<trkpt lat="47.82864" lon="11.139491">
<ele>558.214</ele>
<time>2022-05-27T15:23:55Z</time>
</trkpt>
<trkpt lat="47.828739" lon="11.139519">
<ele>558.214</ele>
<time>2022-05-27T15:23:56Z</time>
</trkpt>
<trkpt lat="47.828785" lon="11.139531">
<ele>558.214</ele>
<time>2022-05-27T15:23:57Z</time>
</trkpt>
<trkpt lat="47.828835" lon="11.139546">
<ele>558.214</ele>
<time>2022-05-27T15:23:59Z</time>
</trkpt>
<trkpt lat="47.828926" lon="11.13958">
<ele>558.214</ele>
<time>2022-05-27T15:24:00Z</time>
</trkpt>
<trkpt lat="47.828968" lon="11.139598">
<ele>558.214</ele>
<time>2022-05-27T15:24:02Z</time>
</trkpt>
<trkpt lat="47.82906" lon="11.13962">
<ele>558.214</ele>
<time>2022-05-27T15:24:03Z</time>
</trkpt>
<trkpt lat="47.829102" lon="11.139635">
<ele>558.214</ele>
<time>2022-05-27T15:24:04Z</time>
</trkpt>
<trkpt lat="47.829151" lon="11.139648">
<ele>558.214</ele>
<time>2022-05-27T15:24:05Z</time>
</trkpt>
<trkpt lat="47.829197" lon="11.139665">
<ele>558.214</ele>
<time>2022-05-27T15:24:07Z</time>
</trkpt>
<trkpt lat="47.829243" lon="11.139678">
<ele>558.214</ele>
<time>2022-05-27T15:24:08Z</time>
</trkpt>
<trkpt lat="47.829338" lon="11.139701">
<ele>558.214</ele>
<time>2022-05-27T15:24:09Z</time>
</trkpt>
<trkpt lat="47.829388" lon="11.139713">
<ele>558.214</ele>
<time>2022-05-27T15:24:11Z</time>
</trkpt>
<trkpt lat="47.829487" lon="11.139743">
<ele>558.214</ele>
<time>2022-05-27T15:24:12Z</time>
</trkpt>
<trkpt lat="47.829529" lon="11.13976">
<ele>558.214</ele>
<time>2022-05-27T15:24:14Z</time>
</trkpt>
<trkpt lat="47.82962" lon="11.139791">
<ele>558.214</ele>
<time>2022-05-27T15:24:15Z</time>
</trkpt>
<trkpt lat="47.829666" lon="11.139804">
<ele>558.214</ele>
<time>2022-05-27T15:24:17Z</time>
</trkpt>
<trkpt lat="47.829765" lon="11.139829">
<ele>558.214</ele>
<time>2022-05-27T15:24:19Z</time>
</trkpt>
<trkpt lat="47.829865" lon="11.139865">
<ele>558.214</ele>
<time>2022-05-27T15:24:20Z</time>
</trkpt>
<trkpt lat="47.829914" lon="11.139876">
<ele>558.466</ele>
<time>2022-05-27T15:24:22Z</time>
</trkpt>
<trkpt lat="47.830017" lon="11.139907">
<ele>558.815</ele>
<time>2022-05-27T15:24:24Z</time>
</trkpt>
<trkpt lat="47.830078" lon="11.139921">
<ele>558.914</ele>
<time>2022-05-27T15:24:25Z</time>
</trkpt>
<trkpt lat="47.830162" lon="11.139955">
<ele>559.1</ele>
<time>2022-05-27T15:24:26Z</time>
</trkpt>
<trkpt lat="47.830208" lon="11.139974">
<ele>559.15</ele>
<time>2022-05-27T15:24:27Z</time>
</trkpt>
<trkpt lat="47.830257" lon="11.139988">
<ele>559.175</ele>
<time>2022-05-27T15:24:28Z</time>
</trkpt>
<trkpt lat="47.830307" lon="11.140003">
<ele>559.175</ele>
<time>2022-05-27T15:24:29Z</time>
</trkpt>
<trkpt lat="47.830353" lon="11.140018">
<ele>559.175</ele>
<time>2022-05-27T15:24:31Z</time>
</trkpt>
<trkpt lat="47.830452" lon="11.140048">
<ele>559.175</ele>
<time>2022-05-27T15:24:32Z</time>
</trkpt>
<trkpt lat="47.830502" lon="11.140063">
<ele>559.175</ele>
<time>2022-05-27T15:24:34Z</time>
</trkpt>
<trkpt lat="47.830555" lon="11.140077">
<ele>559.175</ele>
<time>2022-05-27T15:24:35Z</time>
</trkpt>
<trkpt lat="47.830654" lon="11.1401">
<ele>559.175</ele>
<time>2022-05-27T15:24:36Z</time>
</trkpt>
<trkpt lat="47.8307" lon="11.140116">
<ele>559.175</ele>
<time>2022-05-27T15:24:38Z</time>
</trkpt>
<trkpt lat="47.830799" lon="11.140135">
<ele>559.175</ele>
<time>2022-05-27T15:24:39Z</time>
</trkpt>
<trkpt lat="47.830845" lon="11.140145">
<ele>559.175</ele>
<time>2022-05-27T15:24:41Z</time>
</trkpt>
<trkpt lat="47.830921" lon="11.140175">
<ele>559.175</ele>
<time>2022-05-27T15:24:42Z</time>
</trkpt>
<trkpt lat="47.830959" lon="11.14019">
<ele>559.175</ele>
<time>2022-05-27T15:24:43Z</time>
</trkpt>
<trkpt lat="47.830997" lon="11.140205">
<ele>559.175</ele>
<time>2022-05-27T15:24:44Z</time>
</trkpt>
<trkpt lat="47.831047" lon="11.140219">
<ele>559.175</ele>
<time>2022-05-27T15:24:46Z</time>
</trkpt>
<trkpt lat="47.8311" lon="11.140231">
<ele>559.175</ele>
<time>2022-05-27T15:24:47Z</time>
</trkpt>
<trkpt lat="47.8312" lon="11.140263">
<ele>559.175</ele>
<time>2022-05-27T15:24:48Z</time>
</trkpt>
<trkpt lat="47.831253" lon="11.14028">
<ele>559.175</ele>
<time>2022-05-27T15:24:50Z</time>
</trkpt>
<trkpt lat="47.831364" lon="11.140315">
<ele>559.435</ele>
<time>2022-05-27T15:24:51Z</time>
</trkpt>
<trkpt lat="47.831417" lon="11.140328">
<ele>559.628</ele>
<time>2022-05-27T15:24:52Z</time>
</trkpt>
<trkpt lat="47.83147" lon="11.14034">
<ele>559.774</ele>
<time>2022-05-27T15:24:53Z</time>
</trkpt>
<trkpt lat="47.831512" lon="11.140357">
<ele>559.873</ele>
<time>2022-05-27T15:24:54Z</time>
</trkpt>
<trkpt lat="47.831566" lon="11.140373">
<ele>559.984</ele>
<time>2022-05-27T15:24:56Z</time>
</trkpt>
<trkpt lat="47.831676" lon="11.140403">
<ele>560.111</ele>
<time>2022-05-27T15:24:57Z</time>
</trkpt>
<trkpt lat="47.83173" lon="11.14042">
<ele>560.136</ele>
<time>2022-05-27T15:24:58Z</time>
</trkpt>
<trkpt lat="47.831787" lon="11.140427">
<ele>560.136</ele>
<time>2022-05-27T15:24:59Z</time>
</trkpt>
<trkpt lat="47.831844" lon="11.140445">
<ele>560.136</ele>
<time>2022-05-27T15:25:01Z</time>
</trkpt>
<trkpt lat="47.831955" lon="11.140478">
<ele>560.136</ele>
<time>2022-05-27T15:25:02Z</time>
</trkpt>
<trkpt lat="47.832012" lon="11.140495">
<ele>560.136</ele>
<time>2022-05-27T15:25:04Z</time>
</trkpt>
<trkpt lat="47.832066" lon="11.14051">
<ele>560.136</ele>
<time>2022-05-27T15:25:05Z</time>
</trkpt>
<trkpt lat="47.832169" lon="11.140536">
<ele>560.136</ele>
<time>2022-05-27T15:25:06Z</time>
</trkpt>
<trkpt lat="47.832222" lon="11.140543">
<ele>560.136</ele>
<time>2022-05-27T15:25:08Z</time>
</trkpt>
<trkpt lat="47.832317" lon="11.140567">
<ele>560.136</ele>
<time>2022-05-27T15:25:09Z</time>
</trkpt>
<trkpt lat="47.832367" lon="11.140581">
<ele>560.136</ele>
<time>2022-05-27T15:25:11Z</time>
</trkpt>
<trkpt lat="47.83247" lon="11.140618">
<ele>560.136</ele>
<time>2022-05-27T15:25:12Z</time>
</trkpt>
<trkpt lat="47.832523" lon="11.140635">
<ele>560.136</ele>
<time>2022-05-27T15:25:14Z</time>
</trkpt>
<trkpt lat="47.832577" lon="11.140646">
<ele>560.136</ele>
<time>2022-05-27T15:25:15Z</time>
</trkpt>
<trkpt lat="47.832684" lon="11.140665">
<ele>560.136</ele>
<time>2022-05-27T15:25:16Z</time>
</trkpt>
<trkpt lat="47.832733" lon="11.140676">
<ele>560.136</ele>
<time>2022-05-27T15:25:18Z</time>
</trkpt>
<trkpt lat="47.832825" lon="11.140703">
<ele>560.136</ele>
<time>2022-05-27T15:25:19Z</time>
</trkpt>
<trkpt lat="47.83287" lon="11.140715">
<ele>560.136</ele>
<time>2022-05-27T15:25:21Z</time>
</trkpt>
<trkpt lat="47.832916" lon="11.140727">
<ele>560.136</ele>
<time>2022-05-27T15:25:22Z</time>
</trkpt>
<trkpt lat="47.833012" lon="11.140746">
<ele>560.136</ele>
<time>2022-05-27T15:25:24Z</time>
</trkpt>
<trkpt lat="47.833061" lon="11.140761">
<ele>560.136</ele>
<time>2022-05-27T15:25:25Z</time>
</trkpt>
<trkpt lat="47.833145" lon="11.140788">
<ele>560.136</ele>
<time>2022-05-27T15:25:26Z</time>
</trkpt>
<trkpt lat="47.833183" lon="11.140799">
<ele>560.136</ele>
<time>2022-05-27T15:25:28Z</time>
</trkpt>
<trkpt lat="47.83326" lon="11.140825">
<ele>560.136</ele>
<time>2022-05-27T15:25:29Z</time>
</trkpt>
<trkpt lat="47.833298" lon="11.140841">
<ele>560.136</ele>
<time>2022-05-27T15:25:30Z</time>
</trkpt>
<trkpt lat="47.833336" lon="11.140858">
<ele>560.136</ele>
<time>2022-05-27T15:25:32Z</time>
</trkpt>
<trkpt lat="47.833408" lon="11.140882">
<ele>560.136</ele>
<time>2022-05-27T15:25:33Z</time>
</trkpt>
<trkpt lat="47.833443" lon="11.140891">
<ele>560.136</ele>
<time>2022-05-27T15:25:35Z</time>
</trkpt>
<trkpt lat="47.8335" lon="11.14091">
<ele>560.136</ele>
<time>2022-05-27T15:25:37Z</time>
</trkpt>
<trkpt lat="47.833557" lon="11.140926">
<ele>560.136</ele>
<time>2022-05-27T15:25:38Z</time>
</trkpt>
<trkpt lat="47.83358" lon="11.140939">
<ele>560.136</ele>
<time>2022-05-27T15:25:40Z</time>
</trkpt>
<trkpt lat="47.833626" lon="11.140947">
<ele>560.136</ele>
<time>2022-05-27T15:25:41Z</time>
</trkpt>
<trkpt lat="47.833633" lon="11.140947">
<ele>560.136</ele>
<time>2022-05-27T15:25:43Z</time>
</trkpt>
<trkpt lat="47.833633" lon="11.140945">
<ele>560.136</ele>
<time>2022-05-27T15:25:44Z</time>
</trkpt>
<trkpt lat="47.833633" lon="11.140944">
<ele>560.136</ele>
<time>2022-05-27T15:25:45Z</time>
</trkpt>
<trkpt lat="47.833649" lon="11.140956">
<ele>560.136</ele>
<time>2022-05-27T15:25:47Z</time>
</trkpt>
<trkpt lat="47.833672" lon="11.140964">
<ele>560.136</ele>
<time>2022-05-27T15:25:48Z</time>
</trkpt>
<trkpt lat="47.833698" lon="11.140973">
<ele>560.136</ele>
<time>2022-05-27T15:25:50Z</time>
</trkpt>
<trkpt lat="47.833755" lon="11.141004">
<ele>560.136</ele>
<time>2022-05-27T15:25:51Z</time>
</trkpt>
<trkpt lat="47.833782" lon="11.141019">
<ele>560.136</ele>
<time>2022-05-27T15:25:52Z</time>
</trkpt>
<trkpt lat="47.833805" lon="11.141037">
<ele>560.136</ele>
<time>2022-05-27T15:25:53Z</time>
</trkpt>
<trkpt lat="47.833832" lon="11.14105">
<ele>560.136</ele>
<time>2022-05-27T15:25:54Z</time>
</trkpt>
<trkpt lat="47.833862" lon="11.141065">
<ele>560.136</ele>
<time>2022-05-27T15:25:56Z</time>
</trkpt>
<trkpt lat="47.833927" lon="11.141093">
<ele>560.136</ele>
<time>2022-05-27T15:25:58Z</time>
</trkpt>
<trkpt lat="47.833958" lon="11.141103">
<ele>560.136</ele>
<time>2022-05-27T15:25:59Z</time>
</trkpt>
<trkpt lat="47.834019" lon="11.141127">
<ele>560.136</ele>
<time>2022-05-27T15:26:00Z</time>
</trkpt>
<trkpt lat="47.834053" lon="11.141135">
<ele>560.136</ele>
<time>2022-05-27T15:26:01Z</time>
</trkpt>
<trkpt lat="47.834084" lon="11.141143">
<ele>560.136</ele>
<time>2022-05-27T15:26:03Z</time>
</trkpt>
<trkpt lat="47.834148" lon="11.141161">
<ele>560.136</ele>
<time>2022-05-27T15:26:04Z</time>
</trkpt>
<trkpt lat="47.834183" lon="11.14117">
<ele>560.136</ele>
<time>2022-05-27T15:26:05Z</time>
</trkpt>
<trkpt lat="47.834217" lon="11.141178">
<ele>560.136</ele>
<time>2022-05-27T15:26:07Z</time>
</trkpt>
<trkpt lat="47.834286" lon="11.141203">
<ele>560.136</ele>
<time>2022-05-27T15:26:09Z</time>
</trkpt>
<trkpt lat="47.83432" lon="11.141218">
<ele>560.136</ele>
<time>2022-05-27T15:26:10Z</time>
</trkpt>
<trkpt lat="47.834385" lon="11.141249">
<ele>560.136</ele>
<time>2022-05-27T15:26:11Z</time>
</trkpt>
<trkpt lat="47.834419" lon="11.141262">
<ele>560.136</ele>
<time>2022-05-27T15:26:13Z</time>
</trkpt>
<trkpt lat="47.834454" lon="11.141272">
<ele>560.136</ele>
<time>2022-05-27T15:26:14Z</time>
</trkpt>
<trkpt lat="47.834522" lon="11.141292">
<ele>560.136</ele>
<time>2022-05-27T15:26:15Z</time>
</trkpt>
<trkpt lat="47.834564" lon="11.141301">
<ele>560.136</ele>
<time>2022-05-27T15:26:17Z</time>
</trkpt>
<trkpt lat="47.834644" lon="11.141329">
<ele>560.136</ele>
<time>2022-05-27T15:26:19Z</time>
</trkpt>
<trkpt lat="47.834686" lon="11.141343">
<ele>560.136</ele>
<time>2022-05-27T15:26:20Z</time>
</trkpt>
<trkpt lat="47.83477" lon="11.141367">
<ele>560.136</ele>
<time>2022-05-27T15:26:21Z</time>
</trkpt>
<trkpt lat="47.834805" lon="11.141378">
<ele>560.394</ele>
<time>2022-05-27T15:26:23Z</time>
</trkpt>
<trkpt lat="47.834881" lon="11.141381">
<ele>560.734</ele>
<time>2022-05-27T15:26:24Z</time>
</trkpt>
<trkpt lat="47.834915" lon="11.141376">
<ele>560.849</ele>
<time>2022-05-27T15:26:26Z</time>
</trkpt>
<trkpt lat="47.834949" lon="11.141375">
<ele>560.93</ele>
<time>2022-05-27T15:26:27Z</time>
</trkpt>
<trkpt lat="47.835007" lon="11.141378">
<ele>561.07</ele>
<time>2022-05-27T15:26:29Z</time>
</trkpt>
<trkpt lat="47.835075" lon="11.141394">
<ele>561.097</ele>
<time>2022-05-27T15:26:30Z</time>
</trkpt>
<trkpt lat="47.835106" lon="11.14141">
<ele>561.097</ele>
<time>2022-05-27T15:26:32Z</time>
</trkpt>
<trkpt lat="47.83514" lon="11.141421">
<ele>561.097</ele>
<time>2022-05-27T15:26:33Z</time>
</trkpt>
<trkpt lat="47.835209" lon="11.141436">
<ele>561.097</ele>
<time>2022-05-27T15:26:34Z</time>
</trkpt>
<trkpt lat="47.835247" lon="11.141441">
<ele>561.097</ele>
<time>2022-05-27T15:26:36Z</time>
</trkpt>
<trkpt lat="47.835308" lon="11.141461">
<ele>561.097</ele>
<time>2022-05-27T15:26:37Z</time>
</trkpt>
<trkpt lat="47.835346" lon="11.14147">
<ele>561.097</ele>
<time>2022-05-27T15:26:39Z</time>
</trkpt>
<trkpt lat="47.835426" lon="11.141488">
<ele>561.097</ele>
<time>2022-05-27T15:26:40Z</time>
</trkpt>
<trkpt lat="47.835461" lon="11.141503">
<ele>561.097</ele>
<time>2022-05-27T15:26:41Z</time>
</trkpt>
<trkpt lat="47.835499" lon="11.141521">
<ele>561.097</ele>
<time>2022-05-27T15:26:43Z</time>
</trkpt>
<trkpt lat="47.835522" lon="11.141541">
<ele>561.097</ele>
<time>2022-05-27T15:26:44Z</time>
</trkpt>
<trkpt lat="47.835587" lon="11.141603">
<ele>561.097</ele>
<time>2022-05-27T15:26:45Z</time>
</trkpt>
<trkpt lat="47.835621" lon="11.141624">
<ele>561.097</ele>
<time>2022-05-27T15:26:46Z</time>
</trkpt>
<trkpt lat="47.835663" lon="11.141648">
<ele>561.097</ele>
<time>2022-05-27T15:26:47Z</time>
</trkpt>
<trkpt lat="47.835709" lon="11.14167">
<ele>561.097</ele>
<time>2022-05-27T15:26:49Z</time>
</trkpt>
<trkpt lat="47.835754" lon="11.141688">
<ele>561.097</ele>
<time>2022-05-27T15:26:50Z</time>
</trkpt>
<trkpt lat="47.835804" lon="11.141693">
<ele>561.097</ele>
<time>2022-05-27T15:26:51Z</time>
</trkpt>
<trkpt lat="47.835899" lon="11.1417">
<ele>561.363</ele>
<time>2022-05-27T15:26:53Z</time>
</trkpt>
<trkpt lat="47.835995" lon="11.141706">
<ele>561.713</ele>
<time>2022-05-27T15:26:55Z</time>
</trkpt>
<trkpt lat="47.836075" lon="11.14172">
<ele>561.897</ele>
<time>2022-05-27T15:26:56Z</time>
</trkpt>
<trkpt lat="47.836113" lon="11.141723">
<ele>561.978</ele>
<time>2022-05-27T15:26:58Z</time>
</trkpt>
<trkpt lat="47.836193" lon="11.141738">
<ele>562.058</ele>
<time>2022-05-27T15:26:59Z</time>
</trkpt>
<trkpt lat="47.836235" lon="11.14175">
<ele>562.058</ele>
<time>2022-05-27T15:27:00Z</time>
</trkpt>
<trkpt lat="47.836273" lon="11.14176">
<ele>562.058</ele>
<time>2022-05-27T15:27:01Z</time>
</trkpt>
<trkpt lat="47.836304" lon="11.141777">
<ele>562.058</ele>
<time>2022-05-27T15:27:03Z</time>
</trkpt>
<trkpt lat="47.836369" lon="11.141804">
<ele>562.058</ele>
<time>2022-05-27T15:27:04Z</time>
</trkpt>
<trkpt lat="47.836403" lon="11.141819">
<ele>562.058</ele>
<time>2022-05-27T15:27:06Z</time>
</trkpt>
<trkpt lat="47.836437" lon="11.141836">
<ele>562.058</ele>
<time>2022-05-27T15:27:07Z</time>
</trkpt>
<trkpt lat="47.836475" lon="11.141852">
<ele>562.058</ele>
<time>2022-05-27T15:27:08Z</time>
</trkpt>
<trkpt lat="47.836559" lon="11.141882">
<ele>562.058</ele>
<time>2022-05-27T15:27:09Z</time>
</trkpt>
<trkpt lat="47.836601" lon="11.141893">
<ele>562.058</ele>
<time>2022-05-27T15:27:10Z</time>
</trkpt>
<trkpt lat="47.836632" lon="11.141901">
<ele>562.058</ele>
<time>2022-05-27T15:27:11Z</time>
</trkpt>
<trkpt lat="47.836658" lon="11.141915">
<ele>562.058</ele>
<time>2022-05-27T15:27:12Z</time>
</trkpt>
<trkpt lat="47.836689" lon="11.14193">
<ele>562.058</ele>
<time>2022-05-27T15:27:13Z</time>
</trkpt>
<trkpt lat="47.836716" lon="11.141942">
<ele>562.058</ele>
<time>2022-05-27T15:27:15Z</time>
</trkpt>
<trkpt lat="47.836731" lon="11.141952">
<ele>562.058</ele>
<time>2022-05-27T15:27:16Z</time>
</trkpt>
<trkpt lat="47.836769" lon="11.141994">
<ele>562.058</ele>
<time>2022-05-27T15:27:17Z</time>
</trkpt>
<trkpt lat="47.836796" lon="11.142012">
<ele>562.058</ele>
<time>2022-05-27T15:27:18Z</time>
</trkpt>
<trkpt lat="47.836819" lon="11.142025">
<ele>562.058</ele>
<time>2022-05-27T15:27:19Z</time>
</trkpt>
<trkpt lat="47.836838" lon="11.142035">
<ele>562.058</ele>
<time>2022-05-27T15:27:20Z</time>
</trkpt>
<trkpt lat="47.836853" lon="11.14205">
<ele>562.058</ele>
<time>2022-05-27T15:27:21Z</time>
</trkpt>
<trkpt lat="47.836864" lon="11.142062">
<ele>562.058</ele>
<time>2022-05-27T15:27:22Z</time>
</trkpt>
<trkpt lat="47.836872" lon="11.142072">
<ele>562.058</ele>
<time>2022-05-27T15:27:23Z</time>
</trkpt>
<trkpt lat="47.836876" lon="11.142089">
<ele>562.058</ele>
<time>2022-05-27T15:27:24Z</time>
</trkpt>
<trkpt lat="47.836884" lon="11.142106">
<ele>562.058</ele>
<time>2022-05-27T15:27:25Z</time>
</trkpt>
<trkpt lat="47.836891" lon="11.142132">
<ele>562.058</ele>
<time>2022-05-27T15:27:26Z</time>
</trkpt>
<trkpt lat="47.836906" lon="11.142159">
<ele>562.058</ele>
<time>2022-05-27T15:27:27Z</time>
</trkpt>
<trkpt lat="47.836918" lon="11.14219">
<ele>562.058</ele>
<time>2022-05-27T15:27:28Z</time>
</trkpt>
<trkpt lat="47.836933" lon="11.14222">
<ele>562.058</ele>
<time>2022-05-27T15:27:29Z</time>
</trkpt>
<trkpt lat="47.836948" lon="11.142243">
<ele>562.058</ele>
<time>2022-05-27T15:27:31Z</time>
</trkpt>
<trkpt lat="47.83699" lon="11.142272">
<ele>562.058</ele>
<time>2022-05-27T15:27:32Z</time>
</trkpt>
<trkpt lat="47.837017" lon="11.142284">
<ele>562.058</ele>
<time>2022-05-27T15:27:33Z</time>
</trkpt>
<trkpt lat="47.837048" lon="11.142309">
<ele>562.058</ele>
<time>2022-05-27T15:27:35Z</time>
</trkpt>
<trkpt lat="47.837105" lon="11.142342">
<ele>562.058</ele>
<time>2022-05-27T15:27:37Z</time>
</trkpt>
<trkpt lat="47.837162" lon="11.142372">
<ele>562.058</ele>
<time>2022-05-27T15:27:38Z</time>
</trkpt>
<trkpt lat="47.8372" lon="11.14239">
<ele>562.058</ele>
<time>2022-05-27T15:27:40Z</time>
</trkpt>
<trkpt lat="47.837234" lon="11.142412">
<ele>562.058</ele>
<time>2022-05-27T15:27:41Z</time>
</trkpt>
<trkpt lat="47.837315" lon="11.142453">
<ele>562.058</ele>
<time>2022-05-27T15:27:42Z</time>
</trkpt>
<trkpt lat="47.837345" lon="11.142468">
<ele>562.292</ele>
<time>2022-05-27T15:27:43Z</time>
</trkpt>
<trkpt lat="47.837376" lon="11.142493">
<ele>562.473</ele>
<time>2022-05-27T15:27:44Z</time>
</trkpt>
<trkpt lat="47.83741" lon="11.142515">
<ele>562.609</ele>
<time>2022-05-27T15:27:45Z</time>
</trkpt>
<trkpt lat="47.83744" lon="11.142529">
<ele>562.696</ele>
<time>2022-05-27T15:27:46Z</time>
</trkpt>
<trkpt lat="47.837471" lon="11.142542">
<ele>562.788</ele>
<time>2022-05-27T15:27:48Z</time>
</trkpt>
<trkpt lat="47.837532" lon="11.14256">
<ele>562.906</ele>
<time>2022-05-27T15:27:49Z</time>
</trkpt>
<trkpt lat="47.837563" lon="11.142563">
<ele>562.932</ele>
<time>2022-05-27T15:27:50Z</time>
</trkpt>
<trkpt lat="47.837589" lon="11.142565">
<ele>562.932</ele>
<time>2022-05-27T15:27:51Z</time>
</trkpt>
<trkpt lat="47.837608" lon="11.142571">
<ele>562.932</ele>
<time>2022-05-27T15:27:52Z</time>
</trkpt>
<trkpt lat="47.837627" lon="11.142584">
<ele>562.932</ele>
<time>2022-05-27T15:27:53Z</time>
</trkpt>
<trkpt lat="47.83765" lon="11.142594">
<ele>562.734</ele>
<time>2022-05-27T15:27:55Z</time>
</trkpt>
<trkpt lat="47.837727" lon="11.142623">
<ele>562.447</ele>
<time>2022-05-27T15:27:56Z</time>
</trkpt>
<trkpt lat="47.837765" lon="11.142633">
<ele>562.304</ele>
<time>2022-05-27T15:27:57Z</time>
</trkpt>
<trkpt lat="47.837791" lon="11.142638">
<ele>562.196</ele>
<time>2022-05-27T15:27:58Z</time>
</trkpt>
<trkpt lat="47.837814" lon="11.142643">
<ele>562.119</ele>
<time>2022-05-27T15:27:59Z</time>
</trkpt>
<trkpt lat="47.837841" lon="11.142645">
<ele>562.074</ele>
<time>2022-05-27T15:28:01Z</time>
</trkpt>
<trkpt lat="47.837887" lon="11.142651">
<ele>562.058</ele>
<time>2022-05-27T15:28:02Z</time>
</trkpt>
<trkpt lat="47.837906" lon="11.142655">
<ele>562.058</ele>
<time>2022-05-27T15:28:04Z</time>
</trkpt>
<trkpt lat="47.837959" lon="11.142675">
<ele>562.058</ele>
<time>2022-05-27T15:28:05Z</time>
</trkpt>
<trkpt lat="47.837982" lon="11.142685">
<ele>562.058</ele>
<time>2022-05-27T15:28:06Z</time>
</trkpt>
<trkpt lat="47.838001" lon="11.142691">
<ele>562.058</ele>
<time>2022-05-27T15:28:07Z</time>
</trkpt>
<trkpt lat="47.83802" lon="11.142707">
<ele>562.058</ele>
<time>2022-05-27T15:28:08Z</time>
</trkpt>
<trkpt lat="47.838043" lon="11.142716">
<ele>562.058</ele>
<time>2022-05-27T15:28:09Z</time>
</trkpt>
<trkpt lat="47.838089" lon="11.142724">
<ele>562.058</ele>
<time>2022-05-27T15:28:10Z</time>
</trkpt>
<trkpt lat="47.838127" lon="11.14272">
<ele>561.766</ele>
<time>2022-05-27T15:28:11Z</time>
</trkpt>
<trkpt lat="47.838161" lon="11.142714">
<ele>561.549</ele>
<time>2022-05-27T15:28:12Z</time>
</trkpt>
<trkpt lat="47.838196" lon="11.142712">
<ele>561.398</ele>
<time>2022-05-27T15:28:13Z</time>
</trkpt>
<trkpt lat="47.838226" lon="11.142716">
<ele>561.27</ele>
<time>2022-05-27T15:28:14Z</time>
</trkpt>
<trkpt lat="47.838253" lon="11.14272">
<ele>561.199</ele>
<time>2022-05-27T15:28:15Z</time>
</trkpt>
<trkpt lat="47.838284" lon="11.14272">
<ele>561.157</ele>
<time>2022-05-27T15:28:16Z</time>
</trkpt>
<trkpt lat="47.838306" lon="11.142724">
<ele>561.115</ele>
<time>2022-05-27T15:28:17Z</time>
</trkpt>
<trkpt lat="47.838337" lon="11.142722">
<ele>561.097</ele>
<time>2022-05-27T15:28:19Z</time>
</trkpt>
<trkpt lat="47.83839" lon="11.142741">
<ele>561.097</ele>
<time>2022-05-27T15:28:20Z</time>
</trkpt>
<trkpt lat="47.838417" lon="11.142747">
<ele>561.097</ele>
<time>2022-05-27T15:28:21Z</time>
</trkpt>
<trkpt lat="47.838444" lon="11.142752">
<ele>561.097</ele>
<time>2022-05-27T15:28:22Z</time>
</trkpt>
<trkpt lat="47.838474" lon="11.142758">
<ele>561.097</ele>
<time>2022-05-27T15:28:23Z</time>
</trkpt>
<trkpt lat="47.838505" lon="11.142766">
<ele>561.097</ele>
<time>2022-05-27T15:28:24Z</time>
</trkpt>
<trkpt lat="47.838531" lon="11.142775">
<ele>561.097</ele>
<time>2022-05-27T15:28:25Z</time>
</trkpt>
<trkpt lat="47.838558" lon="11.142781">
<ele>561.097</ele>
<time>2022-05-27T15:28:26Z</time>
</trkpt>
<trkpt lat="47.838589" lon="11.142783">
<ele>561.097</ele>
<time>2022-05-27T15:28:27Z</time>
</trkpt>
<trkpt lat="47.838619" lon="11.142785">
<ele>561.097</ele>
<time>2022-05-27T15:28:28Z</time>
</trkpt>
<trkpt lat="47.838646" lon="11.142781">
<ele>561.097</ele>
<time>2022-05-27T15:28:29Z</time>
</trkpt>
<trkpt lat="47.838673" lon="11.142787">
<ele>561.097</ele>
<time>2022-05-27T15:28:30Z</time>
</trkpt>
<trkpt lat="47.838703" lon="11.142796">
<ele>561.378</ele>
<time>2022-05-27T15:28:31Z</time>
</trkpt>
<trkpt lat="47.83873" lon="11.142796">
<ele>561.599</ele>
<time>2022-05-27T15:28:32Z</time>
</trkpt>
<trkpt lat="47.838753" lon="11.142794">
<ele>561.775</ele>
<time>2022-05-27T15:28:33Z</time>
</trkpt>
<trkpt lat="47.838776" lon="11.142797">
<ele>561.902</ele>
<time>2022-05-27T15:28:34Z</time>
</trkpt>
<trkpt lat="47.838795" lon="11.142792">
<ele>561.988</ele>
<time>2022-05-27T15:28:35Z</time>
</trkpt>
<trkpt lat="47.838825" lon="11.142781">
<ele>562.055</ele>
<time>2022-05-27T15:28:36Z</time>
</trkpt>
<trkpt lat="47.838848" lon="11.14277">
<ele>562.095</ele>
<time>2022-05-27T15:28:37Z</time>
</trkpt>
<trkpt lat="47.838863" lon="11.142747">
<ele>561.843</ele>
<time>2022-05-27T15:28:39Z</time>
</trkpt>
<trkpt lat="47.838905" lon="11.142705">
<ele>561.411</ele>
<time>2022-05-27T15:28:40Z</time>
</trkpt>
<trkpt lat="47.838928" lon="11.142693">
<ele>561.271</ele>
<time>2022-05-27T15:28:41Z</time>
</trkpt>
<trkpt lat="47.83894" lon="11.142689">
<ele>561.182</ele>
<time>2022-05-27T15:28:42Z</time>
</trkpt>
<trkpt lat="47.838966" lon="11.142701">
<ele>561.123</ele>
<time>2022-05-27T15:28:43Z</time>
</trkpt>
<trkpt lat="47.838993" lon="11.142712">
<ele>561.106</ele>
<time>2022-05-27T15:28:44Z</time>
</trkpt>
<trkpt lat="47.839012" lon="11.142715">
<ele>561.097</ele>
<time>2022-05-27T15:28:45Z</time>
</trkpt>
<trkpt lat="47.839027" lon="11.14271">
<ele>561.097</ele>
<time>2022-05-27T15:28:46Z</time>
</trkpt>
<trkpt lat="47.839058" lon="11.142685">
<ele>561.097</ele>
<time>2022-05-27T15:28:48Z</time>
</trkpt>
<trkpt lat="47.839108" lon="11.142673">
<ele>561.097</ele>
<time>2022-05-27T15:28:49Z</time>
</trkpt>
<trkpt lat="47.83913" lon="11.142667">
<ele>561.097</ele>
<time>2022-05-27T15:28:50Z</time>
</trkpt>
<trkpt lat="47.839153" lon="11.142661">
<ele>561.097</ele>
<time>2022-05-27T15:28:51Z</time>
</trkpt>
<trkpt lat="47.839176" lon="11.142659">
<ele>561.097</ele>
<time>2022-05-27T15:28:52Z</time>
</trkpt>
<trkpt lat="47.839195" lon="11.142658">
<ele>560.837</ele>
<time>2022-05-27T15:28:53Z</time>
</trkpt>
<trkpt lat="47.839207" lon="11.142658">
<ele>560.645</ele>
<time>2022-05-27T15:28:54Z</time>
</trkpt>
<trkpt lat="47.83923" lon="11.142661">
<ele>560.495</ele>
<time>2022-05-27T15:28:56Z</time>
</trkpt>
<trkpt lat="47.839245" lon="11.142649">
<ele>560.236</ele>
<time>2022-05-27T15:28:58Z</time>
</trkpt>
<trkpt lat="47.839252" lon="11.142636">
<ele>560.145</ele>
<time>2022-05-27T15:28:59Z</time>
</trkpt>
<trkpt lat="47.839268" lon="11.142622">
<ele>560.084</ele>
<time>2022-05-27T15:29:00Z</time>
</trkpt>
<trkpt lat="47.839272" lon="11.142618">
<ele>560.049</ele>
<time>2022-05-27T15:29:01Z</time>
</trkpt>
<trkpt lat="47.839283" lon="11.142618">
<ele>560.049</ele>
<time>2022-05-27T15:29:02Z</time>
</trkpt>
<trkpt lat="47.839291" lon="11.142615">
<ele>560.049</ele>
<time>2022-05-27T15:29:03Z</time>
</trkpt>
<trkpt lat="47.839306" lon="11.142611">
<ele>560.049</ele>
<time>2022-05-27T15:29:04Z</time>
</trkpt>
<trkpt lat="47.83931" lon="11.142594">
<ele>560.049</ele>
<time>2022-05-27T15:29:05Z</time>
</trkpt>
<trkpt lat="47.839321" lon="11.142578">
<ele>560.049</ele>
<time>2022-05-27T15:29:06Z</time>
</trkpt>
<trkpt lat="47.839333" lon="11.142558">
<ele>560.049</ele>
<time>2022-05-27T15:29:08Z</time>
</trkpt>
<trkpt lat="47.83934" lon="11.142533">
<ele>560.049</ele>
<time>2022-05-27T15:29:09Z</time>
</trkpt>
<trkpt lat="47.839348" lon="11.142512">
<ele>560.049</ele>
<time>2022-05-27T15:29:10Z</time>
</trkpt>
<trkpt lat="47.839363" lon="11.142482">
<ele>560.049</ele>
<time>2022-05-27T15:29:11Z</time>
</trkpt>
<trkpt lat="47.839413" lon="11.142442">
<ele>560.049</ele>
<time>2022-05-27T15:29:12Z</time>
</trkpt>
<trkpt lat="47.839447" lon="11.142415">
<ele>560.049</ele>
<time>2022-05-27T15:29:13Z</time>
</trkpt>
<trkpt lat="47.839451" lon="11.142346">
<ele>560.049</ele>
<time>2022-05-27T15:29:15Z</time>
</trkpt>
<trkpt lat="47.8395" lon="11.142253">
<ele>560.049</ele>
<time>2022-05-27T15:29:16Z</time>
</trkpt>
<trkpt lat="47.839504" lon="11.14221">
<ele>560.049</ele>
<time>2022-05-27T15:29:17Z</time>
</trkpt>
<trkpt lat="47.839512" lon="11.142171">
<ele>559.803</ele>
<time>2022-05-27T15:29:18Z</time>
</trkpt>
<trkpt lat="47.83952" lon="11.142145">
<ele>559.619</ele>
<time>2022-05-27T15:29:19Z</time>
</trkpt>
<trkpt lat="47.839523" lon="11.14211">
<ele>559.478</ele>
<time>2022-05-27T15:29:20Z</time>
</trkpt>
<trkpt lat="47.839527" lon="11.142075">
<ele>559.363</ele>
<time>2022-05-27T15:29:22Z</time>
</trkpt>
<trkpt lat="47.839539" lon="11.142003">
<ele>559.176</ele>
<time>2022-05-27T15:29:24Z</time>
</trkpt>
<trkpt lat="47.839546" lon="11.14197">
<ele>559.126</ele>
<time>2022-05-27T15:29:25Z</time>
</trkpt>
<trkpt lat="47.83955" lon="11.141933">
<ele>559.088</ele>
<time>2022-05-27T15:29:26Z</time>
</trkpt>
<trkpt lat="47.83955" lon="11.141901">
<ele>559.088</ele>
<time>2022-05-27T15:29:27Z</time>
</trkpt>
<trkpt lat="47.839546" lon="11.141858">
<ele>559.088</ele>
<time>2022-05-27T15:29:28Z</time>
</trkpt>
<trkpt lat="47.83955" lon="11.141844">
<ele>559.088</ele>
<time>2022-05-27T15:29:29Z</time>
</trkpt>
<trkpt lat="47.83955" lon="11.141836">
<ele>559.088</ele>
<time>2022-05-27T15:29:30Z</time>
</trkpt>
<trkpt lat="47.83955" lon="11.141825">
<ele>559.088</ele>
<time>2022-05-27T15:29:31Z</time>
</trkpt>
<trkpt lat="47.839554" lon="11.141819">
<ele>559.088</ele>
<time>2022-05-27T15:29:32Z</time>
</trkpt>
<trkpt lat="47.839554" lon="11.141809">
<ele>559.088</ele>
<time>2022-05-27T15:29:34Z</time>
</trkpt>
<trkpt lat="47.839561" lon="11.1418">
<ele>559.088</ele>
<time>2022-05-27T15:29:35Z</time>
</trkpt>
<trkpt lat="47.839577" lon="11.141767">
<ele>559.088</ele>
<time>2022-05-27T15:29:36Z</time>
</trkpt>
<trkpt lat="47.839584" lon="11.141744">
<ele>559.088</ele>
<time>2022-05-27T15:29:38Z</time>
</trkpt>
<trkpt lat="47.839592" lon="11.141697">
<ele>559.088</ele>
<time>2022-05-27T15:29:39Z</time>
</trkpt>
<trkpt lat="47.839596" lon="11.141689">
<ele>559.088</ele>
<time>2022-05-27T15:29:40Z</time>
</trkpt>
<trkpt lat="47.839596" lon="11.141682">
<ele>559.088</ele>
<time>2022-05-27T15:29:41Z</time>
</trkpt>
<trkpt lat="47.839596" lon="11.141679">
<ele>559.088</ele>
<time>2022-05-27T15:29:42Z</time>
</trkpt>
<trkpt lat="47.8396" lon="11.141673">
<ele>559.088</ele>
<time>2022-05-27T15:29:43Z</time>
</trkpt>
<trkpt lat="47.8396" lon="11.141665">
<ele>559.088</ele>
<time>2022-05-27T15:29:45Z</time>
</trkpt>
<trkpt lat="47.8396" lon="11.141664">
<ele>559.088</ele>
<time>2022-05-27T15:29:46Z</time>
</trkpt>
<trkpt lat="47.839664" lon="11.141666">
<ele>559.088</ele>
<time>2022-05-27T15:30:09Z</time>
</trkpt>
<trkpt lat="47.839664" lon="11.14166">
<ele>559.088</ele>
<time>2022-05-27T15:30:10Z</time>
</trkpt>
<trkpt lat="47.839664" lon="11.141649">
<ele>559.088</ele>
<time>2022-05-27T15:30:11Z</time>
</trkpt>
<trkpt lat="47.839664" lon="11.141633">
<ele>559.088</ele>
<time>2022-05-27T15:30:12Z</time>
</trkpt>
<trkpt lat="47.839661" lon="11.141623">
<ele>559.088</ele>
<time>2022-05-27T15:30:14Z</time>
</trkpt>
<trkpt lat="47.839649" lon="11.141603">
<ele>559.088</ele>
<time>2022-05-27T15:30:15Z</time>
</trkpt>
<trkpt lat="47.839642" lon="11.141597">
<ele>559.088</ele>
<time>2022-05-27T15:30:16Z</time>
</trkpt>
<trkpt lat="47.83963" lon="11.141595">
<ele>559.088</ele>
<time>2022-05-27T15:30:17Z</time>
</trkpt>
<trkpt lat="47.839622" lon="11.141588">
<ele>559.088</ele>
<time>2022-05-27T15:30:19Z</time>
</trkpt>
<trkpt lat="47.8396" lon="11.141574">
<ele>559.088</ele>
<time>2022-05-27T15:30:20Z</time>
</trkpt>
<trkpt lat="47.839592" lon="11.141572">
<ele>559.088</ele>
<time>2022-05-27T15:30:21Z</time>
</trkpt>
<trkpt lat="47.839569" lon="11.141577">
<ele>559.088</ele>
<time>2022-05-27T15:30:22Z</time>
</trkpt>
<trkpt lat="47.839561" lon="11.141583">
<ele>559.088</ele>
<time>2022-05-27T15:30:23Z</time>
</trkpt>
<trkpt lat="47.83955" lon="11.14159">
<ele>559.088</ele>
<time>2022-05-27T15:30:24Z</time>
</trkpt>
<trkpt lat="47.839546" lon="11.141592">
<ele>559.088</ele>
<time>2022-05-27T15:30:25Z</time>
</trkpt>
<trkpt lat="47.839539" lon="11.14159">
<ele>559.088</ele>
<time>2022-05-27T15:30:26Z</time>
</trkpt>
<trkpt lat="47.839539" lon="11.141593">
<ele>559.282</ele>
<time>2022-05-27T15:30:28Z</time>
</trkpt>
<trkpt lat="47.839539" lon="11.141592">
<ele>559.432</ele>
<time>2022-05-27T15:30:29Z</time>
</trkpt>
<trkpt lat="47.839542" lon="11.141588">
<ele>559.57</ele>
<time>2022-05-27T15:30:30Z</time>
</trkpt>
<trkpt lat="47.839558" lon="11.141607">
<ele>559.681</ele>
<time>2022-05-27T15:30:44Z</time>
</trkpt>
<trkpt lat="47.839561" lon="11.141608">
<ele>559.81</ele>
<time>2022-05-27T15:30:46Z</time>
</trkpt>
<trkpt lat="47.839561" lon="11.14161">
<ele>559.89</ele>
<time>2022-05-27T15:30:47Z</time>
</trkpt>
<trkpt lat="47.839565" lon="11.14161">
<ele>559.962</ele>
<time>2022-05-27T15:30:48Z</time>
</trkpt>
<trkpt lat="47.839535" lon="11.141595">
<ele>559.978</ele>
<time>2022-05-27T15:33:36Z</time>
</trkpt>
<trkpt lat="47.839535" lon="11.141597">
<ele>560.162</ele>
<time>2022-05-27T15:33:37Z</time>
</trkpt>
<trkpt lat="47.839535" lon="11.1416">
<ele>560.259</ele>
<time>2022-05-27T15:33:38Z</time>
</trkpt>
<trkpt lat="47.839535" lon="11.141602">
<ele>560.238</ele>
<time>2022-05-27T15:33:39Z</time>
</trkpt>
<trkpt lat="47.839561" lon="11.141562">
<ele>560.052</ele>
<time>2022-05-27T15:33:57Z</time>
</trkpt>
<trkpt lat="47.839565" lon="11.141555">
<ele>560.136</ele>
<time>2022-05-27T15:33:58Z</time>
</trkpt>
<trkpt lat="47.839569" lon="11.141551">
<ele>560.16</ele>
<time>2022-05-27T15:33:59Z</time>
</trkpt>
<trkpt lat="47.839569" lon="11.141553">
<ele>560.192</ele>
<time>2022-05-27T15:34:01Z</time>
</trkpt>
<trkpt lat="47.839619" lon="11.141557">
<ele>560.213</ele>
<time>2022-05-27T15:35:32Z</time>
</trkpt>
<trkpt lat="47.839622" lon="11.141557">
<ele>560.218</ele>
<time>2022-05-27T15:35:33Z</time>
</trkpt>
<trkpt lat="47.839626" lon="11.141553">
<ele>560.222</ele>
<time>2022-05-27T15:35:34Z</time>
</trkpt>
<trkpt lat="47.839634" lon="11.141543">
<ele>560.21</ele>
<time>2022-05-27T15:35:35Z</time>
</trkpt>
<trkpt lat="47.839642" lon="11.141534">
<ele>560.223</ele>
<time>2022-05-27T15:35:36Z</time>
</trkpt>
<trkpt lat="47.839642" lon="11.141523">
<ele>560.223</ele>
<time>2022-05-27T15:35:37Z</time>
</trkpt>
<trkpt lat="47.839642" lon="11.141521">
<ele>560.223</ele>
<time>2022-05-27T15:35:38Z</time>
</trkpt>
<trkpt lat="47.839638" lon="11.14152">
<ele>560.224</ele>
<time>2022-05-27T15:35:39Z</time>
</trkpt>
<trkpt lat="47.83963" lon="11.141521">
<ele>560.223</ele>
<time>2022-05-27T15:35:40Z</time>
</trkpt>
<trkpt lat="47.839638" lon="11.141541">
<ele>560.223</ele>
<time>2022-05-27T15:35:48Z</time>
</trkpt>
<trkpt lat="47.839642" lon="11.141546">
<ele>560.223</ele>
<time>2022-05-27T15:35:49Z</time>
</trkpt>
<trkpt lat="47.839642" lon="11.141548">
<ele>560.223</ele>
<time>2022-05-27T15:35:50Z</time>
</trkpt>
<trkpt lat="47.839642" lon="11.141559">
<ele>560.223</ele>
<time>2022-05-27T15:35:51Z</time>
</trkpt>
<trkpt lat="47.83963" lon="11.141572">
<ele>560.223</ele>
<time>2022-05-27T15:35:52Z</time>
</trkpt>
<trkpt lat="47.83963" lon="11.141565">
<ele>560.224</ele>
<time>2022-05-27T15:35:53Z</time>
</trkpt>
<trkpt lat="47.839626" lon="11.141565">
<ele>560.223</ele>
<time>2022-05-27T15:35:55Z</time>
</trkpt>
<trkpt lat="47.839622" lon="11.141563">
<ele>560.223</ele>
<time>2022-05-27T15:35:56Z</time>
</trkpt>
<trkpt lat="47.839622" lon="11.141562">
<ele>560.223</ele>
<time>2022-05-27T15:35:57Z</time>
</trkpt>
<trkpt lat="47.839626" lon="11.141563">
<ele>560.223</ele>
<time>2022-05-27T15:35:58Z</time>
</trkpt>
<trkpt lat="47.839622" lon="11.141559">
<ele>560.223</ele>
<time>2022-05-27T15:35:59Z</time>
</trkpt>
<trkpt lat="47.839622" lon="11.141562">
<ele>560.223</ele>
<time>2022-05-27T15:36:00Z</time>
</trkpt>
<trkpt lat="47.839622" lon="11.141568">
<ele>560.224</ele>
<time>2022-05-27T15:36:01Z</time>
</trkpt>
<trkpt lat="47.839611" lon="11.141579">
<ele>560.223</ele>
<time>2022-05-27T15:36:02Z</time>
</trkpt>
<trkpt lat="47.839542" lon="11.14157">
<ele>560.223</ele>
<time>2022-05-27T15:36:50Z</time>
</trkpt>
<trkpt lat="47.839539" lon="11.141567">
<ele>560.223</ele>
<time>2022-05-27T15:36:51Z</time>
</trkpt>
<trkpt lat="47.839535" lon="11.141563">
<ele>560.224</ele>
<time>2022-05-27T15:36:52Z</time>
</trkpt>
<trkpt lat="47.839527" lon="11.14155">
<ele>560.224</ele>
<time>2022-05-27T15:36:53Z</time>
</trkpt>
<trkpt lat="47.839531" lon="11.141528">
<ele>560.224</ele>
<time>2022-05-27T15:37:27Z</time>
</trkpt>
<trkpt lat="47.839535" lon="11.141528">
<ele>560.223</ele>
<time>2022-05-27T15:37:28Z</time>
</trkpt>
<trkpt lat="47.839535" lon="11.141526">
<ele>560.223</ele>
<time>2022-05-27T15:37:29Z</time>
</trkpt>
<trkpt lat="47.839535" lon="11.141534">
<ele>560.223</ele>
<time>2022-05-27T15:37:30Z</time>
</trkpt>
<trkpt lat="47.839535" lon="11.141526">
<ele>560.223</ele>
<time>2022-05-27T15:37:37Z</time>
</trkpt>
<trkpt lat="47.839535" lon="11.14152">
<ele>560.224</ele>
<time>2022-05-27T15:37:38Z</time>
</trkpt>
<trkpt lat="47.839535" lon="11.141519">
<ele>560.223</ele>
<time>2022-05-27T15:37:39Z</time>
</trkpt>
<trkpt lat="47.839542" lon="11.141534">
<ele>560.223</ele>
<time>2022-05-27T15:37:40Z</time>
</trkpt>
<trkpt lat="47.839546" lon="11.141543">
<ele>560.223</ele>
<time>2022-05-27T15:37:41Z</time>
</trkpt>
<trkpt lat="47.839554" lon="11.141562">
<ele>560.224</ele>
<time>2022-05-27T15:37:42Z</time>
</trkpt>
<trkpt lat="47.839569" lon="11.14158">
<ele>560.223</ele>
<time>2022-05-27T15:37:43Z</time>
</trkpt>
<trkpt lat="47.839581" lon="11.141599">
<ele>560.223</ele>
<time>2022-05-27T15:37:44Z</time>
</trkpt>
<trkpt lat="47.839592" lon="11.141612">
<ele>560.223</ele>
<time>2022-05-27T15:37:45Z</time>
</trkpt>
<trkpt lat="47.8396" lon="11.14162">
<ele>560.223</ele>
<time>2022-05-27T15:37:46Z</time>
</trkpt>
<trkpt lat="47.839626" lon="11.141628">
<ele>560.223</ele>
<time>2022-05-27T15:37:47Z</time>
</trkpt>
<trkpt lat="47.83963" lon="11.141644">
<ele>560.223</ele>
<time>2022-05-27T15:37:48Z</time>
</trkpt>
<trkpt lat="47.839638" lon="11.141651">
<ele>560.224</ele>
<time>2022-05-27T15:37:49Z</time>
</trkpt>
<trkpt lat="47.839657" lon="11.141658">
<ele>560.224</ele>
<time>2022-05-27T15:37:50Z</time>
</trkpt>
<trkpt lat="47.839661" lon="11.141673">
<ele>560.223</ele>
<time>2022-05-27T15:37:57Z</time>
</trkpt>
<trkpt lat="47.839657" lon="11.141672">
<ele>560.224</ele>
<time>2022-05-27T15:37:58Z</time>
</trkpt>
<trkpt lat="47.839661" lon="11.141668">
<ele>560.224</ele>
<time>2022-05-27T15:37:59Z</time>
</trkpt>
<trkpt lat="47.839661" lon="11.141666">
<ele>560.224</ele>
<time>2022-05-27T15:38:00Z</time>
</trkpt>
<trkpt lat="47.839661" lon="11.141662">
<ele>560.223</ele>
<time>2022-05-27T15:38:01Z</time>
</trkpt>
<trkpt lat="47.839664" lon="11.141655">
<ele>560.223</ele>
<time>2022-05-27T15:38:02Z</time>
</trkpt>
<trkpt lat="47.839664" lon="11.141649">
<ele>560.224</ele>
<time>2022-05-27T15:38:03Z</time>
</trkpt>
<trkpt lat="47.839668" lon="11.141651">
<ele>560.223</ele>
<time>2022-05-27T15:38:04Z</time>
</trkpt>
<trkpt lat="47.839664" lon="11.141647">
<ele>560.223</ele>
<time>2022-05-27T15:38:05Z</time>
</trkpt>
<trkpt lat="47.839664" lon="11.141642">
<ele>560.223</ele>
<time>2022-05-27T15:38:06Z</time>
</trkpt>
<trkpt lat="47.839661" lon="11.141574">
<ele>560.223</ele>
<time>2022-05-27T15:51:12Z</time>
</trkpt>
<trkpt lat="47.839661" lon="11.141567">
<ele>560.223</ele>
<time>2022-05-27T15:51:13Z</time>
</trkpt>
<trkpt lat="47.839657" lon="11.141567">
<ele>560.223</ele>
<time>2022-05-27T15:51:14Z</time>
</trkpt>
<trkpt lat="47.839653" lon="11.141562">
<ele>560.223</ele>
<time>2022-05-27T15:51:15Z</time>
</trkpt>
<trkpt lat="47.839653" lon="11.141544">
<ele>560.223</ele>
<time>2022-05-27T15:51:17Z</time>
</trkpt>
<trkpt lat="47.839649" lon="11.141539">
<ele>560.224</ele>
<time>2022-05-27T15:51:18Z</time>
</trkpt>
<trkpt lat="47.839645" lon="11.141537">
<ele>560.223</ele>
<time>2022-05-27T15:51:19Z</time>
</trkpt>
<trkpt lat="47.83963" lon="11.141583">
<ele>560.223</ele>
<time>2022-05-27T15:51:32Z</time>
</trkpt>
<trkpt lat="47.839626" lon="11.141584">
<ele>560.224</ele>
<time>2022-05-27T15:51:33Z</time>
</trkpt>
<trkpt lat="47.839622" lon="11.141584">
<ele>560.223</ele>
<time>2022-05-27T15:51:34Z</time>
</trkpt>
<trkpt lat="47.839622" lon="11.141588">
<ele>560.223</ele>
<time>2022-05-27T15:51:35Z</time>
</trkpt>
<trkpt lat="47.839664" lon="11.141519">
<ele>560.223</ele>
<time>2022-05-27T15:52:28Z</time>
</trkpt>
<trkpt lat="47.839668" lon="11.141505">
<ele>560.223</ele>
<time>2022-05-27T15:52:29Z</time>
</trkpt>
<trkpt lat="47.839672" lon="11.141499">
<ele>560.224</ele>
<time>2022-05-27T15:52:30Z</time>
</trkpt>
<trkpt lat="47.839676" lon="11.14149">
<ele>560.223</ele>
<time>2022-05-27T15:52:31Z</time>
</trkpt>
<trkpt lat="47.83968" lon="11.141481">
<ele>560.224</ele>
<time>2022-05-27T15:52:32Z</time>
</trkpt>
<trkpt lat="47.83968" lon="11.141483">
<ele>560.224</ele>
<time>2022-05-27T15:52:33Z</time>
</trkpt>
<trkpt lat="47.83968" lon="11.141479">
<ele>560.224</ele>
<time>2022-05-27T15:52:34Z</time>
</trkpt>
<trkpt lat="47.83968" lon="11.141511">
<ele>560.223</ele>
<time>2022-05-27T15:54:12Z</time>
</trkpt>
<trkpt lat="47.839684" lon="11.141515">
<ele>560.224</ele>
<time>2022-05-27T15:54:13Z</time>
</trkpt>
<trkpt lat="47.839687" lon="11.141515">
<ele>560.223</ele>
<time>2022-05-27T15:54:14Z</time>
</trkpt>
<trkpt lat="47.839691" lon="11.141515">
<ele>560.223</ele>
<time>2022-05-27T15:54:15Z</time>
</trkpt>
<trkpt lat="47.839691" lon="11.141513">
<ele>560.223</ele>
<time>2022-05-27T15:54:16Z</time>
</trkpt>
<trkpt lat="47.839619" lon="11.14161">
<ele>560.223</ele>
<time>2022-05-27T15:54:45Z</time>
</trkpt>
<trkpt lat="47.839607" lon="11.14161">
<ele>560.223</ele>
<time>2022-05-27T15:54:46Z</time>
</trkpt>
<trkpt lat="47.8396" lon="11.141608">
<ele>560.224</ele>
<time>2022-05-27T15:54:47Z</time>
</trkpt>
<trkpt lat="47.839596" lon="11.141605">
<ele>560.223</ele>
<time>2022-05-27T15:54:48Z</time>
</trkpt>
<trkpt lat="47.839664" lon="11.14155">
<ele>560.224</ele>
<time>2022-05-27T15:58:35Z</time>
</trkpt>
<trkpt lat="47.839664" lon="11.141544">
<ele>560.223</ele>
<time>2022-05-27T15:58:36Z</time>
</trkpt>
<trkpt lat="47.839668" lon="11.141546">
<ele>560.223</ele>
<time>2022-05-27T15:58:37Z</time>
</trkpt>
<trkpt lat="47.839668" lon="11.141544">
<ele>560.223</ele>
<time>2022-05-27T15:58:38Z</time>
</trkpt>
<trkpt lat="47.839668" lon="11.141546">
<ele>560.223</ele>
<time>2022-05-27T15:58:39Z</time>
</trkpt>
<trkpt lat="47.839676" lon="11.141553">
<ele>560.224</ele>
<time>2022-05-27T15:58:43Z</time>
</trkpt>
<trkpt lat="47.83968" lon="11.141555">
<ele>560.223</ele>
<time>2022-05-27T15:58:44Z</time>
</trkpt>
<trkpt lat="47.83968" lon="11.141557">
<ele>560.224</ele>
<time>2022-05-27T15:58:45Z</time>
</trkpt>
<trkpt lat="47.839684" lon="11.141562">
<ele>560.223</ele>
<time>2022-05-27T15:58:46Z</time>
</trkpt>
<trkpt lat="47.839684" lon="11.14156">
<ele>560.223</ele>
<time>2022-05-27T15:58:47Z</time>
</trkpt>
<trkpt lat="47.839664" lon="11.141572">
<ele>560.223</ele>
<time>2022-05-27T16:02:27Z</time>
</trkpt>
<trkpt lat="47.839664" lon="11.141565">
<ele>560.223</ele>
<time>2022-05-27T16:02:28Z</time>
</trkpt>
<trkpt lat="47.839664" lon="11.141562">
<ele>560.223</ele>
<time>2022-05-27T16:02:29Z</time>
</trkpt>
<trkpt lat="47.839668" lon="11.14156">
<ele>560.223</ele>
<time>2022-05-27T16:02:30Z</time>
</trkpt>
<trkpt lat="47.839668" lon="11.141559">
<ele>560.224</ele>
<time>2022-05-27T16:02:31Z</time>
</trkpt>
<trkpt lat="47.839672" lon="11.141559">
<ele>560.223</ele>
<time>2022-05-27T16:02:32Z</time>
</trkpt>
<trkpt lat="47.83968" lon="11.141559">
<ele>560.223</ele>
<time>2022-05-27T16:02:39Z</time>
</trkpt>
<trkpt lat="47.839676" lon="11.141553">
<ele>560.223</ele>
<time>2022-05-27T16:02:40Z</time>
</trkpt>
<trkpt lat="47.839676" lon="11.141548">
<ele>560.223</ele>
<time>2022-05-27T16:02:42Z</time>
</trkpt>
<trkpt lat="47.839672" lon="11.141551">
<ele>560.223</ele>
<time>2022-05-27T16:02:43Z</time>
</trkpt>
<trkpt lat="47.83968" lon="11.14162">
<ele>560.223</ele>
<time>2022-05-27T16:03:16Z</time>
</trkpt>
<trkpt lat="47.839684" lon="11.141623">
<ele>560.223</ele>
<time>2022-05-27T16:03:18Z</time>
</trkpt>
<trkpt lat="47.839684" lon="11.141628">
<ele>560.223</ele>
<time>2022-05-27T16:03:19Z</time>
</trkpt>
<trkpt lat="47.839691" lon="11.141633">
<ele>560.223</ele>
<time>2022-05-27T16:03:20Z</time>
</trkpt>
<trkpt lat="47.839687" lon="11.141633">
<ele>560.223</ele>
<time>2022-05-27T16:03:21Z</time>
</trkpt>
<trkpt lat="47.839752" lon="11.141532">
<ele>560.224</ele>
<time>2022-05-27T16:04:11Z</time>
</trkpt>
<trkpt lat="47.839756" lon="11.141528">
<ele>560.224</ele>
<time>2022-05-27T16:04:12Z</time>
</trkpt>
<trkpt lat="47.839756" lon="11.141523">
<ele>560.223</ele>
<time>2022-05-27T16:04:13Z</time>
</trkpt>
<trkpt lat="47.83976" lon="11.141523">
<ele>560.224</ele>
<time>2022-05-27T16:04:14Z</time>
</trkpt>
<trkpt lat="47.83976" lon="11.141499">
<ele>560.223</ele>
<time>2022-05-27T16:04:32Z</time>
</trkpt>
<trkpt lat="47.83976" lon="11.141497">
<ele>560.223</ele>
<time>2022-05-27T16:04:33Z</time>
</trkpt>
<trkpt lat="47.83976" lon="11.141492">
<ele>560.223</ele>
<time>2022-05-27T16:04:35Z</time>
</trkpt>
<trkpt lat="47.839745" lon="11.141467">
<ele>560.223</ele>
<time>2022-05-27T16:05:01Z</time>
</trkpt>
<trkpt lat="47.839748" lon="11.141467">
<ele>560.223</ele>
<time>2022-05-27T16:05:02Z</time>
</trkpt>
<trkpt lat="47.839752" lon="11.14147">
<ele>560.223</ele>
<time>2022-05-27T16:05:03Z</time>
</trkpt>
<trkpt lat="47.839756" lon="11.141475">
<ele>560.224</ele>
<time>2022-05-27T16:05:04Z</time>
</trkpt>
<trkpt lat="47.839764" lon="11.141497">
<ele>560.223</ele>
<time>2022-05-27T16:05:07Z</time>
</trkpt>
<trkpt lat="47.839767" lon="11.1415">
<ele>560.223</ele>
<time>2022-05-27T16:05:08Z</time>
</trkpt>
<trkpt lat="47.839771" lon="11.1415">
<ele>560.223</ele>
<time>2022-05-27T16:05:09Z</time>
</trkpt>
<trkpt lat="47.839771" lon="11.141495">
<ele>560.224</ele>
<time>2022-05-27T16:05:10Z</time>
</trkpt>
<trkpt lat="47.839714" lon="11.1415">
<ele>560.223</ele>
<time>2022-05-27T16:05:36Z</time>
</trkpt>
<trkpt lat="47.839706" lon="11.141499">
<ele>560.223</ele>
<time>2022-05-27T16:05:37Z</time>
</trkpt>
<trkpt lat="47.839703" lon="11.141495">
<ele>560.224</ele>
<time>2022-05-27T16:05:38Z</time>
</trkpt>
<trkpt lat="47.839695" lon="11.141494">
<ele>560.223</ele>
<time>2022-05-27T16:05:39Z</time>
</trkpt>
<trkpt lat="47.839695" lon="11.141497">
<ele>560.224</ele>
<time>2022-05-27T16:05:40Z</time>
</trkpt>
<trkpt lat="47.839691" lon="11.141497">
<ele>560.224</ele>
<time>2022-05-27T16:05:41Z</time>
</trkpt>
<trkpt lat="47.839691" lon="11.1415">
<ele>560.223</ele>
<time>2022-05-27T16:05:42Z</time>
</trkpt>
<trkpt lat="47.839691" lon="11.141503">
<ele>560.223</ele>
<time>2022-05-27T16:06:08Z</time>
</trkpt>
<trkpt lat="47.839691" lon="11.141507">
<ele>560.223</ele>
<time>2022-05-27T16:06:09Z</time>
</trkpt>
<trkpt lat="47.839695" lon="11.141509">
<ele>560.223</ele>
<time>2022-05-27T16:06:10Z</time>
</trkpt>
<trkpt lat="47.839725" lon="11.141546">
<ele>560.223</ele>
<time>2022-05-27T16:06:51Z</time>
</trkpt>
<trkpt lat="47.839729" lon="11.141555">
<ele>560.224</ele>
<time>2022-05-27T16:06:52Z</time>
</trkpt>
<trkpt lat="47.839733" lon="11.14156">
<ele>560.224</ele>
<time>2022-05-27T16:06:53Z</time>
</trkpt>
<trkpt lat="47.839737" lon="11.141563">
<ele>560.223</ele>
<time>2022-05-27T16:06:54Z</time>
</trkpt>
<trkpt lat="47.839737" lon="11.141567">
<ele>560.223</ele>
<time>2022-05-27T16:06:55Z</time>
</trkpt>
<trkpt lat="47.839741" lon="11.141568">
<ele>560.223</ele>
<time>2022-05-27T16:06:56Z</time>
</trkpt>
<trkpt lat="47.839745" lon="11.141567">
<ele>560.223</ele>
<time>2022-05-27T16:06:57Z</time>
</trkpt>
<trkpt lat="47.839748" lon="11.141568">
<ele>560.223</ele>
<time>2022-05-27T16:06:58Z</time>
</trkpt>
<trkpt lat="47.839745" lon="11.141572">
<ele>560.223</ele>
<time>2022-05-27T16:06:59Z</time>
</trkpt>
<trkpt lat="47.839745" lon="11.141575">
<ele>560.223</ele>
<time>2022-05-27T16:07:00Z</time>
</trkpt>
<trkpt lat="47.839745" lon="11.141579">
<ele>560.224</ele>
<time>2022-05-27T16:07:02Z</time>
</trkpt>
<trkpt lat="47.839695" lon="11.141584">
<ele>560.223</ele>
<time>2022-05-27T16:07:25Z</time>
</trkpt>
<trkpt lat="47.839691" lon="11.14159">
<ele>560.223</ele>
<time>2022-05-27T16:07:26Z</time>
</trkpt>
<trkpt lat="47.839691" lon="11.141593">
<ele>560.223</ele>
<time>2022-05-27T16:07:27Z</time>
</trkpt>
<trkpt lat="47.839687" lon="11.141597">
<ele>560.223</ele>
<time>2022-05-27T16:07:28Z</time>
</trkpt>
<trkpt lat="47.83968" lon="11.141593">
<ele>560.224</ele>
<time>2022-05-27T16:07:32Z</time>
</trkpt>
<trkpt lat="47.839676" lon="11.141595">
<ele>560.223</ele>
<time>2022-05-27T16:07:33Z</time>
</trkpt>
<trkpt lat="47.839676" lon="11.141593">
<ele>560.224</ele>
<time>2022-05-27T16:07:34Z</time>
</trkpt>
<trkpt lat="47.839676" lon="11.141586">
<ele>560.223</ele>
<time>2022-05-27T16:07:35Z</time>
</trkpt>
<trkpt lat="47.83968" lon="11.141563">
<ele>560.223</ele>
<time>2022-05-27T16:07:39Z</time>
</trkpt>
<trkpt lat="47.83968" lon="11.141565">
<ele>560.224</ele>
<time>2022-05-27T16:07:40Z</time>
</trkpt>
<trkpt lat="47.83968" lon="11.141544">
<ele>560.223</ele>
<time>2022-05-27T16:07:42Z</time>
</trkpt>
<trkpt lat="47.839695" lon="11.141539">
<ele>560.223</ele>
<time>2022-05-27T16:07:51Z</time>
</trkpt>
<trkpt lat="47.839699" lon="11.141539">
<ele>560.224</ele>
<time>2022-05-27T16:07:53Z</time>
</trkpt>
<trkpt lat="47.839741" lon="11.141534">
<ele>560.224</ele>
<time>2022-05-27T16:08:47Z</time>
</trkpt>
<trkpt lat="47.839729" lon="11.14152">
<ele>560.224</ele>
<time>2022-05-27T16:08:48Z</time>
</trkpt>
<trkpt lat="47.839729" lon="11.141511">
<ele>560.224</ele>
<time>2022-05-27T16:08:49Z</time>
</trkpt>
<trkpt lat="47.839729" lon="11.141507">
<ele>560.223</ele>
<time>2022-05-27T16:08:50Z</time>
</trkpt>
<trkpt lat="47.839729" lon="11.141499">
<ele>560.223</ele>
<time>2022-05-27T16:08:51Z</time>
</trkpt>
<trkpt lat="47.839722" lon="11.141467">
<ele>560.223</ele>
<time>2022-05-27T16:09:07Z</time>
</trkpt>
<trkpt lat="47.839722" lon="11.141463">
<ele>560.223</ele>
<time>2022-05-27T16:09:08Z</time>
</trkpt>
<trkpt lat="47.839718" lon="11.141465">
<ele>560.224</ele>
<time>2022-05-27T16:09:09Z</time>
</trkpt>
<trkpt lat="47.839718" lon="11.141467">
<ele>560.224</ele>
<time>2022-05-27T16:09:10Z</time>
</trkpt>
<trkpt lat="47.839672" lon="11.141457">
<ele>560.223</ele>
<time>2022-05-27T16:09:57Z</time>
</trkpt>
<trkpt lat="47.839684" lon="11.141465">
<ele>560.223</ele>
<time>2022-05-27T16:09:58Z</time>
</trkpt>
<trkpt lat="47.83968" lon="11.14147">
<ele>560.223</ele>
<time>2022-05-27T16:09:59Z</time>
</trkpt>
<trkpt lat="47.839676" lon="11.141469">
<ele>560.223</ele>
<time>2022-05-27T16:10:00Z</time>
</trkpt>
<trkpt lat="47.839676" lon="11.141467">
<ele>560.224</ele>
<time>2022-05-27T16:10:01Z</time>
</trkpt>
<trkpt lat="47.83968" lon="11.141467">
<ele>560.224</ele>
<time>2022-05-27T16:10:02Z</time>
</trkpt>
<trkpt lat="47.83968" lon="11.141461">
<ele>560.223</ele>
<time>2022-05-27T16:10:06Z</time>
</trkpt>
<trkpt lat="47.83968" lon="11.141459">
<ele>560.224</ele>
<time>2022-05-27T16:10:07Z</time>
</trkpt>
<trkpt lat="47.839687" lon="11.141453">
<ele>560.223</ele>
<time>2022-05-27T16:10:08Z</time>
</trkpt>
<trkpt lat="47.83968" lon="11.141453">
<ele>560.224</ele>
<time>2022-05-27T16:10:09Z</time>
</trkpt>
<trkpt lat="47.839691" lon="11.141452">
<ele>560.223</ele>
<time>2022-05-27T16:10:10Z</time>
</trkpt>
<trkpt lat="47.839684" lon="11.141453">
<ele>560.223</ele>
<time>2022-05-27T16:10:11Z</time>
</trkpt>
<trkpt lat="47.839687" lon="11.14145">
<ele>560.223</ele>
<time>2022-05-27T16:10:12Z</time>
</trkpt>
<trkpt lat="47.839664" lon="11.141415">
<ele>560.224</ele>
<time>2022-05-27T16:10:41Z</time>
</trkpt>
<trkpt lat="47.839661" lon="11.141413">
<ele>560.223</ele>
<time>2022-05-27T16:10:42Z</time>
</trkpt>
<trkpt lat="47.839661" lon="11.141412">
<ele>560.224</ele>
<time>2022-05-27T16:10:43Z</time>
</trkpt>
<trkpt lat="47.839653" lon="11.141412">
<ele>560.223</ele>
<time>2022-05-27T16:10:44Z</time>
</trkpt>
<trkpt lat="47.839634" lon="11.141406">
<ele>560.224</ele>
<time>2022-05-27T16:10:58Z</time>
</trkpt>
<trkpt lat="47.839645" lon="11.1414">
<ele>560.223</ele>
<time>2022-05-27T16:10:59Z</time>
</trkpt>
<trkpt lat="47.839634" lon="11.1414">
<ele>560.224</ele>
<time>2022-05-27T16:11:01Z</time>
</trkpt>
<trkpt lat="47.83963" lon="11.141408">
<ele>560.223</ele>
<time>2022-05-27T16:11:06Z</time>
</trkpt>
<trkpt lat="47.839634" lon="11.141406">
<ele>560.223</ele>
<time>2022-05-27T16:11:07Z</time>
</trkpt>
<trkpt lat="47.83963" lon="11.1414">
<ele>560.224</ele>
<time>2022-05-27T16:11:08Z</time>
</trkpt>
<trkpt lat="47.83963" lon="11.141402">
<ele>560.223</ele>
<time>2022-05-27T16:11:09Z</time>
</trkpt>
<trkpt lat="47.839642" lon="11.141404">
<ele>560.223</ele>
<time>2022-05-27T16:11:18Z</time>
</trkpt>
<trkpt lat="47.839649" lon="11.141412">
<ele>560.223</ele>
<time>2022-05-27T16:11:19Z</time>
</trkpt>
<trkpt lat="47.839645" lon="11.141408">
<ele>560.223</ele>
<time>2022-05-27T16:11:20Z</time>
</trkpt>
<trkpt lat="47.839649" lon="11.141404">
<ele>560.223</ele>
<time>2022-05-27T16:11:21Z</time>
</trkpt>
<trkpt lat="47.839645" lon="11.141404">
<ele>560.224</ele>
<time>2022-05-27T16:11:22Z</time>
</trkpt>
<trkpt lat="47.83963" lon="11.141415">
<ele>560.224</ele>
<time>2022-05-27T16:11:27Z</time>
</trkpt>
<trkpt lat="47.83963" lon="11.14142">
<ele>560.223</ele>
<time>2022-05-27T16:11:28Z</time>
</trkpt>
<trkpt lat="47.839634" lon="11.141423">
<ele>560.223</ele>
<time>2022-05-27T16:11:29Z</time>
</trkpt>
<trkpt lat="47.839634" lon="11.141429">
<ele>560.223</ele>
<time>2022-05-27T16:11:30Z</time>
</trkpt>
<trkpt lat="47.839645" lon="11.141441">
<ele>560.223</ele>
<time>2022-05-27T16:11:31Z</time>
</trkpt>
<trkpt lat="47.839661" lon="11.14146">
<ele>560.223</ele>
<time>2022-05-27T16:11:32Z</time>
</trkpt>
<trkpt lat="47.839672" lon="11.141478">
<ele>560.223</ele>
<time>2022-05-27T16:11:33Z</time>
</trkpt>
<trkpt lat="47.839695" lon="11.141417">
<ele>560.223</ele>
<time>2022-05-27T16:11:34Z</time>
</trkpt>
<trkpt lat="47.83971" lon="11.141417">
<ele>560.223</ele>
<time>2022-05-27T16:11:35Z</time>
</trkpt>
<trkpt lat="47.839729" lon="11.14139">
<ele>560.223</ele>
<time>2022-05-27T16:11:36Z</time>
</trkpt>
<trkpt lat="47.839745" lon="11.141385">
<ele>560.223</ele>
<time>2022-05-27T16:11:37Z</time>
</trkpt>
<trkpt lat="47.83976" lon="11.141373">
<ele>560.223</ele>
<time>2022-05-27T16:11:38Z</time>
</trkpt>
<trkpt lat="47.839775" lon="11.141383">
<ele>560.224</ele>
<time>2022-05-27T16:11:39Z</time>
</trkpt>
<trkpt lat="47.839794" lon="11.141385">
<ele>560.223</ele>
<time>2022-05-27T16:11:40Z</time>
</trkpt>
<trkpt lat="47.839817" lon="11.141398">
<ele>560.223</ele>
<time>2022-05-27T16:11:41Z</time>
</trkpt>
<trkpt lat="47.839828" lon="11.141404">
<ele>560.223</ele>
<time>2022-05-27T16:11:42Z</time>
</trkpt>
<trkpt lat="47.839851" lon="11.141418">
<ele>560.223</ele>
<time>2022-05-27T16:11:43Z</time>
</trkpt>
<trkpt lat="47.839867" lon="11.141425">
<ele>560.223</ele>
<time>2022-05-27T16:11:44Z</time>
</trkpt>
<trkpt lat="47.839882" lon="11.14143">
<ele>560.223</ele>
<time>2022-05-27T16:11:45Z</time>
</trkpt>
<trkpt lat="47.839897" lon="11.141437">
<ele>560.224</ele>
<time>2022-05-27T16:11:46Z</time>
</trkpt>
<trkpt lat="47.839916" lon="11.141446">
<ele>560.223</ele>
<time>2022-05-27T16:11:47Z</time>
</trkpt>
<trkpt lat="47.839939" lon="11.141427">
<ele>560.223</ele>
<time>2022-05-27T16:11:48Z</time>
</trkpt>
<trkpt lat="47.839943" lon="11.141432">
<ele>560.223</ele>
<time>2022-05-27T16:11:49Z</time>
</trkpt>
<trkpt lat="47.839958" lon="11.141441">
<ele>560.223</ele>
<time>2022-05-27T16:11:50Z</time>
</trkpt>
<trkpt lat="47.83997" lon="11.14145">
<ele>560.223</ele>
<time>2022-05-27T16:11:51Z</time>
</trkpt>
<trkpt lat="47.839989" lon="11.141463">
<ele>560.223</ele>
<time>2022-05-27T16:11:52Z</time>
</trkpt>
<trkpt lat="47.839996" lon="11.141477">
<ele>560.223</ele>
<time>2022-05-27T16:11:53Z</time>
</trkpt>
<trkpt lat="47.840012" lon="11.141486">
<ele>560.223</ele>
<time>2022-05-27T16:11:54Z</time>
</trkpt>
<trkpt lat="47.840027" lon="11.141494">
<ele>560.224</ele>
<time>2022-05-27T16:11:55Z</time>
</trkpt>
<trkpt lat="47.840046" lon="11.141499">
<ele>560.223</ele>
<time>2022-05-27T16:11:56Z</time>
</trkpt>
<trkpt lat="47.840065" lon="11.141511">
<ele>560.224</ele>
<time>2022-05-27T16:11:57Z</time>
</trkpt>
<trkpt lat="47.840088" lon="11.14152">
<ele>560.224</ele>
<time>2022-05-27T16:11:58Z</time>
</trkpt>
<trkpt lat="47.840107" lon="11.141525">
<ele>560.223</ele>
<time>2022-05-27T16:11:59Z</time>
</trkpt>
<trkpt lat="47.840118" lon="11.141532">
<ele>560.224</ele>
<time>2022-05-27T16:12:00Z</time>
</trkpt>
<trkpt lat="47.840137" lon="11.14155">
<ele>560.223</ele>
<time>2022-05-27T16:12:01Z</time>
</trkpt>
<trkpt lat="47.84016" lon="11.141565">
<ele>560.223</ele>
<time>2022-05-27T16:12:02Z</time>
</trkpt>
<trkpt lat="47.840176" lon="11.141574">
<ele>560.223</ele>
<time>2022-05-27T16:12:03Z</time>
</trkpt>
<trkpt lat="47.840179" lon="11.141577">
<ele>560.223</ele>
<time>2022-05-27T16:12:04Z</time>
</trkpt>
<trkpt lat="47.840195" lon="11.141592">
<ele>560.224</ele>
<time>2022-05-27T16:12:05Z</time>
</trkpt>
<trkpt lat="47.840214" lon="11.141597">
<ele>560.224</ele>
<time>2022-05-27T16:12:06Z</time>
</trkpt>
<trkpt lat="47.840229" lon="11.141607">
<ele>560.223</ele>
<time>2022-05-27T16:12:07Z</time>
</trkpt>
<trkpt lat="47.840237" lon="11.141622">
<ele>560.224</ele>
<time>2022-05-27T16:12:08Z</time>
</trkpt>
<trkpt lat="47.840244" lon="11.141645">
<ele>560.223</ele>
<time>2022-05-27T16:12:09Z</time>
</trkpt>
<trkpt lat="47.840248" lon="11.141657">
<ele>560.223</ele>
<time>2022-05-27T16:12:10Z</time>
</trkpt>
<trkpt lat="47.840252" lon="11.141658">
<ele>560.223</ele>
<time>2022-05-27T16:12:11Z</time>
</trkpt>
<trkpt lat="47.840263" lon="11.14166">
<ele>560.223</ele>
<time>2022-05-27T16:12:12Z</time>
</trkpt>
<trkpt lat="47.840279" lon="11.141658">
<ele>560.223</ele>
<time>2022-05-27T16:12:13Z</time>
</trkpt>
<trkpt lat="47.840282" lon="11.141665">
<ele>560.224</ele>
<time>2022-05-27T16:12:14Z</time>
</trkpt>
<trkpt lat="47.840309" lon="11.141662">
<ele>560.223</ele>
<time>2022-05-27T16:12:15Z</time>
</trkpt>
<trkpt lat="47.840328" lon="11.141666">
<ele>560.224</ele>
<time>2022-05-27T16:12:16Z</time>
</trkpt>
<trkpt lat="47.840347" lon="11.141672">
<ele>560.223</ele>
<time>2022-05-27T16:12:17Z</time>
</trkpt>
<trkpt lat="47.840355" lon="11.141647">
<ele>560.223</ele>
<time>2022-05-27T16:12:18Z</time>
</trkpt>
<trkpt lat="47.84037" lon="11.141645">
<ele>560.223</ele>
<time>2022-05-27T16:12:19Z</time>
</trkpt>
<trkpt lat="47.840389" lon="11.141645">
<ele>560.223</ele>
<time>2022-05-27T16:12:20Z</time>
</trkpt>
<trkpt lat="47.840412" lon="11.141649">
<ele>560.224</ele>
<time>2022-05-27T16:12:21Z</time>
</trkpt>
<trkpt lat="47.840435" lon="11.141668">
<ele>560.223</ele>
<time>2022-05-27T16:12:22Z</time>
</trkpt>
<trkpt lat="47.840462" lon="11.141706">
<ele>560.223</ele>
<time>2022-05-27T16:12:23Z</time>
</trkpt>
<trkpt lat="47.840496" lon="11.141728">
<ele>560.223</ele>
<time>2022-05-27T16:12:24Z</time>
</trkpt>
<trkpt lat="47.840511" lon="11.141762">
<ele>560.223</ele>
<time>2022-05-27T16:12:25Z</time>
</trkpt>
<trkpt lat="47.840534" lon="11.141782">
<ele>560.223</ele>
<time>2022-05-27T16:12:26Z</time>
</trkpt>
<trkpt lat="47.840542" lon="11.141804">
<ele>560.223</ele>
<time>2022-05-27T16:12:27Z</time>
</trkpt>
<trkpt lat="47.840534" lon="11.141828">
<ele>560.223</ele>
<time>2022-05-27T16:12:28Z</time>
</trkpt>
<trkpt lat="47.840549" lon="11.14182">
<ele>560.223</ele>
<time>2022-05-27T16:12:29Z</time>
</trkpt>
<trkpt lat="47.840561" lon="11.141827">
<ele>560.223</ele>
<time>2022-05-27T16:12:30Z</time>
</trkpt>
<trkpt lat="47.840572" lon="11.141831">
<ele>560.223</ele>
<time>2022-05-27T16:12:31Z</time>
</trkpt>
<trkpt lat="47.84058" lon="11.141838">
<ele>560.223</ele>
<time>2022-05-27T16:12:32Z</time>
</trkpt>
<trkpt lat="47.840595" lon="11.141849">
<ele>560.223</ele>
<time>2022-05-27T16:12:33Z</time>
</trkpt>
<trkpt lat="47.840611" lon="11.141858">
<ele>560.224</ele>
<time>2022-05-27T16:12:34Z</time>
</trkpt>
<trkpt lat="47.840618" lon="11.141867">
<ele>560.223</ele>
<time>2022-05-27T16:12:35Z</time>
</trkpt>
<trkpt lat="47.840637" lon="11.14187">
<ele>560.223</ele>
<time>2022-05-27T16:12:36Z</time>
</trkpt>
<trkpt lat="47.84066" lon="11.141887">
<ele>560.223</ele>
<time>2022-05-27T16:12:37Z</time>
</trkpt>
<trkpt lat="47.840675" lon="11.141892">
<ele>560.223</ele>
<time>2022-05-27T16:12:38Z</time>
</trkpt>
<trkpt lat="47.840679" lon="11.141907">
<ele>560.224</ele>
<time>2022-05-27T16:12:39Z</time>
</trkpt>
<trkpt lat="47.840702" lon="11.141917">
<ele>560.223</ele>
<time>2022-05-27T16:12:40Z</time>
</trkpt>
<trkpt lat="47.840717" lon="11.141926">
<ele>560.223</ele>
<time>2022-05-27T16:12:41Z</time>
</trkpt>
<trkpt lat="47.840733" lon="11.14194">
<ele>560.223</ele>
<time>2022-05-27T16:12:42Z</time>
</trkpt>
<trkpt lat="47.840748" lon="11.141949">
<ele>560.223</ele>
<time>2022-05-27T16:12:43Z</time>
</trkpt>
<trkpt lat="47.840771" lon="11.141955">
<ele>560.224</ele>
<time>2022-05-27T16:12:44Z</time>
</trkpt>
<trkpt lat="47.84079" lon="11.141965">
<ele>560.223</ele>
<time>2022-05-27T16:12:45Z</time>
</trkpt>
<trkpt lat="47.840809" lon="11.14198">
<ele>560.223</ele>
<time>2022-05-27T16:12:46Z</time>
</trkpt>
<trkpt lat="47.840832" lon="11.141991">
<ele>560.522</ele>
<time>2022-05-27T16:12:47Z</time>
</trkpt>
<trkpt lat="47.840839" lon="11.141994">
<ele>560.72</ele>
<time>2022-05-27T16:12:48Z</time>
</trkpt>
<trkpt lat="47.840843" lon="11.141997">
<ele>560.878</ele>
<time>2022-05-27T16:12:49Z</time>
</trkpt>
<trkpt lat="47.840858" lon="11.141999">
<ele>561</ele>
<time>2022-05-27T16:12:50Z</time>
</trkpt>
<trkpt lat="47.840866" lon="11.142003">
<ele>561.088</ele>
<time>2022-05-27T16:12:51Z</time>
</trkpt>
<trkpt lat="47.840878" lon="11.142023">
<ele>561.176</ele>
<time>2022-05-27T16:12:54Z</time>
</trkpt>
<trkpt lat="47.840881" lon="11.142027">
<ele>561.235</ele>
<time>2022-05-27T16:12:55Z</time>
</trkpt>
<trkpt lat="47.840881" lon="11.142036">
<ele>561.272</ele>
<time>2022-05-27T16:12:56Z</time>
</trkpt>
<trkpt lat="47.840881" lon="11.142052">
<ele>561.272</ele>
<time>2022-05-27T16:12:57Z</time>
</trkpt>
<trkpt lat="47.840923" lon="11.142035">
<ele>561.272</ele>
<time>2022-05-27T16:13:08Z</time>
</trkpt>
<trkpt lat="47.840919" lon="11.142027">
<ele>561.272</ele>
<time>2022-05-27T16:13:09Z</time>
</trkpt>
<trkpt lat="47.840923" lon="11.142025">
<ele>561.272</ele>
<time>2022-05-27T16:13:11Z</time>
</trkpt>
<trkpt lat="47.840927" lon="11.142033">
<ele>561.272</ele>
<time>2022-05-27T16:13:14Z</time>
</trkpt>
<trkpt lat="47.840927" lon="11.142032">
<ele>561.272</ele>
<time>2022-05-27T16:13:15Z</time>
</trkpt>
<trkpt lat="47.840931" lon="11.142025">
<ele>561.272</ele>
<time>2022-05-27T16:13:16Z</time>
</trkpt>
<trkpt lat="47.840927" lon="11.142038">
<ele>561.272</ele>
<time>2022-05-27T16:13:17Z</time>
</trkpt>
<trkpt lat="47.840927" lon="11.142032">
<ele>561.272</ele>
<time>2022-05-27T16:13:18Z</time>
</trkpt>
<trkpt lat="47.840923" lon="11.142029">
<ele>561.272</ele>
<time>2022-05-27T16:13:19Z</time>
</trkpt>
<trkpt lat="47.840927" lon="11.142032">
<ele>561.272</ele>
<time>2022-05-27T16:13:20Z</time>
</trkpt>
<trkpt lat="47.840927" lon="11.142033">
<ele>561.272</ele>
<time>2022-05-27T16:13:21Z</time>
</trkpt>
<trkpt lat="47.840927" lon="11.142035">
<ele>561.272</ele>
<time>2022-05-27T16:13:22Z</time>
</trkpt>
<trkpt lat="47.840931" lon="11.142038">
<ele>561.272</ele>
<time>2022-05-27T16:13:23Z</time>
</trkpt>
<trkpt lat="47.840935" lon="11.142045">
<ele>561.272</ele>
<time>2022-05-27T16:13:26Z</time>
</trkpt>
<trkpt lat="47.840935" lon="11.142043">
<ele>561.272</ele>
<time>2022-05-27T16:13:27Z</time>
</trkpt>
<trkpt lat="47.840935" lon="11.14205">
<ele>561.272</ele>
<time>2022-05-27T16:13:28Z</time>
</trkpt>
<trkpt lat="47.840935" lon="11.142038">
<ele>561.272</ele>
<time>2022-05-27T16:13:29Z</time>
</trkpt>
<trkpt lat="47.840942" lon="11.142048">
<ele>561.272</ele>
<time>2022-05-27T16:13:36Z</time>
</trkpt>
<trkpt lat="47.840939" lon="11.142045">
<ele>561.272</ele>
<time>2022-05-27T16:13:37Z</time>
</trkpt>
<trkpt lat="47.840939" lon="11.142038">
<ele>561.272</ele>
<time>2022-05-27T16:13:38Z</time>
</trkpt>
<trkpt lat="47.840939" lon="11.142033">
<ele>561.272</ele>
<time>2022-05-27T16:13:39Z</time>
</trkpt>
<trkpt lat="47.840942" lon="11.142029">
<ele>561.272</ele>
<time>2022-05-27T16:13:40Z</time>
</trkpt>
<trkpt lat="47.840942" lon="11.142023">
<ele>561.272</ele>
<time>2022-05-27T16:13:41Z</time>
</trkpt>
<trkpt lat="47.840954" lon="11.142022">
<ele>561.272</ele>
<time>2022-05-27T16:13:51Z</time>
</trkpt>
<trkpt lat="47.840958" lon="11.142025">
<ele>561.272</ele>
<time>2022-05-27T16:13:52Z</time>
</trkpt>
<trkpt lat="47.840969" lon="11.142041">
<ele>561.272</ele>
<time>2022-05-27T16:13:53Z</time>
</trkpt>
<trkpt lat="47.840984" lon="11.142056">
<ele>561.272</ele>
<time>2022-05-27T16:13:54Z</time>
</trkpt>
<trkpt lat="47.841" lon="11.142068">
<ele>561.272</ele>
<time>2022-05-27T16:13:55Z</time>
</trkpt>
<trkpt lat="47.841011" lon="11.142085">
<ele>561.272</ele>
<time>2022-05-27T16:13:56Z</time>
</trkpt>
<trkpt lat="47.84103" lon="11.142105">
<ele>561.272</ele>
<time>2022-05-27T16:13:57Z</time>
</trkpt>
<trkpt lat="47.841049" lon="11.142127">
<ele>561.272</ele>
<time>2022-05-27T16:13:58Z</time>
</trkpt>
<trkpt lat="47.841072" lon="11.142145">
<ele>561.272</ele>
<time>2022-05-27T16:13:59Z</time>
</trkpt>
<trkpt lat="47.841103" lon="11.142167">
<ele>561.272</ele>
<time>2022-05-27T16:14:00Z</time>
</trkpt>
<trkpt lat="47.841137" lon="11.142185">
<ele>561.272</ele>
<time>2022-05-27T16:14:01Z</time>
</trkpt>
<trkpt lat="47.841167" lon="11.142205">
<ele>561.272</ele>
<time>2022-05-27T16:14:02Z</time>
</trkpt>
<trkpt lat="47.841198" lon="11.142225">
<ele>561.272</ele>
<time>2022-05-27T16:14:03Z</time>
</trkpt>
<trkpt lat="47.841232" lon="11.142243">
<ele>561.272</ele>
<time>2022-05-27T16:14:04Z</time>
</trkpt>
<trkpt lat="47.841267" lon="11.142268">
<ele>561.272</ele>
<time>2022-05-27T16:14:05Z</time>
</trkpt>
<trkpt lat="47.841301" lon="11.142283">
<ele>560.985</ele>
<time>2022-05-27T16:14:06Z</time>
</trkpt>
<trkpt lat="47.841335" lon="11.142283">
<ele>560.781</ele>
<time>2022-05-27T16:14:07Z</time>
</trkpt>
<trkpt lat="47.84137" lon="11.142282">
<ele>560.632</ele>
<time>2022-05-27T16:14:08Z</time>
</trkpt>
<trkpt lat="47.841396" lon="11.142295">
<ele>560.515</ele>
<time>2022-05-27T16:14:09Z</time>
</trkpt>
<trkpt lat="47.841434" lon="11.142309">
<ele>560.433</ele>
<time>2022-05-27T16:14:10Z</time>
</trkpt>
<trkpt lat="47.841469" lon="11.142326">
<ele>560.376</ele>
<time>2022-05-27T16:14:11Z</time>
</trkpt>
<trkpt lat="47.841499" lon="11.142344">
<ele>560.339</ele>
<time>2022-05-27T16:14:12Z</time>
</trkpt>
<trkpt lat="47.84153" lon="11.142362">
<ele>560.311</ele>
<time>2022-05-27T16:14:13Z</time>
</trkpt>
<trkpt lat="47.84156" lon="11.142377">
<ele>560.311</ele>
<time>2022-05-27T16:14:14Z</time>
</trkpt>
<trkpt lat="47.841591" lon="11.142393">
<ele>560.311</ele>
<time>2022-05-27T16:14:15Z</time>
</trkpt>
<trkpt lat="47.841621" lon="11.142408">
<ele>560.311</ele>
<time>2022-05-27T16:14:16Z</time>
</trkpt>
<trkpt lat="47.841648" lon="11.142416">
<ele>560.311</ele>
<time>2022-05-27T16:14:17Z</time>
</trkpt>
<trkpt lat="47.84166" lon="11.142423">
<ele>560.311</ele>
<time>2022-05-27T16:14:18Z</time>
</trkpt>
<trkpt lat="47.841686" lon="11.142426">
<ele>560.311</ele>
<time>2022-05-27T16:14:19Z</time>
</trkpt>
<trkpt lat="47.841709" lon="11.142418">
<ele>560.311</ele>
<time>2022-05-27T16:14:20Z</time>
</trkpt>
<trkpt lat="47.841736" lon="11.1424">
<ele>560.311</ele>
<time>2022-05-27T16:14:21Z</time>
</trkpt>
<trkpt lat="47.841793" lon="11.142366">
<ele>560.311</ele>
<time>2022-05-27T16:14:22Z</time>
</trkpt>
<trkpt lat="47.841816" lon="11.142332">
<ele>560.311</ele>
<time>2022-05-27T16:14:23Z</time>
</trkpt>
<trkpt lat="47.841862" lon="11.142292">
<ele>560.311</ele>
<time>2022-05-27T16:14:24Z</time>
</trkpt>
<trkpt lat="47.841888" lon="11.142257">
<ele>560.311</ele>
<time>2022-05-27T16:14:25Z</time>
</trkpt>
<trkpt lat="47.841911" lon="11.142211">
<ele>560.311</ele>
<time>2022-05-27T16:14:26Z</time>
</trkpt>
<trkpt lat="47.841919" lon="11.142173">
<ele>560.311</ele>
<time>2022-05-27T16:14:27Z</time>
</trkpt>
<trkpt lat="47.841946" lon="11.142137">
<ele>560.311</ele>
<time>2022-05-27T16:14:28Z</time>
</trkpt>
<trkpt lat="47.841969" lon="11.142083">
<ele>560.311</ele>
<time>2022-05-27T16:14:29Z</time>
</trkpt>
<trkpt lat="47.841988" lon="11.142029">
<ele>560.311</ele>
<time>2022-05-27T16:14:30Z</time>
</trkpt>
<trkpt lat="47.842003" lon="11.141968">
<ele>560.311</ele>
<time>2022-05-27T16:14:31Z</time>
</trkpt>
<trkpt lat="47.842018" lon="11.14191">
<ele>560.311</ele>
<time>2022-05-27T16:14:32Z</time>
</trkpt>
<trkpt lat="47.842037" lon="11.141845">
<ele>560.311</ele>
<time>2022-05-27T16:14:33Z</time>
</trkpt>
<trkpt lat="47.842056" lon="11.141784">
<ele>560.311</ele>
<time>2022-05-27T16:14:34Z</time>
</trkpt>
<trkpt lat="47.842072" lon="11.141717">
<ele>560.311</ele>
<time>2022-05-27T16:14:35Z</time>
</trkpt>
<trkpt lat="47.842079" lon="11.141637">
<ele>560.025</ele>
<time>2022-05-27T16:14:36Z</time>
</trkpt>
<trkpt lat="47.842098" lon="11.141553">
<ele>559.814</ele>
<time>2022-05-27T16:14:37Z</time>
</trkpt>
<trkpt lat="47.842098" lon="11.141494">
<ele>559.655</ele>
<time>2022-05-27T16:14:38Z</time>
</trkpt>
<trkpt lat="47.842106" lon="11.141423">
<ele>559.544</ele>
<time>2022-05-27T16:14:39Z</time>
</trkpt>
<trkpt lat="47.842121" lon="11.141339">
<ele>559.466</ele>
<time>2022-05-27T16:14:40Z</time>
</trkpt>
<trkpt lat="47.842159" lon="11.141266">
<ele>559.426</ele>
<time>2022-05-27T16:14:41Z</time>
</trkpt>
<trkpt lat="47.842182" lon="11.141173">
<ele>559.172</ele>
<time>2022-05-27T16:14:42Z</time>
</trkpt>
<trkpt lat="47.842205" lon="11.14107">
<ele>558.955</ele>
<time>2022-05-27T16:14:43Z</time>
</trkpt>
<trkpt lat="47.842228" lon="11.140966">
<ele>558.8</ele>
<time>2022-05-27T16:14:44Z</time>
</trkpt>
<trkpt lat="47.842243" lon="11.14086">
<ele>558.676</ele>
<time>2022-05-27T16:14:45Z</time>
</trkpt>
<trkpt lat="47.842266" lon="11.140744">
<ele>558.594</ele>
<time>2022-05-27T16:14:46Z</time>
</trkpt>
<trkpt lat="47.842285" lon="11.14063">
<ele>558.256</ele>
<time>2022-05-27T16:14:47Z</time>
</trkpt>
<trkpt lat="47.842319" lon="11.140501">
<ele>558.041</ele>
<time>2022-05-27T16:14:48Z</time>
</trkpt>
<trkpt lat="47.842369" lon="11.140382">
<ele>557.556</ele>
<time>2022-05-27T16:14:49Z</time>
</trkpt>
<trkpt lat="47.842403" lon="11.140256">
<ele>557.215</ele>
<time>2022-05-27T16:14:50Z</time>
</trkpt>
<trkpt lat="47.842426" lon="11.140143">
<ele>556.698</ele>
<time>2022-05-27T16:14:51Z</time>
</trkpt>
<trkpt lat="47.842453" lon="11.140035">
<ele>556.315</ele>
<time>2022-05-27T16:14:52Z</time>
</trkpt>
<trkpt lat="47.842464" lon="11.139932">
<ele>555.982</ele>
<time>2022-05-27T16:14:53Z</time>
</trkpt>
<trkpt lat="47.84248" lon="11.139843">
<ele>555.989</ele>
<time>2022-05-27T16:14:54Z</time>
</trkpt>
<trkpt lat="47.842503" lon="11.139757">
<ele>556.034</ele>
<time>2022-05-27T16:14:55Z</time>
</trkpt>
<trkpt lat="47.842545" lon="11.139684">
<ele>556.098</ele>
<time>2022-05-27T16:14:56Z</time>
</trkpt>
<trkpt lat="47.842571" lon="11.139606">
<ele>556.135</ele>
<time>2022-05-27T16:14:57Z</time>
</trkpt>
<trkpt lat="47.84259" lon="11.139526">
<ele>556.244</ele>
<time>2022-05-27T16:14:58Z</time>
</trkpt>
<trkpt lat="47.842602" lon="11.139452">
<ele>556.343</ele>
<time>2022-05-27T16:14:59Z</time>
</trkpt>
<trkpt lat="47.842625" lon="11.139374">
<ele>556.405</ele>
<time>2022-05-27T16:15:00Z</time>
</trkpt>
<trkpt lat="47.84264" lon="11.139298">
<ele>556.439</ele>
<time>2022-05-27T16:15:01Z</time>
</trkpt>
<trkpt lat="47.842659" lon="11.139227">
<ele>556.467</ele>
<time>2022-05-27T16:15:02Z</time>
</trkpt>
<trkpt lat="47.842678" lon="11.139153">
<ele>556.467</ele>
<time>2022-05-27T16:15:03Z</time>
</trkpt>
<trkpt lat="47.842686" lon="11.139078">
<ele>556.467</ele>
<time>2022-05-27T16:15:04Z</time>
</trkpt>
<trkpt lat="47.842697" lon="11.138999">
<ele>556.467</ele>
<time>2022-05-27T16:15:05Z</time>
</trkpt>
<trkpt lat="47.842716" lon="11.138932">
<ele>556.467</ele>
<time>2022-05-27T16:15:06Z</time>
</trkpt>
<trkpt lat="47.842674" lon="11.138828">
<ele>556.467</ele>
<time>2022-05-27T16:15:08Z</time>
</trkpt>
<trkpt lat="47.842655" lon="11.138665">
<ele>556.467</ele>
<time>2022-05-27T16:15:09Z</time>
</trkpt>
<trkpt lat="47.842659" lon="11.13861">
<ele>556.467</ele>
<time>2022-05-27T16:15:10Z</time>
</trkpt>
<trkpt lat="47.842686" lon="11.138576">
<ele>556.467</ele>
<time>2022-05-27T16:15:11Z</time>
</trkpt>
<trkpt lat="47.842697" lon="11.138525">
<ele>556.467</ele>
<time>2022-05-27T16:15:12Z</time>
</trkpt>
<trkpt lat="47.842701" lon="11.13848">
<ele>556.467</ele>
<time>2022-05-27T16:15:13Z</time>
</trkpt>
<trkpt lat="47.842709" lon="11.138435">
<ele>556.467</ele>
<time>2022-05-27T16:15:14Z</time>
</trkpt>
<trkpt lat="47.842716" lon="11.1384">
<ele>556.218</ele>
<time>2022-05-27T16:15:15Z</time>
</trkpt>
<trkpt lat="47.842724" lon="11.138365">
<ele>555.992</ele>
<time>2022-05-27T16:15:16Z</time>
</trkpt>
<trkpt lat="47.842724" lon="11.138327">
<ele>555.793</ele>
<time>2022-05-27T16:15:18Z</time>
</trkpt>
<trkpt lat="47.842735" lon="11.13829">
<ele>555.554</ele>
<time>2022-05-27T16:15:19Z</time>
</trkpt>
<trkpt lat="47.842747" lon="11.138276">
<ele>555.489</ele>
<time>2022-05-27T16:15:20Z</time>
</trkpt>
<trkpt lat="47.842751" lon="11.138272">
<ele>555.45</ele>
<time>2022-05-27T16:15:21Z</time>
</trkpt>
<trkpt lat="47.842743" lon="11.138272">
<ele>555.419</ele>
<time>2022-05-27T16:15:23Z</time>
</trkpt>
<trkpt lat="47.842731" lon="11.138273">
<ele>555.419</ele>
<time>2022-05-27T16:15:24Z</time>
</trkpt>
<trkpt lat="47.842712" lon="11.138291">
<ele>555.418</ele>
<time>2022-05-27T16:15:38Z</time>
</trkpt>
<trkpt lat="47.842712" lon="11.138304">
<ele>555.419</ele>
<time>2022-05-27T16:15:39Z</time>
</trkpt>
<trkpt lat="47.842712" lon="11.138307">
<ele>555.419</ele>
<time>2022-05-27T16:15:40Z</time>
</trkpt>
<trkpt lat="47.842716" lon="11.138297">
<ele>555.418</ele>
<time>2022-05-27T16:15:41Z</time>
</trkpt>
<trkpt lat="47.84272" lon="11.138282">
<ele>555.419</ele>
<time>2022-05-27T16:15:42Z</time>
</trkpt>
<trkpt lat="47.84272" lon="11.13826">
<ele>555.419</ele>
<time>2022-05-27T16:15:43Z</time>
</trkpt>
<trkpt lat="47.842724" lon="11.138237">
<ele>555.418</ele>
<time>2022-05-27T16:15:44Z</time>
</trkpt>
<trkpt lat="47.842724" lon="11.138201">
<ele>555.418</ele>
<time>2022-05-27T16:15:45Z</time>
</trkpt>
<trkpt lat="47.842716" lon="11.138155">
<ele>555.418</ele>
<time>2022-05-27T16:15:46Z</time>
</trkpt>
<trkpt lat="47.842701" lon="11.138104">
<ele>555.419</ele>
<time>2022-05-27T16:15:47Z</time>
</trkpt>
<trkpt lat="47.842697" lon="11.138046">
<ele>555.418</ele>
<time>2022-05-27T16:15:48Z</time>
</trkpt>
<trkpt lat="47.842697" lon="11.137983">
<ele>555.418</ele>
<time>2022-05-27T16:15:49Z</time>
</trkpt>
<trkpt lat="47.842697" lon="11.137917">
<ele>555.419</ele>
<time>2022-05-27T16:15:50Z</time>
</trkpt>
<trkpt lat="47.842686" lon="11.137847">
<ele>555.419</ele>
<time>2022-05-27T16:15:51Z</time>
</trkpt>
<trkpt lat="47.842682" lon="11.137785">
<ele>555.419</ele>
<time>2022-05-27T16:15:52Z</time>
</trkpt>
<trkpt lat="47.842674" lon="11.137732">
<ele>555.419</ele>
<time>2022-05-27T16:15:53Z</time>
</trkpt>
<trkpt lat="47.84267" lon="11.13768">
<ele>555.419</ele>
<time>2022-05-27T16:15:54Z</time>
</trkpt>
<trkpt lat="47.842663" lon="11.137627">
<ele>555.419</ele>
<time>2022-05-27T16:15:55Z</time>
</trkpt>
<trkpt lat="47.842667" lon="11.137583">
<ele>555.418</ele>
<time>2022-05-27T16:15:56Z</time>
</trkpt>
<trkpt lat="47.842667" lon="11.137549">
<ele>555.418</ele>
<time>2022-05-27T16:15:57Z</time>
</trkpt>
<trkpt lat="47.84267" lon="11.137513">
<ele>555.419</ele>
<time>2022-05-27T16:15:58Z</time>
</trkpt>
<trkpt lat="47.842674" lon="11.13748">
<ele>555.419</ele>
<time>2022-05-27T16:15:59Z</time>
</trkpt>
<trkpt lat="47.842678" lon="11.137448">
<ele>555.418</ele>
<time>2022-05-27T16:16:00Z</time>
</trkpt>
<trkpt lat="47.842682" lon="11.137417">
<ele>555.418</ele>
<time>2022-05-27T16:16:01Z</time>
</trkpt>
<trkpt lat="47.842682" lon="11.137388">
<ele>555.646</ele>
<time>2022-05-27T16:16:02Z</time>
</trkpt>
<trkpt lat="47.842682" lon="11.137357">
<ele>555.842</ele>
<time>2022-05-27T16:16:03Z</time>
</trkpt>
<trkpt lat="47.842678" lon="11.137319">
<ele>556.002</ele>
<time>2022-05-27T16:16:04Z</time>
</trkpt>
<trkpt lat="47.842663" lon="11.13728">
<ele>556.134</ele>
<time>2022-05-27T16:16:05Z</time>
</trkpt>
<trkpt lat="47.842632" lon="11.137248">
<ele>556.213</ele>
<time>2022-05-27T16:16:06Z</time>
</trkpt>
<trkpt lat="47.842606" lon="11.137212">
<ele>556.593</ele>
<time>2022-05-27T16:16:07Z</time>
</trkpt>
<trkpt lat="47.842571" lon="11.137174">
<ele>556.888</ele>
<time>2022-05-27T16:16:08Z</time>
</trkpt>
<trkpt lat="47.842537" lon="11.137138">
<ele>557.092</ele>
<time>2022-05-27T16:16:09Z</time>
</trkpt>
<trkpt lat="47.842499" lon="11.137109">
<ele>557.226</ele>
<time>2022-05-27T16:16:10Z</time>
</trkpt>
<trkpt lat="47.842464" lon="11.13708">
<ele>557.079</ele>
<time>2022-05-27T16:16:11Z</time>
</trkpt>
<trkpt lat="47.842422" lon="11.137049">
<ele>556.957</ele>
<time>2022-05-27T16:16:12Z</time>
</trkpt>
<trkpt lat="47.842388" lon="11.137019">
<ele>556.854</ele>
<time>2022-05-27T16:16:13Z</time>
</trkpt>
<trkpt lat="47.84235" lon="11.136994">
<ele>556.763</ele>
<time>2022-05-27T16:16:14Z</time>
</trkpt>
<trkpt lat="47.842308" lon="11.136971">
<ele>556.701</ele>
<time>2022-05-27T16:16:15Z</time>
</trkpt>
<trkpt lat="47.84227" lon="11.13695">
<ele>556.625</ele>
<time>2022-05-27T16:16:16Z</time>
</trkpt>
<trkpt lat="47.842232" lon="11.13693">
<ele>556.543</ele>
<time>2022-05-27T16:16:17Z</time>
</trkpt>
<trkpt lat="47.842194" lon="11.136913">
<ele>556.493</ele>
<time>2022-05-27T16:16:18Z</time>
</trkpt>
<trkpt lat="47.842163" lon="11.136895">
<ele>556.241</ele>
<time>2022-05-27T16:16:19Z</time>
</trkpt>
<trkpt lat="47.84214" lon="11.136868">
<ele>555.985</ele>
<time>2022-05-27T16:16:20Z</time>
</trkpt>
<trkpt lat="47.842121" lon="11.136832">
<ele>555.826</ele>
<time>2022-05-27T16:16:21Z</time>
</trkpt>
<trkpt lat="47.84211" lon="11.13679">
<ele>555.707</ele>
<time>2022-05-27T16:16:22Z</time>
</trkpt>
<trkpt lat="47.842102" lon="11.136751">
<ele>555.623</ele>
<time>2022-05-27T16:16:23Z</time>
</trkpt>
<trkpt lat="47.84211" lon="11.136718">
<ele>555.567</ele>
<time>2022-05-27T16:16:24Z</time>
</trkpt>
<trkpt lat="47.842117" lon="11.136697">
<ele>555.539</ele>
<time>2022-05-27T16:16:25Z</time>
</trkpt>
<trkpt lat="47.842136" lon="11.13669">
<ele>555.311</ele>
<time>2022-05-27T16:16:26Z</time>
</trkpt>
<trkpt lat="47.842163" lon="11.136693">
<ele>555.133</ele>
<time>2022-05-27T16:16:27Z</time>
</trkpt>
<trkpt lat="47.84219" lon="11.136703">
<ele>554.744</ele>
<time>2022-05-27T16:16:28Z</time>
</trkpt>
<trkpt lat="47.842213" lon="11.136718">
<ele>554.409</ele>
<time>2022-05-27T16:16:29Z</time>
</trkpt>
<trkpt lat="47.842239" lon="11.136734">
<ele>554.128</ele>
<time>2022-05-27T16:16:30Z</time>
</trkpt>
<trkpt lat="47.842274" lon="11.136748">
<ele>554.118</ele>
<time>2022-05-27T16:16:31Z</time>
</trkpt>
<trkpt lat="47.842316" lon="11.136762">
<ele>554.159</ele>
<time>2022-05-27T16:16:32Z</time>
</trkpt>
<trkpt lat="47.842354" lon="11.136778">
<ele>554.229</ele>
<time>2022-05-27T16:16:33Z</time>
</trkpt>
<trkpt lat="47.842396" lon="11.136797">
<ele>554.075</ele>
<time>2022-05-27T16:16:34Z</time>
</trkpt>
<trkpt lat="47.84243" lon="11.136808">
<ele>553.974</ele>
<time>2022-05-27T16:16:35Z</time>
</trkpt>
<trkpt lat="47.842461" lon="11.136824">
<ele>553.915</ele>
<time>2022-05-27T16:16:36Z</time>
</trkpt>
<trkpt lat="47.842484" lon="11.136833">
<ele>553.835</ele>
<time>2022-05-27T16:16:37Z</time>
</trkpt>
<trkpt lat="47.842506" lon="11.136844">
<ele>553.772</ele>
<time>2022-05-27T16:16:38Z</time>
</trkpt>
<trkpt lat="47.842545" lon="11.136867">
<ele>553.717</ele>
<time>2022-05-27T16:16:39Z</time>
</trkpt>
<trkpt lat="47.842579" lon="11.136883">
<ele>553.673</ele>
<time>2022-05-27T16:16:40Z</time>
</trkpt>
<trkpt lat="47.842617" lon="11.136904">
<ele>553.385</ele>
<time>2022-05-27T16:16:41Z</time>
</trkpt>
<trkpt lat="47.842655" lon="11.13693">
<ele>553.151</ele>
<time>2022-05-27T16:16:42Z</time>
</trkpt>
<trkpt lat="47.842701" lon="11.136946">
<ele>552.937</ele>
<time>2022-05-27T16:16:43Z</time>
</trkpt>
<trkpt lat="47.842739" lon="11.136954">
<ele>552.819</ele>
<time>2022-05-27T16:16:44Z</time>
</trkpt>
<trkpt lat="47.842789" lon="11.136978">
<ele>552.734</ele>
<time>2022-05-27T16:16:45Z</time>
</trkpt>
<trkpt lat="47.842842" lon="11.136994">
<ele>552.689</ele>
<time>2022-05-27T16:16:46Z</time>
</trkpt>
<trkpt lat="47.842892" lon="11.137015">
<ele>552.649</ele>
<time>2022-05-27T16:16:47Z</time>
</trkpt>
<trkpt lat="47.842934" lon="11.137033">
<ele>552.631</ele>
<time>2022-05-27T16:16:48Z</time>
</trkpt>
<trkpt lat="47.842979" lon="11.137052">
<ele>552.912</ele>
<time>2022-05-27T16:16:49Z</time>
</trkpt>
<trkpt lat="47.843021" lon="11.137074">
<ele>553.124</ele>
<time>2022-05-27T16:16:50Z</time>
</trkpt>
<trkpt lat="47.843067" lon="11.137092">
<ele>553.282</ele>
<time>2022-05-27T16:16:51Z</time>
</trkpt>
<trkpt lat="47.843109" lon="11.137109">
<ele>553.38</ele>
<time>2022-05-27T16:16:52Z</time>
</trkpt>
<trkpt lat="47.843155" lon="11.137122">
<ele>553.681</ele>
<time>2022-05-27T16:16:53Z</time>
</trkpt>
<trkpt lat="47.843193" lon="11.137136">
<ele>553.882</ele>
<time>2022-05-27T16:16:54Z</time>
</trkpt>
<trkpt lat="47.843231" lon="11.13715">
<ele>554.311</ele>
<time>2022-05-27T16:16:55Z</time>
</trkpt>
<trkpt lat="47.843277" lon="11.137161">
<ele>554.646</ele>
<time>2022-05-27T16:16:56Z</time>
</trkpt>
<trkpt lat="47.843315" lon="11.137174">
<ele>554.927</ele>
<time>2022-05-27T16:16:57Z</time>
</trkpt>
<trkpt lat="47.843365" lon="11.137183">
<ele>555.149</ele>
<time>2022-05-27T16:16:58Z</time>
</trkpt>
<trkpt lat="47.84341" lon="11.137191">
<ele>555.317</ele>
<time>2022-05-27T16:16:59Z</time>
</trkpt>
<trkpt lat="47.843449" lon="11.137197">
<ele>555.424</ele>
<time>2022-05-27T16:17:00Z</time>
</trkpt>
<trkpt lat="47.843491" lon="11.137199">
<ele>555.479</ele>
<time>2022-05-27T16:17:01Z</time>
</trkpt>
<trkpt lat="47.843533" lon="11.137207">
<ele>555.506</ele>
<time>2022-05-27T16:17:02Z</time>
</trkpt>
<trkpt lat="47.843575" lon="11.137212">
<ele>555.506</ele>
<time>2022-05-27T16:17:03Z</time>
</trkpt>
<trkpt lat="47.843609" lon="11.137218">
<ele>555.506</ele>
<time>2022-05-27T16:17:04Z</time>
</trkpt>
<trkpt lat="47.843647" lon="11.13723">
<ele>555.506</ele>
<time>2022-05-27T16:17:05Z</time>
</trkpt>
<trkpt lat="47.843678" lon="11.137237">
<ele>555.3</ele>
<time>2022-05-27T16:17:06Z</time>
</trkpt>
<trkpt lat="47.843712" lon="11.137235">
<ele>555.105</ele>
<time>2022-05-27T16:17:07Z</time>
</trkpt>
<trkpt lat="47.843742" lon="11.137235">
<ele>554.941</ele>
<time>2022-05-27T16:17:08Z</time>
</trkpt>
<trkpt lat="47.843773" lon="11.137233">
<ele>554.807</ele>
<time>2022-05-27T16:17:09Z</time>
</trkpt>
<trkpt lat="47.8438" lon="11.137228">
<ele>554.704</ele>
<time>2022-05-27T16:17:10Z</time>
</trkpt>
<trkpt lat="47.843834" lon="11.137225">
<ele>554.623</ele>
<time>2022-05-27T16:17:11Z</time>
</trkpt>
<trkpt lat="47.843868" lon="11.13723">
<ele>554.57</ele>
<time>2022-05-27T16:17:12Z</time>
</trkpt>
<trkpt lat="47.843903" lon="11.137239">
<ele>554.545</ele>
<time>2022-05-27T16:17:13Z</time>
</trkpt>
<trkpt lat="47.843945" lon="11.13725">
<ele>554.545</ele>
<time>2022-05-27T16:17:14Z</time>
</trkpt>
<trkpt lat="47.843983" lon="11.137256">
<ele>554.545</ele>
<time>2022-05-27T16:17:15Z</time>
</trkpt>
<trkpt lat="47.844021" lon="11.13726">
<ele>554.545</ele>
<time>2022-05-27T16:17:16Z</time>
</trkpt>
<trkpt lat="47.844059" lon="11.13726">
<ele>554.545</ele>
<time>2022-05-27T16:17:17Z</time>
</trkpt>
<trkpt lat="47.844112" lon="11.13725">
<ele>554.545</ele>
<time>2022-05-27T16:17:18Z</time>
</trkpt>
<trkpt lat="47.844166" lon="11.137248">
<ele>554.545</ele>
<time>2022-05-27T16:17:19Z</time>
</trkpt>
<trkpt lat="47.844219" lon="11.137245">
<ele>554.545</ele>
<time>2022-05-27T16:17:20Z</time>
</trkpt>
<trkpt lat="47.844265" lon="11.137243">
<ele>554.545</ele>
<time>2022-05-27T16:17:21Z</time>
</trkpt>
<trkpt lat="47.844307" lon="11.137245">
<ele>554.545</ele>
<time>2022-05-27T16:17:22Z</time>
</trkpt>
<trkpt lat="47.844353" lon="11.137239">
<ele>554.545</ele>
<time>2022-05-27T16:17:23Z</time>
</trkpt>
<trkpt lat="47.844391" lon="11.137237">
<ele>554.545</ele>
<time>2022-05-27T16:17:24Z</time>
</trkpt>
<trkpt lat="47.84444" lon="11.137231">
<ele>554.545</ele>
<time>2022-05-27T16:17:25Z</time>
</trkpt>
<trkpt lat="47.84449" lon="11.137223">
<ele>554.545</ele>
<time>2022-05-27T16:17:26Z</time>
</trkpt>
<trkpt lat="47.844551" lon="11.137203">
<ele>554.545</ele>
<time>2022-05-27T16:17:27Z</time>
</trkpt>
<trkpt lat="47.844635" lon="11.137172">
<ele>554.545</ele>
<time>2022-05-27T16:17:28Z</time>
</trkpt>
<trkpt lat="47.844711" lon="11.137136">
<ele>554.197</ele>
<time>2022-05-27T16:17:29Z</time>
</trkpt>
<trkpt lat="47.844784" lon="11.137101">
<ele>553.938</ele>
<time>2022-05-27T16:17:30Z</time>
</trkpt>
<trkpt lat="47.844856" lon="11.137072">
<ele>553.755</ele>
<time>2022-05-27T16:17:31Z</time>
</trkpt>
<trkpt lat="47.844933" lon="11.137049">
<ele>553.633</ele>
<time>2022-05-27T16:17:32Z</time>
</trkpt>
<trkpt lat="47.844997" lon="11.137035">
<ele>553.503</ele>
<time>2022-05-27T16:17:33Z</time>
</trkpt>
<trkpt lat="47.845058" lon="11.137019">
<ele>553.684</ele>
<time>2022-05-27T16:17:34Z</time>
</trkpt>
<trkpt lat="47.845116" lon="11.137003">
<ele>553.836</ele>
<time>2022-05-27T16:17:35Z</time>
</trkpt>
<trkpt lat="47.845173" lon="11.136987">
<ele>553.958</ele>
<time>2022-05-27T16:17:36Z</time>
</trkpt>
<trkpt lat="47.845219" lon="11.136965">
<ele>554.008</ele>
<time>2022-05-27T16:17:37Z</time>
</trkpt>
<trkpt lat="47.845264" lon="11.136946">
<ele>554.155</ele>
<time>2022-05-27T16:17:38Z</time>
</trkpt>
<trkpt lat="47.84531" lon="11.136922">
<ele>554.275</ele>
<time>2022-05-27T16:17:39Z</time>
</trkpt>
<trkpt lat="47.84536" lon="11.136891">
<ele>554.366</ele>
<time>2022-05-27T16:17:40Z</time>
</trkpt>
<trkpt lat="47.845406" lon="11.136858">
<ele>554.429</ele>
<time>2022-05-27T16:17:41Z</time>
</trkpt>
<trkpt lat="47.845463" lon="11.136824">
<ele>554.458</ele>
<time>2022-05-27T16:17:42Z</time>
</trkpt>
<trkpt lat="47.845512" lon="11.136788">
<ele>554.458</ele>
<time>2022-05-27T16:17:43Z</time>
</trkpt>
<trkpt lat="47.845562" lon="11.136753">
<ele>554.723</ele>
<time>2022-05-27T16:17:44Z</time>
</trkpt>
<trkpt lat="47.845608" lon="11.136717">
<ele>554.937</ele>
<time>2022-05-27T16:17:45Z</time>
</trkpt>
<trkpt lat="47.845657" lon="11.136671">
<ele>555.082</ele>
<time>2022-05-27T16:17:46Z</time>
</trkpt>
<trkpt lat="47.845703" lon="11.136623">
<ele>555.014</ele>
<time>2022-05-27T16:17:47Z</time>
</trkpt>
<trkpt lat="47.845757" lon="11.136575">
<ele>554.949</ele>
<time>2022-05-27T16:17:48Z</time>
</trkpt>
<trkpt lat="47.84581" lon="11.136532">
<ele>554.962</ele>
<time>2022-05-27T16:17:49Z</time>
</trkpt>
<trkpt lat="47.845871" lon="11.136489">
<ele>554.541</ele>
<time>2022-05-27T16:17:50Z</time>
</trkpt>
<trkpt lat="47.845932" lon="11.136445">
<ele>554.197</ele>
<time>2022-05-27T16:17:51Z</time>
</trkpt>
<trkpt lat="47.845993" lon="11.136407">
<ele>553.922</ele>
<time>2022-05-27T16:17:52Z</time>
</trkpt>
<trkpt lat="47.846054" lon="11.136375">
<ele>553.743</ele>
<time>2022-05-27T16:17:53Z</time>
</trkpt>
<trkpt lat="47.8461" lon="11.136352">
<ele>553.631</ele>
<time>2022-05-27T16:17:54Z</time>
</trkpt>
<trkpt lat="47.846149" lon="11.136332">
<ele>553.575</ele>
<time>2022-05-27T16:17:55Z</time>
</trkpt>
<trkpt lat="47.846191" lon="11.136315">
<ele>553.527</ele>
<time>2022-05-27T16:17:56Z</time>
</trkpt>
<trkpt lat="47.846237" lon="11.136294">
<ele>553.695</ele>
<time>2022-05-27T16:17:57Z</time>
</trkpt>
<trkpt lat="47.846283" lon="11.136273">
<ele>553.734</ele>
<time>2022-05-27T16:17:58Z</time>
</trkpt>
<trkpt lat="47.846313" lon="11.136249">
<ele>553.923</ele>
<time>2022-05-27T16:17:59Z</time>
</trkpt>
<trkpt lat="47.846352" lon="11.136219">
<ele>554.08</ele>
<time>2022-05-27T16:18:00Z</time>
</trkpt>
<trkpt lat="47.846382" lon="11.136193">
<ele>554.201</ele>
<time>2022-05-27T16:18:01Z</time>
</trkpt>
<trkpt lat="47.84642" lon="11.136165">
<ele>554.29</ele>
<time>2022-05-27T16:18:02Z</time>
</trkpt>
<trkpt lat="47.846458" lon="11.136135">
<ele>554.347</ele>
<time>2022-05-27T16:18:03Z</time>
</trkpt>
<trkpt lat="47.8465" lon="11.1361">
<ele>554.366</ele>
<time>2022-05-27T16:18:04Z</time>
</trkpt>
<trkpt lat="47.846535" lon="11.13607">
<ele>554.37</ele>
<time>2022-05-27T16:18:05Z</time>
</trkpt>
<trkpt lat="47.846577" lon="11.136044">
<ele>554.37</ele>
<time>2022-05-27T16:18:06Z</time>
</trkpt>
<trkpt lat="47.846619" lon="11.136015">
<ele>554.371</ele>
<time>2022-05-27T16:18:07Z</time>
</trkpt>
<trkpt lat="47.846661" lon="11.135974">
<ele>554.371</ele>
<time>2022-05-27T16:18:08Z</time>
</trkpt>
<trkpt lat="47.846706" lon="11.135935">
<ele>554.37</ele>
<time>2022-05-27T16:18:09Z</time>
</trkpt>
<trkpt lat="47.846752" lon="11.135899">
<ele>554.37</ele>
<time>2022-05-27T16:18:10Z</time>
</trkpt>
<trkpt lat="47.846802" lon="11.135865">
<ele>554.37</ele>
<time>2022-05-27T16:18:11Z</time>
</trkpt>
<trkpt lat="47.846851" lon="11.135832">
<ele>554.37</ele>
<time>2022-05-27T16:18:12Z</time>
</trkpt>
<trkpt lat="47.846901" lon="11.135801">
<ele>554.37</ele>
<time>2022-05-27T16:18:13Z</time>
</trkpt>
<trkpt lat="47.846951" lon="11.135772">
<ele>554.37</ele>
<time>2022-05-27T16:18:14Z</time>
</trkpt>
<trkpt lat="47.847" lon="11.135747">
<ele>554.37</ele>
<time>2022-05-27T16:18:15Z</time>
</trkpt>
<trkpt lat="47.847046" lon="11.135722">
<ele>554.37</ele>
<time>2022-05-27T16:18:16Z</time>
</trkpt>
<trkpt lat="47.847103" lon="11.135691">
<ele>554.37</ele>
<time>2022-05-27T16:18:17Z</time>
</trkpt>
<trkpt lat="47.84716" lon="11.135666">
<ele>554.37</ele>
<time>2022-05-27T16:18:18Z</time>
</trkpt>
<trkpt lat="47.847218" lon="11.135649">
<ele>554.371</ele>
<time>2022-05-27T16:18:19Z</time>
</trkpt>
<trkpt lat="47.847267" lon="11.135633">
<ele>554.37</ele>
<time>2022-05-27T16:18:20Z</time>
</trkpt>
<trkpt lat="47.847324" lon="11.13561">
<ele>554.37</ele>
<time>2022-05-27T16:18:21Z</time>
</trkpt>
<trkpt lat="47.847385" lon="11.135584">
<ele>554.37</ele>
<time>2022-05-27T16:18:22Z</time>
</trkpt>
<trkpt lat="47.847439" lon="11.135553">
<ele>554.371</ele>
<time>2022-05-27T16:18:23Z</time>
</trkpt>
<trkpt lat="47.847492" lon="11.135527">
<ele>554.37</ele>
<time>2022-05-27T16:18:24Z</time>
</trkpt>
<trkpt lat="47.847553" lon="11.135507">
<ele>554.37</ele>
<time>2022-05-27T16:18:25Z</time>
</trkpt>
<trkpt lat="47.847607" lon="11.135488">
<ele>554.37</ele>
<time>2022-05-27T16:18:26Z</time>
</trkpt>
<trkpt lat="47.847652" lon="11.13547">
<ele>554.37</ele>
<time>2022-05-27T16:18:27Z</time>
</trkpt>
<trkpt lat="47.847698" lon="11.135447">
<ele>554.37</ele>
<time>2022-05-27T16:18:28Z</time>
</trkpt>
<trkpt lat="47.847736" lon="11.135428">
<ele>554.37</ele>
<time>2022-05-27T16:18:29Z</time>
</trkpt>
<trkpt lat="47.847778" lon="11.13541">
<ele>554.37</ele>
<time>2022-05-27T16:18:30Z</time>
</trkpt>
<trkpt lat="47.847813" lon="11.135386">
<ele>554.37</ele>
<time>2022-05-27T16:18:31Z</time>
</trkpt>
<trkpt lat="47.847855" lon="11.135364">
<ele>554.37</ele>
<time>2022-05-27T16:18:32Z</time>
</trkpt>
<trkpt lat="47.847908" lon="11.135337">
<ele>554.371</ele>
<time>2022-05-27T16:18:33Z</time>
</trkpt>
<trkpt lat="47.847954" lon="11.13531">
<ele>554.37</ele>
<time>2022-05-27T16:18:34Z</time>
</trkpt>
<trkpt lat="47.848007" lon="11.13528">
<ele>554.37</ele>
<time>2022-05-27T16:18:35Z</time>
</trkpt>
<trkpt lat="47.848057" lon="11.13525">
<ele>554.37</ele>
<time>2022-05-27T16:18:36Z</time>
</trkpt>
<trkpt lat="47.848114" lon="11.13522">
<ele>554.37</ele>
<time>2022-05-27T16:18:37Z</time>
</trkpt>
<trkpt lat="47.848167" lon="11.135195">
<ele>554.371</ele>
<time>2022-05-27T16:18:38Z</time>
</trkpt>
<trkpt lat="47.848217" lon="11.135172">
<ele>554.104</ele>
<time>2022-05-27T16:18:39Z</time>
</trkpt>
<trkpt lat="47.84827" lon="11.135144">
<ele>553.912</ele>
<time>2022-05-27T16:18:40Z</time>
</trkpt>
<trkpt lat="47.848324" lon="11.135121">
<ele>553.77</ele>
<time>2022-05-27T16:18:41Z</time>
</trkpt>
<trkpt lat="47.848377" lon="11.135098">
<ele>553.664</ele>
<time>2022-05-27T16:18:42Z</time>
</trkpt>
<trkpt lat="47.848434" lon="11.135077">
<ele>553.59</ele>
<time>2022-05-27T16:18:43Z</time>
</trkpt>
<trkpt lat="47.848488" lon="11.135055">
<ele>553.544</ele>
<time>2022-05-27T16:18:44Z</time>
</trkpt>
<trkpt lat="47.848537" lon="11.135029">
<ele>553.518</ele>
<time>2022-05-27T16:18:45Z</time>
</trkpt>
<trkpt lat="47.848595" lon="11.135005">
<ele>553.497</ele>
<time>2022-05-27T16:18:46Z</time>
</trkpt>
<trkpt lat="47.848652" lon="11.134983">
<ele>553.497</ele>
<time>2022-05-27T16:18:47Z</time>
</trkpt>
<trkpt lat="47.848709" lon="11.134962">
<ele>553.497</ele>
<time>2022-05-27T16:18:48Z</time>
</trkpt>
<trkpt lat="47.848763" lon="11.13494">
<ele>553.497</ele>
<time>2022-05-27T16:18:49Z</time>
</trkpt>
<trkpt lat="47.84882" lon="11.134916">
<ele>553.497</ele>
<time>2022-05-27T16:18:50Z</time>
</trkpt>
<trkpt lat="47.848877" lon="11.1349">
<ele>553.497</ele>
<time>2022-05-27T16:18:51Z</time>
</trkpt>
<trkpt lat="47.848934" lon="11.134892">
<ele>553.497</ele>
<time>2022-05-27T16:18:52Z</time>
</trkpt>
<trkpt lat="47.848991" lon="11.134887">
<ele>553.497</ele>
<time>2022-05-27T16:18:53Z</time>
</trkpt>
<trkpt lat="47.849049" lon="11.134884">
<ele>553.497</ele>
<time>2022-05-27T16:18:54Z</time>
</trkpt>
<trkpt lat="47.849106" lon="11.134885">
<ele>553.497</ele>
<time>2022-05-27T16:18:55Z</time>
</trkpt>
<trkpt lat="47.849163" lon="11.134887">
<ele>553.497</ele>
<time>2022-05-27T16:18:56Z</time>
</trkpt>
<trkpt lat="47.849216" lon="11.134889">
<ele>553.497</ele>
<time>2022-05-27T16:18:57Z</time>
</trkpt>
<trkpt lat="47.849274" lon="11.134898">
<ele>553.497</ele>
<time>2022-05-27T16:18:58Z</time>
</trkpt>
<trkpt lat="47.849316" lon="11.134912">
<ele>553.497</ele>
<time>2022-05-27T16:18:59Z</time>
</trkpt>
<trkpt lat="47.849365" lon="11.134927">
<ele>553.497</ele>
<time>2022-05-27T16:19:00Z</time>
</trkpt>
<trkpt lat="47.849419" lon="11.134938">
<ele>553.497</ele>
<time>2022-05-27T16:19:01Z</time>
</trkpt>
<trkpt lat="47.849476" lon="11.134953">
<ele>553.497</ele>
<time>2022-05-27T16:19:02Z</time>
</trkpt>
<trkpt lat="47.849529" lon="11.134974">
<ele>553.497</ele>
<time>2022-05-27T16:19:03Z</time>
</trkpt>
<trkpt lat="47.849579" lon="11.134997">
<ele>553.497</ele>
<time>2022-05-27T16:19:04Z</time>
</trkpt>
<trkpt lat="47.849632" lon="11.135023">
<ele>553.733</ele>
<time>2022-05-27T16:19:05Z</time>
</trkpt>
<trkpt lat="47.849678" lon="11.135058">
<ele>553.902</ele>
<time>2022-05-27T16:19:06Z</time>
</trkpt>
<trkpt lat="47.849735" lon="11.135102">
<ele>554.078</ele>
<time>2022-05-27T16:19:07Z</time>
</trkpt>
<trkpt lat="47.849789" lon="11.135144">
<ele>554.211</ele>
<time>2022-05-27T16:19:08Z</time>
</trkpt>
<trkpt lat="47.849842" lon="11.13519">
<ele>554.31</ele>
<time>2022-05-27T16:19:09Z</time>
</trkpt>
<trkpt lat="47.849899" lon="11.135226">
<ele>554.385</ele>
<time>2022-05-27T16:19:10Z</time>
</trkpt>
<trkpt lat="47.849949" lon="11.135262">
<ele>554.435</ele>
<time>2022-05-27T16:19:11Z</time>
</trkpt>
<trkpt lat="47.849998" lon="11.135295">
<ele>554.458</ele>
<time>2022-05-27T16:19:12Z</time>
</trkpt>
<trkpt lat="47.850056" lon="11.135324">
<ele>554.458</ele>
<time>2022-05-27T16:19:13Z</time>
</trkpt>
<trkpt lat="47.850101" lon="11.135357">
<ele>554.458</ele>
<time>2022-05-27T16:19:14Z</time>
</trkpt>
<trkpt lat="47.850159" lon="11.135391">
<ele>554.458</ele>
<time>2022-05-27T16:19:15Z</time>
</trkpt>
<trkpt lat="47.850216" lon="11.135433">
<ele>554.458</ele>
<time>2022-05-27T16:19:16Z</time>
</trkpt>
<trkpt lat="47.850273" lon="11.135482">
<ele>554.243</ele>
<time>2022-05-27T16:19:17Z</time>
</trkpt>
<trkpt lat="47.850327" lon="11.135542">
<ele>554.058</ele>
<time>2022-05-27T16:19:18Z</time>
</trkpt>
<trkpt lat="47.850372" lon="11.135613">
<ele>553.908</ele>
<time>2022-05-27T16:19:19Z</time>
</trkpt>
<trkpt lat="47.850422" lon="11.135689">
<ele>553.789</ele>
<time>2022-05-27T16:19:20Z</time>
</trkpt>
<trkpt lat="47.85046" lon="11.13577">
<ele>553.7</ele>
<time>2022-05-27T16:19:21Z</time>
</trkpt>
<trkpt lat="47.850494" lon="11.13585">
<ele>553.638</ele>
<time>2022-05-27T16:19:22Z</time>
</trkpt>
<trkpt lat="47.850521" lon="11.135925">
<ele>553.603</ele>
<time>2022-05-27T16:19:23Z</time>
</trkpt>
<trkpt lat="47.850548" lon="11.135993">
<ele>553.584</ele>
<time>2022-05-27T16:19:24Z</time>
</trkpt>
<trkpt lat="47.850563" lon="11.136058">
<ele>553.584</ele>
<time>2022-05-27T16:19:25Z</time>
</trkpt>
<trkpt lat="47.850586" lon="11.136123">
<ele>553.584</ele>
<time>2022-05-27T16:19:26Z</time>
</trkpt>
<trkpt lat="47.850605" lon="11.136187">
<ele>553.584</ele>
<time>2022-05-27T16:19:27Z</time>
</trkpt>
<trkpt lat="47.85062" lon="11.136249">
<ele>553.82</ele>
<time>2022-05-27T16:19:28Z</time>
</trkpt>
<trkpt lat="47.850639" lon="11.136309">
<ele>554.014</ele>
<time>2022-05-27T16:19:29Z</time>
</trkpt>
<trkpt lat="47.850655" lon="11.136372">
<ele>554.172</ele>
<time>2022-05-27T16:19:30Z</time>
</trkpt>
<trkpt lat="47.850677" lon="11.136435">
<ele>554.295</ele>
<time>2022-05-27T16:19:31Z</time>
</trkpt>
<trkpt lat="47.850697" lon="11.136497">
<ele>554.381</ele>
<time>2022-05-27T16:19:32Z</time>
</trkpt>
<trkpt lat="47.850716" lon="11.13656">
<ele>554.436</ele>
<time>2022-05-27T16:19:33Z</time>
</trkpt>
<trkpt lat="47.850742" lon="11.136623">
<ele>554.458</ele>
<time>2022-05-27T16:19:34Z</time>
</trkpt>
<trkpt lat="47.850773" lon="11.136692">
<ele>554.458</ele>
<time>2022-05-27T16:19:35Z</time>
</trkpt>
<trkpt lat="47.850792" lon="11.136759">
<ele>554.458</ele>
<time>2022-05-27T16:19:36Z</time>
</trkpt>
<trkpt lat="47.850815" lon="11.13682">
<ele>554.458</ele>
<time>2022-05-27T16:19:37Z</time>
</trkpt>
<trkpt lat="47.850845" lon="11.136881">
<ele>554.458</ele>
<time>2022-05-27T16:19:38Z</time>
</trkpt>
<trkpt lat="47.850876" lon="11.13694">
<ele>554.458</ele>
<time>2022-05-27T16:19:39Z</time>
</trkpt>
<trkpt lat="47.850899" lon="11.137">
<ele>554.458</ele>
<time>2022-05-27T16:19:40Z</time>
</trkpt>
<trkpt lat="47.850929" lon="11.137063">
<ele>554.458</ele>
<time>2022-05-27T16:19:41Z</time>
</trkpt>
<trkpt lat="47.850964" lon="11.137126">
<ele>554.458</ele>
<time>2022-05-27T16:19:42Z</time>
</trkpt>
<trkpt lat="47.850994" lon="11.137189">
<ele>554.458</ele>
<time>2022-05-27T16:19:43Z</time>
</trkpt>
<trkpt lat="47.851028" lon="11.137248">
<ele>554.458</ele>
<time>2022-05-27T16:19:44Z</time>
</trkpt>
<trkpt lat="47.851059" lon="11.13731">
<ele>554.458</ele>
<time>2022-05-27T16:19:45Z</time>
</trkpt>
<trkpt lat="47.851093" lon="11.137371">
<ele>554.458</ele>
<time>2022-05-27T16:19:46Z</time>
</trkpt>
<trkpt lat="47.851124" lon="11.137435">
<ele>554.458</ele>
<time>2022-05-27T16:19:47Z</time>
</trkpt>
<trkpt lat="47.851162" lon="11.1375">
<ele>554.458</ele>
<time>2022-05-27T16:19:48Z</time>
</trkpt>
<trkpt lat="47.851192" lon="11.13757">
<ele>554.458</ele>
<time>2022-05-27T16:19:49Z</time>
</trkpt>
<trkpt lat="47.851227" lon="11.137635">
<ele>554.458</ele>
<time>2022-05-27T16:19:50Z</time>
</trkpt>
<trkpt lat="47.851265" lon="11.137696">
<ele>554.217</ele>
<time>2022-05-27T16:19:51Z</time>
</trkpt>
<trkpt lat="47.851303" lon="11.137758">
<ele>554.03</ele>
<time>2022-05-27T16:19:52Z</time>
</trkpt>
<trkpt lat="47.851341" lon="11.137817">
<ele>553.889</ele>
<time>2022-05-27T16:19:53Z</time>
</trkpt>
<trkpt lat="47.851383" lon="11.137872">
<ele>553.783</ele>
<time>2022-05-27T16:19:54Z</time>
</trkpt>
<trkpt lat="47.851429" lon="11.13794">
<ele>553.71</ele>
<time>2022-05-27T16:19:55Z</time>
</trkpt>
<trkpt lat="47.851471" lon="11.137998">
<ele>553.657</ele>
<time>2022-05-27T16:19:56Z</time>
</trkpt>
<trkpt lat="47.851528" lon="11.138055">
<ele>553.608</ele>
<time>2022-05-27T16:19:57Z</time>
</trkpt>
<trkpt lat="47.85157" lon="11.13812">
<ele>553.584</ele>
<time>2022-05-27T16:19:58Z</time>
</trkpt>
<trkpt lat="47.851616" lon="11.13819">
<ele>553.584</ele>
<time>2022-05-27T16:19:59Z</time>
</trkpt>
<trkpt lat="47.851654" lon="11.138253">
<ele>553.584</ele>
<time>2022-05-27T16:20:00Z</time>
</trkpt>
<trkpt lat="47.851692" lon="11.138311">
<ele>553.584</ele>
<time>2022-05-27T16:20:01Z</time>
</trkpt>
<trkpt lat="47.85173" lon="11.138369">
<ele>553.584</ele>
<time>2022-05-27T16:20:02Z</time>
</trkpt>
<trkpt lat="47.851765" lon="11.138427">
<ele>553.822</ele>
<time>2022-05-27T16:20:03Z</time>
</trkpt>
<trkpt lat="47.851803" lon="11.138486">
<ele>554.013</ele>
<time>2022-05-27T16:20:04Z</time>
</trkpt>
<trkpt lat="47.851833" lon="11.138545">
<ele>554.158</ele>
<time>2022-05-27T16:20:05Z</time>
</trkpt>
<trkpt lat="47.851871" lon="11.138603">
<ele>554.264</ele>
<time>2022-05-27T16:20:06Z</time>
</trkpt>
<trkpt lat="47.851913" lon="11.138663">
<ele>554.379</ele>
<time>2022-05-27T16:20:07Z</time>
</trkpt>
<trkpt lat="47.851955" lon="11.138719">
<ele>554.467</ele>
<time>2022-05-27T16:20:08Z</time>
</trkpt>
<trkpt lat="47.85199" lon="11.13877">
<ele>554.52</ele>
<time>2022-05-27T16:20:09Z</time>
</trkpt>
<trkpt lat="47.852028" lon="11.138831">
<ele>554.545</ele>
<time>2022-05-27T16:20:10Z</time>
</trkpt>
<trkpt lat="47.852062" lon="11.138897">
<ele>554.545</ele>
<time>2022-05-27T16:20:11Z</time>
</trkpt>
<trkpt lat="47.852097" lon="11.138962">
<ele>554.545</ele>
<time>2022-05-27T16:20:12Z</time>
</trkpt>
<trkpt lat="47.852131" lon="11.139029">
<ele>554.545</ele>
<time>2022-05-27T16:20:13Z</time>
</trkpt>
<trkpt lat="47.852165" lon="11.139098">
<ele>554.545</ele>
<time>2022-05-27T16:20:14Z</time>
</trkpt>
<trkpt lat="47.852207" lon="11.139172">
<ele>554.545</ele>
<time>2022-05-27T16:20:15Z</time>
</trkpt>
<trkpt lat="47.852242" lon="11.139247">
<ele>554.545</ele>
<time>2022-05-27T16:20:16Z</time>
</trkpt>
<trkpt lat="47.85228" lon="11.139321">
<ele>554.545</ele>
<time>2022-05-27T16:20:17Z</time>
</trkpt>
<trkpt lat="47.852306" lon="11.139403">
<ele>554.545</ele>
<time>2022-05-27T16:20:18Z</time>
</trkpt>
<trkpt lat="47.852333" lon="11.139481">
<ele>554.545</ele>
<time>2022-05-27T16:20:19Z</time>
</trkpt>
<trkpt lat="47.85236" lon="11.139561">
<ele>554.545</ele>
<time>2022-05-27T16:20:20Z</time>
</trkpt>
<trkpt lat="47.852394" lon="11.13964">
<ele>554.545</ele>
<time>2022-05-27T16:20:21Z</time>
</trkpt>
<trkpt lat="47.852428" lon="11.139724">
<ele>554.545</ele>
<time>2022-05-27T16:20:22Z</time>
</trkpt>
<trkpt lat="47.852463" lon="11.139807">
<ele>554.327</ele>
<time>2022-05-27T16:20:23Z</time>
</trkpt>
<trkpt lat="47.852493" lon="11.139888">
<ele>554.153</ele>
<time>2022-05-27T16:20:24Z</time>
</trkpt>
<trkpt lat="47.852524" lon="11.139967">
<ele>554.017</ele>
<time>2022-05-27T16:20:25Z</time>
</trkpt>
<trkpt lat="47.852547" lon="11.140045">
<ele>553.979</ele>
<time>2022-05-27T16:20:26Z</time>
</trkpt>
<trkpt lat="47.852573" lon="11.140124">
<ele>553.839</ele>
<time>2022-05-27T16:20:27Z</time>
</trkpt>
<trkpt lat="47.852608" lon="11.140197">
<ele>553.735</ele>
<time>2022-05-27T16:20:28Z</time>
</trkpt>
<trkpt lat="47.852627" lon="11.14027">
<ele>553.66</ele>
<time>2022-05-27T16:20:30Z</time>
</trkpt>
<trkpt lat="47.852673" lon="11.140433">
<ele>553.584</ele>
<time>2022-05-27T16:20:31Z</time>
</trkpt>
<trkpt lat="47.852699" lon="11.140513">
<ele>553.584</ele>
<time>2022-05-27T16:20:32Z</time>
</trkpt>
<trkpt lat="47.852715" lon="11.140595">
<ele>553.584</ele>
<time>2022-05-27T16:20:33Z</time>
</trkpt>
<trkpt lat="47.852734" lon="11.140676">
<ele>553.584</ele>
<time>2022-05-27T16:20:34Z</time>
</trkpt>
<trkpt lat="47.852745" lon="11.14076">
<ele>553.584</ele>
<time>2022-05-27T16:20:35Z</time>
</trkpt>
<trkpt lat="47.852757" lon="11.140841">
<ele>553.584</ele>
<time>2022-05-27T16:20:36Z</time>
</trkpt>
<trkpt lat="47.852768" lon="11.140912">
<ele>553.584</ele>
<time>2022-05-27T16:20:37Z</time>
</trkpt>
<trkpt lat="47.852776" lon="11.140984">
<ele>553.584</ele>
<time>2022-05-27T16:20:38Z</time>
</trkpt>
<trkpt lat="47.852802" lon="11.141055">
<ele>553.584</ele>
<time>2022-05-27T16:20:39Z</time>
</trkpt>
<trkpt lat="47.852833" lon="11.14112">
<ele>553.584</ele>
<time>2022-05-27T16:20:40Z</time>
</trkpt>
<trkpt lat="47.852867" lon="11.141182">
<ele>553.584</ele>
<time>2022-05-27T16:20:41Z</time>
</trkpt>
<trkpt lat="47.852909" lon="11.14124">
<ele>553.584</ele>
<time>2022-05-27T16:20:42Z</time>
</trkpt>
<trkpt lat="47.852951" lon="11.1413">
<ele>553.584</ele>
<time>2022-05-27T16:20:43Z</time>
</trkpt>
<trkpt lat="47.852993" lon="11.141362">
<ele>553.584</ele>
<time>2022-05-27T16:20:44Z</time>
</trkpt>
<trkpt lat="47.853039" lon="11.14142">
<ele>553.584</ele>
<time>2022-05-27T16:20:45Z</time>
</trkpt>
<trkpt lat="47.853085" lon="11.141481">
<ele>553.584</ele>
<time>2022-05-27T16:20:46Z</time>
</trkpt>
<trkpt lat="47.853127" lon="11.141542">
<ele>553.802</ele>
<time>2022-05-27T16:20:47Z</time>
</trkpt>
<trkpt lat="47.853165" lon="11.14161">
<ele>553.982</ele>
<time>2022-05-27T16:20:48Z</time>
</trkpt>
<trkpt lat="47.853199" lon="11.141681">
<ele>554.127</ele>
<time>2022-05-27T16:20:49Z</time>
</trkpt>
<trkpt lat="47.853237" lon="11.141747">
<ele>554.243</ele>
<time>2022-05-27T16:20:50Z</time>
</trkpt>
<trkpt lat="47.853275" lon="11.141811">
<ele>554.331</ele>
<time>2022-05-27T16:20:51Z</time>
</trkpt>
<trkpt lat="47.853317" lon="11.141873">
<ele>554.396</ele>
<time>2022-05-27T16:20:52Z</time>
</trkpt>
<trkpt lat="47.853355" lon="11.141933">
<ele>554.437</ele>
<time>2022-05-27T16:20:53Z</time>
</trkpt>
<trkpt lat="47.853397" lon="11.141992">
<ele>554.458</ele>
<time>2022-05-27T16:20:54Z</time>
</trkpt>
<trkpt lat="47.853439" lon="11.142054">
<ele>554.458</ele>
<time>2022-05-27T16:20:55Z</time>
</trkpt>
<trkpt lat="47.853481" lon="11.142113">
<ele>554.246</ele>
<time>2022-05-27T16:20:56Z</time>
</trkpt>
<trkpt lat="47.853519" lon="11.142171">
<ele>554.045</ele>
<time>2022-05-27T16:20:57Z</time>
</trkpt>
<trkpt lat="47.853554" lon="11.142223">
<ele>553.879</ele>
<time>2022-05-27T16:20:58Z</time>
</trkpt>
<trkpt lat="47.8536" lon="11.142283">
<ele>553.746</ele>
<time>2022-05-27T16:20:59Z</time>
</trkpt>
<trkpt lat="47.853638" lon="11.142341">
<ele>553.643</ele>
<time>2022-05-27T16:21:00Z</time>
</trkpt>
<trkpt lat="47.853683" lon="11.142395">
<ele>553.568</ele>
<time>2022-05-27T16:21:01Z</time>
</trkpt>
<trkpt lat="47.853725" lon="11.142449">
<ele>553.52</ele>
<time>2022-05-27T16:21:02Z</time>
</trkpt>
<trkpt lat="47.853771" lon="11.142502">
<ele>553.497</ele>
<time>2022-05-27T16:21:03Z</time>
</trkpt>
<trkpt lat="47.853813" lon="11.142554">
<ele>553.497</ele>
<time>2022-05-27T16:21:04Z</time>
</trkpt>
<trkpt lat="47.853859" lon="11.142609">
<ele>553.497</ele>
<time>2022-05-27T16:21:05Z</time>
</trkpt>
<trkpt lat="47.853905" lon="11.142661">
<ele>553.497</ele>
<time>2022-05-27T16:21:06Z</time>
</trkpt>
<trkpt lat="47.853947" lon="11.142712">
<ele>553.497</ele>
<time>2022-05-27T16:21:07Z</time>
</trkpt>
<trkpt lat="47.853992" lon="11.142758">
<ele>553.497</ele>
<time>2022-05-27T16:21:08Z</time>
</trkpt>
<trkpt lat="47.854042" lon="11.142814">
<ele>553.497</ele>
<time>2022-05-27T16:21:09Z</time>
</trkpt>
<trkpt lat="47.854092" lon="11.142873">
<ele>553.497</ele>
<time>2022-05-27T16:21:10Z</time>
</trkpt>
<trkpt lat="47.854137" lon="11.142932">
<ele>553.497</ele>
<time>2022-05-27T16:21:11Z</time>
</trkpt>
<trkpt lat="47.854179" lon="11.142985">
<ele>553.497</ele>
<time>2022-05-27T16:21:12Z</time>
</trkpt>
<trkpt lat="47.854225" lon="11.143035">
<ele>553.497</ele>
<time>2022-05-27T16:21:13Z</time>
</trkpt>
<trkpt lat="47.854267" lon="11.143083">
<ele>553.497</ele>
<time>2022-05-27T16:21:14Z</time>
</trkpt>
<trkpt lat="47.854309" lon="11.143132">
<ele>553.497</ele>
<time>2022-05-27T16:21:15Z</time>
</trkpt>
<trkpt lat="47.854359" lon="11.143179">
<ele>553.497</ele>
<time>2022-05-27T16:21:16Z</time>
</trkpt>
<trkpt lat="47.854401" lon="11.143223">
<ele>553.497</ele>
<time>2022-05-27T16:21:17Z</time>
</trkpt>
<trkpt lat="47.85445" lon="11.143267">
<ele>553.497</ele>
<time>2022-05-27T16:21:18Z</time>
</trkpt>
<trkpt lat="47.854496" lon="11.143305">
<ele>553.497</ele>
<time>2022-05-27T16:21:19Z</time>
</trkpt>
<trkpt lat="47.854546" lon="11.14334">
<ele>553.497</ele>
<time>2022-05-27T16:21:20Z</time>
</trkpt>
<trkpt lat="47.854595" lon="11.14337">
<ele>553.497</ele>
<time>2022-05-27T16:21:21Z</time>
</trkpt>
<trkpt lat="47.854641" lon="11.143398">
<ele>553.497</ele>
<time>2022-05-27T16:21:22Z</time>
</trkpt>
<trkpt lat="47.854694" lon="11.143425">
<ele>553.497</ele>
<time>2022-05-27T16:21:23Z</time>
</trkpt>
<trkpt lat="47.854744" lon="11.143452">
<ele>553.497</ele>
<time>2022-05-27T16:21:24Z</time>
</trkpt>
<trkpt lat="47.854797" lon="11.143476">
<ele>553.752</ele>
<time>2022-05-27T16:21:25Z</time>
</trkpt>
<trkpt lat="47.854851" lon="11.143498">
<ele>553.934</ele>
<time>2022-05-27T16:21:26Z</time>
</trkpt>
<trkpt lat="47.854904" lon="11.14352">
<ele>554.123</ele>
<time>2022-05-27T16:21:27Z</time>
</trkpt>
<trkpt lat="47.854954" lon="11.143539">
<ele>554.183</ele>
<time>2022-05-27T16:21:28Z</time>
</trkpt>
<trkpt lat="47.855007" lon="11.143557">
<ele>554.037</ele>
<time>2022-05-27T16:21:29Z</time>
</trkpt>
<trkpt lat="47.855061" lon="11.143572">
<ele>553.91</ele>
<time>2022-05-27T16:21:30Z</time>
</trkpt>
<trkpt lat="47.855118" lon="11.143587">
<ele>553.795</ele>
<time>2022-05-27T16:21:31Z</time>
</trkpt>
<trkpt lat="47.855179" lon="11.143598">
<ele>553.695</ele>
<time>2022-05-27T16:21:32Z</time>
</trkpt>
<trkpt lat="47.855236" lon="11.143606">
<ele>553.605</ele>
<time>2022-05-27T16:21:33Z</time>
</trkpt>
<trkpt lat="47.855286" lon="11.143613">
<ele>553.548</ele>
<time>2022-05-27T16:21:34Z</time>
</trkpt>
<trkpt lat="47.855343" lon="11.143627">
<ele>553.521</ele>
<time>2022-05-27T16:21:35Z</time>
</trkpt>
<trkpt lat="47.855389" lon="11.14364">
<ele>553.497</ele>
<time>2022-05-27T16:21:36Z</time>
</trkpt>
<trkpt lat="47.855442" lon="11.143648">
<ele>553.497</ele>
<time>2022-05-27T16:21:37Z</time>
</trkpt>
<trkpt lat="47.855492" lon="11.143657">
<ele>553.22</ele>
<time>2022-05-27T16:21:38Z</time>
</trkpt>
<trkpt lat="47.855541" lon="11.143663">
<ele>553.004</ele>
<time>2022-05-27T16:21:39Z</time>
</trkpt>
<trkpt lat="47.855587" lon="11.143668">
<ele>552.835</ele>
<time>2022-05-27T16:21:40Z</time>
</trkpt>
<trkpt lat="47.855637" lon="11.14367">
<ele>552.705</ele>
<time>2022-05-27T16:21:41Z</time>
</trkpt>
<trkpt lat="47.855686" lon="11.143673">
<ele>552.615</ele>
<time>2022-05-27T16:21:42Z</time>
</trkpt>
<trkpt lat="47.855732" lon="11.143675">
<ele>552.561</ele>
<time>2022-05-27T16:21:43Z</time>
</trkpt>
<trkpt lat="47.855778" lon="11.143678">
<ele>552.536</ele>
<time>2022-05-27T16:21:44Z</time>
</trkpt>
<trkpt lat="47.855827" lon="11.143683">
<ele>552.536</ele>
<time>2022-05-27T16:21:45Z</time>
</trkpt>
<trkpt lat="47.855881" lon="11.143692">
<ele>552.536</ele>
<time>2022-05-27T16:21:46Z</time>
</trkpt>
<trkpt lat="47.855934" lon="11.143703">
<ele>552.536</ele>
<time>2022-05-27T16:21:47Z</time>
</trkpt>
<trkpt lat="47.855995" lon="11.143711">
<ele>552.536</ele>
<time>2022-05-27T16:21:48Z</time>
</trkpt>
<trkpt lat="47.856041" lon="11.143722">
<ele>552.536</ele>
<time>2022-05-27T16:21:49Z</time>
</trkpt>
<trkpt lat="47.856094" lon="11.143723">
<ele>552.536</ele>
<time>2022-05-27T16:21:50Z</time>
</trkpt>
<trkpt lat="47.856155" lon="11.143725">
<ele>552.536</ele>
<time>2022-05-27T16:21:51Z</time>
</trkpt>
<trkpt lat="47.856201" lon="11.143723">
<ele>552.536</ele>
<time>2022-05-27T16:21:52Z</time>
</trkpt>
<trkpt lat="47.856258" lon="11.14372">
<ele>552.536</ele>
<time>2022-05-27T16:21:53Z</time>
</trkpt>
<trkpt lat="47.856323" lon="11.143711">
<ele>552.536</ele>
<time>2022-05-27T16:21:54Z</time>
</trkpt>
<trkpt lat="47.856384" lon="11.143704">
<ele>552.536</ele>
<time>2022-05-27T16:21:55Z</time>
</trkpt>
<trkpt lat="47.856441" lon="11.143697">
<ele>552.536</ele>
<time>2022-05-27T16:21:56Z</time>
</trkpt>
<trkpt lat="47.856491" lon="11.143678">
<ele>552.536</ele>
<time>2022-05-27T16:21:57Z</time>
</trkpt>
<trkpt lat="47.856548" lon="11.143663">
<ele>552.8</ele>
<time>2022-05-27T16:21:58Z</time>
</trkpt>
<trkpt lat="47.856602" lon="11.143652">
<ele>553.002</ele>
<time>2022-05-27T16:21:59Z</time>
</trkpt>
<trkpt lat="47.856655" lon="11.143635">
<ele>553.156</ele>
<time>2022-05-27T16:22:00Z</time>
</trkpt>
<trkpt lat="47.856712" lon="11.14362">
<ele>553.118</ele>
<time>2022-05-27T16:22:01Z</time>
</trkpt>
<trkpt lat="47.856762" lon="11.143604">
<ele>553.195</ele>
<time>2022-05-27T16:22:02Z</time>
</trkpt>
<trkpt lat="47.856812" lon="11.143587">
<ele>553.243</ele>
<time>2022-05-27T16:22:03Z</time>
</trkpt>
<trkpt lat="47.85685" lon="11.143575">
<ele>553.269</ele>
<time>2022-05-27T16:22:04Z</time>
</trkpt>
<trkpt lat="47.856884" lon="11.143564">
<ele>553.273</ele>
<time>2022-05-27T16:22:05Z</time>
</trkpt>
<trkpt lat="47.856926" lon="11.143556">
<ele>553.262</ele>
<time>2022-05-27T16:22:06Z</time>
</trkpt>
<trkpt lat="47.856976" lon="11.143543">
<ele>553.249</ele>
<time>2022-05-27T16:22:07Z</time>
</trkpt>
<trkpt lat="47.857018" lon="11.143539">
<ele>553.24</ele>
<time>2022-05-27T16:22:08Z</time>
</trkpt>
<trkpt lat="47.857056" lon="11.143523">
<ele>553.235</ele>
<time>2022-05-27T16:22:09Z</time>
</trkpt>
<trkpt lat="47.857105" lon="11.143499">
<ele>553.235</ele>
<time>2022-05-27T16:22:10Z</time>
</trkpt>
<trkpt lat="47.857147" lon="11.143476">
<ele>553.235</ele>
<time>2022-05-27T16:22:11Z</time>
</trkpt>
<trkpt lat="47.857197" lon="11.143456">
<ele>553.235</ele>
<time>2022-05-27T16:22:12Z</time>
</trkpt>
<trkpt lat="47.857243" lon="11.143434">
<ele>553.235</ele>
<time>2022-05-27T16:22:13Z</time>
</trkpt>
<trkpt lat="47.857304" lon="11.143412">
<ele>553.235</ele>
<time>2022-05-27T16:22:14Z</time>
</trkpt>
<trkpt lat="47.857365" lon="11.143392">
<ele>553.235</ele>
<time>2022-05-27T16:22:15Z</time>
</trkpt>
<trkpt lat="47.857414" lon="11.14337">
<ele>553.235</ele>
<time>2022-05-27T16:22:16Z</time>
</trkpt>
<trkpt lat="47.857464" lon="11.143345">
<ele>553.235</ele>
<time>2022-05-27T16:22:17Z</time>
</trkpt>
<trkpt lat="47.85751" lon="11.143323">
<ele>553.235</ele>
<time>2022-05-27T16:22:18Z</time>
</trkpt>
<trkpt lat="47.857559" lon="11.143298">
<ele>553.235</ele>
<time>2022-05-27T16:22:19Z</time>
</trkpt>
<trkpt lat="47.857605" lon="11.143271">
<ele>553.235</ele>
<time>2022-05-27T16:22:20Z</time>
</trkpt>
<trkpt lat="47.857655" lon="11.143246">
<ele>553.235</ele>
<time>2022-05-27T16:22:21Z</time>
</trkpt>
<trkpt lat="47.857697" lon="11.143218">
<ele>553.235</ele>
<time>2022-05-27T16:22:22Z</time>
</trkpt>
<trkpt lat="47.857746" lon="11.143195">
<ele>553.235</ele>
<time>2022-05-27T16:22:23Z</time>
</trkpt>
<trkpt lat="47.857792" lon="11.143172">
<ele>553.235</ele>
<time>2022-05-27T16:22:24Z</time>
</trkpt>
<trkpt lat="47.857838" lon="11.143146">
<ele>553.235</ele>
<time>2022-05-27T16:22:25Z</time>
</trkpt>
<trkpt lat="47.857891" lon="11.143118">
<ele>553.235</ele>
<time>2022-05-27T16:22:26Z</time>
</trkpt>
<trkpt lat="47.857944" lon="11.143085">
<ele>553.02</ele>
<time>2022-05-27T16:22:27Z</time>
</trkpt>
<trkpt lat="47.857998" lon="11.14306">
<ele>552.839</ele>
<time>2022-05-27T16:22:28Z</time>
</trkpt>
<trkpt lat="47.858051" lon="11.143026">
<ele>552.687</ele>
<time>2022-05-27T16:22:29Z</time>
</trkpt>
<trkpt lat="47.858082" lon="11.14298">
<ele>552.572</ele>
<time>2022-05-27T16:22:30Z</time>
</trkpt>
<trkpt lat="47.858128" lon="11.142936">
<ele>552.483</ele>
<time>2022-05-27T16:22:31Z</time>
</trkpt>
<trkpt lat="47.858177" lon="11.142892">
<ele>552.419</ele>
<time>2022-05-27T16:22:32Z</time>
</trkpt>
<trkpt lat="47.858215" lon="11.142859">
<ele>552.38</ele>
<time>2022-05-27T16:22:33Z</time>
</trkpt>
<trkpt lat="47.85828" lon="11.142833">
<ele>552.361</ele>
<time>2022-05-27T16:22:34Z</time>
</trkpt>
<trkpt lat="47.858341" lon="11.142812">
<ele>552.362</ele>
<time>2022-05-27T16:22:35Z</time>
</trkpt>
<trkpt lat="47.858391" lon="11.142787">
<ele>552.362</ele>
<time>2022-05-27T16:22:36Z</time>
</trkpt>
<trkpt lat="47.858437" lon="11.142762">
<ele>552.362</ele>
<time>2022-05-27T16:22:37Z</time>
</trkpt>
<trkpt lat="47.858475" lon="11.14272">
<ele>552.362</ele>
<time>2022-05-27T16:22:38Z</time>
</trkpt>
<trkpt lat="47.858521" lon="11.1427">
<ele>552.362</ele>
<time>2022-05-27T16:22:39Z</time>
</trkpt>
<trkpt lat="47.858559" lon="11.142665">
<ele>552.362</ele>
<time>2022-05-27T16:22:40Z</time>
</trkpt>
<trkpt lat="47.858604" lon="11.142625">
<ele>552.361</ele>
<time>2022-05-27T16:22:41Z</time>
</trkpt>
<trkpt lat="47.858646" lon="11.142589">
<ele>552.362</ele>
<time>2022-05-27T16:22:42Z</time>
</trkpt>
<trkpt lat="47.858704" lon="11.142554">
<ele>552.362</ele>
<time>2022-05-27T16:22:43Z</time>
</trkpt>
<trkpt lat="47.858753" lon="11.142521">
<ele>552.362</ele>
<time>2022-05-27T16:22:44Z</time>
</trkpt>
<trkpt lat="47.858799" lon="11.142496">
<ele>552.362</ele>
<time>2022-05-27T16:22:45Z</time>
</trkpt>
<trkpt lat="47.858845" lon="11.142472">
<ele>552.124</ele>
<time>2022-05-27T16:22:46Z</time>
</trkpt>
<trkpt lat="47.858894" lon="11.14244">
<ele>551.9</ele>
<time>2022-05-27T16:22:47Z</time>
</trkpt>
<trkpt lat="47.858959" lon="11.142414">
<ele>551.932</ele>
<time>2022-05-27T16:22:48Z</time>
</trkpt>
<trkpt lat="47.859013" lon="11.142391">
<ele>551.967</ele>
<time>2022-05-27T16:22:49Z</time>
</trkpt>
<trkpt lat="47.859062" lon="11.142368">
<ele>552.001</ele>
<time>2022-05-27T16:22:50Z</time>
</trkpt>
<trkpt lat="47.859116" lon="11.142342">
<ele>552.035</ele>
<time>2022-05-27T16:22:51Z</time>
</trkpt>
<trkpt lat="47.859173" lon="11.142322">
<ele>552.073</ele>
<time>2022-05-27T16:22:52Z</time>
</trkpt>
<trkpt lat="47.859222" lon="11.142307">
<ele>552.113</ele>
<time>2022-05-27T16:22:53Z</time>
</trkpt>
<trkpt lat="47.859264" lon="11.14229">
<ele>552.148</ele>
<time>2022-05-27T16:22:54Z</time>
</trkpt>
<trkpt lat="47.859318" lon="11.142278">
<ele>552.169</ele>
<time>2022-05-27T16:22:55Z</time>
</trkpt>
<trkpt lat="47.859364" lon="11.142268">
<ele>552.187</ele>
<time>2022-05-27T16:22:56Z</time>
</trkpt>
<trkpt lat="47.859406" lon="11.142255">
<ele>552.187</ele>
<time>2022-05-27T16:22:57Z</time>
</trkpt>
<trkpt lat="47.859451" lon="11.142244">
<ele>551.939</ele>
<time>2022-05-27T16:22:58Z</time>
</trkpt>
<trkpt lat="47.859489" lon="11.14223">
<ele>551.744</ele>
<time>2022-05-27T16:22:59Z</time>
</trkpt>
<trkpt lat="47.859539" lon="11.142213">
<ele>551.59</ele>
<time>2022-05-27T16:23:00Z</time>
</trkpt>
<trkpt lat="47.859592" lon="11.142195">
<ele>551.463</ele>
<time>2022-05-27T16:23:01Z</time>
</trkpt>
<trkpt lat="47.85965" lon="11.142179">
<ele>551.383</ele>
<time>2022-05-27T16:23:02Z</time>
</trkpt>
<trkpt lat="47.859699" lon="11.142167">
<ele>551.336</ele>
<time>2022-05-27T16:23:03Z</time>
</trkpt>
<trkpt lat="47.859749" lon="11.142148">
<ele>551.314</ele>
<time>2022-05-27T16:23:04Z</time>
</trkpt>
<trkpt lat="47.859798" lon="11.14213">
<ele>551.314</ele>
<time>2022-05-27T16:23:05Z</time>
</trkpt>
<trkpt lat="47.859844" lon="11.142115">
<ele>551.314</ele>
<time>2022-05-27T16:23:06Z</time>
</trkpt>
<trkpt lat="47.859882" lon="11.1421">
<ele>551.314</ele>
<time>2022-05-27T16:23:07Z</time>
</trkpt>
<trkpt lat="47.859932" lon="11.142092">
<ele>551.314</ele>
<time>2022-05-27T16:23:08Z</time>
</trkpt>
<trkpt lat="47.859974" lon="11.142087">
<ele>551.314</ele>
<time>2022-05-27T16:23:09Z</time>
</trkpt>
<trkpt lat="47.860023" lon="11.142073">
<ele>551.314</ele>
<time>2022-05-27T16:23:10Z</time>
</trkpt>
<trkpt lat="47.860073" lon="11.142066">
<ele>551.314</ele>
<time>2022-05-27T16:23:11Z</time>
</trkpt>
<trkpt lat="47.860123" lon="11.142056">
<ele>551.314</ele>
<time>2022-05-27T16:23:12Z</time>
</trkpt>
<trkpt lat="47.860168" lon="11.14205">
<ele>551.314</ele>
<time>2022-05-27T16:23:13Z</time>
</trkpt>
<trkpt lat="47.860214" lon="11.142048">
<ele>551.314</ele>
<time>2022-05-27T16:23:14Z</time>
</trkpt>
<trkpt lat="47.860252" lon="11.142047">
<ele>551.314</ele>
<time>2022-05-27T16:23:15Z</time>
</trkpt>
<trkpt lat="47.860291" lon="11.142047">
<ele>551.314</ele>
<time>2022-05-27T16:23:16Z</time>
</trkpt>
<trkpt lat="47.860332" lon="11.14204">
<ele>551.314</ele>
<time>2022-05-27T16:23:17Z</time>
</trkpt>
<trkpt lat="47.860382" lon="11.142036">
<ele>551.314</ele>
<time>2022-05-27T16:23:18Z</time>
</trkpt>
<trkpt lat="47.860432" lon="11.142036">
<ele>551.314</ele>
<time>2022-05-27T16:23:19Z</time>
</trkpt>
<trkpt lat="47.860474" lon="11.14204">
<ele>551.314</ele>
<time>2022-05-27T16:23:20Z</time>
</trkpt>
<trkpt lat="47.860504" lon="11.142045">
<ele>551.314</ele>
<time>2022-05-27T16:23:21Z</time>
</trkpt>
<trkpt lat="47.860538" lon="11.14205">
<ele>551.314</ele>
<time>2022-05-27T16:23:22Z</time>
</trkpt>
<trkpt lat="47.860565" lon="11.142058">
<ele>551.314</ele>
<time>2022-05-27T16:23:23Z</time>
</trkpt>
<trkpt lat="47.860592" lon="11.142064">
<ele>551.314</ele>
<time>2022-05-27T16:23:24Z</time>
</trkpt>
<trkpt lat="47.860611" lon="11.142065">
<ele>551.314</ele>
<time>2022-05-27T16:23:25Z</time>
</trkpt>
<trkpt lat="47.860634" lon="11.142072">
<ele>551.314</ele>
<time>2022-05-27T16:23:26Z</time>
</trkpt>
<trkpt lat="47.860668" lon="11.142073">
<ele>551.314</ele>
<time>2022-05-27T16:23:27Z</time>
</trkpt>
<trkpt lat="47.860699" lon="11.142073">
<ele>551.555</ele>
<time>2022-05-27T16:23:28Z</time>
</trkpt>
<trkpt lat="47.860733" lon="11.142066">
<ele>551.765</ele>
<time>2022-05-27T16:23:29Z</time>
</trkpt>
<trkpt lat="47.860771" lon="11.142054">
<ele>551.929</ele>
<time>2022-05-27T16:23:30Z</time>
</trkpt>
<trkpt lat="47.860809" lon="11.142038">
<ele>552.049</ele>
<time>2022-05-27T16:23:31Z</time>
</trkpt>
<trkpt lat="47.860851" lon="11.142023">
<ele>552.131</ele>
<time>2022-05-27T16:23:32Z</time>
</trkpt>
<trkpt lat="47.860893" lon="11.142014">
<ele>552.166</ele>
<time>2022-05-27T16:23:33Z</time>
</trkpt>
<trkpt lat="47.86095" lon="11.142014">
<ele>552.187</ele>
<time>2022-05-27T16:23:34Z</time>
</trkpt>
<trkpt lat="47.861004" lon="11.14202">
<ele>552.187</ele>
<time>2022-05-27T16:23:35Z</time>
</trkpt>
<trkpt lat="47.861057" lon="11.142031">
<ele>552.187</ele>
<time>2022-05-27T16:23:36Z</time>
</trkpt>
<trkpt lat="47.861111" lon="11.142038">
<ele>552.187</ele>
<time>2022-05-27T16:23:37Z</time>
</trkpt>
<trkpt lat="47.86116" lon="11.142047">
<ele>552.187</ele>
<time>2022-05-27T16:23:38Z</time>
</trkpt>
<trkpt lat="47.861214" lon="11.142056">
<ele>552.187</ele>
<time>2022-05-27T16:23:39Z</time>
</trkpt>
<trkpt lat="47.861267" lon="11.142068">
<ele>552.187</ele>
<time>2022-05-27T16:23:40Z</time>
</trkpt>
<trkpt lat="47.861317" lon="11.142081">
<ele>552.187</ele>
<time>2022-05-27T16:23:41Z</time>
</trkpt>
<trkpt lat="47.86137" lon="11.142094">
<ele>552.187</ele>
<time>2022-05-27T16:23:42Z</time>
</trkpt>
<trkpt lat="47.861416" lon="11.142105">
<ele>552.187</ele>
<time>2022-05-27T16:23:43Z</time>
</trkpt>
<trkpt lat="47.861469" lon="11.142118">
<ele>552.187</ele>
<time>2022-05-27T16:23:44Z</time>
</trkpt>
<trkpt lat="47.861519" lon="11.142132">
<ele>552.187</ele>
<time>2022-05-27T16:23:45Z</time>
</trkpt>
<trkpt lat="47.861568" lon="11.142143">
<ele>552.187</ele>
<time>2022-05-27T16:23:46Z</time>
</trkpt>
<trkpt lat="47.861618" lon="11.142157">
<ele>552.187</ele>
<time>2022-05-27T16:23:47Z</time>
</trkpt>
<trkpt lat="47.861668" lon="11.14217">
<ele>552.187</ele>
<time>2022-05-27T16:23:48Z</time>
</trkpt>
<trkpt lat="47.861713" lon="11.142188">
<ele>552.187</ele>
<time>2022-05-27T16:23:49Z</time>
</trkpt>
<trkpt lat="47.861759" lon="11.142206">
<ele>551.921</ele>
<time>2022-05-27T16:23:50Z</time>
</trkpt>
<trkpt lat="47.861801" lon="11.142228">
<ele>551.713</ele>
<time>2022-05-27T16:23:51Z</time>
</trkpt>
<trkpt lat="47.861843" lon="11.14225">
<ele>551.556</ele>
<time>2022-05-27T16:23:52Z</time>
</trkpt>
<trkpt lat="47.861885" lon="11.142274">
<ele>551.44</ele>
<time>2022-05-27T16:23:53Z</time>
</trkpt>
<trkpt lat="47.861931" lon="11.142299">
<ele>551.356</ele>
<time>2022-05-27T16:23:54Z</time>
</trkpt>
<trkpt lat="47.861969" lon="11.142322">
<ele>551.311</ele>
<time>2022-05-27T16:23:55Z</time>
</trkpt>
<trkpt lat="47.862011" lon="11.142348">
<ele>551.064</ele>
<time>2022-05-27T16:23:56Z</time>
</trkpt>
<trkpt lat="47.862049" lon="11.142372">
<ele>550.854</ele>
<time>2022-05-27T16:23:57Z</time>
</trkpt>
<trkpt lat="47.862091" lon="11.142393">
<ele>550.703</ele>
<time>2022-05-27T16:23:58Z</time>
</trkpt>
<trkpt lat="47.862125" lon="11.142414">
<ele>550.582</ele>
<time>2022-05-27T16:23:59Z</time>
</trkpt>
<trkpt lat="47.86216" lon="11.142435">
<ele>550.486</ele>
<time>2022-05-27T16:24:00Z</time>
</trkpt>
<trkpt lat="47.86219" lon="11.142449">
<ele>550.421</ele>
<time>2022-05-27T16:24:01Z</time>
</trkpt>
<trkpt lat="47.862225" lon="11.142464">
<ele>550.377</ele>
<time>2022-05-27T16:24:02Z</time>
</trkpt>
<trkpt lat="47.862263" lon="11.142488">
<ele>550.354</ele>
<time>2022-05-27T16:24:03Z</time>
</trkpt>
<trkpt lat="47.862309" lon="11.142515">
<ele>550.354</ele>
<time>2022-05-27T16:24:04Z</time>
</trkpt>
<trkpt lat="47.862358" lon="11.142545">
<ele>550.11</ele>
<time>2022-05-27T16:24:05Z</time>
</trkpt>
<trkpt lat="47.862408" lon="11.142573">
<ele>549.94</ele>
<time>2022-05-27T16:24:06Z</time>
</trkpt>
<trkpt lat="47.862461" lon="11.142598">
<ele>549.754</ele>
<time>2022-05-27T16:24:07Z</time>
</trkpt>
<trkpt lat="47.862514" lon="11.142618">
<ele>549.613</ele>
<time>2022-05-27T16:24:08Z</time>
</trkpt>
<trkpt lat="47.86256" lon="11.142649">
<ele>549.511</ele>
<time>2022-05-27T16:24:09Z</time>
</trkpt>
<trkpt lat="47.86261" lon="11.14268">
<ele>549.449</ele>
<time>2022-05-27T16:24:10Z</time>
</trkpt>
<trkpt lat="47.862652" lon="11.142714">
<ele>549.413</ele>
<time>2022-05-27T16:24:11Z</time>
</trkpt>
<trkpt lat="47.862701" lon="11.142743">
<ele>549.393</ele>
<time>2022-05-27T16:24:12Z</time>
</trkpt>
<trkpt lat="47.862751" lon="11.142775">
<ele>549.393</ele>
<time>2022-05-27T16:24:13Z</time>
</trkpt>
<trkpt lat="47.862804" lon="11.142808">
<ele>549.393</ele>
<time>2022-05-27T16:24:14Z</time>
</trkpt>
<trkpt lat="47.862854" lon="11.142841">
<ele>549.393</ele>
<time>2022-05-27T16:24:15Z</time>
</trkpt>
<trkpt lat="47.862907" lon="11.142877">
<ele>549.393</ele>
<time>2022-05-27T16:24:16Z</time>
</trkpt>
<trkpt lat="47.862965" lon="11.142913">
<ele>549.635</ele>
<time>2022-05-27T16:24:17Z</time>
</trkpt>
<trkpt lat="47.863018" lon="11.142953">
<ele>549.835</ele>
<time>2022-05-27T16:24:18Z</time>
</trkpt>
<trkpt lat="47.863071" lon="11.142997">
<ele>549.998</ele>
<time>2022-05-27T16:24:19Z</time>
</trkpt>
<trkpt lat="47.863121" lon="11.143041">
<ele>550.123</ele>
<time>2022-05-27T16:24:20Z</time>
</trkpt>
<trkpt lat="47.863171" lon="11.143082">
<ele>550.218</ele>
<time>2022-05-27T16:24:21Z</time>
</trkpt>
<trkpt lat="47.86322" lon="11.143122">
<ele>550.287</ele>
<time>2022-05-27T16:24:22Z</time>
</trkpt>
<trkpt lat="47.863266" lon="11.143162">
<ele>550.332</ele>
<time>2022-05-27T16:24:23Z</time>
</trkpt>
<trkpt lat="47.863308" lon="11.143204">
<ele>550.354</ele>
<time>2022-05-27T16:24:24Z</time>
</trkpt>
<trkpt lat="47.863361" lon="11.143244">
<ele>550.561</ele>
<time>2022-05-27T16:24:25Z</time>
</trkpt>
<trkpt lat="47.863403" lon="11.143285">
<ele>550.71</ele>
<time>2022-05-27T16:24:26Z</time>
</trkpt>
<trkpt lat="47.863453" lon="11.143323">
<ele>550.754</ele>
<time>2022-05-27T16:24:27Z</time>
</trkpt>
<trkpt lat="47.863499" lon="11.14336">
<ele>550.646</ele>
<time>2022-05-27T16:24:28Z</time>
</trkpt>
<trkpt lat="47.863556" lon="11.143396">
<ele>550.552</ele>
<time>2022-05-27T16:24:29Z</time>
</trkpt>
<trkpt lat="47.863605" lon="11.143436">
<ele>550.727</ele>
<time>2022-05-27T16:24:30Z</time>
</trkpt>
<trkpt lat="47.863655" lon="11.14348">
<ele>550.856</ele>
<time>2022-05-27T16:24:31Z</time>
</trkpt>
<trkpt lat="47.863705" lon="11.143523">
<ele>550.951</ele>
<time>2022-05-27T16:24:32Z</time>
</trkpt>
<trkpt lat="47.863754" lon="11.143564">
<ele>551.015</ele>
<time>2022-05-27T16:24:33Z</time>
</trkpt>
<trkpt lat="47.8638" lon="11.143601">
<ele>550.882</ele>
<time>2022-05-27T16:24:34Z</time>
</trkpt>
<trkpt lat="47.86385" lon="11.143641">
<ele>550.783</ele>
<time>2022-05-27T16:24:35Z</time>
</trkpt>
<trkpt lat="47.863895" lon="11.14368">
<ele>550.662</ele>
<time>2022-05-27T16:24:36Z</time>
</trkpt>
<trkpt lat="47.863937" lon="11.143715">
<ele>550.6</ele>
<time>2022-05-27T16:24:37Z</time>
</trkpt>
<trkpt lat="47.863976" lon="11.143755">
<ele>550.538</ele>
<time>2022-05-27T16:24:38Z</time>
</trkpt>
<trkpt lat="47.864017" lon="11.143802">
<ele>550.494</ele>
<time>2022-05-27T16:24:39Z</time>
</trkpt>
<trkpt lat="47.864067" lon="11.143849">
<ele>550.422</ele>
<time>2022-05-27T16:24:40Z</time>
</trkpt>
<trkpt lat="47.864124" lon="11.143893">
<ele>550.376</ele>
<time>2022-05-27T16:24:41Z</time>
</trkpt>
<trkpt lat="47.864178" lon="11.143937">
<ele>550.354</ele>
<time>2022-05-27T16:24:42Z</time>
</trkpt>
<trkpt lat="47.864239" lon="11.143979">
<ele>550.354</ele>
<time>2022-05-27T16:24:43Z</time>
</trkpt>
<trkpt lat="47.864292" lon="11.14402">
<ele>550.354</ele>
<time>2022-05-27T16:24:44Z</time>
</trkpt>
<trkpt lat="47.864342" lon="11.144063">
<ele>550.354</ele>
<time>2022-05-27T16:24:45Z</time>
</trkpt>
<trkpt lat="47.864391" lon="11.144107">
<ele>550.354</ele>
<time>2022-05-27T16:24:46Z</time>
</trkpt>
<trkpt lat="47.864441" lon="11.144152">
<ele>550.354</ele>
<time>2022-05-27T16:24:47Z</time>
</trkpt>
<trkpt lat="47.864494" lon="11.144195">
<ele>550.354</ele>
<time>2022-05-27T16:24:48Z</time>
</trkpt>
<trkpt lat="47.864544" lon="11.144237">
<ele>550.354</ele>
<time>2022-05-27T16:24:49Z</time>
</trkpt>
<trkpt lat="47.864597" lon="11.144277">
<ele>550.354</ele>
<time>2022-05-27T16:24:50Z</time>
</trkpt>
<trkpt lat="47.864647" lon="11.144315">
<ele>550.354</ele>
<time>2022-05-27T16:24:51Z</time>
</trkpt>
<trkpt lat="47.8647" lon="11.144359">
<ele>550.651</ele>
<time>2022-05-27T16:24:52Z</time>
</trkpt>
<trkpt lat="47.864754" lon="11.144402">
<ele>550.891</ele>
<time>2022-05-27T16:24:53Z</time>
</trkpt>
<trkpt lat="47.864799" lon="11.144446">
<ele>551.069</ele>
<time>2022-05-27T16:24:54Z</time>
</trkpt>
<trkpt lat="47.864857" lon="11.144488">
<ele>551.206</ele>
<time>2022-05-27T16:24:55Z</time>
</trkpt>
<trkpt lat="47.864906" lon="11.14453">
<ele>551.3</ele>
<time>2022-05-27T16:24:56Z</time>
</trkpt>
<trkpt lat="47.864956" lon="11.144568">
<ele>551.369</ele>
<time>2022-05-27T16:24:57Z</time>
</trkpt>
<trkpt lat="47.865002" lon="11.144608">
<ele>551.088</ele>
<time>2022-05-27T16:24:58Z</time>
</trkpt>
<trkpt lat="47.865055" lon="11.144645">
<ele>550.843</ele>
<time>2022-05-27T16:24:59Z</time>
</trkpt>
<trkpt lat="47.865105" lon="11.144681">
<ele>550.634</ele>
<time>2022-05-27T16:25:00Z</time>
</trkpt>
<trkpt lat="47.865158" lon="11.144716">
<ele>550.481</ele>
<time>2022-05-27T16:25:01Z</time>
</trkpt>
<trkpt lat="47.865211" lon="11.144754">
<ele>550.371</ele>
<time>2022-05-27T16:25:02Z</time>
</trkpt>
<trkpt lat="47.865269" lon="11.14479">
<ele>550.304</ele>
<time>2022-05-27T16:25:03Z</time>
</trkpt>
<trkpt lat="47.865322" lon="11.144825">
<ele>550.271</ele>
<time>2022-05-27T16:25:04Z</time>
</trkpt>
<trkpt lat="47.865383" lon="11.144856">
<ele>550.266</ele>
<time>2022-05-27T16:25:05Z</time>
</trkpt>
<trkpt lat="47.86544" lon="11.144884">
<ele>550.266</ele>
<time>2022-05-27T16:25:06Z</time>
</trkpt>
<trkpt lat="47.865494" lon="11.144909">
<ele>550.266</ele>
<time>2022-05-27T16:25:07Z</time>
</trkpt>
<trkpt lat="47.865551" lon="11.144935">
<ele>550.53</ele>
<time>2022-05-27T16:25:08Z</time>
</trkpt>
<trkpt lat="47.865616" lon="11.144966">
<ele>550.732</ele>
<time>2022-05-27T16:25:09Z</time>
</trkpt>
<trkpt lat="47.865665" lon="11.144987">
<ele>550.883</ele>
<time>2022-05-27T16:25:10Z</time>
</trkpt>
<trkpt lat="47.865711" lon="11.145">
<ele>550.992</ele>
<time>2022-05-27T16:25:11Z</time>
</trkpt>
<trkpt lat="47.865757" lon="11.145006">
<ele>550.87</ele>
<time>2022-05-27T16:25:12Z</time>
</trkpt>
<trkpt lat="47.865799" lon="11.145014">
<ele>550.759</ele>
<time>2022-05-27T16:25:13Z</time>
</trkpt>
<trkpt lat="47.865845" lon="11.145022">
<ele>550.66</ele>
<time>2022-05-27T16:25:14Z</time>
</trkpt>
<trkpt lat="47.865891" lon="11.145023">
<ele>550.566</ele>
<time>2022-05-27T16:25:15Z</time>
</trkpt>
<trkpt lat="47.865936" lon="11.145017">
<ele>550.533</ele>
<time>2022-05-27T16:25:16Z</time>
</trkpt>
<trkpt lat="47.865986" lon="11.14501">
<ele>550.427</ele>
<time>2022-05-27T16:25:17Z</time>
</trkpt>
<trkpt lat="47.866028" lon="11.145015">
<ele>550.341</ele>
<time>2022-05-27T16:25:18Z</time>
</trkpt>
<trkpt lat="47.866077" lon="11.145022">
<ele>550.29</ele>
<time>2022-05-27T16:25:19Z</time>
</trkpt>
<trkpt lat="47.866138" lon="11.145022">
<ele>550.266</ele>
<time>2022-05-27T16:25:20Z</time>
</trkpt>
<trkpt lat="47.866199" lon="11.145017">
<ele>550.266</ele>
<time>2022-05-27T16:25:21Z</time>
</trkpt>
<trkpt lat="47.866264" lon="11.145008">
<ele>550.266</ele>
<time>2022-05-27T16:25:22Z</time>
</trkpt>
<trkpt lat="47.866333" lon="11.144995">
<ele>550.266</ele>
<time>2022-05-27T16:25:23Z</time>
</trkpt>
<trkpt lat="47.866394" lon="11.144987">
<ele>550.266</ele>
<time>2022-05-27T16:25:24Z</time>
</trkpt>
<trkpt lat="47.866455" lon="11.14498">
<ele>550.266</ele>
<time>2022-05-27T16:25:25Z</time>
</trkpt>
<trkpt lat="47.866516" lon="11.14497">
<ele>550.266</ele>
<time>2022-05-27T16:25:26Z</time>
</trkpt>
<trkpt lat="47.866581" lon="11.144957">
<ele>550.026</ele>
<time>2022-05-27T16:25:27Z</time>
</trkpt>
<trkpt lat="47.866642" lon="11.14494">
<ele>549.833</ele>
<time>2022-05-27T16:25:28Z</time>
</trkpt>
<trkpt lat="47.866695" lon="11.144917">
<ele>549.676</ele>
<time>2022-05-27T16:25:29Z</time>
</trkpt>
<trkpt lat="47.866749" lon="11.144892">
<ele>549.55</ele>
<time>2022-05-27T16:25:30Z</time>
</trkpt>
<trkpt lat="47.866802" lon="11.144868">
<ele>549.451</ele>
<time>2022-05-27T16:25:31Z</time>
</trkpt>
<trkpt lat="47.866852" lon="11.14484">
<ele>549.375</ele>
<time>2022-05-27T16:25:32Z</time>
</trkpt>
<trkpt lat="47.866901" lon="11.144807">
<ele>549.329</ele>
<time>2022-05-27T16:25:33Z</time>
</trkpt>
<trkpt lat="47.866951" lon="11.144772">
<ele>549.306</ele>
<time>2022-05-27T16:25:34Z</time>
</trkpt>
<trkpt lat="47.867004" lon="11.144738">
<ele>549.306</ele>
<time>2022-05-27T16:25:35Z</time>
</trkpt>
<trkpt lat="47.86705" lon="11.144705">
<ele>549.306</ele>
<time>2022-05-27T16:25:36Z</time>
</trkpt>
<trkpt lat="47.867096" lon="11.144669">
<ele>549.306</ele>
<time>2022-05-27T16:25:37Z</time>
</trkpt>
<trkpt lat="47.867146" lon="11.144637">
<ele>549.306</ele>
<time>2022-05-27T16:25:38Z</time>
</trkpt>
<trkpt lat="47.867191" lon="11.144599">
<ele>549.306</ele>
<time>2022-05-27T16:25:39Z</time>
</trkpt>
<trkpt lat="47.867237" lon="11.144547">
<ele>549.306</ele>
<time>2022-05-27T16:25:40Z</time>
</trkpt>
<trkpt lat="47.867279" lon="11.144499">
<ele>549.306</ele>
<time>2022-05-27T16:25:41Z</time>
</trkpt>
<trkpt lat="47.867329" lon="11.144455">
<ele>549.306</ele>
<time>2022-05-27T16:25:42Z</time>
</trkpt>
<trkpt lat="47.867378" lon="11.144412">
<ele>549.306</ele>
<time>2022-05-27T16:25:43Z</time>
</trkpt>
<trkpt lat="47.86742" lon="11.144366">
<ele>549.306</ele>
<time>2022-05-27T16:25:44Z</time>
</trkpt>
<trkpt lat="47.86747" lon="11.144323">
<ele>549.306</ele>
<time>2022-05-27T16:25:45Z</time>
</trkpt>
<trkpt lat="47.867508" lon="11.144277">
<ele>549.306</ele>
<time>2022-05-27T16:25:46Z</time>
</trkpt>
<trkpt lat="47.867554" lon="11.14423">
<ele>549.306</ele>
<time>2022-05-27T16:25:47Z</time>
</trkpt>
<trkpt lat="47.867599" lon="11.144178">
<ele>549.306</ele>
<time>2022-05-27T16:25:48Z</time>
</trkpt>
<trkpt lat="47.867634" lon="11.144126">
<ele>549.306</ele>
<time>2022-05-27T16:25:49Z</time>
</trkpt>
<trkpt lat="47.867672" lon="11.144069">
<ele>549.306</ele>
<time>2022-05-27T16:25:50Z</time>
</trkpt>
<trkpt lat="47.867706" lon="11.144009">
<ele>549.306</ele>
<time>2022-05-27T16:25:51Z</time>
</trkpt>
<trkpt lat="47.867741" lon="11.143951">
<ele>549.306</ele>
<time>2022-05-27T16:25:52Z</time>
</trkpt>
<trkpt lat="47.867771" lon="11.143893">
<ele>549.306</ele>
<time>2022-05-27T16:25:53Z</time>
</trkpt>
<trkpt lat="47.867802" lon="11.143832">
<ele>549.306</ele>
<time>2022-05-27T16:25:54Z</time>
</trkpt>
<trkpt lat="47.867832" lon="11.143767">
<ele>549.306</ele>
<time>2022-05-27T16:25:55Z</time>
</trkpt>
<trkpt lat="47.867863" lon="11.143703">
<ele>549.306</ele>
<time>2022-05-27T16:25:56Z</time>
</trkpt>
<trkpt lat="47.867886" lon="11.14363">
<ele>549.306</ele>
<time>2022-05-27T16:25:57Z</time>
</trkpt>
<trkpt lat="47.867908" lon="11.14356">
<ele>549.306</ele>
<time>2022-05-27T16:25:58Z</time>
</trkpt>
<trkpt lat="47.867943" lon="11.143492">
<ele>549.306</ele>
<time>2022-05-27T16:25:59Z</time>
</trkpt>
<trkpt lat="47.867977" lon="11.143425">
<ele>549.306</ele>
<time>2022-05-27T16:26:00Z</time>
</trkpt>
<trkpt lat="47.868011" lon="11.143354">
<ele>549.306</ele>
<time>2022-05-27T16:26:01Z</time>
</trkpt>
<trkpt lat="47.868042" lon="11.143285">
<ele>549.306</ele>
<time>2022-05-27T16:26:02Z</time>
</trkpt>
<trkpt lat="47.868076" lon="11.143213">
<ele>549.306</ele>
<time>2022-05-27T16:26:03Z</time>
</trkpt>
<trkpt lat="47.868111" lon="11.143144">
<ele>549.306</ele>
<time>2022-05-27T16:26:04Z</time>
</trkpt>
<trkpt lat="47.868145" lon="11.143076">
<ele>549.306</ele>
<time>2022-05-27T16:26:05Z</time>
</trkpt>
<trkpt lat="47.868176" lon="11.143011">
<ele>549.306</ele>
<time>2022-05-27T16:26:06Z</time>
</trkpt>
<trkpt lat="47.868214" lon="11.142948">
<ele>549.306</ele>
<time>2022-05-27T16:26:07Z</time>
</trkpt>
<trkpt lat="47.868252" lon="11.142888">
<ele>549.021</ele>
<time>2022-05-27T16:26:08Z</time>
</trkpt>
<trkpt lat="47.868286" lon="11.142837">
<ele>548.804</ele>
<time>2022-05-27T16:26:09Z</time>
</trkpt>
<trkpt lat="47.868328" lon="11.14278">
<ele>548.635</ele>
<time>2022-05-27T16:26:10Z</time>
</trkpt>
<trkpt lat="47.868366" lon="11.142727">
<ele>548.512</ele>
<time>2022-05-27T16:26:11Z</time>
</trkpt>
<trkpt lat="47.868404" lon="11.142675">
<ele>548.425</ele>
<time>2022-05-27T16:26:12Z</time>
</trkpt>
<trkpt lat="47.868446" lon="11.142625">
<ele>548.371</ele>
<time>2022-05-27T16:26:13Z</time>
</trkpt>
<trkpt lat="47.868488" lon="11.142577">
<ele>548.346</ele>
<time>2022-05-27T16:26:14Z</time>
</trkpt>
<trkpt lat="47.86853" lon="11.142529">
<ele>548.346</ele>
<time>2022-05-27T16:26:15Z</time>
</trkpt>
<trkpt lat="47.86858" lon="11.142484">
<ele>548.346</ele>
<time>2022-05-27T16:26:16Z</time>
</trkpt>
<trkpt lat="47.868626" lon="11.142437">
<ele>548.346</ele>
<time>2022-05-27T16:26:17Z</time>
</trkpt>
<trkpt lat="47.868671" lon="11.142391">
<ele>548.346</ele>
<time>2022-05-27T16:26:18Z</time>
</trkpt>
<trkpt lat="47.868717" lon="11.142346">
<ele>548.346</ele>
<time>2022-05-27T16:26:19Z</time>
</trkpt>
<trkpt lat="47.868763" lon="11.142305">
<ele>548.346</ele>
<time>2022-05-27T16:26:20Z</time>
</trkpt>
<trkpt lat="47.868809" lon="11.142265">
<ele>548.346</ele>
<time>2022-05-27T16:26:21Z</time>
</trkpt>
<trkpt lat="47.868855" lon="11.142227">
<ele>548.346</ele>
<time>2022-05-27T16:26:22Z</time>
</trkpt>
<trkpt lat="47.8689" lon="11.142186">
<ele>548.346</ele>
<time>2022-05-27T16:26:23Z</time>
</trkpt>
<trkpt lat="47.868946" lon="11.14215">
<ele>548.346</ele>
<time>2022-05-27T16:26:24Z</time>
</trkpt>
<trkpt lat="47.868996" lon="11.142115">
<ele>548.346</ele>
<time>2022-05-27T16:26:25Z</time>
</trkpt>
<trkpt lat="47.869041" lon="11.14208">
<ele>548.346</ele>
<time>2022-05-27T16:26:26Z</time>
</trkpt>
<trkpt lat="47.869087" lon="11.142047">
<ele>548.346</ele>
<time>2022-05-27T16:26:27Z</time>
</trkpt>
<trkpt lat="47.869133" lon="11.142014">
<ele>548.346</ele>
<time>2022-05-27T16:26:28Z</time>
</trkpt>
<trkpt lat="47.869171" lon="11.141989">
<ele>548.346</ele>
<time>2022-05-27T16:26:29Z</time>
</trkpt>
<trkpt lat="47.869213" lon="11.141962">
<ele>548.346</ele>
<time>2022-05-27T16:26:30Z</time>
</trkpt>
<trkpt lat="47.869255" lon="11.14194">
<ele>548.346</ele>
<time>2022-05-27T16:26:31Z</time>
</trkpt>
<trkpt lat="47.869293" lon="11.141915">
<ele>548.346</ele>
<time>2022-05-27T16:26:32Z</time>
</trkpt>
<trkpt lat="47.869335" lon="11.141889">
<ele>548.346</ele>
<time>2022-05-27T16:26:33Z</time>
</trkpt>
<trkpt lat="47.869377" lon="11.141863">
<ele>548.346</ele>
<time>2022-05-27T16:26:34Z</time>
</trkpt>
<trkpt lat="47.869419" lon="11.141844">
<ele>548.346</ele>
<time>2022-05-27T16:26:35Z</time>
</trkpt>
<trkpt lat="47.869461" lon="11.141827">
<ele>548.346</ele>
<time>2022-05-27T16:26:36Z</time>
</trkpt>
<trkpt lat="47.869507" lon="11.141807">
<ele>548.346</ele>
<time>2022-05-27T16:26:37Z</time>
</trkpt>
<trkpt lat="47.869556" lon="11.141791">
<ele>548.346</ele>
<time>2022-05-27T16:26:38Z</time>
</trkpt>
<trkpt lat="47.869595" lon="11.141779">
<ele>548.346</ele>
<time>2022-05-27T16:26:39Z</time>
</trkpt>
<trkpt lat="47.869637" lon="11.141768">
<ele>548.346</ele>
<time>2022-05-27T16:26:40Z</time>
</trkpt>
<trkpt lat="47.869686" lon="11.141758">
<ele>548.346</ele>
<time>2022-05-27T16:26:41Z</time>
</trkpt>
<trkpt lat="47.869728" lon="11.14175">
<ele>548.268</ele>
<time>2022-05-27T16:26:42Z</time>
</trkpt>
<trkpt lat="47.86977" lon="11.141746">
<ele>548.418</ele>
<time>2022-05-27T16:26:43Z</time>
</trkpt>
<trkpt lat="47.86982" lon="11.141738">
<ele>548.623</ele>
<time>2022-05-27T16:26:44Z</time>
</trkpt>
<trkpt lat="47.869862" lon="11.141733">
<ele>548.756</ele>
<time>2022-05-27T16:26:45Z</time>
</trkpt>
<trkpt lat="47.869907" lon="11.141728">
<ele>548.862</ele>
<time>2022-05-27T16:26:46Z</time>
</trkpt>
<trkpt lat="47.869953" lon="11.141723">
<ele>548.712</ele>
<time>2022-05-27T16:26:47Z</time>
</trkpt>
<trkpt lat="47.870007" lon="11.141714">
<ele>548.05</ele>
<time>2022-05-27T16:26:48Z</time>
</trkpt>
<trkpt lat="47.870056" lon="11.141706">
<ele>547.63</ele>
<time>2022-05-27T16:26:49Z</time>
</trkpt>
<trkpt lat="47.870102" lon="11.141702">
<ele>547.889</ele>
<time>2022-05-27T16:26:50Z</time>
</trkpt>
<trkpt lat="47.870144" lon="11.1417">
<ele>548.102</ele>
<time>2022-05-27T16:26:51Z</time>
</trkpt>
<trkpt lat="47.870193" lon="11.141698">
<ele>548.264</ele>
<time>2022-05-27T16:26:52Z</time>
</trkpt>
<trkpt lat="47.870243" lon="11.141698">
<ele>548.408</ele>
<time>2022-05-27T16:26:53Z</time>
</trkpt>
<trkpt lat="47.870293" lon="11.141697">
<ele>548.549</ele>
<time>2022-05-27T16:26:54Z</time>
</trkpt>
<trkpt lat="47.870338" lon="11.141695">
<ele>548.493</ele>
<time>2022-05-27T16:26:55Z</time>
</trkpt>
<trkpt lat="47.870384" lon="11.141691">
<ele>548.462</ele>
<time>2022-05-27T16:26:56Z</time>
</trkpt>
<trkpt lat="47.870434" lon="11.141691">
<ele>548.41</ele>
<time>2022-05-27T16:26:57Z</time>
</trkpt>
<trkpt lat="47.87048" lon="11.1417">
<ele>548.358</ele>
<time>2022-05-27T16:26:58Z</time>
</trkpt>
<trkpt lat="47.870529" lon="11.141708">
<ele>548.307</ele>
<time>2022-05-27T16:26:59Z</time>
</trkpt>
<trkpt lat="47.870571" lon="11.141706">
<ele>548.216</ele>
<time>2022-05-27T16:27:00Z</time>
</trkpt>
<trkpt lat="47.870617" lon="11.141704">
<ele>548.15</ele>
<time>2022-05-27T16:27:01Z</time>
</trkpt>
<trkpt lat="47.870667" lon="11.141704">
<ele>548.105</ele>
<time>2022-05-27T16:27:02Z</time>
</trkpt>
<trkpt lat="47.870712" lon="11.141704">
<ele>548.084</ele>
<time>2022-05-27T16:27:03Z</time>
</trkpt>
<trkpt lat="47.870766" lon="11.141708">
<ele>548.39</ele>
<time>2022-05-27T16:27:04Z</time>
</trkpt>
<trkpt lat="47.870815" lon="11.141714">
<ele>548.635</ele>
<time>2022-05-27T16:27:05Z</time>
</trkpt>
<trkpt lat="47.870869" lon="11.14172">
<ele>548.618</ele>
<time>2022-05-27T16:27:06Z</time>
</trkpt>
<trkpt lat="47.870922" lon="11.141725">
<ele>548.595</ele>
<time>2022-05-27T16:27:07Z</time>
</trkpt>
<trkpt lat="47.870972" lon="11.141722">
<ele>548.565</ele>
<time>2022-05-27T16:27:08Z</time>
</trkpt>
<trkpt lat="47.871025" lon="11.14172">
<ele>548.53</ele>
<time>2022-05-27T16:27:09Z</time>
</trkpt>
<trkpt lat="47.871082" lon="11.141725">
<ele>548.493</ele>
<time>2022-05-27T16:27:10Z</time>
</trkpt>
<trkpt lat="47.871136" lon="11.141733">
<ele>548.452</ele>
<time>2022-05-27T16:27:11Z</time>
</trkpt>
<trkpt lat="47.871189" lon="11.14174">
<ele>548.413</ele>
<time>2022-05-27T16:27:12Z</time>
</trkpt>
<trkpt lat="47.87125" lon="11.141746">
<ele>548.372</ele>
<time>2022-05-27T16:27:13Z</time>
</trkpt>
<trkpt lat="47.871304" lon="11.14175">
<ele>548.108</ele>
<time>2022-05-27T16:27:14Z</time>
</trkpt>
<trkpt lat="47.871361" lon="11.141754">
<ele>547.91</ele>
<time>2022-05-27T16:27:15Z</time>
</trkpt>
<trkpt lat="47.871418" lon="11.141758">
<ele>547.779</ele>
<time>2022-05-27T16:27:16Z</time>
</trkpt>
<trkpt lat="47.871479" lon="11.141763">
<ele>547.642</ele>
<time>2022-05-27T16:27:17Z</time>
</trkpt>
<trkpt lat="47.871536" lon="11.141767">
<ele>547.536</ele>
<time>2022-05-27T16:27:18Z</time>
</trkpt>
<trkpt lat="47.871597" lon="11.141773">
<ele>547.459</ele>
<time>2022-05-27T16:27:19Z</time>
</trkpt>
<trkpt lat="47.871658" lon="11.141779">
<ele>547.409</ele>
<time>2022-05-27T16:27:20Z</time>
</trkpt>
<trkpt lat="47.871719" lon="11.141784">
<ele>547.386</ele>
<time>2022-05-27T16:27:21Z</time>
</trkpt>
<trkpt lat="47.87178" lon="11.141789">
<ele>547.386</ele>
<time>2022-05-27T16:27:22Z</time>
</trkpt>
<trkpt lat="47.871841" lon="11.141795">
<ele>547.386</ele>
<time>2022-05-27T16:27:23Z</time>
</trkpt>
<trkpt lat="47.871906" lon="11.1418">
<ele>547.386</ele>
<time>2022-05-27T16:27:24Z</time>
</trkpt>
<trkpt lat="47.871971" lon="11.141807">
<ele>547.386</ele>
<time>2022-05-27T16:27:25Z</time>
</trkpt>
<trkpt lat="47.872036" lon="11.141813">
<ele>547.386</ele>
<time>2022-05-27T16:27:26Z</time>
</trkpt>
<trkpt lat="47.872097" lon="11.141817">
<ele>547.386</ele>
<time>2022-05-27T16:27:27Z</time>
</trkpt>
<trkpt lat="47.872154" lon="11.14182">
<ele>547.386</ele>
<time>2022-05-27T16:27:28Z</time>
</trkpt>
<trkpt lat="47.872211" lon="11.141825">
<ele>547.386</ele>
<time>2022-05-27T16:27:29Z</time>
</trkpt>
<trkpt lat="47.872269" lon="11.141828">
<ele>547.386</ele>
<time>2022-05-27T16:27:30Z</time>
</trkpt>
<trkpt lat="47.87233" lon="11.141831">
<ele>547.386</ele>
<time>2022-05-27T16:27:31Z</time>
</trkpt>
<trkpt lat="47.872391" lon="11.141829">
<ele>547.386</ele>
<time>2022-05-27T16:27:32Z</time>
</trkpt>
<trkpt lat="47.872448" lon="11.141833">
<ele>547.386</ele>
<time>2022-05-27T16:27:33Z</time>
</trkpt>
<trkpt lat="47.872505" lon="11.141836">
<ele>547.386</ele>
<time>2022-05-27T16:27:34Z</time>
</trkpt>
<trkpt lat="47.872559" lon="11.141842">
<ele>547.176</ele>
<time>2022-05-27T16:27:35Z</time>
</trkpt>
<trkpt lat="47.872616" lon="11.141847">
<ele>547.023</ele>
<time>2022-05-27T16:27:36Z</time>
</trkpt>
<trkpt lat="47.872665" lon="11.141853">
<ele>546.87</ele>
<time>2022-05-27T16:27:37Z</time>
</trkpt>
<trkpt lat="47.872715" lon="11.14186">
<ele>546.746</ele>
<time>2022-05-27T16:27:38Z</time>
</trkpt>
<trkpt lat="47.872757" lon="11.141867">
<ele>546.653</ele>
<time>2022-05-27T16:27:39Z</time>
</trkpt>
<trkpt lat="47.872803" lon="11.141875">
<ele>546.584</ele>
<time>2022-05-27T16:27:40Z</time>
</trkpt>
<trkpt lat="47.872845" lon="11.141885">
<ele>546.536</ele>
<time>2022-05-27T16:27:41Z</time>
</trkpt>
<trkpt lat="47.872894" lon="11.141894">
<ele>546.513</ele>
<time>2022-05-27T16:27:42Z</time>
</trkpt>
<trkpt lat="47.872944" lon="11.1419">
<ele>546.513</ele>
<time>2022-05-27T16:27:43Z</time>
</trkpt>
<trkpt lat="47.872993" lon="11.141905">
<ele>546.513</ele>
<time>2022-05-27T16:27:44Z</time>
</trkpt>
<trkpt lat="47.873047" lon="11.141912">
<ele>546.513</ele>
<time>2022-05-27T16:27:45Z</time>
</trkpt>
<trkpt lat="47.8731" lon="11.14192">
<ele>546.513</ele>
<time>2022-05-27T16:27:46Z</time>
</trkpt>
<trkpt lat="47.873154" lon="11.141933">
<ele>546.513</ele>
<time>2022-05-27T16:27:47Z</time>
</trkpt>
<trkpt lat="47.873207" lon="11.141947">
<ele>546.513</ele>
<time>2022-05-27T16:27:48Z</time>
</trkpt>
<trkpt lat="47.873253" lon="11.141957">
<ele>546.513</ele>
<time>2022-05-27T16:27:49Z</time>
</trkpt>
<trkpt lat="47.873306" lon="11.141967">
<ele>546.513</ele>
<time>2022-05-27T16:27:50Z</time>
</trkpt>
<trkpt lat="47.873363" lon="11.141973">
<ele>546.513</ele>
<time>2022-05-27T16:27:51Z</time>
</trkpt>
<trkpt lat="47.873417" lon="11.141978">
<ele>546.513</ele>
<time>2022-05-27T16:27:52Z</time>
</trkpt>
<trkpt lat="47.873474" lon="11.141978">
<ele>546.513</ele>
<time>2022-05-27T16:27:53Z</time>
</trkpt>
<trkpt lat="47.873535" lon="11.141978">
<ele>546.513</ele>
<time>2022-05-27T16:27:54Z</time>
</trkpt>
<trkpt lat="47.8736" lon="11.141978">
<ele>546.513</ele>
<time>2022-05-27T16:27:55Z</time>
</trkpt>
<trkpt lat="47.873661" lon="11.141978">
<ele>546.513</ele>
<time>2022-05-27T16:27:56Z</time>
</trkpt>
<trkpt lat="47.873726" lon="11.141978">
<ele>546.513</ele>
<time>2022-05-27T16:27:57Z</time>
</trkpt>
<trkpt lat="47.873783" lon="11.141976">
<ele>546.513</ele>
<time>2022-05-27T16:27:58Z</time>
</trkpt>
<trkpt lat="47.87384" lon="11.141972">
<ele>546.513</ele>
<time>2022-05-27T16:27:59Z</time>
</trkpt>
<trkpt lat="47.873901" lon="11.141967">
<ele>546.513</ele>
<time>2022-05-27T16:28:00Z</time>
</trkpt>
<trkpt lat="47.873962" lon="11.14196">
<ele>546.513</ele>
<time>2022-05-27T16:28:01Z</time>
</trkpt>
<trkpt lat="47.874023" lon="11.141953">
<ele>546.513</ele>
<time>2022-05-27T16:28:02Z</time>
</trkpt>
<trkpt lat="47.874081" lon="11.141945">
<ele>546.513</ele>
<time>2022-05-27T16:28:03Z</time>
</trkpt>
<trkpt lat="47.874138" lon="11.141934">
<ele>546.513</ele>
<time>2022-05-27T16:28:04Z</time>
</trkpt>
<trkpt lat="47.874195" lon="11.141918">
<ele>546.513</ele>
<time>2022-05-27T16:28:05Z</time>
</trkpt>
<trkpt lat="47.874252" lon="11.141903">
<ele>546.513</ele>
<time>2022-05-27T16:28:06Z</time>
</trkpt>
<trkpt lat="47.87431" lon="11.141885">
<ele>546.513</ele>
<time>2022-05-27T16:28:07Z</time>
</trkpt>
<trkpt lat="47.874367" lon="11.141867">
<ele>546.513</ele>
<time>2022-05-27T16:28:08Z</time>
</trkpt>
<trkpt lat="47.874424" lon="11.141845">
<ele>546.513</ele>
<time>2022-05-27T16:28:09Z</time>
</trkpt>
<trkpt lat="47.874481" lon="11.141822">
<ele>546.513</ele>
<time>2022-05-27T16:28:10Z</time>
</trkpt>
<trkpt lat="47.874527" lon="11.141798">
<ele>546.513</ele>
<time>2022-05-27T16:28:11Z</time>
</trkpt>
<trkpt lat="47.87458" lon="11.141777">
<ele>546.513</ele>
<time>2022-05-27T16:28:12Z</time>
</trkpt>
<trkpt lat="47.87463" lon="11.141753">
<ele>546.513</ele>
<time>2022-05-27T16:28:13Z</time>
</trkpt>
<trkpt lat="47.87468" lon="11.14173">
<ele>546.513</ele>
<time>2022-05-27T16:28:14Z</time>
</trkpt>
<trkpt lat="47.874737" lon="11.141712">
<ele>546.513</ele>
<time>2022-05-27T16:28:15Z</time>
</trkpt>
<trkpt lat="47.874786" lon="11.141688">
<ele>546.513</ele>
<time>2022-05-27T16:28:16Z</time>
</trkpt>
<trkpt lat="47.87484" lon="11.141666">
<ele>546.513</ele>
<time>2022-05-27T16:28:17Z</time>
</trkpt>
<trkpt lat="47.874889" lon="11.141644">
<ele>546.513</ele>
<time>2022-05-27T16:28:18Z</time>
</trkpt>
<trkpt lat="47.874939" lon="11.141623">
<ele>546.513</ele>
<time>2022-05-27T16:28:19Z</time>
</trkpt>
<trkpt lat="47.874989" lon="11.141599">
<ele>546.513</ele>
<time>2022-05-27T16:28:20Z</time>
</trkpt>
<trkpt lat="47.875034" lon="11.141574">
<ele>546.513</ele>
<time>2022-05-27T16:28:21Z</time>
</trkpt>
<trkpt lat="47.875088" lon="11.141548">
<ele>546.513</ele>
<time>2022-05-27T16:28:22Z</time>
</trkpt>
<trkpt lat="47.875137" lon="11.141523">
<ele>546.513</ele>
<time>2022-05-27T16:28:23Z</time>
</trkpt>
<trkpt lat="47.875187" lon="11.141503">
<ele>546.513</ele>
<time>2022-05-27T16:28:24Z</time>
</trkpt>
<trkpt lat="47.875225" lon="11.141485">
<ele>546.513</ele>
<time>2022-05-27T16:28:25Z</time>
</trkpt>
<trkpt lat="47.875263" lon="11.141465">
<ele>546.513</ele>
<time>2022-05-27T16:28:26Z</time>
</trkpt>
<trkpt lat="47.875298" lon="11.141446">
<ele>546.513</ele>
<time>2022-05-27T16:28:27Z</time>
</trkpt>
<trkpt lat="47.875343" lon="11.14143">
<ele>546.513</ele>
<time>2022-05-27T16:28:28Z</time>
</trkpt>
<trkpt lat="47.875393" lon="11.14141">
<ele>546.513</ele>
<time>2022-05-27T16:28:29Z</time>
</trkpt>
<trkpt lat="47.875443" lon="11.141394">
<ele>546.513</ele>
<time>2022-05-27T16:28:30Z</time>
</trkpt>
<trkpt lat="47.875492" lon="11.141381">
<ele>546.513</ele>
<time>2022-05-27T16:28:31Z</time>
</trkpt>
<trkpt lat="47.875538" lon="11.141373">
<ele>546.513</ele>
<time>2022-05-27T16:28:32Z</time>
</trkpt>
<trkpt lat="47.875584" lon="11.141375">
<ele>546.513</ele>
<time>2022-05-27T16:28:33Z</time>
</trkpt>
<trkpt lat="47.875637" lon="11.141381">
<ele>546.513</ele>
<time>2022-05-27T16:28:34Z</time>
</trkpt>
<trkpt lat="47.875687" lon="11.141398">
<ele>546.513</ele>
<time>2022-05-27T16:28:35Z</time>
</trkpt>
<trkpt lat="47.875736" lon="11.141421">
<ele>546.513</ele>
<time>2022-05-27T16:28:36Z</time>
</trkpt>
<trkpt lat="47.875782" lon="11.141455">
<ele>546.513</ele>
<time>2022-05-27T16:28:37Z</time>
</trkpt>
<trkpt lat="47.875824" lon="11.141492">
<ele>546.513</ele>
<time>2022-05-27T16:28:38Z</time>
</trkpt>
<trkpt lat="47.875881" lon="11.141534">
<ele>546.513</ele>
<time>2022-05-27T16:28:39Z</time>
</trkpt>
<trkpt lat="47.875931" lon="11.141579">
<ele>546.513</ele>
<time>2022-05-27T16:28:40Z</time>
</trkpt>
<trkpt lat="47.87598" lon="11.141623">
<ele>546.513</ele>
<time>2022-05-27T16:28:41Z</time>
</trkpt>
<trkpt lat="47.87603" lon="11.141666">
<ele>546.513</ele>
<time>2022-05-27T16:28:42Z</time>
</trkpt>
<trkpt lat="47.876076" lon="11.141708">
<ele>546.513</ele>
<time>2022-05-27T16:28:43Z</time>
</trkpt>
<trkpt lat="47.876118" lon="11.141748">
<ele>546.513</ele>
<time>2022-05-27T16:28:44Z</time>
</trkpt>
<trkpt lat="47.876163" lon="11.141791">
<ele>546.279</ele>
<time>2022-05-27T16:28:45Z</time>
</trkpt>
<trkpt lat="47.876209" lon="11.141829">
<ele>546.117</ele>
<time>2022-05-27T16:28:46Z</time>
</trkpt>
<trkpt lat="47.876247" lon="11.141869">
<ele>545.953</ele>
<time>2022-05-27T16:28:47Z</time>
</trkpt>
<trkpt lat="47.876293" lon="11.141903">
<ele>545.817</ele>
<time>2022-05-27T16:28:48Z</time>
</trkpt>
<trkpt lat="47.876339" lon="11.14194">
<ele>545.709</ele>
<time>2022-05-27T16:28:49Z</time>
</trkpt>
<trkpt lat="47.876377" lon="11.14198">
<ele>545.629</ele>
<time>2022-05-27T16:28:50Z</time>
</trkpt>
<trkpt lat="47.876415" lon="11.142022">
<ele>545.578</ele>
<time>2022-05-27T16:28:51Z</time>
</trkpt>
<trkpt lat="47.876457" lon="11.142058">
<ele>545.553</ele>
<time>2022-05-27T16:28:52Z</time>
</trkpt>
<trkpt lat="47.876503" lon="11.142096">
<ele>545.553</ele>
<time>2022-05-27T16:28:53Z</time>
</trkpt>
<trkpt lat="47.876545" lon="11.142134">
<ele>545.553</ele>
<time>2022-05-27T16:28:54Z</time>
</trkpt>
<trkpt lat="47.876587" lon="11.14217">
<ele>545.553</ele>
<time>2022-05-27T16:28:55Z</time>
</trkpt>
<trkpt lat="47.876629" lon="11.142205">
<ele>545.553</ele>
<time>2022-05-27T16:28:56Z</time>
</trkpt>
<trkpt lat="47.876667" lon="11.142243">
<ele>545.553</ele>
<time>2022-05-27T16:28:57Z</time>
</trkpt>
<trkpt lat="47.876717" lon="11.142284">
<ele>545.553</ele>
<time>2022-05-27T16:28:58Z</time>
</trkpt>
<trkpt lat="47.876755" lon="11.14233">
<ele>545.553</ele>
<time>2022-05-27T16:28:59Z</time>
</trkpt>
<trkpt lat="47.876797" lon="11.142377">
<ele>545.553</ele>
<time>2022-05-27T16:29:00Z</time>
</trkpt>
<trkpt lat="47.876839" lon="11.142422">
<ele>545.553</ele>
<time>2022-05-27T16:29:01Z</time>
</trkpt>
<trkpt lat="47.876884" lon="11.142468">
<ele>545.553</ele>
<time>2022-05-27T16:29:02Z</time>
</trkpt>
<trkpt lat="47.876923" lon="11.14251">
<ele>545.553</ele>
<time>2022-05-27T16:29:03Z</time>
</trkpt>
<trkpt lat="47.876961" lon="11.142545">
<ele>545.553</ele>
<time>2022-05-27T16:29:04Z</time>
</trkpt>
<trkpt lat="47.876999" lon="11.142591">
<ele>545.553</ele>
<time>2022-05-27T16:29:05Z</time>
</trkpt>
<trkpt lat="47.877037" lon="11.142636">
<ele>545.553</ele>
<time>2022-05-27T16:29:06Z</time>
</trkpt>
<trkpt lat="47.87709" lon="11.142689">
<ele>545.553</ele>
<time>2022-05-27T16:29:07Z</time>
</trkpt>
<trkpt lat="47.87714" lon="11.14273">
<ele>545.553</ele>
<time>2022-05-27T16:29:08Z</time>
</trkpt>
<trkpt lat="47.877186" lon="11.142762">
<ele>545.553</ele>
<time>2022-05-27T16:29:09Z</time>
</trkpt>
<trkpt lat="47.877232" lon="11.14279">
<ele>545.553</ele>
<time>2022-05-27T16:29:10Z</time>
</trkpt>
<trkpt lat="47.877277" lon="11.142814">
<ele>545.553</ele>
<time>2022-05-27T16:29:11Z</time>
</trkpt>
<trkpt lat="47.877319" lon="11.142825">
<ele>545.553</ele>
<time>2022-05-27T16:29:12Z</time>
</trkpt>
<trkpt lat="47.877365" lon="11.142839">
<ele>545.553</ele>
<time>2022-05-27T16:29:13Z</time>
</trkpt>
<trkpt lat="47.877422" lon="11.14285">
<ele>545.553</ele>
<time>2022-05-27T16:29:14Z</time>
</trkpt>
<trkpt lat="47.877483" lon="11.142848">
<ele>545.553</ele>
<time>2022-05-27T16:29:15Z</time>
</trkpt>
<trkpt lat="47.877548" lon="11.142845">
<ele>545.553</ele>
<time>2022-05-27T16:29:16Z</time>
</trkpt>
<trkpt lat="47.877609" lon="11.142838">
<ele>545.553</ele>
<time>2022-05-27T16:29:17Z</time>
</trkpt>
<trkpt lat="47.87767" lon="11.142829">
<ele>545.553</ele>
<time>2022-05-27T16:29:18Z</time>
</trkpt>
<trkpt lat="47.877728" lon="11.142818">
<ele>545.553</ele>
<time>2022-05-27T16:29:19Z</time>
</trkpt>
<trkpt lat="47.877781" lon="11.142803">
<ele>545.553</ele>
<time>2022-05-27T16:29:20Z</time>
</trkpt>
<trkpt lat="47.877838" lon="11.142783">
<ele>545.553</ele>
<time>2022-05-27T16:29:21Z</time>
</trkpt>
<trkpt lat="47.877895" lon="11.142758">
<ele>545.553</ele>
<time>2022-05-27T16:29:22Z</time>
</trkpt>
<trkpt lat="47.877945" lon="11.142736">
<ele>545.553</ele>
<time>2022-05-27T16:29:23Z</time>
</trkpt>
<trkpt lat="47.878002" lon="11.142714">
<ele>545.553</ele>
<time>2022-05-27T16:29:24Z</time>
</trkpt>
<trkpt lat="47.878059" lon="11.142693">
<ele>545.553</ele>
<time>2022-05-27T16:29:25Z</time>
</trkpt>
<trkpt lat="47.878113" lon="11.142675">
<ele>545.553</ele>
<time>2022-05-27T16:29:26Z</time>
</trkpt>
<trkpt lat="47.87817" lon="11.142663">
<ele>545.553</ele>
<time>2022-05-27T16:29:27Z</time>
</trkpt>
<trkpt lat="47.878231" lon="11.142658">
<ele>545.553</ele>
<time>2022-05-27T16:29:28Z</time>
</trkpt>
<trkpt lat="47.878288" lon="11.142653">
<ele>545.553</ele>
<time>2022-05-27T16:29:29Z</time>
</trkpt>
<trkpt lat="47.878345" lon="11.142649">
<ele>545.553</ele>
<time>2022-05-27T16:29:30Z</time>
</trkpt>
<trkpt lat="47.878399" lon="11.142651">
<ele>545.553</ele>
<time>2022-05-27T16:29:31Z</time>
</trkpt>
<trkpt lat="47.87846" lon="11.142653">
<ele>545.553</ele>
<time>2022-05-27T16:29:32Z</time>
</trkpt>
<trkpt lat="47.878517" lon="11.142653">
<ele>545.553</ele>
<time>2022-05-27T16:29:33Z</time>
</trkpt>
<trkpt lat="47.878571" lon="11.142655">
<ele>545.553</ele>
<time>2022-05-27T16:29:34Z</time>
</trkpt>
<trkpt lat="47.878628" lon="11.142657">
<ele>545.553</ele>
<time>2022-05-27T16:29:35Z</time>
</trkpt>
<trkpt lat="47.878685" lon="11.142661">
<ele>545.553</ele>
<time>2022-05-27T16:29:36Z</time>
</trkpt>
<trkpt lat="47.878738" lon="11.142661">
<ele>545.553</ele>
<time>2022-05-27T16:29:37Z</time>
</trkpt>
<trkpt lat="47.878792" lon="11.142659">
<ele>545.553</ele>
<time>2022-05-27T16:29:38Z</time>
</trkpt>
<trkpt lat="47.878845" lon="11.142661">
<ele>545.553</ele>
<time>2022-05-27T16:29:39Z</time>
</trkpt>
<trkpt lat="47.878895" lon="11.142657">
<ele>545.553</ele>
<time>2022-05-27T16:29:40Z</time>
</trkpt>
<trkpt lat="47.878948" lon="11.142655">
<ele>545.553</ele>
<time>2022-05-27T16:29:41Z</time>
</trkpt>
<trkpt lat="47.879002" lon="11.142643">
<ele>545.553</ele>
<time>2022-05-27T16:29:42Z</time>
</trkpt>
<trkpt lat="47.879047" lon="11.142623">
<ele>545.553</ele>
<time>2022-05-27T16:29:43Z</time>
</trkpt>
<trkpt lat="47.879093" lon="11.142591">
<ele>545.553</ele>
<time>2022-05-27T16:29:44Z</time>
</trkpt>
<trkpt lat="47.879135" lon="11.142553">
<ele>545.553</ele>
<time>2022-05-27T16:29:45Z</time>
</trkpt>
<trkpt lat="47.879173" lon="11.142515">
<ele>545.553</ele>
<time>2022-05-27T16:29:46Z</time>
</trkpt>
<trkpt lat="47.879208" lon="11.142472">
<ele>545.553</ele>
<time>2022-05-27T16:29:47Z</time>
</trkpt>
<trkpt lat="47.879242" lon="11.142428">
<ele>545.553</ele>
<time>2022-05-27T16:29:48Z</time>
</trkpt>
<trkpt lat="47.879272" lon="11.142388">
<ele>545.553</ele>
<time>2022-05-27T16:29:49Z</time>
</trkpt>
<trkpt lat="47.879295" lon="11.142335">
<ele>545.553</ele>
<time>2022-05-27T16:29:50Z</time>
</trkpt>
<trkpt lat="47.879307" lon="11.142283">
<ele>545.553</ele>
<time>2022-05-27T16:29:51Z</time>
</trkpt>
<trkpt lat="47.879326" lon="11.14223">
<ele>545.553</ele>
<time>2022-05-27T16:29:52Z</time>
</trkpt>
<trkpt lat="47.879341" lon="11.142179">
<ele>545.553</ele>
<time>2022-05-27T16:29:53Z</time>
</trkpt>
<trkpt lat="47.879364" lon="11.14212">
<ele>545.808</ele>
<time>2022-05-27T16:29:54Z</time>
</trkpt>
<trkpt lat="47.879379" lon="11.142066">
<ele>546.014</ele>
<time>2022-05-27T16:29:55Z</time>
</trkpt>
<trkpt lat="47.879398" lon="11.142014">
<ele>546.157</ele>
<time>2022-05-27T16:29:56Z</time>
</trkpt>
<trkpt lat="47.879406" lon="11.141965">
<ele>546.306</ele>
<time>2022-05-27T16:29:57Z</time>
</trkpt>
<trkpt lat="47.879421" lon="11.14191">
<ele>546.661</ele>
<time>2022-05-27T16:29:58Z</time>
</trkpt>
<trkpt lat="47.879433" lon="11.141853">
<ele>546.948</ele>
<time>2022-05-27T16:29:59Z</time>
</trkpt>
<trkpt lat="47.87944" lon="11.1418">
<ele>547.158</ele>
<time>2022-05-27T16:30:00Z</time>
</trkpt>
<trkpt lat="47.87944" lon="11.141744">
<ele>547.313</ele>
<time>2022-05-27T16:30:01Z</time>
</trkpt>
<trkpt lat="47.879456" lon="11.141691">
<ele>547.473</ele>
<time>2022-05-27T16:30:02Z</time>
</trkpt>
<trkpt lat="47.879471" lon="11.141639">
<ele>547.53</ele>
<time>2022-05-27T16:30:03Z</time>
</trkpt>
<trkpt lat="47.879486" lon="11.14158">
<ele>547.555</ele>
<time>2022-05-27T16:30:04Z</time>
</trkpt>
<trkpt lat="47.879501" lon="11.141521">
<ele>547.56</ele>
<time>2022-05-27T16:30:05Z</time>
</trkpt>
<trkpt lat="47.879513" lon="11.141461">
<ele>547.56</ele>
<time>2022-05-27T16:30:06Z</time>
</trkpt>
<trkpt lat="47.879528" lon="11.141412">
<ele>547.56</ele>
<time>2022-05-27T16:30:07Z</time>
</trkpt>
<trkpt lat="47.879543" lon="11.141358">
<ele>547.56</ele>
<time>2022-05-27T16:30:08Z</time>
</trkpt>
<trkpt lat="47.879559" lon="11.1413">
<ele>547.56</ele>
<time>2022-05-27T16:30:09Z</time>
</trkpt>
<trkpt lat="47.879566" lon="11.141247">
<ele>547.56</ele>
<time>2022-05-27T16:30:10Z</time>
</trkpt>
<trkpt lat="47.879581" lon="11.141196">
<ele>547.302</ele>
<time>2022-05-27T16:30:11Z</time>
</trkpt>
<trkpt lat="47.879597" lon="11.141145">
<ele>547.133</ele>
<time>2022-05-27T16:30:12Z</time>
</trkpt>
<trkpt lat="47.879604" lon="11.141084">
<ele>546.75</ele>
<time>2022-05-27T16:30:13Z</time>
</trkpt>
<trkpt lat="47.87962" lon="11.141013">
<ele>546.168</ele>
<time>2022-05-27T16:30:14Z</time>
</trkpt>
<trkpt lat="47.879639" lon="11.140945">
<ele>545.712</ele>
<time>2022-05-27T16:30:15Z</time>
</trkpt>
<trkpt lat="47.879654" lon="11.140874">
<ele>545.412</ele>
<time>2022-05-27T16:30:16Z</time>
</trkpt>
<trkpt lat="47.879669" lon="11.1408">
<ele>545.116</ele>
<time>2022-05-27T16:30:17Z</time>
</trkpt>
<trkpt lat="47.879692" lon="11.140725">
<ele>544.633</ele>
<time>2022-05-27T16:30:18Z</time>
</trkpt>
<trkpt lat="47.879707" lon="11.140655">
<ele>544.306</ele>
<time>2022-05-27T16:30:19Z</time>
</trkpt>
<trkpt lat="47.879734" lon="11.140592">
<ele>544.122</ele>
<time>2022-05-27T16:30:20Z</time>
</trkpt>
<trkpt lat="47.879776" lon="11.140533">
<ele>543.728</ele>
<time>2022-05-27T16:30:21Z</time>
</trkpt>
<trkpt lat="47.879822" lon="11.140493">
<ele>543.329</ele>
<time>2022-05-27T16:30:22Z</time>
</trkpt>
<trkpt lat="47.879871" lon="11.140464">
<ele>543.119</ele>
<time>2022-05-27T16:30:23Z</time>
</trkpt>
<trkpt lat="47.879929" lon="11.140436">
<ele>542.987</ele>
<time>2022-05-27T16:30:24Z</time>
</trkpt>
<trkpt lat="47.87999" lon="11.140407">
<ele>542.899</ele>
<time>2022-05-27T16:30:25Z</time>
</trkpt>
<trkpt lat="47.880043" lon="11.14038">
<ele>542.84</ele>
<time>2022-05-27T16:30:26Z</time>
</trkpt>
<trkpt lat="47.880096" lon="11.140353">
<ele>542.785</ele>
<time>2022-05-27T16:30:27Z</time>
</trkpt>
<trkpt lat="47.880146" lon="11.140328">
<ele>542.761</ele>
<time>2022-05-27T16:30:28Z</time>
</trkpt>
<trkpt lat="47.880196" lon="11.140302">
<ele>542.761</ele>
<time>2022-05-27T16:30:29Z</time>
</trkpt>
<trkpt lat="47.880245" lon="11.140275">
<ele>542.761</ele>
<time>2022-05-27T16:30:30Z</time>
</trkpt>
<trkpt lat="47.880291" lon="11.14025">
<ele>542.761</ele>
<time>2022-05-27T16:30:31Z</time>
</trkpt>
<trkpt lat="47.880344" lon="11.140224">
<ele>542.761</ele>
<time>2022-05-27T16:30:32Z</time>
</trkpt>
<trkpt lat="47.88039" lon="11.1402">
<ele>542.761</ele>
<time>2022-05-27T16:30:33Z</time>
</trkpt>
<trkpt lat="47.88044" lon="11.140175">
<ele>542.761</ele>
<time>2022-05-27T16:30:34Z</time>
</trkpt>
<trkpt lat="47.880486" lon="11.140152">
<ele>542.761</ele>
<time>2022-05-27T16:30:35Z</time>
</trkpt>
<trkpt lat="47.880535" lon="11.14013">
<ele>542.761</ele>
<time>2022-05-27T16:30:36Z</time>
</trkpt>
<trkpt lat="47.880577" lon="11.14011">
<ele>542.761</ele>
<time>2022-05-27T16:30:37Z</time>
</trkpt>
<trkpt lat="47.880627" lon="11.14009">
<ele>542.761</ele>
<time>2022-05-27T16:30:38Z</time>
</trkpt>
<trkpt lat="47.880672" lon="11.140072">
<ele>542.464</ele>
<time>2022-05-27T16:30:39Z</time>
</trkpt>
<trkpt lat="47.880714" lon="11.140053">
<ele>542.231</ele>
<time>2022-05-27T16:30:40Z</time>
</trkpt>
<trkpt lat="47.880768" lon="11.140034">
<ele>542.05</ele>
<time>2022-05-27T16:30:41Z</time>
</trkpt>
<trkpt lat="47.880817" lon="11.140019">
<ele>541.916</ele>
<time>2022-05-27T16:30:42Z</time>
</trkpt>
<trkpt lat="47.880867" lon="11.140005">
<ele>541.822</ele>
<time>2022-05-27T16:30:43Z</time>
</trkpt>
<trkpt lat="47.880913" lon="11.139995">
<ele>541.765</ele>
<time>2022-05-27T16:30:44Z</time>
</trkpt>
<trkpt lat="47.880962" lon="11.13999">
<ele>541.738</ele>
<time>2022-05-27T16:30:45Z</time>
</trkpt>
<trkpt lat="47.881008" lon="11.139992">
<ele>541.714</ele>
<time>2022-05-27T16:30:46Z</time>
</trkpt>
<trkpt lat="47.881054" lon="11.139995">
<ele>541.714</ele>
<time>2022-05-27T16:30:47Z</time>
</trkpt>
<trkpt lat="47.881107" lon="11.140003">
<ele>541.714</ele>
<time>2022-05-27T16:30:48Z</time>
</trkpt>
<trkpt lat="47.881157" lon="11.140019">
<ele>541.714</ele>
<time>2022-05-27T16:30:49Z</time>
</trkpt>
<trkpt lat="47.881207" lon="11.140045">
<ele>541.714</ele>
<time>2022-05-27T16:30:50Z</time>
</trkpt>
<trkpt lat="47.881256" lon="11.140076">
<ele>542.002</ele>
<time>2022-05-27T16:30:51Z</time>
</trkpt>
<trkpt lat="47.88131" lon="11.14011">
<ele>542.234</ele>
<time>2022-05-27T16:30:52Z</time>
</trkpt>
<trkpt lat="47.881363" lon="11.140143">
<ele>542.408</ele>
<time>2022-05-27T16:30:53Z</time>
</trkpt>
<trkpt lat="47.88142" lon="11.140177">
<ele>542.529</ele>
<time>2022-05-27T16:30:54Z</time>
</trkpt>
<trkpt lat="47.88147" lon="11.140214">
<ele>542.618</ele>
<time>2022-05-27T16:30:55Z</time>
</trkpt>
<trkpt lat="47.881523" lon="11.140248">
<ele>542.677</ele>
<time>2022-05-27T16:30:56Z</time>
</trkpt>
<trkpt lat="47.88158" lon="11.140284">
<ele>542.735</ele>
<time>2022-05-27T16:30:57Z</time>
</trkpt>
<trkpt lat="47.881634" lon="11.14032">
<ele>542.761</ele>
<time>2022-05-27T16:30:58Z</time>
</trkpt>
<trkpt lat="47.881687" lon="11.140355">
<ele>542.761</ele>
<time>2022-05-27T16:30:59Z</time>
</trkpt>
<trkpt lat="47.881744" lon="11.14039">
<ele>542.761</ele>
<time>2022-05-27T16:31:00Z</time>
</trkpt>
<trkpt lat="47.881794" lon="11.140427">
<ele>542.761</ele>
<time>2022-05-27T16:31:01Z</time>
</trkpt>
<trkpt lat="47.881847" lon="11.140462">
<ele>542.761</ele>
<time>2022-05-27T16:31:02Z</time>
</trkpt>
<trkpt lat="47.881901" lon="11.140495">
<ele>542.761</ele>
<time>2022-05-27T16:31:03Z</time>
</trkpt>
<trkpt lat="47.881947" lon="11.140531">
<ele>542.761</ele>
<time>2022-05-27T16:31:04Z</time>
</trkpt>
<trkpt lat="47.882004" lon="11.140567">
<ele>542.761</ele>
<time>2022-05-27T16:31:05Z</time>
</trkpt>
<trkpt lat="47.882053" lon="11.140604">
<ele>542.761</ele>
<time>2022-05-27T16:31:06Z</time>
</trkpt>
<trkpt lat="47.882111" lon="11.140639">
<ele>542.761</ele>
<time>2022-05-27T16:31:07Z</time>
</trkpt>
<trkpt lat="47.882164" lon="11.140675">
<ele>542.761</ele>
<time>2022-05-27T16:31:08Z</time>
</trkpt>
<trkpt lat="47.882217" lon="11.140705">
<ele>542.761</ele>
<time>2022-05-27T16:31:09Z</time>
</trkpt>
<trkpt lat="47.882275" lon="11.140736">
<ele>542.761</ele>
<time>2022-05-27T16:31:10Z</time>
</trkpt>
<trkpt lat="47.882332" lon="11.140768">
<ele>542.761</ele>
<time>2022-05-27T16:31:11Z</time>
</trkpt>
<trkpt lat="47.882385" lon="11.140805">
<ele>542.761</ele>
<time>2022-05-27T16:31:12Z</time>
</trkpt>
<trkpt lat="47.882442" lon="11.140841">
<ele>542.761</ele>
<time>2022-05-27T16:31:13Z</time>
</trkpt>
<trkpt lat="47.8825" lon="11.140874">
<ele>542.761</ele>
<time>2022-05-27T16:31:14Z</time>
</trkpt>
<trkpt lat="47.882561" lon="11.140905">
<ele>542.761</ele>
<time>2022-05-27T16:31:15Z</time>
</trkpt>
<trkpt lat="47.882622" lon="11.140935">
<ele>542.761</ele>
<time>2022-05-27T16:31:16Z</time>
</trkpt>
<trkpt lat="47.882679" lon="11.140962">
<ele>542.761</ele>
<time>2022-05-27T16:31:17Z</time>
</trkpt>
<trkpt lat="47.88274" lon="11.140985">
<ele>542.761</ele>
<time>2022-05-27T16:31:18Z</time>
</trkpt>
<trkpt lat="47.882797" lon="11.141005">
<ele>542.761</ele>
<time>2022-05-27T16:31:19Z</time>
</trkpt>
<trkpt lat="47.882858" lon="11.141025">
<ele>542.761</ele>
<time>2022-05-27T16:31:20Z</time>
</trkpt>
<trkpt lat="47.882923" lon="11.141044">
<ele>542.761</ele>
<time>2022-05-27T16:31:21Z</time>
</trkpt>
<trkpt lat="47.882984" lon="11.141065">
<ele>542.761</ele>
<time>2022-05-27T16:31:22Z</time>
</trkpt>
<trkpt lat="47.883038" lon="11.141087">
<ele>542.761</ele>
<time>2022-05-27T16:31:23Z</time>
</trkpt>
<trkpt lat="47.883095" lon="11.141109">
<ele>542.761</ele>
<time>2022-05-27T16:31:24Z</time>
</trkpt>
<trkpt lat="47.883152" lon="11.141128">
<ele>542.761</ele>
<time>2022-05-27T16:31:25Z</time>
</trkpt>
<trkpt lat="47.883209" lon="11.14115">
<ele>542.761</ele>
<time>2022-05-27T16:31:26Z</time>
</trkpt>
<trkpt lat="47.883266" lon="11.141171">
<ele>542.761</ele>
<time>2022-05-27T16:31:27Z</time>
</trkpt>
<trkpt lat="47.883324" lon="11.141193">
<ele>542.761</ele>
<time>2022-05-27T16:31:28Z</time>
</trkpt>
<trkpt lat="47.883381" lon="11.141216">
<ele>542.761</ele>
<time>2022-05-27T16:31:29Z</time>
</trkpt>
<trkpt lat="47.883446" lon="11.14124">
<ele>542.761</ele>
<time>2022-05-27T16:31:30Z</time>
</trkpt>
<trkpt lat="47.883503" lon="11.141266">
<ele>542.761</ele>
<time>2022-05-27T16:31:31Z</time>
</trkpt>
<trkpt lat="47.88356" lon="11.141289">
<ele>542.761</ele>
<time>2022-05-27T16:31:32Z</time>
</trkpt>
<trkpt lat="47.883617" lon="11.141315">
<ele>542.761</ele>
<time>2022-05-27T16:31:33Z</time>
</trkpt>
<trkpt lat="47.883675" lon="11.141343">
<ele>542.761</ele>
<time>2022-05-27T16:31:34Z</time>
</trkpt>
<trkpt lat="47.883736" lon="11.141372">
<ele>542.761</ele>
<time>2022-05-27T16:31:35Z</time>
</trkpt>
<trkpt lat="47.883789" lon="11.141402">
<ele>542.761</ele>
<time>2022-05-27T16:31:36Z</time>
</trkpt>
<trkpt lat="47.883842" lon="11.141429">
<ele>542.761</ele>
<time>2022-05-27T16:31:37Z</time>
</trkpt>
<trkpt lat="47.8839" lon="11.141457">
<ele>542.761</ele>
<time>2022-05-27T16:31:38Z</time>
</trkpt>
<trkpt lat="47.883953" lon="11.141486">
<ele>542.761</ele>
<time>2022-05-27T16:31:39Z</time>
</trkpt>
<trkpt lat="47.884007" lon="11.141519">
<ele>542.761</ele>
<time>2022-05-27T16:31:40Z</time>
</trkpt>
<trkpt lat="47.884064" lon="11.141551">
<ele>542.761</ele>
<time>2022-05-27T16:31:41Z</time>
</trkpt>
<trkpt lat="47.884117" lon="11.141583">
<ele>542.761</ele>
<time>2022-05-27T16:31:42Z</time>
</trkpt>
<trkpt lat="47.884171" lon="11.141618">
<ele>542.761</ele>
<time>2022-05-27T16:31:43Z</time>
</trkpt>
<trkpt lat="47.884224" lon="11.141658">
<ele>542.761</ele>
<time>2022-05-27T16:31:44Z</time>
</trkpt>
<trkpt lat="47.884274" lon="11.141704">
<ele>542.761</ele>
<time>2022-05-27T16:31:45Z</time>
</trkpt>
<trkpt lat="47.884319" lon="11.14175">
<ele>542.761</ele>
<time>2022-05-27T16:31:46Z</time>
</trkpt>
<trkpt lat="47.884365" lon="11.141798">
<ele>542.761</ele>
<time>2022-05-27T16:31:47Z</time>
</trkpt>
<trkpt lat="47.884403" lon="11.141852">
<ele>542.761</ele>
<time>2022-05-27T16:31:48Z</time>
</trkpt>
<trkpt lat="47.884445" lon="11.14191">
<ele>542.761</ele>
<time>2022-05-27T16:31:49Z</time>
</trkpt>
<trkpt lat="47.884483" lon="11.141972">
<ele>542.761</ele>
<time>2022-05-27T16:31:50Z</time>
</trkpt>
<trkpt lat="47.884521" lon="11.14204">
<ele>542.761</ele>
<time>2022-05-27T16:31:51Z</time>
</trkpt>
<trkpt lat="47.884556" lon="11.142108">
<ele>542.761</ele>
<time>2022-05-27T16:31:52Z</time>
</trkpt>
<trkpt lat="47.884586" lon="11.142179">
<ele>542.761</ele>
<time>2022-05-27T16:31:53Z</time>
</trkpt>
<trkpt lat="47.884621" lon="11.142246">
<ele>542.761</ele>
<time>2022-05-27T16:31:54Z</time>
</trkpt>
<trkpt lat="47.884659" lon="11.142313">
<ele>542.761</ele>
<time>2022-05-27T16:31:55Z</time>
</trkpt>
<trkpt lat="47.884697" lon="11.142374">
<ele>542.761</ele>
<time>2022-05-27T16:31:56Z</time>
</trkpt>
<trkpt lat="47.884735" lon="11.14243">
<ele>542.761</ele>
<time>2022-05-27T16:31:57Z</time>
</trkpt>
<trkpt lat="47.884781" lon="11.142485">
<ele>542.761</ele>
<time>2022-05-27T16:31:58Z</time>
</trkpt>
<trkpt lat="47.884819" lon="11.142533">
<ele>542.761</ele>
<time>2022-05-27T16:31:59Z</time>
</trkpt>
<trkpt lat="47.884869" lon="11.142582">
<ele>542.761</ele>
<time>2022-05-27T16:32:00Z</time>
</trkpt>
<trkpt lat="47.884914" lon="11.142625">
<ele>542.761</ele>
<time>2022-05-27T16:32:01Z</time>
</trkpt>
<trkpt lat="47.884956" lon="11.142665">
<ele>542.761</ele>
<time>2022-05-27T16:32:02Z</time>
</trkpt>
<trkpt lat="47.885002" lon="11.142703">
<ele>542.761</ele>
<time>2022-05-27T16:32:03Z</time>
</trkpt>
<trkpt lat="47.885044" lon="11.142735">
<ele>542.761</ele>
<time>2022-05-27T16:32:04Z</time>
</trkpt>
<trkpt lat="47.88509" lon="11.142757">
<ele>542.761</ele>
<time>2022-05-27T16:32:05Z</time>
</trkpt>
<trkpt lat="47.885143" lon="11.142768">
<ele>542.761</ele>
<time>2022-05-27T16:32:06Z</time>
</trkpt>
<trkpt lat="47.885193" lon="11.142775">
<ele>542.761</ele>
<time>2022-05-27T16:32:07Z</time>
</trkpt>
<trkpt lat="47.885242" lon="11.142783">
<ele>542.761</ele>
<time>2022-05-27T16:32:08Z</time>
</trkpt>
<trkpt lat="47.885296" lon="11.14279">
<ele>542.459</ele>
<time>2022-05-27T16:32:09Z</time>
</trkpt>
<trkpt lat="47.885338" lon="11.142789">
<ele>542.223</ele>
<time>2022-05-27T16:32:10Z</time>
</trkpt>
<trkpt lat="47.885387" lon="11.142785">
<ele>542.043</ele>
<time>2022-05-27T16:32:11Z</time>
</trkpt>
<trkpt lat="47.885437" lon="11.142774">
<ele>541.912</ele>
<time>2022-05-27T16:32:12Z</time>
</trkpt>
<trkpt lat="47.88549" lon="11.14275">
<ele>541.826</ele>
<time>2022-05-27T16:32:13Z</time>
</trkpt>
<trkpt lat="47.885536" lon="11.142716">
<ele>541.77</ele>
<time>2022-05-27T16:32:14Z</time>
</trkpt>
<trkpt lat="47.88559" lon="11.142668">
<ele>541.739</ele>
<time>2022-05-27T16:32:15Z</time>
</trkpt>
<trkpt lat="47.885639" lon="11.142615">
<ele>541.714</ele>
<time>2022-05-27T16:32:16Z</time>
</trkpt>
<trkpt lat="47.885693" lon="11.142562">
<ele>541.714</ele>
<time>2022-05-27T16:32:17Z</time>
</trkpt>
<trkpt lat="47.885742" lon="11.142505">
<ele>541.714</ele>
<time>2022-05-27T16:32:18Z</time>
</trkpt>
<trkpt lat="47.885796" lon="11.142451">
<ele>541.714</ele>
<time>2022-05-27T16:32:19Z</time>
</trkpt>
<trkpt lat="47.885845" lon="11.142397">
<ele>541.714</ele>
<time>2022-05-27T16:32:20Z</time>
</trkpt>
<trkpt lat="47.885899" lon="11.142341">
<ele>541.714</ele>
<time>2022-05-27T16:32:21Z</time>
</trkpt>
<trkpt lat="47.885948" lon="11.142286">
<ele>541.433</ele>
<time>2022-05-27T16:32:22Z</time>
</trkpt>
<trkpt lat="47.885994" lon="11.142232">
<ele>541.222</ele>
<time>2022-05-27T16:32:23Z</time>
</trkpt>
<trkpt lat="47.886044" lon="11.142179">
<ele>541.057</ele>
<time>2022-05-27T16:32:24Z</time>
</trkpt>
<trkpt lat="47.886089" lon="11.142125">
<ele>541.01</ele>
<time>2022-05-27T16:32:25Z</time>
</trkpt>
<trkpt lat="47.886139" lon="11.142072">
<ele>541.169</ele>
<time>2022-05-27T16:32:26Z</time>
</trkpt>
<trkpt lat="47.886185" lon="11.142022">
<ele>541.081</ele>
<time>2022-05-27T16:32:27Z</time>
</trkpt>
<trkpt lat="47.88623" lon="11.141972">
<ele>541.023</ele>
<time>2022-05-27T16:32:28Z</time>
</trkpt>
<trkpt lat="47.88628" lon="11.141922">
<ele>540.993</ele>
<time>2022-05-27T16:32:29Z</time>
</trkpt>
<trkpt lat="47.886322" lon="11.141873">
<ele>540.986</ele>
<time>2022-05-27T16:32:30Z</time>
</trkpt>
<trkpt lat="47.886372" lon="11.141823">
<ele>540.981</ele>
<time>2022-05-27T16:32:31Z</time>
</trkpt>
<trkpt lat="47.886414" lon="11.141775">
<ele>540.969</ele>
<time>2022-05-27T16:32:32Z</time>
</trkpt>
<trkpt lat="47.886459" lon="11.141726">
<ele>540.952</ele>
<time>2022-05-27T16:32:33Z</time>
</trkpt>
<trkpt lat="47.886505" lon="11.141677">
<ele>540.933</ele>
<time>2022-05-27T16:32:34Z</time>
</trkpt>
<trkpt lat="47.886551" lon="11.141628">
<ele>541.107</ele>
<time>2022-05-27T16:32:35Z</time>
</trkpt>
<trkpt lat="47.886597" lon="11.141582">
<ele>541.122</ele>
<time>2022-05-27T16:32:36Z</time>
</trkpt>
<trkpt lat="47.886642" lon="11.141535">
<ele>541.305</ele>
<time>2022-05-27T16:32:37Z</time>
</trkpt>
<trkpt lat="47.886684" lon="11.141488">
<ele>541.456</ele>
<time>2022-05-27T16:32:38Z</time>
</trkpt>
<trkpt lat="47.88673" lon="11.141439">
<ele>541.576</ele>
<time>2022-05-27T16:32:39Z</time>
</trkpt>
<trkpt lat="47.886772" lon="11.141392">
<ele>541.67</ele>
<time>2022-05-27T16:32:40Z</time>
</trkpt>
<trkpt lat="47.886818" lon="11.141345">
<ele>541.737</ele>
<time>2022-05-27T16:32:41Z</time>
</trkpt>
<trkpt lat="47.88686" lon="11.141297">
<ele>541.78</ele>
<time>2022-05-27T16:32:42Z</time>
</trkpt>
<trkpt lat="47.886902" lon="11.14125">
<ele>541.802</ele>
<time>2022-05-27T16:32:43Z</time>
</trkpt>
<trkpt lat="47.886944" lon="11.141201">
<ele>541.802</ele>
<time>2022-05-27T16:32:44Z</time>
</trkpt>
<trkpt lat="47.88699" lon="11.141155">
<ele>541.802</ele>
<time>2022-05-27T16:32:45Z</time>
</trkpt>
<trkpt lat="47.887032" lon="11.14111">
<ele>541.802</ele>
<time>2022-05-27T16:32:46Z</time>
</trkpt>
<trkpt lat="47.887074" lon="11.141063">
<ele>541.802</ele>
<time>2022-05-27T16:32:47Z</time>
</trkpt>
<trkpt lat="47.887119" lon="11.141019">
<ele>541.802</ele>
<time>2022-05-27T16:32:48Z</time>
</trkpt>
<trkpt lat="47.887161" lon="11.140972">
<ele>541.802</ele>
<time>2022-05-27T16:32:49Z</time>
</trkpt>
<trkpt lat="47.887203" lon="11.140926">
<ele>541.802</ele>
<time>2022-05-27T16:32:50Z</time>
</trkpt>
<trkpt lat="47.887245" lon="11.140881">
<ele>541.802</ele>
<time>2022-05-27T16:32:51Z</time>
</trkpt>
<trkpt lat="47.887291" lon="11.140832">
<ele>541.802</ele>
<time>2022-05-27T16:32:52Z</time>
</trkpt>
<trkpt lat="47.887333" lon="11.140781">
<ele>541.802</ele>
<time>2022-05-27T16:32:53Z</time>
</trkpt>
<trkpt lat="47.887379" lon="11.140736">
<ele>541.802</ele>
<time>2022-05-27T16:32:54Z</time>
</trkpt>
<trkpt lat="47.887421" lon="11.140687">
<ele>541.802</ele>
<time>2022-05-27T16:32:55Z</time>
</trkpt>
<trkpt lat="47.887463" lon="11.140639">
<ele>541.802</ele>
<time>2022-05-27T16:32:56Z</time>
</trkpt>
<trkpt lat="47.887505" lon="11.140594">
<ele>541.802</ele>
<time>2022-05-27T16:32:57Z</time>
</trkpt>
<trkpt lat="47.887547" lon="11.140547">
<ele>541.802</ele>
<time>2022-05-27T16:32:58Z</time>
</trkpt>
<trkpt lat="47.887589" lon="11.140499">
<ele>541.802</ele>
<time>2022-05-27T16:32:59Z</time>
</trkpt>
<trkpt lat="47.88763" lon="11.14045">
<ele>541.802</ele>
<time>2022-05-27T16:33:00Z</time>
</trkpt>
<trkpt lat="47.887672" lon="11.140402">
<ele>541.802</ele>
<time>2022-05-27T16:33:01Z</time>
</trkpt>
<trkpt lat="47.887718" lon="11.140353">
<ele>541.802</ele>
<time>2022-05-27T16:33:02Z</time>
</trkpt>
<trkpt lat="47.88776" lon="11.140304">
<ele>541.802</ele>
<time>2022-05-27T16:33:03Z</time>
</trkpt>
<trkpt lat="47.887802" lon="11.140255">
<ele>541.802</ele>
<time>2022-05-27T16:33:04Z</time>
</trkpt>
<trkpt lat="47.887848" lon="11.140208">
<ele>541.802</ele>
<time>2022-05-27T16:33:05Z</time>
</trkpt>
<trkpt lat="47.887886" lon="11.14016">
<ele>541.802</ele>
<time>2022-05-27T16:33:06Z</time>
</trkpt>
<trkpt lat="47.887932" lon="11.140112">
<ele>541.802</ele>
<time>2022-05-27T16:33:07Z</time>
</trkpt>
<trkpt lat="47.887978" lon="11.140063">
<ele>541.802</ele>
<time>2022-05-27T16:33:08Z</time>
</trkpt>
<trkpt lat="47.888016" lon="11.140015">
<ele>541.802</ele>
<time>2022-05-27T16:33:09Z</time>
</trkpt>
<trkpt lat="47.888062" lon="11.139967">
<ele>541.802</ele>
<time>2022-05-27T16:33:10Z</time>
</trkpt>
<trkpt lat="47.8881" lon="11.13992">
<ele>541.802</ele>
<time>2022-05-27T16:33:11Z</time>
</trkpt>
<trkpt lat="47.888142" lon="11.139874">
<ele>541.802</ele>
<time>2022-05-27T16:33:12Z</time>
</trkpt>
<trkpt lat="47.88818" lon="11.139827">
<ele>541.802</ele>
<time>2022-05-27T16:33:13Z</time>
</trkpt>
<trkpt lat="47.888222" lon="11.139782">
<ele>541.802</ele>
<time>2022-05-27T16:33:14Z</time>
</trkpt>
<trkpt lat="47.888264" lon="11.139738">
<ele>541.802</ele>
<time>2022-05-27T16:33:15Z</time>
</trkpt>
<trkpt lat="47.888298" lon="11.139701">
<ele>541.802</ele>
<time>2022-05-27T16:33:16Z</time>
</trkpt>
<trkpt lat="47.888336" lon="11.13966">
<ele>542.028</ele>
<time>2022-05-27T16:33:17Z</time>
</trkpt>
<trkpt lat="47.888371" lon="11.139613">
<ele>542.222</ele>
<time>2022-05-27T16:33:18Z</time>
</trkpt>
<trkpt lat="47.888412" lon="11.139565">
<ele>542.27</ele>
<time>2022-05-27T16:33:19Z</time>
</trkpt>
<trkpt lat="47.888458" lon="11.139517">
<ele>542.182</ele>
<time>2022-05-27T16:33:20Z</time>
</trkpt>
<trkpt lat="47.8885" lon="11.13947">
<ele>542.104</ele>
<time>2022-05-27T16:33:21Z</time>
</trkpt>
<trkpt lat="47.88855" lon="11.139424">
<ele>542.031</ele>
<time>2022-05-27T16:33:22Z</time>
</trkpt>
<trkpt lat="47.888599" lon="11.139377">
<ele>541.989</ele>
<time>2022-05-27T16:33:23Z</time>
</trkpt>
<trkpt lat="47.888638" lon="11.139326">
<ele>541.697</ele>
<time>2022-05-27T16:33:24Z</time>
</trkpt>
<trkpt lat="47.888683" lon="11.139277">
<ele>541.469</ele>
<time>2022-05-27T16:33:25Z</time>
</trkpt>
<trkpt lat="47.888725" lon="11.139228">
<ele>541.312</ele>
<time>2022-05-27T16:33:26Z</time>
</trkpt>
<trkpt lat="47.888771" lon="11.139181">
<ele>541.161</ele>
<time>2022-05-27T16:33:27Z</time>
</trkpt>
<trkpt lat="47.888817" lon="11.139135">
<ele>541.066</ele>
<time>2022-05-27T16:33:28Z</time>
</trkpt>
<trkpt lat="47.888863" lon="11.13909">
<ele>540.997</ele>
<time>2022-05-27T16:33:29Z</time>
</trkpt>
<trkpt lat="47.888908" lon="11.139045">
<ele>540.951</ele>
<time>2022-05-27T16:33:30Z</time>
</trkpt>
<trkpt lat="47.888954" lon="11.138999">
<ele>540.929</ele>
<time>2022-05-27T16:33:31Z</time>
</trkpt>
<trkpt lat="47.888996" lon="11.138953">
<ele>541.16</ele>
<time>2022-05-27T16:33:32Z</time>
</trkpt>
<trkpt lat="47.889042" lon="11.138905">
<ele>541.34</ele>
<time>2022-05-27T16:33:33Z</time>
</trkpt>
<trkpt lat="47.889084" lon="11.138862">
<ele>541.478</ele>
<time>2022-05-27T16:33:34Z</time>
</trkpt>
<trkpt lat="47.889126" lon="11.138821">
<ele>541.58</ele>
<time>2022-05-27T16:33:35Z</time>
</trkpt>
<trkpt lat="47.889168" lon="11.138777">
<ele>541.655</ele>
<time>2022-05-27T16:33:36Z</time>
</trkpt>
<trkpt lat="47.88921" lon="11.13873">
<ele>541.729</ele>
<time>2022-05-27T16:33:37Z</time>
</trkpt>
<trkpt lat="47.889252" lon="11.138685">
<ele>541.771</ele>
<time>2022-05-27T16:33:38Z</time>
</trkpt>
<trkpt lat="47.88929" lon="11.138641">
<ele>541.552</ele>
<time>2022-05-27T16:33:39Z</time>
</trkpt>
<trkpt lat="47.889332" lon="11.138593">
<ele>541.358</ele>
<time>2022-05-27T16:33:40Z</time>
</trkpt>
<trkpt lat="47.889378" lon="11.138547">
<ele>541.206</ele>
<time>2022-05-27T16:33:41Z</time>
</trkpt>
<trkpt lat="47.889412" lon="11.138503">
<ele>541.212</ele>
<time>2022-05-27T16:33:42Z</time>
</trkpt>
<trkpt lat="47.889458" lon="11.138456">
<ele>541.35</ele>
<time>2022-05-27T16:33:43Z</time>
</trkpt>
<trkpt lat="47.889496" lon="11.138414">
<ele>541.469</ele>
<time>2022-05-27T16:33:44Z</time>
</trkpt>
<trkpt lat="47.889538" lon="11.138371">
<ele>541.574</ele>
<time>2022-05-27T16:33:45Z</time>
</trkpt>
<trkpt lat="47.889576" lon="11.138327">
<ele>541.642</ele>
<time>2022-05-27T16:33:46Z</time>
</trkpt>
<trkpt lat="47.88961" lon="11.138283">
<ele>541.522</ele>
<time>2022-05-27T16:33:47Z</time>
</trkpt>
<trkpt lat="47.889652" lon="11.138242">
<ele>541.425</ele>
<time>2022-05-27T16:33:48Z</time>
</trkpt>
<trkpt lat="47.889694" lon="11.138201">
<ele>541.331</ele>
<time>2022-05-27T16:33:49Z</time>
</trkpt>
<trkpt lat="47.889736" lon="11.138157">
<ele>541.237</ele>
<time>2022-05-27T16:33:50Z</time>
</trkpt>
<trkpt lat="47.889771" lon="11.138111">
<ele>541.165</ele>
<time>2022-05-27T16:33:51Z</time>
</trkpt>
<trkpt lat="47.889812" lon="11.13807">
<ele>541.085</ele>
<time>2022-05-27T16:33:52Z</time>
</trkpt>
<trkpt lat="47.889854" lon="11.13803">
<ele>541.038</ele>
<time>2022-05-27T16:33:53Z</time>
</trkpt>
<trkpt lat="47.889896" lon="11.137989">
<ele>541.016</ele>
<time>2022-05-27T16:33:54Z</time>
</trkpt>
<trkpt lat="47.889935" lon="11.137947">
<ele>541.016</ele>
<time>2022-05-27T16:33:55Z</time>
</trkpt>
<trkpt lat="47.889977" lon="11.137903">
<ele>541.016</ele>
<time>2022-05-27T16:33:56Z</time>
</trkpt>
<trkpt lat="47.890018" lon="11.137858">
<ele>541.016</ele>
<time>2022-05-27T16:33:57Z</time>
</trkpt>
<trkpt lat="47.89006" lon="11.137817">
<ele>541.016</ele>
<time>2022-05-27T16:33:58Z</time>
</trkpt>
<trkpt lat="47.890099" lon="11.137774">
<ele>541.016</ele>
<time>2022-05-27T16:33:59Z</time>
</trkpt>
<trkpt lat="47.890137" lon="11.137729">
<ele>541.26</ele>
<time>2022-05-27T16:34:00Z</time>
</trkpt>
<trkpt lat="47.890179" lon="11.137683">
<ele>541.451</ele>
<time>2022-05-27T16:34:01Z</time>
</trkpt>
<trkpt lat="47.890221" lon="11.137639">
<ele>541.377</ele>
<time>2022-05-27T16:34:02Z</time>
</trkpt>
<trkpt lat="47.890259" lon="11.137597">
<ele>541.313</ele>
<time>2022-05-27T16:34:03Z</time>
</trkpt>
<trkpt lat="47.890297" lon="11.137555">
<ele>541.255</ele>
<time>2022-05-27T16:34:04Z</time>
</trkpt>
<trkpt lat="47.890335" lon="11.137511">
<ele>541.204</ele>
<time>2022-05-27T16:34:05Z</time>
</trkpt>
<trkpt lat="47.890373" lon="11.13747">
<ele>541.195</ele>
<time>2022-05-27T16:34:06Z</time>
</trkpt>
<trkpt lat="47.890411" lon="11.137428">
<ele>541.138</ele>
<time>2022-05-27T16:34:07Z</time>
</trkpt>
<trkpt lat="47.890453" lon="11.137383">
<ele>541.087</ele>
<time>2022-05-27T16:34:08Z</time>
</trkpt>
<trkpt lat="47.890491" lon="11.137341">
<ele>541.04</ele>
<time>2022-05-27T16:34:09Z</time>
</trkpt>
<trkpt lat="47.89053" lon="11.1373">
<ele>541.016</ele>
<time>2022-05-27T16:34:10Z</time>
</trkpt>
<trkpt lat="47.890572" lon="11.137259">
<ele>541.016</ele>
<time>2022-05-27T16:34:11Z</time>
</trkpt>
<trkpt lat="47.89061" lon="11.137214">
<ele>541.016</ele>
<time>2022-05-27T16:34:12Z</time>
</trkpt>
<trkpt lat="47.890652" lon="11.137168">
<ele>541.016</ele>
<time>2022-05-27T16:34:13Z</time>
</trkpt>
<trkpt lat="47.89069" lon="11.137122">
<ele>541.236</ele>
<time>2022-05-27T16:34:14Z</time>
</trkpt>
<trkpt lat="47.890728" lon="11.137078">
<ele>541.409</ele>
<time>2022-05-27T16:34:15Z</time>
</trkpt>
<trkpt lat="47.89077" lon="11.137032">
<ele>541.527</ele>
<time>2022-05-27T16:34:16Z</time>
</trkpt>
<trkpt lat="47.890812" lon="11.136987">
<ele>541.656</ele>
<time>2022-05-27T16:34:17Z</time>
</trkpt>
<trkpt lat="47.89085" lon="11.136938">
<ele>541.754</ele>
<time>2022-05-27T16:34:18Z</time>
</trkpt>
<trkpt lat="47.890892" lon="11.136889">
<ele>541.823</ele>
<time>2022-05-27T16:34:19Z</time>
</trkpt>
<trkpt lat="47.890938" lon="11.13684">
<ele>541.867</ele>
<time>2022-05-27T16:34:20Z</time>
</trkpt>
<trkpt lat="47.890984" lon="11.136791">
<ele>541.889</ele>
<time>2022-05-27T16:34:21Z</time>
</trkpt>
<trkpt lat="47.891026" lon="11.136744">
<ele>541.63</ele>
<time>2022-05-27T16:34:22Z</time>
</trkpt>
<trkpt lat="47.891068" lon="11.136701">
<ele>541.429</ele>
<time>2022-05-27T16:34:23Z</time>
</trkpt>
<trkpt lat="47.891109" lon="11.136657">
<ele>541.278</ele>
<time>2022-05-27T16:34:24Z</time>
</trkpt>
<trkpt lat="47.891148" lon="11.136615">
<ele>541.168</ele>
<time>2022-05-27T16:34:25Z</time>
</trkpt>
<trkpt lat="47.89119" lon="11.136571">
<ele>541.089</ele>
<time>2022-05-27T16:34:26Z</time>
</trkpt>
<trkpt lat="47.891228" lon="11.136529">
<ele>541.008</ele>
<time>2022-05-27T16:34:27Z</time>
</trkpt>
<trkpt lat="47.89127" lon="11.136485">
<ele>540.956</ele>
<time>2022-05-27T16:34:28Z</time>
</trkpt>
<trkpt lat="47.891312" lon="11.136443">
<ele>540.929</ele>
<time>2022-05-27T16:34:29Z</time>
</trkpt>
<trkpt lat="47.891354" lon="11.136398">
<ele>540.929</ele>
<time>2022-05-27T16:34:30Z</time>
</trkpt>
<trkpt lat="47.891399" lon="11.136352">
<ele>540.929</ele>
<time>2022-05-27T16:34:31Z</time>
</trkpt>
<trkpt lat="47.891438" lon="11.136305">
<ele>540.929</ele>
<time>2022-05-27T16:34:32Z</time>
</trkpt>
<trkpt lat="47.891483" lon="11.136256">
<ele>540.929</ele>
<time>2022-05-27T16:34:33Z</time>
</trkpt>
<trkpt lat="47.891525" lon="11.13621">
<ele>540.929</ele>
<time>2022-05-27T16:34:34Z</time>
</trkpt>
<trkpt lat="47.891563" lon="11.136164">
<ele>540.929</ele>
<time>2022-05-27T16:34:35Z</time>
</trkpt>
<trkpt lat="47.891605" lon="11.136118">
<ele>540.929</ele>
<time>2022-05-27T16:34:36Z</time>
</trkpt>
<trkpt lat="47.89164" lon="11.136075">
<ele>540.929</ele>
<time>2022-05-27T16:34:37Z</time>
</trkpt>
<trkpt lat="47.891682" lon="11.136032">
<ele>540.929</ele>
<time>2022-05-27T16:34:38Z</time>
</trkpt>
<trkpt lat="47.891724" lon="11.135988">
<ele>540.929</ele>
<time>2022-05-27T16:34:39Z</time>
</trkpt>
<trkpt lat="47.891762" lon="11.135946">
<ele>540.64</ele>
<time>2022-05-27T16:34:40Z</time>
</trkpt>
<trkpt lat="47.891804" lon="11.135902">
<ele>540.411</ele>
<time>2022-05-27T16:34:41Z</time>
</trkpt>
<trkpt lat="47.891842" lon="11.135855">
<ele>540.238</ele>
<time>2022-05-27T16:34:42Z</time>
</trkpt>
<trkpt lat="47.891888" lon="11.135808">
<ele>540.106</ele>
<time>2022-05-27T16:34:43Z</time>
</trkpt>
<trkpt lat="47.891926" lon="11.135764">
<ele>540.011</ele>
<time>2022-05-27T16:34:44Z</time>
</trkpt>
<trkpt lat="47.891968" lon="11.135718">
<ele>540.144</ele>
<time>2022-05-27T16:34:45Z</time>
</trkpt>
<trkpt lat="47.89201" lon="11.135674">
<ele>540.253</ele>
<time>2022-05-27T16:34:46Z</time>
</trkpt>
<trkpt lat="47.892048" lon="11.135632">
<ele>540.36</ele>
<time>2022-05-27T16:34:47Z</time>
</trkpt>
<trkpt lat="47.892086" lon="11.135589">
<ele>540.411</ele>
<time>2022-05-27T16:34:48Z</time>
</trkpt>
<trkpt lat="47.892128" lon="11.135545">
<ele>540.529</ele>
<time>2022-05-27T16:34:49Z</time>
</trkpt>
<trkpt lat="47.892166" lon="11.1355">
<ele>540.623</ele>
<time>2022-05-27T16:34:50Z</time>
</trkpt>
<trkpt lat="47.892208" lon="11.135454">
<ele>540.69</ele>
<time>2022-05-27T16:34:51Z</time>
</trkpt>
<trkpt lat="47.89225" lon="11.135408">
<ele>540.734</ele>
<time>2022-05-27T16:34:52Z</time>
</trkpt>
<trkpt lat="47.892284" lon="11.135362">
<ele>540.755</ele>
<time>2022-05-27T16:34:53Z</time>
</trkpt>
<trkpt lat="47.892326" lon="11.135314">
<ele>540.755</ele>
<time>2022-05-27T16:34:54Z</time>
</trkpt>
<trkpt lat="47.892368" lon="11.135267">
<ele>540.755</ele>
<time>2022-05-27T16:34:55Z</time>
</trkpt>
<trkpt lat="47.892406" lon="11.135218">
<ele>540.755</ele>
<time>2022-05-27T16:34:56Z</time>
</trkpt>
<trkpt lat="47.892445" lon="11.135172">
<ele>540.755</ele>
<time>2022-05-27T16:34:57Z</time>
</trkpt>
<trkpt lat="47.892479" lon="11.135123">
<ele>540.492</ele>
<time>2022-05-27T16:34:58Z</time>
</trkpt>
<trkpt lat="47.892525" lon="11.135073">
<ele>540.294</ele>
<time>2022-05-27T16:34:59Z</time>
</trkpt>
<trkpt lat="47.892563" lon="11.135023">
<ele>540.373</ele>
<time>2022-05-27T16:35:00Z</time>
</trkpt>
<trkpt lat="47.892609" lon="11.134974">
<ele>540.443</ele>
<time>2022-05-27T16:35:01Z</time>
</trkpt>
<trkpt lat="47.892651" lon="11.134924">
<ele>540.507</ele>
<time>2022-05-27T16:35:02Z</time>
</trkpt>
<trkpt lat="47.8927" lon="11.134875">
<ele>540.563</ele>
<time>2022-05-27T16:35:03Z</time>
</trkpt>
<trkpt lat="47.892738" lon="11.134827">
<ele>540.614</ele>
<time>2022-05-27T16:35:04Z</time>
</trkpt>
<trkpt lat="47.892788" lon="11.13478">
<ele>540.66</ele>
<time>2022-05-27T16:35:05Z</time>
</trkpt>
<trkpt lat="47.89283" lon="11.134731">
<ele>540.685</ele>
<time>2022-05-27T16:35:06Z</time>
</trkpt>
<trkpt lat="47.892868" lon="11.134684">
<ele>540.732</ele>
<time>2022-05-27T16:35:07Z</time>
</trkpt>
<trkpt lat="47.892914" lon="11.134633">
<ele>540.755</ele>
<time>2022-05-27T16:35:08Z</time>
</trkpt>
<trkpt lat="47.892956" lon="11.134584">
<ele>540.755</ele>
<time>2022-05-27T16:35:09Z</time>
</trkpt>
<trkpt lat="47.893002" lon="11.134537">
<ele>540.755</ele>
<time>2022-05-27T16:35:10Z</time>
</trkpt>
<trkpt lat="47.893047" lon="11.134486">
<ele>540.755</ele>
<time>2022-05-27T16:35:11Z</time>
</trkpt>
<trkpt lat="47.893089" lon="11.134436">
<ele>540.755</ele>
<time>2022-05-27T16:35:12Z</time>
</trkpt>
<trkpt lat="47.893131" lon="11.134383">
<ele>540.755</ele>
<time>2022-05-27T16:35:13Z</time>
</trkpt>
<trkpt lat="47.893173" lon="11.134337">
<ele>540.755</ele>
<time>2022-05-27T16:35:14Z</time>
</trkpt>
<trkpt lat="47.893215" lon="11.134294">
<ele>540.755</ele>
<time>2022-05-27T16:35:15Z</time>
</trkpt>
<trkpt lat="47.893261" lon="11.134252">
<ele>540.755</ele>
<time>2022-05-27T16:35:16Z</time>
</trkpt>
<trkpt lat="47.893295" lon="11.134208">
<ele>540.755</ele>
<time>2022-05-27T16:35:17Z</time>
</trkpt>
<trkpt lat="47.893341" lon="11.134162">
<ele>540.755</ele>
<time>2022-05-27T16:35:18Z</time>
</trkpt>
<trkpt lat="47.893387" lon="11.134113">
<ele>540.755</ele>
<time>2022-05-27T16:35:19Z</time>
</trkpt>
<trkpt lat="47.893433" lon="11.134061">
<ele>540.755</ele>
<time>2022-05-27T16:35:20Z</time>
</trkpt>
<trkpt lat="47.893482" lon="11.134007">
<ele>540.755</ele>
<time>2022-05-27T16:35:21Z</time>
</trkpt>
<trkpt lat="47.893528" lon="11.133952">
<ele>540.755</ele>
<time>2022-05-27T16:35:22Z</time>
</trkpt>
<trkpt lat="47.893581" lon="11.133898">
<ele>540.52</ele>
<time>2022-05-27T16:35:23Z</time>
</trkpt>
<trkpt lat="47.893631" lon="11.133845">
<ele>540.341</ele>
<time>2022-05-27T16:35:24Z</time>
</trkpt>
<trkpt lat="47.893681" lon="11.133797">
<ele>540.203</ele>
<time>2022-05-27T16:35:25Z</time>
</trkpt>
<trkpt lat="47.893726" lon="11.133748">
<ele>540.116</ele>
<time>2022-05-27T16:35:26Z</time>
</trkpt>
<trkpt lat="47.893772" lon="11.133702">
<ele>540.019</ele>
<time>2022-05-27T16:35:27Z</time>
</trkpt>
<trkpt lat="47.893814" lon="11.133655">
<ele>539.951</ele>
<time>2022-05-27T16:35:28Z</time>
</trkpt>
<trkpt lat="47.89386" lon="11.133608">
<ele>539.907</ele>
<time>2022-05-27T16:35:29Z</time>
</trkpt>
<trkpt lat="47.893906" lon="11.133563">
<ele>539.862</ele>
<time>2022-05-27T16:35:30Z</time>
</trkpt>
<trkpt lat="47.893944" lon="11.133516">
<ele>539.84</ele>
<time>2022-05-27T16:35:31Z</time>
</trkpt>
<trkpt lat="47.893986" lon="11.13347">
<ele>539.826</ele>
<time>2022-05-27T16:35:32Z</time>
</trkpt>
<trkpt lat="47.894032" lon="11.133425">
<ele>539.815</ele>
<time>2022-05-27T16:35:33Z</time>
</trkpt>
<trkpt lat="47.894073" lon="11.13338">
<ele>539.807</ele>
<time>2022-05-27T16:35:34Z</time>
</trkpt>
<trkpt lat="47.894112" lon="11.133333">
<ele>539.802</ele>
<time>2022-05-27T16:35:35Z</time>
</trkpt>
<trkpt lat="47.894154" lon="11.133286">
<ele>539.798</ele>
<time>2022-05-27T16:35:36Z</time>
</trkpt>
<trkpt lat="47.894199" lon="11.133238">
<ele>540.056</ele>
<time>2022-05-27T16:35:37Z</time>
</trkpt>
<trkpt lat="47.894238" lon="11.133191">
<ele>540.264</ele>
<time>2022-05-27T16:35:38Z</time>
</trkpt>
<trkpt lat="47.894279" lon="11.133145">
<ele>540.441</ele>
<time>2022-05-27T16:35:39Z</time>
</trkpt>
<trkpt lat="47.894325" lon="11.133099">
<ele>540.582</ele>
<time>2022-05-27T16:35:40Z</time>
</trkpt>
<trkpt lat="47.894367" lon="11.133051">
<ele>540.69</ele>
<time>2022-05-27T16:35:41Z</time>
</trkpt>
<trkpt lat="47.894409" lon="11.133005">
<ele>540.769</ele>
<time>2022-05-27T16:35:42Z</time>
</trkpt>
<trkpt lat="47.894455" lon="11.13296">
<ele>540.818</ele>
<time>2022-05-27T16:35:43Z</time>
</trkpt>
<trkpt lat="47.894497" lon="11.132913">
<ele>540.842</ele>
<time>2022-05-27T16:35:44Z</time>
</trkpt>
<trkpt lat="47.894539" lon="11.132865">
<ele>540.842</ele>
<time>2022-05-27T16:35:45Z</time>
</trkpt>
<trkpt lat="47.894581" lon="11.132818">
<ele>540.842</ele>
<time>2022-05-27T16:35:46Z</time>
</trkpt>
<trkpt lat="47.894623" lon="11.132773">
<ele>540.842</ele>
<time>2022-05-27T16:35:47Z</time>
</trkpt>
<trkpt lat="47.894665" lon="11.132727">
<ele>540.842</ele>
<time>2022-05-27T16:35:48Z</time>
</trkpt>
<trkpt lat="47.894703" lon="11.13268">
<ele>540.842</ele>
<time>2022-05-27T16:35:49Z</time>
</trkpt>
<trkpt lat="47.894745" lon="11.132634">
<ele>540.842</ele>
<time>2022-05-27T16:35:50Z</time>
</trkpt>
<trkpt lat="47.894791" lon="11.132588">
<ele>540.842</ele>
<time>2022-05-27T16:35:51Z</time>
</trkpt>
<trkpt lat="47.894829" lon="11.132544">
<ele>540.842</ele>
<time>2022-05-27T16:35:52Z</time>
</trkpt>
<trkpt lat="47.894871" lon="11.132498">
<ele>540.842</ele>
<time>2022-05-27T16:35:53Z</time>
</trkpt>
<trkpt lat="47.894909" lon="11.132452">
<ele>540.842</ele>
<time>2022-05-27T16:35:54Z</time>
</trkpt>
<trkpt lat="47.894947" lon="11.132405">
<ele>540.842</ele>
<time>2022-05-27T16:35:55Z</time>
</trkpt>
<trkpt lat="47.894985" lon="11.132357">
<ele>540.842</ele>
<time>2022-05-27T16:35:56Z</time>
</trkpt>
<trkpt lat="47.89502" lon="11.132308">
<ele>540.842</ele>
<time>2022-05-27T16:35:57Z</time>
</trkpt>
<trkpt lat="47.895058" lon="11.132265">
<ele>540.842</ele>
<time>2022-05-27T16:35:58Z</time>
</trkpt>
<trkpt lat="47.895103" lon="11.132225">
<ele>540.842</ele>
<time>2022-05-27T16:35:59Z</time>
</trkpt>
<trkpt lat="47.895149" lon="11.132183">
<ele>540.842</ele>
<time>2022-05-27T16:36:00Z</time>
</trkpt>
<trkpt lat="47.895191" lon="11.132137">
<ele>540.842</ele>
<time>2022-05-27T16:36:01Z</time>
</trkpt>
<trkpt lat="47.895237" lon="11.132089">
<ele>540.842</ele>
<time>2022-05-27T16:36:02Z</time>
</trkpt>
<trkpt lat="47.895283" lon="11.132042">
<ele>540.842</ele>
<time>2022-05-27T16:36:03Z</time>
</trkpt>
<trkpt lat="47.895325" lon="11.131995">
<ele>540.842</ele>
<time>2022-05-27T16:36:04Z</time>
</trkpt>
<trkpt lat="47.895374" lon="11.131948">
<ele>540.842</ele>
<time>2022-05-27T16:36:05Z</time>
</trkpt>
<trkpt lat="47.895416" lon="11.131901">
<ele>540.842</ele>
<time>2022-05-27T16:36:06Z</time>
</trkpt>
<trkpt lat="47.895462" lon="11.131853">
<ele>541.079</ele>
<time>2022-05-27T16:36:07Z</time>
</trkpt>
<trkpt lat="47.895508" lon="11.131808">
<ele>541.274</ele>
<time>2022-05-27T16:36:08Z</time>
</trkpt>
<trkpt lat="47.895554" lon="11.131761">
<ele>541.433</ele>
<time>2022-05-27T16:36:09Z</time>
</trkpt>
<trkpt lat="47.895603" lon="11.131712">
<ele>541.562</ele>
<time>2022-05-27T16:36:10Z</time>
</trkpt>
<trkpt lat="47.895645" lon="11.131663">
<ele>541.662</ele>
<time>2022-05-27T16:36:11Z</time>
</trkpt>
<trkpt lat="47.895691" lon="11.131616">
<ele>541.734</ele>
<time>2022-05-27T16:36:12Z</time>
</trkpt>
<trkpt lat="47.895733" lon="11.131563">
<ele>541.78</ele>
<time>2022-05-27T16:36:13Z</time>
</trkpt>
<trkpt lat="47.895775" lon="11.13151">
<ele>541.802</ele>
<time>2022-05-27T16:36:14Z</time>
</trkpt>
<trkpt lat="47.895817" lon="11.13146">
<ele>541.802</ele>
<time>2022-05-27T16:36:15Z</time>
</trkpt>
<trkpt lat="47.895863" lon="11.131413">
<ele>541.802</ele>
<time>2022-05-27T16:36:16Z</time>
</trkpt>
<trkpt lat="47.895901" lon="11.131369">
<ele>541.802</ele>
<time>2022-05-27T16:36:17Z</time>
</trkpt>
<trkpt lat="47.895947" lon="11.131325">
<ele>541.802</ele>
<time>2022-05-27T16:36:18Z</time>
</trkpt>
<trkpt lat="47.895988" lon="11.131278">
<ele>541.802</ele>
<time>2022-05-27T16:36:19Z</time>
</trkpt>
<trkpt lat="47.89603" lon="11.131233">
<ele>541.802</ele>
<time>2022-05-27T16:36:20Z</time>
</trkpt>
<trkpt lat="47.896069" lon="11.13119">
<ele>541.802</ele>
<time>2022-05-27T16:36:21Z</time>
</trkpt>
<trkpt lat="47.896114" lon="11.131146">
<ele>541.802</ele>
<time>2022-05-27T16:36:22Z</time>
</trkpt>
<trkpt lat="47.896156" lon="11.131104">
<ele>541.802</ele>
<time>2022-05-27T16:36:23Z</time>
</trkpt>
<trkpt lat="47.896198" lon="11.131061">
<ele>541.802</ele>
<time>2022-05-27T16:36:24Z</time>
</trkpt>
<trkpt lat="47.896244" lon="11.131015">
<ele>541.802</ele>
<time>2022-05-27T16:36:25Z</time>
</trkpt>
<trkpt lat="47.896286" lon="11.130973">
<ele>541.802</ele>
<time>2022-05-27T16:36:26Z</time>
</trkpt>
<trkpt lat="47.896324" lon="11.130928">
<ele>541.802</ele>
<time>2022-05-27T16:36:27Z</time>
</trkpt>
<trkpt lat="47.896362" lon="11.130885">
<ele>541.802</ele>
<time>2022-05-27T16:36:28Z</time>
</trkpt>
<trkpt lat="47.896404" lon="11.130841">
<ele>541.802</ele>
<time>2022-05-27T16:36:29Z</time>
</trkpt>
<trkpt lat="47.896446" lon="11.130798">
<ele>541.802</ele>
<time>2022-05-27T16:36:30Z</time>
</trkpt>
<trkpt lat="47.896484" lon="11.130752">
<ele>541.802</ele>
<time>2022-05-27T16:36:31Z</time>
</trkpt>
<trkpt lat="47.896523" lon="11.130707">
<ele>541.802</ele>
<time>2022-05-27T16:36:32Z</time>
</trkpt>
<trkpt lat="47.896568" lon="11.13066">
<ele>541.802</ele>
<time>2022-05-27T16:36:33Z</time>
</trkpt>
<trkpt lat="47.896614" lon="11.130614">
<ele>541.802</ele>
<time>2022-05-27T16:36:34Z</time>
</trkpt>
<trkpt lat="47.896652" lon="11.130573">
<ele>541.802</ele>
<time>2022-05-27T16:36:35Z</time>
</trkpt>
<trkpt lat="47.896698" lon="11.130524">
<ele>541.802</ele>
<time>2022-05-27T16:36:36Z</time>
</trkpt>
<trkpt lat="47.896736" lon="11.130474">
<ele>541.802</ele>
<time>2022-05-27T16:36:37Z</time>
</trkpt>
<trkpt lat="47.896778" lon="11.130422">
<ele>541.802</ele>
<time>2022-05-27T16:36:38Z</time>
</trkpt>
<trkpt lat="47.896816" lon="11.130373">
<ele>541.802</ele>
<time>2022-05-27T16:36:39Z</time>
</trkpt>
<trkpt lat="47.896858" lon="11.13033">
<ele>541.802</ele>
<time>2022-05-27T16:36:40Z</time>
</trkpt>
<trkpt lat="47.896904" lon="11.130285">
<ele>541.802</ele>
<time>2022-05-27T16:36:41Z</time>
</trkpt>
<trkpt lat="47.896942" lon="11.130239">
<ele>541.802</ele>
<time>2022-05-27T16:36:42Z</time>
</trkpt>
<trkpt lat="47.896976" lon="11.130198">
<ele>541.802</ele>
<time>2022-05-27T16:36:43Z</time>
</trkpt>
<trkpt lat="47.897015" lon="11.130154">
<ele>541.802</ele>
<time>2022-05-27T16:36:44Z</time>
</trkpt>
<trkpt lat="47.897053" lon="11.130108">
<ele>541.594</ele>
<time>2022-05-27T16:36:45Z</time>
</trkpt>
<trkpt lat="47.897087" lon="11.130065">
<ele>541.444</ele>
<time>2022-05-27T16:36:46Z</time>
</trkpt>
<trkpt lat="47.897125" lon="11.130022">
<ele>541.29</ele>
<time>2022-05-27T16:36:47Z</time>
</trkpt>
<trkpt lat="47.897167" lon="11.129975">
<ele>541.165</ele>
<time>2022-05-27T16:36:48Z</time>
</trkpt>
<trkpt lat="47.897205" lon="11.12993">
<ele>541.068</ele>
<time>2022-05-27T16:36:49Z</time>
</trkpt>
<trkpt lat="47.897251" lon="11.129879">
<ele>540.996</ele>
<time>2022-05-27T16:36:50Z</time>
</trkpt>
<trkpt lat="47.897293" lon="11.129828">
<ele>540.949</ele>
<time>2022-05-27T16:36:51Z</time>
</trkpt>
<trkpt lat="47.897331" lon="11.129779">
<ele>540.929</ele>
<time>2022-05-27T16:36:52Z</time>
</trkpt>
<trkpt lat="47.897369" lon="11.12973">
<ele>540.929</ele>
<time>2022-05-27T16:36:53Z</time>
</trkpt>
<trkpt lat="47.897408" lon="11.129682">
<ele>540.929</ele>
<time>2022-05-27T16:36:54Z</time>
</trkpt>
<trkpt lat="47.897457" lon="11.129632">
<ele>540.929</ele>
<time>2022-05-27T16:36:55Z</time>
</trkpt>
<trkpt lat="47.897499" lon="11.12958">
<ele>540.929</ele>
<time>2022-05-27T16:36:56Z</time>
</trkpt>
<trkpt lat="47.897541" lon="11.129534">
<ele>541.144</ele>
<time>2022-05-27T16:36:57Z</time>
</trkpt>
<trkpt lat="47.897591" lon="11.129487">
<ele>541.322</ele>
<time>2022-05-27T16:36:58Z</time>
</trkpt>
<trkpt lat="47.897633" lon="11.129438">
<ele>541.472</ele>
<time>2022-05-27T16:36:59Z</time>
</trkpt>
<trkpt lat="47.897682" lon="11.129391">
<ele>541.525</ele>
<time>2022-05-27T16:37:00Z</time>
</trkpt>
<trkpt lat="47.897732" lon="11.129343">
<ele>541.404</ele>
<time>2022-05-27T16:37:01Z</time>
</trkpt>
<trkpt lat="47.897778" lon="11.129296">
<ele>541.299</ele>
<time>2022-05-27T16:37:02Z</time>
</trkpt>
<trkpt lat="47.897823" lon="11.129252">
<ele>541.21</ele>
<time>2022-05-27T16:37:03Z</time>
</trkpt>
<trkpt lat="47.897865" lon="11.129205">
<ele>541.129</ele>
<time>2022-05-27T16:37:04Z</time>
</trkpt>
<trkpt lat="47.897911" lon="11.129158">
<ele>541.055</ele>
<time>2022-05-27T16:37:05Z</time>
</trkpt>
<trkpt lat="47.897957" lon="11.129113">
<ele>541.001</ele>
<time>2022-05-27T16:37:06Z</time>
</trkpt>
<trkpt lat="47.897999" lon="11.12907">
<ele>540.953</ele>
<time>2022-05-27T16:37:07Z</time>
</trkpt>
<trkpt lat="47.898045" lon="11.129025">
<ele>540.929</ele>
<time>2022-05-27T16:37:08Z</time>
</trkpt>
<trkpt lat="47.898087" lon="11.12898">
<ele>540.929</ele>
<time>2022-05-27T16:37:09Z</time>
</trkpt>
<trkpt lat="47.898129" lon="11.128935">
<ele>540.929</ele>
<time>2022-05-27T16:37:10Z</time>
</trkpt>
<trkpt lat="47.89817" lon="11.128893">
<ele>540.929</ele>
<time>2022-05-27T16:37:11Z</time>
</trkpt>
<trkpt lat="47.898216" lon="11.128846">
<ele>540.929</ele>
<time>2022-05-27T16:37:12Z</time>
</trkpt>
<trkpt lat="47.898258" lon="11.1288">
<ele>540.929</ele>
<time>2022-05-27T16:37:13Z</time>
</trkpt>
<trkpt lat="47.898304" lon="11.128754">
<ele>540.929</ele>
<time>2022-05-27T16:37:14Z</time>
</trkpt>
<trkpt lat="47.898346" lon="11.128705">
<ele>540.929</ele>
<time>2022-05-27T16:37:15Z</time>
</trkpt>
<trkpt lat="47.898388" lon="11.12866">
<ele>540.929</ele>
<time>2022-05-27T16:37:16Z</time>
</trkpt>
<trkpt lat="47.898434" lon="11.128618">
<ele>540.929</ele>
<time>2022-05-27T16:37:17Z</time>
</trkpt>
<trkpt lat="47.898472" lon="11.128575">
<ele>540.929</ele>
<time>2022-05-27T16:37:18Z</time>
</trkpt>
<trkpt lat="47.89851" lon="11.128533">
<ele>540.929</ele>
<time>2022-05-27T16:37:19Z</time>
</trkpt>
<trkpt lat="47.898548" lon="11.128493">
<ele>540.929</ele>
<time>2022-05-27T16:37:20Z</time>
</trkpt>
<trkpt lat="47.89859" lon="11.128452">
<ele>540.929</ele>
<time>2022-05-27T16:37:21Z</time>
</trkpt>
<trkpt lat="47.898632" lon="11.128408">
<ele>540.929</ele>
<time>2022-05-27T16:37:22Z</time>
</trkpt>
<trkpt lat="47.89867" lon="11.128365">
<ele>540.929</ele>
<time>2022-05-27T16:37:23Z</time>
</trkpt>
<trkpt lat="47.898712" lon="11.128322">
<ele>540.929</ele>
<time>2022-05-27T16:37:24Z</time>
</trkpt>
<trkpt lat="47.898758" lon="11.128275">
<ele>540.929</ele>
<time>2022-05-27T16:37:25Z</time>
</trkpt>
<trkpt lat="47.898804" lon="11.12823">
<ele>540.929</ele>
<time>2022-05-27T16:37:26Z</time>
</trkpt>
<trkpt lat="47.898842" lon="11.128181">
<ele>540.929</ele>
<time>2022-05-27T16:37:27Z</time>
</trkpt>
<trkpt lat="47.898884" lon="11.128136">
<ele>540.929</ele>
<time>2022-05-27T16:37:28Z</time>
</trkpt>
<trkpt lat="47.89893" lon="11.128092">
<ele>540.929</ele>
<time>2022-05-27T16:37:29Z</time>
</trkpt>
<trkpt lat="47.898968" lon="11.12805">
<ele>540.929</ele>
<time>2022-05-27T16:37:30Z</time>
</trkpt>
<trkpt lat="47.89901" lon="11.128006">
<ele>540.929</ele>
<time>2022-05-27T16:37:31Z</time>
</trkpt>
<trkpt lat="47.899052" lon="11.127962">
<ele>540.929</ele>
<time>2022-05-27T16:37:32Z</time>
</trkpt>
<trkpt lat="47.89909" lon="11.127918">
<ele>540.929</ele>
<time>2022-05-27T16:37:33Z</time>
</trkpt>
<trkpt lat="47.899128" lon="11.127873">
<ele>540.929</ele>
<time>2022-05-27T16:37:34Z</time>
</trkpt>
<trkpt lat="47.89917" lon="11.127829">
<ele>540.929</ele>
<time>2022-05-27T16:37:35Z</time>
</trkpt>
<trkpt lat="47.899208" lon="11.127784">
<ele>540.929</ele>
<time>2022-05-27T16:37:36Z</time>
</trkpt>
<trkpt lat="47.899246" lon="11.127736">
<ele>540.929</ele>
<time>2022-05-27T16:37:37Z</time>
</trkpt>
<trkpt lat="47.899284" lon="11.127691">
<ele>540.929</ele>
<time>2022-05-27T16:37:38Z</time>
</trkpt>
<trkpt lat="47.899323" lon="11.127645">
<ele>540.929</ele>
<time>2022-05-27T16:37:39Z</time>
</trkpt>
<trkpt lat="47.899357" lon="11.127598">
<ele>540.929</ele>
<time>2022-05-27T16:37:40Z</time>
</trkpt>
<trkpt lat="47.899391" lon="11.127548">
<ele>540.929</ele>
<time>2022-05-27T16:37:41Z</time>
</trkpt>
<trkpt lat="47.899429" lon="11.127501">
<ele>540.929</ele>
<time>2022-05-27T16:37:42Z</time>
</trkpt>
<trkpt lat="47.899467" lon="11.127453">
<ele>540.929</ele>
<time>2022-05-27T16:37:43Z</time>
</trkpt>
<trkpt lat="47.899502" lon="11.127403">
<ele>540.929</ele>
<time>2022-05-27T16:37:44Z</time>
</trkpt>
<trkpt lat="47.89954" lon="11.127357">
<ele>540.929</ele>
<time>2022-05-27T16:37:45Z</time>
</trkpt>
<trkpt lat="47.899578" lon="11.12731">
<ele>540.929</ele>
<time>2022-05-27T16:37:46Z</time>
</trkpt>
<trkpt lat="47.899616" lon="11.127267">
<ele>540.929</ele>
<time>2022-05-27T16:37:47Z</time>
</trkpt>
<trkpt lat="47.899651" lon="11.127225">
<ele>540.929</ele>
<time>2022-05-27T16:37:48Z</time>
</trkpt>
<trkpt lat="47.899693" lon="11.127183">
<ele>541.206</ele>
<time>2022-05-27T16:37:49Z</time>
</trkpt>
<trkpt lat="47.899731" lon="11.12714">
<ele>541.422</ele>
<time>2022-05-27T16:37:50Z</time>
</trkpt>
<trkpt lat="47.899769" lon="11.127097">
<ele>541.585</ele>
<time>2022-05-27T16:37:51Z</time>
</trkpt>
<trkpt lat="47.899803" lon="11.127057">
<ele>541.705</ele>
<time>2022-05-27T16:37:52Z</time>
</trkpt>
<trkpt lat="47.899837" lon="11.127017">
<ele>541.785</ele>
<time>2022-05-27T16:37:53Z</time>
</trkpt>
<trkpt lat="47.899872" lon="11.12698">
<ele>541.841</ele>
<time>2022-05-27T16:37:54Z</time>
</trkpt>
<trkpt lat="47.899906" lon="11.12694">
<ele>541.867</ele>
<time>2022-05-27T16:37:55Z</time>
</trkpt>
<trkpt lat="47.89994" lon="11.126902">
<ele>541.889</ele>
<time>2022-05-27T16:37:56Z</time>
</trkpt>
<trkpt lat="47.899975" lon="11.126862">
<ele>541.889</ele>
<time>2022-05-27T16:37:57Z</time>
</trkpt>
<trkpt lat="47.900009" lon="11.126823">
<ele>541.889</ele>
<time>2022-05-27T16:37:58Z</time>
</trkpt>
<trkpt lat="47.900047" lon="11.126782">
<ele>541.889</ele>
<time>2022-05-27T16:37:59Z</time>
</trkpt>
<trkpt lat="47.900082" lon="11.126741">
<ele>541.889</ele>
<time>2022-05-27T16:38:00Z</time>
</trkpt>
<trkpt lat="47.900116" lon="11.126701">
<ele>541.889</ele>
<time>2022-05-27T16:38:01Z</time>
</trkpt>
<trkpt lat="47.90015" lon="11.126661">
<ele>541.889</ele>
<time>2022-05-27T16:38:02Z</time>
</trkpt>
<trkpt lat="47.900185" lon="11.126623">
<ele>541.666</ele>
<time>2022-05-27T16:38:03Z</time>
</trkpt>
<trkpt lat="47.900219" lon="11.126587">
<ele>541.493</ele>
<time>2022-05-27T16:38:04Z</time>
</trkpt>
<trkpt lat="47.900257" lon="11.126554">
<ele>541.356</ele>
<time>2022-05-27T16:38:05Z</time>
</trkpt>
<trkpt lat="47.900291" lon="11.126516">
<ele>541.263</ele>
<time>2022-05-27T16:38:06Z</time>
</trkpt>
<trkpt lat="47.900326" lon="11.126481">
<ele>541.162</ele>
<time>2022-05-27T16:38:07Z</time>
</trkpt>
<trkpt lat="47.900352" lon="11.126445">
<ele>541.088</ele>
<time>2022-05-27T16:38:08Z</time>
</trkpt>
<trkpt lat="47.900383" lon="11.126408">
<ele>541.039</ele>
<time>2022-05-27T16:38:09Z</time>
</trkpt>
<trkpt lat="47.900417" lon="11.126373">
<ele>541.016</ele>
<time>2022-05-27T16:38:10Z</time>
</trkpt>
<trkpt lat="47.900448" lon="11.126336">
<ele>541.016</ele>
<time>2022-05-27T16:38:11Z</time>
</trkpt>
<trkpt lat="47.900482" lon="11.126299">
<ele>541.016</ele>
<time>2022-05-27T16:38:12Z</time>
</trkpt>
<trkpt lat="47.900513" lon="11.126262">
<ele>541.016</ele>
<time>2022-05-27T16:38:13Z</time>
</trkpt>
<trkpt lat="47.900539" lon="11.126228">
<ele>541.016</ele>
<time>2022-05-27T16:38:14Z</time>
</trkpt>
<trkpt lat="47.90057" lon="11.12619">
<ele>541.016</ele>
<time>2022-05-27T16:38:15Z</time>
</trkpt>
<trkpt lat="47.900604" lon="11.12615">
<ele>541.016</ele>
<time>2022-05-27T16:38:16Z</time>
</trkpt>
<trkpt lat="47.900639" lon="11.12611">
<ele>541.016</ele>
<time>2022-05-27T16:38:17Z</time>
</trkpt>
<trkpt lat="47.900673" lon="11.126068">
<ele>541.016</ele>
<time>2022-05-27T16:38:18Z</time>
</trkpt>
<trkpt lat="47.900703" lon="11.12603">
<ele>541.016</ele>
<time>2022-05-27T16:38:19Z</time>
</trkpt>
<trkpt lat="47.900742" lon="11.125992">
<ele>541.016</ele>
<time>2022-05-27T16:38:20Z</time>
</trkpt>
<trkpt lat="47.900772" lon="11.125951">
<ele>541.016</ele>
<time>2022-05-27T16:38:21Z</time>
</trkpt>
<trkpt lat="47.900814" lon="11.125912">
<ele>541.016</ele>
<time>2022-05-27T16:38:22Z</time>
</trkpt>
<trkpt lat="47.900852" lon="11.125877">
<ele>541.016</ele>
<time>2022-05-27T16:38:23Z</time>
</trkpt>
<trkpt lat="47.900887" lon="11.125837">
<ele>541.236</ele>
<time>2022-05-27T16:38:24Z</time>
</trkpt>
<trkpt lat="47.900921" lon="11.125796">
<ele>541.41</ele>
<time>2022-05-27T16:38:25Z</time>
</trkpt>
<trkpt lat="47.900955" lon="11.125762">
<ele>541.529</ele>
<time>2022-05-27T16:38:26Z</time>
</trkpt>
<trkpt lat="47.900993" lon="11.125727">
<ele>541.656</ele>
<time>2022-05-27T16:38:27Z</time>
</trkpt>
<trkpt lat="47.901028" lon="11.12569">
<ele>541.752</ele>
<time>2022-05-27T16:38:28Z</time>
</trkpt>
<trkpt lat="47.901062" lon="11.125651">
<ele>541.821</ele>
<time>2022-05-27T16:38:29Z</time>
</trkpt>
<trkpt lat="47.901093" lon="11.125615">
<ele>541.865</ele>
<time>2022-05-27T16:38:30Z</time>
</trkpt>
<trkpt lat="47.901131" lon="11.125576">
<ele>541.889</ele>
<time>2022-05-27T16:38:31Z</time>
</trkpt>
<trkpt lat="47.901165" lon="11.12554">
<ele>541.889</ele>
<time>2022-05-27T16:38:32Z</time>
</trkpt>
<trkpt lat="47.901203" lon="11.125502">
<ele>541.889</ele>
<time>2022-05-27T16:38:33Z</time>
</trkpt>
<trkpt lat="47.901237" lon="11.125464">
<ele>541.889</ele>
<time>2022-05-27T16:38:34Z</time>
</trkpt>
<trkpt lat="47.901276" lon="11.125428">
<ele>541.889</ele>
<time>2022-05-27T16:38:35Z</time>
</trkpt>
<trkpt lat="47.90131" lon="11.125392">
<ele>541.889</ele>
<time>2022-05-27T16:38:36Z</time>
</trkpt>
<trkpt lat="47.901344" lon="11.125356">
<ele>541.889</ele>
<time>2022-05-27T16:38:37Z</time>
</trkpt>
<trkpt lat="47.901379" lon="11.125317">
<ele>541.889</ele>
<time>2022-05-27T16:38:38Z</time>
</trkpt>
<trkpt lat="47.901409" lon="11.125282">
<ele>541.889</ele>
<time>2022-05-27T16:38:39Z</time>
</trkpt>
<trkpt lat="47.901443" lon="11.125247">
<ele>541.889</ele>
<time>2022-05-27T16:38:40Z</time>
</trkpt>
<trkpt lat="47.901474" lon="11.12521">
<ele>541.889</ele>
<time>2022-05-27T16:38:41Z</time>
</trkpt>
<trkpt lat="47.901508" lon="11.125174">
<ele>541.889</ele>
<time>2022-05-27T16:38:42Z</time>
</trkpt>
<trkpt lat="47.901543" lon="11.125138">
<ele>541.889</ele>
<time>2022-05-27T16:38:43Z</time>
</trkpt>
<trkpt lat="47.901577" lon="11.125105">
<ele>541.889</ele>
<time>2022-05-27T16:38:44Z</time>
</trkpt>
<trkpt lat="47.901611" lon="11.125069">
<ele>541.889</ele>
<time>2022-05-27T16:38:45Z</time>
</trkpt>
<trkpt lat="47.901646" lon="11.125031">
<ele>541.889</ele>
<time>2022-05-27T16:38:46Z</time>
</trkpt>
<trkpt lat="47.90168" lon="11.124995">
<ele>541.889</ele>
<time>2022-05-27T16:38:47Z</time>
</trkpt>
<trkpt lat="47.901714" lon="11.124958">
<ele>541.889</ele>
<time>2022-05-27T16:38:48Z</time>
</trkpt>
<trkpt lat="47.901752" lon="11.124916">
<ele>541.889</ele>
<time>2022-05-27T16:38:49Z</time>
</trkpt>
<trkpt lat="47.901787" lon="11.124871">
<ele>541.889</ele>
<time>2022-05-27T16:38:50Z</time>
</trkpt>
<trkpt lat="47.901821" lon="11.124834">
<ele>541.889</ele>
<time>2022-05-27T16:38:51Z</time>
</trkpt>
<trkpt lat="47.901855" lon="11.124794">
<ele>541.889</ele>
<time>2022-05-27T16:38:52Z</time>
</trkpt>
<trkpt lat="47.901894" lon="11.124752">
<ele>541.889</ele>
<time>2022-05-27T16:38:53Z</time>
</trkpt>
<trkpt lat="47.901932" lon="11.124712">
<ele>541.889</ele>
<time>2022-05-27T16:38:54Z</time>
</trkpt>
<trkpt lat="47.901966" lon="11.124672">
<ele>541.889</ele>
<time>2022-05-27T16:38:55Z</time>
</trkpt>
<trkpt lat="47.901997" lon="11.12463">
<ele>541.889</ele>
<time>2022-05-27T16:38:56Z</time>
</trkpt>
<trkpt lat="47.902031" lon="11.124593">
<ele>541.889</ele>
<time>2022-05-27T16:38:57Z</time>
</trkpt>
<trkpt lat="47.902065" lon="11.124557">
<ele>541.889</ele>
<time>2022-05-27T16:38:58Z</time>
</trkpt>
<trkpt lat="47.902096" lon="11.12452">
<ele>541.889</ele>
<time>2022-05-27T16:38:59Z</time>
</trkpt>
<trkpt lat="47.902134" lon="11.12448">
<ele>541.889</ele>
<time>2022-05-27T16:39:00Z</time>
</trkpt>
<trkpt lat="47.902168" lon="11.124442">
<ele>541.889</ele>
<time>2022-05-27T16:39:01Z</time>
</trkpt>
<trkpt lat="47.902206" lon="11.124402">
<ele>541.889</ele>
<time>2022-05-27T16:39:02Z</time>
</trkpt>
<trkpt lat="47.902245" lon="11.124363">
<ele>541.889</ele>
<time>2022-05-27T16:39:03Z</time>
</trkpt>
<trkpt lat="47.902275" lon="11.124323">
<ele>541.889</ele>
<time>2022-05-27T16:39:04Z</time>
</trkpt>
<trkpt lat="47.902313" lon="11.124285">
<ele>541.889</ele>
<time>2022-05-27T16:39:05Z</time>
</trkpt>
<trkpt lat="47.902355" lon="11.124244">
<ele>541.889</ele>
<time>2022-05-27T16:39:06Z</time>
</trkpt>
<trkpt lat="47.90239" lon="11.124206">
<ele>541.889</ele>
<time>2022-05-27T16:39:07Z</time>
</trkpt>
<trkpt lat="47.902424" lon="11.124166">
<ele>541.889</ele>
<time>2022-05-27T16:39:08Z</time>
</trkpt>
<trkpt lat="47.902462" lon="11.124126">
<ele>541.889</ele>
<time>2022-05-27T16:39:09Z</time>
</trkpt>
<trkpt lat="47.902493" lon="11.124086">
<ele>541.889</ele>
<time>2022-05-27T16:39:10Z</time>
</trkpt>
<trkpt lat="47.902527" lon="11.124044">
<ele>541.889</ele>
<time>2022-05-27T16:39:11Z</time>
</trkpt>
<trkpt lat="47.902561" lon="11.124003">
<ele>541.889</ele>
<time>2022-05-27T16:39:12Z</time>
</trkpt>
<trkpt lat="47.902599" lon="11.123965">
<ele>541.889</ele>
<time>2022-05-27T16:39:13Z</time>
</trkpt>
<trkpt lat="47.90263" lon="11.123925">
<ele>541.889</ele>
<time>2022-05-27T16:39:14Z</time>
</trkpt>
<trkpt lat="47.902664" lon="11.123883">
<ele>541.889</ele>
<time>2022-05-27T16:39:15Z</time>
</trkpt>
<trkpt lat="47.902702" lon="11.123843">
<ele>541.889</ele>
<time>2022-05-27T16:39:16Z</time>
</trkpt>
<trkpt lat="47.90274" lon="11.123808">
<ele>541.889</ele>
<time>2022-05-27T16:39:17Z</time>
</trkpt>
<trkpt lat="47.902779" lon="11.123772">
<ele>542.179</ele>
<time>2022-05-27T16:39:18Z</time>
</trkpt>
<trkpt lat="47.902813" lon="11.123734">
<ele>542.397</ele>
<time>2022-05-27T16:39:19Z</time>
</trkpt>
<trkpt lat="47.902851" lon="11.123692">
<ele>542.565</ele>
<time>2022-05-27T16:39:20Z</time>
</trkpt>
<trkpt lat="47.902889" lon="11.123649">
<ele>542.687</ele>
<time>2022-05-27T16:39:21Z</time>
</trkpt>
<trkpt lat="47.902927" lon="11.123604">
<ele>542.776</ele>
<time>2022-05-27T16:39:22Z</time>
</trkpt>
<trkpt lat="47.902966" lon="11.123558">
<ele>542.82</ele>
<time>2022-05-27T16:39:23Z</time>
</trkpt>
<trkpt lat="47.903008" lon="11.123514">
<ele>542.844</ele>
<time>2022-05-27T16:39:24Z</time>
</trkpt>
<trkpt lat="47.903046" lon="11.123464">
<ele>542.848</ele>
<time>2022-05-27T16:39:25Z</time>
</trkpt>
<trkpt lat="47.903091" lon="11.123416">
<ele>542.848</ele>
<time>2022-05-27T16:39:26Z</time>
</trkpt>
<trkpt lat="47.903137" lon="11.123367">
<ele>542.848</ele>
<time>2022-05-27T16:39:27Z</time>
</trkpt>
<trkpt lat="47.903179" lon="11.123319">
<ele>542.848</ele>
<time>2022-05-27T16:39:28Z</time>
</trkpt>
<trkpt lat="47.903225" lon="11.12327">
<ele>542.848</ele>
<time>2022-05-27T16:39:29Z</time>
</trkpt>
<trkpt lat="47.903263" lon="11.123225">
<ele>542.848</ele>
<time>2022-05-27T16:39:30Z</time>
</trkpt>
<trkpt lat="47.903305" lon="11.123183">
<ele>542.848</ele>
<time>2022-05-27T16:39:31Z</time>
</trkpt>
<trkpt lat="47.903347" lon="11.123139">
<ele>543.1</ele>
<time>2022-05-27T16:39:32Z</time>
</trkpt>
<trkpt lat="47.903389" lon="11.123098">
<ele>543.295</ele>
<time>2022-05-27T16:39:33Z</time>
</trkpt>
<trkpt lat="47.903431" lon="11.123058">
<ele>543.446</ele>
<time>2022-05-27T16:39:34Z</time>
</trkpt>
<trkpt lat="47.903473" lon="11.123015">
<ele>543.559</ele>
<time>2022-05-27T16:39:35Z</time>
</trkpt>
<trkpt lat="47.903519" lon="11.12297">
<ele>543.642</ele>
<time>2022-05-27T16:39:36Z</time>
</trkpt>
<trkpt lat="47.903561" lon="11.122923">
<ele>543.728</ele>
<time>2022-05-27T16:39:37Z</time>
</trkpt>
<trkpt lat="47.903595" lon="11.122877">
<ele>543.783</ele>
<time>2022-05-27T16:39:38Z</time>
</trkpt>
<trkpt lat="47.903637" lon="11.122828">
<ele>543.808</ele>
<time>2022-05-27T16:39:39Z</time>
</trkpt>
<trkpt lat="47.903675" lon="11.122777">
<ele>543.808</ele>
<time>2022-05-27T16:39:40Z</time>
</trkpt>
<trkpt lat="47.903725" lon="11.122725">
<ele>543.808</ele>
<time>2022-05-27T16:39:41Z</time>
</trkpt>
<trkpt lat="47.903767" lon="11.122677">
<ele>543.808</ele>
<time>2022-05-27T16:39:42Z</time>
</trkpt>
<trkpt lat="47.903812" lon="11.122628">
<ele>543.808</ele>
<time>2022-05-27T16:39:43Z</time>
</trkpt>
<trkpt lat="47.903854" lon="11.122574">
<ele>543.808</ele>
<time>2022-05-27T16:39:44Z</time>
</trkpt>
<trkpt lat="47.903893" lon="11.122523">
<ele>543.808</ele>
<time>2022-05-27T16:39:45Z</time>
</trkpt>
<trkpt lat="47.903938" lon="11.122471">
<ele>543.808</ele>
<time>2022-05-27T16:39:46Z</time>
</trkpt>
<trkpt lat="47.903984" lon="11.122422">
<ele>543.808</ele>
<time>2022-05-27T16:39:47Z</time>
</trkpt>
<trkpt lat="47.90403" lon="11.122376">
<ele>543.808</ele>
<time>2022-05-27T16:39:48Z</time>
</trkpt>
<trkpt lat="47.904076" lon="11.122331">
<ele>543.808</ele>
<time>2022-05-27T16:39:49Z</time>
</trkpt>
<trkpt lat="47.904118" lon="11.12228">
<ele>543.808</ele>
<time>2022-05-27T16:39:50Z</time>
</trkpt>
<trkpt lat="47.90416" lon="11.122226">
<ele>543.808</ele>
<time>2022-05-27T16:39:51Z</time>
</trkpt>
<trkpt lat="47.904205" lon="11.122171">
<ele>543.808</ele>
<time>2022-05-27T16:39:52Z</time>
</trkpt>
<trkpt lat="47.904251" lon="11.122123">
<ele>543.808</ele>
<time>2022-05-27T16:39:53Z</time>
</trkpt>
<trkpt lat="47.904297" lon="11.122073">
<ele>543.808</ele>
<time>2022-05-27T16:39:54Z</time>
</trkpt>
<trkpt lat="47.904343" lon="11.12202">
<ele>543.808</ele>
<time>2022-05-27T16:39:55Z</time>
</trkpt>
<trkpt lat="47.904388" lon="11.12197">
<ele>543.808</ele>
<time>2022-05-27T16:39:56Z</time>
</trkpt>
<trkpt lat="47.904438" lon="11.121918">
<ele>543.808</ele>
<time>2022-05-27T16:39:57Z</time>
</trkpt>
<trkpt lat="47.904488" lon="11.12187">
<ele>543.808</ele>
<time>2022-05-27T16:39:58Z</time>
</trkpt>
<trkpt lat="47.904537" lon="11.121823">
<ele>543.808</ele>
<time>2022-05-27T16:39:59Z</time>
</trkpt>
<trkpt lat="47.904583" lon="11.12177">
<ele>543.808</ele>
<time>2022-05-27T16:40:00Z</time>
</trkpt>
<trkpt lat="47.904633" lon="11.121716">
<ele>543.808</ele>
<time>2022-05-27T16:40:01Z</time>
</trkpt>
<trkpt lat="47.904678" lon="11.121664">
<ele>543.808</ele>
<time>2022-05-27T16:40:02Z</time>
</trkpt>
<trkpt lat="47.904728" lon="11.121612">
<ele>543.808</ele>
<time>2022-05-27T16:40:03Z</time>
</trkpt>
<trkpt lat="47.90477" lon="11.121558">
<ele>543.808</ele>
<time>2022-05-27T16:40:04Z</time>
</trkpt>
<trkpt lat="47.904819" lon="11.12151">
<ele>543.808</ele>
<time>2022-05-27T16:40:05Z</time>
</trkpt>
<trkpt lat="47.904861" lon="11.121457">
<ele>543.808</ele>
<time>2022-05-27T16:40:06Z</time>
</trkpt>
<trkpt lat="47.904903" lon="11.121402">
<ele>543.808</ele>
<time>2022-05-27T16:40:07Z</time>
</trkpt>
<trkpt lat="47.904949" lon="11.12135">
<ele>543.808</ele>
<time>2022-05-27T16:40:08Z</time>
</trkpt>
<trkpt lat="47.904995" lon="11.121298">
<ele>543.808</ele>
<time>2022-05-27T16:40:09Z</time>
</trkpt>
<trkpt lat="47.905041" lon="11.121248">
<ele>543.808</ele>
<time>2022-05-27T16:40:10Z</time>
</trkpt>
<trkpt lat="47.905087" lon="11.121199">
<ele>543.808</ele>
<time>2022-05-27T16:40:11Z</time>
</trkpt>
<trkpt lat="47.905128" lon="11.121147">
<ele>543.808</ele>
<time>2022-05-27T16:40:12Z</time>
</trkpt>
<trkpt lat="47.905174" lon="11.121097">
<ele>543.808</ele>
<time>2022-05-27T16:40:13Z</time>
</trkpt>
<trkpt lat="47.905224" lon="11.121044">
<ele>543.808</ele>
<time>2022-05-27T16:40:14Z</time>
</trkpt>
<trkpt lat="47.90527" lon="11.120996">
<ele>543.808</ele>
<time>2022-05-27T16:40:15Z</time>
</trkpt>
<trkpt lat="47.905319" lon="11.120943">
<ele>543.808</ele>
<time>2022-05-27T16:40:16Z</time>
</trkpt>
<trkpt lat="47.905365" lon="11.1209">
<ele>543.808</ele>
<time>2022-05-27T16:40:17Z</time>
</trkpt>
<trkpt lat="47.905411" lon="11.120858">
<ele>543.808</ele>
<time>2022-05-27T16:40:18Z</time>
</trkpt>
<trkpt lat="47.905457" lon="11.120813">
<ele>543.808</ele>
<time>2022-05-27T16:40:19Z</time>
</trkpt>
<trkpt lat="47.905499" lon="11.120767">
<ele>543.808</ele>
<time>2022-05-27T16:40:20Z</time>
</trkpt>
<trkpt lat="47.905544" lon="11.120717">
<ele>543.808</ele>
<time>2022-05-27T16:40:21Z</time>
</trkpt>
<trkpt lat="47.905586" lon="11.120668">
<ele>543.808</ele>
<time>2022-05-27T16:40:22Z</time>
</trkpt>
<trkpt lat="47.905632" lon="11.120621">
<ele>543.808</ele>
<time>2022-05-27T16:40:23Z</time>
</trkpt>
<trkpt lat="47.905674" lon="11.120573">
<ele>543.808</ele>
<time>2022-05-27T16:40:24Z</time>
</trkpt>
<trkpt lat="47.905712" lon="11.120526">
<ele>543.808</ele>
<time>2022-05-27T16:40:25Z</time>
</trkpt>
<trkpt lat="47.905746" lon="11.120481">
<ele>543.808</ele>
<time>2022-05-27T16:40:26Z</time>
</trkpt>
<trkpt lat="47.905785" lon="11.120437">
<ele>544.015</ele>
<time>2022-05-27T16:40:27Z</time>
</trkpt>
<trkpt lat="47.905827" lon="11.12039">
<ele>544.19</ele>
<time>2022-05-27T16:40:28Z</time>
</trkpt>
<trkpt lat="47.905865" lon="11.120344">
<ele>544.335</ele>
<time>2022-05-27T16:40:29Z</time>
</trkpt>
<trkpt lat="47.905903" lon="11.120296">
<ele>544.454</ele>
<time>2022-05-27T16:40:30Z</time>
</trkpt>
<trkpt lat="47.905941" lon="11.120248">
<ele>544.548</ele>
<time>2022-05-27T16:40:31Z</time>
</trkpt>
<trkpt lat="47.905975" lon="11.120204">
<ele>544.617</ele>
<time>2022-05-27T16:40:32Z</time>
</trkpt>
<trkpt lat="47.906017" lon="11.12016">
<ele>544.661</ele>
<time>2022-05-27T16:40:33Z</time>
</trkpt>
<trkpt lat="47.906055" lon="11.120118">
<ele>544.681</ele>
<time>2022-05-27T16:40:34Z</time>
</trkpt>
<trkpt lat="47.90609" lon="11.120078">
<ele>544.912</ele>
<time>2022-05-27T16:40:35Z</time>
</trkpt>
<trkpt lat="47.906128" lon="11.120033">
<ele>545.078</ele>
<time>2022-05-27T16:40:36Z</time>
</trkpt>
<trkpt lat="47.90617" lon="11.119995">
<ele>545.247</ele>
<time>2022-05-27T16:40:37Z</time>
</trkpt>
<trkpt lat="47.906208" lon="11.119957">
<ele>545.384</ele>
<time>2022-05-27T16:40:38Z</time>
</trkpt>
<trkpt lat="47.906246" lon="11.11992">
<ele>545.49</ele>
<time>2022-05-27T16:40:39Z</time>
</trkpt>
<trkpt lat="47.906284" lon="11.119884">
<ele>545.558</ele>
<time>2022-05-27T16:40:40Z</time>
</trkpt>
<trkpt lat="47.906315" lon="11.119846">
<ele>545.862</ele>
<time>2022-05-27T16:40:41Z</time>
</trkpt>
<trkpt lat="47.906349" lon="11.119815">
<ele>546.101</ele>
<time>2022-05-27T16:40:42Z</time>
</trkpt>
<trkpt lat="47.906384" lon="11.119775">
<ele>546.311</ele>
<time>2022-05-27T16:40:43Z</time>
</trkpt>
<trkpt lat="47.906422" lon="11.119737">
<ele>546.435</ele>
<time>2022-05-27T16:40:44Z</time>
</trkpt>
<trkpt lat="47.906452" lon="11.119699">
<ele>546.526</ele>
<time>2022-05-27T16:40:45Z</time>
</trkpt>
<trkpt lat="47.906487" lon="11.119665">
<ele>546.594</ele>
<time>2022-05-27T16:40:46Z</time>
</trkpt>
<trkpt lat="47.906513" lon="11.119628">
<ele>546.658</ele>
<time>2022-05-27T16:40:47Z</time>
</trkpt>
<trkpt lat="47.906548" lon="11.119595">
<ele>546.688</ele>
<time>2022-05-27T16:40:48Z</time>
</trkpt>
<trkpt lat="47.906582" lon="11.119561">
<ele>546.688</ele>
<time>2022-05-27T16:40:49Z</time>
</trkpt>
<trkpt lat="47.906612" lon="11.119521">
<ele>546.977</ele>
<time>2022-05-27T16:40:50Z</time>
</trkpt>
<trkpt lat="47.906643" lon="11.119485">
<ele>547.203</ele>
<time>2022-05-27T16:40:51Z</time>
</trkpt>
<trkpt lat="47.906666" lon="11.11944">
<ele>547.378</ele>
<time>2022-05-27T16:40:52Z</time>
</trkpt>
<trkpt lat="47.9067" lon="11.11939">
<ele>547.484</ele>
<time>2022-05-27T16:40:53Z</time>
</trkpt>
<trkpt lat="47.906731" lon="11.119349">
<ele>547.831</ele>
<time>2022-05-27T16:40:54Z</time>
</trkpt>
<trkpt lat="47.906769" lon="11.119308">
<ele>548.095</ele>
<time>2022-05-27T16:40:55Z</time>
</trkpt>
<trkpt lat="47.906803" lon="11.119266">
<ele>548.273</ele>
<time>2022-05-27T16:40:56Z</time>
</trkpt>
<trkpt lat="47.906849" lon="11.119217">
<ele>548.444</ele>
<time>2022-05-27T16:40:57Z</time>
</trkpt>
<trkpt lat="47.906887" lon="11.11917">
<ele>548.554</ele>
<time>2022-05-27T16:40:58Z</time>
</trkpt>
<trkpt lat="47.906921" lon="11.119128">
<ele>548.629</ele>
<time>2022-05-27T16:40:59Z</time>
</trkpt>
<trkpt lat="47.906956" lon="11.119081">
<ele>548.674</ele>
<time>2022-05-27T16:41:00Z</time>
</trkpt>
<trkpt lat="47.90699" lon="11.119035">
<ele>548.695</ele>
<time>2022-05-27T16:41:01Z</time>
</trkpt>
<trkpt lat="47.907021" lon="11.118991">
<ele>548.695</ele>
<time>2022-05-27T16:41:02Z</time>
</trkpt>
<trkpt lat="47.907059" lon="11.118949">
<ele>548.916</ele>
<time>2022-05-27T16:41:03Z</time>
</trkpt>
<trkpt lat="47.907089" lon="11.118905">
<ele>549.086</ele>
<time>2022-05-27T16:41:04Z</time>
</trkpt>
<trkpt lat="47.907116" lon="11.118858">
<ele>549.219</ele>
<time>2022-05-27T16:41:05Z</time>
</trkpt>
<trkpt lat="47.907146" lon="11.118816">
<ele>549.319</ele>
<time>2022-05-27T16:41:06Z</time>
</trkpt>
<trkpt lat="47.907177" lon="11.118773">
<ele>549.422</ele>
<time>2022-05-27T16:41:07Z</time>
</trkpt>
<trkpt lat="47.907207" lon="11.118731">
<ele>549.497</ele>
<time>2022-05-27T16:41:08Z</time>
</trkpt>
<trkpt lat="47.907246" lon="11.118693">
<ele>549.545</ele>
<time>2022-05-27T16:41:09Z</time>
</trkpt>
<trkpt lat="47.90728" lon="11.118655">
<ele>549.568</ele>
<time>2022-05-27T16:41:10Z</time>
</trkpt>
<trkpt lat="47.907318" lon="11.118616">
<ele>549.568</ele>
<time>2022-05-27T16:41:11Z</time>
</trkpt>
<trkpt lat="47.907356" lon="11.118576">
<ele>549.853</ele>
<time>2022-05-27T16:41:12Z</time>
</trkpt>
<trkpt lat="47.907398" lon="11.118535">
<ele>550.074</ele>
<time>2022-05-27T16:41:13Z</time>
</trkpt>
<trkpt lat="47.907436" lon="11.118495">
<ele>550.241</ele>
<time>2022-05-27T16:41:14Z</time>
</trkpt>
<trkpt lat="47.907475" lon="11.118455">
<ele>550.364</ele>
<time>2022-05-27T16:41:15Z</time>
</trkpt>
<trkpt lat="47.907513" lon="11.118415">
<ele>550.45</ele>
<time>2022-05-27T16:41:16Z</time>
</trkpt>
<trkpt lat="47.907555" lon="11.118371">
<ele>550.535</ele>
<time>2022-05-27T16:41:17Z</time>
</trkpt>
<trkpt lat="47.907585" lon="11.118328">
<ele>550.591</ele>
<time>2022-05-27T16:41:18Z</time>
</trkpt>
<trkpt lat="47.907619" lon="11.118285">
<ele>550.616</ele>
<time>2022-05-27T16:41:19Z</time>
</trkpt>
<trkpt lat="47.907658" lon="11.11824">
<ele>550.884</ele>
<time>2022-05-27T16:41:20Z</time>
</trkpt>
<trkpt lat="47.907688" lon="11.1182">
<ele>551.089</ele>
<time>2022-05-27T16:41:21Z</time>
</trkpt>
<trkpt lat="47.907726" lon="11.118155">
<ele>551.248</ele>
<time>2022-05-27T16:41:22Z</time>
</trkpt>
<trkpt lat="47.907764" lon="11.118109">
<ele>551.367</ele>
<time>2022-05-27T16:41:23Z</time>
</trkpt>
<trkpt lat="47.907799" lon="11.118069">
<ele>551.432</ele>
<time>2022-05-27T16:41:24Z</time>
</trkpt>
<trkpt lat="47.907841" lon="11.118023">
<ele>551.753</ele>
<time>2022-05-27T16:41:25Z</time>
</trkpt>
<trkpt lat="47.907871" lon="11.117981">
<ele>551.994</ele>
<time>2022-05-27T16:41:26Z</time>
</trkpt>
<trkpt lat="47.907906" lon="11.117937">
<ele>552.203</ele>
<time>2022-05-27T16:41:27Z</time>
</trkpt>
<trkpt lat="47.907932" lon="11.117897">
<ele>552.347</ele>
<time>2022-05-27T16:41:28Z</time>
</trkpt>
<trkpt lat="47.907963" lon="11.117857">
<ele>552.465</ele>
<time>2022-05-27T16:41:29Z</time>
</trkpt>
<trkpt lat="47.907997" lon="11.117824">
<ele>552.542</ele>
<time>2022-05-27T16:41:30Z</time>
</trkpt>
<trkpt lat="47.908031" lon="11.117784">
<ele>552.596</ele>
<time>2022-05-27T16:41:31Z</time>
</trkpt>
<trkpt lat="47.90807" lon="11.117742">
<ele>552.624</ele>
<time>2022-05-27T16:41:32Z</time>
</trkpt>
<trkpt lat="47.908108" lon="11.117701">
<ele>552.624</ele>
<time>2022-05-27T16:41:33Z</time>
</trkpt>
<trkpt lat="47.908142" lon="11.117665">
<ele>552.624</ele>
<time>2022-05-27T16:41:34Z</time>
</trkpt>
<trkpt lat="47.908176" lon="11.117629">
<ele>552.624</ele>
<time>2022-05-27T16:41:35Z</time>
</trkpt>
<trkpt lat="47.908207" lon="11.11759">
<ele>552.84</ele>
<time>2022-05-27T16:41:36Z</time>
</trkpt>
<trkpt lat="47.908241" lon="11.117556">
<ele>553.039</ele>
<time>2022-05-27T16:41:37Z</time>
</trkpt>
<trkpt lat="47.908272" lon="11.11752">
<ele>553.202</ele>
<time>2022-05-27T16:41:38Z</time>
</trkpt>
<trkpt lat="47.908302" lon="11.117485">
<ele>553.329</ele>
<time>2022-05-27T16:41:39Z</time>
</trkpt>
<trkpt lat="47.908333" lon="11.117455">
<ele>553.428</ele>
<time>2022-05-27T16:41:40Z</time>
</trkpt>
<trkpt lat="47.908367" lon="11.117425">
<ele>553.509</ele>
<time>2022-05-27T16:41:41Z</time>
</trkpt>
<trkpt lat="47.908405" lon="11.117394">
<ele>553.56</ele>
<time>2022-05-27T16:41:42Z</time>
</trkpt>
<trkpt lat="47.908443" lon="11.117365">
<ele>553.584</ele>
<time>2022-05-27T16:41:43Z</time>
</trkpt>
<trkpt lat="47.908482" lon="11.117333">
<ele>553.584</ele>
<time>2022-05-27T16:41:44Z</time>
</trkpt>
<trkpt lat="47.90852" lon="11.117298">
<ele>553.584</ele>
<time>2022-05-27T16:41:45Z</time>
</trkpt>
<trkpt lat="47.908562" lon="11.117262">
<ele>553.363</ele>
<time>2022-05-27T16:41:46Z</time>
</trkpt>
<trkpt lat="47.908604" lon="11.117222">
<ele>553.152</ele>
<time>2022-05-27T16:41:47Z</time>
</trkpt>
<trkpt lat="47.908642" lon="11.117177">
<ele>553.007</ele>
<time>2022-05-27T16:41:48Z</time>
</trkpt>
<trkpt lat="47.90868" lon="11.117135">
<ele>552.602</ele>
<time>2022-05-27T16:41:49Z</time>
</trkpt>
<trkpt lat="47.90873" lon="11.117097">
<ele>552.282</ele>
<time>2022-05-27T16:41:50Z</time>
</trkpt>
<trkpt lat="47.908779" lon="11.117051">
<ele>552.031</ele>
<time>2022-05-27T16:41:51Z</time>
</trkpt>
<trkpt lat="47.908825" lon="11.117004">
<ele>551.883</ele>
<time>2022-05-27T16:41:52Z</time>
</trkpt>
<trkpt lat="47.908875" lon="11.116959">
<ele>551.449</ele>
<time>2022-05-27T16:41:53Z</time>
</trkpt>
<trkpt lat="47.908916" lon="11.116915">
<ele>551.092</ele>
<time>2022-05-27T16:41:54Z</time>
</trkpt>
<trkpt lat="47.90897" lon="11.116868">
<ele>550.887</ele>
<time>2022-05-27T16:41:55Z</time>
</trkpt>
<trkpt lat="47.909019" lon="11.116822">
<ele>550.743</ele>
<time>2022-05-27T16:41:56Z</time>
</trkpt>
<trkpt lat="47.909065" lon="11.116776">
<ele>550.616</ele>
<time>2022-05-27T16:41:57Z</time>
</trkpt>
<trkpt lat="47.909107" lon="11.116732">
<ele>550.527</ele>
<time>2022-05-27T16:41:58Z</time>
</trkpt>
<trkpt lat="47.909157" lon="11.116689">
<ele>550.47</ele>
<time>2022-05-27T16:41:59Z</time>
</trkpt>
<trkpt lat="47.909203" lon="11.116647">
<ele>550.441</ele>
<time>2022-05-27T16:42:00Z</time>
</trkpt>
<trkpt lat="47.909241" lon="11.116602">
<ele>550.183</ele>
<time>2022-05-27T16:42:01Z</time>
</trkpt>
<trkpt lat="47.909283" lon="11.116556">
<ele>549.981</ele>
<time>2022-05-27T16:42:02Z</time>
</trkpt>
<trkpt lat="47.909325" lon="11.116512">
<ele>549.83</ele>
<time>2022-05-27T16:42:03Z</time>
</trkpt>
<trkpt lat="47.909363" lon="11.116472">
<ele>549.713</ele>
<time>2022-05-27T16:42:04Z</time>
</trkpt>
<trkpt lat="47.909397" lon="11.116437">
<ele>549.627</ele>
<time>2022-05-27T16:42:05Z</time>
</trkpt>
<trkpt lat="47.909435" lon="11.1164">
<ele>549.563</ele>
<time>2022-05-27T16:42:06Z</time>
</trkpt>
<trkpt lat="47.90947" lon="11.116362">
<ele>549.508</ele>
<time>2022-05-27T16:42:07Z</time>
</trkpt>
<trkpt lat="47.909504" lon="11.116325">
<ele>549.481</ele>
<time>2022-05-27T16:42:08Z</time>
</trkpt>
<trkpt lat="47.909538" lon="11.116284">
<ele>549.481</ele>
<time>2022-05-27T16:42:09Z</time>
</trkpt>
<trkpt lat="47.909573" lon="11.116241">
<ele>549.481</ele>
<time>2022-05-27T16:42:10Z</time>
</trkpt>
<trkpt lat="47.909607" lon="11.116199">
<ele>549.481</ele>
<time>2022-05-27T16:42:11Z</time>
</trkpt>
<trkpt lat="47.909649" lon="11.116157">
<ele>549.481</ele>
<time>2022-05-27T16:42:12Z</time>
</trkpt>
<trkpt lat="47.909687" lon="11.116118">
<ele>549.481</ele>
<time>2022-05-27T16:42:13Z</time>
</trkpt>
<trkpt lat="47.909725" lon="11.116081">
<ele>549.481</ele>
<time>2022-05-27T16:42:14Z</time>
</trkpt>
<trkpt lat="47.909756" lon="11.116045">
<ele>549.481</ele>
<time>2022-05-27T16:42:15Z</time>
</trkpt>
<trkpt lat="47.909794" lon="11.116012">
<ele>549.481</ele>
<time>2022-05-27T16:42:16Z</time>
</trkpt>
<trkpt lat="47.909828" lon="11.115976">
<ele>549.481</ele>
<time>2022-05-27T16:42:17Z</time>
</trkpt>
<trkpt lat="47.909866" lon="11.11594">
<ele>549.481</ele>
<time>2022-05-27T16:42:18Z</time>
</trkpt>
<trkpt lat="47.909901" lon="11.115902">
<ele>549.481</ele>
<time>2022-05-27T16:42:19Z</time>
</trkpt>
<trkpt lat="47.909939" lon="11.115863">
<ele>549.481</ele>
<time>2022-05-27T16:42:20Z</time>
</trkpt>
<trkpt lat="47.909977" lon="11.115825">
<ele>549.481</ele>
<time>2022-05-27T16:42:21Z</time>
</trkpt>
<trkpt lat="47.910015" lon="11.115786">
<ele>549.481</ele>
<time>2022-05-27T16:42:22Z</time>
</trkpt>
<trkpt lat="47.910053" lon="11.115746">
<ele>549.481</ele>
<time>2022-05-27T16:42:23Z</time>
</trkpt>
<trkpt lat="47.910095" lon="11.115705">
<ele>549.481</ele>
<time>2022-05-27T16:42:24Z</time>
</trkpt>
<trkpt lat="47.910137" lon="11.115664">
<ele>549.481</ele>
<time>2022-05-27T16:42:25Z</time>
</trkpt>
<trkpt lat="47.910179" lon="11.115622">
<ele>549.481</ele>
<time>2022-05-27T16:42:26Z</time>
</trkpt>
<trkpt lat="47.910213" lon="11.115578">
<ele>549.481</ele>
<time>2022-05-27T16:42:27Z</time>
</trkpt>
<trkpt lat="47.910255" lon="11.115534">
<ele>549.481</ele>
<time>2022-05-27T16:42:28Z</time>
</trkpt>
<trkpt lat="47.91029" lon="11.115488">
<ele>549.481</ele>
<time>2022-05-27T16:42:29Z</time>
</trkpt>
<trkpt lat="47.910328" lon="11.115446">
<ele>549.481</ele>
<time>2022-05-27T16:42:30Z</time>
</trkpt>
<trkpt lat="47.910366" lon="11.115404">
<ele>549.481</ele>
<time>2022-05-27T16:42:31Z</time>
</trkpt>
<trkpt lat="47.910408" lon="11.115362">
<ele>549.481</ele>
<time>2022-05-27T16:42:32Z</time>
</trkpt>
<trkpt lat="47.910446" lon="11.11532">
<ele>549.481</ele>
<time>2022-05-27T16:42:33Z</time>
</trkpt>
<trkpt lat="47.910488" lon="11.115278">
<ele>549.481</ele>
<time>2022-05-27T16:42:34Z</time>
</trkpt>
<trkpt lat="47.910522" lon="11.115236">
<ele>549.481</ele>
<time>2022-05-27T16:42:35Z</time>
</trkpt>
<trkpt lat="47.910561" lon="11.115196">
<ele>549.481</ele>
<time>2022-05-27T16:42:36Z</time>
</trkpt>
<trkpt lat="47.910599" lon="11.115161">
<ele>549.481</ele>
<time>2022-05-27T16:42:37Z</time>
</trkpt>
<trkpt lat="47.910637" lon="11.115126">
<ele>549.481</ele>
<time>2022-05-27T16:42:38Z</time>
</trkpt>
<trkpt lat="47.910679" lon="11.11509">
<ele>549.481</ele>
<time>2022-05-27T16:42:39Z</time>
</trkpt>
<trkpt lat="47.910721" lon="11.115052">
<ele>549.481</ele>
<time>2022-05-27T16:42:40Z</time>
</trkpt>
<trkpt lat="47.910763" lon="11.115015">
<ele>549.481</ele>
<time>2022-05-27T16:42:41Z</time>
</trkpt>
<trkpt lat="47.910801" lon="11.114979">
<ele>549.481</ele>
<time>2022-05-27T16:42:42Z</time>
</trkpt>
<trkpt lat="47.910847" lon="11.114944">
<ele>549.481</ele>
<time>2022-05-27T16:42:43Z</time>
</trkpt>
<trkpt lat="47.910892" lon="11.114908">
<ele>549.481</ele>
<time>2022-05-27T16:42:44Z</time>
</trkpt>
<trkpt lat="47.910931" lon="11.114872">
<ele>549.481</ele>
<time>2022-05-27T16:42:45Z</time>
</trkpt>
<trkpt lat="47.910976" lon="11.114835">
<ele>549.481</ele>
<time>2022-05-27T16:42:46Z</time>
</trkpt>
<trkpt lat="47.911022" lon="11.114794">
<ele>549.481</ele>
<time>2022-05-27T16:42:47Z</time>
</trkpt>
<trkpt lat="47.91106" lon="11.114752">
<ele>549.481</ele>
<time>2022-05-27T16:42:48Z</time>
</trkpt>
<trkpt lat="47.911106" lon="11.114713">
<ele>549.481</ele>
<time>2022-05-27T16:42:49Z</time>
</trkpt>
<trkpt lat="47.911144" lon="11.114672">
<ele>549.481</ele>
<time>2022-05-27T16:42:50Z</time>
</trkpt>
<trkpt lat="47.911171" lon="11.114623">
<ele>549.481</ele>
<time>2022-05-27T16:42:51Z</time>
</trkpt>
<trkpt lat="47.911186" lon="11.114564">
<ele>549.481</ele>
<time>2022-05-27T16:42:52Z</time>
</trkpt>
<trkpt lat="47.911186" lon="11.114495">
<ele>549.481</ele>
<time>2022-05-27T16:42:53Z</time>
</trkpt>
<trkpt lat="47.911175" lon="11.114427">
<ele>549.481</ele>
<time>2022-05-27T16:42:54Z</time>
</trkpt>
<trkpt lat="47.911163" lon="11.114363">
<ele>549.481</ele>
<time>2022-05-27T16:42:55Z</time>
</trkpt>
<trkpt lat="47.911148" lon="11.114302">
<ele>549.481</ele>
<time>2022-05-27T16:42:56Z</time>
</trkpt>
<trkpt lat="47.911129" lon="11.114244">
<ele>549.481</ele>
<time>2022-05-27T16:42:57Z</time>
</trkpt>
<trkpt lat="47.911118" lon="11.114179">
<ele>549.481</ele>
<time>2022-05-27T16:42:58Z</time>
</trkpt>
<trkpt lat="47.911098" lon="11.114107">
<ele>549.481</ele>
<time>2022-05-27T16:42:59Z</time>
</trkpt>
<trkpt lat="47.911087" lon="11.114034">
<ele>549.481</ele>
<time>2022-05-27T16:43:00Z</time>
</trkpt>
<trkpt lat="47.911079" lon="11.113965">
<ele>549.481</ele>
<time>2022-05-27T16:43:01Z</time>
</trkpt>
<trkpt lat="47.911079" lon="11.113896">
<ele>549.481</ele>
<time>2022-05-27T16:43:02Z</time>
</trkpt>
<trkpt lat="47.911079" lon="11.113829">
<ele>549.481</ele>
<time>2022-05-27T16:43:03Z</time>
</trkpt>
<trkpt lat="47.911083" lon="11.113764">
<ele>549.481</ele>
<time>2022-05-27T16:43:04Z</time>
</trkpt>
<trkpt lat="47.911091" lon="11.113701">
<ele>549.481</ele>
<time>2022-05-27T16:43:05Z</time>
</trkpt>
<trkpt lat="47.911098" lon="11.113648">
<ele>549.481</ele>
<time>2022-05-27T16:43:06Z</time>
</trkpt>
<trkpt lat="47.91111" lon="11.113595">
<ele>549.481</ele>
<time>2022-05-27T16:43:07Z</time>
</trkpt>
<trkpt lat="47.911118" lon="11.11355">
<ele>549.481</ele>
<time>2022-05-27T16:43:08Z</time>
</trkpt>
<trkpt lat="47.911133" lon="11.113514">
<ele>549.481</ele>
<time>2022-05-27T16:43:09Z</time>
</trkpt>
<trkpt lat="47.911156" lon="11.113483">
<ele>549.481</ele>
<time>2022-05-27T16:43:10Z</time>
</trkpt>
<trkpt lat="47.911175" lon="11.113464">
<ele>549.481</ele>
<time>2022-05-27T16:43:11Z</time>
</trkpt>
<trkpt lat="47.91119" lon="11.113461">
<ele>549.481</ele>
<time>2022-05-27T16:43:12Z</time>
</trkpt>
<trkpt lat="47.911209" lon="11.113463">
<ele>549.481</ele>
<time>2022-05-27T16:43:13Z</time>
</trkpt>
<trkpt lat="47.911217" lon="11.113464">
<ele>549.481</ele>
<time>2022-05-27T16:43:14Z</time>
</trkpt>
<trkpt lat="47.911221" lon="11.113463">
<ele>549.481</ele>
<time>2022-05-27T16:43:15Z</time>
</trkpt>
<trkpt lat="47.911221" lon="11.11346">
<ele>549.481</ele>
<time>2022-05-27T16:43:16Z</time>
</trkpt>
<trkpt lat="47.91124" lon="11.113464">
<ele>549.481</ele>
<time>2022-05-27T16:43:21Z</time>
</trkpt>
<trkpt lat="47.911255" lon="11.113468">
<ele>549.481</ele>
<time>2022-05-27T16:43:22Z</time>
</trkpt>
<trkpt lat="47.911266" lon="11.11346">
<ele>549.481</ele>
<time>2022-05-27T16:43:23Z</time>
</trkpt>
<trkpt lat="47.911285" lon="11.113445">
<ele>549.481</ele>
<time>2022-05-27T16:43:24Z</time>
</trkpt>
<trkpt lat="47.911301" lon="11.113426">
<ele>549.481</ele>
<time>2022-05-27T16:43:25Z</time>
</trkpt>
<trkpt lat="47.911312" lon="11.113408">
<ele>549.481</ele>
<time>2022-05-27T16:43:26Z</time>
</trkpt>
<trkpt lat="47.91132" lon="11.113388">
<ele>549.481</ele>
<time>2022-05-27T16:43:27Z</time>
</trkpt>
<trkpt lat="47.911327" lon="11.113363">
<ele>549.744</ele>
<time>2022-05-27T16:43:28Z</time>
</trkpt>
<trkpt lat="47.911339" lon="11.113337">
<ele>549.917</ele>
<time>2022-05-27T16:43:29Z</time>
</trkpt>
<trkpt lat="47.911346" lon="11.113305">
<ele>550.052</ele>
<time>2022-05-27T16:43:30Z</time>
</trkpt>
<trkpt lat="47.91135" lon="11.11327">
<ele>550.186</ele>
<time>2022-05-27T16:43:31Z</time>
</trkpt>
<trkpt lat="47.911354" lon="11.113242">
<ele>550.287</ele>
<time>2022-05-27T16:43:32Z</time>
</trkpt>
<trkpt lat="47.911354" lon="11.113216">
<ele>550.366</ele>
<time>2022-05-27T16:43:33Z</time>
</trkpt>
<trkpt lat="47.911354" lon="11.113204">
<ele>550.419</ele>
<time>2022-05-27T16:43:34Z</time>
</trkpt>
<trkpt lat="47.91135" lon="11.113198">
<ele>550.441</ele>
<time>2022-05-27T16:43:35Z</time>
</trkpt>
<trkpt lat="47.911343" lon="11.113195">
<ele>550.441</ele>
<time>2022-05-27T16:43:36Z</time>
</trkpt>
<trkpt lat="47.911343" lon="11.113192">
<ele>550.441</ele>
<time>2022-05-27T16:43:37Z</time>
</trkpt>
<trkpt lat="47.911343" lon="11.113163">
<ele>550.441</ele>
<time>2022-05-27T16:44:01Z</time>
</trkpt>
<trkpt lat="47.911339" lon="11.113139">
<ele>550.441</ele>
<time>2022-05-27T16:44:02Z</time>
</trkpt>
<trkpt lat="47.911335" lon="11.11311">
<ele>550.441</ele>
<time>2022-05-27T16:44:03Z</time>
</trkpt>
<trkpt lat="47.911331" lon="11.113078">
<ele>550.441</ele>
<time>2022-05-27T16:44:04Z</time>
</trkpt>
<trkpt lat="47.911327" lon="11.113037">
<ele>550.441</ele>
<time>2022-05-27T16:44:05Z</time>
</trkpt>
<trkpt lat="47.91132" lon="11.11299">
<ele>550.441</ele>
<time>2022-05-27T16:44:06Z</time>
</trkpt>
<trkpt lat="47.911316" lon="11.11294">
<ele>550.813</ele>
<time>2022-05-27T16:44:07Z</time>
</trkpt>
<trkpt lat="47.911308" lon="11.112892">
<ele>550.705</ele>
<time>2022-05-27T16:44:08Z</time>
</trkpt>
<trkpt lat="47.911301" lon="11.11284">
<ele>550.634</ele>
<time>2022-05-27T16:44:09Z</time>
</trkpt>
<trkpt lat="47.911289" lon="11.112787">
<ele>550.591</ele>
<time>2022-05-27T16:44:10Z</time>
</trkpt>
<trkpt lat="47.911285" lon="11.112733">
<ele>550.555</ele>
<time>2022-05-27T16:44:11Z</time>
</trkpt>
<trkpt lat="47.911278" lon="11.112685">
<ele>550.527</ele>
<time>2022-05-27T16:44:12Z</time>
</trkpt>
<trkpt lat="47.91127" lon="11.112635">
<ele>550.522</ele>
<time>2022-05-27T16:44:13Z</time>
</trkpt>
<trkpt lat="47.911266" lon="11.112585">
<ele>550.492</ele>
<time>2022-05-27T16:44:14Z</time>
</trkpt>
<trkpt lat="47.911259" lon="11.112534">
<ele>550.466</ele>
<time>2022-05-27T16:44:15Z</time>
</trkpt>
<trkpt lat="47.911255" lon="11.112479">
<ele>550.441</ele>
<time>2022-05-27T16:44:16Z</time>
</trkpt>
<trkpt lat="47.91124" lon="11.112423">
<ele>550.441</ele>
<time>2022-05-27T16:44:17Z</time>
</trkpt>
<trkpt lat="47.911228" lon="11.112364">
<ele>550.441</ele>
<time>2022-05-27T16:44:18Z</time>
</trkpt>
<trkpt lat="47.911221" lon="11.112302">
<ele>550.441</ele>
<time>2022-05-27T16:44:19Z</time>
</trkpt>
<trkpt lat="47.911209" lon="11.112238">
<ele>550.441</ele>
<time>2022-05-27T16:44:20Z</time>
</trkpt>
<trkpt lat="47.911201" lon="11.112177">
<ele>550.441</ele>
<time>2022-05-27T16:44:21Z</time>
</trkpt>
<trkpt lat="47.911194" lon="11.11212">
<ele>550.441</ele>
<time>2022-05-27T16:44:22Z</time>
</trkpt>
<trkpt lat="47.911186" lon="11.112061">
<ele>550.441</ele>
<time>2022-05-27T16:44:23Z</time>
</trkpt>
<trkpt lat="47.911179" lon="11.112">
<ele>550.441</ele>
<time>2022-05-27T16:44:24Z</time>
</trkpt>
<trkpt lat="47.911167" lon="11.111938">
<ele>550.441</ele>
<time>2022-05-27T16:44:25Z</time>
</trkpt>
<trkpt lat="47.911156" lon="11.111878">
<ele>550.441</ele>
<time>2022-05-27T16:44:26Z</time>
</trkpt>
<trkpt lat="47.911152" lon="11.111823">
<ele>550.441</ele>
<time>2022-05-27T16:44:27Z</time>
</trkpt>
<trkpt lat="47.911148" lon="11.111773">
<ele>550.441</ele>
<time>2022-05-27T16:44:28Z</time>
</trkpt>
<trkpt lat="47.911137" lon="11.111714">
<ele>550.441</ele>
<time>2022-05-27T16:44:29Z</time>
</trkpt>
<trkpt lat="47.911125" lon="11.111658">
<ele>550.659</ele>
<time>2022-05-27T16:44:30Z</time>
</trkpt>
<trkpt lat="47.911125" lon="11.111606">
<ele>550.831</ele>
<time>2022-05-27T16:44:31Z</time>
</trkpt>
<trkpt lat="47.911125" lon="11.111553">
<ele>550.969</ele>
<time>2022-05-27T16:44:32Z</time>
</trkpt>
<trkpt lat="47.911118" lon="11.111497">
<ele>551.088</ele>
<time>2022-05-27T16:44:33Z</time>
</trkpt>
<trkpt lat="47.91111" lon="11.111436">
<ele>551.202</ele>
<time>2022-05-27T16:44:34Z</time>
</trkpt>
<trkpt lat="47.911098" lon="11.111375">
<ele>551.199</ele>
<time>2022-05-27T16:44:35Z</time>
</trkpt>
<trkpt lat="47.911095" lon="11.111319">
<ele>551.023</ele>
<time>2022-05-27T16:44:36Z</time>
</trkpt>
<trkpt lat="47.911083" lon="11.111263">
<ele>550.87</ele>
<time>2022-05-27T16:44:37Z</time>
</trkpt>
<trkpt lat="47.911076" lon="11.111205">
<ele>550.734</ele>
<time>2022-05-27T16:44:38Z</time>
</trkpt>
<trkpt lat="47.91106" lon="11.111147">
<ele>550.615</ele>
<time>2022-05-27T16:44:39Z</time>
</trkpt>
<trkpt lat="47.911045" lon="11.111085">
<ele>550.54</ele>
<time>2022-05-27T16:44:40Z</time>
</trkpt>
<trkpt lat="47.91103" lon="11.11102">
<ele>550.492</ele>
<time>2022-05-27T16:44:41Z</time>
</trkpt>
<trkpt lat="47.911018" lon="11.110954">
<ele>550.463</ele>
<time>2022-05-27T16:44:42Z</time>
</trkpt>
<trkpt lat="47.911007" lon="11.110893">
<ele>550.441</ele>
<time>2022-05-27T16:44:43Z</time>
</trkpt>
<trkpt lat="47.910995" lon="11.110826">
<ele>550.441</ele>
<time>2022-05-27T16:44:44Z</time>
</trkpt>
<trkpt lat="47.91098" lon="11.110759">
<ele>550.441</ele>
<time>2022-05-27T16:44:45Z</time>
</trkpt>
<trkpt lat="47.910969" lon="11.110694">
<ele>550.441</ele>
<time>2022-05-27T16:44:46Z</time>
</trkpt>
<trkpt lat="47.910957" lon="11.110627">
<ele>550.441</ele>
<time>2022-05-27T16:44:47Z</time>
</trkpt>
<trkpt lat="47.910942" lon="11.110559">
<ele>550.441</ele>
<time>2022-05-27T16:44:48Z</time>
</trkpt>
<trkpt lat="47.910931" lon="11.110492">
<ele>550.441</ele>
<time>2022-05-27T16:44:49Z</time>
</trkpt>
<trkpt lat="47.910915" lon="11.110424">
<ele>550.441</ele>
<time>2022-05-27T16:44:50Z</time>
</trkpt>
<trkpt lat="47.910904" lon="11.110353">
<ele>550.441</ele>
<time>2022-05-27T16:44:51Z</time>
</trkpt>
<trkpt lat="47.910892" lon="11.110286">
<ele>550.698</ele>
<time>2022-05-27T16:44:52Z</time>
</trkpt>
<trkpt lat="47.910877" lon="11.110217">
<ele>550.88</ele>
<time>2022-05-27T16:44:53Z</time>
</trkpt>
<trkpt lat="47.910866" lon="11.110147">
<ele>551.068</ele>
<time>2022-05-27T16:44:54Z</time>
</trkpt>
<trkpt lat="47.910851" lon="11.11008">
<ele>551.215</ele>
<time>2022-05-27T16:44:55Z</time>
</trkpt>
<trkpt lat="47.910835" lon="11.110013">
<ele>551.329</ele>
<time>2022-05-27T16:44:56Z</time>
</trkpt>
<trkpt lat="47.910828" lon="11.109946">
<ele>551.411</ele>
<time>2022-05-27T16:44:57Z</time>
</trkpt>
<trkpt lat="47.910816" lon="11.109883">
<ele>551.463</ele>
<time>2022-05-27T16:44:58Z</time>
</trkpt>
<trkpt lat="47.910805" lon="11.10982">
<ele>551.489</ele>
<time>2022-05-27T16:44:59Z</time>
</trkpt>
<trkpt lat="47.910797" lon="11.109758">
<ele>551.489</ele>
<time>2022-05-27T16:45:00Z</time>
</trkpt>
<trkpt lat="47.910782" lon="11.109695">
<ele>551.489</ele>
<time>2022-05-27T16:45:01Z</time>
</trkpt>
<trkpt lat="47.910767" lon="11.109626">
<ele>551.489</ele>
<time>2022-05-27T16:45:02Z</time>
</trkpt>
<trkpt lat="47.910755" lon="11.109563">
<ele>551.489</ele>
<time>2022-05-27T16:45:03Z</time>
</trkpt>
<trkpt lat="47.910744" lon="11.109502">
<ele>551.489</ele>
<time>2022-05-27T16:45:04Z</time>
</trkpt>
<trkpt lat="47.910736" lon="11.109439">
<ele>551.489</ele>
<time>2022-05-27T16:45:05Z</time>
</trkpt>
<trkpt lat="47.910728" lon="11.109379">
<ele>551.791</ele>
<time>2022-05-27T16:45:06Z</time>
</trkpt>
<trkpt lat="47.910728" lon="11.109316">
<ele>552.025</ele>
<time>2022-05-27T16:45:07Z</time>
</trkpt>
<trkpt lat="47.910725" lon="11.109255">
<ele>552.199</ele>
<time>2022-05-27T16:45:08Z</time>
</trkpt>
<trkpt lat="47.910728" lon="11.10919">
<ele>552.327</ele>
<time>2022-05-27T16:45:09Z</time>
</trkpt>
<trkpt lat="47.910732" lon="11.109123">
<ele>552.423</ele>
<time>2022-05-27T16:45:10Z</time>
</trkpt>
<trkpt lat="47.910736" lon="11.109056">
<ele>552.485</ele>
<time>2022-05-27T16:45:11Z</time>
</trkpt>
<trkpt lat="47.910744" lon="11.108995">
<ele>552.512</ele>
<time>2022-05-27T16:45:12Z</time>
</trkpt>
<trkpt lat="47.910755" lon="11.108933">
<ele>552.536</ele>
<time>2022-05-27T16:45:13Z</time>
</trkpt>
<trkpt lat="47.910767" lon="11.108878">
<ele>552.536</ele>
<time>2022-05-27T16:45:14Z</time>
</trkpt>
<trkpt lat="47.910782" lon="11.108824">
<ele>552.536</ele>
<time>2022-05-27T16:45:15Z</time>
</trkpt>
<trkpt lat="47.910809" lon="11.108777">
<ele>552.214</ele>
<time>2022-05-27T16:45:16Z</time>
</trkpt>
<trkpt lat="47.910839" lon="11.108744">
<ele>551.966</ele>
<time>2022-05-27T16:45:17Z</time>
</trkpt>
<trkpt lat="47.910877" lon="11.108729">
<ele>551.774</ele>
<time>2022-05-27T16:45:18Z</time>
</trkpt>
<trkpt lat="47.910923" lon="11.108723">
<ele>551.628</ele>
<time>2022-05-27T16:45:19Z</time>
</trkpt>
<trkpt lat="47.910969" lon="11.108717">
<ele>551.525</ele>
<time>2022-05-27T16:45:20Z</time>
</trkpt>
<trkpt lat="47.911015" lon="11.10871">
<ele>551.462</ele>
<time>2022-05-27T16:45:21Z</time>
</trkpt>
<trkpt lat="47.911064" lon="11.108702">
<ele>551.432</ele>
<time>2022-05-27T16:45:22Z</time>
</trkpt>
<trkpt lat="47.91111" lon="11.108695">
<ele>551.158</ele>
<time>2022-05-27T16:45:23Z</time>
</trkpt>
<trkpt lat="47.911156" lon="11.108691">
<ele>550.932</ele>
<time>2022-05-27T16:45:24Z</time>
</trkpt>
<trkpt lat="47.911201" lon="11.108691">
<ele>550.881</ele>
<time>2022-05-27T16:45:25Z</time>
</trkpt>
<trkpt lat="47.911251" lon="11.108685">
<ele>551.018</ele>
<time>2022-05-27T16:45:26Z</time>
</trkpt>
<trkpt lat="47.911297" lon="11.108679">
<ele>551.127</ele>
<time>2022-05-27T16:45:27Z</time>
</trkpt>
<trkpt lat="47.911346" lon="11.108675">
<ele>551.222</ele>
<time>2022-05-27T16:45:28Z</time>
</trkpt>
<trkpt lat="47.911392" lon="11.10867">
<ele>551.302</ele>
<time>2022-05-27T16:45:29Z</time>
</trkpt>
<trkpt lat="47.911438" lon="11.108668">
<ele>551.354</ele>
<time>2022-05-27T16:45:30Z</time>
</trkpt>
<trkpt lat="47.911484" lon="11.108668">
<ele>551.596</ele>
<time>2022-05-27T16:45:31Z</time>
</trkpt>
<trkpt lat="47.91153" lon="11.108664">
<ele>551.483</ele>
<time>2022-05-27T16:45:32Z</time>
</trkpt>
<trkpt lat="47.911575" lon="11.108658">
<ele>551.607</ele>
<time>2022-05-27T16:45:33Z</time>
</trkpt>
<trkpt lat="47.911613" lon="11.108656">
<ele>551.766</ele>
<time>2022-05-27T16:45:34Z</time>
</trkpt>
<trkpt lat="47.911655" lon="11.108653">
<ele>551.846</ele>
<time>2022-05-27T16:45:35Z</time>
</trkpt>
<trkpt lat="47.911694" lon="11.108645">
<ele>552.049</ele>
<time>2022-05-27T16:45:36Z</time>
</trkpt>
<trkpt lat="47.911732" lon="11.10864">
<ele>551.954</ele>
<time>2022-05-27T16:45:37Z</time>
</trkpt>
<trkpt lat="47.911762" lon="11.108626">
<ele>551.867</ele>
<time>2022-05-27T16:45:38Z</time>
</trkpt>
<trkpt lat="47.9118" lon="11.108624">
<ele>551.788</ele>
<time>2022-05-27T16:45:39Z</time>
</trkpt>
<trkpt lat="47.91185" lon="11.108622">
<ele>551.727</ele>
<time>2022-05-27T16:45:40Z</time>
</trkpt>
<trkpt lat="47.911896" lon="11.10862">
<ele>551.683</ele>
<time>2022-05-27T16:45:41Z</time>
</trkpt>
<trkpt lat="47.911945" lon="11.108616">
<ele>551.654</ele>
<time>2022-05-27T16:45:42Z</time>
</trkpt>
<trkpt lat="47.911999" lon="11.10861">
<ele>551.631</ele>
<time>2022-05-27T16:45:43Z</time>
</trkpt>
<trkpt lat="47.912048" lon="11.108607">
<ele>551.6</ele>
<time>2022-05-27T16:45:44Z</time>
</trkpt>
<trkpt lat="47.912098" lon="11.108603">
<ele>551.576</ele>
<time>2022-05-27T16:45:45Z</time>
</trkpt>
<trkpt lat="47.912151" lon="11.108599">
<ele>551.576</ele>
<time>2022-05-27T16:45:46Z</time>
</trkpt>
<trkpt lat="47.912201" lon="11.108593">
<ele>551.576</ele>
<time>2022-05-27T16:45:47Z</time>
</trkpt>
<trkpt lat="47.912239" lon="11.108584">
<ele>551.576</ele>
<time>2022-05-27T16:45:48Z</time>
</trkpt>
<trkpt lat="47.912289" lon="11.108575">
<ele>551.576</ele>
<time>2022-05-27T16:45:49Z</time>
</trkpt>
<trkpt lat="47.912334" lon="11.108566">
<ele>551.576</ele>
<time>2022-05-27T16:45:50Z</time>
</trkpt>
<trkpt lat="47.91238" lon="11.108557">
<ele>551.576</ele>
<time>2022-05-27T16:45:51Z</time>
</trkpt>
<trkpt lat="47.912434" lon="11.108555">
<ele>551.576</ele>
<time>2022-05-27T16:45:52Z</time>
</trkpt>
<trkpt lat="47.912487" lon="11.108548">
<ele>551.576</ele>
<time>2022-05-27T16:45:53Z</time>
</trkpt>
<trkpt lat="47.912544" lon="11.108537">
<ele>551.576</ele>
<time>2022-05-27T16:45:54Z</time>
</trkpt>
<trkpt lat="47.912594" lon="11.108526">
<ele>551.576</ele>
<time>2022-05-27T16:45:55Z</time>
</trkpt>
<trkpt lat="47.912643" lon="11.108523">
<ele>551.576</ele>
<time>2022-05-27T16:45:56Z</time>
</trkpt>
<trkpt lat="47.912689" lon="11.108512">
<ele>551.302</ele>
<time>2022-05-27T16:45:57Z</time>
</trkpt>
<trkpt lat="47.912743" lon="11.108523">
<ele>551.094</ele>
<time>2022-05-27T16:45:58Z</time>
</trkpt>
<trkpt lat="47.912796" lon="11.108537">
<ele>550.938</ele>
<time>2022-05-27T16:45:59Z</time>
</trkpt>
<trkpt lat="47.912853" lon="11.108543">
<ele>550.934</ele>
<time>2022-05-27T16:46:00Z</time>
</trkpt>
<trkpt lat="47.912899" lon="11.108546">
<ele>551.079</ele>
<time>2022-05-27T16:46:01Z</time>
</trkpt>
<trkpt lat="47.912941" lon="11.108553">
<ele>551.206</ele>
<time>2022-05-27T16:46:02Z</time>
</trkpt>
<trkpt lat="47.912983" lon="11.108555">
<ele>551.294</ele>
<time>2022-05-27T16:46:03Z</time>
</trkpt>
<trkpt lat="47.913033" lon="11.108555">
<ele>551.401</ele>
<time>2022-05-27T16:46:04Z</time>
</trkpt>
<trkpt lat="47.913082" lon="11.108559">
<ele>551.495</ele>
<time>2022-05-27T16:46:05Z</time>
</trkpt>
<trkpt lat="47.913132" lon="11.108563">
<ele>551.361</ele>
<time>2022-05-27T16:46:06Z</time>
</trkpt>
<trkpt lat="47.913177" lon="11.108572">
<ele>551.233</ele>
<time>2022-05-27T16:46:07Z</time>
</trkpt>
<trkpt lat="47.913223" lon="11.108581">
<ele>551.103</ele>
<time>2022-05-27T16:46:08Z</time>
</trkpt>
<trkpt lat="47.913269" lon="11.108584">
<ele>551.023</ele>
<time>2022-05-27T16:46:09Z</time>
</trkpt>
<trkpt lat="47.913311" lon="11.108595">
<ele>550.9</ele>
<time>2022-05-27T16:46:10Z</time>
</trkpt>
<trkpt lat="47.913345" lon="11.108603">
<ele>550.822</ele>
<time>2022-05-27T16:46:11Z</time>
</trkpt>
<trkpt lat="47.913387" lon="11.10861">
<ele>550.775</ele>
<time>2022-05-27T16:46:12Z</time>
</trkpt>
<trkpt lat="47.913425" lon="11.108616">
<ele>550.732</ele>
<time>2022-05-27T16:46:13Z</time>
</trkpt>
<trkpt lat="47.913467" lon="11.108618">
<ele>550.703</ele>
<time>2022-05-27T16:46:14Z</time>
</trkpt>
<trkpt lat="47.913506" lon="11.108622">
<ele>550.703</ele>
<time>2022-05-27T16:46:15Z</time>
</trkpt>
<trkpt lat="47.913555" lon="11.108626">
<ele>550.703</ele>
<time>2022-05-27T16:46:16Z</time>
</trkpt>
<trkpt lat="47.913601" lon="11.10863">
<ele>550.978</ele>
<time>2022-05-27T16:46:17Z</time>
</trkpt>
<trkpt lat="47.913647" lon="11.108635">
<ele>551.193</ele>
<time>2022-05-27T16:46:18Z</time>
</trkpt>
<trkpt lat="47.9137" lon="11.108632">
<ele>551.356</ele>
<time>2022-05-27T16:46:19Z</time>
</trkpt>
<trkpt lat="47.913754" lon="11.108632">
<ele>551.476</ele>
<time>2022-05-27T16:46:20Z</time>
</trkpt>
<trkpt lat="47.913799" lon="11.108632">
<ele>551.551</ele>
<time>2022-05-27T16:46:21Z</time>
</trkpt>
<trkpt lat="47.913845" lon="11.108632">
<ele>551.41</ele>
<time>2022-05-27T16:46:22Z</time>
</trkpt>
<trkpt lat="47.913895" lon="11.108632">
<ele>551.294</ele>
<time>2022-05-27T16:46:23Z</time>
</trkpt>
<trkpt lat="47.913944" lon="11.108632">
<ele>551.185</ele>
<time>2022-05-27T16:46:24Z</time>
</trkpt>
<trkpt lat="47.913994" lon="11.108628">
<ele>551.242</ele>
<time>2022-05-27T16:46:25Z</time>
</trkpt>
<trkpt lat="47.914047" lon="11.10863">
<ele>551.33</ele>
<time>2022-05-27T16:46:26Z</time>
</trkpt>
<trkpt lat="47.914093" lon="11.108628">
<ele>551.402</ele>
<time>2022-05-27T16:46:27Z</time>
</trkpt>
<trkpt lat="47.914143" lon="11.10862">
<ele>551.466</ele>
<time>2022-05-27T16:46:28Z</time>
</trkpt>
<trkpt lat="47.914196" lon="11.108614">
<ele>551.524</ele>
<time>2022-05-27T16:46:29Z</time>
</trkpt>
<trkpt lat="47.914253" lon="11.108608">
<ele>551.576</ele>
<time>2022-05-27T16:46:30Z</time>
</trkpt>
<trkpt lat="47.914307" lon="11.108602">
<ele>551.618</ele>
<time>2022-05-27T16:46:31Z</time>
</trkpt>
<trkpt lat="47.914352" lon="11.108597">
<ele>551.643</ele>
<time>2022-05-27T16:46:32Z</time>
</trkpt>
<trkpt lat="47.914398" lon="11.108584">
<ele>551.663</ele>
<time>2022-05-27T16:46:33Z</time>
</trkpt>
<trkpt lat="47.91444" lon="11.108574">
<ele>551.664</ele>
<time>2022-05-27T16:46:34Z</time>
</trkpt>
<trkpt lat="47.914482" lon="11.10856">
<ele>551.663</ele>
<time>2022-05-27T16:46:35Z</time>
</trkpt>
<trkpt lat="47.914528" lon="11.108546">
<ele>551.663</ele>
<time>2022-05-27T16:46:36Z</time>
</trkpt>
<trkpt lat="47.914574" lon="11.108532">
<ele>551.663</ele>
<time>2022-05-27T16:46:37Z</time>
</trkpt>
<trkpt lat="47.914616" lon="11.108513">
<ele>551.663</ele>
<time>2022-05-27T16:46:38Z</time>
</trkpt>
<trkpt lat="47.914665" lon="11.108497">
<ele>551.663</ele>
<time>2022-05-27T16:46:39Z</time>
</trkpt>
<trkpt lat="47.914711" lon="11.108478">
<ele>551.663</ele>
<time>2022-05-27T16:46:40Z</time>
</trkpt>
<trkpt lat="47.914753" lon="11.108461">
<ele>551.663</ele>
<time>2022-05-27T16:46:41Z</time>
</trkpt>
<trkpt lat="47.914803" lon="11.108444">
<ele>551.663</ele>
<time>2022-05-27T16:46:42Z</time>
</trkpt>
<trkpt lat="47.914848" lon="11.108425">
<ele>551.663</ele>
<time>2022-05-27T16:46:43Z</time>
</trkpt>
<trkpt lat="47.914902" lon="11.108402">
<ele>551.663</ele>
<time>2022-05-27T16:46:44Z</time>
</trkpt>
<trkpt lat="47.914951" lon="11.108377">
<ele>551.663</ele>
<time>2022-05-27T16:46:45Z</time>
</trkpt>
<trkpt lat="47.915001" lon="11.108355">
<ele>551.663</ele>
<time>2022-05-27T16:46:46Z</time>
</trkpt>
<trkpt lat="47.915047" lon="11.108332">
<ele>551.663</ele>
<time>2022-05-27T16:46:47Z</time>
</trkpt>
<trkpt lat="47.915092" lon="11.108308">
<ele>551.663</ele>
<time>2022-05-27T16:46:48Z</time>
</trkpt>
<trkpt lat="47.915138" lon="11.108287">
<ele>551.663</ele>
<time>2022-05-27T16:46:49Z</time>
</trkpt>
<trkpt lat="47.915184" lon="11.108264">
<ele>551.663</ele>
<time>2022-05-27T16:46:50Z</time>
</trkpt>
<trkpt lat="47.915234" lon="11.10824">
<ele>551.663</ele>
<time>2022-05-27T16:46:51Z</time>
</trkpt>
<trkpt lat="47.915283" lon="11.108215">
<ele>551.663</ele>
<time>2022-05-27T16:46:52Z</time>
</trkpt>
<trkpt lat="47.915333" lon="11.108187">
<ele>551.663</ele>
<time>2022-05-27T16:46:53Z</time>
</trkpt>
<trkpt lat="47.915379" lon="11.108157">
<ele>551.663</ele>
<time>2022-05-27T16:46:54Z</time>
</trkpt>
<trkpt lat="47.915428" lon="11.108134">
<ele>551.663</ele>
<time>2022-05-27T16:46:55Z</time>
</trkpt>
<trkpt lat="47.91547" lon="11.108113">
<ele>551.663</ele>
<time>2022-05-27T16:46:56Z</time>
</trkpt>
<trkpt lat="47.915512" lon="11.108092">
<ele>551.663</ele>
<time>2022-05-27T16:46:57Z</time>
</trkpt>
<trkpt lat="47.915558" lon="11.108069">
<ele>551.663</ele>
<time>2022-05-27T16:46:58Z</time>
</trkpt>
<trkpt lat="47.915604" lon="11.108048">
<ele>551.663</ele>
<time>2022-05-27T16:46:59Z</time>
</trkpt>
<trkpt lat="47.915649" lon="11.108027">
<ele>551.663</ele>
<time>2022-05-27T16:47:00Z</time>
</trkpt>
<trkpt lat="47.915695" lon="11.108005">
<ele>551.663</ele>
<time>2022-05-27T16:47:01Z</time>
</trkpt>
<trkpt lat="47.915741" lon="11.107984">
<ele>551.663</ele>
<time>2022-05-27T16:47:02Z</time>
</trkpt>
<trkpt lat="47.915783" lon="11.107955">
<ele>551.663</ele>
<time>2022-05-27T16:47:03Z</time>
</trkpt>
<trkpt lat="47.915825" lon="11.107928">
<ele>551.663</ele>
<time>2022-05-27T16:47:04Z</time>
</trkpt>
<trkpt lat="47.915867" lon="11.107903">
<ele>551.663</ele>
<time>2022-05-27T16:47:05Z</time>
</trkpt>
<trkpt lat="47.915913" lon="11.107879">
<ele>551.663</ele>
<time>2022-05-27T16:47:06Z</time>
</trkpt>
<trkpt lat="47.915962" lon="11.10786">
<ele>551.663</ele>
<time>2022-05-27T16:47:07Z</time>
</trkpt>
<trkpt lat="47.916012" lon="11.107841">
<ele>551.663</ele>
<time>2022-05-27T16:47:08Z</time>
</trkpt>
<trkpt lat="47.916065" lon="11.107821">
<ele>551.663</ele>
<time>2022-05-27T16:47:09Z</time>
</trkpt>
<trkpt lat="47.916119" lon="11.107805">
<ele>551.663</ele>
<time>2022-05-27T16:47:10Z</time>
</trkpt>
<trkpt lat="47.916172" lon="11.107797">
<ele>551.663</ele>
<time>2022-05-27T16:47:11Z</time>
</trkpt>
<trkpt lat="47.916222" lon="11.107792">
<ele>551.663</ele>
<time>2022-05-27T16:47:12Z</time>
</trkpt>
<trkpt lat="47.916275" lon="11.107792">
<ele>551.663</ele>
<time>2022-05-27T16:47:13Z</time>
</trkpt>
<trkpt lat="47.916328" lon="11.107788">
<ele>551.468</ele>
<time>2022-05-27T16:47:14Z</time>
</trkpt>
<trkpt lat="47.916382" lon="11.107786">
<ele>551.029</ele>
<time>2022-05-27T16:47:15Z</time>
</trkpt>
<trkpt lat="47.916439" lon="11.10779">
<ele>550.665</ele>
<time>2022-05-27T16:47:16Z</time>
</trkpt>
<trkpt lat="47.916489" lon="11.107793">
<ele>550.573</ele>
<time>2022-05-27T16:47:17Z</time>
</trkpt>
<trkpt lat="47.916542" lon="11.107799">
<ele>550.507</ele>
<time>2022-05-27T16:47:18Z</time>
</trkpt>
<trkpt lat="47.916595" lon="11.107807">
<ele>550.425</ele>
<time>2022-05-27T16:47:19Z</time>
</trkpt>
<trkpt lat="47.916645" lon="11.107818">
<ele>550.746</ele>
<time>2022-05-27T16:47:20Z</time>
</trkpt>
<trkpt lat="47.916698" lon="11.107828">
<ele>550.763</ele>
<time>2022-05-27T16:47:21Z</time>
</trkpt>
<trkpt lat="47.916756" lon="11.107839">
<ele>550.801</ele>
<time>2022-05-27T16:47:22Z</time>
</trkpt>
<trkpt lat="47.916805" lon="11.107847">
<ele>550.835</ele>
<time>2022-05-27T16:47:23Z</time>
</trkpt>
<trkpt lat="47.916859" lon="11.107851">
<ele>550.869</ele>
<time>2022-05-27T16:47:24Z</time>
</trkpt>
<trkpt lat="47.916912" lon="11.10786">
<ele>550.876</ele>
<time>2022-05-27T16:47:25Z</time>
</trkpt>
<trkpt lat="47.916962" lon="11.107866">
<ele>550.858</ele>
<time>2022-05-27T16:47:26Z</time>
</trkpt>
<trkpt lat="47.917011" lon="11.107874">
<ele>550.837</ele>
<time>2022-05-27T16:47:27Z</time>
</trkpt>
<trkpt lat="47.917057" lon="11.107883">
<ele>550.815</ele>
<time>2022-05-27T16:47:28Z</time>
</trkpt>
<trkpt lat="47.91711" lon="11.107893">
<ele>550.79</ele>
<time>2022-05-27T16:47:29Z</time>
</trkpt>
<trkpt lat="47.917164" lon="11.107903">
<ele>550.79</ele>
<time>2022-05-27T16:47:30Z</time>
</trkpt>
<trkpt lat="47.917217" lon="11.107914">
<ele>550.79</ele>
<time>2022-05-27T16:47:31Z</time>
</trkpt>
<trkpt lat="47.917271" lon="11.107921">
<ele>550.79</ele>
<time>2022-05-27T16:47:32Z</time>
</trkpt>
<trkpt lat="47.917324" lon="11.10793">
<ele>550.79</ele>
<time>2022-05-27T16:47:33Z</time>
</trkpt>
<trkpt lat="47.917385" lon="11.107944">
<ele>550.79</ele>
<time>2022-05-27T16:47:34Z</time>
</trkpt>
<trkpt lat="47.917442" lon="11.107958">
<ele>550.79</ele>
<time>2022-05-27T16:47:35Z</time>
</trkpt>
<trkpt lat="47.917496" lon="11.107971">
<ele>550.79</ele>
<time>2022-05-27T16:47:36Z</time>
</trkpt>
<trkpt lat="47.917557" lon="11.107991">
<ele>550.79</ele>
<time>2022-05-27T16:47:37Z</time>
</trkpt>
<trkpt lat="47.917614" lon="11.108013">
<ele>550.522</ele>
<time>2022-05-27T16:47:38Z</time>
</trkpt>
<trkpt lat="47.917679" lon="11.108033">
<ele>550.316</ele>
<time>2022-05-27T16:47:39Z</time>
</trkpt>
<trkpt lat="47.917744" lon="11.108053">
<ele>550.192</ele>
<time>2022-05-27T16:47:40Z</time>
</trkpt>
<trkpt lat="47.917805" lon="11.108075">
<ele>549.82</ele>
<time>2022-05-27T16:47:41Z</time>
</trkpt>
<trkpt lat="47.917866" lon="11.108098">
<ele>549.538</ele>
<time>2022-05-27T16:47:42Z</time>
</trkpt>
<trkpt lat="47.917927" lon="11.10812">
<ele>549.338</ele>
<time>2022-05-27T16:47:43Z</time>
</trkpt>
<trkpt lat="47.917992" lon="11.108143">
<ele>548.92</ele>
<time>2022-05-27T16:47:44Z</time>
</trkpt>
<trkpt lat="47.91806" lon="11.108168">
<ele>548.349</ele>
<time>2022-05-27T16:47:45Z</time>
</trkpt>
<trkpt lat="47.918133" lon="11.108199">
<ele>547.906</ele>
<time>2022-05-27T16:47:46Z</time>
</trkpt>
<trkpt lat="47.918205" lon="11.108231">
<ele>547.622</ele>
<time>2022-05-27T16:47:47Z</time>
</trkpt>
<trkpt lat="47.918285" lon="11.108265">
<ele>547.091</ele>
<time>2022-05-27T16:47:48Z</time>
</trkpt>
<trkpt lat="47.918362" lon="11.1083">
<ele>546.454</ele>
<time>2022-05-27T16:47:49Z</time>
</trkpt>
<trkpt lat="47.918438" lon="11.108341">
<ele>545.657</ele>
<time>2022-05-27T16:47:50Z</time>
</trkpt>
<trkpt lat="47.918518" lon="11.108392">
<ele>545.139</ele>
<time>2022-05-27T16:47:51Z</time>
</trkpt>
<trkpt lat="47.918591" lon="11.108448">
<ele>544.429</ele>
<time>2022-05-27T16:47:52Z</time>
</trkpt>
<trkpt lat="47.918671" lon="11.108513">
<ele>543.652</ele>
<time>2022-05-27T16:47:53Z</time>
</trkpt>
<trkpt lat="47.918755" lon="11.108582">
<ele>542.694</ele>
<time>2022-05-27T16:47:54Z</time>
</trkpt>
<trkpt lat="47.918831" lon="11.108655">
<ele>541.968</ele>
<time>2022-05-27T16:47:55Z</time>
</trkpt>
<trkpt lat="47.918911" lon="11.10874">
<ele>541.528</ele>
<time>2022-05-27T16:47:56Z</time>
</trkpt>
<trkpt lat="47.918983" lon="11.108833">
<ele>540.856</ele>
<time>2022-05-27T16:47:57Z</time>
</trkpt>
<trkpt lat="47.919056" lon="11.108932">
<ele>540.422</ele>
<time>2022-05-27T16:47:58Z</time>
</trkpt>
<trkpt lat="47.919121" lon="11.109039">
<ele>539.814</ele>
<time>2022-05-27T16:47:59Z</time>
</trkpt>
<trkpt lat="47.919182" lon="11.10916">
<ele>539.387</ele>
<time>2022-05-27T16:48:00Z</time>
</trkpt>
<trkpt lat="47.919243" lon="11.10928">
<ele>539.092</ele>
<time>2022-05-27T16:48:01Z</time>
</trkpt>
<trkpt lat="47.919296" lon="11.109395">
<ele>538.885</ele>
<time>2022-05-27T16:48:02Z</time>
</trkpt>
<trkpt lat="47.919342" lon="11.109509">
<ele>538.759</ele>
<time>2022-05-27T16:48:03Z</time>
</trkpt>
<trkpt lat="47.919388" lon="11.10962">
<ele>538.652</ele>
<time>2022-05-27T16:48:04Z</time>
</trkpt>
<trkpt lat="47.919434" lon="11.109731">
<ele>538.6</ele>
<time>2022-05-27T16:48:05Z</time>
</trkpt>
<trkpt lat="47.919483" lon="11.109834">
<ele>538.575</ele>
<time>2022-05-27T16:48:06Z</time>
</trkpt>
<trkpt lat="47.919537" lon="11.109932">
<ele>538.575</ele>
<time>2022-05-27T16:48:07Z</time>
</trkpt>
<trkpt lat="47.919582" lon="11.110015">
<ele>538.575</ele>
<time>2022-05-27T16:48:08Z</time>
</trkpt>
<trkpt lat="47.919632" lon="11.110095">
<ele>538.575</ele>
<time>2022-05-27T16:48:09Z</time>
</trkpt>
<trkpt lat="47.919674" lon="11.11017">
<ele>538.575</ele>
<time>2022-05-27T16:48:10Z</time>
</trkpt>
<trkpt lat="47.919716" lon="11.110235">
<ele>538.575</ele>
<time>2022-05-27T16:48:11Z</time>
</trkpt>
<trkpt lat="47.919762" lon="11.110294">
<ele>538.575</ele>
<time>2022-05-27T16:48:12Z</time>
</trkpt>
<trkpt lat="47.919811" lon="11.110358">
<ele>538.575</ele>
<time>2022-05-27T16:48:13Z</time>
</trkpt>
<trkpt lat="47.919865" lon="11.110418">
<ele>538.575</ele>
<time>2022-05-27T16:48:14Z</time>
</trkpt>
<trkpt lat="47.919914" lon="11.110474">
<ele>538.575</ele>
<time>2022-05-27T16:48:15Z</time>
</trkpt>
<trkpt lat="47.919964" lon="11.110518">
<ele>538.575</ele>
<time>2022-05-27T16:48:16Z</time>
</trkpt>
<trkpt lat="47.920025" lon="11.110563">
<ele>538.575</ele>
<time>2022-05-27T16:48:17Z</time>
</trkpt>
<trkpt lat="47.920086" lon="11.110604">
<ele>538.575</ele>
<time>2022-05-27T16:48:18Z</time>
</trkpt>
<trkpt lat="47.920139" lon="11.11065">
<ele>538.575</ele>
<time>2022-05-27T16:48:19Z</time>
</trkpt>
<trkpt lat="47.9202" lon="11.110694">
<ele>538.575</ele>
<time>2022-05-27T16:48:20Z</time>
</trkpt>
<trkpt lat="47.920254" lon="11.11073">
<ele>538.575</ele>
<time>2022-05-27T16:48:21Z</time>
</trkpt>
<trkpt lat="47.920311" lon="11.110764">
<ele>538.575</ele>
<time>2022-05-27T16:48:22Z</time>
</trkpt>
<trkpt lat="47.92038" lon="11.11079">
<ele>538.575</ele>
<time>2022-05-27T16:48:23Z</time>
</trkpt>
<trkpt lat="47.920448" lon="11.110816">
<ele>538.575</ele>
<time>2022-05-27T16:48:24Z</time>
</trkpt>
<trkpt lat="47.920513" lon="11.110841">
<ele>538.866</ele>
<time>2022-05-27T16:48:25Z</time>
</trkpt>
<trkpt lat="47.920578" lon="11.110862">
<ele>539.086</ele>
<time>2022-05-27T16:48:26Z</time>
</trkpt>
<trkpt lat="47.920643" lon="11.110879">
<ele>539.258</ele>
<time>2022-05-27T16:48:27Z</time>
</trkpt>
<trkpt lat="47.920704" lon="11.110893">
<ele>539.375</ele>
<time>2022-05-27T16:48:28Z</time>
</trkpt>
<trkpt lat="47.920765" lon="11.110907">
<ele>539.463</ele>
<time>2022-05-27T16:48:29Z</time>
</trkpt>
<trkpt lat="47.920826" lon="11.110914">
<ele>539.509</ele>
<time>2022-05-27T16:48:30Z</time>
</trkpt>
<trkpt lat="47.920887" lon="11.11092">
<ele>539.534</ele>
<time>2022-05-27T16:48:31Z</time>
</trkpt>
<trkpt lat="47.920952" lon="11.110923">
<ele>539.534</ele>
<time>2022-05-27T16:48:32Z</time>
</trkpt>
<trkpt lat="47.921013" lon="11.110923">
<ele>539.534</ele>
<time>2022-05-27T16:48:33Z</time>
</trkpt>
<trkpt lat="47.921074" lon="11.11092">
<ele>539.534</ele>
<time>2022-05-27T16:48:34Z</time>
</trkpt>
<trkpt lat="47.921135" lon="11.110912">
<ele>539.534</ele>
<time>2022-05-27T16:48:35Z</time>
</trkpt>
<trkpt lat="47.921192" lon="11.110902">
<ele>539.534</ele>
<time>2022-05-27T16:48:36Z</time>
</trkpt>
<trkpt lat="47.921246" lon="11.110891">
<ele>539.82</ele>
<time>2022-05-27T16:48:37Z</time>
</trkpt>
<trkpt lat="47.921295" lon="11.110879">
<ele>540.044</ele>
<time>2022-05-27T16:48:38Z</time>
</trkpt>
<trkpt lat="47.921337" lon="11.110865">
<ele>540.218</ele>
<time>2022-05-27T16:48:39Z</time>
</trkpt>
<trkpt lat="47.921391" lon="11.110851">
<ele>540.343</ele>
<time>2022-05-27T16:48:40Z</time>
</trkpt>
<trkpt lat="47.921432" lon="11.110835">
<ele>540.435</ele>
<time>2022-05-27T16:48:41Z</time>
</trkpt>
<trkpt lat="47.921482" lon="11.110815">
<ele>540.497</ele>
<time>2022-05-27T16:48:42Z</time>
</trkpt>
<trkpt lat="47.921532" lon="11.110791">
<ele>540.548</ele>
<time>2022-05-27T16:48:43Z</time>
</trkpt>
<trkpt lat="47.921581" lon="11.110768">
<ele>540.58</ele>
<time>2022-05-27T16:48:44Z</time>
</trkpt>
<trkpt lat="47.921627" lon="11.110742">
<ele>540.58</ele>
<time>2022-05-27T16:48:45Z</time>
</trkpt>
<trkpt lat="47.921684" lon="11.110713">
<ele>540.58</ele>
<time>2022-05-27T16:48:46Z</time>
</trkpt>
<trkpt lat="47.92173" lon="11.110685">
<ele>540.58</ele>
<time>2022-05-27T16:48:47Z</time>
</trkpt>
<trkpt lat="47.921776" lon="11.110657">
<ele>540.58</ele>
<time>2022-05-27T16:48:48Z</time>
</trkpt>
<trkpt lat="47.921829" lon="11.110628">
<ele>540.58</ele>
<time>2022-05-27T16:48:49Z</time>
</trkpt>
<trkpt lat="47.921879" lon="11.110601">
<ele>540.58</ele>
<time>2022-05-27T16:48:50Z</time>
</trkpt>
<trkpt lat="47.921928" lon="11.110573">
<ele>540.58</ele>
<time>2022-05-27T16:48:51Z</time>
</trkpt>
<trkpt lat="47.921978" lon="11.110545">
<ele>540.58</ele>
<time>2022-05-27T16:48:52Z</time>
</trkpt>
<trkpt lat="47.922028" lon="11.110518">
<ele>540.58</ele>
<time>2022-05-27T16:48:53Z</time>
</trkpt>
<trkpt lat="47.92207" lon="11.11049">
<ele>540.58</ele>
<time>2022-05-27T16:48:54Z</time>
</trkpt>
<trkpt lat="47.922115" lon="11.110461">
<ele>540.58</ele>
<time>2022-05-27T16:48:55Z</time>
</trkpt>
<trkpt lat="47.922165" lon="11.110435">
<ele>540.58</ele>
<time>2022-05-27T16:48:56Z</time>
</trkpt>
<trkpt lat="47.922211" lon="11.110414">
<ele>540.58</ele>
<time>2022-05-27T16:48:57Z</time>
</trkpt>
<trkpt lat="47.922256" lon="11.110393">
<ele>540.58</ele>
<time>2022-05-27T16:48:58Z</time>
</trkpt>
<trkpt lat="47.922302" lon="11.110376">
<ele>540.58</ele>
<time>2022-05-27T16:48:59Z</time>
</trkpt>
<trkpt lat="47.922344" lon="11.110361">
<ele>540.58</ele>
<time>2022-05-27T16:49:00Z</time>
</trkpt>
<trkpt lat="47.922394" lon="11.110345">
<ele>540.58</ele>
<time>2022-05-27T16:49:01Z</time>
</trkpt>
<trkpt lat="47.92244" lon="11.11033">
<ele>540.58</ele>
<time>2022-05-27T16:49:02Z</time>
</trkpt>
<trkpt lat="47.922493" lon="11.110313">
<ele>540.58</ele>
<time>2022-05-27T16:49:03Z</time>
</trkpt>
<trkpt lat="47.922546" lon="11.110296">
<ele>540.58</ele>
<time>2022-05-27T16:49:04Z</time>
</trkpt>
<trkpt lat="47.9226" lon="11.110282">
<ele>540.58</ele>
<time>2022-05-27T16:49:05Z</time>
</trkpt>
<trkpt lat="47.922649" lon="11.11027">
<ele>540.58</ele>
<time>2022-05-27T16:49:06Z</time>
</trkpt>
<trkpt lat="47.922699" lon="11.110258">
<ele>540.58</ele>
<time>2022-05-27T16:49:07Z</time>
</trkpt>
<trkpt lat="47.922745" lon="11.110246">
<ele>540.58</ele>
<time>2022-05-27T16:49:08Z</time>
</trkpt>
<trkpt lat="47.922794" lon="11.110238">
<ele>540.58</ele>
<time>2022-05-27T16:49:09Z</time>
</trkpt>
<trkpt lat="47.922836" lon="11.110237">
<ele>540.58</ele>
<time>2022-05-27T16:49:10Z</time>
</trkpt>
<trkpt lat="47.922878" lon="11.110237">
<ele>540.58</ele>
<time>2022-05-27T16:49:11Z</time>
</trkpt>
<trkpt lat="47.92292" lon="11.110237">
<ele>540.58</ele>
<time>2022-05-27T16:49:12Z</time>
</trkpt>
<trkpt lat="47.922962" lon="11.110233">
<ele>540.356</ele>
<time>2022-05-27T16:49:13Z</time>
</trkpt>
<trkpt lat="47.923016" lon="11.110229">
<ele>540.137</ele>
<time>2022-05-27T16:49:14Z</time>
</trkpt>
<trkpt lat="47.923069" lon="11.110227">
<ele>539.954</ele>
<time>2022-05-27T16:49:15Z</time>
</trkpt>
<trkpt lat="47.923122" lon="11.110227">
<ele>539.801</ele>
<time>2022-05-27T16:49:16Z</time>
</trkpt>
<trkpt lat="47.923172" lon="11.110229">
<ele>539.687</ele>
<time>2022-05-27T16:49:17Z</time>
</trkpt>
<trkpt lat="47.923218" lon="11.11024">
<ele>539.606</ele>
<time>2022-05-27T16:49:18Z</time>
</trkpt>
<trkpt lat="47.92326" lon="11.110247">
<ele>539.555</ele>
<time>2022-05-27T16:49:19Z</time>
</trkpt>
<trkpt lat="47.923306" lon="11.110252">
<ele>539.534</ele>
<time>2022-05-27T16:49:20Z</time>
</trkpt>
<trkpt lat="47.923351" lon="11.110254">
<ele>539.534</ele>
<time>2022-05-27T16:49:21Z</time>
</trkpt>
<trkpt lat="47.923405" lon="11.110263">
<ele>539.534</ele>
<time>2022-05-27T16:49:22Z</time>
</trkpt>
<trkpt lat="47.923454" lon="11.110271">
<ele>539.534</ele>
<time>2022-05-27T16:49:23Z</time>
</trkpt>
<trkpt lat="47.923512" lon="11.11028">
<ele>539.534</ele>
<time>2022-05-27T16:49:24Z</time>
</trkpt>
<trkpt lat="47.923569" lon="11.110288">
<ele>539.534</ele>
<time>2022-05-27T16:49:25Z</time>
</trkpt>
<trkpt lat="47.923626" lon="11.110298">
<ele>539.534</ele>
<time>2022-05-27T16:49:26Z</time>
</trkpt>
<trkpt lat="47.923683" lon="11.110311">
<ele>539.534</ele>
<time>2022-05-27T16:49:27Z</time>
</trkpt>
<trkpt lat="47.92374" lon="11.110323">
<ele>539.534</ele>
<time>2022-05-27T16:49:28Z</time>
</trkpt>
<trkpt lat="47.923798" lon="11.110335">
<ele>539.534</ele>
<time>2022-05-27T16:49:29Z</time>
</trkpt>
<trkpt lat="47.923855" lon="11.110349">
<ele>539.283</ele>
<time>2022-05-27T16:49:30Z</time>
</trkpt>
<trkpt lat="47.923908" lon="11.110365">
<ele>539.09</ele>
<time>2022-05-27T16:49:31Z</time>
</trkpt>
<trkpt lat="47.923965" lon="11.110378">
<ele>538.942</ele>
<time>2022-05-27T16:49:32Z</time>
</trkpt>
<trkpt lat="47.924015" lon="11.110391">
<ele>538.841</ele>
<time>2022-05-27T16:49:33Z</time>
</trkpt>
<trkpt lat="47.924068" lon="11.110405">
<ele>538.736</ele>
<time>2022-05-27T16:49:34Z</time>
</trkpt>
<trkpt lat="47.924118" lon="11.110422">
<ele>538.448</ele>
<time>2022-05-27T16:49:35Z</time>
</trkpt>
<trkpt lat="47.924168" lon="11.11044">
<ele>538.219</ele>
<time>2022-05-27T16:49:36Z</time>
</trkpt>
<trkpt lat="47.924217" lon="11.110456">
<ele>538.046</ele>
<time>2022-05-27T16:49:37Z</time>
</trkpt>
<trkpt lat="47.924267" lon="11.110466">
<ele>537.857</ele>
<time>2022-05-27T16:49:38Z</time>
</trkpt>
<trkpt lat="47.92432" lon="11.11048">
<ele>537.778</ele>
<time>2022-05-27T16:49:39Z</time>
</trkpt>
<trkpt lat="47.924366" lon="11.110496">
<ele>537.729</ele>
<time>2022-05-27T16:49:40Z</time>
</trkpt>
<trkpt lat="47.924416" lon="11.11051">
<ele>537.706</ele>
<time>2022-05-27T16:49:41Z</time>
</trkpt>
<trkpt lat="47.924465" lon="11.110523">
<ele>537.702</ele>
<time>2022-05-27T16:49:42Z</time>
</trkpt>
<trkpt lat="47.924515" lon="11.110535">
<ele>537.702</ele>
<time>2022-05-27T16:49:43Z</time>
</trkpt>
<trkpt lat="47.924561" lon="11.11055">
<ele>537.702</ele>
<time>2022-05-27T16:49:44Z</time>
</trkpt>
<trkpt lat="47.924614" lon="11.110565">
<ele>537.702</ele>
<time>2022-05-27T16:49:45Z</time>
</trkpt>
<trkpt lat="47.92466" lon="11.110577">
<ele>537.702</ele>
<time>2022-05-27T16:49:46Z</time>
</trkpt>
<trkpt lat="47.924709" lon="11.110585">
<ele>537.702</ele>
<time>2022-05-27T16:49:47Z</time>
</trkpt>
<trkpt lat="47.924755" lon="11.110596">
<ele>537.702</ele>
<time>2022-05-27T16:49:48Z</time>
</trkpt>
<trkpt lat="47.924809" lon="11.110604">
<ele>537.702</ele>
<time>2022-05-27T16:49:49Z</time>
</trkpt>
<trkpt lat="47.924858" lon="11.110613">
<ele>537.702</ele>
<time>2022-05-27T16:49:50Z</time>
</trkpt>
<trkpt lat="47.924904" lon="11.110621">
<ele>537.702</ele>
<time>2022-05-27T16:49:51Z</time>
</trkpt>
<trkpt lat="47.924942" lon="11.110627">
<ele>537.702</ele>
<time>2022-05-27T16:49:52Z</time>
</trkpt>
<trkpt lat="47.924984" lon="11.110632">
<ele>537.702</ele>
<time>2022-05-27T16:49:53Z</time>
</trkpt>
<trkpt lat="47.925041" lon="11.110638">
<ele>537.702</ele>
<time>2022-05-27T16:49:54Z</time>
</trkpt>
<trkpt lat="47.925091" lon="11.110643">
<ele>537.702</ele>
<time>2022-05-27T16:49:55Z</time>
</trkpt>
<trkpt lat="47.925144" lon="11.110652">
<ele>537.702</ele>
<time>2022-05-27T16:49:56Z</time>
</trkpt>
<trkpt lat="47.925194" lon="11.110661">
<ele>537.702</ele>
<time>2022-05-27T16:49:57Z</time>
</trkpt>
<trkpt lat="47.925247" lon="11.110663">
<ele>537.702</ele>
<time>2022-05-27T16:49:58Z</time>
</trkpt>
<trkpt lat="47.925301" lon="11.110667">
<ele>537.702</ele>
<time>2022-05-27T16:49:59Z</time>
</trkpt>
<trkpt lat="47.925354" lon="11.110671">
<ele>537.702</ele>
<time>2022-05-27T16:50:00Z</time>
</trkpt>
<trkpt lat="47.925407" lon="11.11068">
<ele>537.702</ele>
<time>2022-05-27T16:50:01Z</time>
</trkpt>
<trkpt lat="47.925468" lon="11.110688">
<ele>537.702</ele>
<time>2022-05-27T16:50:02Z</time>
</trkpt>
<trkpt lat="47.925526" lon="11.110694">
<ele>537.702</ele>
<time>2022-05-27T16:50:03Z</time>
</trkpt>
<trkpt lat="47.925583" lon="11.110701">
<ele>537.702</ele>
<time>2022-05-27T16:50:04Z</time>
</trkpt>
<trkpt lat="47.92564" lon="11.110706">
<ele>537.406</ele>
<time>2022-05-27T16:50:05Z</time>
</trkpt>
<trkpt lat="47.925694" lon="11.11071">
<ele>537.186</ele>
<time>2022-05-27T16:50:06Z</time>
</trkpt>
<trkpt lat="47.925747" lon="11.110708">
<ele>537.022</ele>
<time>2022-05-27T16:50:07Z</time>
</trkpt>
<trkpt lat="47.925804" lon="11.11071">
<ele>536.903</ele>
<time>2022-05-27T16:50:08Z</time>
</trkpt>
<trkpt lat="47.925861" lon="11.110715">
<ele>536.822</ele>
<time>2022-05-27T16:50:09Z</time>
</trkpt>
<trkpt lat="47.925922" lon="11.11072">
<ele>536.768</ele>
<time>2022-05-27T16:50:10Z</time>
</trkpt>
<trkpt lat="47.925976" lon="11.110723">
<ele>536.743</ele>
<time>2022-05-27T16:50:11Z</time>
</trkpt>
<trkpt lat="47.926029" lon="11.110723">
<ele>536.743</ele>
<time>2022-05-27T16:50:12Z</time>
</trkpt>
<trkpt lat="47.92609" lon="11.110718">
<ele>536.743</ele>
<time>2022-05-27T16:50:13Z</time>
</trkpt>
<trkpt lat="47.926151" lon="11.110713">
<ele>536.743</ele>
<time>2022-05-27T16:50:14Z</time>
</trkpt>
<trkpt lat="47.926208" lon="11.110711">
<ele>536.743</ele>
<time>2022-05-27T16:50:15Z</time>
</trkpt>
<trkpt lat="47.926266" lon="11.110706">
<ele>536.743</ele>
<time>2022-05-27T16:50:16Z</time>
</trkpt>
<trkpt lat="47.926323" lon="11.110702">
<ele>537.036</ele>
<time>2022-05-27T16:50:17Z</time>
</trkpt>
<trkpt lat="47.92638" lon="11.110697">
<ele>537.266</ele>
<time>2022-05-27T16:50:18Z</time>
</trkpt>
<trkpt lat="47.926437" lon="11.11069">
<ele>537.44</ele>
<time>2022-05-27T16:50:19Z</time>
</trkpt>
<trkpt lat="47.926498" lon="11.110686">
<ele>537.567</ele>
<time>2022-05-27T16:50:20Z</time>
</trkpt>
<trkpt lat="47.926556" lon="11.110683">
<ele>537.656</ele>
<time>2022-05-27T16:50:21Z</time>
</trkpt>
<trkpt lat="47.926613" lon="11.110682">
<ele>537.712</ele>
<time>2022-05-27T16:50:22Z</time>
</trkpt>
<trkpt lat="47.92667" lon="11.110677">
<ele>537.76</ele>
<time>2022-05-27T16:50:23Z</time>
</trkpt>
<trkpt lat="47.926727" lon="11.110673">
<ele>537.79</ele>
<time>2022-05-27T16:50:24Z</time>
</trkpt>
<trkpt lat="47.926781" lon="11.110671">
<ele>537.79</ele>
<time>2022-05-27T16:50:25Z</time>
</trkpt>
<trkpt lat="47.926838" lon="11.110669">
<ele>537.79</ele>
<time>2022-05-27T16:50:26Z</time>
</trkpt>
<trkpt lat="47.926899" lon="11.110669">
<ele>537.79</ele>
<time>2022-05-27T16:50:27Z</time>
</trkpt>
<trkpt lat="47.926956" lon="11.110671">
<ele>537.79</ele>
<time>2022-05-27T16:50:28Z</time>
</trkpt>
<trkpt lat="47.927013" lon="11.110673">
<ele>537.511</ele>
<time>2022-05-27T16:50:29Z</time>
</trkpt>
<trkpt lat="47.927071" lon="11.110677">
<ele>537.293</ele>
<time>2022-05-27T16:50:30Z</time>
</trkpt>
<trkpt lat="47.927128" lon="11.110683">
<ele>537.13</ele>
<time>2022-05-27T16:50:31Z</time>
</trkpt>
<trkpt lat="47.927181" lon="11.110688">
<ele>537.002</ele>
<time>2022-05-27T16:50:32Z</time>
</trkpt>
<trkpt lat="47.927231" lon="11.110697">
<ele>536.915</ele>
<time>2022-05-27T16:50:33Z</time>
</trkpt>
<trkpt lat="47.927288" lon="11.110704">
<ele>536.828</ele>
<time>2022-05-27T16:50:34Z</time>
</trkpt>
<trkpt lat="47.927338" lon="11.110711">
<ele>536.772</ele>
<time>2022-05-27T16:50:35Z</time>
</trkpt>
<trkpt lat="47.927395" lon="11.110715">
<ele>536.743</ele>
<time>2022-05-27T16:50:36Z</time>
</trkpt>
<trkpt lat="47.927452" lon="11.110713">
<ele>536.743</ele>
<time>2022-05-27T16:50:37Z</time>
</trkpt>
<trkpt lat="47.927505" lon="11.110711">
<ele>536.743</ele>
<time>2022-05-27T16:50:38Z</time>
</trkpt>
<trkpt lat="47.927559" lon="11.110711">
<ele>536.744</ele>
<time>2022-05-27T16:50:39Z</time>
</trkpt>
<trkpt lat="47.92762" lon="11.11071">
<ele>536.743</ele>
<time>2022-05-27T16:50:40Z</time>
</trkpt>
<trkpt lat="47.927677" lon="11.110704">
<ele>536.743</ele>
<time>2022-05-27T16:50:41Z</time>
</trkpt>
<trkpt lat="47.927731" lon="11.110699">
<ele>536.743</ele>
<time>2022-05-27T16:50:42Z</time>
</trkpt>
<trkpt lat="47.927788" lon="11.110688">
<ele>536.743</ele>
<time>2022-05-27T16:50:43Z</time>
</trkpt>
<trkpt lat="47.927845" lon="11.110678">
<ele>536.743</ele>
<time>2022-05-27T16:50:44Z</time>
</trkpt>
<trkpt lat="47.927898" lon="11.110669">
<ele>536.743</ele>
<time>2022-05-27T16:50:45Z</time>
</trkpt>
<trkpt lat="47.927959" lon="11.110661">
<ele>536.743</ele>
<time>2022-05-27T16:50:46Z</time>
</trkpt>
<trkpt lat="47.928017" lon="11.110653">
<ele>536.743</ele>
<time>2022-05-27T16:50:47Z</time>
</trkpt>
<trkpt lat="47.928074" lon="11.110646">
<ele>536.743</ele>
<time>2022-05-27T16:50:48Z</time>
</trkpt>
<trkpt lat="47.928131" lon="11.11064">
<ele>536.743</ele>
<time>2022-05-27T16:50:49Z</time>
</trkpt>
<trkpt lat="47.928188" lon="11.110632">
<ele>536.743</ele>
<time>2022-05-27T16:50:50Z</time>
</trkpt>
<trkpt lat="47.928242" lon="11.110627">
<ele>536.743</ele>
<time>2022-05-27T16:50:51Z</time>
</trkpt>
<trkpt lat="47.928303" lon="11.110621">
<ele>536.743</ele>
<time>2022-05-27T16:50:52Z</time>
</trkpt>
<trkpt lat="47.928356" lon="11.110615">
<ele>536.743</ele>
<time>2022-05-27T16:50:53Z</time>
</trkpt>
<trkpt lat="47.92841" lon="11.11061">
<ele>536.743</ele>
<time>2022-05-27T16:50:54Z</time>
</trkpt>
<trkpt lat="47.928463" lon="11.110603">
<ele>536.743</ele>
<time>2022-05-27T16:50:55Z</time>
</trkpt>
<trkpt lat="47.928516" lon="11.110597">
<ele>536.743</ele>
<time>2022-05-27T16:50:56Z</time>
</trkpt>
<trkpt lat="47.92857" lon="11.11059">
<ele>536.743</ele>
<time>2022-05-27T16:50:57Z</time>
</trkpt>
<trkpt lat="47.928627" lon="11.110583">
<ele>536.743</ele>
<time>2022-05-27T16:50:58Z</time>
</trkpt>
<trkpt lat="47.928677" lon="11.110577">
<ele>536.743</ele>
<time>2022-05-27T16:50:59Z</time>
</trkpt>
<trkpt lat="47.92873" lon="11.110568">
<ele>536.743</ele>
<time>2022-05-27T16:51:00Z</time>
</trkpt>
<trkpt lat="47.928787" lon="11.11056">
<ele>536.743</ele>
<time>2022-05-27T16:51:01Z</time>
</trkpt>
<trkpt lat="47.928841" lon="11.110552">
<ele>536.488</ele>
<time>2022-05-27T16:51:02Z</time>
</trkpt>
<trkpt lat="47.928898" lon="11.110543">
<ele>536.305</ele>
<time>2022-05-27T16:51:03Z</time>
</trkpt>
<trkpt lat="47.928955" lon="11.110531">
<ele>536.119</ele>
<time>2022-05-27T16:51:04Z</time>
</trkpt>
<trkpt lat="47.929012" lon="11.110522">
<ele>535.97</ele>
<time>2022-05-27T16:51:05Z</time>
</trkpt>
<trkpt lat="47.929066" lon="11.11051">
<ele>535.856</ele>
<time>2022-05-27T16:51:06Z</time>
</trkpt>
<trkpt lat="47.929123" lon="11.110499">
<ele>535.774</ele>
<time>2022-05-27T16:51:07Z</time>
</trkpt>
<trkpt lat="47.92918" lon="11.110492">
<ele>535.722</ele>
<time>2022-05-27T16:51:08Z</time>
</trkpt>
<trkpt lat="47.929234" lon="11.110483">
<ele>535.697</ele>
<time>2022-05-27T16:51:09Z</time>
</trkpt>
<trkpt lat="47.929287" lon="11.110474">
<ele>535.697</ele>
<time>2022-05-27T16:51:10Z</time>
</trkpt>
<trkpt lat="47.929344" lon="11.110461">
<ele>535.697</ele>
<time>2022-05-27T16:51:11Z</time>
</trkpt>
<trkpt lat="47.929394" lon="11.11045">
<ele>535.697</ele>
<time>2022-05-27T16:51:12Z</time>
</trkpt>
<trkpt lat="47.929443" lon="11.110436">
<ele>535.697</ele>
<time>2022-05-27T16:51:13Z</time>
</trkpt>
<trkpt lat="47.929497" lon="11.110422">
<ele>535.697</ele>
<time>2022-05-27T16:51:14Z</time>
</trkpt>
<trkpt lat="47.929546" lon="11.11041">
<ele>535.697</ele>
<time>2022-05-27T16:51:15Z</time>
</trkpt>
<trkpt lat="47.929604" lon="11.110398">
<ele>535.697</ele>
<time>2022-05-27T16:51:16Z</time>
</trkpt>
<trkpt lat="47.929657" lon="11.110391">
<ele>535.697</ele>
<time>2022-05-27T16:51:17Z</time>
</trkpt>
<trkpt lat="47.92971" lon="11.11038">
<ele>535.697</ele>
<time>2022-05-27T16:51:18Z</time>
</trkpt>
<trkpt lat="47.929768" lon="11.110368">
<ele>535.697</ele>
<time>2022-05-27T16:51:19Z</time>
</trkpt>
<trkpt lat="47.92981" lon="11.110353">
<ele>535.63</ele>
<time>2022-05-27T16:51:20Z</time>
</trkpt>
<trkpt lat="47.929859" lon="11.110335">
<ele>535.578</ele>
<time>2022-05-27T16:51:21Z</time>
</trkpt>
<trkpt lat="47.929913" lon="11.110322">
<ele>535.538</ele>
<time>2022-05-27T16:51:22Z</time>
</trkpt>
<trkpt lat="47.929962" lon="11.110311">
<ele>535.502</ele>
<time>2022-05-27T16:51:23Z</time>
</trkpt>
<trkpt lat="47.930008" lon="11.110298">
<ele>535.476</ele>
<time>2022-05-27T16:51:24Z</time>
</trkpt>
<trkpt lat="47.930065" lon="11.110288">
<ele>535.456</ele>
<time>2022-05-27T16:51:25Z</time>
</trkpt>
<trkpt lat="47.930119" lon="11.110278">
<ele>535.443</ele>
<time>2022-05-27T16:51:26Z</time>
</trkpt>
<trkpt lat="47.930164" lon="11.110269">
<ele>535.436</ele>
<time>2022-05-27T16:51:27Z</time>
</trkpt>
<trkpt lat="47.930222" lon="11.11026">
<ele>535.436</ele>
<time>2022-05-27T16:51:28Z</time>
</trkpt>
<trkpt lat="47.930271" lon="11.11025">
<ele>535.436</ele>
<time>2022-05-27T16:51:29Z</time>
</trkpt>
<trkpt lat="47.930328" lon="11.110238">
<ele>535.436</ele>
<time>2022-05-27T16:51:30Z</time>
</trkpt>
<trkpt lat="47.930382" lon="11.110223">
<ele>535.436</ele>
<time>2022-05-27T16:51:31Z</time>
</trkpt>
<trkpt lat="47.930435" lon="11.110207">
<ele>535.436</ele>
<time>2022-05-27T16:51:32Z</time>
</trkpt>
<trkpt lat="47.930489" lon="11.110188">
<ele>535.436</ele>
<time>2022-05-27T16:51:33Z</time>
</trkpt>
<trkpt lat="47.930538" lon="11.110173">
<ele>535.201</ele>
<time>2022-05-27T16:51:34Z</time>
</trkpt>
<trkpt lat="47.930588" lon="11.110158">
<ele>535.006</ele>
<time>2022-05-27T16:51:35Z</time>
</trkpt>
<trkpt lat="47.930637" lon="11.110144">
<ele>534.849</ele>
<time>2022-05-27T16:51:36Z</time>
</trkpt>
<trkpt lat="47.930687" lon="11.110126">
<ele>534.721</ele>
<time>2022-05-27T16:51:37Z</time>
</trkpt>
<trkpt lat="47.93074" lon="11.110108">
<ele>534.621</ele>
<time>2022-05-27T16:51:38Z</time>
</trkpt>
<trkpt lat="47.93079" lon="11.110091">
<ele>534.549</ele>
<time>2022-05-27T16:51:39Z</time>
</trkpt>
<trkpt lat="47.930843" lon="11.110075">
<ele>534.501</ele>
<time>2022-05-27T16:51:40Z</time>
</trkpt>
<trkpt lat="47.930893" lon="11.110058">
<ele>534.477</ele>
<time>2022-05-27T16:51:41Z</time>
</trkpt>
<trkpt lat="47.930946" lon="11.110043">
<ele>534.477</ele>
<time>2022-05-27T16:51:42Z</time>
</trkpt>
<trkpt lat="47.931" lon="11.110026">
<ele>534.477</ele>
<time>2022-05-27T16:51:43Z</time>
</trkpt>
<trkpt lat="47.931053" lon="11.110011">
<ele>534.477</ele>
<time>2022-05-27T16:51:44Z</time>
</trkpt>
<trkpt lat="47.931107" lon="11.109997">
<ele>534.74</ele>
<time>2022-05-27T16:51:45Z</time>
</trkpt>
<trkpt lat="47.931164" lon="11.109982">
<ele>534.695</ele>
<time>2022-05-27T16:51:46Z</time>
</trkpt>
<trkpt lat="47.931217" lon="11.109963">
<ele>534.656</ele>
<time>2022-05-27T16:51:47Z</time>
</trkpt>
<trkpt lat="47.931271" lon="11.109946">
<ele>534.621</ele>
<time>2022-05-27T16:51:48Z</time>
</trkpt>
<trkpt lat="47.93132" lon="11.109932">
<ele>534.591</ele>
<time>2022-05-27T16:51:49Z</time>
</trkpt>
<trkpt lat="47.93137" lon="11.10992">
<ele>534.563</ele>
<time>2022-05-27T16:51:50Z</time>
</trkpt>
<trkpt lat="47.931423" lon="11.109908">
<ele>534.539</ele>
<time>2022-05-27T16:51:51Z</time>
</trkpt>
<trkpt lat="47.931473" lon="11.109894">
<ele>534.516</ele>
<time>2022-05-27T16:51:52Z</time>
</trkpt>
<trkpt lat="47.931522" lon="11.109879">
<ele>534.501</ele>
<time>2022-05-27T16:51:53Z</time>
</trkpt>
<trkpt lat="47.931572" lon="11.109865">
<ele>534.477</ele>
<time>2022-05-27T16:51:54Z</time>
</trkpt>
<trkpt lat="47.931622" lon="11.10985">
<ele>534.477</ele>
<time>2022-05-27T16:51:55Z</time>
</trkpt>
<trkpt lat="47.931671" lon="11.109834">
<ele>534.477</ele>
<time>2022-05-27T16:51:56Z</time>
</trkpt>
<trkpt lat="47.931725" lon="11.10982">
<ele>534.477</ele>
<time>2022-05-27T16:51:57Z</time>
</trkpt>
<trkpt lat="47.931774" lon="11.109806">
<ele>534.477</ele>
<time>2022-05-27T16:51:58Z</time>
</trkpt>
<trkpt lat="47.931824" lon="11.109794">
<ele>534.477</ele>
<time>2022-05-27T16:51:59Z</time>
</trkpt>
<trkpt lat="47.931873" lon="11.109778">
<ele>534.477</ele>
<time>2022-05-27T16:52:00Z</time>
</trkpt>
<trkpt lat="47.931927" lon="11.109764">
<ele>534.477</ele>
<time>2022-05-27T16:52:01Z</time>
</trkpt>
<trkpt lat="47.931973" lon="11.109748">
<ele>534.477</ele>
<time>2022-05-27T16:52:02Z</time>
</trkpt>
<trkpt lat="47.932022" lon="11.109733">
<ele>534.477</ele>
<time>2022-05-27T16:52:03Z</time>
</trkpt>
<trkpt lat="47.932072" lon="11.109716">
<ele>534.477</ele>
<time>2022-05-27T16:52:04Z</time>
</trkpt>
<trkpt lat="47.932117" lon="11.109699">
<ele>534.477</ele>
<time>2022-05-27T16:52:05Z</time>
</trkpt>
<trkpt lat="47.932163" lon="11.109685">
<ele>534.477</ele>
<time>2022-05-27T16:52:06Z</time>
</trkpt>
<trkpt lat="47.932213" lon="11.109668">
<ele>534.477</ele>
<time>2022-05-27T16:52:07Z</time>
</trkpt>
<trkpt lat="47.932259" lon="11.109652">
<ele>534.477</ele>
<time>2022-05-27T16:52:08Z</time>
</trkpt>
<trkpt lat="47.932308" lon="11.109636">
<ele>534.477</ele>
<time>2022-05-27T16:52:09Z</time>
</trkpt>
<trkpt lat="47.932358" lon="11.109624">
<ele>534.477</ele>
<time>2022-05-27T16:52:10Z</time>
</trkpt>
<trkpt lat="47.932407" lon="11.109609">
<ele>534.477</ele>
<time>2022-05-27T16:52:11Z</time>
</trkpt>
<trkpt lat="47.932457" lon="11.109591">
<ele>534.477</ele>
<time>2022-05-27T16:52:12Z</time>
</trkpt>
<trkpt lat="47.932507" lon="11.109573">
<ele>534.477</ele>
<time>2022-05-27T16:52:13Z</time>
</trkpt>
<trkpt lat="47.932556" lon="11.109556">
<ele>534.477</ele>
<time>2022-05-27T16:52:14Z</time>
</trkpt>
<trkpt lat="47.93261" lon="11.109538">
<ele>534.477</ele>
<time>2022-05-27T16:52:15Z</time>
</trkpt>
<trkpt lat="47.932659" lon="11.10952">
<ele>534.477</ele>
<time>2022-05-27T16:52:16Z</time>
</trkpt>
<trkpt lat="47.932709" lon="11.1095">
<ele>534.477</ele>
<time>2022-05-27T16:52:17Z</time>
</trkpt>
<trkpt lat="47.932758" lon="11.10948">
<ele>534.477</ele>
<time>2022-05-27T16:52:18Z</time>
</trkpt>
<trkpt lat="47.932808" lon="11.109463">
<ele>534.477</ele>
<time>2022-05-27T16:52:19Z</time>
</trkpt>
<trkpt lat="47.932858" lon="11.109446">
<ele>534.477</ele>
<time>2022-05-27T16:52:20Z</time>
</trkpt>
<trkpt lat="47.932907" lon="11.109428">
<ele>534.477</ele>
<time>2022-05-27T16:52:21Z</time>
</trkpt>
<trkpt lat="47.932961" lon="11.109412">
<ele>534.477</ele>
<time>2022-05-27T16:52:22Z</time>
</trkpt>
<trkpt lat="47.933002" lon="11.109395">
<ele>534.477</ele>
<time>2022-05-27T16:52:23Z</time>
</trkpt>
<trkpt lat="47.933052" lon="11.109379">
<ele>534.477</ele>
<time>2022-05-27T16:52:24Z</time>
</trkpt>
<trkpt lat="47.933098" lon="11.109364">
<ele>534.477</ele>
<time>2022-05-27T16:52:25Z</time>
</trkpt>
<trkpt lat="47.933144" lon="11.109348">
<ele>534.726</ele>
<time>2022-05-27T16:52:26Z</time>
</trkpt>
<trkpt lat="47.933193" lon="11.109335">
<ele>534.92</ele>
<time>2022-05-27T16:52:27Z</time>
</trkpt>
<trkpt lat="47.933247" lon="11.10932">
<ele>535.067</ele>
<time>2022-05-27T16:52:28Z</time>
</trkpt>
<trkpt lat="47.933296" lon="11.109305">
<ele>535.177</ele>
<time>2022-05-27T16:52:29Z</time>
</trkpt>
<trkpt lat="47.93335" lon="11.10929">
<ele>535.259</ele>
<time>2022-05-27T16:52:30Z</time>
</trkpt>
<trkpt lat="47.933399" lon="11.109276">
<ele>535.304</ele>
<time>2022-05-27T16:52:31Z</time>
</trkpt>
<trkpt lat="47.933453" lon="11.10926">
<ele>535.329</ele>
<time>2022-05-27T16:52:32Z</time>
</trkpt>
<trkpt lat="47.933498" lon="11.109243">
<ele>535.349</ele>
<time>2022-05-27T16:52:33Z</time>
</trkpt>
<trkpt lat="47.933548" lon="11.109228">
<ele>535.349</ele>
<time>2022-05-27T16:52:34Z</time>
</trkpt>
<trkpt lat="47.933594" lon="11.109215">
<ele>535.091</ele>
<time>2022-05-27T16:52:35Z</time>
</trkpt>
<trkpt lat="47.933643" lon="11.109202">
<ele>534.895</ele>
<time>2022-05-27T16:52:36Z</time>
</trkpt>
<trkpt lat="47.933689" lon="11.109192">
<ele>534.74</ele>
<time>2022-05-27T16:52:37Z</time>
</trkpt>
<trkpt lat="47.933735" lon="11.109177">
<ele>534.631</ele>
<time>2022-05-27T16:52:38Z</time>
</trkpt>
<trkpt lat="47.933781" lon="11.109161">
<ele>534.552</ele>
<time>2022-05-27T16:52:39Z</time>
</trkpt>
<trkpt lat="47.933823" lon="11.109148">
<ele>534.504</ele>
<time>2022-05-27T16:52:40Z</time>
</trkpt>
<trkpt lat="47.933876" lon="11.10913">
<ele>534.481</ele>
<time>2022-05-27T16:52:41Z</time>
</trkpt>
<trkpt lat="47.933918" lon="11.109112">
<ele>534.477</ele>
<time>2022-05-27T16:52:42Z</time>
</trkpt>
<trkpt lat="47.933964" lon="11.109092">
<ele>534.477</ele>
<time>2022-05-27T16:52:43Z</time>
</trkpt>
<trkpt lat="47.934013" lon="11.109076">
<ele>534.477</ele>
<time>2022-05-27T16:52:44Z</time>
</trkpt>
<trkpt lat="47.934055" lon="11.109058">
<ele>534.477</ele>
<time>2022-05-27T16:52:45Z</time>
</trkpt>
<trkpt lat="47.934105" lon="11.109041">
<ele>534.477</ele>
<time>2022-05-27T16:52:46Z</time>
</trkpt>
<trkpt lat="47.934151" lon="11.109029">
<ele>534.477</ele>
<time>2022-05-27T16:52:47Z</time>
</trkpt>
<trkpt lat="47.934196" lon="11.109016">
<ele>534.477</ele>
<time>2022-05-27T16:52:48Z</time>
</trkpt>
<trkpt lat="47.934238" lon="11.109001">
<ele>534.477</ele>
<time>2022-05-27T16:52:49Z</time>
</trkpt>
<trkpt lat="47.934284" lon="11.108985">
<ele>534.742</ele>
<time>2022-05-27T16:52:50Z</time>
</trkpt>
<trkpt lat="47.934326" lon="11.10897">
<ele>534.95</ele>
<time>2022-05-27T16:52:51Z</time>
</trkpt>
<trkpt lat="47.934368" lon="11.108955">
<ele>535.114</ele>
<time>2022-05-27T16:52:52Z</time>
</trkpt>
<trkpt lat="47.934406" lon="11.10894">
<ele>535.225</ele>
<time>2022-05-27T16:52:53Z</time>
</trkpt>
<trkpt lat="47.934444" lon="11.108925">
<ele>535.121</ele>
<time>2022-05-27T16:52:54Z</time>
</trkpt>
<trkpt lat="47.93449" lon="11.108912">
<ele>535.017</ele>
<time>2022-05-27T16:52:55Z</time>
</trkpt>
<trkpt lat="47.934532" lon="11.108896">
<ele>534.913</ele>
<time>2022-05-27T16:52:56Z</time>
</trkpt>
<trkpt lat="47.93457" lon="11.10888">
<ele>534.81</ele>
<time>2022-05-27T16:52:57Z</time>
</trkpt>
<trkpt lat="47.934608" lon="11.108865">
<ele>534.73</ele>
<time>2022-05-27T16:52:58Z</time>
</trkpt>
<trkpt lat="47.934647" lon="11.10885">
<ele>534.641</ele>
<time>2022-05-27T16:52:59Z</time>
</trkpt>
<trkpt lat="47.934689" lon="11.108836">
<ele>534.588</ele>
<time>2022-05-27T16:53:00Z</time>
</trkpt>
<trkpt lat="47.934723" lon="11.108828">
<ele>534.564</ele>
<time>2022-05-27T16:53:01Z</time>
</trkpt>
<trkpt lat="47.934761" lon="11.108822">
<ele>534.564</ele>
<time>2022-05-27T16:53:02Z</time>
</trkpt>
<trkpt lat="47.934807" lon="11.10881">
<ele>534.564</ele>
<time>2022-05-27T16:53:03Z</time>
</trkpt>
<trkpt lat="47.934856" lon="11.108793">
<ele>534.564</ele>
<time>2022-05-27T16:53:04Z</time>
</trkpt>
<trkpt lat="47.934895" lon="11.108773">
<ele>534.564</ele>
<time>2022-05-27T16:53:05Z</time>
</trkpt>
<trkpt lat="47.934937" lon="11.108754">
<ele>534.564</ele>
<time>2022-05-27T16:53:06Z</time>
</trkpt>
<trkpt lat="47.934978" lon="11.108735">
<ele>534.564</ele>
<time>2022-05-27T16:53:07Z</time>
</trkpt>
<trkpt lat="47.935017" lon="11.108719">
<ele>534.564</ele>
<time>2022-05-27T16:53:08Z</time>
</trkpt>
<trkpt lat="47.935055" lon="11.108706">
<ele>534.564</ele>
<time>2022-05-27T16:53:09Z</time>
</trkpt>
<trkpt lat="47.935089" lon="11.1087">
<ele>534.564</ele>
<time>2022-05-27T16:53:10Z</time>
</trkpt>
<trkpt lat="47.93512" lon="11.108689">
<ele>534.564</ele>
<time>2022-05-27T16:53:11Z</time>
</trkpt>
<trkpt lat="47.93515" lon="11.108679">
<ele>534.564</ele>
<time>2022-05-27T16:53:12Z</time>
</trkpt>
<trkpt lat="47.935177" lon="11.108666">
<ele>534.564</ele>
<time>2022-05-27T16:53:13Z</time>
</trkpt>
<trkpt lat="47.935204" lon="11.108656">
<ele>534.564</ele>
<time>2022-05-27T16:53:14Z</time>
</trkpt>
<trkpt lat="47.935219" lon="11.108647">
<ele>534.564</ele>
<time>2022-05-27T16:53:15Z</time>
</trkpt>
<trkpt lat="47.935242" lon="11.108644">
<ele>534.564</ele>
<time>2022-05-27T16:53:16Z</time>
</trkpt>
<trkpt lat="47.935257" lon="11.10864">
<ele>534.564</ele>
<time>2022-05-27T16:53:17Z</time>
</trkpt>
<trkpt lat="47.935276" lon="11.10864">
<ele>534.772</ele>
<time>2022-05-27T16:53:18Z</time>
</trkpt>
<trkpt lat="47.935284" lon="11.108642">
<ele>534.945</ele>
<time>2022-05-27T16:53:19Z</time>
</trkpt>
<trkpt lat="47.935291" lon="11.108644">
<ele>535.085</ele>
<time>2022-05-27T16:53:20Z</time>
</trkpt>
<trkpt lat="47.935303" lon="11.10865">
<ele>535.192</ele>
<time>2022-05-27T16:53:21Z</time>
</trkpt>
<trkpt lat="47.935314" lon="11.108666">
<ele>535.274</ele>
<time>2022-05-27T16:53:22Z</time>
</trkpt>
<trkpt lat="47.935333" lon="11.108689">
<ele>535.347</ele>
<time>2022-05-27T16:53:23Z</time>
</trkpt>
<trkpt lat="47.935356" lon="11.108715">
<ele>535.408</ele>
<time>2022-05-27T16:53:24Z</time>
</trkpt>
<trkpt lat="47.935387" lon="11.108737">
<ele>535.436</ele>
<time>2022-05-27T16:53:25Z</time>
</trkpt>
<trkpt lat="47.935417" lon="11.108746">
<ele>535.436</ele>
<time>2022-05-27T16:53:26Z</time>
</trkpt>
<trkpt lat="47.935448" lon="11.108742">
<ele>535.436</ele>
<time>2022-05-27T16:53:27Z</time>
</trkpt>
<trkpt lat="47.935478" lon="11.108731">
<ele>535.436</ele>
<time>2022-05-27T16:53:28Z</time>
</trkpt>
<trkpt lat="47.935505" lon="11.108719">
<ele>535.436</ele>
<time>2022-05-27T16:53:29Z</time>
</trkpt>
<trkpt lat="47.93552" lon="11.108705">
<ele>535.436</ele>
<time>2022-05-27T16:53:30Z</time>
</trkpt>
<trkpt lat="47.935539" lon="11.108695">
<ele>535.436</ele>
<time>2022-05-27T16:53:31Z</time>
</trkpt>
<trkpt lat="47.935555" lon="11.108686">
<ele>535.436</ele>
<time>2022-05-27T16:53:32Z</time>
</trkpt>
<trkpt lat="47.935574" lon="11.108681">
<ele>535.436</ele>
<time>2022-05-27T16:53:33Z</time>
</trkpt>
<trkpt lat="47.935589" lon="11.108673">
<ele>535.436</ele>
<time>2022-05-27T16:53:34Z</time>
</trkpt>
<trkpt lat="47.9356" lon="11.108666">
<ele>535.436</ele>
<time>2022-05-27T16:53:35Z</time>
</trkpt>
<trkpt lat="47.935608" lon="11.108665">
<ele>535.436</ele>
<time>2022-05-27T16:53:36Z</time>
</trkpt>
<trkpt lat="47.935608" lon="11.108666">
<ele>535.436</ele>
<time>2022-05-27T16:53:37Z</time>
</trkpt>
<trkpt lat="47.935612" lon="11.10867">
<ele>535.436</ele>
<time>2022-05-27T16:53:38Z</time>
</trkpt>
<trkpt lat="47.935623" lon="11.10867">
<ele>535.436</ele>
<time>2022-05-27T16:54:01Z</time>
</trkpt>
<trkpt lat="47.935635" lon="11.108662">
<ele>535.246</ele>
<time>2022-05-27T16:54:02Z</time>
</trkpt>
<trkpt lat="47.935646" lon="11.108651">
<ele>535.063</ele>
<time>2022-05-27T16:54:03Z</time>
</trkpt>
<trkpt lat="47.935665" lon="11.108644">
<ele>534.904</ele>
<time>2022-05-27T16:54:04Z</time>
</trkpt>
<trkpt lat="47.935684" lon="11.108633">
<ele>534.78</ele>
<time>2022-05-27T16:54:05Z</time>
</trkpt>
<trkpt lat="47.935711" lon="11.108624">
<ele>534.634</ele>
<time>2022-05-27T16:54:06Z</time>
</trkpt>
<trkpt lat="47.935741" lon="11.108614">
<ele>534.586</ele>
<time>2022-05-27T16:54:07Z</time>
</trkpt>
<trkpt lat="47.935772" lon="11.1086">
<ele>534.57</ele>
<time>2022-05-27T16:54:08Z</time>
</trkpt>
<trkpt lat="47.935806" lon="11.108588">
<ele>534.564</ele>
<time>2022-05-27T16:54:09Z</time>
</trkpt>
<trkpt lat="47.935841" lon="11.108575">
<ele>534.564</ele>
<time>2022-05-27T16:54:10Z</time>
</trkpt>
<trkpt lat="47.935879" lon="11.108562">
<ele>534.564</ele>
<time>2022-05-27T16:54:11Z</time>
</trkpt>
<trkpt lat="47.935921" lon="11.108546">
<ele>534.564</ele>
<time>2022-05-27T16:54:12Z</time>
</trkpt>
<trkpt lat="47.935959" lon="11.108528">
<ele>534.564</ele>
<time>2022-05-27T16:54:13Z</time>
</trkpt>
<trkpt lat="47.936001" lon="11.108509">
<ele>534.564</ele>
<time>2022-05-27T16:54:14Z</time>
</trkpt>
<trkpt lat="47.936039" lon="11.10849">
<ele>534.564</ele>
<time>2022-05-27T16:54:15Z</time>
</trkpt>
<trkpt lat="47.936085" lon="11.108472">
<ele>534.564</ele>
<time>2022-05-27T16:54:16Z</time>
</trkpt>
<trkpt lat="47.936131" lon="11.108453">
<ele>534.564</ele>
<time>2022-05-27T16:54:17Z</time>
</trkpt>
<trkpt lat="47.936172" lon="11.108436">
<ele>534.564</ele>
<time>2022-05-27T16:54:18Z</time>
</trkpt>
<trkpt lat="47.936218" lon="11.108413">
<ele>534.564</ele>
<time>2022-05-27T16:54:19Z</time>
</trkpt>
<trkpt lat="47.93626" lon="11.108392">
<ele>534.564</ele>
<time>2022-05-27T16:54:20Z</time>
</trkpt>
<trkpt lat="47.936306" lon="11.108372">
<ele>534.798</ele>
<time>2022-05-27T16:54:21Z</time>
</trkpt>
<trkpt lat="47.936352" lon="11.108354">
<ele>534.98</ele>
<time>2022-05-27T16:54:22Z</time>
</trkpt>
<trkpt lat="47.936394" lon="11.108335">
<ele>535.119</ele>
<time>2022-05-27T16:54:23Z</time>
</trkpt>
<trkpt lat="47.936436" lon="11.108318">
<ele>535.22</ele>
<time>2022-05-27T16:54:24Z</time>
</trkpt>
<trkpt lat="47.936481" lon="11.108302">
<ele>535.292</ele>
<time>2022-05-27T16:54:25Z</time>
</trkpt>
<trkpt lat="47.936523" lon="11.108281">
<ele>535.343</ele>
<time>2022-05-27T16:54:26Z</time>
</trkpt>
<trkpt lat="47.936569" lon="11.108264">
<ele>535.121</ele>
<time>2022-05-27T16:54:27Z</time>
</trkpt>
<trkpt lat="47.936615" lon="11.108243">
<ele>534.928</ele>
<time>2022-05-27T16:54:28Z</time>
</trkpt>
<trkpt lat="47.936665" lon="11.108224">
<ele>534.758</ele>
<time>2022-05-27T16:54:29Z</time>
</trkpt>
<trkpt lat="47.93671" lon="11.108205">
<ele>534.637</ele>
<time>2022-05-27T16:54:30Z</time>
</trkpt>
<trkpt lat="47.936756" lon="11.108189">
<ele>534.759</ele>
<time>2022-05-27T16:54:31Z</time>
</trkpt>
<trkpt lat="47.936802" lon="11.108171">
<ele>534.876</ele>
<time>2022-05-27T16:54:32Z</time>
</trkpt>
<trkpt lat="47.936848" lon="11.108157">
<ele>534.793</ele>
<time>2022-05-27T16:54:33Z</time>
</trkpt>
<trkpt lat="47.936886" lon="11.10814">
<ele>534.736</ele>
<time>2022-05-27T16:54:34Z</time>
</trkpt>
<trkpt lat="47.936932" lon="11.108126">
<ele>534.645</ele>
<time>2022-05-27T16:54:35Z</time>
</trkpt>
<trkpt lat="47.936966" lon="11.108113">
<ele>534.611</ele>
<time>2022-05-27T16:54:36Z</time>
</trkpt>
<trkpt lat="47.937" lon="11.108102">
<ele>534.58</ele>
<time>2022-05-27T16:54:37Z</time>
</trkpt>
<trkpt lat="47.937031" lon="11.10809">
<ele>534.552</ele>
<time>2022-05-27T16:54:38Z</time>
</trkpt>
<trkpt lat="47.937061" lon="11.108078">
<ele>534.526</ele>
<time>2022-05-27T16:54:39Z</time>
</trkpt>
<trkpt lat="47.937092" lon="11.108065">
<ele>534.501</ele>
<time>2022-05-27T16:54:40Z</time>
</trkpt>
<trkpt lat="47.937119" lon="11.10805">
<ele>534.477</ele>
<time>2022-05-27T16:54:41Z</time>
</trkpt>
<trkpt lat="47.937149" lon="11.10804">
<ele>534.477</ele>
<time>2022-05-27T16:54:42Z</time>
</trkpt>
<trkpt lat="47.937172" lon="11.108031">
<ele>534.477</ele>
<time>2022-05-27T16:54:43Z</time>
</trkpt>
<trkpt lat="47.937202" lon="11.108025">
<ele>534.477</ele>
<time>2022-05-27T16:54:44Z</time>
</trkpt>
<trkpt lat="47.937229" lon="11.108017">
<ele>534.477</ele>
<time>2022-05-27T16:54:45Z</time>
</trkpt>
<trkpt lat="47.93726" lon="11.108004">
<ele>534.477</ele>
<time>2022-05-27T16:54:46Z</time>
</trkpt>
<trkpt lat="47.937294" lon="11.107989">
<ele>534.477</ele>
<time>2022-05-27T16:54:47Z</time>
</trkpt>
<trkpt lat="47.937332" lon="11.107982">
<ele>534.477</ele>
<time>2022-05-27T16:54:48Z</time>
</trkpt>
<trkpt lat="47.937374" lon="11.107979">
<ele>534.477</ele>
<time>2022-05-27T16:54:49Z</time>
</trkpt>
<trkpt lat="47.93742" lon="11.107975">
<ele>534.477</ele>
<time>2022-05-27T16:54:50Z</time>
</trkpt>
<trkpt lat="47.937462" lon="11.107966">
<ele>534.477</ele>
<time>2022-05-27T16:54:51Z</time>
</trkpt>
<trkpt lat="47.9375" lon="11.10796">
<ele>534.477</ele>
<time>2022-05-27T16:54:52Z</time>
</trkpt>
<trkpt lat="47.937534" lon="11.107954">
<ele>534.477</ele>
<time>2022-05-27T16:54:53Z</time>
</trkpt>
<trkpt lat="47.937569" lon="11.107942">
<ele>534.477</ele>
<time>2022-05-27T16:54:54Z</time>
</trkpt>
<trkpt lat="47.937603" lon="11.107928">
<ele>534.477</ele>
<time>2022-05-27T16:54:55Z</time>
</trkpt>
<trkpt lat="47.937641" lon="11.107917">
<ele>534.477</ele>
<time>2022-05-27T16:54:56Z</time>
</trkpt>
<trkpt lat="47.937675" lon="11.107903">
<ele>534.477</ele>
<time>2022-05-27T16:54:57Z</time>
</trkpt>
<trkpt lat="47.93771" lon="11.107893">
<ele>534.477</ele>
<time>2022-05-27T16:54:58Z</time>
</trkpt>
<trkpt lat="47.93774" lon="11.107885">
<ele>534.477</ele>
<time>2022-05-27T16:54:59Z</time>
</trkpt>
<trkpt lat="47.937775" lon="11.107874">
<ele>534.477</ele>
<time>2022-05-27T16:55:00Z</time>
</trkpt>
<trkpt lat="47.937805" lon="11.107866">
<ele>534.477</ele>
<time>2022-05-27T16:55:01Z</time>
</trkpt>
<trkpt lat="47.93784" lon="11.107857">
<ele>534.477</ele>
<time>2022-05-27T16:55:02Z</time>
</trkpt>
<trkpt lat="47.937874" lon="11.107849">
<ele>534.711</ele>
<time>2022-05-27T16:55:03Z</time>
</trkpt>
<trkpt lat="47.937908" lon="11.107841">
<ele>534.9</ele>
<time>2022-05-27T16:55:04Z</time>
</trkpt>
<trkpt lat="47.937939" lon="11.107832">
<ele>535.034</ele>
<time>2022-05-27T16:55:05Z</time>
</trkpt>
<trkpt lat="47.937977" lon="11.107825">
<ele>535.175</ele>
<time>2022-05-27T16:55:06Z</time>
</trkpt>
<trkpt lat="47.938015" lon="11.107816">
<ele>535.076</ele>
<time>2022-05-27T16:55:07Z</time>
</trkpt>
<trkpt lat="47.938053" lon="11.107803">
<ele>534.976</ele>
<time>2022-05-27T16:55:08Z</time>
</trkpt>
<trkpt lat="47.938087" lon="11.10779">
<ele>534.88</ele>
<time>2022-05-27T16:55:09Z</time>
</trkpt>
<trkpt lat="47.938126" lon="11.107779">
<ele>534.789</ele>
<time>2022-05-27T16:55:10Z</time>
</trkpt>
<trkpt lat="47.938175" lon="11.107763">
<ele>534.724</ele>
<time>2022-05-27T16:55:11Z</time>
</trkpt>
<trkpt lat="47.938217" lon="11.107748">
<ele>534.651</ele>
<time>2022-05-27T16:55:12Z</time>
</trkpt>
<trkpt lat="47.938263" lon="11.107734">
<ele>534.602</ele>
<time>2022-05-27T16:55:13Z</time>
</trkpt>
<trkpt lat="47.938301" lon="11.107715">
<ele>534.582</ele>
<time>2022-05-27T16:55:14Z</time>
</trkpt>
<trkpt lat="47.938347" lon="11.107697">
<ele>534.564</ele>
<time>2022-05-27T16:55:15Z</time>
</trkpt>
<trkpt lat="47.938385" lon="11.107677">
<ele>534.564</ele>
<time>2022-05-27T16:55:16Z</time>
</trkpt>
<trkpt lat="47.938419" lon="11.107669">
<ele>534.564</ele>
<time>2022-05-27T16:55:17Z</time>
</trkpt>
<trkpt lat="47.938454" lon="11.107663">
<ele>534.564</ele>
<time>2022-05-27T16:55:18Z</time>
</trkpt>
<trkpt lat="47.93848" lon="11.107658">
<ele>534.564</ele>
<time>2022-05-27T16:55:19Z</time>
</trkpt>
<trkpt lat="47.938503" lon="11.107654">
<ele>534.564</ele>
<time>2022-05-27T16:55:20Z</time>
</trkpt>
<trkpt lat="47.938522" lon="11.107648">
<ele>534.564</ele>
<time>2022-05-27T16:55:21Z</time>
</trkpt>
<trkpt lat="47.938541" lon="11.107641">
<ele>534.564</ele>
<time>2022-05-27T16:55:22Z</time>
</trkpt>
<trkpt lat="47.938549" lon="11.107632">
<ele>534.564</ele>
<time>2022-05-27T16:55:23Z</time>
</trkpt>
<trkpt lat="47.938564" lon="11.10762">
<ele>534.564</ele>
<time>2022-05-27T16:55:24Z</time>
</trkpt>
<trkpt lat="47.93858" lon="11.107613">
<ele>534.564</ele>
<time>2022-05-27T16:55:25Z</time>
</trkpt>
<trkpt lat="47.938595" lon="11.107613">
<ele>534.564</ele>
<time>2022-05-27T16:55:26Z</time>
</trkpt>
<trkpt lat="47.93861" lon="11.107615">
<ele>534.564</ele>
<time>2022-05-27T16:55:27Z</time>
</trkpt>
<trkpt lat="47.938622" lon="11.107612">
<ele>534.564</ele>
<time>2022-05-27T16:55:28Z</time>
</trkpt>
<trkpt lat="47.938633" lon="11.107608">
<ele>534.564</ele>
<time>2022-05-27T16:55:29Z</time>
</trkpt>
<trkpt lat="47.938641" lon="11.107608">
<ele>534.564</ele>
<time>2022-05-27T16:55:30Z</time>
</trkpt>
<trkpt lat="47.938675" lon="11.10759">
<ele>534.564</ele>
<time>2022-05-27T16:57:27Z</time>
</trkpt>
<trkpt lat="47.938686" lon="11.107583">
<ele>534.564</ele>
<time>2022-05-27T16:57:28Z</time>
</trkpt>
<trkpt lat="47.938705" lon="11.107576">
<ele>534.564</ele>
<time>2022-05-27T16:57:29Z</time>
</trkpt>
<trkpt lat="47.938728" lon="11.107573">
<ele>534.564</ele>
<time>2022-05-27T16:57:30Z</time>
</trkpt>
<trkpt lat="47.938751" lon="11.107571">
<ele>534.564</ele>
<time>2022-05-27T16:57:31Z</time>
</trkpt>
<trkpt lat="47.93877" lon="11.107569">
<ele>534.564</ele>
<time>2022-05-27T16:57:32Z</time>
</trkpt>
<trkpt lat="47.938797" lon="11.10756">
<ele>534.564</ele>
<time>2022-05-27T16:57:33Z</time>
</trkpt>
<trkpt lat="47.93882" lon="11.107553">
<ele>534.564</ele>
<time>2022-05-27T16:57:34Z</time>
</trkpt>
<trkpt lat="47.938835" lon="11.107547">
<ele>534.564</ele>
<time>2022-05-27T16:57:35Z</time>
</trkpt>
<trkpt lat="47.93885" lon="11.107541">
<ele>534.564</ele>
<time>2022-05-27T16:57:36Z</time>
</trkpt>
<trkpt lat="47.938869" lon="11.107537">
<ele>534.564</ele>
<time>2022-05-27T16:57:37Z</time>
</trkpt>
<trkpt lat="47.938881" lon="11.107525">
<ele>534.564</ele>
<time>2022-05-27T16:57:38Z</time>
</trkpt>
<trkpt lat="47.938896" lon="11.107508">
<ele>534.564</ele>
<time>2022-05-27T16:57:39Z</time>
</trkpt>
<trkpt lat="47.938908" lon="11.107483">
<ele>534.564</ele>
<time>2022-05-27T16:57:40Z</time>
</trkpt>
<trkpt lat="47.938931" lon="11.107458">
<ele>534.564</ele>
<time>2022-05-27T16:57:41Z</time>
</trkpt>
<trkpt lat="47.938953" lon="11.107438">
<ele>534.564</ele>
<time>2022-05-27T16:57:42Z</time>
</trkpt>
<trkpt lat="47.938976" lon="11.107422">
<ele>534.564</ele>
<time>2022-05-27T16:57:43Z</time>
</trkpt>
<trkpt lat="47.938999" lon="11.107413">
<ele>534.564</ele>
<time>2022-05-27T16:57:44Z</time>
</trkpt>
<trkpt lat="47.93903" lon="11.107407">
<ele>534.564</ele>
<time>2022-05-27T16:57:45Z</time>
</trkpt>
<trkpt lat="47.939056" lon="11.107397">
<ele>534.564</ele>
<time>2022-05-27T16:57:46Z</time>
</trkpt>
<trkpt lat="47.939095" lon="11.10739">
<ele>534.564</ele>
<time>2022-05-27T16:57:47Z</time>
</trkpt>
<trkpt lat="47.939129" lon="11.107384">
<ele>534.564</ele>
<time>2022-05-27T16:57:48Z</time>
</trkpt>
<trkpt lat="47.939163" lon="11.107373">
<ele>534.564</ele>
<time>2022-05-27T16:57:49Z</time>
</trkpt>
<trkpt lat="47.939201" lon="11.107362">
<ele>534.564</ele>
<time>2022-05-27T16:57:50Z</time>
</trkpt>
<trkpt lat="47.93924" lon="11.107348">
<ele>534.564</ele>
<time>2022-05-27T16:57:51Z</time>
</trkpt>
<trkpt lat="47.939281" lon="11.107335">
<ele>534.564</ele>
<time>2022-05-27T16:57:52Z</time>
</trkpt>
<trkpt lat="47.939323" lon="11.107324">
<ele>534.564</ele>
<time>2022-05-27T16:57:53Z</time>
</trkpt>
<trkpt lat="47.939362" lon="11.10731">
<ele>534.564</ele>
<time>2022-05-27T16:57:54Z</time>
</trkpt>
<trkpt lat="47.939404" lon="11.107296">
<ele>534.564</ele>
<time>2022-05-27T16:57:55Z</time>
</trkpt>
<trkpt lat="47.939445" lon="11.107282">
<ele>534.564</ele>
<time>2022-05-27T16:57:56Z</time>
</trkpt>
<trkpt lat="47.939487" lon="11.10727">
<ele>534.564</ele>
<time>2022-05-27T16:57:57Z</time>
</trkpt>
<trkpt lat="47.939522" lon="11.10726">
<ele>534.564</ele>
<time>2022-05-27T16:57:58Z</time>
</trkpt>
<trkpt lat="47.939564" lon="11.107246">
<ele>534.564</ele>
<time>2022-05-27T16:57:59Z</time>
</trkpt>
<trkpt lat="47.939606" lon="11.107233">
<ele>534.774</ele>
<time>2022-05-27T16:58:00Z</time>
</trkpt>
<trkpt lat="47.93964" lon="11.107221">
<ele>534.926</ele>
<time>2022-05-27T16:58:01Z</time>
</trkpt>
<trkpt lat="47.939678" lon="11.107205">
<ele>535.08</ele>
<time>2022-05-27T16:58:02Z</time>
</trkpt>
<trkpt lat="47.939716" lon="11.107189">
<ele>535.203</ele>
<time>2022-05-27T16:58:03Z</time>
</trkpt>
<trkpt lat="47.939754" lon="11.107175">
<ele>535.298</ele>
<time>2022-05-27T16:58:04Z</time>
</trkpt>
<trkpt lat="47.939796" lon="11.10716">
<ele>535.37</ele>
<time>2022-05-27T16:58:05Z</time>
</trkpt>
<trkpt lat="47.939842" lon="11.107145">
<ele>535.415</ele>
<time>2022-05-27T16:58:06Z</time>
</trkpt>
<trkpt lat="47.93988" lon="11.107132">
<ele>535.436</ele>
<time>2022-05-27T16:58:07Z</time>
</trkpt>
<trkpt lat="47.939922" lon="11.107117">
<ele>535.436</ele>
<time>2022-05-27T16:58:08Z</time>
</trkpt>
<trkpt lat="47.93996" lon="11.107103">
<ele>535.436</ele>
<time>2022-05-27T16:58:09Z</time>
</trkpt>
<trkpt lat="47.939999" lon="11.10709">
<ele>535.436</ele>
<time>2022-05-27T16:58:10Z</time>
</trkpt>
<trkpt lat="47.940037" lon="11.10708">
<ele>535.436</ele>
<time>2022-05-27T16:58:11Z</time>
</trkpt>
<trkpt lat="47.940071" lon="11.107075">
<ele>535.436</ele>
<time>2022-05-27T16:58:12Z</time>
</trkpt>
<trkpt lat="47.940098" lon="11.107072">
<ele>535.436</ele>
<time>2022-05-27T16:58:13Z</time>
</trkpt>
<trkpt lat="47.940125" lon="11.107068">
<ele>535.436</ele>
<time>2022-05-27T16:58:14Z</time>
</trkpt>
<trkpt lat="47.94014" lon="11.107065">
<ele>535.436</ele>
<time>2022-05-27T16:58:15Z</time>
</trkpt>
<trkpt lat="47.940147" lon="11.107061">
<ele>535.436</ele>
<time>2022-05-27T16:58:16Z</time>
</trkpt>
<trkpt lat="47.940163" lon="11.10705">
<ele>535.436</ele>
<time>2022-05-27T16:58:17Z</time>
</trkpt>
<trkpt lat="47.940174" lon="11.107037">
<ele>535.436</ele>
<time>2022-05-27T16:58:18Z</time>
</trkpt>
<trkpt lat="47.940189" lon="11.107017">
<ele>535.436</ele>
<time>2022-05-27T16:58:19Z</time>
</trkpt>
<trkpt lat="47.940205" lon="11.106992">
<ele>535.436</ele>
<time>2022-05-27T16:58:20Z</time>
</trkpt>
<trkpt lat="47.940228" lon="11.106963">
<ele>535.436</ele>
<time>2022-05-27T16:58:21Z</time>
</trkpt>
<trkpt lat="47.940247" lon="11.106932">
<ele>535.436</ele>
<time>2022-05-27T16:58:22Z</time>
</trkpt>
<trkpt lat="47.940269" lon="11.1069">
<ele>535.436</ele>
<time>2022-05-27T16:58:23Z</time>
</trkpt>
<trkpt lat="47.940304" lon="11.106871">
<ele>535.436</ele>
<time>2022-05-27T16:58:24Z</time>
</trkpt>
<trkpt lat="47.940334" lon="11.10684">
<ele>535.436</ele>
<time>2022-05-27T16:58:25Z</time>
</trkpt>
<trkpt lat="47.940369" lon="11.106813">
<ele>535.436</ele>
<time>2022-05-27T16:58:26Z</time>
</trkpt>
<trkpt lat="47.940403" lon="11.106782">
<ele>535.72</ele>
<time>2022-05-27T16:58:27Z</time>
</trkpt>
<trkpt lat="47.94043" lon="11.106747">
<ele>535.92</ele>
<time>2022-05-27T16:58:28Z</time>
</trkpt>
<trkpt lat="47.940464" lon="11.106707">
<ele>536.066</ele>
<time>2022-05-27T16:58:29Z</time>
</trkpt>
<trkpt lat="47.940498" lon="11.106668">
<ele>536.174</ele>
<time>2022-05-27T16:58:30Z</time>
</trkpt>
<trkpt lat="47.940533" lon="11.106627">
<ele>536.246</ele>
<time>2022-05-27T16:58:31Z</time>
</trkpt>
<trkpt lat="47.940563" lon="11.106584">
<ele>536.32</ele>
<time>2022-05-27T16:58:32Z</time>
</trkpt>
<trkpt lat="47.940598" lon="11.106535">
<ele>536.369</ele>
<time>2022-05-27T16:58:33Z</time>
</trkpt>
<trkpt lat="47.940628" lon="11.106485">
<ele>536.395</ele>
<time>2022-05-27T16:58:34Z</time>
</trkpt>
<trkpt lat="47.940659" lon="11.106431">
<ele>536.395</ele>
<time>2022-05-27T16:58:35Z</time>
</trkpt>
<trkpt lat="47.940689" lon="11.106374">
<ele>536.395</ele>
<time>2022-05-27T16:58:36Z</time>
</trkpt>
<trkpt lat="47.940716" lon="11.106314">
<ele>536.395</ele>
<time>2022-05-27T16:58:37Z</time>
</trkpt>
<trkpt lat="47.940742" lon="11.106253">
<ele>536.395</ele>
<time>2022-05-27T16:58:38Z</time>
</trkpt>
<trkpt lat="47.940765" lon="11.106198">
<ele>536.395</ele>
<time>2022-05-27T16:58:39Z</time>
</trkpt>
<trkpt lat="47.940788" lon="11.106142">
<ele>536.629</ele>
<time>2022-05-27T16:58:40Z</time>
</trkpt>
<trkpt lat="47.940807" lon="11.106085">
<ele>536.794</ele>
<time>2022-05-27T16:58:41Z</time>
</trkpt>
<trkpt lat="47.940826" lon="11.106024">
<ele>536.961</ele>
<time>2022-05-27T16:58:42Z</time>
</trkpt>
<trkpt lat="47.940853" lon="11.10596">
<ele>537.094</ele>
<time>2022-05-27T16:58:43Z</time>
</trkpt>
<trkpt lat="47.940872" lon="11.105897">
<ele>537.2</ele>
<time>2022-05-27T16:58:44Z</time>
</trkpt>
<trkpt lat="47.940895" lon="11.105836">
<ele>537.279</ele>
<time>2022-05-27T16:58:45Z</time>
</trkpt>
<trkpt lat="47.940914" lon="11.105773">
<ele>537.329</ele>
<time>2022-05-27T16:58:46Z</time>
</trkpt>
<trkpt lat="47.940929" lon="11.105719">
<ele>537.354</ele>
<time>2022-05-27T16:58:47Z</time>
</trkpt>
<trkpt lat="47.940952" lon="11.105668">
<ele>537.354</ele>
<time>2022-05-27T16:58:48Z</time>
</trkpt>
<trkpt lat="47.940964" lon="11.105612">
<ele>537.354</ele>
<time>2022-05-27T16:58:49Z</time>
</trkpt>
<trkpt lat="47.940979" lon="11.105555">
<ele>537.354</ele>
<time>2022-05-27T16:58:50Z</time>
</trkpt>
<trkpt lat="47.940994" lon="11.105496">
<ele>537.354</ele>
<time>2022-05-27T16:58:51Z</time>
</trkpt>
<trkpt lat="47.941021" lon="11.105452">
<ele>537.58</ele>
<time>2022-05-27T16:58:52Z</time>
</trkpt>
<trkpt lat="47.941048" lon="11.1054">
<ele>537.775</ele>
<time>2022-05-27T16:58:53Z</time>
</trkpt>
<trkpt lat="47.941071" lon="11.105348">
<ele>537.94</ele>
<time>2022-05-27T16:58:54Z</time>
</trkpt>
<trkpt lat="47.941101" lon="11.105304">
<ele>538.076</ele>
<time>2022-05-27T16:58:55Z</time>
</trkpt>
<trkpt lat="47.941128" lon="11.10526">
<ele>538.176</ele>
<time>2022-05-27T16:58:56Z</time>
</trkpt>
<trkpt lat="47.941158" lon="11.105213">
<ele>538.246</ele>
<time>2022-05-27T16:58:57Z</time>
</trkpt>
<trkpt lat="47.941193" lon="11.105171">
<ele>538.291</ele>
<time>2022-05-27T16:58:58Z</time>
</trkpt>
<trkpt lat="47.941227" lon="11.105132">
<ele>538.313</ele>
<time>2022-05-27T16:58:59Z</time>
</trkpt>
<trkpt lat="47.941261" lon="11.105092">
<ele>538.55</ele>
<time>2022-05-27T16:59:00Z</time>
</trkpt>
<trkpt lat="47.941299" lon="11.105057">
<ele>538.715</ele>
<time>2022-05-27T16:59:01Z</time>
</trkpt>
<trkpt lat="47.941338" lon="11.105025">
<ele>538.885</ele>
<time>2022-05-27T16:59:02Z</time>
</trkpt>
<trkpt lat="47.941376" lon="11.104996">
<ele>539.023</ele>
<time>2022-05-27T16:59:03Z</time>
</trkpt>
<trkpt lat="47.941414" lon="11.104964">
<ele>539.127</ele>
<time>2022-05-27T16:59:04Z</time>
</trkpt>
<trkpt lat="47.941452" lon="11.104943">
<ele>539.2</ele>
<time>2022-05-27T16:59:05Z</time>
</trkpt>
<trkpt lat="47.941494" lon="11.104923">
<ele>539.249</ele>
<time>2022-05-27T16:59:06Z</time>
</trkpt>
<trkpt lat="47.94154" lon="11.104901">
<ele>539.272</ele>
<time>2022-05-27T16:59:07Z</time>
</trkpt>
<trkpt lat="47.941582" lon="11.104882">
<ele>539.497</ele>
<time>2022-05-27T16:59:08Z</time>
</trkpt>
<trkpt lat="47.941624" lon="11.104858">
<ele>539.675</ele>
<time>2022-05-27T16:59:09Z</time>
</trkpt>
<trkpt lat="47.941666" lon="11.104842">
<ele>539.812</ele>
<time>2022-05-27T16:59:10Z</time>
</trkpt>
<trkpt lat="47.941704" lon="11.104825">
<ele>539.905</ele>
<time>2022-05-27T16:59:11Z</time>
</trkpt>
<trkpt lat="47.94175" lon="11.104812">
<ele>540.005</ele>
<time>2022-05-27T16:59:12Z</time>
</trkpt>
<trkpt lat="47.941792" lon="11.104801">
<ele>540.079</ele>
<time>2022-05-27T16:59:13Z</time>
</trkpt>
<trkpt lat="47.941837" lon="11.10479">
<ele>540.123</ele>
<time>2022-05-27T16:59:14Z</time>
</trkpt>
<trkpt lat="47.941891" lon="11.104782">
<ele>540.144</ele>
<time>2022-05-27T16:59:15Z</time>
</trkpt>
<trkpt lat="47.94194" lon="11.104775">
<ele>540.144</ele>
<time>2022-05-27T16:59:16Z</time>
</trkpt>
<trkpt lat="47.941986" lon="11.104767">
<ele>540.144</ele>
<time>2022-05-27T16:59:17Z</time>
</trkpt>
<trkpt lat="47.942032" lon="11.10476">
<ele>540.144</ele>
<time>2022-05-27T16:59:18Z</time>
</trkpt>
<trkpt lat="47.942081" lon="11.104753">
<ele>540.144</ele>
<time>2022-05-27T16:59:19Z</time>
</trkpt>
<trkpt lat="47.942131" lon="11.104749">
<ele>540.144</ele>
<time>2022-05-27T16:59:20Z</time>
</trkpt>
<trkpt lat="47.942181" lon="11.104742">
<ele>540.144</ele>
<time>2022-05-27T16:59:21Z</time>
</trkpt>
<trkpt lat="47.942226" lon="11.104736">
<ele>540.144</ele>
<time>2022-05-27T16:59:22Z</time>
</trkpt>
<trkpt lat="47.94228" lon="11.104733">
<ele>540.144</ele>
<time>2022-05-27T16:59:23Z</time>
</trkpt>
<trkpt lat="47.942326" lon="11.104733">
<ele>540.144</ele>
<time>2022-05-27T16:59:24Z</time>
</trkpt>
<trkpt lat="47.942371" lon="11.104733">
<ele>540.144</ele>
<time>2022-05-27T16:59:25Z</time>
</trkpt>
<trkpt lat="47.94241" lon="11.10473">
<ele>540.144</ele>
<time>2022-05-27T16:59:26Z</time>
</trkpt>
<trkpt lat="47.942451" lon="11.104728">
<ele>540.144</ele>
<time>2022-05-27T16:59:27Z</time>
</trkpt>
<trkpt lat="47.942497" lon="11.104725">
<ele>540.381</ele>
<time>2022-05-27T16:59:28Z</time>
</trkpt>
<trkpt lat="47.942547" lon="11.104725">
<ele>540.574</ele>
<time>2022-05-27T16:59:29Z</time>
</trkpt>
<trkpt lat="47.942596" lon="11.104727">
<ele>540.727</ele>
<time>2022-05-27T16:59:30Z</time>
</trkpt>
<trkpt lat="47.94265" lon="11.104723">
<ele>540.83</ele>
<time>2022-05-27T16:59:31Z</time>
</trkpt>
<trkpt lat="47.942707" lon="11.104727">
<ele>540.949</ele>
<time>2022-05-27T16:59:32Z</time>
</trkpt>
<trkpt lat="47.942757" lon="11.104735">
<ele>541.034</ele>
<time>2022-05-27T16:59:33Z</time>
</trkpt>
<trkpt lat="47.942814" lon="11.104747">
<ele>541.083</ele>
<time>2022-05-27T16:59:34Z</time>
</trkpt>
<trkpt lat="47.942863" lon="11.104758">
<ele>541.104</ele>
<time>2022-05-27T16:59:35Z</time>
</trkpt>
<trkpt lat="47.942913" lon="11.104782">
<ele>541.104</ele>
<time>2022-05-27T16:59:36Z</time>
</trkpt>
<trkpt lat="47.942966" lon="11.104807">
<ele>541.104</ele>
<time>2022-05-27T16:59:37Z</time>
</trkpt>
<trkpt lat="47.943012" lon="11.104828">
<ele>541.104</ele>
<time>2022-05-27T16:59:38Z</time>
</trkpt>
<trkpt lat="47.943066" lon="11.104849">
<ele>541.104</ele>
<time>2022-05-27T16:59:39Z</time>
</trkpt>
<trkpt lat="47.943108" lon="11.104872">
<ele>541.104</ele>
<time>2022-05-27T16:59:40Z</time>
</trkpt>
<trkpt lat="47.943153" lon="11.104898">
<ele>541.104</ele>
<time>2022-05-27T16:59:41Z</time>
</trkpt>
<trkpt lat="47.943203" lon="11.104922">
<ele>541.104</ele>
<time>2022-05-27T16:59:42Z</time>
</trkpt>
<trkpt lat="47.943253" lon="11.104943">
<ele>541.104</ele>
<time>2022-05-27T16:59:43Z</time>
</trkpt>
<trkpt lat="47.94331" lon="11.10496">
<ele>541.104</ele>
<time>2022-05-27T16:59:44Z</time>
</trkpt>
<trkpt lat="47.943363" lon="11.104979">
<ele>541.104</ele>
<time>2022-05-27T16:59:45Z</time>
</trkpt>
<trkpt lat="47.943409" lon="11.104992">
<ele>541.104</ele>
<time>2022-05-27T16:59:46Z</time>
</trkpt>
<trkpt lat="47.943459" lon="11.104997">
<ele>541.104</ele>
<time>2022-05-27T16:59:47Z</time>
</trkpt>
<trkpt lat="47.943512" lon="11.105005">
<ele>541.104</ele>
<time>2022-05-27T16:59:48Z</time>
</trkpt>
<trkpt lat="47.943565" lon="11.105013">
<ele>541.104</ele>
<time>2022-05-27T16:59:49Z</time>
</trkpt>
<trkpt lat="47.943619" lon="11.105017">
<ele>541.104</ele>
<time>2022-05-27T16:59:50Z</time>
</trkpt>
<trkpt lat="47.943665" lon="11.105021">
<ele>541.104</ele>
<time>2022-05-27T16:59:51Z</time>
</trkpt>
<trkpt lat="47.943714" lon="11.105027">
<ele>541.104</ele>
<time>2022-05-27T16:59:52Z</time>
</trkpt>
<trkpt lat="47.943764" lon="11.105035">
<ele>541.104</ele>
<time>2022-05-27T16:59:53Z</time>
</trkpt>
<trkpt lat="47.943813" lon="11.105042">
<ele>541.104</ele>
<time>2022-05-27T16:59:54Z</time>
</trkpt>
<trkpt lat="47.943859" lon="11.105045">
<ele>541.104</ele>
<time>2022-05-27T16:59:55Z</time>
</trkpt>
<trkpt lat="47.943909" lon="11.105043">
<ele>541.104</ele>
<time>2022-05-27T16:59:56Z</time>
</trkpt>
<trkpt lat="47.943958" lon="11.105046">
<ele>541.104</ele>
<time>2022-05-27T16:59:57Z</time>
</trkpt>
<trkpt lat="47.944012" lon="11.105052">
<ele>541.104</ele>
<time>2022-05-27T16:59:58Z</time>
</trkpt>
<trkpt lat="47.944054" lon="11.105063">
<ele>540.8</ele>
<time>2022-05-27T16:59:59Z</time>
</trkpt>
<trkpt lat="47.944111" lon="11.105073">
<ele>540.555</ele>
<time>2022-05-27T17:00:00Z</time>
</trkpt>
<trkpt lat="47.944164" lon="11.105085">
<ele>540.388</ele>
<time>2022-05-27T17:00:01Z</time>
</trkpt>
<trkpt lat="47.944221" lon="11.105097">
<ele>540.206</ele>
<time>2022-05-27T17:00:02Z</time>
</trkpt>
<trkpt lat="47.944283" lon="11.10511">
<ele>540.068</ele>
<time>2022-05-27T17:00:03Z</time>
</trkpt>
<trkpt lat="47.944336" lon="11.105119">
<ele>539.972</ele>
<time>2022-05-27T17:00:04Z</time>
</trkpt>
<trkpt lat="47.944397" lon="11.105125">
<ele>539.911</ele>
<time>2022-05-27T17:00:05Z</time>
</trkpt>
<trkpt lat="47.944458" lon="11.10513">
<ele>539.882</ele>
<time>2022-05-27T17:00:06Z</time>
</trkpt>
<trkpt lat="47.944515" lon="11.105132">
<ele>539.882</ele>
<time>2022-05-27T17:00:07Z</time>
</trkpt>
<trkpt lat="47.944572" lon="11.10513">
<ele>539.882</ele>
<time>2022-05-27T17:00:08Z</time>
</trkpt>
<trkpt lat="47.944641" lon="11.105127">
<ele>539.882</ele>
<time>2022-05-27T17:00:09Z</time>
</trkpt>
<trkpt lat="47.944706" lon="11.105113">
<ele>539.882</ele>
<time>2022-05-27T17:00:10Z</time>
</trkpt>
<trkpt lat="47.944771" lon="11.105088">
<ele>539.882</ele>
<time>2022-05-27T17:00:11Z</time>
</trkpt>
<trkpt lat="47.944839" lon="11.105061">
<ele>539.882</ele>
<time>2022-05-27T17:00:12Z</time>
</trkpt>
<trkpt lat="47.944901" lon="11.105027">
<ele>539.882</ele>
<time>2022-05-27T17:00:13Z</time>
</trkpt>
<trkpt lat="47.944962" lon="11.104992">
<ele>539.882</ele>
<time>2022-05-27T17:00:14Z</time>
</trkpt>
<trkpt lat="47.945023" lon="11.104957">
<ele>539.883</ele>
<time>2022-05-27T17:00:15Z</time>
</trkpt>
<trkpt lat="47.945084" lon="11.104918">
<ele>539.882</ele>
<time>2022-05-27T17:00:16Z</time>
</trkpt>
<trkpt lat="47.945133" lon="11.104874">
<ele>539.883</ele>
<time>2022-05-27T17:00:17Z</time>
</trkpt>
<trkpt lat="47.94519" lon="11.104823">
<ele>539.882</ele>
<time>2022-05-27T17:00:18Z</time>
</trkpt>
<trkpt lat="47.94524" lon="11.104775">
<ele>539.882</ele>
<time>2022-05-27T17:00:19Z</time>
</trkpt>
<trkpt lat="47.94529" lon="11.104727">
<ele>539.882</ele>
<time>2022-05-27T17:00:20Z</time>
</trkpt>
<trkpt lat="47.945324" lon="11.104673">
<ele>539.882</ele>
<time>2022-05-27T17:00:21Z</time>
</trkpt>
<trkpt lat="47.945366" lon="11.104631">
<ele>539.882</ele>
<time>2022-05-27T17:00:22Z</time>
</trkpt>
<trkpt lat="47.945408" lon="11.104598">
<ele>539.882</ele>
<time>2022-05-27T17:00:23Z</time>
</trkpt>
<trkpt lat="47.945442" lon="11.104558">
<ele>539.882</ele>
<time>2022-05-27T17:00:24Z</time>
</trkpt>
<trkpt lat="47.945477" lon="11.104511">
<ele>539.882</ele>
<time>2022-05-27T17:00:25Z</time>
</trkpt>
<trkpt lat="47.945507" lon="11.104457">
<ele>540.105</ele>
<time>2022-05-27T17:00:26Z</time>
</trkpt>
<trkpt lat="47.945538" lon="11.104404">
<ele>540.288</ele>
<time>2022-05-27T17:00:27Z</time>
</trkpt>
<trkpt lat="47.945564" lon="11.104355">
<ele>540.434</ele>
<time>2022-05-27T17:00:28Z</time>
</trkpt>
<trkpt lat="47.945587" lon="11.104313">
<ele>540.543</ele>
<time>2022-05-27T17:00:29Z</time>
</trkpt>
<trkpt lat="47.945618" lon="11.104268">
<ele>540.622</ele>
<time>2022-05-27T17:00:30Z</time>
</trkpt>
<trkpt lat="47.945648" lon="11.104225">
<ele>540.682</ele>
<time>2022-05-27T17:00:31Z</time>
</trkpt>
<trkpt lat="47.945675" lon="11.104183">
<ele>540.957</ele>
<time>2022-05-27T17:00:32Z</time>
</trkpt>
<trkpt lat="47.945717" lon="11.104136">
<ele>541.175</ele>
<time>2022-05-27T17:00:33Z</time>
</trkpt>
<trkpt lat="47.945751" lon="11.104093">
<ele>541.338</ele>
<time>2022-05-27T17:00:34Z</time>
</trkpt>
<trkpt lat="47.945793" lon="11.104051">
<ele>541.474</ele>
<time>2022-05-27T17:00:35Z</time>
</trkpt>
<trkpt lat="47.945831" lon="11.104009">
<ele>541.581</ele>
<time>2022-05-27T17:00:36Z</time>
</trkpt>
<trkpt lat="47.945873" lon="11.103977">
<ele>541.652</ele>
<time>2022-05-27T17:00:37Z</time>
</trkpt>
<trkpt lat="47.945911" lon="11.103951">
<ele>541.694</ele>
<time>2022-05-27T17:00:38Z</time>
</trkpt>
<trkpt lat="47.945957" lon="11.103925">
<ele>541.714</ele>
<time>2022-05-27T17:00:39Z</time>
</trkpt>
<trkpt lat="47.946003" lon="11.103902">
<ele>541.714</ele>
<time>2022-05-27T17:00:40Z</time>
</trkpt>
<trkpt lat="47.946041" lon="11.103873">
<ele>541.714</ele>
<time>2022-05-27T17:00:41Z</time>
</trkpt>
<trkpt lat="47.946083" lon="11.103846">
<ele>541.714</ele>
<time>2022-05-27T17:00:42Z</time>
</trkpt>
<trkpt lat="47.946129" lon="11.103822">
<ele>541.714</ele>
<time>2022-05-27T17:00:43Z</time>
</trkpt>
<trkpt lat="47.946171" lon="11.1038">
<ele>542.041</ele>
<time>2022-05-27T17:00:44Z</time>
</trkpt>
<trkpt lat="47.946205" lon="11.103774">
<ele>542.294</ele>
<time>2022-05-27T17:00:45Z</time>
</trkpt>
<trkpt lat="47.946247" lon="11.103757">
<ele>542.484</ele>
<time>2022-05-27T17:00:46Z</time>
</trkpt>
<trkpt lat="47.946285" lon="11.103742">
<ele>542.621</ele>
<time>2022-05-27T17:00:47Z</time>
</trkpt>
<trkpt lat="47.94632" lon="11.103726">
<ele>542.721</ele>
<time>2022-05-27T17:00:48Z</time>
</trkpt>
<trkpt lat="47.946354" lon="11.103715">
<ele>542.785</ele>
<time>2022-05-27T17:00:49Z</time>
</trkpt>
<trkpt lat="47.946388" lon="11.103703">
<ele>542.814</ele>
<time>2022-05-27T17:00:50Z</time>
</trkpt>
<trkpt lat="47.946426" lon="11.103699">
<ele>543.052</ele>
<time>2022-05-27T17:00:51Z</time>
</trkpt>
<trkpt lat="47.946465" lon="11.10369">
<ele>543.251</ele>
<time>2022-05-27T17:00:52Z</time>
</trkpt>
<trkpt lat="47.946499" lon="11.103675">
<ele>543.419</ele>
<time>2022-05-27T17:00:53Z</time>
</trkpt>
<trkpt lat="47.946537" lon="11.103674">
<ele>543.556</ele>
<time>2022-05-27T17:00:54Z</time>
</trkpt>
<trkpt lat="47.946571" lon="11.103672">
<ele>543.662</ele>
<time>2022-05-27T17:00:55Z</time>
</trkpt>
<trkpt lat="47.946606" lon="11.10366">
<ele>543.739</ele>
<time>2022-05-27T17:00:56Z</time>
</trkpt>
<trkpt lat="47.94664" lon="11.103653">
<ele>543.786</ele>
<time>2022-05-27T17:00:57Z</time>
</trkpt>
<trkpt lat="47.946674" lon="11.103643">
<ele>543.808</ele>
<time>2022-05-27T17:00:58Z</time>
</trkpt>
<trkpt lat="47.946709" lon="11.103642">
<ele>543.808</ele>
<time>2022-05-27T17:00:59Z</time>
</trkpt>
<trkpt lat="47.946728" lon="11.103634">
<ele>543.808</ele>
<time>2022-05-27T17:01:00Z</time>
</trkpt>
<trkpt lat="47.946758" lon="11.103627">
<ele>543.808</ele>
<time>2022-05-27T17:01:01Z</time>
</trkpt>
<trkpt lat="47.946774" lon="11.103613">
<ele>543.808</ele>
<time>2022-05-27T17:01:02Z</time>
</trkpt>
<trkpt lat="47.9468" lon="11.103617">
<ele>543.808</ele>
<time>2022-05-27T17:01:03Z</time>
</trkpt>
<trkpt lat="47.946823" lon="11.103604">
<ele>543.808</ele>
<time>2022-05-27T17:01:04Z</time>
</trkpt>
<trkpt lat="47.946838" lon="11.103594">
<ele>543.808</ele>
<time>2022-05-27T17:01:05Z</time>
</trkpt>
<trkpt lat="47.94685" lon="11.10359">
<ele>543.808</ele>
<time>2022-05-27T17:01:06Z</time>
</trkpt>
<trkpt lat="47.946861" lon="11.103583">
<ele>543.808</ele>
<time>2022-05-27T17:01:07Z</time>
</trkpt>
<trkpt lat="47.94688" lon="11.103585">
<ele>543.808</ele>
<time>2022-05-27T17:01:08Z</time>
</trkpt>
<trkpt lat="47.946896" lon="11.103581">
<ele>543.808</ele>
<time>2022-05-27T17:01:09Z</time>
</trkpt>
<trkpt lat="47.946922" lon="11.103577">
<ele>543.808</ele>
<time>2022-05-27T17:01:10Z</time>
</trkpt>
<trkpt lat="47.946949" lon="11.103567">
<ele>543.808</ele>
<time>2022-05-27T17:01:11Z</time>
</trkpt>
<trkpt lat="47.946972" lon="11.103554">
<ele>544.043</ele>
<time>2022-05-27T17:01:12Z</time>
</trkpt>
<trkpt lat="47.947002" lon="11.10355">
<ele>544.254</ele>
<time>2022-05-27T17:01:13Z</time>
</trkpt>
<trkpt lat="47.947041" lon="11.103552">
<ele>544.416</ele>
<time>2022-05-27T17:01:14Z</time>
</trkpt>
<trkpt lat="47.947075" lon="11.103552">
<ele>544.516</ele>
<time>2022-05-27T17:01:15Z</time>
</trkpt>
<trkpt lat="47.947113" lon="11.103552">
<ele>544.583</ele>
<time>2022-05-27T17:01:16Z</time>
</trkpt>
<trkpt lat="47.947147" lon="11.103554">
<ele>544.636</ele>
<time>2022-05-27T17:01:17Z</time>
</trkpt>
<trkpt lat="47.947178" lon="11.10355">
<ele>544.664</ele>
<time>2022-05-27T17:01:18Z</time>
</trkpt>
<trkpt lat="47.947205" lon="11.103548">
<ele>544.681</ele>
<time>2022-05-27T17:01:19Z</time>
</trkpt>
<trkpt lat="47.947227" lon="11.103546">
<ele>544.681</ele>
<time>2022-05-27T17:01:20Z</time>
</trkpt>
<trkpt lat="47.94725" lon="11.103545">
<ele>544.681</ele>
<time>2022-05-27T17:01:21Z</time>
</trkpt>
<trkpt lat="47.947277" lon="11.103541">
<ele>544.488</ele>
<time>2022-05-27T17:01:22Z</time>
</trkpt>
<trkpt lat="47.947304" lon="11.103541">
<ele>544.319</ele>
<time>2022-05-27T17:01:23Z</time>
</trkpt>
<trkpt lat="47.947327" lon="11.103554">
<ele>544.174</ele>
<time>2022-05-27T17:01:24Z</time>
</trkpt>
<trkpt lat="47.94735" lon="11.103555">
<ele>544.049</ele>
<time>2022-05-27T17:01:25Z</time>
</trkpt>
<trkpt lat="47.947372" lon="11.10355">
<ele>543.95</ele>
<time>2022-05-27T17:01:26Z</time>
</trkpt>
<trkpt lat="47.947384" lon="11.103546">
<ele>543.873</ele>
<time>2022-05-27T17:01:27Z</time>
</trkpt>
<trkpt lat="47.947403" lon="11.103538">
<ele>543.828</ele>
<time>2022-05-27T17:01:28Z</time>
</trkpt>
<trkpt lat="47.947418" lon="11.103535">
<ele>543.808</ele>
<time>2022-05-27T17:01:29Z</time>
</trkpt>
<trkpt lat="47.947445" lon="11.10353">
<ele>543.808</ele>
<time>2022-05-27T17:01:30Z</time>
</trkpt>
<trkpt lat="47.947468" lon="11.103525">
<ele>543.808</ele>
<time>2022-05-27T17:01:31Z</time>
</trkpt>
<trkpt lat="47.947491" lon="11.103514">
<ele>543.808</ele>
<time>2022-05-27T17:01:32Z</time>
</trkpt>
<trkpt lat="47.947517" lon="11.103505">
<ele>543.808</ele>
<time>2022-05-27T17:01:33Z</time>
</trkpt>
<trkpt lat="47.947544" lon="11.10348">
<ele>543.808</ele>
<time>2022-05-27T17:01:34Z</time>
</trkpt>
<trkpt lat="47.947578" lon="11.10346">
<ele>543.808</ele>
<time>2022-05-27T17:01:35Z</time>
</trkpt>
<trkpt lat="47.94762" lon="11.103445">
<ele>543.808</ele>
<time>2022-05-27T17:01:36Z</time>
</trkpt>
<trkpt lat="47.947666" lon="11.103427">
<ele>543.808</ele>
<time>2022-05-27T17:01:37Z</time>
</trkpt>
<trkpt lat="47.947708" lon="11.103415">
<ele>543.552</ele>
<time>2022-05-27T17:01:38Z</time>
</trkpt>
<trkpt lat="47.947754" lon="11.103407">
<ele>543.362</ele>
<time>2022-05-27T17:01:39Z</time>
</trkpt>
<trkpt lat="47.9478" lon="11.103396">
<ele>543.22</ele>
<time>2022-05-27T17:01:40Z</time>
</trkpt>
<trkpt lat="47.947842" lon="11.103392">
<ele>543.171</ele>
<time>2022-05-27T17:01:41Z</time>
</trkpt>
<trkpt lat="47.947887" lon="11.103389">
<ele>543.066</ele>
<time>2022-05-27T17:01:42Z</time>
</trkpt>
<trkpt lat="47.947929" lon="11.103385">
<ele>542.971</ele>
<time>2022-05-27T17:01:43Z</time>
</trkpt>
<trkpt lat="47.947968" lon="11.103389">
<ele>542.921</ele>
<time>2022-05-27T17:01:44Z</time>
</trkpt>
<trkpt lat="47.948013" lon="11.103387">
<ele>542.873</ele>
<time>2022-05-27T17:01:45Z</time>
</trkpt>
<trkpt lat="47.948059" lon="11.103387">
<ele>542.848</ele>
<time>2022-05-27T17:01:46Z</time>
</trkpt>
<trkpt lat="47.948105" lon="11.103389">
<ele>542.848</ele>
<time>2022-05-27T17:01:47Z</time>
</trkpt>
<trkpt lat="47.948147" lon="11.103385">
<ele>542.848</ele>
<time>2022-05-27T17:01:48Z</time>
</trkpt>
<trkpt lat="47.948193" lon="11.103383">
<ele>542.848</ele>
<time>2022-05-27T17:01:49Z</time>
</trkpt>
<trkpt lat="47.948235" lon="11.10337">
<ele>542.848</ele>
<time>2022-05-27T17:01:50Z</time>
</trkpt>
<trkpt lat="47.948277" lon="11.103358">
<ele>543.064</ele>
<time>2022-05-27T17:01:51Z</time>
</trkpt>
<trkpt lat="47.948315" lon="11.103333">
<ele>543.264</ele>
<time>2022-05-27T17:01:52Z</time>
</trkpt>
<trkpt lat="47.948357" lon="11.103318">
<ele>543.427</ele>
<time>2022-05-27T17:01:53Z</time>
</trkpt>
<trkpt lat="47.948399" lon="11.103305">
<ele>543.556</ele>
<time>2022-05-27T17:01:54Z</time>
</trkpt>
<trkpt lat="47.948437" lon="11.103298">
<ele>543.66</ele>
<time>2022-05-27T17:01:55Z</time>
</trkpt>
<trkpt lat="47.948479" lon="11.103294">
<ele>543.737</ele>
<time>2022-05-27T17:01:56Z</time>
</trkpt>
<trkpt lat="47.948521" lon="11.103294">
<ele>543.783</ele>
<time>2022-05-27T17:01:57Z</time>
</trkpt>
<trkpt lat="47.94857" lon="11.103296">
<ele>543.808</ele>
<time>2022-05-27T17:01:58Z</time>
</trkpt>
<trkpt lat="47.948624" lon="11.103296">
<ele>543.808</ele>
<time>2022-05-27T17:01:59Z</time>
</trkpt>
<trkpt lat="47.948677" lon="11.103294">
<ele>543.808</ele>
<time>2022-05-27T17:02:00Z</time>
</trkpt>
<trkpt lat="47.948715" lon="11.103293">
<ele>544.011</ele>
<time>2022-05-27T17:02:01Z</time>
</trkpt>
<trkpt lat="47.948769" lon="11.103285">
<ele>544.202</ele>
<time>2022-05-27T17:02:02Z</time>
</trkpt>
<trkpt lat="47.948811" lon="11.103282">
<ele>544.354</ele>
<time>2022-05-27T17:02:03Z</time>
</trkpt>
<trkpt lat="47.948853" lon="11.10328">
<ele>544.465</ele>
<time>2022-05-27T17:02:04Z</time>
</trkpt>
<trkpt lat="47.948898" lon="11.103271">
<ele>544.55</ele>
<time>2022-05-27T17:02:05Z</time>
</trkpt>
<trkpt lat="47.94894" lon="11.103269">
<ele>544.614</ele>
<time>2022-05-27T17:02:06Z</time>
</trkpt>
<trkpt lat="47.948986" lon="11.103265">
<ele>544.658</ele>
<time>2022-05-27T17:02:07Z</time>
</trkpt>
<trkpt lat="47.949039" lon="11.103258">
<ele>544.681</ele>
<time>2022-05-27T17:02:08Z</time>
</trkpt>
<trkpt lat="47.949085" lon="11.103251">
<ele>544.681</ele>
<time>2022-05-27T17:02:09Z</time>
</trkpt>
<trkpt lat="47.949135" lon="11.103244">
<ele>544.681</ele>
<time>2022-05-27T17:02:10Z</time>
</trkpt>
<trkpt lat="47.949188" lon="11.10324">
<ele>544.681</ele>
<time>2022-05-27T17:02:11Z</time>
</trkpt>
<trkpt lat="47.949238" lon="11.103242">
<ele>544.462</ele>
<time>2022-05-27T17:02:12Z</time>
</trkpt>
<trkpt lat="47.949287" lon="11.103249">
<ele>544.28</ele>
<time>2022-05-27T17:02:13Z</time>
</trkpt>
<trkpt lat="47.949333" lon="11.103255">
<ele>544.134</ele>
<time>2022-05-27T17:02:14Z</time>
</trkpt>
<trkpt lat="47.94939" lon="11.103255">
<ele>544.087</ele>
<time>2022-05-27T17:02:15Z</time>
</trkpt>
<trkpt lat="47.949436" lon="11.103261">
<ele>544.204</ele>
<time>2022-05-27T17:02:16Z</time>
</trkpt>
<trkpt lat="47.949486" lon="11.103267">
<ele>544.307</ele>
<time>2022-05-27T17:02:17Z</time>
</trkpt>
<trkpt lat="47.949535" lon="11.103285">
<ele>544.276</ele>
<time>2022-05-27T17:02:18Z</time>
</trkpt>
<trkpt lat="47.949589" lon="11.103296">
<ele>544.064</ele>
<time>2022-05-27T17:02:19Z</time>
</trkpt>
<trkpt lat="47.949635" lon="11.103312">
<ele>543.915</ele>
<time>2022-05-27T17:02:20Z</time>
</trkpt>
<trkpt lat="47.949684" lon="11.103322">
<ele>543.823</ele>
<time>2022-05-27T17:02:21Z</time>
</trkpt>
<trkpt lat="47.949726" lon="11.10333">
<ele>543.713</ele>
<time>2022-05-27T17:02:22Z</time>
</trkpt>
<trkpt lat="47.949783" lon="11.103336">
<ele>543.627</ele>
<time>2022-05-27T17:02:23Z</time>
</trkpt>
<trkpt lat="47.949833" lon="11.103343">
<ele>543.552</ele>
<time>2022-05-27T17:02:24Z</time>
</trkpt>
<trkpt lat="47.949886" lon="11.103358">
<ele>543.49</ele>
<time>2022-05-27T17:02:25Z</time>
</trkpt>
<trkpt lat="47.949928" lon="11.103374">
<ele>543.459</ele>
<time>2022-05-27T17:02:26Z</time>
</trkpt>
<trkpt lat="47.949966" lon="11.103392">
<ele>543.459</ele>
<time>2022-05-27T17:02:27Z</time>
</trkpt>
<trkpt lat="47.950012" lon="11.103414">
<ele>543.459</ele>
<time>2022-05-27T17:02:28Z</time>
</trkpt>
<trkpt lat="47.950054" lon="11.10343">
<ele>543.459</ele>
<time>2022-05-27T17:02:29Z</time>
</trkpt>
<trkpt lat="47.950104" lon="11.10344">
<ele>543.459</ele>
<time>2022-05-27T17:02:30Z</time>
</trkpt>
<trkpt lat="47.95015" lon="11.103447">
<ele>543.459</ele>
<time>2022-05-27T17:02:31Z</time>
</trkpt>
<trkpt lat="47.95018" lon="11.103448">
<ele>543.459</ele>
<time>2022-05-27T17:02:32Z</time>
</trkpt>
<trkpt lat="47.950226" lon="11.103452">
<ele>543.459</ele>
<time>2022-05-27T17:02:33Z</time>
</trkpt>
<trkpt lat="47.950268" lon="11.103456">
<ele>543.459</ele>
<time>2022-05-27T17:02:34Z</time>
</trkpt>
<trkpt lat="47.95031" lon="11.103458">
<ele>543.459</ele>
<time>2022-05-27T17:02:35Z</time>
</trkpt>
<trkpt lat="47.950352" lon="11.103456">
<ele>543.459</ele>
<time>2022-05-27T17:02:36Z</time>
</trkpt>
<trkpt lat="47.950397" lon="11.103458">
<ele>543.459</ele>
<time>2022-05-27T17:02:37Z</time>
</trkpt>
<trkpt lat="47.950439" lon="11.103452">
<ele>543.459</ele>
<time>2022-05-27T17:02:38Z</time>
</trkpt>
<trkpt lat="47.950478" lon="11.103445">
<ele>543.459</ele>
<time>2022-05-27T17:02:39Z</time>
</trkpt>
<trkpt lat="47.950523" lon="11.103438">
<ele>543.459</ele>
<time>2022-05-27T17:02:40Z</time>
</trkpt>
<trkpt lat="47.950573" lon="11.10344">
<ele>543.459</ele>
<time>2022-05-27T17:02:41Z</time>
</trkpt>
<trkpt lat="47.950623" lon="11.103443">
<ele>543.459</ele>
<time>2022-05-27T17:02:42Z</time>
</trkpt>
<trkpt lat="47.950672" lon="11.103448">
<ele>543.459</ele>
<time>2022-05-27T17:02:43Z</time>
</trkpt>
<trkpt lat="47.950722" lon="11.10345">
<ele>543.459</ele>
<time>2022-05-27T17:02:44Z</time>
</trkpt>
<trkpt lat="47.950768" lon="11.103452">
<ele>543.459</ele>
<time>2022-05-27T17:02:45Z</time>
</trkpt>
<trkpt lat="47.950817" lon="11.103456">
<ele>543.459</ele>
<time>2022-05-27T17:02:46Z</time>
</trkpt>
<trkpt lat="47.950867" lon="11.10346">
<ele>543.459</ele>
<time>2022-05-27T17:02:47Z</time>
</trkpt>
<trkpt lat="47.950912" lon="11.103464">
<ele>543.459</ele>
<time>2022-05-27T17:02:48Z</time>
</trkpt>
<trkpt lat="47.950962" lon="11.103466">
<ele>543.459</ele>
<time>2022-05-27T17:02:49Z</time>
</trkpt>
<trkpt lat="47.951008" lon="11.10347">
<ele>543.459</ele>
<time>2022-05-27T17:02:50Z</time>
</trkpt>
<trkpt lat="47.951057" lon="11.103472">
<ele>543.459</ele>
<time>2022-05-27T17:02:51Z</time>
</trkpt>
<trkpt lat="47.951096" lon="11.103472">
<ele>543.459</ele>
<time>2022-05-27T17:02:52Z</time>
</trkpt>
<trkpt lat="47.951138" lon="11.103473">
<ele>543.459</ele>
<time>2022-05-27T17:02:53Z</time>
</trkpt>
<trkpt lat="47.951183" lon="11.10347">
<ele>543.459</ele>
<time>2022-05-27T17:02:54Z</time>
</trkpt>
<trkpt lat="47.951225" lon="11.103464">
<ele>543.459</ele>
<time>2022-05-27T17:02:55Z</time>
</trkpt>
<trkpt lat="47.951279" lon="11.103464">
<ele>543.459</ele>
<time>2022-05-27T17:02:56Z</time>
</trkpt>
<trkpt lat="47.951328" lon="11.103464">
<ele>543.459</ele>
<time>2022-05-27T17:02:57Z</time>
</trkpt>
<trkpt lat="47.951382" lon="11.103464">
<ele>543.459</ele>
<time>2022-05-27T17:02:58Z</time>
</trkpt>
<trkpt lat="47.951431" lon="11.103464">
<ele>543.459</ele>
<time>2022-05-27T17:02:59Z</time>
</trkpt>
<trkpt lat="47.951485" lon="11.103464">
<ele>543.459</ele>
<time>2022-05-27T17:03:00Z</time>
</trkpt>
<trkpt lat="47.951542" lon="11.103464">
<ele>543.459</ele>
<time>2022-05-27T17:03:01Z</time>
</trkpt>
<trkpt lat="47.951595" lon="11.103464">
<ele>543.459</ele>
<time>2022-05-27T17:03:02Z</time>
</trkpt>
<trkpt lat="47.951649" lon="11.103466">
<ele>543.459</ele>
<time>2022-05-27T17:03:03Z</time>
</trkpt>
<trkpt lat="47.95171" lon="11.10347">
<ele>543.459</ele>
<time>2022-05-27T17:03:04Z</time>
</trkpt>
<trkpt lat="47.951763" lon="11.10347">
<ele>543.459</ele>
<time>2022-05-27T17:03:05Z</time>
</trkpt>
<trkpt lat="47.951817" lon="11.103472">
<ele>543.459</ele>
<time>2022-05-27T17:03:06Z</time>
</trkpt>
<trkpt lat="47.951874" lon="11.103473">
<ele>543.459</ele>
<time>2022-05-27T17:03:07Z</time>
</trkpt>
<trkpt lat="47.951927" lon="11.103475">
<ele>543.459</ele>
<time>2022-05-27T17:03:08Z</time>
</trkpt>
<trkpt lat="47.951981" lon="11.103478">
<ele>543.459</ele>
<time>2022-05-27T17:03:09Z</time>
</trkpt>
<trkpt lat="47.952038" lon="11.10348">
<ele>543.459</ele>
<time>2022-05-27T17:03:10Z</time>
</trkpt>
<trkpt lat="47.952091" lon="11.10348">
<ele>543.459</ele>
<time>2022-05-27T17:03:11Z</time>
</trkpt>
<trkpt lat="47.952148" lon="11.103481">
<ele>543.459</ele>
<time>2022-05-27T17:03:12Z</time>
</trkpt>
<trkpt lat="47.952202" lon="11.103487">
<ele>543.459</ele>
<time>2022-05-27T17:03:13Z</time>
</trkpt>
<trkpt lat="47.952259" lon="11.103487">
<ele>543.205</ele>
<time>2022-05-27T17:03:14Z</time>
</trkpt>
<trkpt lat="47.95232" lon="11.103489">
<ele>543.01</ele>
<time>2022-05-27T17:03:15Z</time>
</trkpt>
<trkpt lat="47.952374" lon="11.103483">
<ele>542.857</ele>
<time>2022-05-27T17:03:16Z</time>
</trkpt>
<trkpt lat="47.952431" lon="11.103481">
<ele>542.752</ele>
<time>2022-05-27T17:03:17Z</time>
</trkpt>
<trkpt lat="47.952496" lon="11.103483">
<ele>542.677</ele>
<time>2022-05-27T17:03:18Z</time>
</trkpt>
<trkpt lat="47.952557" lon="11.103481">
<ele>542.632</ele>
<time>2022-05-27T17:03:19Z</time>
</trkpt>
<trkpt lat="47.952614" lon="11.103483">
<ele>542.606</ele>
<time>2022-05-27T17:03:20Z</time>
</trkpt>
<trkpt lat="47.952675" lon="11.103483">
<ele>542.586</ele>
<time>2022-05-27T17:03:21Z</time>
</trkpt>
<trkpt lat="47.952736" lon="11.103485">
<ele>542.586</ele>
<time>2022-05-27T17:03:22Z</time>
</trkpt>
<trkpt lat="47.952793" lon="11.10349">
<ele>542.586</ele>
<time>2022-05-27T17:03:23Z</time>
</trkpt>
<trkpt lat="47.952854" lon="11.103494">
<ele>542.586</ele>
<time>2022-05-27T17:03:24Z</time>
</trkpt>
<trkpt lat="47.952915" lon="11.103497">
<ele>542.586</ele>
<time>2022-05-27T17:03:25Z</time>
</trkpt>
<trkpt lat="47.952976" lon="11.103498">
<ele>542.325</ele>
<time>2022-05-27T17:03:26Z</time>
</trkpt>
<trkpt lat="47.953033" lon="11.103499">
<ele>542.12</ele>
<time>2022-05-27T17:03:27Z</time>
</trkpt>
<trkpt lat="47.953091" lon="11.103501">
<ele>541.964</ele>
<time>2022-05-27T17:03:28Z</time>
</trkpt>
<trkpt lat="47.953148" lon="11.103503">
<ele>541.849</ele>
<time>2022-05-27T17:03:29Z</time>
</trkpt>
<trkpt lat="47.953197" lon="11.103506">
<ele>541.769</ele>
<time>2022-05-27T17:03:30Z</time>
</trkpt>
<trkpt lat="47.953247" lon="11.103506">
<ele>541.708</ele>
<time>2022-05-27T17:03:31Z</time>
</trkpt>
<trkpt lat="47.953297" lon="11.103506">
<ele>541.654</ele>
<time>2022-05-27T17:03:32Z</time>
</trkpt>
<trkpt lat="47.953335" lon="11.103508">
<ele>541.627</ele>
<time>2022-05-27T17:03:33Z</time>
</trkpt>
<trkpt lat="47.953373" lon="11.103508">
<ele>541.627</ele>
<time>2022-05-27T17:03:34Z</time>
</trkpt>
<trkpt lat="47.953407" lon="11.103506">
<ele>541.627</ele>
<time>2022-05-27T17:03:35Z</time>
</trkpt>
<trkpt lat="47.953442" lon="11.103508">
<ele>541.627</ele>
<time>2022-05-27T17:03:36Z</time>
</trkpt>
<trkpt lat="47.953476" lon="11.10351">
<ele>541.627</ele>
<time>2022-05-27T17:03:37Z</time>
</trkpt>
<trkpt lat="47.953506" lon="11.103508">
<ele>541.627</ele>
<time>2022-05-27T17:03:38Z</time>
</trkpt>
<trkpt lat="47.953537" lon="11.103503">
<ele>541.408</ele>
<time>2022-05-27T17:03:39Z</time>
</trkpt>
<trkpt lat="47.953564" lon="11.103501">
<ele>541.223</ele>
<time>2022-05-27T17:03:40Z</time>
</trkpt>
<trkpt lat="47.95359" lon="11.103503">
<ele>541.083</ele>
<time>2022-05-27T17:03:41Z</time>
</trkpt>
<trkpt lat="47.953617" lon="11.103505">
<ele>540.942</ele>
<time>2022-05-27T17:03:42Z</time>
</trkpt>
<trkpt lat="47.953648" lon="11.103503">
<ele>540.83</ele>
<time>2022-05-27T17:03:43Z</time>
</trkpt>
<trkpt lat="47.953674" lon="11.103498">
<ele>540.749</ele>
<time>2022-05-27T17:03:44Z</time>
</trkpt>
<trkpt lat="47.953701" lon="11.103501">
<ele>540.693</ele>
<time>2022-05-27T17:03:45Z</time>
</trkpt>
<trkpt lat="47.953728" lon="11.103518">
<ele>540.668</ele>
<time>2022-05-27T17:03:46Z</time>
</trkpt>
<trkpt lat="47.953751" lon="11.103548">
<ele>540.668</ele>
<time>2022-05-27T17:03:47Z</time>
</trkpt>
<trkpt lat="47.953766" lon="11.103597">
<ele>540.668</ele>
<time>2022-05-27T17:03:48Z</time>
</trkpt>
<trkpt lat="47.953773" lon="11.10365">
<ele>540.668</ele>
<time>2022-05-27T17:03:49Z</time>
</trkpt>
<trkpt lat="47.953773" lon="11.103707">
<ele>540.668</ele>
<time>2022-05-27T17:03:50Z</time>
</trkpt>
<trkpt lat="47.95377" lon="11.103762">
<ele>540.668</ele>
<time>2022-05-27T17:03:51Z</time>
</trkpt>
<trkpt lat="47.953758" lon="11.10382">
<ele>540.392</ele>
<time>2022-05-27T17:03:52Z</time>
</trkpt>
<trkpt lat="47.953751" lon="11.103893">
<ele>540.164</ele>
<time>2022-05-27T17:03:53Z</time>
</trkpt>
<trkpt lat="47.953739" lon="11.103971">
<ele>539.988</ele>
<time>2022-05-27T17:03:54Z</time>
</trkpt>
<trkpt lat="47.953735" lon="11.104052">
<ele>539.889</ele>
<time>2022-05-27T17:03:55Z</time>
</trkpt>
<trkpt lat="47.953724" lon="11.104133">
<ele>539.491</ele>
<time>2022-05-27T17:03:56Z</time>
</trkpt>
<trkpt lat="47.953712" lon="11.104214">
<ele>539.185</ele>
<time>2022-05-27T17:03:57Z</time>
</trkpt>
<trkpt lat="47.953705" lon="11.10429">
<ele>539.001</ele>
<time>2022-05-27T17:03:58Z</time>
</trkpt>
<trkpt lat="47.953693" lon="11.104365">
<ele>538.56</ele>
<time>2022-05-27T17:03:59Z</time>
</trkpt>
<trkpt lat="47.953674" lon="11.10444">
<ele>538.246</ele>
<time>2022-05-27T17:04:00Z</time>
</trkpt>
<trkpt lat="47.953651" lon="11.104504">
<ele>538.046</ele>
<time>2022-05-27T17:04:01Z</time>
</trkpt>
<trkpt lat="47.953632" lon="11.104555">
<ele>537.845</ele>
<time>2022-05-27T17:04:02Z</time>
</trkpt>
<trkpt lat="47.953609" lon="11.104597">
<ele>537.708</ele>
<time>2022-05-27T17:04:03Z</time>
</trkpt>
<trkpt lat="47.95359" lon="11.104629">
<ele>537.408</ele>
<time>2022-05-27T17:04:04Z</time>
</trkpt>
<trkpt lat="47.953571" lon="11.104653">
<ele>537.168</ele>
<time>2022-05-27T17:04:05Z</time>
</trkpt>
<trkpt lat="47.953548" lon="11.10468">
<ele>536.983</ele>
<time>2022-05-27T17:04:06Z</time>
</trkpt>
<trkpt lat="47.953526" lon="11.104705">
<ele>536.787</ele>
<time>2022-05-27T17:04:07Z</time>
</trkpt>
<trkpt lat="47.953503" lon="11.104728">
<ele>536.694</ele>
<time>2022-05-27T17:04:08Z</time>
</trkpt>
<trkpt lat="47.95348" lon="11.104754">
<ele>536.637</ele>
<time>2022-05-27T17:04:09Z</time>
</trkpt>
<trkpt lat="47.953461" lon="11.104787">
<ele>536.38</ele>
<time>2022-05-27T17:04:10Z</time>
</trkpt>
<trkpt lat="47.953445" lon="11.104825">
<ele>536.175</ele>
<time>2022-05-27T17:04:11Z</time>
</trkpt>
<trkpt lat="47.953442" lon="11.104872">
<ele>535.993</ele>
<time>2022-05-27T17:04:12Z</time>
</trkpt>
<trkpt lat="47.953442" lon="11.104914">
<ele>535.855</ele>
<time>2022-05-27T17:04:13Z</time>
</trkpt>
<trkpt lat="47.953449" lon="11.104952">
<ele>535.758</ele>
<time>2022-05-27T17:04:14Z</time>
</trkpt>
<trkpt lat="47.953453" lon="11.105013">
<ele>535.681</ele>
<time>2022-05-27T17:04:15Z</time>
</trkpt>
<trkpt lat="47.953468" lon="11.105057">
<ele>535.633</ele>
<time>2022-05-27T17:04:16Z</time>
</trkpt>
<trkpt lat="47.95348" lon="11.105106">
<ele>535.61</ele>
<time>2022-05-27T17:04:17Z</time>
</trkpt>
<trkpt lat="47.953499" lon="11.10516">
<ele>535.351</ele>
<time>2022-05-27T17:04:18Z</time>
</trkpt>
<trkpt lat="47.953514" lon="11.105208">
<ele>535.152</ele>
<time>2022-05-27T17:04:19Z</time>
</trkpt>
<trkpt lat="47.953537" lon="11.105243">
<ele>535</ele>
<time>2022-05-27T17:04:20Z</time>
</trkpt>
<trkpt lat="47.953564" lon="11.105268">
<ele>534.899</ele>
<time>2022-05-27T17:04:21Z</time>
</trkpt>
<trkpt lat="47.953587" lon="11.105276">
<ele>534.799</ele>
<time>2022-05-27T17:04:22Z</time>
</trkpt>
<trkpt lat="47.953617" lon="11.105274">
<ele>534.732</ele>
<time>2022-05-27T17:04:23Z</time>
</trkpt>
<trkpt lat="47.953648" lon="11.105264">
<ele>534.674</ele>
<time>2022-05-27T17:04:24Z</time>
</trkpt>
<trkpt lat="47.953678" lon="11.105247">
<ele>534.651</ele>
<time>2022-05-27T17:04:25Z</time>
</trkpt>
<trkpt lat="47.953709" lon="11.105224">
<ele>534.651</ele>
<time>2022-05-27T17:04:26Z</time>
</trkpt>
<trkpt lat="47.953739" lon="11.105202">
<ele>534.651</ele>
<time>2022-05-27T17:04:27Z</time>
</trkpt>
<trkpt lat="47.95377" lon="11.105182">
<ele>534.651</ele>
<time>2022-05-27T17:04:28Z</time>
</trkpt>
<trkpt lat="47.953789" lon="11.105157">
<ele>534.651</ele>
<time>2022-05-27T17:04:29Z</time>
</trkpt>
<trkpt lat="47.953827" lon="11.105134">
<ele>534.651</ele>
<time>2022-05-27T17:04:30Z</time>
</trkpt>
<trkpt lat="47.953857" lon="11.105102">
<ele>534.651</ele>
<time>2022-05-27T17:04:31Z</time>
</trkpt>
<trkpt lat="47.953896" lon="11.105068">
<ele>534.651</ele>
<time>2022-05-27T17:04:32Z</time>
</trkpt>
<trkpt lat="47.953941" lon="11.105037">
<ele>534.965</ele>
<time>2022-05-27T17:04:33Z</time>
</trkpt>
<trkpt lat="47.953983" lon="11.105012">
<ele>535.189</ele>
<time>2022-05-27T17:04:34Z</time>
</trkpt>
<trkpt lat="47.954018" lon="11.104996">
<ele>535.36</ele>
<time>2022-05-27T17:04:35Z</time>
</trkpt>
<trkpt lat="47.95406" lon="11.104979">
<ele>535.479</ele>
<time>2022-05-27T17:04:36Z</time>
</trkpt>
<trkpt lat="47.954094" lon="11.104956">
<ele>535.546</ele>
<time>2022-05-27T17:04:37Z</time>
</trkpt>
<trkpt lat="47.95414" lon="11.104933">
<ele>535.588</ele>
<time>2022-05-27T17:04:38Z</time>
</trkpt>
<trkpt lat="47.954182" lon="11.104908">
<ele>535.605</ele>
<time>2022-05-27T17:04:39Z</time>
</trkpt>
<trkpt lat="47.954224" lon="11.104882">
<ele>535.61</ele>
<time>2022-05-27T17:04:40Z</time>
</trkpt>
<trkpt lat="47.954258" lon="11.104859">
<ele>535.61</ele>
<time>2022-05-27T17:04:41Z</time>
</trkpt>
<trkpt lat="47.954296" lon="11.104836">
<ele>535.61</ele>
<time>2022-05-27T17:04:42Z</time>
</trkpt>
<trkpt lat="47.954338" lon="11.104817">
<ele>535.61</ele>
<time>2022-05-27T17:04:43Z</time>
</trkpt>
<trkpt lat="47.954372" lon="11.104788">
<ele>535.61</ele>
<time>2022-05-27T17:04:44Z</time>
</trkpt>
<trkpt lat="47.954411" lon="11.104769">
<ele>535.61</ele>
<time>2022-05-27T17:04:45Z</time>
</trkpt>
<trkpt lat="47.954437" lon="11.104742">
<ele>535.61</ele>
<time>2022-05-27T17:04:46Z</time>
</trkpt>
<trkpt lat="47.954468" lon="11.104718">
<ele>535.61</ele>
<time>2022-05-27T17:04:47Z</time>
</trkpt>
<trkpt lat="47.954498" lon="11.104698">
<ele>535.61</ele>
<time>2022-05-27T17:04:48Z</time>
</trkpt>
<trkpt lat="47.954529" lon="11.104682">
<ele>535.61</ele>
<time>2022-05-27T17:04:49Z</time>
</trkpt>
<trkpt lat="47.954559" lon="11.104665">
<ele>535.61</ele>
<time>2022-05-27T17:04:50Z</time>
</trkpt>
<trkpt lat="47.95459" lon="11.104647">
<ele>535.61</ele>
<time>2022-05-27T17:04:51Z</time>
</trkpt>
<trkpt lat="47.95462" lon="11.104625">
<ele>535.61</ele>
<time>2022-05-27T17:04:52Z</time>
</trkpt>
<trkpt lat="47.954655" lon="11.104597">
<ele>535.61</ele>
<time>2022-05-27T17:04:53Z</time>
</trkpt>
<trkpt lat="47.954697" lon="11.104572">
<ele>535.61</ele>
<time>2022-05-27T17:04:54Z</time>
</trkpt>
<trkpt lat="47.954739" lon="11.10456">
<ele>535.61</ele>
<time>2022-05-27T17:04:55Z</time>
</trkpt>
<trkpt lat="47.954788" lon="11.104555">
<ele>535.61</ele>
<time>2022-05-27T17:04:56Z</time>
</trkpt>
<trkpt lat="47.954838" lon="11.104555">
<ele>535.61</ele>
<time>2022-05-27T17:04:57Z</time>
</trkpt>
<trkpt lat="47.954884" lon="11.104553">
<ele>535.61</ele>
<time>2022-05-27T17:04:58Z</time>
</trkpt>
<trkpt lat="47.954933" lon="11.104549">
<ele>535.845</ele>
<time>2022-05-27T17:04:59Z</time>
</trkpt>
<trkpt lat="47.954975" lon="11.104542">
<ele>536.019</ele>
<time>2022-05-27T17:05:00Z</time>
</trkpt>
<trkpt lat="47.955021" lon="11.104533">
<ele>536.13</ele>
<time>2022-05-27T17:05:01Z</time>
</trkpt>
<trkpt lat="47.955063" lon="11.104525">
<ele>536.251</ele>
<time>2022-05-27T17:05:02Z</time>
</trkpt>
<trkpt lat="47.955105" lon="11.104515">
<ele>536.336</ele>
<time>2022-05-27T17:05:03Z</time>
</trkpt>
<trkpt lat="47.955143" lon="11.104509">
<ele>536.651</ele>
<time>2022-05-27T17:05:04Z</time>
</trkpt>
<trkpt lat="47.955185" lon="11.104509">
<ele>536.911</ele>
<time>2022-05-27T17:05:05Z</time>
</trkpt>
<trkpt lat="47.955223" lon="11.104509">
<ele>537.113</ele>
<time>2022-05-27T17:05:06Z</time>
</trkpt>
<trkpt lat="47.955261" lon="11.104509">
<ele>537.316</ele>
<time>2022-05-27T17:05:07Z</time>
</trkpt>
<trkpt lat="47.955299" lon="11.104508">
<ele>537.416</ele>
<time>2022-05-27T17:05:08Z</time>
</trkpt>
<trkpt lat="47.955338" lon="11.104507">
<ele>537.475</ele>
<time>2022-05-27T17:05:09Z</time>
</trkpt>
<trkpt lat="47.955376" lon="11.104507">
<ele>537.503</ele>
<time>2022-05-27T17:05:10Z</time>
</trkpt>
<trkpt lat="47.955414" lon="11.104508">
<ele>537.528</ele>
<time>2022-05-27T17:05:11Z</time>
</trkpt>
<trkpt lat="47.95546" lon="11.104518">
<ele>537.528</ele>
<time>2022-05-27T17:05:12Z</time>
</trkpt>
<trkpt lat="47.955505" lon="11.104532">
<ele>537.528</ele>
<time>2022-05-27T17:05:13Z</time>
</trkpt>
<trkpt lat="47.955551" lon="11.104553">
<ele>537.528</ele>
<time>2022-05-27T17:05:14Z</time>
</trkpt>
<trkpt lat="47.955593" lon="11.104583">
<ele>537.528</ele>
<time>2022-05-27T17:05:15Z</time>
</trkpt>
<trkpt lat="47.955631" lon="11.10462">
<ele>537.28</ele>
<time>2022-05-27T17:05:16Z</time>
</trkpt>
<trkpt lat="47.955673" lon="11.104654">
<ele>537.089</ele>
<time>2022-05-27T17:05:17Z</time>
</trkpt>
<trkpt lat="47.955715" lon="11.104692">
<ele>536.949</ele>
<time>2022-05-27T17:05:18Z</time>
</trkpt>
<trkpt lat="47.955757" lon="11.104727">
<ele>536.874</ele>
<time>2022-05-27T17:05:19Z</time>
</trkpt>
<trkpt lat="47.955803" lon="11.104761">
<ele>536.495</ele>
<time>2022-05-27T17:05:20Z</time>
</trkpt>
<trkpt lat="47.955849" lon="11.104788">
<ele>536.217</ele>
<time>2022-05-27T17:05:21Z</time>
</trkpt>
<trkpt lat="47.955887" lon="11.104809">
<ele>535.951</ele>
<time>2022-05-27T17:05:22Z</time>
</trkpt>
<trkpt lat="47.955921" lon="11.104826">
<ele>535.756</ele>
<time>2022-05-27T17:05:23Z</time>
</trkpt>
<trkpt lat="47.955959" lon="11.104845">
<ele>535.626</ele>
<time>2022-05-27T17:05:24Z</time>
</trkpt>
<trkpt lat="47.955994" lon="11.104863">
<ele>535.529</ele>
<time>2022-05-27T17:05:25Z</time>
</trkpt>
<trkpt lat="47.956024" lon="11.104885">
<ele>535.467</ele>
<time>2022-05-27T17:05:26Z</time>
</trkpt>
<trkpt lat="47.956062" lon="11.104917">
<ele>535.436</ele>
<time>2022-05-27T17:05:27Z</time>
</trkpt>
<trkpt lat="47.9561" lon="11.104959">
<ele>535.195</ele>
<time>2022-05-27T17:05:28Z</time>
</trkpt>
<trkpt lat="47.956135" lon="11.104996">
<ele>534.998</ele>
<time>2022-05-27T17:05:29Z</time>
</trkpt>
<trkpt lat="47.956177" lon="11.105043">
<ele>534.838</ele>
<time>2022-05-27T17:05:30Z</time>
</trkpt>
<trkpt lat="47.956226" lon="11.105099">
<ele>534.732</ele>
<time>2022-05-27T17:05:31Z</time>
</trkpt>
<trkpt lat="47.95628" lon="11.105146">
<ele>534.62</ele>
<time>2022-05-27T17:05:32Z</time>
</trkpt>
<trkpt lat="47.956333" lon="11.105192">
<ele>534.54</ele>
<time>2022-05-27T17:05:33Z</time>
</trkpt>
<trkpt lat="47.956383" lon="11.105245">
<ele>534.495</ele>
<time>2022-05-27T17:05:34Z</time>
</trkpt>
<trkpt lat="47.956436" lon="11.105298">
<ele>534.477</ele>
<time>2022-05-27T17:05:35Z</time>
</trkpt>
<trkpt lat="47.956486" lon="11.10535">
<ele>534.477</ele>
<time>2022-05-27T17:05:36Z</time>
</trkpt>
<trkpt lat="47.956539" lon="11.105398">
<ele>534.477</ele>
<time>2022-05-27T17:05:37Z</time>
</trkpt>
<trkpt lat="47.956585" lon="11.105449">
<ele>534.477</ele>
<time>2022-05-27T17:05:38Z</time>
</trkpt>
<trkpt lat="47.956627" lon="11.105494">
<ele>534.477</ele>
<time>2022-05-27T17:05:39Z</time>
</trkpt>
<trkpt lat="47.956665" lon="11.105538">
<ele>534.477</ele>
<time>2022-05-27T17:05:40Z</time>
</trkpt>
<trkpt lat="47.956707" lon="11.105582">
<ele>534.477</ele>
<time>2022-05-27T17:05:41Z</time>
</trkpt>
<trkpt lat="47.956753" lon="11.105622">
<ele>534.477</ele>
<time>2022-05-27T17:05:42Z</time>
</trkpt>
<trkpt lat="47.956795" lon="11.105657">
<ele>534.477</ele>
<time>2022-05-27T17:05:43Z</time>
</trkpt>
<trkpt lat="47.956833" lon="11.105692">
<ele>534.477</ele>
<time>2022-05-27T17:05:44Z</time>
</trkpt>
<trkpt lat="47.956867" lon="11.105728">
<ele>534.477</ele>
<time>2022-05-27T17:05:45Z</time>
</trkpt>
<trkpt lat="47.956905" lon="11.105771">
<ele>534.477</ele>
<time>2022-05-27T17:05:46Z</time>
</trkpt>
<trkpt lat="47.956944" lon="11.105817">
<ele>534.477</ele>
<time>2022-05-27T17:05:47Z</time>
</trkpt>
<trkpt lat="47.956985" lon="11.105868">
<ele>534.477</ele>
<time>2022-05-27T17:05:48Z</time>
</trkpt>
<trkpt lat="47.957027" lon="11.10592">
<ele>534.477</ele>
<time>2022-05-27T17:05:49Z</time>
</trkpt>
<trkpt lat="47.957081" lon="11.105975">
<ele>534.477</ele>
<time>2022-05-27T17:05:50Z</time>
</trkpt>
<trkpt lat="47.95713" lon="11.106025">
<ele>534.477</ele>
<time>2022-05-27T17:05:51Z</time>
</trkpt>
<trkpt lat="47.957184" lon="11.106069">
<ele>534.477</ele>
<time>2022-05-27T17:05:52Z</time>
</trkpt>
<trkpt lat="47.95723" lon="11.106114">
<ele>534.477</ele>
<time>2022-05-27T17:05:53Z</time>
</trkpt>
<trkpt lat="47.957272" lon="11.10616">
<ele>534.477</ele>
<time>2022-05-27T17:05:54Z</time>
</trkpt>
<trkpt lat="47.957321" lon="11.106207">
<ele>534.477</ele>
<time>2022-05-27T17:05:55Z</time>
</trkpt>
<trkpt lat="47.957363" lon="11.106253">
<ele>534.477</ele>
<time>2022-05-27T17:05:56Z</time>
</trkpt>
<trkpt lat="47.957405" lon="11.106303">
<ele>534.477</ele>
<time>2022-05-27T17:05:57Z</time>
</trkpt>
<trkpt lat="47.957447" lon="11.106354">
<ele>534.477</ele>
<time>2022-05-27T17:05:58Z</time>
</trkpt>
<trkpt lat="47.957485" lon="11.106403">
<ele>534.477</ele>
<time>2022-05-27T17:05:59Z</time>
</trkpt>
<trkpt lat="47.957527" lon="11.106457">
<ele>534.477</ele>
<time>2022-05-27T17:06:00Z</time>
</trkpt>
<trkpt lat="47.957561" lon="11.106502">
<ele>534.477</ele>
<time>2022-05-27T17:06:01Z</time>
</trkpt>
<trkpt lat="47.957603" lon="11.106552">
<ele>534.477</ele>
<time>2022-05-27T17:06:02Z</time>
</trkpt>
<trkpt lat="47.957645" lon="11.1066">
<ele>534.477</ele>
<time>2022-05-27T17:06:03Z</time>
</trkpt>
<trkpt lat="47.957684" lon="11.106643">
<ele>534.477</ele>
<time>2022-05-27T17:06:04Z</time>
</trkpt>
<trkpt lat="47.957722" lon="11.106687">
<ele>534.477</ele>
<time>2022-05-27T17:06:05Z</time>
</trkpt>
<trkpt lat="47.95776" lon="11.10673">
<ele>534.477</ele>
<time>2022-05-27T17:06:06Z</time>
</trkpt>
<trkpt lat="47.957798" lon="11.106776">
<ele>534.477</ele>
<time>2022-05-27T17:06:07Z</time>
</trkpt>
<trkpt lat="47.95784" lon="11.106818">
<ele>534.477</ele>
<time>2022-05-27T17:06:08Z</time>
</trkpt>
<trkpt lat="47.957882" lon="11.106856">
<ele>534.477</ele>
<time>2022-05-27T17:06:09Z</time>
</trkpt>
<trkpt lat="47.95792" lon="11.106892">
<ele>534.477</ele>
<time>2022-05-27T17:06:10Z</time>
</trkpt>
<trkpt lat="47.957954" lon="11.106928">
<ele>534.477</ele>
<time>2022-05-27T17:06:11Z</time>
</trkpt>
<trkpt lat="47.957993" lon="11.106965">
<ele>534.477</ele>
<time>2022-05-27T17:06:12Z</time>
</trkpt>
<trkpt lat="47.958027" lon="11.107005">
<ele>534.477</ele>
<time>2022-05-27T17:06:13Z</time>
</trkpt>
<trkpt lat="47.958061" lon="11.10704">
<ele>534.477</ele>
<time>2022-05-27T17:06:14Z</time>
</trkpt>
<trkpt lat="47.958103" lon="11.107072">
<ele>534.477</ele>
<time>2022-05-27T17:06:15Z</time>
</trkpt>
<trkpt lat="47.958141" lon="11.1071">
<ele>534.477</ele>
<time>2022-05-27T17:06:16Z</time>
</trkpt>
<trkpt lat="47.958179" lon="11.107132">
<ele>534.477</ele>
<time>2022-05-27T17:06:17Z</time>
</trkpt>
<trkpt lat="47.958218" lon="11.107162">
<ele>534.477</ele>
<time>2022-05-27T17:06:18Z</time>
</trkpt>
<trkpt lat="47.958252" lon="11.107191">
<ele>534.477</ele>
<time>2022-05-27T17:06:19Z</time>
</trkpt>
<trkpt lat="47.958286" lon="11.10723">
<ele>534.477</ele>
<time>2022-05-27T17:06:20Z</time>
</trkpt>
<trkpt lat="47.958321" lon="11.107273">
<ele>534.477</ele>
<time>2022-05-27T17:06:21Z</time>
</trkpt>
<trkpt lat="47.958355" lon="11.107324">
<ele>534.477</ele>
<time>2022-05-27T17:06:22Z</time>
</trkpt>
<trkpt lat="47.958385" lon="11.107378">
<ele>534.477</ele>
<time>2022-05-27T17:06:23Z</time>
</trkpt>
<trkpt lat="47.958408" lon="11.107434">
<ele>534.477</ele>
<time>2022-05-27T17:06:24Z</time>
</trkpt>
<trkpt lat="47.958435" lon="11.107493">
<ele>534.477</ele>
<time>2022-05-27T17:06:25Z</time>
</trkpt>
<trkpt lat="47.958462" lon="11.107543">
<ele>534.477</ele>
<time>2022-05-27T17:06:26Z</time>
</trkpt>
<trkpt lat="47.958481" lon="11.107592">
<ele>534.477</ele>
<time>2022-05-27T17:06:27Z</time>
</trkpt>
<trkpt lat="47.958496" lon="11.107637">
<ele>534.477</ele>
<time>2022-05-27T17:06:28Z</time>
</trkpt>
<trkpt lat="47.958519" lon="11.107677">
<ele>534.477</ele>
<time>2022-05-27T17:06:29Z</time>
</trkpt>
<trkpt lat="47.95853" lon="11.107711">
<ele>534.477</ele>
<time>2022-05-27T17:06:30Z</time>
</trkpt>
<trkpt lat="47.958546" lon="11.107738">
<ele>534.477</ele>
<time>2022-05-27T17:06:31Z</time>
</trkpt>
<trkpt lat="47.958561" lon="11.107761">
<ele>534.477</ele>
<time>2022-05-27T17:06:32Z</time>
</trkpt>
<trkpt lat="47.958572" lon="11.107779">
<ele>534.477</ele>
<time>2022-05-27T17:06:33Z</time>
</trkpt>
<trkpt lat="47.958584" lon="11.107797">
<ele>534.477</ele>
<time>2022-05-27T17:06:34Z</time>
</trkpt>
<trkpt lat="47.958591" lon="11.107816">
<ele>534.477</ele>
<time>2022-05-27T17:06:35Z</time>
</trkpt>
<trkpt lat="47.958603" lon="11.107832">
<ele>534.477</ele>
<time>2022-05-27T17:06:36Z</time>
</trkpt>
<trkpt lat="47.958626" lon="11.107847">
<ele>534.477</ele>
<time>2022-05-27T17:06:37Z</time>
</trkpt>
<trkpt lat="47.958652" lon="11.107862">
<ele>534.477</ele>
<time>2022-05-27T17:06:38Z</time>
</trkpt>
<trkpt lat="47.958675" lon="11.107879">
<ele>534.477</ele>
<time>2022-05-27T17:06:39Z</time>
</trkpt>
<trkpt lat="47.958698" lon="11.107897">
<ele>534.477</ele>
<time>2022-05-27T17:06:40Z</time>
</trkpt>
<trkpt lat="47.958725" lon="11.107914">
<ele>534.477</ele>
<time>2022-05-27T17:06:41Z</time>
</trkpt>
<trkpt lat="47.958755" lon="11.107939">
<ele>534.477</ele>
<time>2022-05-27T17:06:42Z</time>
</trkpt>
<trkpt lat="47.958801" lon="11.107966">
<ele>534.477</ele>
<time>2022-05-27T17:06:43Z</time>
</trkpt>
<trkpt lat="47.958851" lon="11.107988">
<ele>534.477</ele>
<time>2022-05-27T17:06:44Z</time>
</trkpt>
<trkpt lat="47.958893" lon="11.10801">
<ele>534.477</ele>
<time>2022-05-27T17:06:45Z</time>
</trkpt>
<trkpt lat="47.958942" lon="11.108044">
<ele>534.477</ele>
<time>2022-05-27T17:06:46Z</time>
</trkpt>
<trkpt lat="47.958984" lon="11.10808">
<ele>534.477</ele>
<time>2022-05-27T17:06:47Z</time>
</trkpt>
<trkpt lat="47.959034" lon="11.108118">
<ele>534.477</ele>
<time>2022-05-27T17:06:48Z</time>
</trkpt>
<trkpt lat="47.959084" lon="11.108151">
<ele>534.477</ele>
<time>2022-05-27T17:06:49Z</time>
</trkpt>
<trkpt lat="47.959129" lon="11.10818">
<ele>534.477</ele>
<time>2022-05-27T17:06:50Z</time>
</trkpt>
<trkpt lat="47.959175" lon="11.10821">
<ele>534.477</ele>
<time>2022-05-27T17:06:51Z</time>
</trkpt>
<trkpt lat="47.959217" lon="11.108236">
<ele>534.477</ele>
<time>2022-05-27T17:06:52Z</time>
</trkpt>
<trkpt lat="47.959263" lon="11.108256">
<ele>534.477</ele>
<time>2022-05-27T17:06:53Z</time>
</trkpt>
<trkpt lat="47.959305" lon="11.108276">
<ele>534.477</ele>
<time>2022-05-27T17:06:54Z</time>
</trkpt>
<trkpt lat="47.959347" lon="11.108298">
<ele>534.477</ele>
<time>2022-05-27T17:06:55Z</time>
</trkpt>
<trkpt lat="47.959389" lon="11.108323">
<ele>534.477</ele>
<time>2022-05-27T17:06:56Z</time>
</trkpt>
<trkpt lat="47.959438" lon="11.108352">
<ele>534.477</ele>
<time>2022-05-27T17:06:57Z</time>
</trkpt>
<trkpt lat="47.959484" lon="11.108377">
<ele>534.477</ele>
<time>2022-05-27T17:06:58Z</time>
</trkpt>
<trkpt lat="47.959534" lon="11.108403">
<ele>534.477</ele>
<time>2022-05-27T17:06:59Z</time>
</trkpt>
<trkpt lat="47.959576" lon="11.108432">
<ele>534.477</ele>
<time>2022-05-27T17:07:00Z</time>
</trkpt>
<trkpt lat="47.959625" lon="11.10846">
<ele>534.477</ele>
<time>2022-05-27T17:07:01Z</time>
</trkpt>
<trkpt lat="47.959667" lon="11.10849">
<ele>534.477</ele>
<time>2022-05-27T17:07:02Z</time>
</trkpt>
<trkpt lat="47.959709" lon="11.108521">
<ele>534.477</ele>
<time>2022-05-27T17:07:03Z</time>
</trkpt>
<trkpt lat="47.959755" lon="11.108555">
<ele>534.477</ele>
<time>2022-05-27T17:07:04Z</time>
</trkpt>
<trkpt lat="47.959797" lon="11.108588">
<ele>534.477</ele>
<time>2022-05-27T17:07:05Z</time>
</trkpt>
<trkpt lat="47.959835" lon="11.10862">
<ele>534.477</ele>
<time>2022-05-27T17:07:06Z</time>
</trkpt>
<trkpt lat="47.959877" lon="11.108648">
<ele>534.477</ele>
<time>2022-05-27T17:07:07Z</time>
</trkpt>
<trkpt lat="47.959919" lon="11.108675">
<ele>534.477</ele>
<time>2022-05-27T17:07:08Z</time>
</trkpt>
<trkpt lat="47.959965" lon="11.1087">
<ele>534.477</ele>
<time>2022-05-27T17:07:09Z</time>
</trkpt>
<trkpt lat="47.960011" lon="11.108722">
<ele>534.477</ele>
<time>2022-05-27T17:07:10Z</time>
</trkpt>
<trkpt lat="47.960056" lon="11.108742">
<ele>534.477</ele>
<time>2022-05-27T17:07:11Z</time>
</trkpt>
<trkpt lat="47.960094" lon="11.108765">
<ele>534.477</ele>
<time>2022-05-27T17:07:12Z</time>
</trkpt>
<trkpt lat="47.960144" lon="11.108787">
<ele>534.477</ele>
<time>2022-05-27T17:07:13Z</time>
</trkpt>
<trkpt lat="47.96019" lon="11.108802">
<ele>534.477</ele>
<time>2022-05-27T17:07:14Z</time>
</trkpt>
<trkpt lat="47.960236" lon="11.10881">
<ele>534.477</ele>
<time>2022-05-27T17:07:15Z</time>
</trkpt>
<trkpt lat="47.960278" lon="11.10882">
<ele>534.22</ele>
<time>2022-05-27T17:07:16Z</time>
</trkpt>
<trkpt lat="47.96032" lon="11.108828">
<ele>534.019</ele>
<time>2022-05-27T17:07:17Z</time>
</trkpt>
<trkpt lat="47.960365" lon="11.10884">
<ele>533.86</ele>
<time>2022-05-27T17:07:18Z</time>
</trkpt>
<trkpt lat="47.960415" lon="11.108851">
<ele>533.743</ele>
<time>2022-05-27T17:07:19Z</time>
</trkpt>
<trkpt lat="47.960457" lon="11.10886">
<ele>533.663</ele>
<time>2022-05-27T17:07:20Z</time>
</trkpt>
<trkpt lat="47.960499" lon="11.108865">
<ele>533.616</ele>
<time>2022-05-27T17:07:21Z</time>
</trkpt>
<trkpt lat="47.960545" lon="11.108867">
<ele>533.795</ele>
<time>2022-05-27T17:07:22Z</time>
</trkpt>
<trkpt lat="47.960583" lon="11.108871">
<ele>533.959</ele>
<time>2022-05-27T17:07:23Z</time>
</trkpt>
<trkpt lat="47.960625" lon="11.10888">
<ele>534.105</ele>
<time>2022-05-27T17:07:24Z</time>
</trkpt>
<trkpt lat="47.960674" lon="11.108894">
<ele>534.231</ele>
<time>2022-05-27T17:07:25Z</time>
</trkpt>
<trkpt lat="47.960716" lon="11.108909">
<ele>534.331</ele>
<time>2022-05-27T17:07:26Z</time>
</trkpt>
<trkpt lat="47.960766" lon="11.108917">
<ele>534.405</ele>
<time>2022-05-27T17:07:27Z</time>
</trkpt>
<trkpt lat="47.960812" lon="11.108924">
<ele>534.454</ele>
<time>2022-05-27T17:07:28Z</time>
</trkpt>
<trkpt lat="47.960857" lon="11.108924">
<ele>534.477</ele>
<time>2022-05-27T17:07:29Z</time>
</trkpt>
<trkpt lat="47.960907" lon="11.108922">
<ele>534.477</ele>
<time>2022-05-27T17:07:30Z</time>
</trkpt>
<trkpt lat="47.960953" lon="11.10892">
<ele>534.477</ele>
<time>2022-05-27T17:07:31Z</time>
</trkpt>
<trkpt lat="47.961002" lon="11.108924">
<ele>534.477</ele>
<time>2022-05-27T17:07:32Z</time>
</trkpt>
<trkpt lat="47.961052" lon="11.108927">
<ele>534.477</ele>
<time>2022-05-27T17:07:33Z</time>
</trkpt>
<trkpt lat="47.961102" lon="11.108929">
<ele>534.477</ele>
<time>2022-05-27T17:07:34Z</time>
</trkpt>
<trkpt lat="47.961147" lon="11.108929">
<ele>534.477</ele>
<time>2022-05-27T17:07:35Z</time>
</trkpt>
<trkpt lat="47.961197" lon="11.108925">
<ele>534.477</ele>
<time>2022-05-27T17:07:36Z</time>
</trkpt>
<trkpt lat="47.961239" lon="11.108922">
<ele>534.477</ele>
<time>2022-05-27T17:07:37Z</time>
</trkpt>
<trkpt lat="47.961285" lon="11.108912">
<ele>534.477</ele>
<time>2022-05-27T17:07:38Z</time>
</trkpt>
<trkpt lat="47.961319" lon="11.108887">
<ele>534.477</ele>
<time>2022-05-27T17:07:39Z</time>
</trkpt>
<trkpt lat="47.961342" lon="11.108849">
<ele>534.477</ele>
<time>2022-05-27T17:07:40Z</time>
</trkpt>
<trkpt lat="47.961361" lon="11.1088">
<ele>534.477</ele>
<time>2022-05-27T17:07:41Z</time>
</trkpt>
<trkpt lat="47.961365" lon="11.108748">
<ele>534.477</ele>
<time>2022-05-27T17:07:42Z</time>
</trkpt>
<trkpt lat="47.961369" lon="11.108693">
<ele>534.477</ele>
<time>2022-05-27T17:07:43Z</time>
</trkpt>
<trkpt lat="47.961369" lon="11.108639">
<ele>534.714</ele>
<time>2022-05-27T17:07:44Z</time>
</trkpt>
<trkpt lat="47.961365" lon="11.108577">
<ele>534.911</ele>
<time>2022-05-27T17:07:45Z</time>
</trkpt>
<trkpt lat="47.961365" lon="11.108518">
<ele>535.065</ele>
<time>2022-05-27T17:07:46Z</time>
</trkpt>
<trkpt lat="47.961361" lon="11.108459">
<ele>535.182</ele>
<time>2022-05-27T17:07:47Z</time>
</trkpt>
<trkpt lat="47.961349" lon="11.108388">
<ele>535.264</ele>
<time>2022-05-27T17:07:48Z</time>
</trkpt>
<trkpt lat="47.961338" lon="11.10832">
<ele>535.304</ele>
<time>2022-05-27T17:07:49Z</time>
</trkpt>
<trkpt lat="47.96133" lon="11.108245">
<ele>535.33</ele>
<time>2022-05-27T17:07:50Z</time>
</trkpt>
<trkpt lat="47.961323" lon="11.108173">
<ele>535.349</ele>
<time>2022-05-27T17:07:51Z</time>
</trkpt>
<trkpt lat="47.961315" lon="11.108109">
<ele>535.594</ele>
<time>2022-05-27T17:07:52Z</time>
</trkpt>
<trkpt lat="47.961308" lon="11.108044">
<ele>535.79</ele>
<time>2022-05-27T17:07:53Z</time>
</trkpt>
<trkpt lat="47.961304" lon="11.107975">
<ele>535.95</ele>
<time>2022-05-27T17:07:54Z</time>
</trkpt>
<trkpt lat="47.9613" lon="11.10791">
<ele>536.072</ele>
<time>2022-05-27T17:07:55Z</time>
</trkpt>
<trkpt lat="47.9613" lon="11.10785">
<ele>536.164</ele>
<time>2022-05-27T17:07:56Z</time>
</trkpt>
<trkpt lat="47.961296" lon="11.107784">
<ele>536.236</ele>
<time>2022-05-27T17:07:57Z</time>
</trkpt>
<trkpt lat="47.961288" lon="11.107718">
<ele>536.283</ele>
<time>2022-05-27T17:07:58Z</time>
</trkpt>
<trkpt lat="47.961281" lon="11.107655">
<ele>536.308</ele>
<time>2022-05-27T17:07:59Z</time>
</trkpt>
<trkpt lat="47.961273" lon="11.107594">
<ele>536.308</ele>
<time>2022-05-27T17:08:00Z</time>
</trkpt>
<trkpt lat="47.961266" lon="11.107537">
<ele>536.308</ele>
<time>2022-05-27T17:08:01Z</time>
</trkpt>
<trkpt lat="47.961258" lon="11.10748">
<ele>536.308</ele>
<time>2022-05-27T17:08:02Z</time>
</trkpt>
<trkpt lat="47.96125" lon="11.107426">
<ele>536.308</ele>
<time>2022-05-27T17:08:03Z</time>
</trkpt>
<trkpt lat="47.961246" lon="11.107375">
<ele>536.308</ele>
<time>2022-05-27T17:08:04Z</time>
</trkpt>
<trkpt lat="47.961258" lon="11.107327">
<ele>536.561</ele>
<time>2022-05-27T17:08:05Z</time>
</trkpt>
<trkpt lat="47.961277" lon="11.107284">
<ele>536.764</ele>
<time>2022-05-27T17:08:06Z</time>
</trkpt>
<trkpt lat="47.9613" lon="11.10725">
<ele>536.928</ele>
<time>2022-05-27T17:08:07Z</time>
</trkpt>
<trkpt lat="47.961319" lon="11.107222">
<ele>537.05</ele>
<time>2022-05-27T17:08:08Z</time>
</trkpt>
<trkpt lat="47.961342" lon="11.107203">
<ele>537.131</ele>
<time>2022-05-27T17:08:09Z</time>
</trkpt>
<trkpt lat="47.961365" lon="11.107189">
<ele>537.19</ele>
<time>2022-05-27T17:08:10Z</time>
</trkpt>
<trkpt lat="47.961388" lon="11.107181">
<ele>537.236</ele>
<time>2022-05-27T17:08:11Z</time>
</trkpt>
<trkpt lat="47.961411" lon="11.107175">
<ele>537.266</ele>
<time>2022-05-27T17:08:12Z</time>
</trkpt>
<trkpt lat="47.96143" lon="11.107177">
<ele>537.267</ele>
<time>2022-05-27T17:08:13Z</time>
</trkpt>
<trkpt lat="47.961452" lon="11.107179">
<ele>537.267</ele>
<time>2022-05-27T17:08:14Z</time>
</trkpt>
<trkpt lat="47.961464" lon="11.107175">
<ele>537.266</ele>
<time>2022-05-27T17:08:15Z</time>
</trkpt>
<trkpt lat="47.961472" lon="11.107172">
<ele>537.267</ele>
<time>2022-05-27T17:08:16Z</time>
</trkpt>
<trkpt lat="47.961479" lon="11.10717">
<ele>537.267</ele>
<time>2022-05-27T17:08:17Z</time>
</trkpt>
<trkpt lat="47.961483" lon="11.10717">
<ele>537.267</ele>
<time>2022-05-27T17:08:18Z</time>
</trkpt>
<trkpt lat="47.961494" lon="11.107158">
<ele>537.266</ele>
<time>2022-05-27T17:08:35Z</time>
</trkpt>
<trkpt lat="47.961502" lon="11.107155">
<ele>537.061</ele>
<time>2022-05-27T17:08:36Z</time>
</trkpt>
<trkpt lat="47.961517" lon="11.10715">
<ele>536.888</ele>
<time>2022-05-27T17:08:37Z</time>
</trkpt>
<trkpt lat="47.961533" lon="11.107141">
<ele>536.681</ele>
<time>2022-05-27T17:08:38Z</time>
</trkpt>
<trkpt lat="47.961559" lon="11.10713">
<ele>536.473</ele>
<time>2022-05-27T17:08:39Z</time>
</trkpt>
<trkpt lat="47.961586" lon="11.107119">
<ele>536.312</ele>
<time>2022-05-27T17:08:40Z</time>
</trkpt>
<trkpt lat="47.961613" lon="11.107105">
<ele>536.249</ele>
<time>2022-05-27T17:08:41Z</time>
</trkpt>
<trkpt lat="47.961647" lon="11.107091">
<ele>536.226</ele>
<time>2022-05-27T17:08:42Z</time>
</trkpt>
<trkpt lat="47.961678" lon="11.107079">
<ele>536.22</ele>
<time>2022-05-27T17:08:43Z</time>
</trkpt>
<trkpt lat="47.961712" lon="11.107063">
<ele>536.22</ele>
<time>2022-05-27T17:08:44Z</time>
</trkpt>
<trkpt lat="47.961746" lon="11.107049">
<ele>536.22</ele>
<time>2022-05-27T17:08:45Z</time>
</trkpt>
<trkpt lat="47.961781" lon="11.107034">
<ele>536.22</ele>
<time>2022-05-27T17:08:46Z</time>
</trkpt>
<trkpt lat="47.961819" lon="11.107017">
<ele>536.22</ele>
<time>2022-05-27T17:08:47Z</time>
</trkpt>
<trkpt lat="47.961864" lon="11.106997">
<ele>536.22</ele>
<time>2022-05-27T17:08:48Z</time>
</trkpt>
<trkpt lat="47.96191" lon="11.106976">
<ele>536.22</ele>
<time>2022-05-27T17:08:49Z</time>
</trkpt>
<trkpt lat="47.961956" lon="11.106953">
<ele>536.22</ele>
<time>2022-05-27T17:08:50Z</time>
</trkpt>
<trkpt lat="47.962006" lon="11.106927">
<ele>536.542</ele>
<time>2022-05-27T17:08:51Z</time>
</trkpt>
<trkpt lat="47.962059" lon="11.1069">
<ele>536.781</ele>
<time>2022-05-27T17:08:52Z</time>
</trkpt>
<trkpt lat="47.962112" lon="11.106875">
<ele>536.949</ele>
<time>2022-05-27T17:08:53Z</time>
</trkpt>
<trkpt lat="47.962158" lon="11.106848">
<ele>537.069</ele>
<time>2022-05-27T17:08:54Z</time>
</trkpt>
<trkpt lat="47.962212" lon="11.106825">
<ele>537.126</ele>
<time>2022-05-27T17:08:55Z</time>
</trkpt>
<trkpt lat="47.962261" lon="11.106804">
<ele>537.402</ele>
<time>2022-05-27T17:08:56Z</time>
</trkpt>
<trkpt lat="47.962311" lon="11.106783">
<ele>537.608</ele>
<time>2022-05-27T17:08:57Z</time>
</trkpt>
<trkpt lat="47.96236" lon="11.10676">
<ele>537.787</ele>
<time>2022-05-27T17:08:58Z</time>
</trkpt>
<trkpt lat="47.962414" lon="11.106738">
<ele>537.833</ele>
<time>2022-05-27T17:08:59Z</time>
</trkpt>
<trkpt lat="47.962467" lon="11.106718">
<ele>537.638</ele>
<time>2022-05-27T17:09:00Z</time>
</trkpt>
<trkpt lat="47.962517" lon="11.1067">
<ele>537.473</ele>
<time>2022-05-27T17:09:01Z</time>
</trkpt>
<trkpt lat="47.96257" lon="11.106671">
<ele>537.334</ele>
<time>2022-05-27T17:09:02Z</time>
</trkpt>
<trkpt lat="47.962627" lon="11.106648">
<ele>537.218</ele>
<time>2022-05-27T17:09:03Z</time>
</trkpt>
<trkpt lat="47.962677" lon="11.106628">
<ele>537.122</ele>
<time>2022-05-27T17:09:04Z</time>
</trkpt>
<trkpt lat="47.962734" lon="11.106619">
<ele>537.059</ele>
<time>2022-05-27T17:09:05Z</time>
</trkpt>
<trkpt lat="47.962788" lon="11.106619">
<ele>537.031</ele>
<time>2022-05-27T17:09:06Z</time>
</trkpt>
<trkpt lat="47.962841" lon="11.106622">
<ele>537.005</ele>
<time>2022-05-27T17:09:07Z</time>
</trkpt>
<trkpt lat="47.962894" lon="11.106627">
<ele>537.005</ele>
<time>2022-05-27T17:09:08Z</time>
</trkpt>
<trkpt lat="47.962952" lon="11.106632">
<ele>537.005</ele>
<time>2022-05-27T17:09:09Z</time>
</trkpt>
<trkpt lat="47.963009" lon="11.106635">
<ele>537.005</ele>
<time>2022-05-27T17:09:10Z</time>
</trkpt>
<trkpt lat="47.963078" lon="11.106635">
<ele>537.005</ele>
<time>2022-05-27T17:09:11Z</time>
</trkpt>
<trkpt lat="47.963142" lon="11.106638">
<ele>537.005</ele>
<time>2022-05-27T17:09:12Z</time>
</trkpt>
<trkpt lat="47.9632" lon="11.106636">
<ele>537.005</ele>
<time>2022-05-27T17:09:13Z</time>
</trkpt>
<trkpt lat="47.963257" lon="11.10663">
<ele>537.005</ele>
<time>2022-05-27T17:09:14Z</time>
</trkpt>
<trkpt lat="47.963314" lon="11.106611">
<ele>537.005</ele>
<time>2022-05-27T17:09:15Z</time>
</trkpt>
<trkpt lat="47.963367" lon="11.106584">
<ele>537.005</ele>
<time>2022-05-27T17:09:16Z</time>
</trkpt>
<trkpt lat="47.963417" lon="11.106548">
<ele>537.005</ele>
<time>2022-05-27T17:09:17Z</time>
</trkpt>
<trkpt lat="47.963467" lon="11.106503">
<ele>537.005</ele>
<time>2022-05-27T17:09:18Z</time>
</trkpt>
<trkpt lat="47.963516" lon="11.106452">
<ele>537.005</ele>
<time>2022-05-27T17:09:19Z</time>
</trkpt>
<trkpt lat="47.963573" lon="11.106397">
<ele>537.005</ele>
<time>2022-05-27T17:09:20Z</time>
</trkpt>
<trkpt lat="47.963627" lon="11.10634">
<ele>537.005</ele>
<time>2022-05-27T17:09:21Z</time>
</trkpt>
<trkpt lat="47.96368" lon="11.106284">
<ele>537.005</ele>
<time>2022-05-27T17:09:22Z</time>
</trkpt>
<trkpt lat="47.96373" lon="11.106223">
<ele>537.005</ele>
<time>2022-05-27T17:09:23Z</time>
</trkpt>
<trkpt lat="47.963779" lon="11.106162">
<ele>537.005</ele>
<time>2022-05-27T17:09:24Z</time>
</trkpt>
<trkpt lat="47.963829" lon="11.106098">
<ele>537.005</ele>
<time>2022-05-27T17:09:25Z</time>
</trkpt>
<trkpt lat="47.963875" lon="11.106031">
<ele>537.005</ele>
<time>2022-05-27T17:09:26Z</time>
</trkpt>
<trkpt lat="47.963913" lon="11.105957">
<ele>537.005</ele>
<time>2022-05-27T17:09:27Z</time>
</trkpt>
<trkpt lat="47.963955" lon="11.105892">
<ele>537.005</ele>
<time>2022-05-27T17:09:28Z</time>
</trkpt>
<trkpt lat="47.964005" lon="11.105827">
<ele>537.005</ele>
<time>2022-05-27T17:09:29Z</time>
</trkpt>
<trkpt lat="47.964043" lon="11.105762">
<ele>537.005</ele>
<time>2022-05-27T17:09:30Z</time>
</trkpt>
<trkpt lat="47.964088" lon="11.105695">
<ele>537.005</ele>
<time>2022-05-27T17:09:31Z</time>
</trkpt>
<trkpt lat="47.964134" lon="11.105639">
<ele>537.005</ele>
<time>2022-05-27T17:09:32Z</time>
</trkpt>
<trkpt lat="47.96418" lon="11.10558">
<ele>537.005</ele>
<time>2022-05-27T17:09:33Z</time>
</trkpt>
<trkpt lat="47.96423" lon="11.105532">
<ele>537.005</ele>
<time>2022-05-27T17:09:34Z</time>
</trkpt>
<trkpt lat="47.964279" lon="11.105485">
<ele>537.005</ele>
<time>2022-05-27T17:09:35Z</time>
</trkpt>
<trkpt lat="47.964329" lon="11.105444">
<ele>537.005</ele>
<time>2022-05-27T17:09:36Z</time>
</trkpt>
<trkpt lat="47.964378" lon="11.105407">
<ele>537.005</ele>
<time>2022-05-27T17:09:37Z</time>
</trkpt>
<trkpt lat="47.964432" lon="11.105367">
<ele>537.005</ele>
<time>2022-05-27T17:09:38Z</time>
</trkpt>
<trkpt lat="47.964489" lon="11.105323">
<ele>537.005</ele>
<time>2022-05-27T17:09:39Z</time>
</trkpt>
<trkpt lat="47.964542" lon="11.10528">
<ele>537.005</ele>
<time>2022-05-27T17:09:40Z</time>
</trkpt>
<trkpt lat="47.9646" lon="11.10524">
<ele>537.005</ele>
<time>2022-05-27T17:09:41Z</time>
</trkpt>
<trkpt lat="47.964657" lon="11.105208">
<ele>537.005</ele>
<time>2022-05-27T17:09:42Z</time>
</trkpt>
<trkpt lat="47.96471" lon="11.105176">
<ele>537.005</ele>
<time>2022-05-27T17:09:43Z</time>
</trkpt>
<trkpt lat="47.964764" lon="11.105142">
<ele>537.005</ele>
<time>2022-05-27T17:09:44Z</time>
</trkpt>
<trkpt lat="47.964821" lon="11.105108">
<ele>537.005</ele>
<time>2022-05-27T17:09:45Z</time>
</trkpt>
<trkpt lat="47.964874" lon="11.10508">
<ele>537.005</ele>
<time>2022-05-27T17:09:46Z</time>
</trkpt>
<trkpt lat="47.964928" lon="11.105046">
<ele>537.005</ele>
<time>2022-05-27T17:09:47Z</time>
</trkpt>
<trkpt lat="47.964985" lon="11.105015">
<ele>537.005</ele>
<time>2022-05-27T17:09:48Z</time>
</trkpt>
<trkpt lat="47.965031" lon="11.104979">
<ele>537.005</ele>
<time>2022-05-27T17:09:49Z</time>
</trkpt>
<trkpt lat="47.96508" lon="11.10493">
<ele>537.005</ele>
<time>2022-05-27T17:09:50Z</time>
</trkpt>
<trkpt lat="47.96513" lon="11.104892">
<ele>537.005</ele>
<time>2022-05-27T17:09:51Z</time>
</trkpt>
<trkpt lat="47.965179" lon="11.104857">
<ele>537.005</ele>
<time>2022-05-27T17:09:52Z</time>
</trkpt>
<trkpt lat="47.965229" lon="11.104822">
<ele>537.005</ele>
<time>2022-05-27T17:09:53Z</time>
</trkpt>
<trkpt lat="47.965275" lon="11.10479">
<ele>537.005</ele>
<time>2022-05-27T17:09:54Z</time>
</trkpt>
<trkpt lat="47.965328" lon="11.104745">
<ele>537.005</ele>
<time>2022-05-27T17:09:55Z</time>
</trkpt>
<trkpt lat="47.965378" lon="11.104696">
<ele>537.005</ele>
<time>2022-05-27T17:09:56Z</time>
</trkpt>
<trkpt lat="47.965439" lon="11.104647">
<ele>537.005</ele>
<time>2022-05-27T17:09:57Z</time>
</trkpt>
<trkpt lat="47.965496" lon="11.104604">
<ele>537.005</ele>
<time>2022-05-27T17:09:58Z</time>
</trkpt>
<trkpt lat="47.965557" lon="11.104562">
<ele>537.005</ele>
<time>2022-05-27T17:09:59Z</time>
</trkpt>
<trkpt lat="47.965614" lon="11.104525">
<ele>537.005</ele>
<time>2022-05-27T17:10:00Z</time>
</trkpt>
<trkpt lat="47.965672" lon="11.104485">
<ele>536.724</ele>
<time>2022-05-27T17:10:01Z</time>
</trkpt>
<trkpt lat="47.965733" lon="11.104453">
<ele>536.514</ele>
<time>2022-05-27T17:10:02Z</time>
</trkpt>
<trkpt lat="47.965786" lon="11.104422">
<ele>536.602</ele>
<time>2022-05-27T17:10:03Z</time>
</trkpt>
<trkpt lat="47.965836" lon="11.104386">
<ele>536.674</ele>
<time>2022-05-27T17:10:04Z</time>
</trkpt>
<trkpt lat="47.965893" lon="11.10435">
<ele>536.739</ele>
<time>2022-05-27T17:10:05Z</time>
</trkpt>
<trkpt lat="47.965946" lon="11.104315">
<ele>536.795</ele>
<time>2022-05-27T17:10:06Z</time>
</trkpt>
<trkpt lat="47.965996" lon="11.104281">
<ele>536.665</ele>
<time>2022-05-27T17:10:07Z</time>
</trkpt>
<trkpt lat="47.966053" lon="11.10425">
<ele>536.56</ele>
<time>2022-05-27T17:10:08Z</time>
</trkpt>
<trkpt lat="47.966106" lon="11.104217">
<ele>536.439</ele>
<time>2022-05-27T17:10:09Z</time>
</trkpt>
<trkpt lat="47.966167" lon="11.104183">
<ele>536.375</ele>
<time>2022-05-27T17:10:10Z</time>
</trkpt>
<trkpt lat="47.966225" lon="11.104152">
<ele>536.311</ele>
<time>2022-05-27T17:10:11Z</time>
</trkpt>
<trkpt lat="47.966286" lon="11.10412">
<ele>536.259</ele>
<time>2022-05-27T17:10:12Z</time>
</trkpt>
<trkpt lat="47.966347" lon="11.104091">
<ele>536.194</ele>
<time>2022-05-27T17:10:13Z</time>
</trkpt>
<trkpt lat="47.966404" lon="11.104065">
<ele>536.154</ele>
<time>2022-05-27T17:10:14Z</time>
</trkpt>
<trkpt lat="47.966457" lon="11.104038">
<ele>536.133</ele>
<time>2022-05-27T17:10:15Z</time>
</trkpt>
<trkpt lat="47.966507" lon="11.104009">
<ele>536.133</ele>
<time>2022-05-27T17:10:16Z</time>
</trkpt>
<trkpt lat="47.966557" lon="11.103986">
<ele>536.133</ele>
<time>2022-05-27T17:10:17Z</time>
</trkpt>
<trkpt lat="47.966614" lon="11.103962">
<ele>536.133</ele>
<time>2022-05-27T17:10:18Z</time>
</trkpt>
<trkpt lat="47.966675" lon="11.103937">
<ele>536.133</ele>
<time>2022-05-27T17:10:19Z</time>
</trkpt>
<trkpt lat="47.966724" lon="11.103905">
<ele>536.133</ele>
<time>2022-05-27T17:10:20Z</time>
</trkpt>
<trkpt lat="47.966778" lon="11.103868">
<ele>536.133</ele>
<time>2022-05-27T17:10:21Z</time>
</trkpt>
<trkpt lat="47.966831" lon="11.103833">
<ele>536.133</ele>
<time>2022-05-27T17:10:22Z</time>
</trkpt>
<trkpt lat="47.966877" lon="11.103797">
<ele>536.133</ele>
<time>2022-05-27T17:10:23Z</time>
</trkpt>
<trkpt lat="47.96693" lon="11.103762">
<ele>536.133</ele>
<time>2022-05-27T17:10:24Z</time>
</trkpt>
<trkpt lat="47.96698" lon="11.103732">
<ele>536.133</ele>
<time>2022-05-27T17:10:25Z</time>
</trkpt>
<trkpt lat="47.967033" lon="11.103701">
<ele>536.133</ele>
<time>2022-05-27T17:10:26Z</time>
</trkpt>
<trkpt lat="47.967087" lon="11.103665">
<ele>536.133</ele>
<time>2022-05-27T17:10:27Z</time>
</trkpt>
<trkpt lat="47.967144" lon="11.103634">
<ele>536.133</ele>
<time>2022-05-27T17:10:28Z</time>
</trkpt>
<trkpt lat="47.96719" lon="11.103599">
<ele>536.133</ele>
<time>2022-05-27T17:10:29Z</time>
</trkpt>
<trkpt lat="47.967236" lon="11.103562">
<ele>536.133</ele>
<time>2022-05-27T17:10:30Z</time>
</trkpt>
<trkpt lat="47.967297" lon="11.103521">
<ele>536.133</ele>
<time>2022-05-27T17:10:31Z</time>
</trkpt>
<trkpt lat="47.96735" lon="11.10348">
<ele>536.133</ele>
<time>2022-05-27T17:10:32Z</time>
</trkpt>
<trkpt lat="47.9674" lon="11.10344">
<ele>536.133</ele>
<time>2022-05-27T17:10:33Z</time>
</trkpt>
<trkpt lat="47.967457" lon="11.103403">
<ele>536.133</ele>
<time>2022-05-27T17:10:34Z</time>
</trkpt>
<trkpt lat="47.967503" lon="11.103367">
<ele>536.133</ele>
<time>2022-05-27T17:10:35Z</time>
</trkpt>
<trkpt lat="47.96756" lon="11.103336">
<ele>536.133</ele>
<time>2022-05-27T17:10:36Z</time>
</trkpt>
<trkpt lat="47.967609" lon="11.103305">
<ele>536.133</ele>
<time>2022-05-27T17:10:37Z</time>
</trkpt>
<trkpt lat="47.967659" lon="11.103275">
<ele>536.133</ele>
<time>2022-05-27T17:10:38Z</time>
</trkpt>
<trkpt lat="47.96772" lon="11.103253">
<ele>536.133</ele>
<time>2022-05-27T17:10:39Z</time>
</trkpt>
<trkpt lat="47.967777" lon="11.103228">
<ele>536.133</ele>
<time>2022-05-27T17:10:40Z</time>
</trkpt>
<trkpt lat="47.967823" lon="11.1032">
<ele>536.133</ele>
<time>2022-05-27T17:10:41Z</time>
</trkpt>
<trkpt lat="47.967876" lon="11.103171">
<ele>536.133</ele>
<time>2022-05-27T17:10:42Z</time>
</trkpt>
<trkpt lat="47.967922" lon="11.103135">
<ele>536.133</ele>
<time>2022-05-27T17:10:43Z</time>
</trkpt>
<trkpt lat="47.967976" lon="11.103108">
<ele>536.133</ele>
<time>2022-05-27T17:10:44Z</time>
</trkpt>
<trkpt lat="47.968021" lon="11.103085">
<ele>536.133</ele>
<time>2022-05-27T17:10:45Z</time>
</trkpt>
<trkpt lat="47.968075" lon="11.10306">
<ele>536.133</ele>
<time>2022-05-27T17:10:46Z</time>
</trkpt>
<trkpt lat="47.968128" lon="11.10303">
<ele>536.133</ele>
<time>2022-05-27T17:10:47Z</time>
</trkpt>
<trkpt lat="47.968185" lon="11.103007">
<ele>536.133</ele>
<time>2022-05-27T17:10:48Z</time>
</trkpt>
<trkpt lat="47.968243" lon="11.102974">
<ele>536.133</ele>
<time>2022-05-27T17:10:49Z</time>
</trkpt>
<trkpt lat="47.9683" lon="11.102948">
<ele>536.133</ele>
<time>2022-05-27T17:10:50Z</time>
</trkpt>
<trkpt lat="47.968346" lon="11.102911">
<ele>536.133</ele>
<time>2022-05-27T17:10:51Z</time>
</trkpt>
<trkpt lat="47.968407" lon="11.102885">
<ele>536.374</ele>
<time>2022-05-27T17:10:52Z</time>
</trkpt>
<trkpt lat="47.968464" lon="11.102855">
<ele>536.56</ele>
<time>2022-05-27T17:10:53Z</time>
</trkpt>
<trkpt lat="47.968517" lon="11.102827">
<ele>536.698</ele>
<time>2022-05-27T17:10:54Z</time>
</trkpt>
<trkpt lat="47.968567" lon="11.102804">
<ele>536.802</ele>
<time>2022-05-27T17:10:55Z</time>
</trkpt>
<trkpt lat="47.968613" lon="11.102777">
<ele>536.873</ele>
<time>2022-05-27T17:10:56Z</time>
</trkpt>
<trkpt lat="47.968674" lon="11.102747">
<ele>536.93</ele>
<time>2022-05-27T17:10:57Z</time>
</trkpt>
<trkpt lat="47.968731" lon="11.102715">
<ele>536.981</ele>
<time>2022-05-27T17:10:58Z</time>
</trkpt>
<trkpt lat="47.968788" lon="11.102689">
<ele>537.005</ele>
<time>2022-05-27T17:10:59Z</time>
</trkpt>
<trkpt lat="47.968834" lon="11.102674">
<ele>537.005</ele>
<time>2022-05-27T17:11:00Z</time>
</trkpt>
<trkpt lat="47.968895" lon="11.102654">
<ele>537.005</ele>
<time>2022-05-27T17:11:01Z</time>
</trkpt>
<trkpt lat="47.968956" lon="11.102634">
<ele>537.005</ele>
<time>2022-05-27T17:11:02Z</time>
</trkpt>
<trkpt lat="47.969002" lon="11.102618">
<ele>537.005</ele>
<time>2022-05-27T17:11:03Z</time>
</trkpt>
<trkpt lat="47.969051" lon="11.102598">
<ele>537.005</ele>
<time>2022-05-27T17:11:04Z</time>
</trkpt>
<trkpt lat="47.969093" lon="11.10257">
<ele>537.275</ele>
<time>2022-05-27T17:11:05Z</time>
</trkpt>
<trkpt lat="47.969131" lon="11.102549">
<ele>537.492</ele>
<time>2022-05-27T17:11:06Z</time>
</trkpt>
<trkpt lat="47.96917" lon="11.102525">
<ele>537.651</ele>
<time>2022-05-27T17:11:07Z</time>
</trkpt>
<trkpt lat="47.969204" lon="11.10251">
<ele>537.813</ele>
<time>2022-05-27T17:11:08Z</time>
</trkpt>
<trkpt lat="47.969246" lon="11.10249">
<ele>537.707</ele>
<time>2022-05-27T17:11:09Z</time>
</trkpt>
<trkpt lat="47.969288" lon="11.102473">
<ele>537.605</ele>
<time>2022-05-27T17:11:10Z</time>
</trkpt>
<trkpt lat="47.969337" lon="11.102454">
<ele>537.494</ele>
<time>2022-05-27T17:11:11Z</time>
</trkpt>
<trkpt lat="47.969395" lon="11.102431">
<ele>537.379</ele>
<time>2022-05-27T17:11:12Z</time>
</trkpt>
<trkpt lat="47.96946" lon="11.102419">
<ele>537.284</ele>
<time>2022-05-27T17:11:13Z</time>
</trkpt>
<trkpt lat="47.969524" lon="11.102404">
<ele>537.186</ele>
<time>2022-05-27T17:11:14Z</time>
</trkpt>
<trkpt lat="47.969597" lon="11.102386">
<ele>537.133</ele>
<time>2022-05-27T17:11:15Z</time>
</trkpt>
<trkpt lat="47.969666" lon="11.102364">
<ele>537.11</ele>
<time>2022-05-27T17:11:16Z</time>
</trkpt>
<trkpt lat="47.96973" lon="11.10234">
<ele>537.092</ele>
<time>2022-05-27T17:11:17Z</time>
</trkpt>
<trkpt lat="47.969791" lon="11.102324">
<ele>537.092</ele>
<time>2022-05-27T17:11:18Z</time>
</trkpt>
<trkpt lat="47.969845" lon="11.102312">
<ele>536.799</ele>
<time>2022-05-27T17:11:19Z</time>
</trkpt>
<trkpt lat="47.969902" lon="11.102297">
<ele>536.588</ele>
<time>2022-05-27T17:11:20Z</time>
</trkpt>
<trkpt lat="47.969959" lon="11.102282">
<ele>536.427</ele>
<time>2022-05-27T17:11:21Z</time>
</trkpt>
<trkpt lat="47.97002" lon="11.102263">
<ele>536.305</ele>
<time>2022-05-27T17:11:22Z</time>
</trkpt>
<trkpt lat="47.970078" lon="11.102246">
<ele>536.22</ele>
<time>2022-05-27T17:11:23Z</time>
</trkpt>
<trkpt lat="47.970135" lon="11.102223">
<ele>536.16</ele>
<time>2022-05-27T17:11:24Z</time>
</trkpt>
<trkpt lat="47.970192" lon="11.102203">
<ele>536.133</ele>
<time>2022-05-27T17:11:25Z</time>
</trkpt>
<trkpt lat="47.970249" lon="11.102185">
<ele>536.133</ele>
<time>2022-05-27T17:11:26Z</time>
</trkpt>
<trkpt lat="47.970303" lon="11.102168">
<ele>536.133</ele>
<time>2022-05-27T17:11:27Z</time>
</trkpt>
<trkpt lat="47.970356" lon="11.102146">
<ele>536.133</ele>
<time>2022-05-27T17:11:28Z</time>
</trkpt>
<trkpt lat="47.970409" lon="11.102127">
<ele>536.133</ele>
<time>2022-05-27T17:11:29Z</time>
</trkpt>
<trkpt lat="47.970474" lon="11.102115">
<ele>536.133</ele>
<time>2022-05-27T17:11:30Z</time>
</trkpt>
<trkpt lat="47.970543" lon="11.102102">
<ele>536.133</ele>
<time>2022-05-27T17:11:31Z</time>
</trkpt>
<trkpt lat="47.970608" lon="11.102083">
<ele>536.133</ele>
<time>2022-05-27T17:11:32Z</time>
</trkpt>
<trkpt lat="47.970673" lon="11.102067">
<ele>536.133</ele>
<time>2022-05-27T17:11:33Z</time>
</trkpt>
<trkpt lat="47.970734" lon="11.102046">
<ele>536.133</ele>
<time>2022-05-27T17:11:34Z</time>
</trkpt>
<trkpt lat="47.970798" lon="11.102032">
<ele>536.133</ele>
<time>2022-05-27T17:11:35Z</time>
</trkpt>
<trkpt lat="47.97086" lon="11.102015">
<ele>536.133</ele>
<time>2022-05-27T17:11:36Z</time>
</trkpt>
<trkpt lat="47.970917" lon="11.101998">
<ele>536.133</ele>
<time>2022-05-27T17:11:37Z</time>
</trkpt>
<trkpt lat="47.970978" lon="11.101978">
<ele>536.133</ele>
<time>2022-05-27T17:11:38Z</time>
</trkpt>
<trkpt lat="47.971031" lon="11.101958">
<ele>536.385</ele>
<time>2022-05-27T17:11:39Z</time>
</trkpt>
<trkpt lat="47.971085" lon="11.10194">
<ele>536.582</ele>
<time>2022-05-27T17:11:40Z</time>
</trkpt>
<trkpt lat="47.971134" lon="11.10192">
<ele>536.738</ele>
<time>2022-05-27T17:11:41Z</time>
</trkpt>
<trkpt lat="47.971188" lon="11.101901">
<ele>536.852</ele>
<time>2022-05-27T17:11:42Z</time>
</trkpt>
<trkpt lat="47.971241" lon="11.101883">
<ele>536.931</ele>
<time>2022-05-27T17:11:43Z</time>
</trkpt>
<trkpt lat="47.971294" lon="11.101867">
<ele>536.981</ele>
<time>2022-05-27T17:11:44Z</time>
</trkpt>
<trkpt lat="47.97134" lon="11.101849">
<ele>537.005</ele>
<time>2022-05-27T17:11:45Z</time>
</trkpt>
<trkpt lat="47.971382" lon="11.10183">
<ele>537.005</ele>
<time>2022-05-27T17:11:46Z</time>
</trkpt>
<trkpt lat="47.971424" lon="11.101813">
<ele>537.005</ele>
<time>2022-05-27T17:11:47Z</time>
</trkpt>
<trkpt lat="47.97147" lon="11.1018">
<ele>537.005</ele>
<time>2022-05-27T17:11:48Z</time>
</trkpt>
<trkpt lat="47.971504" lon="11.101789">
<ele>537.275</ele>
<time>2022-05-27T17:11:49Z</time>
</trkpt>
<trkpt lat="47.971539" lon="11.101777">
<ele>537.486</ele>
<time>2022-05-27T17:11:50Z</time>
</trkpt>
<trkpt lat="47.971573" lon="11.101765">
<ele>537.654</ele>
<time>2022-05-27T17:11:51Z</time>
</trkpt>
<trkpt lat="47.971611" lon="11.10176">
<ele>537.787</ele>
<time>2022-05-27T17:11:52Z</time>
</trkpt>
<trkpt lat="47.971645" lon="11.101753">
<ele>537.875</ele>
<time>2022-05-27T17:11:53Z</time>
</trkpt>
<trkpt lat="47.971684" lon="11.101745">
<ele>537.937</ele>
<time>2022-05-27T17:11:54Z</time>
</trkpt>
<trkpt lat="47.971722" lon="11.101725">
<ele>537.964</ele>
<time>2022-05-27T17:11:55Z</time>
</trkpt>
<trkpt lat="47.971764" lon="11.101712">
<ele>537.964</ele>
<time>2022-05-27T17:11:56Z</time>
</trkpt>
<trkpt lat="47.971806" lon="11.101691">
<ele>537.964</ele>
<time>2022-05-27T17:11:57Z</time>
</trkpt>
<trkpt lat="47.971851" lon="11.10168">
<ele>537.964</ele>
<time>2022-05-27T17:11:58Z</time>
</trkpt>
<trkpt lat="47.971893" lon="11.101656">
<ele>537.964</ele>
<time>2022-05-27T17:11:59Z</time>
</trkpt>
<trkpt lat="47.971935" lon="11.10164">
<ele>537.964</ele>
<time>2022-05-27T17:12:00Z</time>
</trkpt>
<trkpt lat="47.971977" lon="11.101622">
<ele>537.964</ele>
<time>2022-05-27T17:12:01Z</time>
</trkpt>
<trkpt lat="47.972023" lon="11.101604">
<ele>537.964</ele>
<time>2022-05-27T17:12:02Z</time>
</trkpt>
<trkpt lat="47.972065" lon="11.101586">
<ele>537.964</ele>
<time>2022-05-27T17:12:03Z</time>
</trkpt>
<trkpt lat="47.972118" lon="11.101577">
<ele>537.964</ele>
<time>2022-05-27T17:12:04Z</time>
</trkpt>
<trkpt lat="47.972157" lon="11.10156">
<ele>537.964</ele>
<time>2022-05-27T17:12:05Z</time>
</trkpt>
<trkpt lat="47.972198" lon="11.101543">
<ele>537.964</ele>
<time>2022-05-27T17:12:06Z</time>
</trkpt>
<trkpt lat="47.972244" lon="11.10153">
<ele>537.964</ele>
<time>2022-05-27T17:12:07Z</time>
</trkpt>
<trkpt lat="47.97229" lon="11.101523">
<ele>537.964</ele>
<time>2022-05-27T17:12:08Z</time>
</trkpt>
<trkpt lat="47.972343" lon="11.101528">
<ele>537.964</ele>
<time>2022-05-27T17:12:09Z</time>
</trkpt>
<trkpt lat="47.972389" lon="11.101535">
<ele>537.964</ele>
<time>2022-05-27T17:12:10Z</time>
</trkpt>
<trkpt lat="47.972435" lon="11.101543">
<ele>537.964</ele>
<time>2022-05-27T17:12:11Z</time>
</trkpt>
<trkpt lat="47.972481" lon="11.101549">
<ele>537.964</ele>
<time>2022-05-27T17:12:12Z</time>
</trkpt>
<trkpt lat="47.972527" lon="11.101545">
<ele>537.964</ele>
<time>2022-05-27T17:12:13Z</time>
</trkpt>
<trkpt lat="47.972576" lon="11.101537">
<ele>537.964</ele>
<time>2022-05-27T17:12:14Z</time>
</trkpt>
<trkpt lat="47.972614" lon="11.101521">
<ele>537.964</ele>
<time>2022-05-27T17:12:15Z</time>
</trkpt>
<trkpt lat="47.972656" lon="11.101507">
<ele>537.964</ele>
<time>2022-05-27T17:12:16Z</time>
</trkpt>
<trkpt lat="47.972698" lon="11.101488">
<ele>537.964</ele>
<time>2022-05-27T17:12:17Z</time>
</trkpt>
<trkpt lat="47.972736" lon="11.10147">
<ele>537.8</ele>
<time>2022-05-27T17:12:18Z</time>
</trkpt>
<trkpt lat="47.972775" lon="11.101443">
<ele>537.657</ele>
<time>2022-05-27T17:12:19Z</time>
</trkpt>
<trkpt lat="47.97282" lon="11.101415">
<ele>537.54</ele>
<time>2022-05-27T17:12:20Z</time>
</trkpt>
<trkpt lat="47.972866" lon="11.10139">
<ele>537.444</ele>
<time>2022-05-27T17:12:21Z</time>
</trkpt>
<trkpt lat="47.972912" lon="11.101361">
<ele>537.37</ele>
<time>2022-05-27T17:12:22Z</time>
</trkpt>
<trkpt lat="47.972965" lon="11.101337">
<ele>537.315</ele>
<time>2022-05-27T17:12:23Z</time>
</trkpt>
<trkpt lat="47.973011" lon="11.101315">
<ele>537.282</ele>
<time>2022-05-27T17:12:24Z</time>
</trkpt>
<trkpt lat="47.973064" lon="11.101302">
<ele>537.266</ele>
<time>2022-05-27T17:12:25Z</time>
</trkpt>
<trkpt lat="47.97311" lon="11.101278">
<ele>537.266</ele>
<time>2022-05-27T17:12:26Z</time>
</trkpt>
<trkpt lat="47.97316" lon="11.101254">
<ele>537.267</ele>
<time>2022-05-27T17:12:27Z</time>
</trkpt>
<trkpt lat="47.973213" lon="11.101231">
<ele>537.267</ele>
<time>2022-05-27T17:12:28Z</time>
</trkpt>
<trkpt lat="47.973267" lon="11.101208">
<ele>537.267</ele>
<time>2022-05-27T17:12:29Z</time>
</trkpt>
<trkpt lat="47.973324" lon="11.101189">
<ele>537.267</ele>
<time>2022-05-27T17:12:30Z</time>
</trkpt>
<trkpt lat="47.973373" lon="11.101166">
<ele>537.267</ele>
<time>2022-05-27T17:12:31Z</time>
</trkpt>
<trkpt lat="47.973427" lon="11.10115">
<ele>537.267</ele>
<time>2022-05-27T17:12:32Z</time>
</trkpt>
<trkpt lat="47.973484" lon="11.101134">
<ele>537.267</ele>
<time>2022-05-27T17:12:33Z</time>
</trkpt>
<trkpt lat="47.973534" lon="11.101113">
<ele>537.266</ele>
<time>2022-05-27T17:12:34Z</time>
</trkpt>
<trkpt lat="47.973587" lon="11.10109">
<ele>537.266</ele>
<time>2022-05-27T17:12:35Z</time>
</trkpt>
<trkpt lat="47.973637" lon="11.101062">
<ele>537.267</ele>
<time>2022-05-27T17:12:36Z</time>
</trkpt>
<trkpt lat="47.973686" lon="11.101033">
<ele>537.267</ele>
<time>2022-05-27T17:12:37Z</time>
</trkpt>
<trkpt lat="47.973728" lon="11.100996">
<ele>537.267</ele>
<time>2022-05-27T17:12:38Z</time>
</trkpt>
<trkpt lat="47.973782" lon="11.100963">
<ele>537.267</ele>
<time>2022-05-27T17:12:39Z</time>
</trkpt>
<trkpt lat="47.973831" lon="11.100928">
<ele>537.266</ele>
<time>2022-05-27T17:12:40Z</time>
</trkpt>
<trkpt lat="47.973885" lon="11.100897">
<ele>537.267</ele>
<time>2022-05-27T17:12:41Z</time>
</trkpt>
<trkpt lat="47.973942" lon="11.100866">
<ele>537.267</ele>
<time>2022-05-27T17:12:42Z</time>
</trkpt>
<trkpt lat="47.973991" lon="11.10084">
<ele>537.266</ele>
<time>2022-05-27T17:12:43Z</time>
</trkpt>
<trkpt lat="47.974045" lon="11.100816">
<ele>537.267</ele>
<time>2022-05-27T17:12:44Z</time>
</trkpt>
<trkpt lat="47.974098" lon="11.10079">
<ele>537.267</ele>
<time>2022-05-27T17:12:45Z</time>
</trkpt>
<trkpt lat="47.974144" lon="11.100768">
<ele>537.267</ele>
<time>2022-05-27T17:12:46Z</time>
</trkpt>
<trkpt lat="47.97419" lon="11.100749">
<ele>537.266</ele>
<time>2022-05-27T17:12:47Z</time>
</trkpt>
<trkpt lat="47.974239" lon="11.100728">
<ele>537.267</ele>
<time>2022-05-27T17:12:48Z</time>
</trkpt>
<trkpt lat="47.974281" lon="11.10071">
<ele>537.267</ele>
<time>2022-05-27T17:12:49Z</time>
</trkpt>
<trkpt lat="47.974327" lon="11.10069">
<ele>537.267</ele>
<time>2022-05-27T17:12:50Z</time>
</trkpt>
<trkpt lat="47.974373" lon="11.100667">
<ele>537.267</ele>
<time>2022-05-27T17:12:51Z</time>
</trkpt>
<trkpt lat="47.974419" lon="11.100644">
<ele>537.267</ele>
<time>2022-05-27T17:12:52Z</time>
</trkpt>
<trkpt lat="47.974464" lon="11.100623">
<ele>537.267</ele>
<time>2022-05-27T17:12:53Z</time>
</trkpt>
<trkpt lat="47.97451" lon="11.100602">
<ele>537.266</ele>
<time>2022-05-27T17:12:54Z</time>
</trkpt>
<trkpt lat="47.974556" lon="11.100581">
<ele>537.267</ele>
<time>2022-05-27T17:12:55Z</time>
</trkpt>
<trkpt lat="47.974602" lon="11.100556">
<ele>537.267</ele>
<time>2022-05-27T17:12:56Z</time>
</trkpt>
<trkpt lat="47.974648" lon="11.100532">
<ele>537.266</ele>
<time>2022-05-27T17:12:57Z</time>
</trkpt>
<trkpt lat="47.974693" lon="11.10051">
<ele>537.267</ele>
<time>2022-05-27T17:12:58Z</time>
</trkpt>
<trkpt lat="47.974739" lon="11.100481">
<ele>537.266</ele>
<time>2022-05-27T17:12:59Z</time>
</trkpt>
<trkpt lat="47.974785" lon="11.100455">
<ele>537.267</ele>
<time>2022-05-27T17:13:00Z</time>
</trkpt>
<trkpt lat="47.974827" lon="11.10043">
<ele>537.267</ele>
<time>2022-05-27T17:13:01Z</time>
</trkpt>
<trkpt lat="47.974876" lon="11.100408">
<ele>537.267</ele>
<time>2022-05-27T17:13:02Z</time>
</trkpt>
<trkpt lat="47.974926" lon="11.100387">
<ele>537.266</ele>
<time>2022-05-27T17:13:03Z</time>
</trkpt>
<trkpt lat="47.974972" lon="11.100368">
<ele>537.266</ele>
<time>2022-05-27T17:13:04Z</time>
</trkpt>
<trkpt lat="47.97501" lon="11.10035">
<ele>537.267</ele>
<time>2022-05-27T17:13:05Z</time>
</trkpt>
<trkpt lat="47.975052" lon="11.100326">
<ele>537.267</ele>
<time>2022-05-27T17:13:06Z</time>
</trkpt>
<trkpt lat="47.97509" lon="11.100305">
<ele>537.267</ele>
<time>2022-05-27T17:13:07Z</time>
</trkpt>
<trkpt lat="47.975121" lon="11.100284">
<ele>537.267</ele>
<time>2022-05-27T17:13:08Z</time>
</trkpt>
<trkpt lat="47.975163" lon="11.100261">
<ele>537.266</ele>
<time>2022-05-27T17:13:09Z</time>
</trkpt>
<trkpt lat="47.975201" lon="11.10024">
<ele>537.266</ele>
<time>2022-05-27T17:13:10Z</time>
</trkpt>
<trkpt lat="47.975239" lon="11.100224">
<ele>537.266</ele>
<time>2022-05-27T17:13:11Z</time>
</trkpt>
<trkpt lat="47.975285" lon="11.100206">
<ele>537.267</ele>
<time>2022-05-27T17:13:12Z</time>
</trkpt>
<trkpt lat="47.97533" lon="11.100188">
<ele>537.266</ele>
<time>2022-05-27T17:13:13Z</time>
</trkpt>
<trkpt lat="47.975376" lon="11.10017">
<ele>537.266</ele>
<time>2022-05-27T17:13:14Z</time>
</trkpt>
<trkpt lat="47.975418" lon="11.100148">
<ele>537.266</ele>
<time>2022-05-27T17:13:15Z</time>
</trkpt>
<trkpt lat="47.975468" lon="11.100126">
<ele>537.267</ele>
<time>2022-05-27T17:13:16Z</time>
</trkpt>
<trkpt lat="47.975513" lon="11.10011">
<ele>537.267</ele>
<time>2022-05-27T17:13:17Z</time>
</trkpt>
<trkpt lat="47.975559" lon="11.100089">
<ele>537.267</ele>
<time>2022-05-27T17:13:18Z</time>
</trkpt>
<trkpt lat="47.975601" lon="11.100063">
<ele>537.267</ele>
<time>2022-05-27T17:13:19Z</time>
</trkpt>
<trkpt lat="47.975643" lon="11.100049">
<ele>537.267</ele>
<time>2022-05-27T17:13:20Z</time>
</trkpt>
<trkpt lat="47.975681" lon="11.100033">
<ele>537.267</ele>
<time>2022-05-27T17:13:21Z</time>
</trkpt>
<trkpt lat="47.975723" lon="11.100021">
<ele>537.267</ele>
<time>2022-05-27T17:13:22Z</time>
</trkpt>
<trkpt lat="47.975754" lon="11.099993">
<ele>537.267</ele>
<time>2022-05-27T17:13:23Z</time>
</trkpt>
<trkpt lat="47.975788" lon="11.099977">
<ele>537.267</ele>
<time>2022-05-27T17:13:24Z</time>
</trkpt>
<trkpt lat="47.975826" lon="11.099957">
<ele>537.039</ele>
<time>2022-05-27T17:13:25Z</time>
</trkpt>
<trkpt lat="47.975864" lon="11.099936">
<ele>536.852</ele>
<time>2022-05-27T17:13:26Z</time>
</trkpt>
<trkpt lat="47.975903" lon="11.099907">
<ele>536.718</ele>
<time>2022-05-27T17:13:27Z</time>
</trkpt>
<trkpt lat="47.975937" lon="11.099878">
<ele>536.572</ele>
<time>2022-05-27T17:13:28Z</time>
</trkpt>
<trkpt lat="47.975975" lon="11.099854">
<ele>536.462</ele>
<time>2022-05-27T17:13:29Z</time>
</trkpt>
<trkpt lat="47.976013" lon="11.099835">
<ele>536.382</ele>
<time>2022-05-27T17:13:30Z</time>
</trkpt>
<trkpt lat="47.976055" lon="11.099809">
<ele>536.329</ele>
<time>2022-05-27T17:13:31Z</time>
</trkpt>
<trkpt lat="47.976101" lon="11.09978">
<ele>536.308</ele>
<time>2022-05-27T17:13:32Z</time>
</trkpt>
<trkpt lat="47.976139" lon="11.099756">
<ele>536.308</ele>
<time>2022-05-27T17:13:33Z</time>
</trkpt>
<trkpt lat="47.976185" lon="11.099743">
<ele>536.308</ele>
<time>2022-05-27T17:13:34Z</time>
</trkpt>
<trkpt lat="47.976231" lon="11.099731">
<ele>536.308</ele>
<time>2022-05-27T17:13:35Z</time>
</trkpt>
<trkpt lat="47.976265" lon="11.099708">
<ele>536.308</ele>
<time>2022-05-27T17:13:36Z</time>
</trkpt>
<trkpt lat="47.976299" lon="11.099687">
<ele>536.308</ele>
<time>2022-05-27T17:13:37Z</time>
</trkpt>
<trkpt lat="47.976341" lon="11.099669">
<ele>536.308</ele>
<time>2022-05-27T17:13:38Z</time>
</trkpt>
<trkpt lat="47.976383" lon="11.099643">
<ele>536.308</ele>
<time>2022-05-27T17:13:39Z</time>
</trkpt>
<trkpt lat="47.976421" lon="11.099624">
<ele>536.308</ele>
<time>2022-05-27T17:13:40Z</time>
</trkpt>
<trkpt lat="47.97646" lon="11.099607">
<ele>536.308</ele>
<time>2022-05-27T17:13:41Z</time>
</trkpt>
<trkpt lat="47.976498" lon="11.099586">
<ele>536.308</ele>
<time>2022-05-27T17:13:42Z</time>
</trkpt>
<trkpt lat="47.97654" lon="11.099562">
<ele>536.308</ele>
<time>2022-05-27T17:13:43Z</time>
</trkpt>
<trkpt lat="47.976582" lon="11.099536">
<ele>536.308</ele>
<time>2022-05-27T17:13:44Z</time>
</trkpt>
<trkpt lat="47.97662" lon="11.09951">
<ele>536.308</ele>
<time>2022-05-27T17:13:45Z</time>
</trkpt>
<trkpt lat="47.976665" lon="11.099485">
<ele>536.308</ele>
<time>2022-05-27T17:13:46Z</time>
</trkpt>
<trkpt lat="47.976711" lon="11.099457">
<ele>536.308</ele>
<time>2022-05-27T17:13:47Z</time>
</trkpt>
<trkpt lat="47.976757" lon="11.09943">
<ele>536.308</ele>
<time>2022-05-27T17:13:48Z</time>
</trkpt>
<trkpt lat="47.976803" lon="11.099405">
<ele>536.308</ele>
<time>2022-05-27T17:13:49Z</time>
</trkpt>
<trkpt lat="47.976845" lon="11.099381">
<ele>536.308</ele>
<time>2022-05-27T17:13:50Z</time>
</trkpt>
<trkpt lat="47.976891" lon="11.099357">
<ele>536.308</ele>
<time>2022-05-27T17:13:51Z</time>
</trkpt>
<trkpt lat="47.97694" lon="11.099335">
<ele>536.308</ele>
<time>2022-05-27T17:13:52Z</time>
</trkpt>
<trkpt lat="47.976982" lon="11.099316">
<ele>536.308</ele>
<time>2022-05-27T17:13:53Z</time>
</trkpt>
<trkpt lat="47.977032" lon="11.099295">
<ele>536.308</ele>
<time>2022-05-27T17:13:54Z</time>
</trkpt>
<trkpt lat="47.977077" lon="11.099277">
<ele>536.568</ele>
<time>2022-05-27T17:13:55Z</time>
</trkpt>
<trkpt lat="47.977123" lon="11.099259">
<ele>536.776</ele>
<time>2022-05-27T17:13:56Z</time>
</trkpt>
<trkpt lat="47.977169" lon="11.099242">
<ele>536.919</ele>
<time>2022-05-27T17:13:57Z</time>
</trkpt>
<trkpt lat="47.977211" lon="11.099223">
<ele>537.071</ele>
<time>2022-05-27T17:13:58Z</time>
</trkpt>
<trkpt lat="47.977257" lon="11.099203">
<ele>537.186</ele>
<time>2022-05-27T17:13:59Z</time>
</trkpt>
<trkpt lat="47.977306" lon="11.099186">
<ele>537.272</ele>
<time>2022-05-27T17:14:00Z</time>
</trkpt>
<trkpt lat="47.977345" lon="11.09917">
<ele>537.327</ele>
<time>2022-05-27T17:14:01Z</time>
</trkpt>
<trkpt lat="47.97739" lon="11.099154">
<ele>537.354</ele>
<time>2022-05-27T17:14:02Z</time>
</trkpt>
<trkpt lat="47.977436" lon="11.099144">
<ele>537.354</ele>
<time>2022-05-27T17:14:03Z</time>
</trkpt>
<trkpt lat="47.97747" lon="11.099121">
<ele>537.354</ele>
<time>2022-05-27T17:14:04Z</time>
</trkpt>
<trkpt lat="47.977512" lon="11.099098">
<ele>537.354</ele>
<time>2022-05-27T17:14:05Z</time>
</trkpt>
<trkpt lat="47.977558" lon="11.099085">
<ele>537.354</ele>
<time>2022-05-27T17:14:06Z</time>
</trkpt>
<trkpt lat="47.9776" lon="11.099067">
<ele>537.354</ele>
<time>2022-05-27T17:14:07Z</time>
</trkpt>
<trkpt lat="47.977646" lon="11.099053">
<ele>537.354</ele>
<time>2022-05-27T17:14:08Z</time>
</trkpt>
<trkpt lat="47.977692" lon="11.099044">
<ele>537.354</ele>
<time>2022-05-27T17:14:09Z</time>
</trkpt>
<trkpt lat="47.97773" lon="11.099033">
<ele>537.354</ele>
<time>2022-05-27T17:14:10Z</time>
</trkpt>
<trkpt lat="47.977776" lon="11.099029">
<ele>537.354</ele>
<time>2022-05-27T17:14:11Z</time>
</trkpt>
<trkpt lat="47.977814" lon="11.099029">
<ele>537.354</ele>
<time>2022-05-27T17:14:12Z</time>
</trkpt>
<trkpt lat="47.977856" lon="11.099023">
<ele>537.354</ele>
<time>2022-05-27T17:14:13Z</time>
</trkpt>
<trkpt lat="47.97789" lon="11.099006">
<ele>537.117</ele>
<time>2022-05-27T17:14:14Z</time>
</trkpt>
<trkpt lat="47.977924" lon="11.099002">
<ele>536.931</ele>
<time>2022-05-27T17:14:15Z</time>
</trkpt>
<trkpt lat="47.977955" lon="11.099">
<ele>536.782</ele>
<time>2022-05-27T17:14:16Z</time>
</trkpt>
<trkpt lat="47.977982" lon="11.098991">
<ele>536.674</ele>
<time>2022-05-27T17:14:17Z</time>
</trkpt>
<trkpt lat="47.978016" lon="11.098989">
<ele>536.563</ele>
<time>2022-05-27T17:14:18Z</time>
</trkpt>
<trkpt lat="47.97805" lon="11.09898">
<ele>536.48</ele>
<time>2022-05-27T17:14:19Z</time>
</trkpt>
<trkpt lat="47.978077" lon="11.098972">
<ele>536.422</ele>
<time>2022-05-27T17:14:20Z</time>
</trkpt>
<trkpt lat="47.978107" lon="11.098967">
<ele>536.395</ele>
<time>2022-05-27T17:14:21Z</time>
</trkpt>
<trkpt lat="47.978142" lon="11.098957">
<ele>536.395</ele>
<time>2022-05-27T17:14:22Z</time>
</trkpt>
<trkpt lat="47.978176" lon="11.09894">
<ele>536.395</ele>
<time>2022-05-27T17:14:23Z</time>
</trkpt>
<trkpt lat="47.97821" lon="11.098928">
<ele>536.395</ele>
<time>2022-05-27T17:14:24Z</time>
</trkpt>
<trkpt lat="47.978249" lon="11.09893">
<ele>536.395</ele>
<time>2022-05-27T17:14:25Z</time>
</trkpt>
<trkpt lat="47.978287" lon="11.098932">
<ele>536.395</ele>
<time>2022-05-27T17:14:26Z</time>
</trkpt>
<trkpt lat="47.978325" lon="11.098939">
<ele>536.395</ele>
<time>2022-05-27T17:14:27Z</time>
</trkpt>
<trkpt lat="47.978363" lon="11.098945">
<ele>536.171</ele>
<time>2022-05-27T17:14:28Z</time>
</trkpt>
<trkpt lat="47.978413" lon="11.098953">
<ele>535.989</ele>
<time>2022-05-27T17:14:29Z</time>
</trkpt>
<trkpt lat="47.97847" lon="11.098955">
<ele>535.842</ele>
<time>2022-05-27T17:14:30Z</time>
</trkpt>
<trkpt lat="47.978531" lon="11.098966">
<ele>535.725</ele>
<time>2022-05-27T17:14:31Z</time>
</trkpt>
<trkpt lat="47.978588" lon="11.098983">
<ele>535.634</ele>
<time>2022-05-27T17:14:32Z</time>
</trkpt>
<trkpt lat="47.978642" lon="11.099004">
<ele>535.576</ele>
<time>2022-05-27T17:14:33Z</time>
</trkpt>
<trkpt lat="47.978706" lon="11.099014">
<ele>535.543</ele>
<time>2022-05-27T17:14:34Z</time>
</trkpt>
<trkpt lat="47.97876" lon="11.099022">
<ele>535.202</ele>
<time>2022-05-27T17:14:35Z</time>
</trkpt>
<trkpt lat="47.978813" lon="11.099016">
<ele>534.952</ele>
<time>2022-05-27T17:14:36Z</time>
</trkpt>
<trkpt lat="47.978867" lon="11.099007">
<ele>534.803</ele>
<time>2022-05-27T17:14:37Z</time>
</trkpt>
<trkpt lat="47.978912" lon="11.098991">
<ele>534.638</ele>
<time>2022-05-27T17:14:38Z</time>
</trkpt>
<trkpt lat="47.978954" lon="11.098973">
<ele>534.504</ele>
<time>2022-05-27T17:14:39Z</time>
</trkpt>
<trkpt lat="47.979" lon="11.098947">
<ele>534.403</ele>
<time>2022-05-27T17:14:40Z</time>
</trkpt>
<trkpt lat="47.979046" lon="11.098918">
<ele>534.335</ele>
<time>2022-05-27T17:14:41Z</time>
</trkpt>
<trkpt lat="47.979088" lon="11.098886">
<ele>534.303</ele>
<time>2022-05-27T17:14:42Z</time>
</trkpt>
<trkpt lat="47.97913" lon="11.098857">
<ele>534.303</ele>
<time>2022-05-27T17:14:43Z</time>
</trkpt>
<trkpt lat="47.979172" lon="11.098826">
<ele>534.303</ele>
<time>2022-05-27T17:14:44Z</time>
</trkpt>
<trkpt lat="47.979214" lon="11.098792">
<ele>534.303</ele>
<time>2022-05-27T17:14:45Z</time>
</trkpt>
<trkpt lat="47.979248" lon="11.098759">
<ele>534.303</ele>
<time>2022-05-27T17:14:46Z</time>
</trkpt>
<trkpt lat="47.979294" lon="11.098727">
<ele>534.303</ele>
<time>2022-05-27T17:14:47Z</time>
</trkpt>
<trkpt lat="47.97934" lon="11.098701">
<ele>534.303</ele>
<time>2022-05-27T17:14:48Z</time>
</trkpt>
<trkpt lat="47.979378" lon="11.098675">
<ele>534.303</ele>
<time>2022-05-27T17:14:49Z</time>
</trkpt>
<trkpt lat="47.97942" lon="11.098657">
<ele>534.303</ele>
<time>2022-05-27T17:14:50Z</time>
</trkpt>
<trkpt lat="47.979462" lon="11.098641">
<ele>534.303</ele>
<time>2022-05-27T17:14:51Z</time>
</trkpt>
<trkpt lat="47.979504" lon="11.098623">
<ele>534.303</ele>
<time>2022-05-27T17:14:52Z</time>
</trkpt>
<trkpt lat="47.979549" lon="11.098612">
<ele>534.303</ele>
<time>2022-05-27T17:14:53Z</time>
</trkpt>
<trkpt lat="47.979595" lon="11.098612">
<ele>534.303</ele>
<time>2022-05-27T17:14:54Z</time>
</trkpt>
<trkpt lat="47.979652" lon="11.098612">
<ele>534.544</ele>
<time>2022-05-27T17:14:55Z</time>
</trkpt>
<trkpt lat="47.979694" lon="11.098608">
<ele>534.738</ele>
<time>2022-05-27T17:14:56Z</time>
</trkpt>
<trkpt lat="47.979748" lon="11.098601">
<ele>534.874</ele>
<time>2022-05-27T17:14:57Z</time>
</trkpt>
<trkpt lat="47.979794" lon="11.098593">
<ele>535.013</ele>
<time>2022-05-27T17:14:58Z</time>
</trkpt>
<trkpt lat="47.979843" lon="11.098591">
<ele>535.119</ele>
<time>2022-05-27T17:14:59Z</time>
</trkpt>
<trkpt lat="47.979885" lon="11.098598">
<ele>535.193</ele>
<time>2022-05-27T17:15:00Z</time>
</trkpt>
<trkpt lat="47.979935" lon="11.098597">
<ele>535.24</ele>
<time>2022-05-27T17:15:01Z</time>
</trkpt>
<trkpt lat="47.979988" lon="11.098593">
<ele>535.261</ele>
<time>2022-05-27T17:15:02Z</time>
</trkpt>
<trkpt lat="47.980042" lon="11.098589">
<ele>535.262</ele>
<time>2022-05-27T17:15:03Z</time>
</trkpt>
<trkpt lat="47.980095" lon="11.098574">
<ele>535.262</ele>
<time>2022-05-27T17:15:04Z</time>
</trkpt>
<trkpt lat="47.980145" lon="11.098549">
<ele>535.261</ele>
<time>2022-05-27T17:15:05Z</time>
</trkpt>
<trkpt lat="47.980202" lon="11.098518">
<ele>535.262</ele>
<time>2022-05-27T17:15:06Z</time>
</trkpt>
<trkpt lat="47.980255" lon="11.098485">
<ele>535.262</ele>
<time>2022-05-27T17:15:07Z</time>
</trkpt>
<trkpt lat="47.980305" lon="11.098451">
<ele>535.261</ele>
<time>2022-05-27T17:15:08Z</time>
</trkpt>
<trkpt lat="47.98035" lon="11.098411">
<ele>535.261</ele>
<time>2022-05-27T17:15:09Z</time>
</trkpt>
<trkpt lat="47.9804" lon="11.098369">
<ele>535.261</ele>
<time>2022-05-27T17:15:10Z</time>
</trkpt>
<trkpt lat="47.980446" lon="11.098327">
<ele>535.261</ele>
<time>2022-05-27T17:15:11Z</time>
</trkpt>
<trkpt lat="47.980492" lon="11.098287">
<ele>535.261</ele>
<time>2022-05-27T17:15:12Z</time>
</trkpt>
<trkpt lat="47.980534" lon="11.098245">
<ele>535.261</ele>
<time>2022-05-27T17:15:13Z</time>
</trkpt>
<trkpt lat="47.980579" lon="11.098207">
<ele>535.261</ele>
<time>2022-05-27T17:15:14Z</time>
</trkpt>
<trkpt lat="47.980625" lon="11.098172">
<ele>535.261</ele>
<time>2022-05-27T17:15:15Z</time>
</trkpt>
<trkpt lat="47.980667" lon="11.098145">
<ele>535.261</ele>
<time>2022-05-27T17:15:16Z</time>
</trkpt>
<trkpt lat="47.980721" lon="11.098118">
<ele>535.471</ele>
<time>2022-05-27T17:15:17Z</time>
</trkpt>
<trkpt lat="47.980766" lon="11.098095">
<ele>535.67</ele>
<time>2022-05-27T17:15:18Z</time>
</trkpt>
<trkpt lat="47.980816" lon="11.098071">
<ele>535.837</ele>
<time>2022-05-27T17:15:19Z</time>
</trkpt>
<trkpt lat="47.980858" lon="11.098042">
<ele>535.97</ele>
<time>2022-05-27T17:15:20Z</time>
</trkpt>
<trkpt lat="47.980904" lon="11.098019">
<ele>536.075</ele>
<time>2022-05-27T17:15:21Z</time>
</trkpt>
<trkpt lat="47.980953" lon="11.098">
<ele>536.149</ele>
<time>2022-05-27T17:15:22Z</time>
</trkpt>
<trkpt lat="47.980999" lon="11.09798">
<ele>536.198</ele>
<time>2022-05-27T17:15:23Z</time>
</trkpt>
<trkpt lat="47.981045" lon="11.097963">
<ele>536.22</ele>
<time>2022-05-27T17:15:24Z</time>
</trkpt>
<trkpt lat="47.981087" lon="11.097943">
<ele>536.22</ele>
<time>2022-05-27T17:15:25Z</time>
</trkpt>
<trkpt lat="47.981133" lon="11.097927">
<ele>536.22</ele>
<time>2022-05-27T17:15:26Z</time>
</trkpt>
<trkpt lat="47.981182" lon="11.09791">
<ele>536.22</ele>
<time>2022-05-27T17:15:27Z</time>
</trkpt>
<trkpt lat="47.98122" lon="11.097896">
<ele>536.22</ele>
<time>2022-05-27T17:15:28Z</time>
</trkpt>
<trkpt lat="47.981266" lon="11.097877">
<ele>536.528</ele>
<time>2022-05-27T17:15:29Z</time>
</trkpt>
<trkpt lat="47.981308" lon="11.09785">
<ele>536.767</ele>
<time>2022-05-27T17:15:30Z</time>
</trkpt>
<trkpt lat="47.981346" lon="11.097826">
<ele>536.952</ele>
<time>2022-05-27T17:15:31Z</time>
</trkpt>
<trkpt lat="47.981384" lon="11.097801">
<ele>537.088</ele>
<time>2022-05-27T17:15:32Z</time>
</trkpt>
<trkpt lat="47.981422" lon="11.097784">
<ele>537.175</ele>
<time>2022-05-27T17:15:33Z</time>
</trkpt>
<trkpt lat="47.981453" lon="11.097759">
<ele>537.235</ele>
<time>2022-05-27T17:15:34Z</time>
</trkpt>
<trkpt lat="47.981483" lon="11.097738">
<ele>537.261</ele>
<time>2022-05-27T17:15:35Z</time>
</trkpt>
<trkpt lat="47.981514" lon="11.097717">
<ele>537.266</ele>
<time>2022-05-27T17:15:36Z</time>
</trkpt>
<trkpt lat="47.981544" lon="11.097698">
<ele>537.267</ele>
<time>2022-05-27T17:15:37Z</time>
</trkpt>
<trkpt lat="47.981571" lon="11.097677">
<ele>537.267</ele>
<time>2022-05-27T17:15:38Z</time>
</trkpt>
<trkpt lat="47.981594" lon="11.097652">
<ele>537.267</ele>
<time>2022-05-27T17:15:39Z</time>
</trkpt>
<trkpt lat="47.981621" lon="11.097631">
<ele>537.266</ele>
<time>2022-05-27T17:15:40Z</time>
</trkpt>
<trkpt lat="47.981644" lon="11.097612">
<ele>537.267</ele>
<time>2022-05-27T17:15:41Z</time>
</trkpt>
<trkpt lat="47.98167" lon="11.097591">
<ele>537.266</ele>
<time>2022-05-27T17:15:42Z</time>
</trkpt>
<trkpt lat="47.981701" lon="11.097567">
<ele>537.267</ele>
<time>2022-05-27T17:15:43Z</time>
</trkpt>
<trkpt lat="47.981728" lon="11.097542">
<ele>537.267</ele>
<time>2022-05-27T17:15:44Z</time>
</trkpt>
<trkpt lat="47.98175" lon="11.097522">
<ele>537.267</ele>
<time>2022-05-27T17:15:45Z</time>
</trkpt>
<trkpt lat="47.981773" lon="11.097504">
<ele>537.266</ele>
<time>2022-05-27T17:15:46Z</time>
</trkpt>
<trkpt lat="47.9818" lon="11.097491">
<ele>537.266</ele>
<time>2022-05-27T17:15:47Z</time>
</trkpt>
<trkpt lat="47.981812" lon="11.097485">
<ele>537.266</ele>
<time>2022-05-27T17:15:48Z</time>
</trkpt>
<trkpt lat="47.981819" lon="11.09748">
<ele>537.267</ele>
<time>2022-05-27T17:15:49Z</time>
</trkpt>
<trkpt lat="47.981819" lon="11.097472">
<ele>537.266</ele>
<time>2022-05-27T17:15:50Z</time>
</trkpt>
<trkpt lat="47.981823" lon="11.097466">
<ele>537.266</ele>
<time>2022-05-27T17:15:51Z</time>
</trkpt>
<trkpt lat="47.981853" lon="11.097417">
<ele>537.266</ele>
<time>2022-05-27T17:16:49Z</time>
</trkpt>
<trkpt lat="47.981865" lon="11.097413">
<ele>537.024</ele>
<time>2022-05-27T17:16:50Z</time>
</trkpt>
<trkpt lat="47.98188" lon="11.097409">
<ele>536.818</ele>
<time>2022-05-27T17:16:51Z</time>
</trkpt>
<trkpt lat="47.981892" lon="11.097404">
<ele>536.633</ele>
<time>2022-05-27T17:16:52Z</time>
</trkpt>
<trkpt lat="47.981907" lon="11.097402">
<ele>536.484</ele>
<time>2022-05-27T17:16:53Z</time>
</trkpt>
<trkpt lat="47.981918" lon="11.097395">
<ele>536.383</ele>
<time>2022-05-27T17:16:54Z</time>
</trkpt>
<trkpt lat="47.98193" lon="11.097388">
<ele>536.335</ele>
<time>2022-05-27T17:16:55Z</time>
</trkpt>
<trkpt lat="47.981941" lon="11.097383">
<ele>536.315</ele>
<time>2022-05-27T17:16:56Z</time>
</trkpt>
<trkpt lat="47.981945" lon="11.097375">
<ele>536.308</ele>
<time>2022-05-27T17:16:57Z</time>
</trkpt>
<trkpt lat="47.981953" lon="11.097368">
<ele>536.308</ele>
<time>2022-05-27T17:16:58Z</time>
</trkpt>
<trkpt lat="47.981953" lon="11.09737">
<ele>536.308</ele>
<time>2022-05-27T17:16:59Z</time>
</trkpt>
<trkpt lat="47.981956" lon="11.097367">
<ele>536.308</ele>
<time>2022-05-27T17:17:00Z</time>
</trkpt>
<trkpt lat="47.981972" lon="11.097353">
<ele>536.308</ele>
<time>2022-05-27T17:17:21Z</time>
</trkpt>
<trkpt lat="47.981979" lon="11.097348">
<ele>536.308</ele>
<time>2022-05-27T17:17:22Z</time>
</trkpt>
<trkpt lat="47.981991" lon="11.097346">
<ele>536.308</ele>
<time>2022-05-27T17:17:23Z</time>
</trkpt>
<trkpt lat="47.981998" lon="11.097348">
<ele>536.308</ele>
<time>2022-05-27T17:17:24Z</time>
</trkpt>
<trkpt lat="47.982002" lon="11.097346">
<ele>536.308</ele>
<time>2022-05-27T17:17:25Z</time>
</trkpt>
<trkpt lat="47.982014" lon="11.09735">
<ele>536.308</ele>
<time>2022-05-27T17:17:26Z</time>
</trkpt>
<trkpt lat="47.982029" lon="11.097343">
<ele>536.308</ele>
<time>2022-05-27T17:17:27Z</time>
</trkpt>
<trkpt lat="47.982033" lon="11.097334">
<ele>536.308</ele>
<time>2022-05-27T17:17:28Z</time>
</trkpt>
<trkpt lat="47.982044" lon="11.097322">
<ele>536.308</ele>
<time>2022-05-27T17:17:29Z</time>
</trkpt>
<trkpt lat="47.982056" lon="11.097308">
<ele>536.308</ele>
<time>2022-05-27T17:17:30Z</time>
</trkpt>
<trkpt lat="47.982067" lon="11.09729">
<ele>536.308</ele>
<time>2022-05-27T17:17:31Z</time>
</trkpt>
<trkpt lat="47.982071" lon="11.097269">
<ele>536.308</ele>
<time>2022-05-27T17:17:32Z</time>
</trkpt>
<trkpt lat="47.982075" lon="11.09725">
<ele>536.308</ele>
<time>2022-05-27T17:17:33Z</time>
</trkpt>
<trkpt lat="47.982079" lon="11.097237">
<ele>536.308</ele>
<time>2022-05-27T17:17:34Z</time>
</trkpt>
<trkpt lat="47.982086" lon="11.097227">
<ele>536.308</ele>
<time>2022-05-27T17:17:35Z</time>
</trkpt>
<trkpt lat="47.98209" lon="11.097212">
<ele>536.308</ele>
<time>2022-05-27T17:17:36Z</time>
</trkpt>
<trkpt lat="47.982098" lon="11.097194">
<ele>536.308</ele>
<time>2022-05-27T17:17:37Z</time>
</trkpt>
<trkpt lat="47.982098" lon="11.09717">
<ele>536.308</ele>
<time>2022-05-27T17:17:38Z</time>
</trkpt>
<trkpt lat="47.982105" lon="11.097148">
<ele>536.308</ele>
<time>2022-05-27T17:17:39Z</time>
</trkpt>
<trkpt lat="47.982113" lon="11.097125">
<ele>536.308</ele>
<time>2022-05-27T17:17:40Z</time>
</trkpt>
<trkpt lat="47.982121" lon="11.097094">
<ele>536.308</ele>
<time>2022-05-27T17:17:41Z</time>
</trkpt>
<trkpt lat="47.982132" lon="11.097065">
<ele>536.616</ele>
<time>2022-05-27T17:17:42Z</time>
</trkpt>
<trkpt lat="47.98214" lon="11.097024">
<ele>536.856</ele>
<time>2022-05-27T17:17:43Z</time>
</trkpt>
<trkpt lat="47.982159" lon="11.096989">
<ele>536.973</ele>
<time>2022-05-27T17:17:44Z</time>
</trkpt>
<trkpt lat="47.982166" lon="11.096949">
<ele>537.12</ele>
<time>2022-05-27T17:17:45Z</time>
</trkpt>
<trkpt lat="47.982182" lon="11.096909">
<ele>537.223</ele>
<time>2022-05-27T17:17:46Z</time>
</trkpt>
<trkpt lat="47.982197" lon="11.096865">
<ele>537.296</ele>
<time>2022-05-27T17:17:47Z</time>
</trkpt>
<trkpt lat="47.982208" lon="11.096822">
<ele>537.336</ele>
<time>2022-05-27T17:17:48Z</time>
</trkpt>
<trkpt lat="47.982227" lon="11.096779">
<ele>537.354</ele>
<time>2022-05-27T17:17:49Z</time>
</trkpt>
<trkpt lat="47.982239" lon="11.096739">
<ele>537.354</ele>
<time>2022-05-27T17:17:50Z</time>
</trkpt>
<trkpt lat="47.982258" lon="11.096695">
<ele>537.354</ele>
<time>2022-05-27T17:17:51Z</time>
</trkpt>
<trkpt lat="47.982269" lon="11.09665">
<ele>537.354</ele>
<time>2022-05-27T17:17:52Z</time>
</trkpt>
<trkpt lat="47.982285" lon="11.096607">
<ele>537.614</ele>
<time>2022-05-27T17:17:53Z</time>
</trkpt>
<trkpt lat="47.982304" lon="11.096559">
<ele>537.795</ele>
<time>2022-05-27T17:17:54Z</time>
</trkpt>
<trkpt lat="47.982327" lon="11.096512">
<ele>537.98</ele>
<time>2022-05-27T17:17:55Z</time>
</trkpt>
<trkpt lat="47.982342" lon="11.096463">
<ele>538.131</ele>
<time>2022-05-27T17:17:56Z</time>
</trkpt>
<trkpt lat="47.982361" lon="11.09641">
<ele>538.246</ele>
<time>2022-05-27T17:17:57Z</time>
</trkpt>
<trkpt lat="47.982372" lon="11.096365">
<ele>538.329</ele>
<time>2022-05-27T17:17:58Z</time>
</trkpt>
<trkpt lat="47.982391" lon="11.09631">
<ele>538.376</ele>
<time>2022-05-27T17:17:59Z</time>
</trkpt>
<trkpt lat="47.982407" lon="11.096253">
<ele>538.4</ele>
<time>2022-05-27T17:18:00Z</time>
</trkpt>
<trkpt lat="47.982422" lon="11.096191">
<ele>538.4</ele>
<time>2022-05-27T17:18:01Z</time>
</trkpt>
<trkpt lat="47.982437" lon="11.096128">
<ele>538.4</ele>
<time>2022-05-27T17:18:02Z</time>
</trkpt>
<trkpt lat="47.982452" lon="11.096068">
<ele>538.643</ele>
<time>2022-05-27T17:18:03Z</time>
</trkpt>
<trkpt lat="47.982468" lon="11.09601">
<ele>538.812</ele>
<time>2022-05-27T17:18:04Z</time>
</trkpt>
<trkpt lat="47.982491" lon="11.095953">
<ele>538.984</ele>
<time>2022-05-27T17:18:05Z</time>
</trkpt>
<trkpt lat="47.982517" lon="11.095903">
<ele>539.123</ele>
<time>2022-05-27T17:18:06Z</time>
</trkpt>
<trkpt lat="47.982544" lon="11.095855">
<ele>539.215</ele>
<time>2022-05-27T17:18:07Z</time>
</trkpt>
<trkpt lat="47.982559" lon="11.095808">
<ele>539.288</ele>
<time>2022-05-27T17:18:08Z</time>
</trkpt>
<trkpt lat="47.982586" lon="11.095762">
<ele>539.336</ele>
<time>2022-05-27T17:18:09Z</time>
</trkpt>
<trkpt lat="47.982605" lon="11.09571">
<ele>539.359</ele>
<time>2022-05-27T17:18:10Z</time>
</trkpt>
<trkpt lat="47.982624" lon="11.095662">
<ele>539.664</ele>
<time>2022-05-27T17:18:11Z</time>
</trkpt>
<trkpt lat="47.982647" lon="11.095608">
<ele>539.911</ele>
<time>2022-05-27T17:18:12Z</time>
</trkpt>
<trkpt lat="47.982662" lon="11.09556">
<ele>540.1</ele>
<time>2022-05-27T17:18:13Z</time>
</trkpt>
<trkpt lat="47.982685" lon="11.095507">
<ele>540.235</ele>
<time>2022-05-27T17:18:14Z</time>
</trkpt>
<trkpt lat="47.982704" lon="11.095448">
<ele>540.381</ele>
<time>2022-05-27T17:18:15Z</time>
</trkpt>
<trkpt lat="47.982723" lon="11.095393">
<ele>540.487</ele>
<time>2022-05-27T17:18:16Z</time>
</trkpt>
<trkpt lat="47.982746" lon="11.095335">
<ele>540.55</ele>
<time>2022-05-27T17:18:17Z</time>
</trkpt>
<trkpt lat="47.982761" lon="11.095275">
<ele>540.58</ele>
<time>2022-05-27T17:18:18Z</time>
</trkpt>
<trkpt lat="47.982788" lon="11.095226">
<ele>540.58</ele>
<time>2022-05-27T17:18:19Z</time>
</trkpt>
<trkpt lat="47.982815" lon="11.095177">
<ele>540.58</ele>
<time>2022-05-27T17:18:20Z</time>
</trkpt>
<trkpt lat="47.98283" lon="11.095119">
<ele>540.58</ele>
<time>2022-05-27T17:18:21Z</time>
</trkpt>
<trkpt lat="47.982849" lon="11.095058">
<ele>540.58</ele>
<time>2022-05-27T17:18:22Z</time>
</trkpt>
<trkpt lat="47.982872" lon="11.094998">
<ele>540.58</ele>
<time>2022-05-27T17:18:23Z</time>
</trkpt>
<trkpt lat="47.982887" lon="11.094938">
<ele>540.58</ele>
<time>2022-05-27T17:18:24Z</time>
</trkpt>
<trkpt lat="47.98291" lon="11.094889">
<ele>540.58</ele>
<time>2022-05-27T17:18:25Z</time>
</trkpt>
<trkpt lat="47.982929" lon="11.094838">
<ele>540.58</ele>
<time>2022-05-27T17:18:26Z</time>
</trkpt>
<trkpt lat="47.982941" lon="11.094775">
<ele>540.909</ele>
<time>2022-05-27T17:18:27Z</time>
</trkpt>
<trkpt lat="47.982952" lon="11.094713">
<ele>541.16</ele>
<time>2022-05-27T17:18:28Z</time>
</trkpt>
<trkpt lat="47.98296" lon="11.094646">
<ele>541.349</ele>
<time>2022-05-27T17:18:29Z</time>
</trkpt>
<trkpt lat="47.982971" lon="11.094579">
<ele>541.494</ele>
<time>2022-05-27T17:18:30Z</time>
</trkpt>
<trkpt lat="47.982979" lon="11.09451">
<ele>541.591</ele>
<time>2022-05-27T17:18:31Z</time>
</trkpt>
<trkpt lat="47.982986" lon="11.094443">
<ele>541.655</ele>
<time>2022-05-27T17:18:32Z</time>
</trkpt>
<trkpt lat="47.982998" lon="11.094383">
<ele>541.685</ele>
<time>2022-05-27T17:18:33Z</time>
</trkpt>
<trkpt lat="47.983009" lon="11.094327">
<ele>541.95</ele>
<time>2022-05-27T17:18:34Z</time>
</trkpt>
<trkpt lat="47.983025" lon="11.094267">
<ele>542.164</ele>
<time>2022-05-27T17:18:35Z</time>
</trkpt>
<trkpt lat="47.983036" lon="11.094206">
<ele>542.342</ele>
<time>2022-05-27T17:18:36Z</time>
</trkpt>
<trkpt lat="47.983051" lon="11.094147">
<ele>542.484</ele>
<time>2022-05-27T17:18:37Z</time>
</trkpt>
<trkpt lat="47.983067" lon="11.094089">
<ele>542.597</ele>
<time>2022-05-27T17:18:38Z</time>
</trkpt>
<trkpt lat="47.983078" lon="11.094027">
<ele>542.679</ele>
<time>2022-05-27T17:18:39Z</time>
</trkpt>
<trkpt lat="47.983089" lon="11.093966">
<ele>542.734</ele>
<time>2022-05-27T17:18:40Z</time>
</trkpt>
<trkpt lat="47.983105" lon="11.093902">
<ele>542.761</ele>
<time>2022-05-27T17:18:41Z</time>
</trkpt>
<trkpt lat="47.98312" lon="11.093839">
<ele>542.761</ele>
<time>2022-05-27T17:18:42Z</time>
</trkpt>
<trkpt lat="47.983143" lon="11.093777">
<ele>542.761</ele>
<time>2022-05-27T17:18:43Z</time>
</trkpt>
<trkpt lat="47.983158" lon="11.093719">
<ele>542.761</ele>
<time>2022-05-27T17:18:44Z</time>
</trkpt>
<trkpt lat="47.983173" lon="11.093665">
<ele>542.996</ele>
<time>2022-05-27T17:18:45Z</time>
</trkpt>
<trkpt lat="47.9832" lon="11.093623">
<ele>543.189</ele>
<time>2022-05-27T17:18:46Z</time>
</trkpt>
<trkpt lat="47.983227" lon="11.093585">
<ele>543.346</ele>
<time>2022-05-27T17:18:47Z</time>
</trkpt>
<trkpt lat="47.98325" lon="11.09354">
<ele>543.472</ele>
<time>2022-05-27T17:18:48Z</time>
</trkpt>
<trkpt lat="47.983273" lon="11.093495">
<ele>543.57</ele>
<time>2022-05-27T17:18:49Z</time>
</trkpt>
<trkpt lat="47.983303" lon="11.093456">
<ele>543.645</ele>
<time>2022-05-27T17:18:50Z</time>
</trkpt>
<trkpt lat="47.983326" lon="11.093415">
<ele>543.696</ele>
<time>2022-05-27T17:18:51Z</time>
</trkpt>
<trkpt lat="47.983349" lon="11.09337">
<ele>543.721</ele>
<time>2022-05-27T17:18:52Z</time>
</trkpt>
<trkpt lat="47.983368" lon="11.093324">
<ele>543.721</ele>
<time>2022-05-27T17:18:53Z</time>
</trkpt>
<trkpt lat="47.983391" lon="11.093282">
<ele>543.721</ele>
<time>2022-05-27T17:18:54Z</time>
</trkpt>
<trkpt lat="47.98341" lon="11.093246">
<ele>543.721</ele>
<time>2022-05-27T17:18:55Z</time>
</trkpt>
<trkpt lat="47.983433" lon="11.093217">
<ele>543.721</ele>
<time>2022-05-27T17:18:56Z</time>
</trkpt>
<trkpt lat="47.983452" lon="11.093184">
<ele>543.721</ele>
<time>2022-05-27T17:18:57Z</time>
</trkpt>
<trkpt lat="47.983475" lon="11.093154">
<ele>543.999</ele>
<time>2022-05-27T17:18:58Z</time>
</trkpt>
<trkpt lat="47.983498" lon="11.093125">
<ele>544.218</ele>
<time>2022-05-27T17:18:59Z</time>
</trkpt>
<trkpt lat="47.983517" lon="11.093097">
<ele>544.396</ele>
<time>2022-05-27T17:19:00Z</time>
</trkpt>
<trkpt lat="47.983536" lon="11.093066">
<ele>544.526</ele>
<time>2022-05-27T17:19:01Z</time>
</trkpt>
<trkpt lat="47.983555" lon="11.093028">
<ele>544.623</ele>
<time>2022-05-27T17:19:02Z</time>
</trkpt>
<trkpt lat="47.983566" lon="11.092993">
<ele>544.69</ele>
<time>2022-05-27T17:19:03Z</time>
</trkpt>
<trkpt lat="47.983566" lon="11.092955">
<ele>544.739</ele>
<time>2022-05-27T17:19:04Z</time>
</trkpt>
<trkpt lat="47.983566" lon="11.092917">
<ele>544.768</ele>
<time>2022-05-27T17:19:05Z</time>
</trkpt>
<trkpt lat="47.983559" lon="11.092882">
<ele>544.768</ele>
<time>2022-05-27T17:19:06Z</time>
</trkpt>
<trkpt lat="47.983543" lon="11.092853">
<ele>544.768</ele>
<time>2022-05-27T17:19:07Z</time>
</trkpt>
<trkpt lat="47.983532" lon="11.092827">
<ele>544.768</ele>
<time>2022-05-27T17:19:08Z</time>
</trkpt>
<trkpt lat="47.983517" lon="11.092804">
<ele>544.768</ele>
<time>2022-05-27T17:19:09Z</time>
</trkpt>
<trkpt lat="47.983501" lon="11.092785">
<ele>544.768</ele>
<time>2022-05-27T17:19:10Z</time>
</trkpt>
<trkpt lat="47.983486" lon="11.092765">
<ele>544.768</ele>
<time>2022-05-27T17:19:11Z</time>
</trkpt>
<trkpt lat="47.983475" lon="11.09275">
<ele>544.768</ele>
<time>2022-05-27T17:19:12Z</time>
</trkpt>
<trkpt lat="47.983467" lon="11.092727">
<ele>544.768</ele>
<time>2022-05-27T17:19:13Z</time>
</trkpt>
<trkpt lat="47.983463" lon="11.092697">
<ele>544.768</ele>
<time>2022-05-27T17:19:14Z</time>
</trkpt>
<trkpt lat="47.983463" lon="11.092667">
<ele>544.768</ele>
<time>2022-05-27T17:19:15Z</time>
</trkpt>
<trkpt lat="47.983467" lon="11.092632">
<ele>544.768</ele>
<time>2022-05-27T17:19:16Z</time>
</trkpt>
<trkpt lat="47.983467" lon="11.09259">
<ele>544.768</ele>
<time>2022-05-27T17:19:17Z</time>
</trkpt>
<trkpt lat="47.983459" lon="11.092548">
<ele>544.768</ele>
<time>2022-05-27T17:19:18Z</time>
</trkpt>
<trkpt lat="47.983448" lon="11.092515">
<ele>545.053</ele>
<time>2022-05-27T17:19:19Z</time>
</trkpt>
<trkpt lat="47.98344" lon="11.092499">
<ele>545.26</ele>
<time>2022-05-27T17:19:20Z</time>
</trkpt>
<trkpt lat="47.983437" lon="11.092494">
<ele>545.4</ele>
<time>2022-05-27T17:19:21Z</time>
</trkpt>
<trkpt lat="47.983437" lon="11.092484">
<ele>545.501</ele>
<time>2022-05-27T17:19:22Z</time>
</trkpt>
<trkpt lat="47.983437" lon="11.092484">
<ele>545.501</ele>
</trkpt>
</trkseg>
</trk>
</gpx>